<?xml version="1.0" encoding="UTF-8" standalone="no" ?>
<gpx xmlns="http://www.topografix.com/GPX/1/1" xmlns:xsi="http://www.w3.org/2001/XMLSchema-instance" xsi:schemaLocation="http://www.topografix.com/GPX/1/1 http://www.topografix.com/GPX/1/1/gpx.xsd" version="1.1" creator="VisuGPX - https://www.visugpx.com">
  <metadata>
    <name>BTTAlt800-ActivitéTerminée-PostCheck_J1</name>
  </metadata>
  <trk>
    <name><![CDATA[BTTAlt800-ActivitéTerminée-PostCheck_J1_1]]></name>
    <trkseg>
      <trkpt lat="46.02517" lon="4.55666">
        <ele>696.8</ele>
        <time>2025-09-17T07:19:06Z</time>
      </trkpt>
      <trkpt lat="46.02517" lon="4.55666">
        <ele>696.8</ele>
        <time>2025-09-17T07:19:07Z</time>
      </trkpt>
      <trkpt lat="46.02517" lon="4.55667">
        <ele>696.8</ele>
        <time>2025-09-17T07:19:08Z</time>
      </trkpt>
      <trkpt lat="46.02517" lon="4.55668">
        <ele>696.8</ele>
        <time>2025-09-17T07:19:09Z</time>
      </trkpt>
      <trkpt lat="46.02522" lon="4.5567">
        <ele>696.6</ele>
        <time>2025-09-17T07:19:42Z</time>
      </trkpt>
      <trkpt lat="46.02523" lon="4.5567">
        <ele>696.6</ele>
        <time>2025-09-17T07:19:43Z</time>
      </trkpt>
      <trkpt lat="46.02525" lon="4.5567">
        <ele>696.6</ele>
        <time>2025-09-17T07:19:44Z</time>
      </trkpt>
      <trkpt lat="46.02526" lon="4.5567">
        <ele>696.6</ele>
        <time>2025-09-17T07:19:45Z</time>
      </trkpt>
      <trkpt lat="46.02527" lon="4.55671">
        <ele>696.6</ele>
        <time>2025-09-17T07:19:46Z</time>
      </trkpt>
      <trkpt lat="46.02528" lon="4.55671">
        <ele>696.6</ele>
        <time>2025-09-17T07:19:47Z</time>
      </trkpt>
      <trkpt lat="46.02529" lon="4.55671">
        <ele>696.6</ele>
        <time>2025-09-17T07:19:48Z</time>
      </trkpt>
      <trkpt lat="46.0253" lon="4.55671">
        <ele>696.6</ele>
        <time>2025-09-17T07:19:49Z</time>
      </trkpt>
      <trkpt lat="46.02532" lon="4.55672">
        <ele>696.6</ele>
        <time>2025-09-17T07:19:50Z</time>
      </trkpt>
      <trkpt lat="46.02534" lon="4.55673">
        <ele>696.4</ele>
        <time>2025-09-17T07:19:51Z</time>
      </trkpt>
      <trkpt lat="46.02536" lon="4.55673">
        <ele>696.4</ele>
        <time>2025-09-17T07:19:52Z</time>
      </trkpt>
      <trkpt lat="46.02539" lon="4.55673">
        <ele>696.4</ele>
        <time>2025-09-17T07:19:53Z</time>
      </trkpt>
      <trkpt lat="46.02542" lon="4.55672">
        <ele>696.2</ele>
        <time>2025-09-17T07:19:54Z</time>
      </trkpt>
      <trkpt lat="46.02544" lon="4.55672">
        <ele>695.8</ele>
        <time>2025-09-17T07:19:55Z</time>
      </trkpt>
      <trkpt lat="46.02547" lon="4.55672">
        <ele>695.8</ele>
        <time>2025-09-17T07:19:56Z</time>
      </trkpt>
      <trkpt lat="46.02549" lon="4.55672">
        <ele>695.4</ele>
        <time>2025-09-17T07:19:57Z</time>
      </trkpt>
      <trkpt lat="46.02551" lon="4.55672">
        <ele>695.4</ele>
        <time>2025-09-17T07:19:58Z</time>
      </trkpt>
      <trkpt lat="46.02553" lon="4.55671">
        <ele>695.2</ele>
        <time>2025-09-17T07:19:59Z</time>
      </trkpt>
      <trkpt lat="46.02555" lon="4.5567">
        <ele>695.2</ele>
        <time>2025-09-17T07:20:00Z</time>
      </trkpt>
      <trkpt lat="46.02556" lon="4.5567">
        <ele>695.2</ele>
        <time>2025-09-17T07:20:01Z</time>
      </trkpt>
      <trkpt lat="46.02556" lon="4.5567">
        <ele>695.2</ele>
        <time>2025-09-17T07:20:02Z</time>
      </trkpt>
      <trkpt lat="46.02556" lon="4.5567">
        <ele>695</ele>
        <time>2025-09-17T07:20:03Z</time>
      </trkpt>
      <trkpt lat="46.02556" lon="4.5567">
        <ele>695</ele>
        <time>2025-09-17T07:20:04Z</time>
      </trkpt>
      <trkpt lat="46.02557" lon="4.55669">
        <ele>694.6</ele>
        <time>2025-09-17T07:20:21Z</time>
      </trkpt>
      <trkpt lat="46.02559" lon="4.55669">
        <ele>694.4</ele>
        <time>2025-09-17T07:20:22Z</time>
      </trkpt>
      <trkpt lat="46.02562" lon="4.5567">
        <ele>694.4</ele>
        <time>2025-09-17T07:20:23Z</time>
      </trkpt>
      <trkpt lat="46.02565" lon="4.5567">
        <ele>694</ele>
        <time>2025-09-17T07:20:24Z</time>
      </trkpt>
      <trkpt lat="46.02576" lon="4.55667">
        <ele>693.6</ele>
        <time>2025-09-17T07:20:25Z</time>
      </trkpt>
      <trkpt lat="46.02582" lon="4.55666">
        <ele>693</ele>
        <time>2025-09-17T07:20:26Z</time>
      </trkpt>
      <trkpt lat="46.02587" lon="4.55665">
        <ele>692.6</ele>
        <time>2025-09-17T07:20:27Z</time>
      </trkpt>
      <trkpt lat="46.02593" lon="4.55664">
        <ele>692.4</ele>
        <time>2025-09-17T07:20:28Z</time>
      </trkpt>
      <trkpt lat="46.026" lon="4.55664">
        <ele>691.6</ele>
        <time>2025-09-17T07:20:29Z</time>
      </trkpt>
      <trkpt lat="46.02607" lon="4.55664">
        <ele>691</ele>
        <time>2025-09-17T07:20:30Z</time>
      </trkpt>
      <trkpt lat="46.02614" lon="4.55664">
        <ele>690.4</ele>
        <time>2025-09-17T07:20:31Z</time>
      </trkpt>
      <trkpt lat="46.02621" lon="4.55664">
        <ele>690</ele>
        <time>2025-09-17T07:20:32Z</time>
      </trkpt>
      <trkpt lat="46.02627" lon="4.55664">
        <ele>689.4</ele>
        <time>2025-09-17T07:20:33Z</time>
      </trkpt>
      <trkpt lat="46.02633" lon="4.55663">
        <ele>689.2</ele>
        <time>2025-09-17T07:20:34Z</time>
      </trkpt>
      <trkpt lat="46.02639" lon="4.55663">
        <ele>688.6</ele>
        <time>2025-09-17T07:20:35Z</time>
      </trkpt>
      <trkpt lat="46.02644" lon="4.55664">
        <ele>688.4</ele>
        <time>2025-09-17T07:20:36Z</time>
      </trkpt>
      <trkpt lat="46.02648" lon="4.55665">
        <ele>688</ele>
        <time>2025-09-17T07:20:37Z</time>
      </trkpt>
      <trkpt lat="46.02652" lon="4.55667">
        <ele>687.6</ele>
        <time>2025-09-17T07:20:38Z</time>
      </trkpt>
      <trkpt lat="46.02653" lon="4.55667">
        <ele>687.6</ele>
        <time>2025-09-17T07:20:39Z</time>
      </trkpt>
      <trkpt lat="46.02654" lon="4.55669">
        <ele>687.2</ele>
        <time>2025-09-17T07:20:40Z</time>
      </trkpt>
      <trkpt lat="46.02656" lon="4.55672">
        <ele>687</ele>
        <time>2025-09-17T07:20:41Z</time>
      </trkpt>
      <trkpt lat="46.02659" lon="4.55672">
        <ele>687</ele>
        <time>2025-09-17T07:20:42Z</time>
      </trkpt>
      <trkpt lat="46.02661" lon="4.5567">
        <ele>687</ele>
        <time>2025-09-17T07:20:43Z</time>
      </trkpt>
      <trkpt lat="46.02663" lon="4.55667">
        <ele>686.6</ele>
        <time>2025-09-17T07:20:44Z</time>
      </trkpt>
      <trkpt lat="46.02666" lon="4.55665">
        <ele>686.2</ele>
        <time>2025-09-17T07:20:45Z</time>
      </trkpt>
      <trkpt lat="46.02668" lon="4.5566">
        <ele>686</ele>
        <time>2025-09-17T07:20:46Z</time>
      </trkpt>
      <trkpt lat="46.02671" lon="4.55657">
        <ele>686</ele>
        <time>2025-09-17T07:20:47Z</time>
      </trkpt>
      <trkpt lat="46.02675" lon="4.55653">
        <ele>685.6</ele>
        <time>2025-09-17T07:20:48Z</time>
      </trkpt>
      <trkpt lat="46.02678" lon="4.55649">
        <ele>685</ele>
        <time>2025-09-17T07:20:49Z</time>
      </trkpt>
      <trkpt lat="46.02683" lon="4.55646">
        <ele>684.8</ele>
        <time>2025-09-17T07:20:50Z</time>
      </trkpt>
      <trkpt lat="46.02688" lon="4.55642">
        <ele>684.6</ele>
        <time>2025-09-17T07:20:51Z</time>
      </trkpt>
      <trkpt lat="46.02693" lon="4.55638">
        <ele>684.2</ele>
        <time>2025-09-17T07:20:52Z</time>
      </trkpt>
      <trkpt lat="46.02698" lon="4.55635">
        <ele>683.8</ele>
        <time>2025-09-17T07:20:53Z</time>
      </trkpt>
      <trkpt lat="46.02704" lon="4.55633">
        <ele>683.6</ele>
        <time>2025-09-17T07:20:54Z</time>
      </trkpt>
      <trkpt lat="46.0271" lon="4.55632">
        <ele>683.6</ele>
        <time>2025-09-17T07:20:55Z</time>
      </trkpt>
      <trkpt lat="46.02717" lon="4.5563">
        <ele>683.2</ele>
        <time>2025-09-17T07:20:56Z</time>
      </trkpt>
      <trkpt lat="46.02723" lon="4.55628">
        <ele>682.8</ele>
        <time>2025-09-17T07:20:57Z</time>
      </trkpt>
      <trkpt lat="46.02731" lon="4.55627">
        <ele>682.4</ele>
        <time>2025-09-17T07:20:58Z</time>
      </trkpt>
      <trkpt lat="46.02738" lon="4.55625">
        <ele>682</ele>
        <time>2025-09-17T07:20:59Z</time>
      </trkpt>
      <trkpt lat="46.02745" lon="4.55624">
        <ele>681.2</ele>
        <time>2025-09-17T07:21:00Z</time>
      </trkpt>
      <trkpt lat="46.02753" lon="4.55623">
        <ele>680.8</ele>
        <time>2025-09-17T07:21:01Z</time>
      </trkpt>
      <trkpt lat="46.02761" lon="4.5562">
        <ele>680.8</ele>
        <time>2025-09-17T07:21:02Z</time>
      </trkpt>
      <trkpt lat="46.02768" lon="4.55616">
        <ele>680.4</ele>
        <time>2025-09-17T07:21:03Z</time>
      </trkpt>
      <trkpt lat="46.02776" lon="4.55613">
        <ele>680</ele>
        <time>2025-09-17T07:21:04Z</time>
      </trkpt>
      <trkpt lat="46.02784" lon="4.5561">
        <ele>679.6</ele>
        <time>2025-09-17T07:21:05Z</time>
      </trkpt>
      <trkpt lat="46.02791" lon="4.55604">
        <ele>679.2</ele>
        <time>2025-09-17T07:21:06Z</time>
      </trkpt>
      <trkpt lat="46.02799" lon="4.55599">
        <ele>678.4</ele>
        <time>2025-09-17T07:21:07Z</time>
      </trkpt>
      <trkpt lat="46.02807" lon="4.55592">
        <ele>677.6</ele>
        <time>2025-09-17T07:21:08Z</time>
      </trkpt>
      <trkpt lat="46.02814" lon="4.55587">
        <ele>677</ele>
        <time>2025-09-17T07:21:09Z</time>
      </trkpt>
      <trkpt lat="46.02822" lon="4.5558">
        <ele>676.8</ele>
        <time>2025-09-17T07:21:10Z</time>
      </trkpt>
      <trkpt lat="46.0283" lon="4.55574">
        <ele>676.2</ele>
        <time>2025-09-17T07:21:11Z</time>
      </trkpt>
      <trkpt lat="46.02838" lon="4.55568">
        <ele>675.8</ele>
        <time>2025-09-17T07:21:12Z</time>
      </trkpt>
      <trkpt lat="46.02845" lon="4.55561">
        <ele>675.4</ele>
        <time>2025-09-17T07:21:13Z</time>
      </trkpt>
      <trkpt lat="46.02853" lon="4.55556">
        <ele>675.4</ele>
        <time>2025-09-17T07:21:14Z</time>
      </trkpt>
      <trkpt lat="46.02862" lon="4.5555">
        <ele>675.4</ele>
        <time>2025-09-17T07:21:15Z</time>
      </trkpt>
      <trkpt lat="46.0287" lon="4.55544">
        <ele>674.8</ele>
        <time>2025-09-17T07:21:16Z</time>
      </trkpt>
      <trkpt lat="46.02879" lon="4.55539">
        <ele>674.2</ele>
        <time>2025-09-17T07:21:17Z</time>
      </trkpt>
      <trkpt lat="46.02888" lon="4.55534">
        <ele>673.8</ele>
        <time>2025-09-17T07:21:18Z</time>
      </trkpt>
      <trkpt lat="46.02896" lon="4.5553">
        <ele>673.2</ele>
        <time>2025-09-17T07:21:19Z</time>
      </trkpt>
      <trkpt lat="46.02905" lon="4.55525">
        <ele>672.8</ele>
        <time>2025-09-17T07:21:20Z</time>
      </trkpt>
      <trkpt lat="46.02914" lon="4.55522">
        <ele>672.4</ele>
        <time>2025-09-17T07:21:21Z</time>
      </trkpt>
      <trkpt lat="46.02924" lon="4.55517">
        <ele>671.8</ele>
        <time>2025-09-17T07:21:22Z</time>
      </trkpt>
      <trkpt lat="46.02933" lon="4.55514">
        <ele>671.6</ele>
        <time>2025-09-17T07:21:23Z</time>
      </trkpt>
      <trkpt lat="46.02942" lon="4.55507">
        <ele>671</ele>
        <time>2025-09-17T07:21:24Z</time>
      </trkpt>
      <trkpt lat="46.0295" lon="4.55499">
        <ele>670.6</ele>
        <time>2025-09-17T07:21:25Z</time>
      </trkpt>
      <trkpt lat="46.02957" lon="4.5549">
        <ele>670</ele>
        <time>2025-09-17T07:21:26Z</time>
      </trkpt>
      <trkpt lat="46.02964" lon="4.5548">
        <ele>669.6</ele>
        <time>2025-09-17T07:21:27Z</time>
      </trkpt>
      <trkpt lat="46.0297" lon="4.55469">
        <ele>669</ele>
        <time>2025-09-17T07:21:28Z</time>
      </trkpt>
      <trkpt lat="46.02976" lon="4.5546">
        <ele>668.6</ele>
        <time>2025-09-17T07:21:29Z</time>
      </trkpt>
      <trkpt lat="46.02983" lon="4.5545">
        <ele>668.2</ele>
        <time>2025-09-17T07:21:30Z</time>
      </trkpt>
      <trkpt lat="46.02989" lon="4.55441">
        <ele>667.8</ele>
        <time>2025-09-17T07:21:31Z</time>
      </trkpt>
      <trkpt lat="46.02996" lon="4.55433">
        <ele>667.4</ele>
        <time>2025-09-17T07:21:32Z</time>
      </trkpt>
      <trkpt lat="46.03004" lon="4.55426">
        <ele>666.8</ele>
        <time>2025-09-17T07:21:33Z</time>
      </trkpt>
      <trkpt lat="46.03013" lon="4.55418">
        <ele>666.2</ele>
        <time>2025-09-17T07:21:34Z</time>
      </trkpt>
      <trkpt lat="46.03021" lon="4.55412">
        <ele>665.6</ele>
        <time>2025-09-17T07:21:35Z</time>
      </trkpt>
      <trkpt lat="46.0303" lon="4.55406">
        <ele>664.8</ele>
        <time>2025-09-17T07:21:36Z</time>
      </trkpt>
      <trkpt lat="46.03039" lon="4.554">
        <ele>664.6</ele>
        <time>2025-09-17T07:21:37Z</time>
      </trkpt>
      <trkpt lat="46.03048" lon="4.55394">
        <ele>664</ele>
        <time>2025-09-17T07:21:38Z</time>
      </trkpt>
      <trkpt lat="46.03056" lon="4.55388">
        <ele>663.4</ele>
        <time>2025-09-17T07:21:39Z</time>
      </trkpt>
      <trkpt lat="46.03065" lon="4.55382">
        <ele>663</ele>
        <time>2025-09-17T07:21:40Z</time>
      </trkpt>
      <trkpt lat="46.03074" lon="4.55375">
        <ele>662.6</ele>
        <time>2025-09-17T07:21:41Z</time>
      </trkpt>
      <trkpt lat="46.03083" lon="4.55369">
        <ele>662</ele>
        <time>2025-09-17T07:21:42Z</time>
      </trkpt>
      <trkpt lat="46.03091" lon="4.55363">
        <ele>661.4</ele>
        <time>2025-09-17T07:21:43Z</time>
      </trkpt>
      <trkpt lat="46.03099" lon="4.55356">
        <ele>661</ele>
        <time>2025-09-17T07:21:44Z</time>
      </trkpt>
      <trkpt lat="46.03106" lon="4.55351">
        <ele>660.8</ele>
        <time>2025-09-17T07:21:45Z</time>
      </trkpt>
      <trkpt lat="46.03113" lon="4.55345">
        <ele>660.4</ele>
        <time>2025-09-17T07:21:46Z</time>
      </trkpt>
      <trkpt lat="46.03121" lon="4.5534">
        <ele>660.2</ele>
        <time>2025-09-17T07:21:47Z</time>
      </trkpt>
      <trkpt lat="46.03128" lon="4.55333">
        <ele>659.6</ele>
        <time>2025-09-17T07:21:48Z</time>
      </trkpt>
      <trkpt lat="46.03135" lon="4.55328">
        <ele>659.2</ele>
        <time>2025-09-17T07:21:49Z</time>
      </trkpt>
      <trkpt lat="46.0314" lon="4.55324">
        <ele>659</ele>
        <time>2025-09-17T07:21:50Z</time>
      </trkpt>
      <trkpt lat="46.03144" lon="4.55321">
        <ele>658.6</ele>
        <time>2025-09-17T07:21:51Z</time>
      </trkpt>
      <trkpt lat="46.03148" lon="4.55319">
        <ele>658.6</ele>
        <time>2025-09-17T07:21:52Z</time>
      </trkpt>
      <trkpt lat="46.03151" lon="4.55318">
        <ele>658.6</ele>
        <time>2025-09-17T07:21:53Z</time>
      </trkpt>
      <trkpt lat="46.03152" lon="4.55317">
        <ele>658.6</ele>
        <time>2025-09-17T07:21:54Z</time>
      </trkpt>
      <trkpt lat="46.03154" lon="4.55316">
        <ele>658.6</ele>
        <time>2025-09-17T07:21:55Z</time>
      </trkpt>
      <trkpt lat="46.03155" lon="4.55315">
        <ele>658.6</ele>
        <time>2025-09-17T07:21:56Z</time>
      </trkpt>
      <trkpt lat="46.03158" lon="4.55313">
        <ele>658.6</ele>
        <time>2025-09-17T07:21:57Z</time>
      </trkpt>
      <trkpt lat="46.0316" lon="4.5531">
        <ele>658.6</ele>
        <time>2025-09-17T07:21:58Z</time>
      </trkpt>
      <trkpt lat="46.03163" lon="4.55307">
        <ele>658.6</ele>
        <time>2025-09-17T07:21:59Z</time>
      </trkpt>
      <trkpt lat="46.03166" lon="4.55303">
        <ele>658.2</ele>
        <time>2025-09-17T07:22:00Z</time>
      </trkpt>
      <trkpt lat="46.03169" lon="4.55299">
        <ele>658.2</ele>
        <time>2025-09-17T07:22:01Z</time>
      </trkpt>
      <trkpt lat="46.03172" lon="4.55295">
        <ele>657.8</ele>
        <time>2025-09-17T07:22:02Z</time>
      </trkpt>
      <trkpt lat="46.03175" lon="4.55292">
        <ele>657.8</ele>
        <time>2025-09-17T07:22:03Z</time>
      </trkpt>
      <trkpt lat="46.03178" lon="4.55289">
        <ele>657.8</ele>
        <time>2025-09-17T07:22:04Z</time>
      </trkpt>
      <trkpt lat="46.03181" lon="4.55287">
        <ele>658.2</ele>
        <time>2025-09-17T07:22:05Z</time>
      </trkpt>
      <trkpt lat="46.03184" lon="4.55284">
        <ele>658.4</ele>
        <time>2025-09-17T07:22:06Z</time>
      </trkpt>
      <trkpt lat="46.03187" lon="4.55281">
        <ele>658.4</ele>
        <time>2025-09-17T07:22:07Z</time>
      </trkpt>
      <trkpt lat="46.03189" lon="4.55277">
        <ele>658.8</ele>
        <time>2025-09-17T07:22:08Z</time>
      </trkpt>
      <trkpt lat="46.03191" lon="4.55274">
        <ele>658.8</ele>
        <time>2025-09-17T07:22:09Z</time>
      </trkpt>
      <trkpt lat="46.03194" lon="4.55272">
        <ele>659.2</ele>
        <time>2025-09-17T07:22:10Z</time>
      </trkpt>
      <trkpt lat="46.03196" lon="4.5527">
        <ele>659.4</ele>
        <time>2025-09-17T07:22:11Z</time>
      </trkpt>
      <trkpt lat="46.03198" lon="4.55267">
        <ele>659.6</ele>
        <time>2025-09-17T07:22:12Z</time>
      </trkpt>
      <trkpt lat="46.032" lon="4.55265">
        <ele>659.6</ele>
        <time>2025-09-17T07:22:13Z</time>
      </trkpt>
      <trkpt lat="46.03202" lon="4.55262">
        <ele>660</ele>
        <time>2025-09-17T07:22:14Z</time>
      </trkpt>
      <trkpt lat="46.03203" lon="4.5526">
        <ele>660.2</ele>
        <time>2025-09-17T07:22:15Z</time>
      </trkpt>
      <trkpt lat="46.03205" lon="4.55258">
        <ele>660.2</ele>
        <time>2025-09-17T07:22:16Z</time>
      </trkpt>
      <trkpt lat="46.03207" lon="4.55256">
        <ele>660.2</ele>
        <time>2025-09-17T07:22:17Z</time>
      </trkpt>
      <trkpt lat="46.03209" lon="4.55254">
        <ele>660.6</ele>
        <time>2025-09-17T07:22:18Z</time>
      </trkpt>
      <trkpt lat="46.03211" lon="4.55253">
        <ele>660.8</ele>
        <time>2025-09-17T07:22:19Z</time>
      </trkpt>
      <trkpt lat="46.03212" lon="4.5525">
        <ele>661.2</ele>
        <time>2025-09-17T07:22:20Z</time>
      </trkpt>
      <trkpt lat="46.03213" lon="4.55248">
        <ele>661.4</ele>
        <time>2025-09-17T07:22:21Z</time>
      </trkpt>
      <trkpt lat="46.03214" lon="4.55246">
        <ele>661.4</ele>
        <time>2025-09-17T07:22:22Z</time>
      </trkpt>
      <trkpt lat="46.03215" lon="4.55244">
        <ele>662</ele>
        <time>2025-09-17T07:22:23Z</time>
      </trkpt>
      <trkpt lat="46.03216" lon="4.55242">
        <ele>662.2</ele>
        <time>2025-09-17T07:22:24Z</time>
      </trkpt>
      <trkpt lat="46.03217" lon="4.5524">
        <ele>662.4</ele>
        <time>2025-09-17T07:22:25Z</time>
      </trkpt>
      <trkpt lat="46.03218" lon="4.55238">
        <ele>662.4</ele>
        <time>2025-09-17T07:22:26Z</time>
      </trkpt>
      <trkpt lat="46.03219" lon="4.55236">
        <ele>662.6</ele>
        <time>2025-09-17T07:22:27Z</time>
      </trkpt>
      <trkpt lat="46.03221" lon="4.55234">
        <ele>662.6</ele>
        <time>2025-09-17T07:22:28Z</time>
      </trkpt>
      <trkpt lat="46.03222" lon="4.55232">
        <ele>663</ele>
        <time>2025-09-17T07:22:29Z</time>
      </trkpt>
      <trkpt lat="46.03223" lon="4.5523">
        <ele>663.4</ele>
        <time>2025-09-17T07:22:30Z</time>
      </trkpt>
      <trkpt lat="46.03223" lon="4.55227">
        <ele>663.4</ele>
        <time>2025-09-17T07:22:31Z</time>
      </trkpt>
      <trkpt lat="46.03224" lon="4.55226">
        <ele>663.6</ele>
        <time>2025-09-17T07:22:32Z</time>
      </trkpt>
      <trkpt lat="46.03225" lon="4.55224">
        <ele>664</ele>
        <time>2025-09-17T07:22:33Z</time>
      </trkpt>
      <trkpt lat="46.03226" lon="4.55221">
        <ele>664</ele>
        <time>2025-09-17T07:22:34Z</time>
      </trkpt>
      <trkpt lat="46.03226" lon="4.55219">
        <ele>664.2</ele>
        <time>2025-09-17T07:22:35Z</time>
      </trkpt>
      <trkpt lat="46.03227" lon="4.55216">
        <ele>664.2</ele>
        <time>2025-09-17T07:22:36Z</time>
      </trkpt>
      <trkpt lat="46.03228" lon="4.55213">
        <ele>664.8</ele>
        <time>2025-09-17T07:22:37Z</time>
      </trkpt>
      <trkpt lat="46.03228" lon="4.55211">
        <ele>665.2</ele>
        <time>2025-09-17T07:22:38Z</time>
      </trkpt>
      <trkpt lat="46.03229" lon="4.55209">
        <ele>665.6</ele>
        <time>2025-09-17T07:22:39Z</time>
      </trkpt>
      <trkpt lat="46.03229" lon="4.55207">
        <ele>665.8</ele>
        <time>2025-09-17T07:22:40Z</time>
      </trkpt>
      <trkpt lat="46.0323" lon="4.55205">
        <ele>665.8</ele>
        <time>2025-09-17T07:22:41Z</time>
      </trkpt>
      <trkpt lat="46.0323" lon="4.55203">
        <ele>666.2</ele>
        <time>2025-09-17T07:22:42Z</time>
      </trkpt>
      <trkpt lat="46.03231" lon="4.552">
        <ele>666.4</ele>
        <time>2025-09-17T07:22:43Z</time>
      </trkpt>
      <trkpt lat="46.03232" lon="4.55198">
        <ele>666.4</ele>
        <time>2025-09-17T07:22:44Z</time>
      </trkpt>
      <trkpt lat="46.03232" lon="4.55196">
        <ele>666.6</ele>
        <time>2025-09-17T07:22:45Z</time>
      </trkpt>
      <trkpt lat="46.03233" lon="4.55194">
        <ele>666.6</ele>
        <time>2025-09-17T07:22:46Z</time>
      </trkpt>
      <trkpt lat="46.03234" lon="4.55193">
        <ele>667</ele>
        <time>2025-09-17T07:22:47Z</time>
      </trkpt>
      <trkpt lat="46.03235" lon="4.55191">
        <ele>667</ele>
        <time>2025-09-17T07:22:48Z</time>
      </trkpt>
      <trkpt lat="46.03236" lon="4.55189">
        <ele>667.4</ele>
        <time>2025-09-17T07:22:49Z</time>
      </trkpt>
      <trkpt lat="46.03236" lon="4.55187">
        <ele>667.4</ele>
        <time>2025-09-17T07:22:50Z</time>
      </trkpt>
      <trkpt lat="46.03237" lon="4.55185">
        <ele>667.6</ele>
        <time>2025-09-17T07:22:51Z</time>
      </trkpt>
      <trkpt lat="46.03238" lon="4.55184">
        <ele>667.6</ele>
        <time>2025-09-17T07:22:52Z</time>
      </trkpt>
      <trkpt lat="46.03238" lon="4.55182">
        <ele>668</ele>
        <time>2025-09-17T07:22:53Z</time>
      </trkpt>
      <trkpt lat="46.03239" lon="4.55181">
        <ele>668</ele>
        <time>2025-09-17T07:22:54Z</time>
      </trkpt>
      <trkpt lat="46.0324" lon="4.55179">
        <ele>668.4</ele>
        <time>2025-09-17T07:22:55Z</time>
      </trkpt>
      <trkpt lat="46.03241" lon="4.55177">
        <ele>668.6</ele>
        <time>2025-09-17T07:22:56Z</time>
      </trkpt>
      <trkpt lat="46.03241" lon="4.55174">
        <ele>668.6</ele>
        <time>2025-09-17T07:22:57Z</time>
      </trkpt>
      <trkpt lat="46.03242" lon="4.55172">
        <ele>668.8</ele>
        <time>2025-09-17T07:22:58Z</time>
      </trkpt>
      <trkpt lat="46.03242" lon="4.55171">
        <ele>668.8</ele>
        <time>2025-09-17T07:22:59Z</time>
      </trkpt>
      <trkpt lat="46.03243" lon="4.55169">
        <ele>669.2</ele>
        <time>2025-09-17T07:23:00Z</time>
      </trkpt>
      <trkpt lat="46.03243" lon="4.55167">
        <ele>669.4</ele>
        <time>2025-09-17T07:23:01Z</time>
      </trkpt>
      <trkpt lat="46.03244" lon="4.55165">
        <ele>669.6</ele>
        <time>2025-09-17T07:23:02Z</time>
      </trkpt>
      <trkpt lat="46.03244" lon="4.55164">
        <ele>669.6</ele>
        <time>2025-09-17T07:23:03Z</time>
      </trkpt>
      <trkpt lat="46.03245" lon="4.55163">
        <ele>669.8</ele>
        <time>2025-09-17T07:23:04Z</time>
      </trkpt>
      <trkpt lat="46.03246" lon="4.55161">
        <ele>669.8</ele>
        <time>2025-09-17T07:23:05Z</time>
      </trkpt>
      <trkpt lat="46.03246" lon="4.5516">
        <ele>670.2</ele>
        <time>2025-09-17T07:23:06Z</time>
      </trkpt>
      <trkpt lat="46.03246" lon="4.55158">
        <ele>670.2</ele>
        <time>2025-09-17T07:23:07Z</time>
      </trkpt>
      <trkpt lat="46.03247" lon="4.55157">
        <ele>670.4</ele>
        <time>2025-09-17T07:23:08Z</time>
      </trkpt>
      <trkpt lat="46.03248" lon="4.55155">
        <ele>670.4</ele>
        <time>2025-09-17T07:23:09Z</time>
      </trkpt>
      <trkpt lat="46.03248" lon="4.55153">
        <ele>670.8</ele>
        <time>2025-09-17T07:23:10Z</time>
      </trkpt>
      <trkpt lat="46.03249" lon="4.55152">
        <ele>671</ele>
        <time>2025-09-17T07:23:11Z</time>
      </trkpt>
      <trkpt lat="46.03249" lon="4.5515">
        <ele>671.4</ele>
        <time>2025-09-17T07:23:12Z</time>
      </trkpt>
      <trkpt lat="46.0325" lon="4.55149">
        <ele>671.6</ele>
        <time>2025-09-17T07:23:13Z</time>
      </trkpt>
      <trkpt lat="46.03251" lon="4.55147">
        <ele>671.6</ele>
        <time>2025-09-17T07:23:14Z</time>
      </trkpt>
      <trkpt lat="46.03251" lon="4.55145">
        <ele>671.8</ele>
        <time>2025-09-17T07:23:15Z</time>
      </trkpt>
      <trkpt lat="46.03252" lon="4.55143">
        <ele>672.4</ele>
        <time>2025-09-17T07:23:16Z</time>
      </trkpt>
      <trkpt lat="46.03252" lon="4.55141">
        <ele>672.4</ele>
        <time>2025-09-17T07:23:17Z</time>
      </trkpt>
      <trkpt lat="46.03253" lon="4.55139">
        <ele>672.4</ele>
        <time>2025-09-17T07:23:18Z</time>
      </trkpt>
      <trkpt lat="46.03253" lon="4.55138">
        <ele>672.4</ele>
        <time>2025-09-17T07:23:19Z</time>
      </trkpt>
      <trkpt lat="46.03254" lon="4.55137">
        <ele>672.4</ele>
        <time>2025-09-17T07:23:20Z</time>
      </trkpt>
      <trkpt lat="46.03256" lon="4.55135">
        <ele>672.4</ele>
        <time>2025-09-17T07:23:21Z</time>
      </trkpt>
      <trkpt lat="46.03257" lon="4.55133">
        <ele>672.6</ele>
        <time>2025-09-17T07:23:22Z</time>
      </trkpt>
      <trkpt lat="46.03258" lon="4.55131">
        <ele>672.6</ele>
        <time>2025-09-17T07:23:23Z</time>
      </trkpt>
      <trkpt lat="46.03259" lon="4.5513">
        <ele>673</ele>
        <time>2025-09-17T07:23:24Z</time>
      </trkpt>
      <trkpt lat="46.0326" lon="4.55129">
        <ele>672.2</ele>
        <time>2025-09-17T07:23:25Z</time>
      </trkpt>
      <trkpt lat="46.03262" lon="4.55128">
        <ele>672.2</ele>
        <time>2025-09-17T07:23:26Z</time>
      </trkpt>
      <trkpt lat="46.03263" lon="4.55126">
        <ele>672.8</ele>
        <time>2025-09-17T07:23:27Z</time>
      </trkpt>
      <trkpt lat="46.03264" lon="4.55125">
        <ele>672.8</ele>
        <time>2025-09-17T07:23:28Z</time>
      </trkpt>
      <trkpt lat="46.03265" lon="4.55123">
        <ele>673</ele>
        <time>2025-09-17T07:23:29Z</time>
      </trkpt>
      <trkpt lat="46.03266" lon="4.55121">
        <ele>673</ele>
        <time>2025-09-17T07:23:30Z</time>
      </trkpt>
      <trkpt lat="46.03267" lon="4.5512">
        <ele>673.4</ele>
        <time>2025-09-17T07:23:31Z</time>
      </trkpt>
      <trkpt lat="46.03268" lon="4.55119">
        <ele>673.4</ele>
        <time>2025-09-17T07:23:32Z</time>
      </trkpt>
      <trkpt lat="46.03269" lon="4.55117">
        <ele>673.8</ele>
        <time>2025-09-17T07:23:33Z</time>
      </trkpt>
      <trkpt lat="46.0327" lon="4.55115">
        <ele>673.8</ele>
        <time>2025-09-17T07:23:34Z</time>
      </trkpt>
      <trkpt lat="46.03271" lon="4.55114">
        <ele>674.2</ele>
        <time>2025-09-17T07:23:35Z</time>
      </trkpt>
      <trkpt lat="46.03273" lon="4.55112">
        <ele>674.2</ele>
        <time>2025-09-17T07:23:36Z</time>
      </trkpt>
      <trkpt lat="46.03274" lon="4.5511">
        <ele>674.4</ele>
        <time>2025-09-17T07:23:37Z</time>
      </trkpt>
      <trkpt lat="46.03275" lon="4.55109">
        <ele>674.6</ele>
        <time>2025-09-17T07:23:38Z</time>
      </trkpt>
      <trkpt lat="46.03276" lon="4.55106">
        <ele>674.8</ele>
        <time>2025-09-17T07:23:39Z</time>
      </trkpt>
      <trkpt lat="46.03277" lon="4.55104">
        <ele>675.2</ele>
        <time>2025-09-17T07:23:40Z</time>
      </trkpt>
      <trkpt lat="46.03278" lon="4.55102">
        <ele>675.4</ele>
        <time>2025-09-17T07:23:41Z</time>
      </trkpt>
      <trkpt lat="46.03278" lon="4.55101">
        <ele>675.4</ele>
        <time>2025-09-17T07:23:42Z</time>
      </trkpt>
      <trkpt lat="46.03279" lon="4.55099">
        <ele>675.4</ele>
        <time>2025-09-17T07:23:43Z</time>
      </trkpt>
      <trkpt lat="46.03281" lon="4.55098">
        <ele>675.6</ele>
        <time>2025-09-17T07:23:44Z</time>
      </trkpt>
      <trkpt lat="46.03282" lon="4.55096">
        <ele>676</ele>
        <time>2025-09-17T07:23:45Z</time>
      </trkpt>
      <trkpt lat="46.03283" lon="4.55094">
        <ele>676.2</ele>
        <time>2025-09-17T07:23:46Z</time>
      </trkpt>
      <trkpt lat="46.03284" lon="4.55092">
        <ele>676.4</ele>
        <time>2025-09-17T07:23:47Z</time>
      </trkpt>
      <trkpt lat="46.03285" lon="4.55091">
        <ele>676.4</ele>
        <time>2025-09-17T07:23:48Z</time>
      </trkpt>
      <trkpt lat="46.03286" lon="4.55089">
        <ele>676.8</ele>
        <time>2025-09-17T07:23:49Z</time>
      </trkpt>
      <trkpt lat="46.03286" lon="4.55088">
        <ele>676.8</ele>
        <time>2025-09-17T07:23:50Z</time>
      </trkpt>
      <trkpt lat="46.03287" lon="4.55086">
        <ele>677</ele>
        <time>2025-09-17T07:23:51Z</time>
      </trkpt>
      <trkpt lat="46.03288" lon="4.55084">
        <ele>677</ele>
        <time>2025-09-17T07:23:52Z</time>
      </trkpt>
      <trkpt lat="46.03289" lon="4.55082">
        <ele>677.4</ele>
        <time>2025-09-17T07:23:53Z</time>
      </trkpt>
      <trkpt lat="46.03289" lon="4.55081">
        <ele>677.4</ele>
        <time>2025-09-17T07:23:54Z</time>
      </trkpt>
      <trkpt lat="46.0329" lon="4.5508">
        <ele>677.4</ele>
        <time>2025-09-17T07:23:55Z</time>
      </trkpt>
      <trkpt lat="46.0329" lon="4.55079">
        <ele>677.6</ele>
        <time>2025-09-17T07:23:56Z</time>
      </trkpt>
      <trkpt lat="46.0329" lon="4.55079">
        <ele>677.6</ele>
        <time>2025-09-17T07:23:57Z</time>
      </trkpt>
      <trkpt lat="46.03291" lon="4.55077">
        <ele>677.4</ele>
        <time>2025-09-17T07:26:46Z</time>
      </trkpt>
      <trkpt lat="46.03292" lon="4.55076">
        <ele>677.4</ele>
        <time>2025-09-17T07:26:47Z</time>
      </trkpt>
      <trkpt lat="46.03294" lon="4.55074">
        <ele>677.4</ele>
        <time>2025-09-17T07:26:48Z</time>
      </trkpt>
      <trkpt lat="46.03296" lon="4.55072">
        <ele>677.4</ele>
        <time>2025-09-17T07:26:49Z</time>
      </trkpt>
      <trkpt lat="46.03297" lon="4.55071">
        <ele>677.4</ele>
        <time>2025-09-17T07:26:50Z</time>
      </trkpt>
      <trkpt lat="46.03298" lon="4.55069">
        <ele>677.4</ele>
        <time>2025-09-17T07:26:51Z</time>
      </trkpt>
      <trkpt lat="46.033" lon="4.55068">
        <ele>677.4</ele>
        <time>2025-09-17T07:26:52Z</time>
      </trkpt>
      <trkpt lat="46.03301" lon="4.55067">
        <ele>677.4</ele>
        <time>2025-09-17T07:26:53Z</time>
      </trkpt>
      <trkpt lat="46.03303" lon="4.55065">
        <ele>677.6</ele>
        <time>2025-09-17T07:26:54Z</time>
      </trkpt>
      <trkpt lat="46.03305" lon="4.55063">
        <ele>677.6</ele>
        <time>2025-09-17T07:26:55Z</time>
      </trkpt>
      <trkpt lat="46.03307" lon="4.55062">
        <ele>677.6</ele>
        <time>2025-09-17T07:26:56Z</time>
      </trkpt>
      <trkpt lat="46.03309" lon="4.5506">
        <ele>678.2</ele>
        <time>2025-09-17T07:26:57Z</time>
      </trkpt>
      <trkpt lat="46.03311" lon="4.55059">
        <ele>678.6</ele>
        <time>2025-09-17T07:26:58Z</time>
      </trkpt>
      <trkpt lat="46.03313" lon="4.55058">
        <ele>678.6</ele>
        <time>2025-09-17T07:26:59Z</time>
      </trkpt>
      <trkpt lat="46.03315" lon="4.55056">
        <ele>678.6</ele>
        <time>2025-09-17T07:27:00Z</time>
      </trkpt>
      <trkpt lat="46.03318" lon="4.55055">
        <ele>679</ele>
        <time>2025-09-17T07:27:01Z</time>
      </trkpt>
      <trkpt lat="46.03319" lon="4.55053">
        <ele>679.4</ele>
        <time>2025-09-17T07:27:02Z</time>
      </trkpt>
      <trkpt lat="46.03321" lon="4.55052">
        <ele>679.4</ele>
        <time>2025-09-17T07:27:03Z</time>
      </trkpt>
      <trkpt lat="46.03323" lon="4.5505">
        <ele>680</ele>
        <time>2025-09-17T07:27:04Z</time>
      </trkpt>
      <trkpt lat="46.03325" lon="4.55048">
        <ele>680</ele>
        <time>2025-09-17T07:27:05Z</time>
      </trkpt>
      <trkpt lat="46.03327" lon="4.55046">
        <ele>680</ele>
        <time>2025-09-17T07:27:06Z</time>
      </trkpt>
      <trkpt lat="46.03329" lon="4.55045">
        <ele>680</ele>
        <time>2025-09-17T07:27:07Z</time>
      </trkpt>
      <trkpt lat="46.03331" lon="4.55043">
        <ele>680.2</ele>
        <time>2025-09-17T07:27:08Z</time>
      </trkpt>
      <trkpt lat="46.03334" lon="4.55039">
        <ele>680.2</ele>
        <time>2025-09-17T07:27:09Z</time>
      </trkpt>
      <trkpt lat="46.03336" lon="4.55038">
        <ele>680.6</ele>
        <time>2025-09-17T07:27:10Z</time>
      </trkpt>
      <trkpt lat="46.03338" lon="4.55036">
        <ele>680.8</ele>
        <time>2025-09-17T07:27:11Z</time>
      </trkpt>
      <trkpt lat="46.03341" lon="4.55036">
        <ele>680.8</ele>
        <time>2025-09-17T07:27:12Z</time>
      </trkpt>
      <trkpt lat="46.03343" lon="4.55035">
        <ele>681.2</ele>
        <time>2025-09-17T07:27:13Z</time>
      </trkpt>
      <trkpt lat="46.03344" lon="4.55034">
        <ele>681.2</ele>
        <time>2025-09-17T07:27:14Z</time>
      </trkpt>
      <trkpt lat="46.03346" lon="4.55033">
        <ele>681.8</ele>
        <time>2025-09-17T07:27:15Z</time>
      </trkpt>
      <trkpt lat="46.03347" lon="4.55032">
        <ele>682</ele>
        <time>2025-09-17T07:27:16Z</time>
      </trkpt>
      <trkpt lat="46.03349" lon="4.55031">
        <ele>682</ele>
        <time>2025-09-17T07:27:17Z</time>
      </trkpt>
      <trkpt lat="46.0335" lon="4.5503">
        <ele>682.2</ele>
        <time>2025-09-17T07:27:18Z</time>
      </trkpt>
      <trkpt lat="46.03351" lon="4.55028">
        <ele>682.4</ele>
        <time>2025-09-17T07:27:19Z</time>
      </trkpt>
      <trkpt lat="46.03353" lon="4.55027">
        <ele>682.8</ele>
        <time>2025-09-17T07:27:20Z</time>
      </trkpt>
      <trkpt lat="46.03354" lon="4.55025">
        <ele>683</ele>
        <time>2025-09-17T07:27:21Z</time>
      </trkpt>
      <trkpt lat="46.03356" lon="4.55024">
        <ele>683</ele>
        <time>2025-09-17T07:27:22Z</time>
      </trkpt>
      <trkpt lat="46.03357" lon="4.55023">
        <ele>683.2</ele>
        <time>2025-09-17T07:27:23Z</time>
      </trkpt>
      <trkpt lat="46.03359" lon="4.55022">
        <ele>683.2</ele>
        <time>2025-09-17T07:27:24Z</time>
      </trkpt>
      <trkpt lat="46.03361" lon="4.55021">
        <ele>683.6</ele>
        <time>2025-09-17T07:27:25Z</time>
      </trkpt>
      <trkpt lat="46.03362" lon="4.55019">
        <ele>683.6</ele>
        <time>2025-09-17T07:27:26Z</time>
      </trkpt>
      <trkpt lat="46.03363" lon="4.55017">
        <ele>684</ele>
        <time>2025-09-17T07:27:27Z</time>
      </trkpt>
      <trkpt lat="46.03365" lon="4.55016">
        <ele>684</ele>
        <time>2025-09-17T07:27:28Z</time>
      </trkpt>
      <trkpt lat="46.03366" lon="4.55014">
        <ele>684.4</ele>
        <time>2025-09-17T07:27:29Z</time>
      </trkpt>
      <trkpt lat="46.03368" lon="4.55013">
        <ele>684.6</ele>
        <time>2025-09-17T07:27:30Z</time>
      </trkpt>
      <trkpt lat="46.03369" lon="4.55011">
        <ele>684.8</ele>
        <time>2025-09-17T07:27:31Z</time>
      </trkpt>
      <trkpt lat="46.03371" lon="4.5501">
        <ele>684.8</ele>
        <time>2025-09-17T07:27:32Z</time>
      </trkpt>
      <trkpt lat="46.03372" lon="4.55008">
        <ele>685.2</ele>
        <time>2025-09-17T07:27:33Z</time>
      </trkpt>
      <trkpt lat="46.03373" lon="4.55007">
        <ele>685.6</ele>
        <time>2025-09-17T07:27:34Z</time>
      </trkpt>
      <trkpt lat="46.03375" lon="4.55005">
        <ele>685.6</ele>
        <time>2025-09-17T07:27:35Z</time>
      </trkpt>
      <trkpt lat="46.03376" lon="4.55003">
        <ele>685.8</ele>
        <time>2025-09-17T07:27:36Z</time>
      </trkpt>
      <trkpt lat="46.03377" lon="4.55001">
        <ele>686</ele>
        <time>2025-09-17T07:27:37Z</time>
      </trkpt>
      <trkpt lat="46.03378" lon="4.54999">
        <ele>686</ele>
        <time>2025-09-17T07:27:38Z</time>
      </trkpt>
      <trkpt lat="46.0338" lon="4.54997">
        <ele>686.4</ele>
        <time>2025-09-17T07:27:39Z</time>
      </trkpt>
      <trkpt lat="46.03381" lon="4.54996">
        <ele>686.4</ele>
        <time>2025-09-17T07:27:40Z</time>
      </trkpt>
      <trkpt lat="46.03382" lon="4.54994">
        <ele>686.4</ele>
        <time>2025-09-17T07:27:41Z</time>
      </trkpt>
      <trkpt lat="46.03383" lon="4.54992">
        <ele>686.6</ele>
        <time>2025-09-17T07:27:42Z</time>
      </trkpt>
      <trkpt lat="46.03385" lon="4.5499">
        <ele>686.8</ele>
        <time>2025-09-17T07:27:43Z</time>
      </trkpt>
      <trkpt lat="46.03387" lon="4.54988">
        <ele>686.8</ele>
        <time>2025-09-17T07:27:44Z</time>
      </trkpt>
      <trkpt lat="46.03388" lon="4.54986">
        <ele>687</ele>
        <time>2025-09-17T07:27:45Z</time>
      </trkpt>
      <trkpt lat="46.03389" lon="4.54984">
        <ele>687</ele>
        <time>2025-09-17T07:27:46Z</time>
      </trkpt>
      <trkpt lat="46.0339" lon="4.54982">
        <ele>687.4</ele>
        <time>2025-09-17T07:27:47Z</time>
      </trkpt>
      <trkpt lat="46.03391" lon="4.54979">
        <ele>687.4</ele>
        <time>2025-09-17T07:27:48Z</time>
      </trkpt>
      <trkpt lat="46.03392" lon="4.54977">
        <ele>687.6</ele>
        <time>2025-09-17T07:27:49Z</time>
      </trkpt>
      <trkpt lat="46.03393" lon="4.54975">
        <ele>687.6</ele>
        <time>2025-09-17T07:27:50Z</time>
      </trkpt>
      <trkpt lat="46.03393" lon="4.54972">
        <ele>687.6</ele>
        <time>2025-09-17T07:27:51Z</time>
      </trkpt>
      <trkpt lat="46.03394" lon="4.54969">
        <ele>688</ele>
        <time>2025-09-17T07:27:52Z</time>
      </trkpt>
      <trkpt lat="46.03395" lon="4.54966">
        <ele>688.2</ele>
        <time>2025-09-17T07:27:53Z</time>
      </trkpt>
      <trkpt lat="46.03395" lon="4.54964">
        <ele>688.2</ele>
        <time>2025-09-17T07:27:54Z</time>
      </trkpt>
      <trkpt lat="46.03396" lon="4.54961">
        <ele>688.4</ele>
        <time>2025-09-17T07:27:55Z</time>
      </trkpt>
      <trkpt lat="46.03397" lon="4.54958">
        <ele>688.4</ele>
        <time>2025-09-17T07:27:56Z</time>
      </trkpt>
      <trkpt lat="46.03398" lon="4.54955">
        <ele>688.8</ele>
        <time>2025-09-17T07:27:57Z</time>
      </trkpt>
      <trkpt lat="46.03399" lon="4.54952">
        <ele>688.8</ele>
        <time>2025-09-17T07:27:58Z</time>
      </trkpt>
      <trkpt lat="46.034" lon="4.54948">
        <ele>689</ele>
        <time>2025-09-17T07:27:59Z</time>
      </trkpt>
      <trkpt lat="46.03402" lon="4.54944">
        <ele>689</ele>
        <time>2025-09-17T07:28:00Z</time>
      </trkpt>
      <trkpt lat="46.03403" lon="4.5494">
        <ele>689</ele>
        <time>2025-09-17T07:28:01Z</time>
      </trkpt>
      <trkpt lat="46.03404" lon="4.54936">
        <ele>689</ele>
        <time>2025-09-17T07:28:02Z</time>
      </trkpt>
      <trkpt lat="46.03405" lon="4.54932">
        <ele>689</ele>
        <time>2025-09-17T07:28:03Z</time>
      </trkpt>
      <trkpt lat="46.03407" lon="4.54928">
        <ele>689.2</ele>
        <time>2025-09-17T07:28:04Z</time>
      </trkpt>
      <trkpt lat="46.03408" lon="4.54923">
        <ele>689.2</ele>
        <time>2025-09-17T07:28:05Z</time>
      </trkpt>
      <trkpt lat="46.0341" lon="4.54919">
        <ele>689.2</ele>
        <time>2025-09-17T07:28:06Z</time>
      </trkpt>
      <trkpt lat="46.03412" lon="4.54915">
        <ele>689.2</ele>
        <time>2025-09-17T07:28:07Z</time>
      </trkpt>
      <trkpt lat="46.03414" lon="4.5491">
        <ele>689.2</ele>
        <time>2025-09-17T07:28:08Z</time>
      </trkpt>
      <trkpt lat="46.03416" lon="4.54906">
        <ele>689.2</ele>
        <time>2025-09-17T07:28:09Z</time>
      </trkpt>
      <trkpt lat="46.03419" lon="4.54901">
        <ele>689.2</ele>
        <time>2025-09-17T07:28:10Z</time>
      </trkpt>
      <trkpt lat="46.03421" lon="4.54897">
        <ele>689.2</ele>
        <time>2025-09-17T07:28:11Z</time>
      </trkpt>
      <trkpt lat="46.03423" lon="4.54893">
        <ele>689.2</ele>
        <time>2025-09-17T07:28:12Z</time>
      </trkpt>
      <trkpt lat="46.03426" lon="4.54888">
        <ele>689.2</ele>
        <time>2025-09-17T07:28:13Z</time>
      </trkpt>
      <trkpt lat="46.03428" lon="4.54884">
        <ele>689.2</ele>
        <time>2025-09-17T07:28:14Z</time>
      </trkpt>
      <trkpt lat="46.03431" lon="4.54878">
        <ele>689</ele>
        <time>2025-09-17T07:28:15Z</time>
      </trkpt>
      <trkpt lat="46.03434" lon="4.54873">
        <ele>689</ele>
        <time>2025-09-17T07:28:16Z</time>
      </trkpt>
      <trkpt lat="46.03436" lon="4.54869">
        <ele>689</ele>
        <time>2025-09-17T07:28:17Z</time>
      </trkpt>
      <trkpt lat="46.03439" lon="4.54864">
        <ele>689</ele>
        <time>2025-09-17T07:28:18Z</time>
      </trkpt>
      <trkpt lat="46.03442" lon="4.54861">
        <ele>688.8</ele>
        <time>2025-09-17T07:28:19Z</time>
      </trkpt>
      <trkpt lat="46.03444" lon="4.54859">
        <ele>688.8</ele>
        <time>2025-09-17T07:28:20Z</time>
      </trkpt>
      <trkpt lat="46.03446" lon="4.54857">
        <ele>688.8</ele>
        <time>2025-09-17T07:28:21Z</time>
      </trkpt>
      <trkpt lat="46.03446" lon="4.54856">
        <ele>688.4</ele>
        <time>2025-09-17T07:28:22Z</time>
      </trkpt>
      <trkpt lat="46.03447" lon="4.54855">
        <ele>688.4</ele>
        <time>2025-09-17T07:28:23Z</time>
      </trkpt>
      <trkpt lat="46.03448" lon="4.54854">
        <ele>688.2</ele>
        <time>2025-09-17T07:28:24Z</time>
      </trkpt>
      <trkpt lat="46.03448" lon="4.54853">
        <ele>688.2</ele>
        <time>2025-09-17T07:28:25Z</time>
      </trkpt>
      <trkpt lat="46.03448" lon="4.54853">
        <ele>688</ele>
        <time>2025-09-17T07:28:26Z</time>
      </trkpt>
      <trkpt lat="46.03448" lon="4.54854">
        <ele>688</ele>
        <time>2025-09-17T07:28:27Z</time>
      </trkpt>
      <trkpt lat="46.03452" lon="4.54848">
        <ele>687.6</ele>
        <time>2025-09-17T07:28:37Z</time>
      </trkpt>
      <trkpt lat="46.03454" lon="4.54845">
        <ele>687.6</ele>
        <time>2025-09-17T07:28:38Z</time>
      </trkpt>
      <trkpt lat="46.03457" lon="4.54841">
        <ele>687.6</ele>
        <time>2025-09-17T07:28:39Z</time>
      </trkpt>
      <trkpt lat="46.03461" lon="4.54838">
        <ele>687.2</ele>
        <time>2025-09-17T07:28:40Z</time>
      </trkpt>
      <trkpt lat="46.03466" lon="4.54834">
        <ele>686.8</ele>
        <time>2025-09-17T07:28:41Z</time>
      </trkpt>
      <trkpt lat="46.0347" lon="4.54831">
        <ele>686.4</ele>
        <time>2025-09-17T07:28:42Z</time>
      </trkpt>
      <trkpt lat="46.03476" lon="4.54828">
        <ele>686</ele>
        <time>2025-09-17T07:28:43Z</time>
      </trkpt>
      <trkpt lat="46.03482" lon="4.54825">
        <ele>685.8</ele>
        <time>2025-09-17T07:28:44Z</time>
      </trkpt>
      <trkpt lat="46.03488" lon="4.54822">
        <ele>685.4</ele>
        <time>2025-09-17T07:28:45Z</time>
      </trkpt>
      <trkpt lat="46.03494" lon="4.54818">
        <ele>685</ele>
        <time>2025-09-17T07:28:46Z</time>
      </trkpt>
      <trkpt lat="46.03501" lon="4.54815">
        <ele>685</ele>
        <time>2025-09-17T07:28:47Z</time>
      </trkpt>
      <trkpt lat="46.03507" lon="4.54813">
        <ele>684.6</ele>
        <time>2025-09-17T07:28:48Z</time>
      </trkpt>
      <trkpt lat="46.03514" lon="4.54811">
        <ele>683.4</ele>
        <time>2025-09-17T07:28:49Z</time>
      </trkpt>
      <trkpt lat="46.03522" lon="4.54811">
        <ele>683.4</ele>
        <time>2025-09-17T07:28:50Z</time>
      </trkpt>
      <trkpt lat="46.03529" lon="4.5481">
        <ele>683.2</ele>
        <time>2025-09-17T07:28:51Z</time>
      </trkpt>
      <trkpt lat="46.03536" lon="4.54811">
        <ele>683.2</ele>
        <time>2025-09-17T07:28:52Z</time>
      </trkpt>
      <trkpt lat="46.03543" lon="4.54812">
        <ele>683.4</ele>
        <time>2025-09-17T07:28:53Z</time>
      </trkpt>
      <trkpt lat="46.0355" lon="4.54815">
        <ele>683.4</ele>
        <time>2025-09-17T07:28:54Z</time>
      </trkpt>
      <trkpt lat="46.03557" lon="4.54817">
        <ele>683.6</ele>
        <time>2025-09-17T07:28:55Z</time>
      </trkpt>
      <trkpt lat="46.03563" lon="4.54819">
        <ele>683.6</ele>
        <time>2025-09-17T07:28:56Z</time>
      </trkpt>
      <trkpt lat="46.03569" lon="4.54821">
        <ele>683.8</ele>
        <time>2025-09-17T07:28:57Z</time>
      </trkpt>
      <trkpt lat="46.03569" lon="4.54821">
        <ele>684.2</ele>
        <time>2025-09-17T07:28:58Z</time>
      </trkpt>
      <trkpt lat="46.03576" lon="4.54823">
        <ele>684.6</ele>
        <time>2025-09-17T07:28:59Z</time>
      </trkpt>
      <trkpt lat="46.03582" lon="4.54825">
        <ele>684</ele>
        <time>2025-09-17T07:29:00Z</time>
      </trkpt>
      <trkpt lat="46.03588" lon="4.54826">
        <ele>684.4</ele>
        <time>2025-09-17T07:29:01Z</time>
      </trkpt>
      <trkpt lat="46.03594" lon="4.54829">
        <ele>684.8</ele>
        <time>2025-09-17T07:29:02Z</time>
      </trkpt>
      <trkpt lat="46.03601" lon="4.5483">
        <ele>685</ele>
        <time>2025-09-17T07:29:03Z</time>
      </trkpt>
      <trkpt lat="46.03607" lon="4.54832">
        <ele>685</ele>
        <time>2025-09-17T07:29:04Z</time>
      </trkpt>
      <trkpt lat="46.03613" lon="4.54834">
        <ele>685</ele>
        <time>2025-09-17T07:29:05Z</time>
      </trkpt>
      <trkpt lat="46.03619" lon="4.54836">
        <ele>685</ele>
        <time>2025-09-17T07:29:06Z</time>
      </trkpt>
      <trkpt lat="46.03625" lon="4.54839">
        <ele>685.2</ele>
        <time>2025-09-17T07:29:07Z</time>
      </trkpt>
      <trkpt lat="46.0363" lon="4.54837">
        <ele>685.2</ele>
        <time>2025-09-17T07:29:08Z</time>
      </trkpt>
      <trkpt lat="46.03636" lon="4.54838">
        <ele>685.2</ele>
        <time>2025-09-17T07:29:09Z</time>
      </trkpt>
      <trkpt lat="46.03641" lon="4.54838">
        <ele>685.4</ele>
        <time>2025-09-17T07:29:10Z</time>
      </trkpt>
      <trkpt lat="46.03647" lon="4.54836">
        <ele>685.4</ele>
        <time>2025-09-17T07:29:11Z</time>
      </trkpt>
      <trkpt lat="46.03654" lon="4.54834">
        <ele>685.8</ele>
        <time>2025-09-17T07:29:12Z</time>
      </trkpt>
      <trkpt lat="46.0366" lon="4.54832">
        <ele>685.4</ele>
        <time>2025-09-17T07:29:13Z</time>
      </trkpt>
      <trkpt lat="46.03665" lon="4.5483">
        <ele>685.4</ele>
        <time>2025-09-17T07:29:14Z</time>
      </trkpt>
      <trkpt lat="46.03671" lon="4.54826">
        <ele>685.4</ele>
        <time>2025-09-17T07:29:15Z</time>
      </trkpt>
      <trkpt lat="46.03676" lon="4.54823">
        <ele>685</ele>
        <time>2025-09-17T07:29:16Z</time>
      </trkpt>
      <trkpt lat="46.03683" lon="4.5482">
        <ele>685</ele>
        <time>2025-09-17T07:29:17Z</time>
      </trkpt>
      <trkpt lat="46.03688" lon="4.54813">
        <ele>685</ele>
        <time>2025-09-17T07:29:18Z</time>
      </trkpt>
      <trkpt lat="46.03694" lon="4.54808">
        <ele>684.8</ele>
        <time>2025-09-17T07:29:19Z</time>
      </trkpt>
      <trkpt lat="46.03698" lon="4.54804">
        <ele>684.4</ele>
        <time>2025-09-17T07:29:20Z</time>
      </trkpt>
      <trkpt lat="46.03702" lon="4.54796">
        <ele>684.4</ele>
        <time>2025-09-17T07:29:21Z</time>
      </trkpt>
      <trkpt lat="46.03706" lon="4.54792">
        <ele>684</ele>
        <time>2025-09-17T07:29:22Z</time>
      </trkpt>
      <trkpt lat="46.03711" lon="4.54784">
        <ele>683.8</ele>
        <time>2025-09-17T07:29:23Z</time>
      </trkpt>
      <trkpt lat="46.03715" lon="4.54776">
        <ele>683.8</ele>
        <time>2025-09-17T07:29:24Z</time>
      </trkpt>
      <trkpt lat="46.03718" lon="4.54767">
        <ele>683.4</ele>
        <time>2025-09-17T07:29:25Z</time>
      </trkpt>
      <trkpt lat="46.03721" lon="4.54759">
        <ele>683.4</ele>
        <time>2025-09-17T07:29:26Z</time>
      </trkpt>
      <trkpt lat="46.03725" lon="4.5475">
        <ele>683.4</ele>
        <time>2025-09-17T07:29:27Z</time>
      </trkpt>
      <trkpt lat="46.03729" lon="4.5474">
        <ele>682.8</ele>
        <time>2025-09-17T07:29:28Z</time>
      </trkpt>
      <trkpt lat="46.03732" lon="4.5473">
        <ele>682.8</ele>
        <time>2025-09-17T07:29:29Z</time>
      </trkpt>
      <trkpt lat="46.03736" lon="4.54721">
        <ele>683.2</ele>
        <time>2025-09-17T07:29:30Z</time>
      </trkpt>
      <trkpt lat="46.03739" lon="4.54712">
        <ele>682.8</ele>
        <time>2025-09-17T07:29:31Z</time>
      </trkpt>
      <trkpt lat="46.03743" lon="4.54704">
        <ele>683.2</ele>
        <time>2025-09-17T07:29:32Z</time>
      </trkpt>
      <trkpt lat="46.03748" lon="4.54696">
        <ele>683.2</ele>
        <time>2025-09-17T07:29:33Z</time>
      </trkpt>
      <trkpt lat="46.03753" lon="4.54689">
        <ele>683.2</ele>
        <time>2025-09-17T07:29:34Z</time>
      </trkpt>
      <trkpt lat="46.03759" lon="4.54683">
        <ele>682.8</ele>
        <time>2025-09-17T07:29:35Z</time>
      </trkpt>
      <trkpt lat="46.03764" lon="4.54676">
        <ele>682.8</ele>
        <time>2025-09-17T07:29:36Z</time>
      </trkpt>
      <trkpt lat="46.0377" lon="4.54671">
        <ele>682.8</ele>
        <time>2025-09-17T07:29:37Z</time>
      </trkpt>
      <trkpt lat="46.03776" lon="4.54665">
        <ele>682.8</ele>
        <time>2025-09-17T07:29:38Z</time>
      </trkpt>
      <trkpt lat="46.03782" lon="4.5466">
        <ele>682.8</ele>
        <time>2025-09-17T07:29:39Z</time>
      </trkpt>
      <trkpt lat="46.03788" lon="4.54656">
        <ele>682.8</ele>
        <time>2025-09-17T07:29:40Z</time>
      </trkpt>
      <trkpt lat="46.03794" lon="4.54653">
        <ele>683.2</ele>
        <time>2025-09-17T07:29:41Z</time>
      </trkpt>
      <trkpt lat="46.038" lon="4.54652">
        <ele>683.2</ele>
        <time>2025-09-17T07:29:42Z</time>
      </trkpt>
      <trkpt lat="46.03805" lon="4.54652">
        <ele>683.6</ele>
        <time>2025-09-17T07:29:43Z</time>
      </trkpt>
      <trkpt lat="46.0381" lon="4.54651">
        <ele>683.6</ele>
        <time>2025-09-17T07:29:44Z</time>
      </trkpt>
      <trkpt lat="46.03816" lon="4.54651">
        <ele>683.6</ele>
        <time>2025-09-17T07:29:45Z</time>
      </trkpt>
      <trkpt lat="46.03822" lon="4.54651">
        <ele>683.4</ele>
        <time>2025-09-17T07:29:46Z</time>
      </trkpt>
      <trkpt lat="46.03828" lon="4.54653">
        <ele>683.4</ele>
        <time>2025-09-17T07:29:47Z</time>
      </trkpt>
      <trkpt lat="46.03833" lon="4.54654">
        <ele>683.4</ele>
        <time>2025-09-17T07:29:48Z</time>
      </trkpt>
      <trkpt lat="46.03839" lon="4.54656">
        <ele>683.4</ele>
        <time>2025-09-17T07:29:49Z</time>
      </trkpt>
      <trkpt lat="46.03845" lon="4.54657">
        <ele>683.4</ele>
        <time>2025-09-17T07:29:50Z</time>
      </trkpt>
      <trkpt lat="46.0385" lon="4.54657">
        <ele>683.6</ele>
        <time>2025-09-17T07:29:51Z</time>
      </trkpt>
      <trkpt lat="46.03856" lon="4.54656">
        <ele>683.6</ele>
        <time>2025-09-17T07:29:52Z</time>
      </trkpt>
      <trkpt lat="46.03861" lon="4.54656">
        <ele>684</ele>
        <time>2025-09-17T07:29:53Z</time>
      </trkpt>
      <trkpt lat="46.03866" lon="4.54655">
        <ele>683.6</ele>
        <time>2025-09-17T07:29:54Z</time>
      </trkpt>
      <trkpt lat="46.03871" lon="4.54654">
        <ele>683.8</ele>
        <time>2025-09-17T07:29:55Z</time>
      </trkpt>
      <trkpt lat="46.03876" lon="4.54652">
        <ele>684.2</ele>
        <time>2025-09-17T07:29:56Z</time>
      </trkpt>
      <trkpt lat="46.0388" lon="4.54652">
        <ele>684.2</ele>
        <time>2025-09-17T07:29:57Z</time>
      </trkpt>
      <trkpt lat="46.03884" lon="4.54652">
        <ele>684.6</ele>
        <time>2025-09-17T07:29:58Z</time>
      </trkpt>
      <trkpt lat="46.03888" lon="4.54653">
        <ele>684.8</ele>
        <time>2025-09-17T07:29:59Z</time>
      </trkpt>
      <trkpt lat="46.03893" lon="4.54649">
        <ele>685.2</ele>
        <time>2025-09-17T07:30:00Z</time>
      </trkpt>
      <trkpt lat="46.03897" lon="4.54648">
        <ele>685.2</ele>
        <time>2025-09-17T07:30:01Z</time>
      </trkpt>
      <trkpt lat="46.03901" lon="4.54647">
        <ele>685.2</ele>
        <time>2025-09-17T07:30:02Z</time>
      </trkpt>
      <trkpt lat="46.03905" lon="4.54645">
        <ele>685.4</ele>
        <time>2025-09-17T07:30:03Z</time>
      </trkpt>
      <trkpt lat="46.03909" lon="4.54644">
        <ele>685.4</ele>
        <time>2025-09-17T07:30:04Z</time>
      </trkpt>
      <trkpt lat="46.03912" lon="4.54644">
        <ele>685.8</ele>
        <time>2025-09-17T07:30:05Z</time>
      </trkpt>
      <trkpt lat="46.03915" lon="4.54642">
        <ele>686.2</ele>
        <time>2025-09-17T07:30:06Z</time>
      </trkpt>
      <trkpt lat="46.03918" lon="4.54642">
        <ele>686.2</ele>
        <time>2025-09-17T07:30:07Z</time>
      </trkpt>
      <trkpt lat="46.03921" lon="4.54641">
        <ele>686.4</ele>
        <time>2025-09-17T07:30:08Z</time>
      </trkpt>
      <trkpt lat="46.03924" lon="4.5464">
        <ele>686.4</ele>
        <time>2025-09-17T07:30:09Z</time>
      </trkpt>
      <trkpt lat="46.03927" lon="4.54638">
        <ele>686.6</ele>
        <time>2025-09-17T07:30:10Z</time>
      </trkpt>
      <trkpt lat="46.0393" lon="4.54638">
        <ele>686.6</ele>
        <time>2025-09-17T07:30:11Z</time>
      </trkpt>
      <trkpt lat="46.03933" lon="4.54637">
        <ele>687</ele>
        <time>2025-09-17T07:30:12Z</time>
      </trkpt>
      <trkpt lat="46.03936" lon="4.54637">
        <ele>687</ele>
        <time>2025-09-17T07:30:13Z</time>
      </trkpt>
      <trkpt lat="46.03939" lon="4.54636">
        <ele>687.4</ele>
        <time>2025-09-17T07:30:14Z</time>
      </trkpt>
      <trkpt lat="46.03941" lon="4.54635">
        <ele>687.4</ele>
        <time>2025-09-17T07:30:15Z</time>
      </trkpt>
      <trkpt lat="46.03943" lon="4.54634">
        <ele>687.8</ele>
        <time>2025-09-17T07:30:16Z</time>
      </trkpt>
      <trkpt lat="46.03946" lon="4.54632">
        <ele>688</ele>
        <time>2025-09-17T07:30:17Z</time>
      </trkpt>
      <trkpt lat="46.03948" lon="4.54631">
        <ele>688</ele>
        <time>2025-09-17T07:30:18Z</time>
      </trkpt>
      <trkpt lat="46.0395" lon="4.54631">
        <ele>688.4</ele>
        <time>2025-09-17T07:30:19Z</time>
      </trkpt>
      <trkpt lat="46.03952" lon="4.5463">
        <ele>688.4</ele>
        <time>2025-09-17T07:30:20Z</time>
      </trkpt>
      <trkpt lat="46.03954" lon="4.54629">
        <ele>688.8</ele>
        <time>2025-09-17T07:30:21Z</time>
      </trkpt>
      <trkpt lat="46.03956" lon="4.54628">
        <ele>688.8</ele>
        <time>2025-09-17T07:30:22Z</time>
      </trkpt>
      <trkpt lat="46.03959" lon="4.54626">
        <ele>689.2</ele>
        <time>2025-09-17T07:30:23Z</time>
      </trkpt>
      <trkpt lat="46.03961" lon="4.54625">
        <ele>689.4</ele>
        <time>2025-09-17T07:30:24Z</time>
      </trkpt>
      <trkpt lat="46.03963" lon="4.54625">
        <ele>689.6</ele>
        <time>2025-09-17T07:30:25Z</time>
      </trkpt>
      <trkpt lat="46.03965" lon="4.54624">
        <ele>690</ele>
        <time>2025-09-17T07:30:26Z</time>
      </trkpt>
      <trkpt lat="46.03967" lon="4.54623">
        <ele>690.2</ele>
        <time>2025-09-17T07:30:27Z</time>
      </trkpt>
      <trkpt lat="46.03969" lon="4.54623">
        <ele>690.2</ele>
        <time>2025-09-17T07:30:28Z</time>
      </trkpt>
      <trkpt lat="46.0397" lon="4.54623">
        <ele>690.6</ele>
        <time>2025-09-17T07:30:29Z</time>
      </trkpt>
      <trkpt lat="46.03972" lon="4.54622">
        <ele>690.8</ele>
        <time>2025-09-17T07:30:30Z</time>
      </trkpt>
      <trkpt lat="46.03973" lon="4.54621">
        <ele>690.8</ele>
        <time>2025-09-17T07:30:31Z</time>
      </trkpt>
      <trkpt lat="46.03975" lon="4.5462">
        <ele>691.2</ele>
        <time>2025-09-17T07:30:32Z</time>
      </trkpt>
      <trkpt lat="46.03976" lon="4.54619">
        <ele>691.4</ele>
        <time>2025-09-17T07:30:33Z</time>
      </trkpt>
      <trkpt lat="46.03978" lon="4.54619">
        <ele>691.4</ele>
        <time>2025-09-17T07:30:34Z</time>
      </trkpt>
      <trkpt lat="46.03979" lon="4.54618">
        <ele>691.6</ele>
        <time>2025-09-17T07:30:35Z</time>
      </trkpt>
      <trkpt lat="46.03981" lon="4.54617">
        <ele>691.6</ele>
        <time>2025-09-17T07:30:36Z</time>
      </trkpt>
      <trkpt lat="46.03982" lon="4.54616">
        <ele>691.8</ele>
        <time>2025-09-17T07:30:37Z</time>
      </trkpt>
      <trkpt lat="46.03983" lon="4.54616">
        <ele>692.2</ele>
        <time>2025-09-17T07:30:38Z</time>
      </trkpt>
      <trkpt lat="46.03985" lon="4.54615">
        <ele>692.6</ele>
        <time>2025-09-17T07:30:39Z</time>
      </trkpt>
      <trkpt lat="46.03986" lon="4.54614">
        <ele>692.8</ele>
        <time>2025-09-17T07:30:40Z</time>
      </trkpt>
      <trkpt lat="46.03988" lon="4.54614">
        <ele>693.2</ele>
        <time>2025-09-17T07:30:41Z</time>
      </trkpt>
      <trkpt lat="46.03989" lon="4.54612">
        <ele>693.6</ele>
        <time>2025-09-17T07:30:42Z</time>
      </trkpt>
      <trkpt lat="46.03991" lon="4.54611">
        <ele>693.6</ele>
        <time>2025-09-17T07:30:43Z</time>
      </trkpt>
      <trkpt lat="46.03993" lon="4.5461">
        <ele>694</ele>
        <time>2025-09-17T07:30:44Z</time>
      </trkpt>
      <trkpt lat="46.03995" lon="4.54609">
        <ele>694.2</ele>
        <time>2025-09-17T07:30:45Z</time>
      </trkpt>
      <trkpt lat="46.03996" lon="4.54608">
        <ele>694.4</ele>
        <time>2025-09-17T07:30:46Z</time>
      </trkpt>
      <trkpt lat="46.03997" lon="4.54607">
        <ele>694.4</ele>
        <time>2025-09-17T07:30:47Z</time>
      </trkpt>
      <trkpt lat="46.03998" lon="4.54606">
        <ele>694.8</ele>
        <time>2025-09-17T07:30:48Z</time>
      </trkpt>
      <trkpt lat="46.03999" lon="4.54605">
        <ele>694.8</ele>
        <time>2025-09-17T07:30:49Z</time>
      </trkpt>
      <trkpt lat="46.04001" lon="4.54603">
        <ele>695.2</ele>
        <time>2025-09-17T07:30:50Z</time>
      </trkpt>
      <trkpt lat="46.04002" lon="4.54602">
        <ele>695.2</ele>
        <time>2025-09-17T07:30:51Z</time>
      </trkpt>
      <trkpt lat="46.04003" lon="4.54601">
        <ele>695.2</ele>
        <time>2025-09-17T07:30:52Z</time>
      </trkpt>
      <trkpt lat="46.04004" lon="4.546">
        <ele>695.6</ele>
        <time>2025-09-17T07:30:53Z</time>
      </trkpt>
      <trkpt lat="46.04005" lon="4.54598">
        <ele>696</ele>
        <time>2025-09-17T07:30:54Z</time>
      </trkpt>
      <trkpt lat="46.04006" lon="4.54597">
        <ele>696</ele>
        <time>2025-09-17T07:30:55Z</time>
      </trkpt>
      <trkpt lat="46.04007" lon="4.54595">
        <ele>696.4</ele>
        <time>2025-09-17T07:30:56Z</time>
      </trkpt>
      <trkpt lat="46.04008" lon="4.54594">
        <ele>696.8</ele>
        <time>2025-09-17T07:30:57Z</time>
      </trkpt>
      <trkpt lat="46.04008" lon="4.54592">
        <ele>697</ele>
        <time>2025-09-17T07:30:58Z</time>
      </trkpt>
      <trkpt lat="46.04009" lon="4.5459">
        <ele>697</ele>
        <time>2025-09-17T07:30:59Z</time>
      </trkpt>
      <trkpt lat="46.04009" lon="4.54589">
        <ele>697.2</ele>
        <time>2025-09-17T07:31:00Z</time>
      </trkpt>
      <trkpt lat="46.04009" lon="4.54587">
        <ele>697.6</ele>
        <time>2025-09-17T07:31:01Z</time>
      </trkpt>
      <trkpt lat="46.0401" lon="4.54585">
        <ele>697.8</ele>
        <time>2025-09-17T07:31:02Z</time>
      </trkpt>
      <trkpt lat="46.0401" lon="4.54583">
        <ele>697.8</ele>
        <time>2025-09-17T07:31:03Z</time>
      </trkpt>
      <trkpt lat="46.0401" lon="4.54582">
        <ele>698.2</ele>
        <time>2025-09-17T07:31:04Z</time>
      </trkpt>
      <trkpt lat="46.04011" lon="4.5458">
        <ele>698.2</ele>
        <time>2025-09-17T07:31:05Z</time>
      </trkpt>
      <trkpt lat="46.04011" lon="4.54579">
        <ele>698.4</ele>
        <time>2025-09-17T07:31:06Z</time>
      </trkpt>
      <trkpt lat="46.04012" lon="4.54577">
        <ele>698.4</ele>
        <time>2025-09-17T07:31:07Z</time>
      </trkpt>
      <trkpt lat="46.04012" lon="4.54575">
        <ele>699</ele>
        <time>2025-09-17T07:31:08Z</time>
      </trkpt>
      <trkpt lat="46.04012" lon="4.54574">
        <ele>699.2</ele>
        <time>2025-09-17T07:31:09Z</time>
      </trkpt>
      <trkpt lat="46.04012" lon="4.54573">
        <ele>699.4</ele>
        <time>2025-09-17T07:31:10Z</time>
      </trkpt>
      <trkpt lat="46.04012" lon="4.54571">
        <ele>699.6</ele>
        <time>2025-09-17T07:31:11Z</time>
      </trkpt>
      <trkpt lat="46.04012" lon="4.54569">
        <ele>699.8</ele>
        <time>2025-09-17T07:31:12Z</time>
      </trkpt>
      <trkpt lat="46.04011" lon="4.54567">
        <ele>700.2</ele>
        <time>2025-09-17T07:31:13Z</time>
      </trkpt>
      <trkpt lat="46.04011" lon="4.54564">
        <ele>700.4</ele>
        <time>2025-09-17T07:31:14Z</time>
      </trkpt>
      <trkpt lat="46.04011" lon="4.54563">
        <ele>700.4</ele>
        <time>2025-09-17T07:31:15Z</time>
      </trkpt>
      <trkpt lat="46.0401" lon="4.54561">
        <ele>700.8</ele>
        <time>2025-09-17T07:31:16Z</time>
      </trkpt>
      <trkpt lat="46.0401" lon="4.54559">
        <ele>701.2</ele>
        <time>2025-09-17T07:31:17Z</time>
      </trkpt>
      <trkpt lat="46.04009" lon="4.54557">
        <ele>701.6</ele>
        <time>2025-09-17T07:31:18Z</time>
      </trkpt>
      <trkpt lat="46.04009" lon="4.54555">
        <ele>701.8</ele>
        <time>2025-09-17T07:31:19Z</time>
      </trkpt>
      <trkpt lat="46.0401" lon="4.54553">
        <ele>702</ele>
        <time>2025-09-17T07:31:20Z</time>
      </trkpt>
      <trkpt lat="46.0401" lon="4.54552">
        <ele>702.2</ele>
        <time>2025-09-17T07:31:21Z</time>
      </trkpt>
      <trkpt lat="46.0401" lon="4.5455">
        <ele>702.2</ele>
        <time>2025-09-17T07:31:22Z</time>
      </trkpt>
      <trkpt lat="46.04009" lon="4.54548">
        <ele>702.6</ele>
        <time>2025-09-17T07:31:23Z</time>
      </trkpt>
      <trkpt lat="46.04009" lon="4.54546">
        <ele>702.8</ele>
        <time>2025-09-17T07:31:24Z</time>
      </trkpt>
      <trkpt lat="46.04008" lon="4.54544">
        <ele>702.8</ele>
        <time>2025-09-17T07:31:25Z</time>
      </trkpt>
      <trkpt lat="46.04008" lon="4.54542">
        <ele>703</ele>
        <time>2025-09-17T07:31:26Z</time>
      </trkpt>
      <trkpt lat="46.04008" lon="4.5454">
        <ele>703.2</ele>
        <time>2025-09-17T07:31:27Z</time>
      </trkpt>
      <trkpt lat="46.04007" lon="4.54538">
        <ele>703.2</ele>
        <time>2025-09-17T07:31:28Z</time>
      </trkpt>
      <trkpt lat="46.04006" lon="4.54536">
        <ele>703.6</ele>
        <time>2025-09-17T07:31:29Z</time>
      </trkpt>
      <trkpt lat="46.04006" lon="4.54534">
        <ele>703.6</ele>
        <time>2025-09-17T07:31:30Z</time>
      </trkpt>
      <trkpt lat="46.04006" lon="4.54532">
        <ele>703.8</ele>
        <time>2025-09-17T07:31:31Z</time>
      </trkpt>
      <trkpt lat="46.04006" lon="4.54531">
        <ele>704</ele>
        <time>2025-09-17T07:31:32Z</time>
      </trkpt>
      <trkpt lat="46.04006" lon="4.54529">
        <ele>704</ele>
        <time>2025-09-17T07:31:33Z</time>
      </trkpt>
      <trkpt lat="46.04006" lon="4.54527">
        <ele>704.4</ele>
        <time>2025-09-17T07:31:34Z</time>
      </trkpt>
      <trkpt lat="46.04005" lon="4.54524">
        <ele>704.4</ele>
        <time>2025-09-17T07:31:35Z</time>
      </trkpt>
      <trkpt lat="46.04005" lon="4.54522">
        <ele>704.6</ele>
        <time>2025-09-17T07:31:36Z</time>
      </trkpt>
      <trkpt lat="46.04005" lon="4.5452">
        <ele>705</ele>
        <time>2025-09-17T07:31:37Z</time>
      </trkpt>
      <trkpt lat="46.04004" lon="4.54518">
        <ele>705.2</ele>
        <time>2025-09-17T07:31:38Z</time>
      </trkpt>
      <trkpt lat="46.04003" lon="4.54517">
        <ele>705.2</ele>
        <time>2025-09-17T07:31:39Z</time>
      </trkpt>
      <trkpt lat="46.04002" lon="4.54515">
        <ele>705.2</ele>
        <time>2025-09-17T07:31:40Z</time>
      </trkpt>
      <trkpt lat="46.04001" lon="4.54513">
        <ele>705.6</ele>
        <time>2025-09-17T07:31:41Z</time>
      </trkpt>
      <trkpt lat="46.04" lon="4.54512">
        <ele>705.6</ele>
        <time>2025-09-17T07:31:42Z</time>
      </trkpt>
      <trkpt lat="46.03999" lon="4.5451">
        <ele>706</ele>
        <time>2025-09-17T07:31:43Z</time>
      </trkpt>
      <trkpt lat="46.03999" lon="4.54507">
        <ele>706</ele>
        <time>2025-09-17T07:31:44Z</time>
      </trkpt>
      <trkpt lat="46.03998" lon="4.54505">
        <ele>706</ele>
        <time>2025-09-17T07:31:45Z</time>
      </trkpt>
      <trkpt lat="46.03996" lon="4.54502">
        <ele>706</ele>
        <time>2025-09-17T07:31:46Z</time>
      </trkpt>
      <trkpt lat="46.03995" lon="4.545">
        <ele>706</ele>
        <time>2025-09-17T07:31:47Z</time>
      </trkpt>
      <trkpt lat="46.03993" lon="4.54497">
        <ele>706.2</ele>
        <time>2025-09-17T07:31:48Z</time>
      </trkpt>
      <trkpt lat="46.03991" lon="4.54494">
        <ele>706.2</ele>
        <time>2025-09-17T07:31:49Z</time>
      </trkpt>
      <trkpt lat="46.03989" lon="4.54491">
        <ele>706.2</ele>
        <time>2025-09-17T07:31:50Z</time>
      </trkpt>
      <trkpt lat="46.03988" lon="4.54488">
        <ele>706.2</ele>
        <time>2025-09-17T07:31:51Z</time>
      </trkpt>
      <trkpt lat="46.03986" lon="4.54485">
        <ele>706.2</ele>
        <time>2025-09-17T07:31:52Z</time>
      </trkpt>
      <trkpt lat="46.03984" lon="4.54482">
        <ele>706.2</ele>
        <time>2025-09-17T07:31:53Z</time>
      </trkpt>
      <trkpt lat="46.03983" lon="4.5448">
        <ele>706.2</ele>
        <time>2025-09-17T07:31:54Z</time>
      </trkpt>
      <trkpt lat="46.03982" lon="4.54479">
        <ele>706.2</ele>
        <time>2025-09-17T07:31:55Z</time>
      </trkpt>
      <trkpt lat="46.03981" lon="4.54478">
        <ele>706.2</ele>
        <time>2025-09-17T07:31:56Z</time>
      </trkpt>
      <trkpt lat="46.03981" lon="4.54478">
        <ele>706.2</ele>
        <time>2025-09-17T07:31:57Z</time>
      </trkpt>
      <trkpt lat="46.0398" lon="4.54477">
        <ele>706.2</ele>
        <time>2025-09-17T07:31:58Z</time>
      </trkpt>
      <trkpt lat="46.03981" lon="4.54477">
        <ele>706.2</ele>
        <time>2025-09-17T07:31:59Z</time>
      </trkpt>
      <trkpt lat="46.0398" lon="4.54476">
        <ele>706</ele>
        <time>2025-09-17T07:33:16Z</time>
      </trkpt>
      <trkpt lat="46.0398" lon="4.54473">
        <ele>706</ele>
        <time>2025-09-17T07:33:17Z</time>
      </trkpt>
      <trkpt lat="46.03979" lon="4.54469">
        <ele>706</ele>
        <time>2025-09-17T07:33:18Z</time>
      </trkpt>
      <trkpt lat="46.03978" lon="4.54466">
        <ele>706</ele>
        <time>2025-09-17T07:33:19Z</time>
      </trkpt>
      <trkpt lat="46.03976" lon="4.54461">
        <ele>705.8</ele>
        <time>2025-09-17T07:33:20Z</time>
      </trkpt>
      <trkpt lat="46.03974" lon="4.54456">
        <ele>705.8</ele>
        <time>2025-09-17T07:33:21Z</time>
      </trkpt>
      <trkpt lat="46.03972" lon="4.54453">
        <ele>705.6</ele>
        <time>2025-09-17T07:33:22Z</time>
      </trkpt>
      <trkpt lat="46.03971" lon="4.54449">
        <ele>705.6</ele>
        <time>2025-09-17T07:33:23Z</time>
      </trkpt>
      <trkpt lat="46.0397" lon="4.54444">
        <ele>705.6</ele>
        <time>2025-09-17T07:33:24Z</time>
      </trkpt>
      <trkpt lat="46.03969" lon="4.54438">
        <ele>705.6</ele>
        <time>2025-09-17T07:33:25Z</time>
      </trkpt>
      <trkpt lat="46.03968" lon="4.54432">
        <ele>705.6</ele>
        <time>2025-09-17T07:33:26Z</time>
      </trkpt>
      <trkpt lat="46.03966" lon="4.54426">
        <ele>705.6</ele>
        <time>2025-09-17T07:33:27Z</time>
      </trkpt>
      <trkpt lat="46.03966" lon="4.54419">
        <ele>705.6</ele>
        <time>2025-09-17T07:33:28Z</time>
      </trkpt>
      <trkpt lat="46.03966" lon="4.54412">
        <ele>705.6</ele>
        <time>2025-09-17T07:33:29Z</time>
      </trkpt>
      <trkpt lat="46.03966" lon="4.54406">
        <ele>705.6</ele>
        <time>2025-09-17T07:33:30Z</time>
      </trkpt>
      <trkpt lat="46.03965" lon="4.544">
        <ele>705</ele>
        <time>2025-09-17T07:33:31Z</time>
      </trkpt>
      <trkpt lat="46.03965" lon="4.54394">
        <ele>705.4</ele>
        <time>2025-09-17T07:33:32Z</time>
      </trkpt>
      <trkpt lat="46.03964" lon="4.5439">
        <ele>705.6</ele>
        <time>2025-09-17T07:33:33Z</time>
      </trkpt>
      <trkpt lat="46.03963" lon="4.54382">
        <ele>705.6</ele>
        <time>2025-09-17T07:33:34Z</time>
      </trkpt>
      <trkpt lat="46.03964" lon="4.54376">
        <ele>705.6</ele>
        <time>2025-09-17T07:33:35Z</time>
      </trkpt>
      <trkpt lat="46.03965" lon="4.5437">
        <ele>705.6</ele>
        <time>2025-09-17T07:33:36Z</time>
      </trkpt>
      <trkpt lat="46.03965" lon="4.54363">
        <ele>705.6</ele>
        <time>2025-09-17T07:33:37Z</time>
      </trkpt>
      <trkpt lat="46.03965" lon="4.54357">
        <ele>705.6</ele>
        <time>2025-09-17T07:33:38Z</time>
      </trkpt>
      <trkpt lat="46.03965" lon="4.54351">
        <ele>706</ele>
        <time>2025-09-17T07:33:39Z</time>
      </trkpt>
      <trkpt lat="46.03965" lon="4.54345">
        <ele>706</ele>
        <time>2025-09-17T07:33:40Z</time>
      </trkpt>
      <trkpt lat="46.03967" lon="4.5434">
        <ele>706.2</ele>
        <time>2025-09-17T07:33:41Z</time>
      </trkpt>
      <trkpt lat="46.03968" lon="4.54335">
        <ele>706.2</ele>
        <time>2025-09-17T07:33:42Z</time>
      </trkpt>
      <trkpt lat="46.03968" lon="4.54329">
        <ele>706.2</ele>
        <time>2025-09-17T07:33:43Z</time>
      </trkpt>
      <trkpt lat="46.03969" lon="4.54323">
        <ele>706.6</ele>
        <time>2025-09-17T07:33:44Z</time>
      </trkpt>
      <trkpt lat="46.03969" lon="4.54318">
        <ele>706.8</ele>
        <time>2025-09-17T07:33:45Z</time>
      </trkpt>
      <trkpt lat="46.03969" lon="4.54314">
        <ele>707.2</ele>
        <time>2025-09-17T07:33:46Z</time>
      </trkpt>
      <trkpt lat="46.03968" lon="4.5431">
        <ele>707.2</ele>
        <time>2025-09-17T07:33:47Z</time>
      </trkpt>
      <trkpt lat="46.03968" lon="4.54306">
        <ele>707.4</ele>
        <time>2025-09-17T07:33:48Z</time>
      </trkpt>
      <trkpt lat="46.03967" lon="4.54303">
        <ele>707.8</ele>
        <time>2025-09-17T07:33:49Z</time>
      </trkpt>
      <trkpt lat="46.03967" lon="4.54303">
        <ele>708.2</ele>
        <time>2025-09-17T07:33:50Z</time>
      </trkpt>
      <trkpt lat="46.03967" lon="4.543">
        <ele>708.4</ele>
        <time>2025-09-17T07:33:51Z</time>
      </trkpt>
      <trkpt lat="46.03966" lon="4.54297">
        <ele>708.8</ele>
        <time>2025-09-17T07:33:52Z</time>
      </trkpt>
      <trkpt lat="46.03966" lon="4.54295">
        <ele>709.2</ele>
        <time>2025-09-17T07:33:53Z</time>
      </trkpt>
      <trkpt lat="46.03966" lon="4.54292">
        <ele>709.6</ele>
        <time>2025-09-17T07:33:54Z</time>
      </trkpt>
      <trkpt lat="46.03965" lon="4.5429">
        <ele>709.6</ele>
        <time>2025-09-17T07:33:55Z</time>
      </trkpt>
      <trkpt lat="46.03964" lon="4.54287">
        <ele>710</ele>
        <time>2025-09-17T07:33:56Z</time>
      </trkpt>
      <trkpt lat="46.03963" lon="4.54284">
        <ele>710.4</ele>
        <time>2025-09-17T07:33:57Z</time>
      </trkpt>
      <trkpt lat="46.03962" lon="4.54282">
        <ele>710.8</ele>
        <time>2025-09-17T07:33:58Z</time>
      </trkpt>
      <trkpt lat="46.03961" lon="4.5428">
        <ele>711</ele>
        <time>2025-09-17T07:33:59Z</time>
      </trkpt>
      <trkpt lat="46.03961" lon="4.54278">
        <ele>711</ele>
        <time>2025-09-17T07:34:00Z</time>
      </trkpt>
      <trkpt lat="46.0396" lon="4.54276">
        <ele>711.4</ele>
        <time>2025-09-17T07:34:01Z</time>
      </trkpt>
      <trkpt lat="46.03959" lon="4.54274">
        <ele>711.6</ele>
        <time>2025-09-17T07:34:02Z</time>
      </trkpt>
      <trkpt lat="46.03958" lon="4.54272">
        <ele>711.8</ele>
        <time>2025-09-17T07:34:03Z</time>
      </trkpt>
      <trkpt lat="46.03957" lon="4.5427">
        <ele>712</ele>
        <time>2025-09-17T07:34:04Z</time>
      </trkpt>
      <trkpt lat="46.03956" lon="4.54268">
        <ele>712</ele>
        <time>2025-09-17T07:34:05Z</time>
      </trkpt>
      <trkpt lat="46.03955" lon="4.54266">
        <ele>712.4</ele>
        <time>2025-09-17T07:34:06Z</time>
      </trkpt>
      <trkpt lat="46.03954" lon="4.54264">
        <ele>712.6</ele>
        <time>2025-09-17T07:34:07Z</time>
      </trkpt>
      <trkpt lat="46.03953" lon="4.54262">
        <ele>712.8</ele>
        <time>2025-09-17T07:34:08Z</time>
      </trkpt>
      <trkpt lat="46.03952" lon="4.54259">
        <ele>712.8</ele>
        <time>2025-09-17T07:34:09Z</time>
      </trkpt>
      <trkpt lat="46.03951" lon="4.54257">
        <ele>713.2</ele>
        <time>2025-09-17T07:34:10Z</time>
      </trkpt>
      <trkpt lat="46.0395" lon="4.54256">
        <ele>713.2</ele>
        <time>2025-09-17T07:34:11Z</time>
      </trkpt>
      <trkpt lat="46.03949" lon="4.54254">
        <ele>713.2</ele>
        <time>2025-09-17T07:34:12Z</time>
      </trkpt>
      <trkpt lat="46.03948" lon="4.54251">
        <ele>713.4</ele>
        <time>2025-09-17T07:34:13Z</time>
      </trkpt>
      <trkpt lat="46.03947" lon="4.54249">
        <ele>713.4</ele>
        <time>2025-09-17T07:34:14Z</time>
      </trkpt>
      <trkpt lat="46.03946" lon="4.54248">
        <ele>713.8</ele>
        <time>2025-09-17T07:34:15Z</time>
      </trkpt>
      <trkpt lat="46.03945" lon="4.54246">
        <ele>713.8</ele>
        <time>2025-09-17T07:34:16Z</time>
      </trkpt>
      <trkpt lat="46.03944" lon="4.54244">
        <ele>714</ele>
        <time>2025-09-17T07:34:17Z</time>
      </trkpt>
      <trkpt lat="46.03944" lon="4.54242">
        <ele>714</ele>
        <time>2025-09-17T07:34:18Z</time>
      </trkpt>
      <trkpt lat="46.03943" lon="4.5424">
        <ele>714.4</ele>
        <time>2025-09-17T07:34:19Z</time>
      </trkpt>
      <trkpt lat="46.03942" lon="4.54238">
        <ele>714.6</ele>
        <time>2025-09-17T07:34:20Z</time>
      </trkpt>
      <trkpt lat="46.03941" lon="4.54236">
        <ele>714.6</ele>
        <time>2025-09-17T07:34:21Z</time>
      </trkpt>
      <trkpt lat="46.0394" lon="4.54235">
        <ele>714.8</ele>
        <time>2025-09-17T07:34:22Z</time>
      </trkpt>
      <trkpt lat="46.03939" lon="4.54233">
        <ele>715.2</ele>
        <time>2025-09-17T07:34:23Z</time>
      </trkpt>
      <trkpt lat="46.03938" lon="4.54231">
        <ele>715.2</ele>
        <time>2025-09-17T07:34:24Z</time>
      </trkpt>
      <trkpt lat="46.03938" lon="4.54228">
        <ele>715.4</ele>
        <time>2025-09-17T07:34:25Z</time>
      </trkpt>
      <trkpt lat="46.03938" lon="4.54226">
        <ele>715.4</ele>
        <time>2025-09-17T07:34:26Z</time>
      </trkpt>
      <trkpt lat="46.03937" lon="4.54224">
        <ele>715.8</ele>
        <time>2025-09-17T07:34:27Z</time>
      </trkpt>
      <trkpt lat="46.03936" lon="4.54222">
        <ele>715.8</ele>
        <time>2025-09-17T07:34:28Z</time>
      </trkpt>
      <trkpt lat="46.03935" lon="4.5422">
        <ele>716.2</ele>
        <time>2025-09-17T07:34:29Z</time>
      </trkpt>
      <trkpt lat="46.03934" lon="4.54217">
        <ele>716.4</ele>
        <time>2025-09-17T07:34:30Z</time>
      </trkpt>
      <trkpt lat="46.03933" lon="4.54215">
        <ele>716.4</ele>
        <time>2025-09-17T07:34:31Z</time>
      </trkpt>
      <trkpt lat="46.03932" lon="4.54213">
        <ele>716.8</ele>
        <time>2025-09-17T07:34:32Z</time>
      </trkpt>
      <trkpt lat="46.03931" lon="4.54211">
        <ele>716.8</ele>
        <time>2025-09-17T07:34:33Z</time>
      </trkpt>
      <trkpt lat="46.0393" lon="4.5421">
        <ele>717</ele>
        <time>2025-09-17T07:34:34Z</time>
      </trkpt>
      <trkpt lat="46.03929" lon="4.54208">
        <ele>717</ele>
        <time>2025-09-17T07:34:35Z</time>
      </trkpt>
      <trkpt lat="46.03928" lon="4.54206">
        <ele>717.4</ele>
        <time>2025-09-17T07:34:36Z</time>
      </trkpt>
      <trkpt lat="46.03927" lon="4.54204">
        <ele>717.6</ele>
        <time>2025-09-17T07:34:37Z</time>
      </trkpt>
      <trkpt lat="46.03926" lon="4.54202">
        <ele>717.6</ele>
        <time>2025-09-17T07:34:38Z</time>
      </trkpt>
      <trkpt lat="46.03924" lon="4.54201">
        <ele>718</ele>
        <time>2025-09-17T07:34:39Z</time>
      </trkpt>
      <trkpt lat="46.03923" lon="4.54199">
        <ele>718.2</ele>
        <time>2025-09-17T07:34:40Z</time>
      </trkpt>
      <trkpt lat="46.03922" lon="4.54198">
        <ele>718.2</ele>
        <time>2025-09-17T07:34:41Z</time>
      </trkpt>
      <trkpt lat="46.03921" lon="4.54196">
        <ele>718.4</ele>
        <time>2025-09-17T07:34:42Z</time>
      </trkpt>
      <trkpt lat="46.0392" lon="4.54194">
        <ele>718.4</ele>
        <time>2025-09-17T07:34:43Z</time>
      </trkpt>
      <trkpt lat="46.03918" lon="4.54192">
        <ele>718.6</ele>
        <time>2025-09-17T07:34:44Z</time>
      </trkpt>
      <trkpt lat="46.03917" lon="4.5419">
        <ele>718.6</ele>
        <time>2025-09-17T07:34:45Z</time>
      </trkpt>
      <trkpt lat="46.03916" lon="4.54188">
        <ele>719</ele>
        <time>2025-09-17T07:34:46Z</time>
      </trkpt>
      <trkpt lat="46.03914" lon="4.54186">
        <ele>719</ele>
        <time>2025-09-17T07:34:47Z</time>
      </trkpt>
      <trkpt lat="46.03913" lon="4.54185">
        <ele>719.2</ele>
        <time>2025-09-17T07:34:48Z</time>
      </trkpt>
      <trkpt lat="46.03911" lon="4.54184">
        <ele>719.2</ele>
        <time>2025-09-17T07:34:49Z</time>
      </trkpt>
      <trkpt lat="46.0391" lon="4.54184">
        <ele>719.6</ele>
        <time>2025-09-17T07:34:50Z</time>
      </trkpt>
      <trkpt lat="46.03909" lon="4.54183">
        <ele>720</ele>
        <time>2025-09-17T07:34:51Z</time>
      </trkpt>
      <trkpt lat="46.03907" lon="4.54181">
        <ele>720.2</ele>
        <time>2025-09-17T07:34:52Z</time>
      </trkpt>
      <trkpt lat="46.03906" lon="4.5418">
        <ele>720.2</ele>
        <time>2025-09-17T07:34:53Z</time>
      </trkpt>
      <trkpt lat="46.03905" lon="4.54179">
        <ele>720.6</ele>
        <time>2025-09-17T07:34:54Z</time>
      </trkpt>
      <trkpt lat="46.03904" lon="4.54177">
        <ele>720.8</ele>
        <time>2025-09-17T07:34:55Z</time>
      </trkpt>
      <trkpt lat="46.03903" lon="4.54176">
        <ele>721</ele>
        <time>2025-09-17T07:34:56Z</time>
      </trkpt>
      <trkpt lat="46.03902" lon="4.54174">
        <ele>721.2</ele>
        <time>2025-09-17T07:34:57Z</time>
      </trkpt>
      <trkpt lat="46.039" lon="4.54172">
        <ele>721.2</ele>
        <time>2025-09-17T07:34:58Z</time>
      </trkpt>
      <trkpt lat="46.03899" lon="4.54171">
        <ele>721.8</ele>
        <time>2025-09-17T07:34:59Z</time>
      </trkpt>
      <trkpt lat="46.03898" lon="4.5417">
        <ele>721.8</ele>
        <time>2025-09-17T07:35:00Z</time>
      </trkpt>
      <trkpt lat="46.03897" lon="4.54169">
        <ele>721.8</ele>
        <time>2025-09-17T07:35:01Z</time>
      </trkpt>
      <trkpt lat="46.03895" lon="4.54167">
        <ele>722</ele>
        <time>2025-09-17T07:35:02Z</time>
      </trkpt>
      <trkpt lat="46.03894" lon="4.54166">
        <ele>722</ele>
        <time>2025-09-17T07:35:03Z</time>
      </trkpt>
      <trkpt lat="46.03893" lon="4.54165">
        <ele>722</ele>
        <time>2025-09-17T07:35:04Z</time>
      </trkpt>
      <trkpt lat="46.03892" lon="4.54163">
        <ele>722.4</ele>
        <time>2025-09-17T07:35:05Z</time>
      </trkpt>
      <trkpt lat="46.03891" lon="4.54162">
        <ele>722.4</ele>
        <time>2025-09-17T07:35:06Z</time>
      </trkpt>
      <trkpt lat="46.0389" lon="4.54161">
        <ele>722.6</ele>
        <time>2025-09-17T07:35:07Z</time>
      </trkpt>
      <trkpt lat="46.03889" lon="4.5416">
        <ele>722.6</ele>
        <time>2025-09-17T07:35:08Z</time>
      </trkpt>
      <trkpt lat="46.03888" lon="4.54159">
        <ele>722.8</ele>
        <time>2025-09-17T07:35:09Z</time>
      </trkpt>
      <trkpt lat="46.03887" lon="4.54157">
        <ele>722.8</ele>
        <time>2025-09-17T07:35:10Z</time>
      </trkpt>
      <trkpt lat="46.03886" lon="4.54156">
        <ele>723.2</ele>
        <time>2025-09-17T07:35:11Z</time>
      </trkpt>
      <trkpt lat="46.03885" lon="4.54155">
        <ele>723.2</ele>
        <time>2025-09-17T07:35:12Z</time>
      </trkpt>
      <trkpt lat="46.03883" lon="4.54155">
        <ele>723.2</ele>
        <time>2025-09-17T07:35:13Z</time>
      </trkpt>
      <trkpt lat="46.03881" lon="4.54154">
        <ele>723.4</ele>
        <time>2025-09-17T07:35:14Z</time>
      </trkpt>
      <trkpt lat="46.0388" lon="4.54153">
        <ele>723.4</ele>
        <time>2025-09-17T07:35:15Z</time>
      </trkpt>
      <trkpt lat="46.03879" lon="4.54152">
        <ele>724</ele>
        <time>2025-09-17T07:35:16Z</time>
      </trkpt>
      <trkpt lat="46.03878" lon="4.54151">
        <ele>724</ele>
        <time>2025-09-17T07:35:17Z</time>
      </trkpt>
      <trkpt lat="46.03877" lon="4.54149">
        <ele>724.2</ele>
        <time>2025-09-17T07:35:18Z</time>
      </trkpt>
      <trkpt lat="46.03876" lon="4.54147">
        <ele>724.2</ele>
        <time>2025-09-17T07:35:19Z</time>
      </trkpt>
      <trkpt lat="46.03874" lon="4.54146">
        <ele>724.8</ele>
        <time>2025-09-17T07:35:20Z</time>
      </trkpt>
      <trkpt lat="46.03873" lon="4.54145">
        <ele>724.8</ele>
        <time>2025-09-17T07:35:21Z</time>
      </trkpt>
      <trkpt lat="46.03872" lon="4.54143">
        <ele>724.8</ele>
        <time>2025-09-17T07:35:22Z</time>
      </trkpt>
      <trkpt lat="46.03871" lon="4.54142">
        <ele>725</ele>
        <time>2025-09-17T07:35:23Z</time>
      </trkpt>
      <trkpt lat="46.0387" lon="4.5414">
        <ele>725.4</ele>
        <time>2025-09-17T07:35:24Z</time>
      </trkpt>
      <trkpt lat="46.0387" lon="4.54138">
        <ele>725.4</ele>
        <time>2025-09-17T07:35:25Z</time>
      </trkpt>
      <trkpt lat="46.03868" lon="4.54136">
        <ele>725.8</ele>
        <time>2025-09-17T07:35:26Z</time>
      </trkpt>
      <trkpt lat="46.03867" lon="4.54134">
        <ele>725.8</ele>
        <time>2025-09-17T07:35:27Z</time>
      </trkpt>
      <trkpt lat="46.03866" lon="4.54133">
        <ele>725.8</ele>
        <time>2025-09-17T07:35:28Z</time>
      </trkpt>
      <trkpt lat="46.03865" lon="4.54132">
        <ele>726.2</ele>
        <time>2025-09-17T07:35:29Z</time>
      </trkpt>
      <trkpt lat="46.03864" lon="4.5413">
        <ele>726.2</ele>
        <time>2025-09-17T07:35:30Z</time>
      </trkpt>
      <trkpt lat="46.03863" lon="4.54129">
        <ele>726.2</ele>
        <time>2025-09-17T07:35:31Z</time>
      </trkpt>
      <trkpt lat="46.03862" lon="4.54128">
        <ele>726.4</ele>
        <time>2025-09-17T07:35:32Z</time>
      </trkpt>
      <trkpt lat="46.03861" lon="4.54127">
        <ele>726.4</ele>
        <time>2025-09-17T07:35:33Z</time>
      </trkpt>
      <trkpt lat="46.03859" lon="4.54126">
        <ele>726.8</ele>
        <time>2025-09-17T07:35:34Z</time>
      </trkpt>
      <trkpt lat="46.03858" lon="4.54125">
        <ele>726.8</ele>
        <time>2025-09-17T07:35:35Z</time>
      </trkpt>
      <trkpt lat="46.03857" lon="4.54124">
        <ele>727.2</ele>
        <time>2025-09-17T07:35:36Z</time>
      </trkpt>
      <trkpt lat="46.03856" lon="4.54123">
        <ele>727.4</ele>
        <time>2025-09-17T07:35:37Z</time>
      </trkpt>
      <trkpt lat="46.03855" lon="4.54121">
        <ele>727.6</ele>
        <time>2025-09-17T07:35:38Z</time>
      </trkpt>
      <trkpt lat="46.03854" lon="4.54119">
        <ele>727.6</ele>
        <time>2025-09-17T07:35:39Z</time>
      </trkpt>
      <trkpt lat="46.03853" lon="4.54118">
        <ele>728</ele>
        <time>2025-09-17T07:35:40Z</time>
      </trkpt>
      <trkpt lat="46.03852" lon="4.54116">
        <ele>728</ele>
        <time>2025-09-17T07:35:41Z</time>
      </trkpt>
      <trkpt lat="46.03851" lon="4.54115">
        <ele>728.4</ele>
        <time>2025-09-17T07:35:42Z</time>
      </trkpt>
      <trkpt lat="46.0385" lon="4.54113">
        <ele>728.6</ele>
        <time>2025-09-17T07:35:43Z</time>
      </trkpt>
      <trkpt lat="46.03849" lon="4.54112">
        <ele>729</ele>
        <time>2025-09-17T07:35:44Z</time>
      </trkpt>
      <trkpt lat="46.03848" lon="4.54111">
        <ele>729</ele>
        <time>2025-09-17T07:35:45Z</time>
      </trkpt>
      <trkpt lat="46.03847" lon="4.5411">
        <ele>729.4</ele>
        <time>2025-09-17T07:35:46Z</time>
      </trkpt>
      <trkpt lat="46.03846" lon="4.54108">
        <ele>729.4</ele>
        <time>2025-09-17T07:35:47Z</time>
      </trkpt>
      <trkpt lat="46.03845" lon="4.54107">
        <ele>729.8</ele>
        <time>2025-09-17T07:35:48Z</time>
      </trkpt>
      <trkpt lat="46.03844" lon="4.54106">
        <ele>730</ele>
        <time>2025-09-17T07:35:49Z</time>
      </trkpt>
      <trkpt lat="46.03843" lon="4.54104">
        <ele>730.2</ele>
        <time>2025-09-17T07:35:50Z</time>
      </trkpt>
      <trkpt lat="46.03842" lon="4.54102">
        <ele>730.2</ele>
        <time>2025-09-17T07:35:51Z</time>
      </trkpt>
      <trkpt lat="46.03841" lon="4.54101">
        <ele>730.8</ele>
        <time>2025-09-17T07:35:52Z</time>
      </trkpt>
      <trkpt lat="46.0384" lon="4.54099">
        <ele>730.8</ele>
        <time>2025-09-17T07:35:53Z</time>
      </trkpt>
      <trkpt lat="46.03839" lon="4.54098">
        <ele>731.2</ele>
        <time>2025-09-17T07:35:54Z</time>
      </trkpt>
      <trkpt lat="46.03838" lon="4.54097">
        <ele>731.4</ele>
        <time>2025-09-17T07:35:55Z</time>
      </trkpt>
      <trkpt lat="46.03837" lon="4.54097">
        <ele>731.8</ele>
        <time>2025-09-17T07:35:56Z</time>
      </trkpt>
      <trkpt lat="46.03836" lon="4.54096">
        <ele>731.8</ele>
        <time>2025-09-17T07:35:57Z</time>
      </trkpt>
      <trkpt lat="46.03835" lon="4.54095">
        <ele>732.2</ele>
        <time>2025-09-17T07:35:58Z</time>
      </trkpt>
      <trkpt lat="46.03834" lon="4.54094">
        <ele>732.4</ele>
        <time>2025-09-17T07:35:59Z</time>
      </trkpt>
      <trkpt lat="46.03833" lon="4.54093">
        <ele>732.4</ele>
        <time>2025-09-17T07:36:00Z</time>
      </trkpt>
      <trkpt lat="46.03832" lon="4.54092">
        <ele>732.8</ele>
        <time>2025-09-17T07:36:01Z</time>
      </trkpt>
      <trkpt lat="46.0383" lon="4.54092">
        <ele>732.8</ele>
        <time>2025-09-17T07:36:02Z</time>
      </trkpt>
      <trkpt lat="46.03829" lon="4.54091">
        <ele>733.2</ele>
        <time>2025-09-17T07:36:03Z</time>
      </trkpt>
      <trkpt lat="46.03828" lon="4.54089">
        <ele>733.2</ele>
        <time>2025-09-17T07:36:04Z</time>
      </trkpt>
      <trkpt lat="46.03827" lon="4.54088">
        <ele>733.6</ele>
        <time>2025-09-17T07:36:05Z</time>
      </trkpt>
      <trkpt lat="46.03826" lon="4.54088">
        <ele>733.8</ele>
        <time>2025-09-17T07:36:06Z</time>
      </trkpt>
      <trkpt lat="46.03825" lon="4.54087">
        <ele>734</ele>
        <time>2025-09-17T07:36:07Z</time>
      </trkpt>
      <trkpt lat="46.03824" lon="4.54086">
        <ele>734</ele>
        <time>2025-09-17T07:36:08Z</time>
      </trkpt>
      <trkpt lat="46.03823" lon="4.54085">
        <ele>734.4</ele>
        <time>2025-09-17T07:36:09Z</time>
      </trkpt>
      <trkpt lat="46.03822" lon="4.54085">
        <ele>734.6</ele>
        <time>2025-09-17T07:36:10Z</time>
      </trkpt>
      <trkpt lat="46.03821" lon="4.54084">
        <ele>734.8</ele>
        <time>2025-09-17T07:36:11Z</time>
      </trkpt>
      <trkpt lat="46.0382" lon="4.54084">
        <ele>734.8</ele>
        <time>2025-09-17T07:36:12Z</time>
      </trkpt>
      <trkpt lat="46.03819" lon="4.54083">
        <ele>735.2</ele>
        <time>2025-09-17T07:36:13Z</time>
      </trkpt>
      <trkpt lat="46.03818" lon="4.54082">
        <ele>735.6</ele>
        <time>2025-09-17T07:36:14Z</time>
      </trkpt>
      <trkpt lat="46.03817" lon="4.54081">
        <ele>735.8</ele>
        <time>2025-09-17T07:36:15Z</time>
      </trkpt>
      <trkpt lat="46.03816" lon="4.54079">
        <ele>735.8</ele>
        <time>2025-09-17T07:36:16Z</time>
      </trkpt>
      <trkpt lat="46.03815" lon="4.54078">
        <ele>736.2</ele>
        <time>2025-09-17T07:36:17Z</time>
      </trkpt>
      <trkpt lat="46.03814" lon="4.54077">
        <ele>736.4</ele>
        <time>2025-09-17T07:36:18Z</time>
      </trkpt>
      <trkpt lat="46.03813" lon="4.54075">
        <ele>736.4</ele>
        <time>2025-09-17T07:36:19Z</time>
      </trkpt>
      <trkpt lat="46.03813" lon="4.54073">
        <ele>736.6</ele>
        <time>2025-09-17T07:36:20Z</time>
      </trkpt>
      <trkpt lat="46.03812" lon="4.54072">
        <ele>736.6</ele>
        <time>2025-09-17T07:36:21Z</time>
      </trkpt>
      <trkpt lat="46.03811" lon="4.5407">
        <ele>737</ele>
        <time>2025-09-17T07:36:22Z</time>
      </trkpt>
      <trkpt lat="46.0381" lon="4.54069">
        <ele>737</ele>
        <time>2025-09-17T07:36:23Z</time>
      </trkpt>
      <trkpt lat="46.03809" lon="4.54067">
        <ele>737.2</ele>
        <time>2025-09-17T07:36:24Z</time>
      </trkpt>
      <trkpt lat="46.03807" lon="4.54066">
        <ele>737.4</ele>
        <time>2025-09-17T07:36:25Z</time>
      </trkpt>
      <trkpt lat="46.03806" lon="4.54064">
        <ele>737.8</ele>
        <time>2025-09-17T07:36:26Z</time>
      </trkpt>
      <trkpt lat="46.03805" lon="4.54063">
        <ele>738</ele>
        <time>2025-09-17T07:36:27Z</time>
      </trkpt>
      <trkpt lat="46.03804" lon="4.54061">
        <ele>738.4</ele>
        <time>2025-09-17T07:36:28Z</time>
      </trkpt>
      <trkpt lat="46.03803" lon="4.5406">
        <ele>738.6</ele>
        <time>2025-09-17T07:36:29Z</time>
      </trkpt>
      <trkpt lat="46.03802" lon="4.54058">
        <ele>738.8</ele>
        <time>2025-09-17T07:36:30Z</time>
      </trkpt>
      <trkpt lat="46.03801" lon="4.54056">
        <ele>738.8</ele>
        <time>2025-09-17T07:36:31Z</time>
      </trkpt>
      <trkpt lat="46.038" lon="4.54054">
        <ele>739.2</ele>
        <time>2025-09-17T07:36:32Z</time>
      </trkpt>
      <trkpt lat="46.03799" lon="4.54053">
        <ele>739.6</ele>
        <time>2025-09-17T07:36:33Z</time>
      </trkpt>
      <trkpt lat="46.03797" lon="4.54052">
        <ele>739.6</ele>
        <time>2025-09-17T07:36:34Z</time>
      </trkpt>
      <trkpt lat="46.03796" lon="4.5405">
        <ele>740</ele>
        <time>2025-09-17T07:36:35Z</time>
      </trkpt>
      <trkpt lat="46.03796" lon="4.54048">
        <ele>740.2</ele>
        <time>2025-09-17T07:36:36Z</time>
      </trkpt>
      <trkpt lat="46.03795" lon="4.54046">
        <ele>740.2</ele>
        <time>2025-09-17T07:36:37Z</time>
      </trkpt>
      <trkpt lat="46.03794" lon="4.54045">
        <ele>740.4</ele>
        <time>2025-09-17T07:36:38Z</time>
      </trkpt>
      <trkpt lat="46.03793" lon="4.54044">
        <ele>740.8</ele>
        <time>2025-09-17T07:36:39Z</time>
      </trkpt>
      <trkpt lat="46.03792" lon="4.54043">
        <ele>741</ele>
        <time>2025-09-17T07:36:40Z</time>
      </trkpt>
      <trkpt lat="46.03791" lon="4.54041">
        <ele>741</ele>
        <time>2025-09-17T07:36:41Z</time>
      </trkpt>
      <trkpt lat="46.0379" lon="4.5404">
        <ele>741</ele>
        <time>2025-09-17T07:36:42Z</time>
      </trkpt>
      <trkpt lat="46.0379" lon="4.54038">
        <ele>741.4</ele>
        <time>2025-09-17T07:36:43Z</time>
      </trkpt>
      <trkpt lat="46.03789" lon="4.54037">
        <ele>741.4</ele>
        <time>2025-09-17T07:36:44Z</time>
      </trkpt>
      <trkpt lat="46.03788" lon="4.54035">
        <ele>741.4</ele>
        <time>2025-09-17T07:36:45Z</time>
      </trkpt>
      <trkpt lat="46.03787" lon="4.54034">
        <ele>741.6</ele>
        <time>2025-09-17T07:36:46Z</time>
      </trkpt>
      <trkpt lat="46.03787" lon="4.54033">
        <ele>741.6</ele>
        <time>2025-09-17T07:36:47Z</time>
      </trkpt>
      <trkpt lat="46.03786" lon="4.54032">
        <ele>742</ele>
        <time>2025-09-17T07:36:48Z</time>
      </trkpt>
      <trkpt lat="46.03784" lon="4.54031">
        <ele>742</ele>
        <time>2025-09-17T07:36:49Z</time>
      </trkpt>
      <trkpt lat="46.03783" lon="4.5403">
        <ele>742.2</ele>
        <time>2025-09-17T07:36:50Z</time>
      </trkpt>
      <trkpt lat="46.03782" lon="4.54029">
        <ele>742.4</ele>
        <time>2025-09-17T07:36:51Z</time>
      </trkpt>
      <trkpt lat="46.03781" lon="4.54028">
        <ele>742.4</ele>
        <time>2025-09-17T07:36:52Z</time>
      </trkpt>
      <trkpt lat="46.0378" lon="4.54027">
        <ele>742.6</ele>
        <time>2025-09-17T07:36:53Z</time>
      </trkpt>
      <trkpt lat="46.03778" lon="4.54025">
        <ele>742.6</ele>
        <time>2025-09-17T07:36:54Z</time>
      </trkpt>
      <trkpt lat="46.03777" lon="4.54023">
        <ele>743</ele>
        <time>2025-09-17T07:36:55Z</time>
      </trkpt>
      <trkpt lat="46.03775" lon="4.54022">
        <ele>743</ele>
        <time>2025-09-17T07:36:56Z</time>
      </trkpt>
      <trkpt lat="46.03774" lon="4.5402">
        <ele>743.4</ele>
        <time>2025-09-17T07:36:57Z</time>
      </trkpt>
      <trkpt lat="46.03773" lon="4.54019">
        <ele>743.4</ele>
        <time>2025-09-17T07:36:58Z</time>
      </trkpt>
      <trkpt lat="46.03772" lon="4.54018">
        <ele>743.6</ele>
        <time>2025-09-17T07:36:59Z</time>
      </trkpt>
      <trkpt lat="46.03771" lon="4.54016">
        <ele>743.6</ele>
        <time>2025-09-17T07:37:00Z</time>
      </trkpt>
      <trkpt lat="46.0377" lon="4.54015">
        <ele>744</ele>
        <time>2025-09-17T07:37:01Z</time>
      </trkpt>
      <trkpt lat="46.03769" lon="4.54013">
        <ele>744</ele>
        <time>2025-09-17T07:37:02Z</time>
      </trkpt>
      <trkpt lat="46.03768" lon="4.54012">
        <ele>744.2</ele>
        <time>2025-09-17T07:37:03Z</time>
      </trkpt>
      <trkpt lat="46.03767" lon="4.54011">
        <ele>744.6</ele>
        <time>2025-09-17T07:37:04Z</time>
      </trkpt>
      <trkpt lat="46.03767" lon="4.54009">
        <ele>744.8</ele>
        <time>2025-09-17T07:37:05Z</time>
      </trkpt>
      <trkpt lat="46.03766" lon="4.54008">
        <ele>745</ele>
        <time>2025-09-17T07:37:06Z</time>
      </trkpt>
      <trkpt lat="46.03765" lon="4.54006">
        <ele>745</ele>
        <time>2025-09-17T07:37:07Z</time>
      </trkpt>
      <trkpt lat="46.03763" lon="4.54002">
        <ele>745.4</ele>
        <time>2025-09-17T07:37:08Z</time>
      </trkpt>
      <trkpt lat="46.03762" lon="4.54001">
        <ele>745.4</ele>
        <time>2025-09-17T07:37:09Z</time>
      </trkpt>
      <trkpt lat="46.03761" lon="4.53999">
        <ele>745.6</ele>
        <time>2025-09-17T07:37:10Z</time>
      </trkpt>
      <trkpt lat="46.0376" lon="4.53998">
        <ele>745.6</ele>
        <time>2025-09-17T07:37:11Z</time>
      </trkpt>
      <trkpt lat="46.03758" lon="4.53996">
        <ele>746</ele>
        <time>2025-09-17T07:37:12Z</time>
      </trkpt>
      <trkpt lat="46.03757" lon="4.53994">
        <ele>746</ele>
        <time>2025-09-17T07:37:13Z</time>
      </trkpt>
      <trkpt lat="46.03755" lon="4.53993">
        <ele>746</ele>
        <time>2025-09-17T07:37:14Z</time>
      </trkpt>
      <trkpt lat="46.03754" lon="4.53992">
        <ele>746.2</ele>
        <time>2025-09-17T07:37:15Z</time>
      </trkpt>
      <trkpt lat="46.03752" lon="4.5399">
        <ele>746.2</ele>
        <time>2025-09-17T07:37:16Z</time>
      </trkpt>
      <trkpt lat="46.03751" lon="4.53989">
        <ele>746.6</ele>
        <time>2025-09-17T07:37:17Z</time>
      </trkpt>
      <trkpt lat="46.03749" lon="4.53987">
        <ele>746.6</ele>
        <time>2025-09-17T07:37:18Z</time>
      </trkpt>
      <trkpt lat="46.03749" lon="4.53987">
        <ele>747</ele>
        <time>2025-09-17T07:37:19Z</time>
      </trkpt>
      <trkpt lat="46.03749" lon="4.53987">
        <ele>747</ele>
        <time>2025-09-17T07:37:20Z</time>
      </trkpt>
      <trkpt lat="46.03749" lon="4.53987">
        <ele>747.4</ele>
        <time>2025-09-17T07:37:21Z</time>
      </trkpt>
      <trkpt lat="46.03745" lon="4.53979">
        <ele>747.8</ele>
        <time>2025-09-17T07:37:23Z</time>
      </trkpt>
      <trkpt lat="46.03745" lon="4.53976">
        <ele>747.8</ele>
        <time>2025-09-17T07:37:24Z</time>
      </trkpt>
      <trkpt lat="46.03744" lon="4.53974">
        <ele>747.8</ele>
        <time>2025-09-17T07:37:25Z</time>
      </trkpt>
      <trkpt lat="46.03744" lon="4.53971">
        <ele>747.8</ele>
        <time>2025-09-17T07:37:26Z</time>
      </trkpt>
      <trkpt lat="46.03744" lon="4.53968">
        <ele>748.2</ele>
        <time>2025-09-17T07:37:27Z</time>
      </trkpt>
      <trkpt lat="46.03743" lon="4.53965">
        <ele>748.2</ele>
        <time>2025-09-17T07:37:28Z</time>
      </trkpt>
      <trkpt lat="46.03743" lon="4.53963">
        <ele>748.6</ele>
        <time>2025-09-17T07:37:29Z</time>
      </trkpt>
      <trkpt lat="46.03743" lon="4.5396">
        <ele>748.6</ele>
        <time>2025-09-17T07:37:30Z</time>
      </trkpt>
      <trkpt lat="46.03743" lon="4.53958">
        <ele>748.8</ele>
        <time>2025-09-17T07:37:31Z</time>
      </trkpt>
      <trkpt lat="46.03743" lon="4.53956">
        <ele>748.8</ele>
        <time>2025-09-17T07:37:32Z</time>
      </trkpt>
      <trkpt lat="46.03743" lon="4.53955">
        <ele>748.8</ele>
        <time>2025-09-17T07:37:33Z</time>
      </trkpt>
      <trkpt lat="46.03743" lon="4.53954">
        <ele>748.8</ele>
        <time>2025-09-17T07:37:34Z</time>
      </trkpt>
      <trkpt lat="46.03746" lon="4.53953">
        <ele>749.2</ele>
        <time>2025-09-17T07:40:02Z</time>
      </trkpt>
      <trkpt lat="46.03747" lon="4.53951">
        <ele>749.2</ele>
        <time>2025-09-17T07:40:03Z</time>
      </trkpt>
      <trkpt lat="46.03748" lon="4.53948">
        <ele>749</ele>
        <time>2025-09-17T07:40:04Z</time>
      </trkpt>
      <trkpt lat="46.03748" lon="4.53945">
        <ele>749</ele>
        <time>2025-09-17T07:40:05Z</time>
      </trkpt>
      <trkpt lat="46.03748" lon="4.53942">
        <ele>749</ele>
        <time>2025-09-17T07:40:06Z</time>
      </trkpt>
      <trkpt lat="46.03748" lon="4.53939">
        <ele>749</ele>
        <time>2025-09-17T07:40:07Z</time>
      </trkpt>
      <trkpt lat="46.03748" lon="4.53935">
        <ele>749</ele>
        <time>2025-09-17T07:40:08Z</time>
      </trkpt>
      <trkpt lat="46.03748" lon="4.53933">
        <ele>749</ele>
        <time>2025-09-17T07:40:09Z</time>
      </trkpt>
      <trkpt lat="46.03749" lon="4.53929">
        <ele>749</ele>
        <time>2025-09-17T07:40:10Z</time>
      </trkpt>
      <trkpt lat="46.03749" lon="4.53925">
        <ele>749</ele>
        <time>2025-09-17T07:40:11Z</time>
      </trkpt>
      <trkpt lat="46.0375" lon="4.53921">
        <ele>749</ele>
        <time>2025-09-17T07:40:12Z</time>
      </trkpt>
      <trkpt lat="46.03751" lon="4.53917">
        <ele>749</ele>
        <time>2025-09-17T07:40:13Z</time>
      </trkpt>
      <trkpt lat="46.03751" lon="4.53913">
        <ele>749</ele>
        <time>2025-09-17T07:40:14Z</time>
      </trkpt>
      <trkpt lat="46.03752" lon="4.5391">
        <ele>749.2</ele>
        <time>2025-09-17T07:40:15Z</time>
      </trkpt>
      <trkpt lat="46.03752" lon="4.53907">
        <ele>749.2</ele>
        <time>2025-09-17T07:40:16Z</time>
      </trkpt>
      <trkpt lat="46.03753" lon="4.53904">
        <ele>749.2</ele>
        <time>2025-09-17T07:40:17Z</time>
      </trkpt>
      <trkpt lat="46.03754" lon="4.539">
        <ele>749.4</ele>
        <time>2025-09-17T07:40:18Z</time>
      </trkpt>
      <trkpt lat="46.03755" lon="4.53896">
        <ele>749.4</ele>
        <time>2025-09-17T07:40:19Z</time>
      </trkpt>
      <trkpt lat="46.03756" lon="4.53892">
        <ele>749.4</ele>
        <time>2025-09-17T07:40:20Z</time>
      </trkpt>
      <trkpt lat="46.03758" lon="4.53888">
        <ele>749.4</ele>
        <time>2025-09-17T07:40:21Z</time>
      </trkpt>
      <trkpt lat="46.0376" lon="4.53885">
        <ele>749.6</ele>
        <time>2025-09-17T07:40:22Z</time>
      </trkpt>
      <trkpt lat="46.03763" lon="4.53881">
        <ele>749.6</ele>
        <time>2025-09-17T07:40:23Z</time>
      </trkpt>
      <trkpt lat="46.03765" lon="4.53877">
        <ele>749.6</ele>
        <time>2025-09-17T07:40:24Z</time>
      </trkpt>
      <trkpt lat="46.03768" lon="4.53873">
        <ele>749.6</ele>
        <time>2025-09-17T07:40:25Z</time>
      </trkpt>
      <trkpt lat="46.03771" lon="4.5387">
        <ele>749.6</ele>
        <time>2025-09-17T07:40:26Z</time>
      </trkpt>
      <trkpt lat="46.03776" lon="4.53868">
        <ele>749.4</ele>
        <time>2025-09-17T07:40:27Z</time>
      </trkpt>
      <trkpt lat="46.03779" lon="4.53864">
        <ele>749.4</ele>
        <time>2025-09-17T07:40:28Z</time>
      </trkpt>
      <trkpt lat="46.03783" lon="4.53859">
        <ele>749</ele>
        <time>2025-09-17T07:40:29Z</time>
      </trkpt>
      <trkpt lat="46.03787" lon="4.53855">
        <ele>748.6</ele>
        <time>2025-09-17T07:40:30Z</time>
      </trkpt>
      <trkpt lat="46.03792" lon="4.5385">
        <ele>748.4</ele>
        <time>2025-09-17T07:40:31Z</time>
      </trkpt>
      <trkpt lat="46.03797" lon="4.53846">
        <ele>748</ele>
        <time>2025-09-17T07:40:32Z</time>
      </trkpt>
      <trkpt lat="46.03803" lon="4.53841">
        <ele>747.2</ele>
        <time>2025-09-17T07:40:33Z</time>
      </trkpt>
      <trkpt lat="46.03811" lon="4.53838">
        <ele>746.6</ele>
        <time>2025-09-17T07:40:34Z</time>
      </trkpt>
      <trkpt lat="46.03818" lon="4.53836">
        <ele>746</ele>
        <time>2025-09-17T07:40:35Z</time>
      </trkpt>
      <trkpt lat="46.03826" lon="4.53834">
        <ele>745.8</ele>
        <time>2025-09-17T07:40:36Z</time>
      </trkpt>
      <trkpt lat="46.03833" lon="4.53831">
        <ele>745.8</ele>
        <time>2025-09-17T07:40:37Z</time>
      </trkpt>
      <trkpt lat="46.03839" lon="4.53829">
        <ele>745.4</ele>
        <time>2025-09-17T07:40:38Z</time>
      </trkpt>
      <trkpt lat="46.03844" lon="4.53827">
        <ele>745.2</ele>
        <time>2025-09-17T07:40:39Z</time>
      </trkpt>
      <trkpt lat="46.03849" lon="4.53824">
        <ele>745.8</ele>
        <time>2025-09-17T07:40:40Z</time>
      </trkpt>
      <trkpt lat="46.03852" lon="4.53823">
        <ele>746.2</ele>
        <time>2025-09-17T07:40:41Z</time>
      </trkpt>
      <trkpt lat="46.03855" lon="4.53822">
        <ele>746.6</ele>
        <time>2025-09-17T07:40:42Z</time>
      </trkpt>
      <trkpt lat="46.03858" lon="4.53822">
        <ele>747.2</ele>
        <time>2025-09-17T07:40:43Z</time>
      </trkpt>
      <trkpt lat="46.0386" lon="4.5382">
        <ele>747.6</ele>
        <time>2025-09-17T07:40:44Z</time>
      </trkpt>
      <trkpt lat="46.03864" lon="4.53821">
        <ele>748</ele>
        <time>2025-09-17T07:40:45Z</time>
      </trkpt>
      <trkpt lat="46.03866" lon="4.53819">
        <ele>748.2</ele>
        <time>2025-09-17T07:40:46Z</time>
      </trkpt>
      <trkpt lat="46.03869" lon="4.53818">
        <ele>748.2</ele>
        <time>2025-09-17T07:40:47Z</time>
      </trkpt>
      <trkpt lat="46.03871" lon="4.53817">
        <ele>748.4</ele>
        <time>2025-09-17T07:40:48Z</time>
      </trkpt>
      <trkpt lat="46.03874" lon="4.53816">
        <ele>748.8</ele>
        <time>2025-09-17T07:40:49Z</time>
      </trkpt>
      <trkpt lat="46.03877" lon="4.53815">
        <ele>748.8</ele>
        <time>2025-09-17T07:40:50Z</time>
      </trkpt>
      <trkpt lat="46.0388" lon="4.53813">
        <ele>749.2</ele>
        <time>2025-09-17T07:40:51Z</time>
      </trkpt>
      <trkpt lat="46.03883" lon="4.53811">
        <ele>749.2</ele>
        <time>2025-09-17T07:40:52Z</time>
      </trkpt>
      <trkpt lat="46.03886" lon="4.5381">
        <ele>749.6</ele>
        <time>2025-09-17T07:40:53Z</time>
      </trkpt>
      <trkpt lat="46.03889" lon="4.53808">
        <ele>749.8</ele>
        <time>2025-09-17T07:40:54Z</time>
      </trkpt>
      <trkpt lat="46.03891" lon="4.53807">
        <ele>750.2</ele>
        <time>2025-09-17T07:40:55Z</time>
      </trkpt>
      <trkpt lat="46.03894" lon="4.53806">
        <ele>750.4</ele>
        <time>2025-09-17T07:40:56Z</time>
      </trkpt>
      <trkpt lat="46.03897" lon="4.53805">
        <ele>750.6</ele>
        <time>2025-09-17T07:40:57Z</time>
      </trkpt>
      <trkpt lat="46.039" lon="4.53803">
        <ele>750.6</ele>
        <time>2025-09-17T07:40:58Z</time>
      </trkpt>
      <trkpt lat="46.03903" lon="4.53802">
        <ele>751</ele>
        <time>2025-09-17T07:40:59Z</time>
      </trkpt>
      <trkpt lat="46.03906" lon="4.53801">
        <ele>751</ele>
        <time>2025-09-17T07:41:00Z</time>
      </trkpt>
      <trkpt lat="46.03908" lon="4.53801">
        <ele>751.2</ele>
        <time>2025-09-17T07:41:01Z</time>
      </trkpt>
      <trkpt lat="46.03912" lon="4.538">
        <ele>751.2</ele>
        <time>2025-09-17T07:41:02Z</time>
      </trkpt>
      <trkpt lat="46.03915" lon="4.53799">
        <ele>751.2</ele>
        <time>2025-09-17T07:41:03Z</time>
      </trkpt>
      <trkpt lat="46.03918" lon="4.53799">
        <ele>751.8</ele>
        <time>2025-09-17T07:41:04Z</time>
      </trkpt>
      <trkpt lat="46.03921" lon="4.53797">
        <ele>752</ele>
        <time>2025-09-17T07:41:05Z</time>
      </trkpt>
      <trkpt lat="46.03924" lon="4.53797">
        <ele>752</ele>
        <time>2025-09-17T07:41:06Z</time>
      </trkpt>
      <trkpt lat="46.03927" lon="4.53796">
        <ele>752.4</ele>
        <time>2025-09-17T07:41:07Z</time>
      </trkpt>
      <trkpt lat="46.0393" lon="4.53795">
        <ele>752.4</ele>
        <time>2025-09-17T07:41:08Z</time>
      </trkpt>
      <trkpt lat="46.03933" lon="4.53795">
        <ele>752.8</ele>
        <time>2025-09-17T07:41:09Z</time>
      </trkpt>
      <trkpt lat="46.03936" lon="4.53794">
        <ele>752.8</ele>
        <time>2025-09-17T07:41:10Z</time>
      </trkpt>
      <trkpt lat="46.03939" lon="4.53794">
        <ele>753</ele>
        <time>2025-09-17T07:41:11Z</time>
      </trkpt>
      <trkpt lat="46.03942" lon="4.53794">
        <ele>753</ele>
        <time>2025-09-17T07:41:12Z</time>
      </trkpt>
      <trkpt lat="46.03945" lon="4.53794">
        <ele>753.4</ele>
        <time>2025-09-17T07:41:13Z</time>
      </trkpt>
      <trkpt lat="46.03948" lon="4.53793">
        <ele>753.6</ele>
        <time>2025-09-17T07:41:14Z</time>
      </trkpt>
      <trkpt lat="46.03952" lon="4.53793">
        <ele>753.6</ele>
        <time>2025-09-17T07:41:15Z</time>
      </trkpt>
      <trkpt lat="46.03955" lon="4.53793">
        <ele>754</ele>
        <time>2025-09-17T07:41:16Z</time>
      </trkpt>
      <trkpt lat="46.03958" lon="4.53793">
        <ele>754</ele>
        <time>2025-09-17T07:41:17Z</time>
      </trkpt>
      <trkpt lat="46.03961" lon="4.53794">
        <ele>754</ele>
        <time>2025-09-17T07:41:18Z</time>
      </trkpt>
      <trkpt lat="46.03964" lon="4.53794">
        <ele>754.2</ele>
        <time>2025-09-17T07:41:19Z</time>
      </trkpt>
      <trkpt lat="46.03967" lon="4.53795">
        <ele>754.2</ele>
        <time>2025-09-17T07:41:20Z</time>
      </trkpt>
      <trkpt lat="46.0397" lon="4.53795">
        <ele>754.4</ele>
        <time>2025-09-17T07:41:21Z</time>
      </trkpt>
      <trkpt lat="46.03973" lon="4.53795">
        <ele>754.4</ele>
        <time>2025-09-17T07:41:22Z</time>
      </trkpt>
      <trkpt lat="46.03976" lon="4.53795">
        <ele>754.8</ele>
        <time>2025-09-17T07:41:23Z</time>
      </trkpt>
      <trkpt lat="46.0398" lon="4.53796">
        <ele>754.8</ele>
        <time>2025-09-17T07:41:24Z</time>
      </trkpt>
      <trkpt lat="46.03983" lon="4.53796">
        <ele>755</ele>
        <time>2025-09-17T07:41:25Z</time>
      </trkpt>
      <trkpt lat="46.03985" lon="4.53797">
        <ele>755.2</ele>
        <time>2025-09-17T07:41:26Z</time>
      </trkpt>
      <trkpt lat="46.03988" lon="4.53797">
        <ele>755.2</ele>
        <time>2025-09-17T07:41:27Z</time>
      </trkpt>
      <trkpt lat="46.03991" lon="4.53797">
        <ele>755.6</ele>
        <time>2025-09-17T07:41:28Z</time>
      </trkpt>
      <trkpt lat="46.03994" lon="4.53798">
        <ele>755.8</ele>
        <time>2025-09-17T07:41:29Z</time>
      </trkpt>
      <trkpt lat="46.03996" lon="4.53798">
        <ele>755.8</ele>
        <time>2025-09-17T07:41:30Z</time>
      </trkpt>
      <trkpt lat="46.03998" lon="4.53799">
        <ele>756</ele>
        <time>2025-09-17T07:41:31Z</time>
      </trkpt>
      <trkpt lat="46.04" lon="4.53799">
        <ele>756.4</ele>
        <time>2025-09-17T07:41:32Z</time>
      </trkpt>
      <trkpt lat="46.04003" lon="4.53799">
        <ele>756.4</ele>
        <time>2025-09-17T07:41:33Z</time>
      </trkpt>
      <trkpt lat="46.04005" lon="4.53799">
        <ele>756.8</ele>
        <time>2025-09-17T07:41:34Z</time>
      </trkpt>
      <trkpt lat="46.04007" lon="4.53799">
        <ele>757</ele>
        <time>2025-09-17T07:41:35Z</time>
      </trkpt>
      <trkpt lat="46.04009" lon="4.53798">
        <ele>757</ele>
        <time>2025-09-17T07:41:36Z</time>
      </trkpt>
      <trkpt lat="46.04012" lon="4.53797">
        <ele>757.2</ele>
        <time>2025-09-17T07:41:37Z</time>
      </trkpt>
      <trkpt lat="46.04014" lon="4.53797">
        <ele>757.4</ele>
        <time>2025-09-17T07:41:38Z</time>
      </trkpt>
      <trkpt lat="46.04016" lon="4.53797">
        <ele>757.6</ele>
        <time>2025-09-17T07:41:39Z</time>
      </trkpt>
      <trkpt lat="46.04019" lon="4.53796">
        <ele>757.6</ele>
        <time>2025-09-17T07:41:40Z</time>
      </trkpt>
      <trkpt lat="46.04021" lon="4.53795">
        <ele>758</ele>
        <time>2025-09-17T07:41:41Z</time>
      </trkpt>
      <trkpt lat="46.04024" lon="4.53794">
        <ele>758</ele>
        <time>2025-09-17T07:41:42Z</time>
      </trkpt>
      <trkpt lat="46.04026" lon="4.53794">
        <ele>758.2</ele>
        <time>2025-09-17T07:41:43Z</time>
      </trkpt>
      <trkpt lat="46.04029" lon="4.53793">
        <ele>758.2</ele>
        <time>2025-09-17T07:41:44Z</time>
      </trkpt>
      <trkpt lat="46.04031" lon="4.53792">
        <ele>758.6</ele>
        <time>2025-09-17T07:41:45Z</time>
      </trkpt>
      <trkpt lat="46.04034" lon="4.53791">
        <ele>758.6</ele>
        <time>2025-09-17T07:41:46Z</time>
      </trkpt>
      <trkpt lat="46.04036" lon="4.53791">
        <ele>758.8</ele>
        <time>2025-09-17T07:41:47Z</time>
      </trkpt>
      <trkpt lat="46.04038" lon="4.5379">
        <ele>758.8</ele>
        <time>2025-09-17T07:41:48Z</time>
      </trkpt>
      <trkpt lat="46.04039" lon="4.53789">
        <ele>759</ele>
        <time>2025-09-17T07:41:49Z</time>
      </trkpt>
      <trkpt lat="46.04041" lon="4.53787">
        <ele>759</ele>
        <time>2025-09-17T07:41:50Z</time>
      </trkpt>
      <trkpt lat="46.04043" lon="4.53785">
        <ele>759.4</ele>
        <time>2025-09-17T07:41:51Z</time>
      </trkpt>
      <trkpt lat="46.04045" lon="4.53783">
        <ele>759.4</ele>
        <time>2025-09-17T07:41:52Z</time>
      </trkpt>
      <trkpt lat="46.04047" lon="4.53782">
        <ele>759.6</ele>
        <time>2025-09-17T07:41:53Z</time>
      </trkpt>
      <trkpt lat="46.04049" lon="4.5378">
        <ele>760</ele>
        <time>2025-09-17T07:41:54Z</time>
      </trkpt>
      <trkpt lat="46.0405" lon="4.53778">
        <ele>760</ele>
        <time>2025-09-17T07:41:55Z</time>
      </trkpt>
      <trkpt lat="46.04052" lon="4.53776">
        <ele>760.4</ele>
        <time>2025-09-17T07:41:56Z</time>
      </trkpt>
      <trkpt lat="46.04053" lon="4.53774">
        <ele>760.4</ele>
        <time>2025-09-17T07:41:57Z</time>
      </trkpt>
      <trkpt lat="46.04055" lon="4.53771">
        <ele>760.8</ele>
        <time>2025-09-17T07:41:58Z</time>
      </trkpt>
      <trkpt lat="46.04057" lon="4.53769">
        <ele>760.8</ele>
        <time>2025-09-17T07:41:59Z</time>
      </trkpt>
      <trkpt lat="46.04058" lon="4.53766">
        <ele>761.2</ele>
        <time>2025-09-17T07:42:00Z</time>
      </trkpt>
      <trkpt lat="46.04059" lon="4.53764">
        <ele>761.2</ele>
        <time>2025-09-17T07:42:01Z</time>
      </trkpt>
      <trkpt lat="46.04061" lon="4.53762">
        <ele>761.6</ele>
        <time>2025-09-17T07:42:02Z</time>
      </trkpt>
      <trkpt lat="46.04062" lon="4.5376">
        <ele>761.8</ele>
        <time>2025-09-17T07:42:03Z</time>
      </trkpt>
      <trkpt lat="46.04063" lon="4.53758">
        <ele>762.2</ele>
        <time>2025-09-17T07:42:04Z</time>
      </trkpt>
      <trkpt lat="46.04065" lon="4.53756">
        <ele>762.2</ele>
        <time>2025-09-17T07:42:05Z</time>
      </trkpt>
      <trkpt lat="46.04066" lon="4.53754">
        <ele>762.4</ele>
        <time>2025-09-17T07:42:06Z</time>
      </trkpt>
      <trkpt lat="46.04068" lon="4.53753">
        <ele>762.8</ele>
        <time>2025-09-17T07:42:07Z</time>
      </trkpt>
      <trkpt lat="46.04069" lon="4.53752">
        <ele>763</ele>
        <time>2025-09-17T07:42:08Z</time>
      </trkpt>
      <trkpt lat="46.04071" lon="4.5375">
        <ele>763</ele>
        <time>2025-09-17T07:42:09Z</time>
      </trkpt>
      <trkpt lat="46.04072" lon="4.53749">
        <ele>763.4</ele>
        <time>2025-09-17T07:42:10Z</time>
      </trkpt>
      <trkpt lat="46.04074" lon="4.53749">
        <ele>763.6</ele>
        <time>2025-09-17T07:42:11Z</time>
      </trkpt>
      <trkpt lat="46.04075" lon="4.53748">
        <ele>764</ele>
        <time>2025-09-17T07:42:12Z</time>
      </trkpt>
      <trkpt lat="46.04076" lon="4.53749">
        <ele>764.2</ele>
        <time>2025-09-17T07:42:13Z</time>
      </trkpt>
      <trkpt lat="46.0408" lon="4.53747">
        <ele>764.2</ele>
        <time>2025-09-17T07:42:14Z</time>
      </trkpt>
      <trkpt lat="46.04082" lon="4.53745">
        <ele>764.4</ele>
        <time>2025-09-17T07:42:15Z</time>
      </trkpt>
      <trkpt lat="46.04082" lon="4.53744">
        <ele>764.4</ele>
        <time>2025-09-17T07:42:16Z</time>
      </trkpt>
      <trkpt lat="46.04083" lon="4.53742">
        <ele>764.8</ele>
        <time>2025-09-17T07:42:17Z</time>
      </trkpt>
      <trkpt lat="46.04084" lon="4.5374">
        <ele>765</ele>
        <time>2025-09-17T07:42:18Z</time>
      </trkpt>
      <trkpt lat="46.04085" lon="4.53738">
        <ele>765.4</ele>
        <time>2025-09-17T07:42:19Z</time>
      </trkpt>
      <trkpt lat="46.04086" lon="4.53737">
        <ele>765.4</ele>
        <time>2025-09-17T07:42:20Z</time>
      </trkpt>
      <trkpt lat="46.04087" lon="4.53735">
        <ele>765.6</ele>
        <time>2025-09-17T07:42:21Z</time>
      </trkpt>
      <trkpt lat="46.04088" lon="4.53735">
        <ele>766</ele>
        <time>2025-09-17T07:42:22Z</time>
      </trkpt>
      <trkpt lat="46.04089" lon="4.53734">
        <ele>766</ele>
        <time>2025-09-17T07:42:23Z</time>
      </trkpt>
      <trkpt lat="46.0409" lon="4.53733">
        <ele>766.2</ele>
        <time>2025-09-17T07:42:24Z</time>
      </trkpt>
      <trkpt lat="46.0409" lon="4.53731">
        <ele>766.2</ele>
        <time>2025-09-17T07:42:25Z</time>
      </trkpt>
      <trkpt lat="46.04091" lon="4.53729">
        <ele>766.2</ele>
        <time>2025-09-17T07:42:26Z</time>
      </trkpt>
      <trkpt lat="46.04092" lon="4.53728">
        <ele>766.8</ele>
        <time>2025-09-17T07:42:27Z</time>
      </trkpt>
      <trkpt lat="46.04094" lon="4.53726">
        <ele>766.8</ele>
        <time>2025-09-17T07:42:28Z</time>
      </trkpt>
      <trkpt lat="46.04094" lon="4.53725">
        <ele>767.2</ele>
        <time>2025-09-17T07:42:29Z</time>
      </trkpt>
      <trkpt lat="46.04095" lon="4.53723">
        <ele>767.2</ele>
        <time>2025-09-17T07:42:30Z</time>
      </trkpt>
      <trkpt lat="46.04096" lon="4.53722">
        <ele>767.6</ele>
        <time>2025-09-17T07:42:31Z</time>
      </trkpt>
      <trkpt lat="46.04097" lon="4.53721">
        <ele>767.6</ele>
        <time>2025-09-17T07:42:32Z</time>
      </trkpt>
      <trkpt lat="46.04098" lon="4.53719">
        <ele>767.6</ele>
        <time>2025-09-17T07:42:33Z</time>
      </trkpt>
      <trkpt lat="46.041" lon="4.53718">
        <ele>767.8</ele>
        <time>2025-09-17T07:42:34Z</time>
      </trkpt>
      <trkpt lat="46.04101" lon="4.53717">
        <ele>767.8</ele>
        <time>2025-09-17T07:42:35Z</time>
      </trkpt>
      <trkpt lat="46.04103" lon="4.53717">
        <ele>768</ele>
        <time>2025-09-17T07:42:36Z</time>
      </trkpt>
      <trkpt lat="46.04104" lon="4.53716">
        <ele>768.4</ele>
        <time>2025-09-17T07:42:37Z</time>
      </trkpt>
      <trkpt lat="46.04106" lon="4.53715">
        <ele>768.4</ele>
        <time>2025-09-17T07:42:38Z</time>
      </trkpt>
      <trkpt lat="46.04106" lon="4.53714">
        <ele>768.6</ele>
        <time>2025-09-17T07:42:39Z</time>
      </trkpt>
      <trkpt lat="46.04107" lon="4.53713">
        <ele>768.6</ele>
        <time>2025-09-17T07:42:40Z</time>
      </trkpt>
      <trkpt lat="46.04108" lon="4.53712">
        <ele>768.6</ele>
        <time>2025-09-17T07:42:41Z</time>
      </trkpt>
      <trkpt lat="46.04109" lon="4.53712">
        <ele>769</ele>
        <time>2025-09-17T07:42:42Z</time>
      </trkpt>
      <trkpt lat="46.0411" lon="4.53711">
        <ele>769</ele>
        <time>2025-09-17T07:42:43Z</time>
      </trkpt>
      <trkpt lat="46.04111" lon="4.5371">
        <ele>769.2</ele>
        <time>2025-09-17T07:42:44Z</time>
      </trkpt>
      <trkpt lat="46.04112" lon="4.53708">
        <ele>769.2</ele>
        <time>2025-09-17T07:42:45Z</time>
      </trkpt>
      <trkpt lat="46.04113" lon="4.53707">
        <ele>769.6</ele>
        <time>2025-09-17T07:42:46Z</time>
      </trkpt>
      <trkpt lat="46.04114" lon="4.53705">
        <ele>770</ele>
        <time>2025-09-17T07:42:47Z</time>
      </trkpt>
      <trkpt lat="46.04114" lon="4.53704">
        <ele>770.2</ele>
        <time>2025-09-17T07:42:48Z</time>
      </trkpt>
      <trkpt lat="46.04115" lon="4.53703">
        <ele>770.2</ele>
        <time>2025-09-17T07:42:49Z</time>
      </trkpt>
      <trkpt lat="46.04115" lon="4.53701">
        <ele>770.6</ele>
        <time>2025-09-17T07:42:50Z</time>
      </trkpt>
      <trkpt lat="46.04116" lon="4.53699">
        <ele>770.6</ele>
        <time>2025-09-17T07:42:51Z</time>
      </trkpt>
      <trkpt lat="46.04116" lon="4.53697">
        <ele>770.6</ele>
        <time>2025-09-17T07:42:52Z</time>
      </trkpt>
      <trkpt lat="46.04117" lon="4.53695">
        <ele>770.6</ele>
        <time>2025-09-17T07:42:53Z</time>
      </trkpt>
      <trkpt lat="46.04118" lon="4.53693">
        <ele>770.8</ele>
        <time>2025-09-17T07:42:54Z</time>
      </trkpt>
      <trkpt lat="46.04118" lon="4.53692">
        <ele>771</ele>
        <time>2025-09-17T07:42:55Z</time>
      </trkpt>
      <trkpt lat="46.04119" lon="4.5369">
        <ele>771</ele>
        <time>2025-09-17T07:42:56Z</time>
      </trkpt>
      <trkpt lat="46.0412" lon="4.53689">
        <ele>771.4</ele>
        <time>2025-09-17T07:42:57Z</time>
      </trkpt>
      <trkpt lat="46.04121" lon="4.53687">
        <ele>771.4</ele>
        <time>2025-09-17T07:42:58Z</time>
      </trkpt>
      <trkpt lat="46.04122" lon="4.53686">
        <ele>772</ele>
        <time>2025-09-17T07:42:59Z</time>
      </trkpt>
      <trkpt lat="46.04123" lon="4.53684">
        <ele>772.4</ele>
        <time>2025-09-17T07:43:00Z</time>
      </trkpt>
      <trkpt lat="46.04124" lon="4.53682">
        <ele>772.6</ele>
        <time>2025-09-17T07:43:01Z</time>
      </trkpt>
      <trkpt lat="46.04125" lon="4.53681">
        <ele>772.8</ele>
        <time>2025-09-17T07:43:02Z</time>
      </trkpt>
      <trkpt lat="46.04125" lon="4.5368">
        <ele>772.8</ele>
        <time>2025-09-17T07:43:03Z</time>
      </trkpt>
      <trkpt lat="46.04126" lon="4.53678">
        <ele>773.2</ele>
        <time>2025-09-17T07:43:04Z</time>
      </trkpt>
      <trkpt lat="46.04126" lon="4.53677">
        <ele>773.2</ele>
        <time>2025-09-17T07:43:05Z</time>
      </trkpt>
      <trkpt lat="46.04127" lon="4.53674">
        <ele>773.6</ele>
        <time>2025-09-17T07:43:06Z</time>
      </trkpt>
      <trkpt lat="46.04128" lon="4.53671">
        <ele>773.6</ele>
        <time>2025-09-17T07:43:07Z</time>
      </trkpt>
      <trkpt lat="46.04129" lon="4.5367">
        <ele>774</ele>
        <time>2025-09-17T07:43:08Z</time>
      </trkpt>
      <trkpt lat="46.0413" lon="4.53668">
        <ele>774</ele>
        <time>2025-09-17T07:43:09Z</time>
      </trkpt>
      <trkpt lat="46.04131" lon="4.53667">
        <ele>774.4</ele>
        <time>2025-09-17T07:43:10Z</time>
      </trkpt>
      <trkpt lat="46.04133" lon="4.53665">
        <ele>774.4</ele>
        <time>2025-09-17T07:43:11Z</time>
      </trkpt>
      <trkpt lat="46.04134" lon="4.53664">
        <ele>774.8</ele>
        <time>2025-09-17T07:43:12Z</time>
      </trkpt>
      <trkpt lat="46.04136" lon="4.53662">
        <ele>774.8</ele>
        <time>2025-09-17T07:43:13Z</time>
      </trkpt>
      <trkpt lat="46.04137" lon="4.53661">
        <ele>775</ele>
        <time>2025-09-17T07:43:14Z</time>
      </trkpt>
      <trkpt lat="46.04138" lon="4.5366">
        <ele>775</ele>
        <time>2025-09-17T07:43:15Z</time>
      </trkpt>
      <trkpt lat="46.04139" lon="4.53661">
        <ele>775.4</ele>
        <time>2025-09-17T07:43:16Z</time>
      </trkpt>
      <trkpt lat="46.04141" lon="4.53661">
        <ele>775.4</ele>
        <time>2025-09-17T07:43:17Z</time>
      </trkpt>
      <trkpt lat="46.04142" lon="4.53661">
        <ele>775.6</ele>
        <time>2025-09-17T07:43:18Z</time>
      </trkpt>
      <trkpt lat="46.04143" lon="4.5366">
        <ele>775.8</ele>
        <time>2025-09-17T07:43:19Z</time>
      </trkpt>
      <trkpt lat="46.04144" lon="4.53659">
        <ele>775.8</ele>
        <time>2025-09-17T07:43:20Z</time>
      </trkpt>
      <trkpt lat="46.04144" lon="4.53658">
        <ele>776</ele>
        <time>2025-09-17T07:43:21Z</time>
      </trkpt>
      <trkpt lat="46.04145" lon="4.53657">
        <ele>776</ele>
        <time>2025-09-17T07:43:22Z</time>
      </trkpt>
      <trkpt lat="46.04146" lon="4.53656">
        <ele>776.4</ele>
        <time>2025-09-17T07:43:23Z</time>
      </trkpt>
      <trkpt lat="46.04148" lon="4.53655">
        <ele>776.8</ele>
        <time>2025-09-17T07:43:24Z</time>
      </trkpt>
      <trkpt lat="46.0415" lon="4.53655">
        <ele>777</ele>
        <time>2025-09-17T07:43:25Z</time>
      </trkpt>
      <trkpt lat="46.04151" lon="4.53655">
        <ele>777</ele>
        <time>2025-09-17T07:43:26Z</time>
      </trkpt>
      <trkpt lat="46.04152" lon="4.53655">
        <ele>777.2</ele>
        <time>2025-09-17T07:43:27Z</time>
      </trkpt>
      <trkpt lat="46.04154" lon="4.53655">
        <ele>777.6</ele>
        <time>2025-09-17T07:43:28Z</time>
      </trkpt>
      <trkpt lat="46.04155" lon="4.53654">
        <ele>777.6</ele>
        <time>2025-09-17T07:43:29Z</time>
      </trkpt>
      <trkpt lat="46.04156" lon="4.53653">
        <ele>777.8</ele>
        <time>2025-09-17T07:43:30Z</time>
      </trkpt>
      <trkpt lat="46.04158" lon="4.53653">
        <ele>777.8</ele>
        <time>2025-09-17T07:43:31Z</time>
      </trkpt>
      <trkpt lat="46.0416" lon="4.53653">
        <ele>778.2</ele>
        <time>2025-09-17T07:43:32Z</time>
      </trkpt>
      <trkpt lat="46.04161" lon="4.53653">
        <ele>778.4</ele>
        <time>2025-09-17T07:43:33Z</time>
      </trkpt>
      <trkpt lat="46.04162" lon="4.53653">
        <ele>778.4</ele>
        <time>2025-09-17T07:43:34Z</time>
      </trkpt>
      <trkpt lat="46.04164" lon="4.53653">
        <ele>778.4</ele>
        <time>2025-09-17T07:43:35Z</time>
      </trkpt>
      <trkpt lat="46.04166" lon="4.53653">
        <ele>778.6</ele>
        <time>2025-09-17T07:43:36Z</time>
      </trkpt>
      <trkpt lat="46.04168" lon="4.53654">
        <ele>778.6</ele>
        <time>2025-09-17T07:43:37Z</time>
      </trkpt>
      <trkpt lat="46.0417" lon="4.53654">
        <ele>779</ele>
        <time>2025-09-17T07:43:38Z</time>
      </trkpt>
      <trkpt lat="46.0417" lon="4.53654">
        <ele>779</ele>
        <time>2025-09-17T07:43:39Z</time>
      </trkpt>
      <trkpt lat="46.04172" lon="4.53655">
        <ele>779.2</ele>
        <time>2025-09-17T07:43:40Z</time>
      </trkpt>
      <trkpt lat="46.04174" lon="4.53656">
        <ele>779.2</ele>
        <time>2025-09-17T07:43:41Z</time>
      </trkpt>
      <trkpt lat="46.04176" lon="4.53656">
        <ele>779.4</ele>
        <time>2025-09-17T07:43:42Z</time>
      </trkpt>
      <trkpt lat="46.04178" lon="4.53657">
        <ele>779.4</ele>
        <time>2025-09-17T07:43:43Z</time>
      </trkpt>
      <trkpt lat="46.04179" lon="4.53657">
        <ele>779.6</ele>
        <time>2025-09-17T07:43:44Z</time>
      </trkpt>
      <trkpt lat="46.04181" lon="4.53658">
        <ele>780</ele>
        <time>2025-09-17T07:43:45Z</time>
      </trkpt>
      <trkpt lat="46.04183" lon="4.53659">
        <ele>780</ele>
        <time>2025-09-17T07:43:46Z</time>
      </trkpt>
      <trkpt lat="46.04185" lon="4.53659">
        <ele>780.2</ele>
        <time>2025-09-17T07:43:47Z</time>
      </trkpt>
      <trkpt lat="46.04187" lon="4.53661">
        <ele>780.4</ele>
        <time>2025-09-17T07:43:48Z</time>
      </trkpt>
      <trkpt lat="46.04189" lon="4.53661">
        <ele>780.6</ele>
        <time>2025-09-17T07:43:49Z</time>
      </trkpt>
      <trkpt lat="46.04191" lon="4.53662">
        <ele>780.8</ele>
        <time>2025-09-17T07:43:50Z</time>
      </trkpt>
      <trkpt lat="46.04193" lon="4.53663">
        <ele>780.8</ele>
        <time>2025-09-17T07:43:51Z</time>
      </trkpt>
      <trkpt lat="46.04194" lon="4.53664">
        <ele>780.8</ele>
        <time>2025-09-17T07:43:52Z</time>
      </trkpt>
      <trkpt lat="46.04197" lon="4.53665">
        <ele>780.8</ele>
        <time>2025-09-17T07:43:53Z</time>
      </trkpt>
      <trkpt lat="46.04199" lon="4.53666">
        <ele>780.8</ele>
        <time>2025-09-17T07:43:54Z</time>
      </trkpt>
      <trkpt lat="46.04201" lon="4.53667">
        <ele>781.2</ele>
        <time>2025-09-17T07:43:55Z</time>
      </trkpt>
      <trkpt lat="46.04203" lon="4.53669">
        <ele>781.2</ele>
        <time>2025-09-17T07:43:56Z</time>
      </trkpt>
      <trkpt lat="46.04205" lon="4.5367">
        <ele>781.4</ele>
        <time>2025-09-17T07:43:57Z</time>
      </trkpt>
      <trkpt lat="46.04207" lon="4.53671">
        <ele>781.4</ele>
        <time>2025-09-17T07:43:58Z</time>
      </trkpt>
      <trkpt lat="46.04209" lon="4.53673">
        <ele>781.4</ele>
        <time>2025-09-17T07:43:59Z</time>
      </trkpt>
      <trkpt lat="46.04211" lon="4.53675">
        <ele>781.4</ele>
        <time>2025-09-17T07:44:00Z</time>
      </trkpt>
      <trkpt lat="46.04213" lon="4.53677">
        <ele>781.6</ele>
        <time>2025-09-17T07:44:01Z</time>
      </trkpt>
      <trkpt lat="46.04215" lon="4.53679">
        <ele>781.6</ele>
        <time>2025-09-17T07:44:02Z</time>
      </trkpt>
      <trkpt lat="46.04218" lon="4.53681">
        <ele>781.6</ele>
        <time>2025-09-17T07:44:03Z</time>
      </trkpt>
      <trkpt lat="46.0422" lon="4.53684">
        <ele>781.8</ele>
        <time>2025-09-17T07:44:04Z</time>
      </trkpt>
      <trkpt lat="46.04222" lon="4.53686">
        <ele>781.8</ele>
        <time>2025-09-17T07:44:05Z</time>
      </trkpt>
      <trkpt lat="46.04224" lon="4.53688">
        <ele>782</ele>
        <time>2025-09-17T07:44:06Z</time>
      </trkpt>
      <trkpt lat="46.04226" lon="4.5369">
        <ele>782</ele>
        <time>2025-09-17T07:44:07Z</time>
      </trkpt>
      <trkpt lat="46.04229" lon="4.53692">
        <ele>782</ele>
        <time>2025-09-17T07:44:08Z</time>
      </trkpt>
      <trkpt lat="46.04231" lon="4.53694">
        <ele>782</ele>
        <time>2025-09-17T07:44:09Z</time>
      </trkpt>
      <trkpt lat="46.04232" lon="4.53696">
        <ele>782.4</ele>
        <time>2025-09-17T07:44:10Z</time>
      </trkpt>
      <trkpt lat="46.04234" lon="4.53697">
        <ele>782.4</ele>
        <time>2025-09-17T07:44:11Z</time>
      </trkpt>
      <trkpt lat="46.04236" lon="4.53699">
        <ele>782.6</ele>
        <time>2025-09-17T07:44:12Z</time>
      </trkpt>
      <trkpt lat="46.04238" lon="4.53702">
        <ele>782.6</ele>
        <time>2025-09-17T07:44:13Z</time>
      </trkpt>
      <trkpt lat="46.04241" lon="4.53704">
        <ele>782.6</ele>
        <time>2025-09-17T07:44:14Z</time>
      </trkpt>
      <trkpt lat="46.04244" lon="4.53707">
        <ele>782.6</ele>
        <time>2025-09-17T07:44:15Z</time>
      </trkpt>
      <trkpt lat="46.04247" lon="4.5371">
        <ele>782.8</ele>
        <time>2025-09-17T07:44:16Z</time>
      </trkpt>
      <trkpt lat="46.0425" lon="4.53712">
        <ele>782.8</ele>
        <time>2025-09-17T07:44:17Z</time>
      </trkpt>
      <trkpt lat="46.04253" lon="4.53714">
        <ele>783</ele>
        <time>2025-09-17T07:44:18Z</time>
      </trkpt>
      <trkpt lat="46.04257" lon="4.53716">
        <ele>783</ele>
        <time>2025-09-17T07:44:19Z</time>
      </trkpt>
      <trkpt lat="46.0426" lon="4.53719">
        <ele>783</ele>
        <time>2025-09-17T07:44:20Z</time>
      </trkpt>
      <trkpt lat="46.04263" lon="4.53722">
        <ele>783.4</ele>
        <time>2025-09-17T07:44:21Z</time>
      </trkpt>
      <trkpt lat="46.04266" lon="4.53725">
        <ele>783.6</ele>
        <time>2025-09-17T07:44:22Z</time>
      </trkpt>
      <trkpt lat="46.04269" lon="4.53727">
        <ele>783.6</ele>
        <time>2025-09-17T07:44:23Z</time>
      </trkpt>
      <trkpt lat="46.04272" lon="4.5373">
        <ele>783.6</ele>
        <time>2025-09-17T07:44:24Z</time>
      </trkpt>
      <trkpt lat="46.04276" lon="4.53733">
        <ele>783.8</ele>
        <time>2025-09-17T07:44:25Z</time>
      </trkpt>
      <trkpt lat="46.04278" lon="4.53736">
        <ele>783.8</ele>
        <time>2025-09-17T07:44:26Z</time>
      </trkpt>
      <trkpt lat="46.04281" lon="4.5374">
        <ele>784.2</ele>
        <time>2025-09-17T07:44:27Z</time>
      </trkpt>
      <trkpt lat="46.04284" lon="4.53743">
        <ele>784.2</ele>
        <time>2025-09-17T07:44:28Z</time>
      </trkpt>
      <trkpt lat="46.04287" lon="4.53746">
        <ele>784.6</ele>
        <time>2025-09-17T07:44:29Z</time>
      </trkpt>
      <trkpt lat="46.04291" lon="4.53748">
        <ele>784.6</ele>
        <time>2025-09-17T07:44:30Z</time>
      </trkpt>
      <trkpt lat="46.04294" lon="4.53751">
        <ele>784.8</ele>
        <time>2025-09-17T07:44:31Z</time>
      </trkpt>
      <trkpt lat="46.04297" lon="4.53753">
        <ele>784.8</ele>
        <time>2025-09-17T07:44:32Z</time>
      </trkpt>
      <trkpt lat="46.04301" lon="4.53756">
        <ele>784.8</ele>
        <time>2025-09-17T07:44:33Z</time>
      </trkpt>
      <trkpt lat="46.04304" lon="4.53759">
        <ele>784.8</ele>
        <time>2025-09-17T07:44:34Z</time>
      </trkpt>
      <trkpt lat="46.04307" lon="4.53762">
        <ele>784.8</ele>
        <time>2025-09-17T07:44:35Z</time>
      </trkpt>
      <trkpt lat="46.04311" lon="4.53764">
        <ele>785.2</ele>
        <time>2025-09-17T07:44:36Z</time>
      </trkpt>
      <trkpt lat="46.04315" lon="4.53767">
        <ele>785.4</ele>
        <time>2025-09-17T07:44:37Z</time>
      </trkpt>
      <trkpt lat="46.04318" lon="4.5377">
        <ele>785.4</ele>
        <time>2025-09-17T07:44:38Z</time>
      </trkpt>
      <trkpt lat="46.04322" lon="4.53772">
        <ele>785.4</ele>
        <time>2025-09-17T07:44:39Z</time>
      </trkpt>
      <trkpt lat="46.04327" lon="4.53774">
        <ele>785.4</ele>
        <time>2025-09-17T07:44:40Z</time>
      </trkpt>
      <trkpt lat="46.04331" lon="4.53777">
        <ele>785.4</ele>
        <time>2025-09-17T07:44:41Z</time>
      </trkpt>
      <trkpt lat="46.04335" lon="4.5378">
        <ele>785.4</ele>
        <time>2025-09-17T07:44:42Z</time>
      </trkpt>
      <trkpt lat="46.04339" lon="4.53782">
        <ele>785.2</ele>
        <time>2025-09-17T07:44:43Z</time>
      </trkpt>
      <trkpt lat="46.04344" lon="4.53787">
        <ele>785.2</ele>
        <time>2025-09-17T07:44:44Z</time>
      </trkpt>
      <trkpt lat="46.04349" lon="4.53792">
        <ele>785.2</ele>
        <time>2025-09-17T07:44:45Z</time>
      </trkpt>
      <trkpt lat="46.04354" lon="4.53796">
        <ele>785.2</ele>
        <time>2025-09-17T07:44:46Z</time>
      </trkpt>
      <trkpt lat="46.04358" lon="4.538">
        <ele>785.2</ele>
        <time>2025-09-17T07:44:47Z</time>
      </trkpt>
      <trkpt lat="46.04363" lon="4.53806">
        <ele>785.2</ele>
        <time>2025-09-17T07:44:48Z</time>
      </trkpt>
      <trkpt lat="46.04366" lon="4.53809">
        <ele>785.2</ele>
        <time>2025-09-17T07:44:49Z</time>
      </trkpt>
      <trkpt lat="46.04369" lon="4.53814">
        <ele>785.2</ele>
        <time>2025-09-17T07:44:50Z</time>
      </trkpt>
      <trkpt lat="46.04374" lon="4.5382">
        <ele>785.2</ele>
        <time>2025-09-17T07:44:51Z</time>
      </trkpt>
      <trkpt lat="46.04377" lon="4.53825">
        <ele>785.6</ele>
        <time>2025-09-17T07:44:52Z</time>
      </trkpt>
      <trkpt lat="46.0438" lon="4.5383">
        <ele>785.6</ele>
        <time>2025-09-17T07:44:53Z</time>
      </trkpt>
      <trkpt lat="46.04382" lon="4.53832">
        <ele>785.8</ele>
        <time>2025-09-17T07:44:54Z</time>
      </trkpt>
      <trkpt lat="46.04385" lon="4.53836">
        <ele>786.2</ele>
        <time>2025-09-17T07:44:55Z</time>
      </trkpt>
      <trkpt lat="46.04388" lon="4.53839">
        <ele>786.2</ele>
        <time>2025-09-17T07:44:56Z</time>
      </trkpt>
      <trkpt lat="46.0439" lon="4.5384">
        <ele>786.6</ele>
        <time>2025-09-17T07:44:57Z</time>
      </trkpt>
      <trkpt lat="46.04393" lon="4.53844">
        <ele>786.8</ele>
        <time>2025-09-17T07:44:58Z</time>
      </trkpt>
      <trkpt lat="46.04394" lon="4.53846">
        <ele>787.2</ele>
        <time>2025-09-17T07:44:59Z</time>
      </trkpt>
      <trkpt lat="46.04395" lon="4.53846">
        <ele>787.4</ele>
        <time>2025-09-17T07:45:00Z</time>
      </trkpt>
      <trkpt lat="46.04396" lon="4.5385">
        <ele>787.8</ele>
        <time>2025-09-17T07:45:01Z</time>
      </trkpt>
      <trkpt lat="46.04399" lon="4.53852">
        <ele>788</ele>
        <time>2025-09-17T07:45:02Z</time>
      </trkpt>
      <trkpt lat="46.04401" lon="4.53854">
        <ele>788.2</ele>
        <time>2025-09-17T07:45:03Z</time>
      </trkpt>
      <trkpt lat="46.04402" lon="4.53856">
        <ele>788.6</ele>
        <time>2025-09-17T07:45:04Z</time>
      </trkpt>
      <trkpt lat="46.04403" lon="4.53858">
        <ele>788.6</ele>
        <time>2025-09-17T07:45:05Z</time>
      </trkpt>
      <trkpt lat="46.04404" lon="4.53859">
        <ele>788.8</ele>
        <time>2025-09-17T07:45:06Z</time>
      </trkpt>
      <trkpt lat="46.04405" lon="4.53859">
        <ele>789.2</ele>
        <time>2025-09-17T07:45:07Z</time>
      </trkpt>
      <trkpt lat="46.04406" lon="4.53861">
        <ele>789.2</ele>
        <time>2025-09-17T07:45:08Z</time>
      </trkpt>
      <trkpt lat="46.04408" lon="4.53863">
        <ele>789.6</ele>
        <time>2025-09-17T07:45:09Z</time>
      </trkpt>
      <trkpt lat="46.04409" lon="4.53865">
        <ele>790</ele>
        <time>2025-09-17T07:45:10Z</time>
      </trkpt>
      <trkpt lat="46.04411" lon="4.53867">
        <ele>790.2</ele>
        <time>2025-09-17T07:45:11Z</time>
      </trkpt>
      <trkpt lat="46.04412" lon="4.53868">
        <ele>790.4</ele>
        <time>2025-09-17T07:45:12Z</time>
      </trkpt>
      <trkpt lat="46.04413" lon="4.53869">
        <ele>790.8</ele>
        <time>2025-09-17T07:45:13Z</time>
      </trkpt>
      <trkpt lat="46.04414" lon="4.53871">
        <ele>791</ele>
        <time>2025-09-17T07:45:14Z</time>
      </trkpt>
      <trkpt lat="46.04415" lon="4.53873">
        <ele>791</ele>
        <time>2025-09-17T07:45:15Z</time>
      </trkpt>
      <trkpt lat="46.04415" lon="4.53875">
        <ele>791.2</ele>
        <time>2025-09-17T07:45:16Z</time>
      </trkpt>
      <trkpt lat="46.04416" lon="4.53876">
        <ele>791.2</ele>
        <time>2025-09-17T07:45:17Z</time>
      </trkpt>
      <trkpt lat="46.04417" lon="4.53878">
        <ele>791.6</ele>
        <time>2025-09-17T07:45:18Z</time>
      </trkpt>
      <trkpt lat="46.04418" lon="4.53879">
        <ele>791.6</ele>
        <time>2025-09-17T07:45:19Z</time>
      </trkpt>
      <trkpt lat="46.04419" lon="4.5388">
        <ele>792</ele>
        <time>2025-09-17T07:45:20Z</time>
      </trkpt>
      <trkpt lat="46.04421" lon="4.53882">
        <ele>792.4</ele>
        <time>2025-09-17T07:45:21Z</time>
      </trkpt>
      <trkpt lat="46.04422" lon="4.53883">
        <ele>792.4</ele>
        <time>2025-09-17T07:45:22Z</time>
      </trkpt>
      <trkpt lat="46.04423" lon="4.53883">
        <ele>792.6</ele>
        <time>2025-09-17T07:45:23Z</time>
      </trkpt>
      <trkpt lat="46.04424" lon="4.53884">
        <ele>792.8</ele>
        <time>2025-09-17T07:45:24Z</time>
      </trkpt>
      <trkpt lat="46.04425" lon="4.53885">
        <ele>792.8</ele>
        <time>2025-09-17T07:45:25Z</time>
      </trkpt>
      <trkpt lat="46.04426" lon="4.53886">
        <ele>793</ele>
        <time>2025-09-17T07:45:26Z</time>
      </trkpt>
      <trkpt lat="46.04428" lon="4.53887">
        <ele>793.2</ele>
        <time>2025-09-17T07:45:27Z</time>
      </trkpt>
      <trkpt lat="46.04429" lon="4.53888">
        <ele>793.2</ele>
        <time>2025-09-17T07:45:28Z</time>
      </trkpt>
      <trkpt lat="46.0443" lon="4.53889">
        <ele>793.6</ele>
        <time>2025-09-17T07:45:29Z</time>
      </trkpt>
      <trkpt lat="46.04432" lon="4.5389">
        <ele>793.6</ele>
        <time>2025-09-17T07:45:30Z</time>
      </trkpt>
      <trkpt lat="46.04433" lon="4.53891">
        <ele>793.8</ele>
        <time>2025-09-17T07:45:31Z</time>
      </trkpt>
      <trkpt lat="46.04434" lon="4.53893">
        <ele>794</ele>
        <time>2025-09-17T07:45:32Z</time>
      </trkpt>
      <trkpt lat="46.04436" lon="4.53894">
        <ele>794</ele>
        <time>2025-09-17T07:45:33Z</time>
      </trkpt>
      <trkpt lat="46.04437" lon="4.53895">
        <ele>794</ele>
        <time>2025-09-17T07:45:34Z</time>
      </trkpt>
      <trkpt lat="46.04437" lon="4.53896">
        <ele>794.4</ele>
        <time>2025-09-17T07:45:35Z</time>
      </trkpt>
      <trkpt lat="46.04437" lon="4.53898">
        <ele>794.6</ele>
        <time>2025-09-17T07:45:36Z</time>
      </trkpt>
      <trkpt lat="46.04437" lon="4.539">
        <ele>794.6</ele>
        <time>2025-09-17T07:45:37Z</time>
      </trkpt>
      <trkpt lat="46.04438" lon="4.53901">
        <ele>795</ele>
        <time>2025-09-17T07:45:38Z</time>
      </trkpt>
      <trkpt lat="46.04438" lon="4.53902">
        <ele>795</ele>
        <time>2025-09-17T07:45:39Z</time>
      </trkpt>
      <trkpt lat="46.04439" lon="4.53904">
        <ele>795.4</ele>
        <time>2025-09-17T07:45:40Z</time>
      </trkpt>
      <trkpt lat="46.0444" lon="4.53905">
        <ele>795.6</ele>
        <time>2025-09-17T07:45:41Z</time>
      </trkpt>
      <trkpt lat="46.04441" lon="4.53907">
        <ele>796</ele>
        <time>2025-09-17T07:45:42Z</time>
      </trkpt>
      <trkpt lat="46.04443" lon="4.53908">
        <ele>796</ele>
        <time>2025-09-17T07:45:43Z</time>
      </trkpt>
      <trkpt lat="46.04444" lon="4.53909">
        <ele>796.2</ele>
        <time>2025-09-17T07:45:44Z</time>
      </trkpt>
      <trkpt lat="46.04444" lon="4.5391">
        <ele>796.6</ele>
        <time>2025-09-17T07:45:45Z</time>
      </trkpt>
      <trkpt lat="46.04445" lon="4.53911">
        <ele>796.6</ele>
        <time>2025-09-17T07:45:46Z</time>
      </trkpt>
      <trkpt lat="46.04445" lon="4.53911">
        <ele>796.8</ele>
        <time>2025-09-17T07:45:47Z</time>
      </trkpt>
      <trkpt lat="46.04446" lon="4.53912">
        <ele>797</ele>
        <time>2025-09-17T07:45:48Z</time>
      </trkpt>
      <trkpt lat="46.04447" lon="4.53914">
        <ele>797</ele>
        <time>2025-09-17T07:45:49Z</time>
      </trkpt>
      <trkpt lat="46.04448" lon="4.53915">
        <ele>797.4</ele>
        <time>2025-09-17T07:45:50Z</time>
      </trkpt>
      <trkpt lat="46.04449" lon="4.53916">
        <ele>797.4</ele>
        <time>2025-09-17T07:45:51Z</time>
      </trkpt>
      <trkpt lat="46.0445" lon="4.53918">
        <ele>797.6</ele>
        <time>2025-09-17T07:45:52Z</time>
      </trkpt>
      <trkpt lat="46.04451" lon="4.53919">
        <ele>797.6</ele>
        <time>2025-09-17T07:45:53Z</time>
      </trkpt>
      <trkpt lat="46.04452" lon="4.53921">
        <ele>798</ele>
        <time>2025-09-17T07:45:54Z</time>
      </trkpt>
      <trkpt lat="46.04453" lon="4.53922">
        <ele>798</ele>
        <time>2025-09-17T07:45:55Z</time>
      </trkpt>
      <trkpt lat="46.04454" lon="4.53923">
        <ele>798.2</ele>
        <time>2025-09-17T07:45:56Z</time>
      </trkpt>
      <trkpt lat="46.04454" lon="4.53925">
        <ele>798.2</ele>
        <time>2025-09-17T07:45:57Z</time>
      </trkpt>
      <trkpt lat="46.04455" lon="4.53926">
        <ele>798.2</ele>
        <time>2025-09-17T07:45:58Z</time>
      </trkpt>
      <trkpt lat="46.04455" lon="4.53927">
        <ele>798.6</ele>
        <time>2025-09-17T07:45:59Z</time>
      </trkpt>
      <trkpt lat="46.04456" lon="4.53928">
        <ele>798.8</ele>
        <time>2025-09-17T07:46:00Z</time>
      </trkpt>
      <trkpt lat="46.04457" lon="4.53929">
        <ele>798.8</ele>
        <time>2025-09-17T07:46:01Z</time>
      </trkpt>
      <trkpt lat="46.04458" lon="4.5393">
        <ele>799.2</ele>
        <time>2025-09-17T07:46:02Z</time>
      </trkpt>
      <trkpt lat="46.04459" lon="4.53931">
        <ele>799.2</ele>
        <time>2025-09-17T07:46:03Z</time>
      </trkpt>
      <trkpt lat="46.0446" lon="4.53932">
        <ele>799.4</ele>
        <time>2025-09-17T07:46:04Z</time>
      </trkpt>
      <trkpt lat="46.04462" lon="4.53934">
        <ele>799.8</ele>
        <time>2025-09-17T07:46:05Z</time>
      </trkpt>
      <trkpt lat="46.04463" lon="4.53935">
        <ele>799.8</ele>
        <time>2025-09-17T07:46:06Z</time>
      </trkpt>
      <trkpt lat="46.04464" lon="4.53937">
        <ele>800</ele>
        <time>2025-09-17T07:46:07Z</time>
      </trkpt>
      <trkpt lat="46.04465" lon="4.53938">
        <ele>800</ele>
        <time>2025-09-17T07:46:08Z</time>
      </trkpt>
      <trkpt lat="46.04466" lon="4.53939">
        <ele>800.4</ele>
        <time>2025-09-17T07:46:09Z</time>
      </trkpt>
      <trkpt lat="46.04467" lon="4.5394">
        <ele>800.8</ele>
        <time>2025-09-17T07:46:10Z</time>
      </trkpt>
      <trkpt lat="46.04468" lon="4.5394">
        <ele>800.8</ele>
        <time>2025-09-17T07:46:11Z</time>
      </trkpt>
      <trkpt lat="46.04469" lon="4.53941">
        <ele>801</ele>
        <time>2025-09-17T07:46:12Z</time>
      </trkpt>
      <trkpt lat="46.0447" lon="4.53943">
        <ele>801</ele>
        <time>2025-09-17T07:46:13Z</time>
      </trkpt>
      <trkpt lat="46.04472" lon="4.53944">
        <ele>801</ele>
        <time>2025-09-17T07:46:14Z</time>
      </trkpt>
      <trkpt lat="46.04473" lon="4.53945">
        <ele>801</ele>
        <time>2025-09-17T07:46:15Z</time>
      </trkpt>
      <trkpt lat="46.04475" lon="4.53947">
        <ele>801</ele>
        <time>2025-09-17T07:46:16Z</time>
      </trkpt>
      <trkpt lat="46.04476" lon="4.53948">
        <ele>801</ele>
        <time>2025-09-17T07:46:17Z</time>
      </trkpt>
      <trkpt lat="46.04478" lon="4.5395">
        <ele>801.2</ele>
        <time>2025-09-17T07:46:18Z</time>
      </trkpt>
      <trkpt lat="46.04479" lon="4.53951">
        <ele>801.2</ele>
        <time>2025-09-17T07:46:19Z</time>
      </trkpt>
      <trkpt lat="46.0448" lon="4.53953">
        <ele>801.4</ele>
        <time>2025-09-17T07:46:20Z</time>
      </trkpt>
      <trkpt lat="46.04481" lon="4.53954">
        <ele>801.4</ele>
        <time>2025-09-17T07:46:21Z</time>
      </trkpt>
      <trkpt lat="46.04482" lon="4.53956">
        <ele>801.4</ele>
        <time>2025-09-17T07:46:22Z</time>
      </trkpt>
      <trkpt lat="46.04484" lon="4.53957">
        <ele>801.6</ele>
        <time>2025-09-17T07:46:23Z</time>
      </trkpt>
      <trkpt lat="46.04485" lon="4.53959">
        <ele>801.6</ele>
        <time>2025-09-17T07:46:24Z</time>
      </trkpt>
      <trkpt lat="46.04486" lon="4.5396">
        <ele>801.6</ele>
        <time>2025-09-17T07:46:25Z</time>
      </trkpt>
      <trkpt lat="46.04487" lon="4.53962">
        <ele>801.6</ele>
        <time>2025-09-17T07:46:26Z</time>
      </trkpt>
      <trkpt lat="46.04488" lon="4.53963">
        <ele>802</ele>
        <time>2025-09-17T07:46:27Z</time>
      </trkpt>
      <trkpt lat="46.04488" lon="4.53965">
        <ele>802</ele>
        <time>2025-09-17T07:46:28Z</time>
      </trkpt>
      <trkpt lat="46.04488" lon="4.53967">
        <ele>802</ele>
        <time>2025-09-17T07:46:29Z</time>
      </trkpt>
      <trkpt lat="46.04488" lon="4.53968">
        <ele>802</ele>
        <time>2025-09-17T07:46:30Z</time>
      </trkpt>
      <trkpt lat="46.04488" lon="4.53968">
        <ele>802.2</ele>
        <time>2025-09-17T07:46:31Z</time>
      </trkpt>
      <trkpt lat="46.0449" lon="4.5397">
        <ele>802.4</ele>
        <time>2025-09-17T07:46:54Z</time>
      </trkpt>
      <trkpt lat="46.04492" lon="4.53971">
        <ele>802.2</ele>
        <time>2025-09-17T07:46:55Z</time>
      </trkpt>
      <trkpt lat="46.04494" lon="4.53971">
        <ele>802.2</ele>
        <time>2025-09-17T07:46:56Z</time>
      </trkpt>
      <trkpt lat="46.04496" lon="4.53971">
        <ele>802.2</ele>
        <time>2025-09-17T07:46:57Z</time>
      </trkpt>
      <trkpt lat="46.04499" lon="4.5397">
        <ele>802.4</ele>
        <time>2025-09-17T07:46:58Z</time>
      </trkpt>
      <trkpt lat="46.045" lon="4.53969">
        <ele>802.4</ele>
        <time>2025-09-17T07:46:59Z</time>
      </trkpt>
      <trkpt lat="46.04502" lon="4.53967">
        <ele>802.4</ele>
        <time>2025-09-17T07:47:00Z</time>
      </trkpt>
      <trkpt lat="46.04504" lon="4.53965">
        <ele>802.6</ele>
        <time>2025-09-17T07:47:01Z</time>
      </trkpt>
      <trkpt lat="46.04506" lon="4.53964">
        <ele>802.6</ele>
        <time>2025-09-17T07:47:02Z</time>
      </trkpt>
      <trkpt lat="46.04508" lon="4.53963">
        <ele>802.8</ele>
        <time>2025-09-17T07:47:03Z</time>
      </trkpt>
      <trkpt lat="46.04509" lon="4.53962">
        <ele>803.2</ele>
        <time>2025-09-17T07:47:04Z</time>
      </trkpt>
      <trkpt lat="46.04511" lon="4.53962">
        <ele>803.6</ele>
        <time>2025-09-17T07:47:05Z</time>
      </trkpt>
      <trkpt lat="46.04513" lon="4.53961">
        <ele>803.6</ele>
        <time>2025-09-17T07:47:06Z</time>
      </trkpt>
      <trkpt lat="46.04515" lon="4.5396">
        <ele>803.6</ele>
        <time>2025-09-17T07:47:07Z</time>
      </trkpt>
      <trkpt lat="46.04516" lon="4.5396">
        <ele>803.2</ele>
        <time>2025-09-17T07:47:08Z</time>
      </trkpt>
      <trkpt lat="46.04518" lon="4.53959">
        <ele>803.2</ele>
        <time>2025-09-17T07:47:09Z</time>
      </trkpt>
      <trkpt lat="46.04519" lon="4.53958">
        <ele>803.2</ele>
        <time>2025-09-17T07:47:10Z</time>
      </trkpt>
      <trkpt lat="46.04521" lon="4.53957">
        <ele>803.4</ele>
        <time>2025-09-17T07:47:11Z</time>
      </trkpt>
      <trkpt lat="46.04523" lon="4.53956">
        <ele>803.8</ele>
        <time>2025-09-17T07:47:12Z</time>
      </trkpt>
      <trkpt lat="46.04525" lon="4.53955">
        <ele>803.8</ele>
        <time>2025-09-17T07:47:13Z</time>
      </trkpt>
      <trkpt lat="46.04527" lon="4.53954">
        <ele>804.2</ele>
        <time>2025-09-17T07:47:14Z</time>
      </trkpt>
      <trkpt lat="46.04529" lon="4.53953">
        <ele>804.2</ele>
        <time>2025-09-17T07:47:15Z</time>
      </trkpt>
      <trkpt lat="46.04531" lon="4.53951">
        <ele>804.2</ele>
        <time>2025-09-17T07:47:16Z</time>
      </trkpt>
      <trkpt lat="46.04533" lon="4.5395">
        <ele>804.6</ele>
        <time>2025-09-17T07:47:17Z</time>
      </trkpt>
      <trkpt lat="46.04535" lon="4.53948">
        <ele>804.6</ele>
        <time>2025-09-17T07:47:18Z</time>
      </trkpt>
      <trkpt lat="46.04537" lon="4.53946">
        <ele>804.6</ele>
        <time>2025-09-17T07:47:19Z</time>
      </trkpt>
      <trkpt lat="46.0454" lon="4.53944">
        <ele>805</ele>
        <time>2025-09-17T07:47:20Z</time>
      </trkpt>
      <trkpt lat="46.04544" lon="4.53941">
        <ele>805</ele>
        <time>2025-09-17T07:47:21Z</time>
      </trkpt>
      <trkpt lat="46.04546" lon="4.53939">
        <ele>805</ele>
        <time>2025-09-17T07:47:22Z</time>
      </trkpt>
      <trkpt lat="46.04548" lon="4.53937">
        <ele>805</ele>
        <time>2025-09-17T07:47:23Z</time>
      </trkpt>
      <trkpt lat="46.0455" lon="4.53935">
        <ele>805.2</ele>
        <time>2025-09-17T07:47:24Z</time>
      </trkpt>
      <trkpt lat="46.04552" lon="4.53933">
        <ele>805.2</ele>
        <time>2025-09-17T07:47:25Z</time>
      </trkpt>
      <trkpt lat="46.04555" lon="4.53931">
        <ele>805.4</ele>
        <time>2025-09-17T07:47:26Z</time>
      </trkpt>
      <trkpt lat="46.04558" lon="4.5393">
        <ele>805.4</ele>
        <time>2025-09-17T07:47:27Z</time>
      </trkpt>
      <trkpt lat="46.0456" lon="4.53928">
        <ele>805.8</ele>
        <time>2025-09-17T07:47:28Z</time>
      </trkpt>
      <trkpt lat="46.04563" lon="4.53927">
        <ele>805.8</ele>
        <time>2025-09-17T07:47:29Z</time>
      </trkpt>
      <trkpt lat="46.04563" lon="4.53927">
        <ele>805.8</ele>
        <time>2025-09-17T07:47:30Z</time>
      </trkpt>
      <trkpt lat="46.04563" lon="4.53927">
        <ele>805.8</ele>
        <time>2025-09-17T07:47:31Z</time>
      </trkpt>
      <trkpt lat="46.04563" lon="4.53927">
        <ele>805.8</ele>
        <time>2025-09-17T07:47:32Z</time>
      </trkpt>
      <trkpt lat="46.04577" lon="4.53921">
        <ele>805.2</ele>
        <time>2025-09-17T07:47:34Z</time>
      </trkpt>
      <trkpt lat="46.04581" lon="4.5392">
        <ele>805.8</ele>
        <time>2025-09-17T07:47:35Z</time>
      </trkpt>
      <trkpt lat="46.04586" lon="4.53918">
        <ele>805.2</ele>
        <time>2025-09-17T07:47:36Z</time>
      </trkpt>
      <trkpt lat="46.04591" lon="4.53916">
        <ele>804.8</ele>
        <time>2025-09-17T07:47:37Z</time>
      </trkpt>
      <trkpt lat="46.04597" lon="4.53913">
        <ele>804.4</ele>
        <time>2025-09-17T07:47:38Z</time>
      </trkpt>
      <trkpt lat="46.04602" lon="4.5391">
        <ele>804.2</ele>
        <time>2025-09-17T07:47:39Z</time>
      </trkpt>
      <trkpt lat="46.04608" lon="4.53908">
        <ele>803</ele>
        <time>2025-09-17T07:47:40Z</time>
      </trkpt>
      <trkpt lat="46.04613" lon="4.53903">
        <ele>803</ele>
        <time>2025-09-17T07:47:41Z</time>
      </trkpt>
      <trkpt lat="46.04618" lon="4.53899">
        <ele>802.4</ele>
        <time>2025-09-17T07:47:42Z</time>
      </trkpt>
      <trkpt lat="46.04625" lon="4.53894">
        <ele>801.6</ele>
        <time>2025-09-17T07:47:43Z</time>
      </trkpt>
      <trkpt lat="46.0463" lon="4.5389">
        <ele>801.4</ele>
        <time>2025-09-17T07:47:44Z</time>
      </trkpt>
      <trkpt lat="46.04636" lon="4.53884">
        <ele>800.2</ele>
        <time>2025-09-17T07:47:45Z</time>
      </trkpt>
      <trkpt lat="46.04642" lon="4.53878">
        <ele>800.2</ele>
        <time>2025-09-17T07:47:46Z</time>
      </trkpt>
      <trkpt lat="46.04649" lon="4.53872">
        <ele>800.2</ele>
        <time>2025-09-17T07:47:47Z</time>
      </trkpt>
      <trkpt lat="46.04656" lon="4.53868">
        <ele>799</ele>
        <time>2025-09-17T07:47:48Z</time>
      </trkpt>
      <trkpt lat="46.04663" lon="4.53863">
        <ele>798.4</ele>
        <time>2025-09-17T07:47:49Z</time>
      </trkpt>
      <trkpt lat="46.04669" lon="4.5386">
        <ele>798</ele>
        <time>2025-09-17T07:47:50Z</time>
      </trkpt>
      <trkpt lat="46.04675" lon="4.53855">
        <ele>797.6</ele>
        <time>2025-09-17T07:47:51Z</time>
      </trkpt>
      <trkpt lat="46.04678" lon="4.53849">
        <ele>797.6</ele>
        <time>2025-09-17T07:47:52Z</time>
      </trkpt>
      <trkpt lat="46.04682" lon="4.53843">
        <ele>797.4</ele>
        <time>2025-09-17T07:47:53Z</time>
      </trkpt>
      <trkpt lat="46.04686" lon="4.53837">
        <ele>797.4</ele>
        <time>2025-09-17T07:47:54Z</time>
      </trkpt>
      <trkpt lat="46.04691" lon="4.53833">
        <ele>797.4</ele>
        <time>2025-09-17T07:47:55Z</time>
      </trkpt>
      <trkpt lat="46.04695" lon="4.53828">
        <ele>797.2</ele>
        <time>2025-09-17T07:47:56Z</time>
      </trkpt>
      <trkpt lat="46.04699" lon="4.53824">
        <ele>797.2</ele>
        <time>2025-09-17T07:47:57Z</time>
      </trkpt>
      <trkpt lat="46.04702" lon="4.53821">
        <ele>798.4</ele>
        <time>2025-09-17T07:47:58Z</time>
      </trkpt>
      <trkpt lat="46.04706" lon="4.53817">
        <ele>798.6</ele>
        <time>2025-09-17T07:47:59Z</time>
      </trkpt>
      <trkpt lat="46.04709" lon="4.53813">
        <ele>798.6</ele>
        <time>2025-09-17T07:48:00Z</time>
      </trkpt>
      <trkpt lat="46.04711" lon="4.53811">
        <ele>799</ele>
        <time>2025-09-17T07:48:01Z</time>
      </trkpt>
      <trkpt lat="46.04714" lon="4.53807">
        <ele>799.4</ele>
        <time>2025-09-17T07:48:02Z</time>
      </trkpt>
      <trkpt lat="46.04716" lon="4.53803">
        <ele>799</ele>
        <time>2025-09-17T07:48:03Z</time>
      </trkpt>
      <trkpt lat="46.0472" lon="4.53799">
        <ele>799</ele>
        <time>2025-09-17T07:48:04Z</time>
      </trkpt>
      <trkpt lat="46.04724" lon="4.53796">
        <ele>798.6</ele>
        <time>2025-09-17T07:48:05Z</time>
      </trkpt>
      <trkpt lat="46.04726" lon="4.53792">
        <ele>798.2</ele>
        <time>2025-09-17T07:48:06Z</time>
      </trkpt>
      <trkpt lat="46.04729" lon="4.53789">
        <ele>798.8</ele>
        <time>2025-09-17T07:48:07Z</time>
      </trkpt>
      <trkpt lat="46.04732" lon="4.53786">
        <ele>799.2</ele>
        <time>2025-09-17T07:48:08Z</time>
      </trkpt>
      <trkpt lat="46.04734" lon="4.53781">
        <ele>799.2</ele>
        <time>2025-09-17T07:48:09Z</time>
      </trkpt>
      <trkpt lat="46.04737" lon="4.53777">
        <ele>799.2</ele>
        <time>2025-09-17T07:48:10Z</time>
      </trkpt>
      <trkpt lat="46.0474" lon="4.53773">
        <ele>799.4</ele>
        <time>2025-09-17T07:48:11Z</time>
      </trkpt>
      <trkpt lat="46.04743" lon="4.53768">
        <ele>799.4</ele>
        <time>2025-09-17T07:48:12Z</time>
      </trkpt>
      <trkpt lat="46.04745" lon="4.53763">
        <ele>799.4</ele>
        <time>2025-09-17T07:48:13Z</time>
      </trkpt>
      <trkpt lat="46.04748" lon="4.53758">
        <ele>799.4</ele>
        <time>2025-09-17T07:48:14Z</time>
      </trkpt>
      <trkpt lat="46.04751" lon="4.53753">
        <ele>799.4</ele>
        <time>2025-09-17T07:48:15Z</time>
      </trkpt>
      <trkpt lat="46.04752" lon="4.53749">
        <ele>799.8</ele>
        <time>2025-09-17T07:48:16Z</time>
      </trkpt>
      <trkpt lat="46.04754" lon="4.53744">
        <ele>799.4</ele>
        <time>2025-09-17T07:48:17Z</time>
      </trkpt>
      <trkpt lat="46.04756" lon="4.5374">
        <ele>799.4</ele>
        <time>2025-09-17T07:48:18Z</time>
      </trkpt>
      <trkpt lat="46.0476" lon="4.53733">
        <ele>799</ele>
        <time>2025-09-17T07:48:19Z</time>
      </trkpt>
      <trkpt lat="46.04763" lon="4.53727">
        <ele>798.4</ele>
        <time>2025-09-17T07:48:20Z</time>
      </trkpt>
      <trkpt lat="46.04767" lon="4.53721">
        <ele>798.2</ele>
        <time>2025-09-17T07:48:21Z</time>
      </trkpt>
      <trkpt lat="46.04771" lon="4.53715">
        <ele>798.2</ele>
        <time>2025-09-17T07:48:22Z</time>
      </trkpt>
      <trkpt lat="46.04776" lon="4.53707">
        <ele>798.2</ele>
        <time>2025-09-17T07:48:23Z</time>
      </trkpt>
      <trkpt lat="46.04781" lon="4.537">
        <ele>798</ele>
        <time>2025-09-17T07:48:24Z</time>
      </trkpt>
      <trkpt lat="46.04785" lon="4.53692">
        <ele>796.8</ele>
        <time>2025-09-17T07:48:25Z</time>
      </trkpt>
      <trkpt lat="46.04791" lon="4.53684">
        <ele>796.6</ele>
        <time>2025-09-17T07:48:26Z</time>
      </trkpt>
      <trkpt lat="46.04796" lon="4.53676">
        <ele>795.6</ele>
        <time>2025-09-17T07:48:27Z</time>
      </trkpt>
      <trkpt lat="46.04799" lon="4.53668">
        <ele>795.2</ele>
        <time>2025-09-17T07:48:28Z</time>
      </trkpt>
      <trkpt lat="46.04801" lon="4.53661">
        <ele>794.2</ele>
        <time>2025-09-17T07:48:29Z</time>
      </trkpt>
      <trkpt lat="46.04803" lon="4.53656">
        <ele>794</ele>
        <time>2025-09-17T07:48:30Z</time>
      </trkpt>
      <trkpt lat="46.04805" lon="4.53652">
        <ele>794.6</ele>
        <time>2025-09-17T07:48:31Z</time>
      </trkpt>
      <trkpt lat="46.04807" lon="4.5365">
        <ele>794.6</ele>
        <time>2025-09-17T07:48:32Z</time>
      </trkpt>
      <trkpt lat="46.0481" lon="4.53649">
        <ele>794.8</ele>
        <time>2025-09-17T07:48:33Z</time>
      </trkpt>
      <trkpt lat="46.04813" lon="4.53649">
        <ele>794.8</ele>
        <time>2025-09-17T07:48:34Z</time>
      </trkpt>
      <trkpt lat="46.04814" lon="4.53649">
        <ele>795.2</ele>
        <time>2025-09-17T07:48:35Z</time>
      </trkpt>
      <trkpt lat="46.04813" lon="4.53648">
        <ele>795.4</ele>
        <time>2025-09-17T07:48:36Z</time>
      </trkpt>
      <trkpt lat="46.04813" lon="4.53648">
        <ele>795.4</ele>
        <time>2025-09-17T07:48:37Z</time>
      </trkpt>
      <trkpt lat="46.04814" lon="4.53648">
        <ele>795.6</ele>
        <time>2025-09-17T07:48:38Z</time>
      </trkpt>
      <trkpt lat="46.04811" lon="4.53645">
        <ele>795.8</ele>
        <time>2025-09-17T07:49:13Z</time>
      </trkpt>
      <trkpt lat="46.04811" lon="4.53643">
        <ele>795.8</ele>
        <time>2025-09-17T07:49:14Z</time>
      </trkpt>
      <trkpt lat="46.04811" lon="4.53639">
        <ele>795.8</ele>
        <time>2025-09-17T07:49:15Z</time>
      </trkpt>
      <trkpt lat="46.04812" lon="4.53635">
        <ele>795.8</ele>
        <time>2025-09-17T07:49:16Z</time>
      </trkpt>
      <trkpt lat="46.04814" lon="4.53632">
        <ele>795.8</ele>
        <time>2025-09-17T07:49:17Z</time>
      </trkpt>
      <trkpt lat="46.04817" lon="4.5363">
        <ele>795.2</ele>
        <time>2025-09-17T07:49:18Z</time>
      </trkpt>
      <trkpt lat="46.0482" lon="4.53628">
        <ele>795.2</ele>
        <time>2025-09-17T07:49:19Z</time>
      </trkpt>
      <trkpt lat="46.04823" lon="4.53628">
        <ele>795.6</ele>
        <time>2025-09-17T07:49:20Z</time>
      </trkpt>
      <trkpt lat="46.04825" lon="4.53626">
        <ele>795.6</ele>
        <time>2025-09-17T07:49:21Z</time>
      </trkpt>
      <trkpt lat="46.04826" lon="4.53624">
        <ele>796</ele>
        <time>2025-09-17T07:49:22Z</time>
      </trkpt>
      <trkpt lat="46.04828" lon="4.53622">
        <ele>796.4</ele>
        <time>2025-09-17T07:49:23Z</time>
      </trkpt>
      <trkpt lat="46.04829" lon="4.5362">
        <ele>796.4</ele>
        <time>2025-09-17T07:49:24Z</time>
      </trkpt>
      <trkpt lat="46.0483" lon="4.53618">
        <ele>796.6</ele>
        <time>2025-09-17T07:49:25Z</time>
      </trkpt>
      <trkpt lat="46.04832" lon="4.53617">
        <ele>796.6</ele>
        <time>2025-09-17T07:49:26Z</time>
      </trkpt>
      <trkpt lat="46.04834" lon="4.53616">
        <ele>796.6</ele>
        <time>2025-09-17T07:49:27Z</time>
      </trkpt>
      <trkpt lat="46.04836" lon="4.53616">
        <ele>797</ele>
        <time>2025-09-17T07:49:28Z</time>
      </trkpt>
      <trkpt lat="46.04838" lon="4.53615">
        <ele>797.6</ele>
        <time>2025-09-17T07:49:29Z</time>
      </trkpt>
      <trkpt lat="46.0484" lon="4.53615">
        <ele>797.6</ele>
        <time>2025-09-17T07:49:30Z</time>
      </trkpt>
      <trkpt lat="46.04842" lon="4.53615">
        <ele>797.8</ele>
        <time>2025-09-17T07:49:31Z</time>
      </trkpt>
      <trkpt lat="46.04844" lon="4.53616">
        <ele>797.8</ele>
        <time>2025-09-17T07:49:32Z</time>
      </trkpt>
      <trkpt lat="46.04846" lon="4.53617">
        <ele>798.2</ele>
        <time>2025-09-17T07:49:33Z</time>
      </trkpt>
      <trkpt lat="46.04847" lon="4.53618">
        <ele>798.8</ele>
        <time>2025-09-17T07:49:34Z</time>
      </trkpt>
      <trkpt lat="46.04848" lon="4.53619">
        <ele>799.2</ele>
        <time>2025-09-17T07:49:35Z</time>
      </trkpt>
      <trkpt lat="46.04849" lon="4.5362">
        <ele>799.4</ele>
        <time>2025-09-17T07:49:36Z</time>
      </trkpt>
      <trkpt lat="46.04851" lon="4.5362">
        <ele>799.4</ele>
        <time>2025-09-17T07:49:37Z</time>
      </trkpt>
      <trkpt lat="46.04852" lon="4.53621">
        <ele>799.6</ele>
        <time>2025-09-17T07:49:38Z</time>
      </trkpt>
      <trkpt lat="46.04853" lon="4.53621">
        <ele>800</ele>
        <time>2025-09-17T07:49:39Z</time>
      </trkpt>
      <trkpt lat="46.04855" lon="4.53621">
        <ele>800</ele>
        <time>2025-09-17T07:49:40Z</time>
      </trkpt>
      <trkpt lat="46.04857" lon="4.53621">
        <ele>800.2</ele>
        <time>2025-09-17T07:49:41Z</time>
      </trkpt>
      <trkpt lat="46.04857" lon="4.5362">
        <ele>800.2</ele>
        <time>2025-09-17T07:49:42Z</time>
      </trkpt>
      <trkpt lat="46.04857" lon="4.5362">
        <ele>800.6</ele>
        <time>2025-09-17T07:49:43Z</time>
      </trkpt>
      <trkpt lat="46.04856" lon="4.53618">
        <ele>800.6</ele>
        <time>2025-09-17T07:49:46Z</time>
      </trkpt>
      <trkpt lat="46.04856" lon="4.53617">
        <ele>800.6</ele>
        <time>2025-09-17T07:49:47Z</time>
      </trkpt>
      <trkpt lat="46.04855" lon="4.53617">
        <ele>800.8</ele>
        <time>2025-09-17T07:49:48Z</time>
      </trkpt>
      <trkpt lat="46.04855" lon="4.53617">
        <ele>800.8</ele>
        <time>2025-09-17T07:49:49Z</time>
      </trkpt>
      <trkpt lat="46.04855" lon="4.5362">
        <ele>801</ele>
        <time>2025-09-17T07:52:09Z</time>
      </trkpt>
      <trkpt lat="46.04855" lon="4.53621">
        <ele>801</ele>
        <time>2025-09-17T07:52:10Z</time>
      </trkpt>
      <trkpt lat="46.04854" lon="4.53622">
        <ele>801</ele>
        <time>2025-09-17T07:52:11Z</time>
      </trkpt>
      <trkpt lat="46.04854" lon="4.53622">
        <ele>801</ele>
        <time>2025-09-17T07:52:12Z</time>
      </trkpt>
      <trkpt lat="46.04854" lon="4.53623">
        <ele>800.8</ele>
        <time>2025-09-17T07:52:13Z</time>
      </trkpt>
      <trkpt lat="46.04854" lon="4.53623">
        <ele>800.8</ele>
        <time>2025-09-17T07:52:14Z</time>
      </trkpt>
      <trkpt lat="46.04853" lon="4.53623">
        <ele>800.8</ele>
        <time>2025-09-17T07:52:19Z</time>
      </trkpt>
      <trkpt lat="46.04851" lon="4.53623">
        <ele>800.8</ele>
        <time>2025-09-17T07:52:20Z</time>
      </trkpt>
      <trkpt lat="46.0485" lon="4.53623">
        <ele>800.8</ele>
        <time>2025-09-17T07:52:21Z</time>
      </trkpt>
      <trkpt lat="46.04848" lon="4.53622">
        <ele>800.4</ele>
        <time>2025-09-17T07:52:22Z</time>
      </trkpt>
      <trkpt lat="46.04847" lon="4.5362">
        <ele>800</ele>
        <time>2025-09-17T07:52:23Z</time>
      </trkpt>
      <trkpt lat="46.04845" lon="4.53618">
        <ele>800</ele>
        <time>2025-09-17T07:52:24Z</time>
      </trkpt>
      <trkpt lat="46.04844" lon="4.53613">
        <ele>799.8</ele>
        <time>2025-09-17T07:52:25Z</time>
      </trkpt>
      <trkpt lat="46.04844" lon="4.5361">
        <ele>799.6</ele>
        <time>2025-09-17T07:52:26Z</time>
      </trkpt>
      <trkpt lat="46.04844" lon="4.53607">
        <ele>799.4</ele>
        <time>2025-09-17T07:52:27Z</time>
      </trkpt>
      <trkpt lat="46.04845" lon="4.53604">
        <ele>799.4</ele>
        <time>2025-09-17T07:52:28Z</time>
      </trkpt>
      <trkpt lat="46.04846" lon="4.53601">
        <ele>799</ele>
        <time>2025-09-17T07:52:29Z</time>
      </trkpt>
      <trkpt lat="46.04849" lon="4.53597">
        <ele>798.4</ele>
        <time>2025-09-17T07:52:30Z</time>
      </trkpt>
      <trkpt lat="46.04851" lon="4.53591">
        <ele>798.4</ele>
        <time>2025-09-17T07:52:31Z</time>
      </trkpt>
      <trkpt lat="46.04852" lon="4.53585">
        <ele>797.8</ele>
        <time>2025-09-17T07:52:32Z</time>
      </trkpt>
      <trkpt lat="46.04853" lon="4.5358">
        <ele>797.8</ele>
        <time>2025-09-17T07:52:33Z</time>
      </trkpt>
      <trkpt lat="46.04854" lon="4.53574">
        <ele>797.4</ele>
        <time>2025-09-17T07:52:34Z</time>
      </trkpt>
      <trkpt lat="46.04855" lon="4.53569">
        <ele>797</ele>
        <time>2025-09-17T07:52:35Z</time>
      </trkpt>
      <trkpt lat="46.04856" lon="4.53565">
        <ele>797.2</ele>
        <time>2025-09-17T07:52:36Z</time>
      </trkpt>
      <trkpt lat="46.04857" lon="4.5356">
        <ele>797.2</ele>
        <time>2025-09-17T07:52:37Z</time>
      </trkpt>
      <trkpt lat="46.04858" lon="4.53555">
        <ele>797.2</ele>
        <time>2025-09-17T07:52:38Z</time>
      </trkpt>
      <trkpt lat="46.04859" lon="4.5355">
        <ele>797.8</ele>
        <time>2025-09-17T07:52:39Z</time>
      </trkpt>
      <trkpt lat="46.04859" lon="4.53546">
        <ele>797.8</ele>
        <time>2025-09-17T07:52:40Z</time>
      </trkpt>
      <trkpt lat="46.04859" lon="4.53543">
        <ele>797.8</ele>
        <time>2025-09-17T07:52:41Z</time>
      </trkpt>
      <trkpt lat="46.0486" lon="4.53538">
        <ele>797.2</ele>
        <time>2025-09-17T07:52:42Z</time>
      </trkpt>
      <trkpt lat="46.0486" lon="4.53533">
        <ele>797.2</ele>
        <time>2025-09-17T07:52:43Z</time>
      </trkpt>
      <trkpt lat="46.04861" lon="4.53529">
        <ele>797.2</ele>
        <time>2025-09-17T07:52:44Z</time>
      </trkpt>
      <trkpt lat="46.04861" lon="4.53525">
        <ele>797.2</ele>
        <time>2025-09-17T07:52:45Z</time>
      </trkpt>
      <trkpt lat="46.04861" lon="4.53521">
        <ele>797.2</ele>
        <time>2025-09-17T07:52:46Z</time>
      </trkpt>
      <trkpt lat="46.04861" lon="4.53517">
        <ele>797.6</ele>
        <time>2025-09-17T07:52:47Z</time>
      </trkpt>
      <trkpt lat="46.04861" lon="4.53514">
        <ele>797.6</ele>
        <time>2025-09-17T07:52:48Z</time>
      </trkpt>
      <trkpt lat="46.04861" lon="4.5351">
        <ele>797.2</ele>
        <time>2025-09-17T07:52:49Z</time>
      </trkpt>
      <trkpt lat="46.04861" lon="4.53508">
        <ele>796.6</ele>
        <time>2025-09-17T07:52:50Z</time>
      </trkpt>
      <trkpt lat="46.04861" lon="4.53507">
        <ele>796.6</ele>
        <time>2025-09-17T07:52:51Z</time>
      </trkpt>
      <trkpt lat="46.04861" lon="4.53507">
        <ele>797</ele>
        <time>2025-09-17T07:52:52Z</time>
      </trkpt>
      <trkpt lat="46.04861" lon="4.53507">
        <ele>797</ele>
        <time>2025-09-17T07:52:53Z</time>
      </trkpt>
      <trkpt lat="46.0486" lon="4.53507">
        <ele>797</ele>
        <time>2025-09-17T07:52:54Z</time>
      </trkpt>
      <trkpt lat="46.04859" lon="4.53503">
        <ele>797.4</ele>
        <time>2025-09-17T07:53:11Z</time>
      </trkpt>
      <trkpt lat="46.04859" lon="4.53501">
        <ele>797</ele>
        <time>2025-09-17T07:53:12Z</time>
      </trkpt>
      <trkpt lat="46.04859" lon="4.53498">
        <ele>797.4</ele>
        <time>2025-09-17T07:53:13Z</time>
      </trkpt>
      <trkpt lat="46.04859" lon="4.53495">
        <ele>797.4</ele>
        <time>2025-09-17T07:53:14Z</time>
      </trkpt>
      <trkpt lat="46.04859" lon="4.53492">
        <ele>797.8</ele>
        <time>2025-09-17T07:53:15Z</time>
      </trkpt>
      <trkpt lat="46.04859" lon="4.53488">
        <ele>797.8</ele>
        <time>2025-09-17T07:53:16Z</time>
      </trkpt>
      <trkpt lat="46.04859" lon="4.53485">
        <ele>798</ele>
        <time>2025-09-17T07:53:17Z</time>
      </trkpt>
      <trkpt lat="46.04859" lon="4.53483">
        <ele>798</ele>
        <time>2025-09-17T07:53:18Z</time>
      </trkpt>
      <trkpt lat="46.04859" lon="4.53481">
        <ele>798.4</ele>
        <time>2025-09-17T07:53:19Z</time>
      </trkpt>
      <trkpt lat="46.04858" lon="4.53479">
        <ele>798.8</ele>
        <time>2025-09-17T07:53:20Z</time>
      </trkpt>
      <trkpt lat="46.04858" lon="4.53477">
        <ele>798.8</ele>
        <time>2025-09-17T07:53:21Z</time>
      </trkpt>
      <trkpt lat="46.04857" lon="4.53475">
        <ele>798.8</ele>
        <time>2025-09-17T07:53:22Z</time>
      </trkpt>
      <trkpt lat="46.04857" lon="4.53473">
        <ele>799.4</ele>
        <time>2025-09-17T07:53:23Z</time>
      </trkpt>
      <trkpt lat="46.04856" lon="4.53471">
        <ele>799.4</ele>
        <time>2025-09-17T07:53:24Z</time>
      </trkpt>
      <trkpt lat="46.04856" lon="4.53469">
        <ele>799.8</ele>
        <time>2025-09-17T07:53:25Z</time>
      </trkpt>
      <trkpt lat="46.04855" lon="4.53467">
        <ele>800.2</ele>
        <time>2025-09-17T07:53:26Z</time>
      </trkpt>
      <trkpt lat="46.04855" lon="4.53465">
        <ele>800.6</ele>
        <time>2025-09-17T07:53:27Z</time>
      </trkpt>
      <trkpt lat="46.04855" lon="4.53463">
        <ele>800.6</ele>
        <time>2025-09-17T07:53:28Z</time>
      </trkpt>
      <trkpt lat="46.04854" lon="4.53461">
        <ele>801.2</ele>
        <time>2025-09-17T07:53:29Z</time>
      </trkpt>
      <trkpt lat="46.04854" lon="4.53459">
        <ele>801.4</ele>
        <time>2025-09-17T07:53:30Z</time>
      </trkpt>
      <trkpt lat="46.04853" lon="4.53456">
        <ele>801.8</ele>
        <time>2025-09-17T07:53:31Z</time>
      </trkpt>
      <trkpt lat="46.04852" lon="4.53454">
        <ele>802.2</ele>
        <time>2025-09-17T07:53:32Z</time>
      </trkpt>
      <trkpt lat="46.04852" lon="4.53452">
        <ele>802.4</ele>
        <time>2025-09-17T07:53:33Z</time>
      </trkpt>
      <trkpt lat="46.04851" lon="4.53451">
        <ele>802.4</ele>
        <time>2025-09-17T07:53:34Z</time>
      </trkpt>
      <trkpt lat="46.04851" lon="4.53449">
        <ele>802.8</ele>
        <time>2025-09-17T07:53:35Z</time>
      </trkpt>
      <trkpt lat="46.0485" lon="4.53447">
        <ele>803.2</ele>
        <time>2025-09-17T07:53:36Z</time>
      </trkpt>
      <trkpt lat="46.0485" lon="4.53445">
        <ele>803.4</ele>
        <time>2025-09-17T07:53:37Z</time>
      </trkpt>
      <trkpt lat="46.0485" lon="4.53444">
        <ele>803.4</ele>
        <time>2025-09-17T07:53:38Z</time>
      </trkpt>
      <trkpt lat="46.04849" lon="4.53443">
        <ele>803.8</ele>
        <time>2025-09-17T07:53:39Z</time>
      </trkpt>
      <trkpt lat="46.04848" lon="4.53441">
        <ele>804.2</ele>
        <time>2025-09-17T07:53:40Z</time>
      </trkpt>
      <trkpt lat="46.04847" lon="4.53439">
        <ele>804.4</ele>
        <time>2025-09-17T07:53:41Z</time>
      </trkpt>
      <trkpt lat="46.04846" lon="4.53437">
        <ele>804.4</ele>
        <time>2025-09-17T07:53:42Z</time>
      </trkpt>
      <trkpt lat="46.04845" lon="4.53435">
        <ele>804.4</ele>
        <time>2025-09-17T07:53:43Z</time>
      </trkpt>
      <trkpt lat="46.04845" lon="4.53434">
        <ele>804.4</ele>
        <time>2025-09-17T07:53:44Z</time>
      </trkpt>
      <trkpt lat="46.04844" lon="4.53432">
        <ele>805</ele>
        <time>2025-09-17T07:53:45Z</time>
      </trkpt>
      <trkpt lat="46.04843" lon="4.53431">
        <ele>805</ele>
        <time>2025-09-17T07:53:46Z</time>
      </trkpt>
      <trkpt lat="46.04843" lon="4.5343">
        <ele>805.2</ele>
        <time>2025-09-17T07:53:47Z</time>
      </trkpt>
      <trkpt lat="46.04843" lon="4.53429">
        <ele>805.6</ele>
        <time>2025-09-17T07:53:48Z</time>
      </trkpt>
      <trkpt lat="46.04843" lon="4.53427">
        <ele>805.6</ele>
        <time>2025-09-17T07:53:49Z</time>
      </trkpt>
      <trkpt lat="46.04843" lon="4.53426">
        <ele>806</ele>
        <time>2025-09-17T07:53:50Z</time>
      </trkpt>
      <trkpt lat="46.04842" lon="4.53425">
        <ele>806.4</ele>
        <time>2025-09-17T07:53:51Z</time>
      </trkpt>
      <trkpt lat="46.04841" lon="4.53424">
        <ele>806.6</ele>
        <time>2025-09-17T07:53:52Z</time>
      </trkpt>
      <trkpt lat="46.0484" lon="4.53423">
        <ele>806.6</ele>
        <time>2025-09-17T07:53:53Z</time>
      </trkpt>
      <trkpt lat="46.04839" lon="4.53421">
        <ele>807</ele>
        <time>2025-09-17T07:53:54Z</time>
      </trkpt>
      <trkpt lat="46.04838" lon="4.5342">
        <ele>807.2</ele>
        <time>2025-09-17T07:53:55Z</time>
      </trkpt>
      <trkpt lat="46.04837" lon="4.53419">
        <ele>807.6</ele>
        <time>2025-09-17T07:53:56Z</time>
      </trkpt>
      <trkpt lat="46.04836" lon="4.53418">
        <ele>807.6</ele>
        <time>2025-09-17T07:53:57Z</time>
      </trkpt>
      <trkpt lat="46.04835" lon="4.53417">
        <ele>808</ele>
        <time>2025-09-17T07:53:58Z</time>
      </trkpt>
      <trkpt lat="46.04835" lon="4.53416">
        <ele>808.2</ele>
        <time>2025-09-17T07:53:59Z</time>
      </trkpt>
      <trkpt lat="46.04834" lon="4.53415">
        <ele>808.2</ele>
        <time>2025-09-17T07:54:00Z</time>
      </trkpt>
      <trkpt lat="46.04834" lon="4.53413">
        <ele>808.6</ele>
        <time>2025-09-17T07:54:01Z</time>
      </trkpt>
      <trkpt lat="46.04834" lon="4.53413">
        <ele>808.6</ele>
        <time>2025-09-17T07:54:02Z</time>
      </trkpt>
      <trkpt lat="46.04833" lon="4.53412">
        <ele>808.8</ele>
        <time>2025-09-17T07:54:03Z</time>
      </trkpt>
      <trkpt lat="46.04832" lon="4.5341">
        <ele>809.2</ele>
        <time>2025-09-17T07:54:04Z</time>
      </trkpt>
      <trkpt lat="46.04832" lon="4.53409">
        <ele>809.2</ele>
        <time>2025-09-17T07:54:05Z</time>
      </trkpt>
      <trkpt lat="46.04831" lon="4.53407">
        <ele>809.2</ele>
        <time>2025-09-17T07:54:06Z</time>
      </trkpt>
      <trkpt lat="46.0483" lon="4.53405">
        <ele>809.2</ele>
        <time>2025-09-17T07:54:07Z</time>
      </trkpt>
      <trkpt lat="46.04829" lon="4.53404">
        <ele>809.2</ele>
        <time>2025-09-17T07:54:08Z</time>
      </trkpt>
      <trkpt lat="46.04828" lon="4.53402">
        <ele>809.4</ele>
        <time>2025-09-17T07:54:09Z</time>
      </trkpt>
      <trkpt lat="46.04827" lon="4.534">
        <ele>809.4</ele>
        <time>2025-09-17T07:54:10Z</time>
      </trkpt>
      <trkpt lat="46.04825" lon="4.53398">
        <ele>809.8</ele>
        <time>2025-09-17T07:54:11Z</time>
      </trkpt>
      <trkpt lat="46.04824" lon="4.53396">
        <ele>809.8</ele>
        <time>2025-09-17T07:54:12Z</time>
      </trkpt>
      <trkpt lat="46.04823" lon="4.53394">
        <ele>810.2</ele>
        <time>2025-09-17T07:54:13Z</time>
      </trkpt>
      <trkpt lat="46.04821" lon="4.53392">
        <ele>810.2</ele>
        <time>2025-09-17T07:54:14Z</time>
      </trkpt>
      <trkpt lat="46.0482" lon="4.5339">
        <ele>810.4</ele>
        <time>2025-09-17T07:54:15Z</time>
      </trkpt>
      <trkpt lat="46.04819" lon="4.53387">
        <ele>810.4</ele>
        <time>2025-09-17T07:54:16Z</time>
      </trkpt>
      <trkpt lat="46.04818" lon="4.53385">
        <ele>810.4</ele>
        <time>2025-09-17T07:54:17Z</time>
      </trkpt>
      <trkpt lat="46.04816" lon="4.53383">
        <ele>810.8</ele>
        <time>2025-09-17T07:54:18Z</time>
      </trkpt>
      <trkpt lat="46.04815" lon="4.53381">
        <ele>810.8</ele>
        <time>2025-09-17T07:54:19Z</time>
      </trkpt>
      <trkpt lat="46.04814" lon="4.53379">
        <ele>811.2</ele>
        <time>2025-09-17T07:54:20Z</time>
      </trkpt>
      <trkpt lat="46.04812" lon="4.53377">
        <ele>811.6</ele>
        <time>2025-09-17T07:54:21Z</time>
      </trkpt>
      <trkpt lat="46.0481" lon="4.53375">
        <ele>811.6</ele>
        <time>2025-09-17T07:54:22Z</time>
      </trkpt>
      <trkpt lat="46.04809" lon="4.53374">
        <ele>811.8</ele>
        <time>2025-09-17T07:54:23Z</time>
      </trkpt>
      <trkpt lat="46.04808" lon="4.53373">
        <ele>811.8</ele>
        <time>2025-09-17T07:54:24Z</time>
      </trkpt>
      <trkpt lat="46.04806" lon="4.53371">
        <ele>812.2</ele>
        <time>2025-09-17T07:54:25Z</time>
      </trkpt>
      <trkpt lat="46.04804" lon="4.5337">
        <ele>812.2</ele>
        <time>2025-09-17T07:54:26Z</time>
      </trkpt>
      <trkpt lat="46.04803" lon="4.53368">
        <ele>812.2</ele>
        <time>2025-09-17T07:54:27Z</time>
      </trkpt>
      <trkpt lat="46.04802" lon="4.53367">
        <ele>812.2</ele>
        <time>2025-09-17T07:54:28Z</time>
      </trkpt>
      <trkpt lat="46.04801" lon="4.53366">
        <ele>812.6</ele>
        <time>2025-09-17T07:54:29Z</time>
      </trkpt>
      <trkpt lat="46.04799" lon="4.53364">
        <ele>812.6</ele>
        <time>2025-09-17T07:54:30Z</time>
      </trkpt>
      <trkpt lat="46.04798" lon="4.53363">
        <ele>813</ele>
        <time>2025-09-17T07:54:31Z</time>
      </trkpt>
      <trkpt lat="46.04796" lon="4.53362">
        <ele>813</ele>
        <time>2025-09-17T07:54:32Z</time>
      </trkpt>
      <trkpt lat="46.04795" lon="4.5336">
        <ele>813</ele>
        <time>2025-09-17T07:54:33Z</time>
      </trkpt>
      <trkpt lat="46.04793" lon="4.53359">
        <ele>813.4</ele>
        <time>2025-09-17T07:54:34Z</time>
      </trkpt>
      <trkpt lat="46.04792" lon="4.53358">
        <ele>813.4</ele>
        <time>2025-09-17T07:54:35Z</time>
      </trkpt>
      <trkpt lat="46.0479" lon="4.53357">
        <ele>813.6</ele>
        <time>2025-09-17T07:54:36Z</time>
      </trkpt>
      <trkpt lat="46.04788" lon="4.53357">
        <ele>813.6</ele>
        <time>2025-09-17T07:54:37Z</time>
      </trkpt>
      <trkpt lat="46.04787" lon="4.53357">
        <ele>814</ele>
        <time>2025-09-17T07:54:38Z</time>
      </trkpt>
      <trkpt lat="46.04785" lon="4.53356">
        <ele>814</ele>
        <time>2025-09-17T07:54:39Z</time>
      </trkpt>
      <trkpt lat="46.04783" lon="4.53356">
        <ele>814</ele>
        <time>2025-09-17T07:54:40Z</time>
      </trkpt>
      <trkpt lat="46.0478" lon="4.53355">
        <ele>814.2</ele>
        <time>2025-09-17T07:54:41Z</time>
      </trkpt>
      <trkpt lat="46.04779" lon="4.53354">
        <ele>814.2</ele>
        <time>2025-09-17T07:54:42Z</time>
      </trkpt>
      <trkpt lat="46.04777" lon="4.53353">
        <ele>814.2</ele>
        <time>2025-09-17T07:54:43Z</time>
      </trkpt>
      <trkpt lat="46.04775" lon="4.53353">
        <ele>814.2</ele>
        <time>2025-09-17T07:54:44Z</time>
      </trkpt>
      <trkpt lat="46.04773" lon="4.53353">
        <ele>814.2</ele>
        <time>2025-09-17T07:54:45Z</time>
      </trkpt>
      <trkpt lat="46.04771" lon="4.53352">
        <ele>814.6</ele>
        <time>2025-09-17T07:54:46Z</time>
      </trkpt>
      <trkpt lat="46.04769" lon="4.53351">
        <ele>814.8</ele>
        <time>2025-09-17T07:54:47Z</time>
      </trkpt>
      <trkpt lat="46.04768" lon="4.5335">
        <ele>814.8</ele>
        <time>2025-09-17T07:54:48Z</time>
      </trkpt>
      <trkpt lat="46.04766" lon="4.5335">
        <ele>814.8</ele>
        <time>2025-09-17T07:54:49Z</time>
      </trkpt>
      <trkpt lat="46.04764" lon="4.53349">
        <ele>815.2</ele>
        <time>2025-09-17T07:54:50Z</time>
      </trkpt>
      <trkpt lat="46.04763" lon="4.53349">
        <ele>815.6</ele>
        <time>2025-09-17T07:54:51Z</time>
      </trkpt>
      <trkpt lat="46.04761" lon="4.53349">
        <ele>816</ele>
        <time>2025-09-17T07:54:52Z</time>
      </trkpt>
      <trkpt lat="46.04759" lon="4.53348">
        <ele>816</ele>
        <time>2025-09-17T07:54:53Z</time>
      </trkpt>
      <trkpt lat="46.04758" lon="4.53347">
        <ele>816.2</ele>
        <time>2025-09-17T07:54:54Z</time>
      </trkpt>
      <trkpt lat="46.04756" lon="4.53346">
        <ele>816.2</ele>
        <time>2025-09-17T07:54:55Z</time>
      </trkpt>
      <trkpt lat="46.04754" lon="4.53345">
        <ele>816.4</ele>
        <time>2025-09-17T07:54:56Z</time>
      </trkpt>
      <trkpt lat="46.04753" lon="4.53344">
        <ele>816.4</ele>
        <time>2025-09-17T07:54:57Z</time>
      </trkpt>
      <trkpt lat="46.04751" lon="4.53343">
        <ele>817</ele>
        <time>2025-09-17T07:54:58Z</time>
      </trkpt>
      <trkpt lat="46.04749" lon="4.53342">
        <ele>817</ele>
        <time>2025-09-17T07:54:59Z</time>
      </trkpt>
      <trkpt lat="46.04747" lon="4.53341">
        <ele>817.2</ele>
        <time>2025-09-17T07:55:00Z</time>
      </trkpt>
      <trkpt lat="46.04745" lon="4.5334">
        <ele>817.2</ele>
        <time>2025-09-17T07:55:01Z</time>
      </trkpt>
      <trkpt lat="46.04743" lon="4.53338">
        <ele>817.2</ele>
        <time>2025-09-17T07:55:02Z</time>
      </trkpt>
      <trkpt lat="46.04741" lon="4.53336">
        <ele>817.2</ele>
        <time>2025-09-17T07:55:03Z</time>
      </trkpt>
      <trkpt lat="46.04739" lon="4.53333">
        <ele>817.2</ele>
        <time>2025-09-17T07:55:04Z</time>
      </trkpt>
      <trkpt lat="46.04736" lon="4.53331">
        <ele>817.2</ele>
        <time>2025-09-17T07:55:05Z</time>
      </trkpt>
      <trkpt lat="46.04734" lon="4.53328">
        <ele>817.2</ele>
        <time>2025-09-17T07:55:06Z</time>
      </trkpt>
      <trkpt lat="46.04732" lon="4.53325">
        <ele>817.2</ele>
        <time>2025-09-17T07:55:07Z</time>
      </trkpt>
      <trkpt lat="46.04731" lon="4.53323">
        <ele>817.6</ele>
        <time>2025-09-17T07:55:08Z</time>
      </trkpt>
      <trkpt lat="46.0473" lon="4.5332">
        <ele>817.6</ele>
        <time>2025-09-17T07:55:09Z</time>
      </trkpt>
      <trkpt lat="46.04729" lon="4.53317">
        <ele>818</ele>
        <time>2025-09-17T07:55:10Z</time>
      </trkpt>
      <trkpt lat="46.04727" lon="4.53313">
        <ele>818</ele>
        <time>2025-09-17T07:55:11Z</time>
      </trkpt>
      <trkpt lat="46.04726" lon="4.5331">
        <ele>818.2</ele>
        <time>2025-09-17T07:55:12Z</time>
      </trkpt>
      <trkpt lat="46.04724" lon="4.53306">
        <ele>818.2</ele>
        <time>2025-09-17T07:55:13Z</time>
      </trkpt>
      <trkpt lat="46.04723" lon="4.53303">
        <ele>818.2</ele>
        <time>2025-09-17T07:55:14Z</time>
      </trkpt>
      <trkpt lat="46.04722" lon="4.53299">
        <ele>818.2</ele>
        <time>2025-09-17T07:55:15Z</time>
      </trkpt>
      <trkpt lat="46.04721" lon="4.53296">
        <ele>818.2</ele>
        <time>2025-09-17T07:55:16Z</time>
      </trkpt>
      <trkpt lat="46.0472" lon="4.53292">
        <ele>818.2</ele>
        <time>2025-09-17T07:55:17Z</time>
      </trkpt>
      <trkpt lat="46.04719" lon="4.53288">
        <ele>818.2</ele>
        <time>2025-09-17T07:55:18Z</time>
      </trkpt>
      <trkpt lat="46.04718" lon="4.53283">
        <ele>818.2</ele>
        <time>2025-09-17T07:55:19Z</time>
      </trkpt>
      <trkpt lat="46.04718" lon="4.53278">
        <ele>818.2</ele>
        <time>2025-09-17T07:55:20Z</time>
      </trkpt>
      <trkpt lat="46.04717" lon="4.53274">
        <ele>818.2</ele>
        <time>2025-09-17T07:55:21Z</time>
      </trkpt>
      <trkpt lat="46.04717" lon="4.5327">
        <ele>818.6</ele>
        <time>2025-09-17T07:55:22Z</time>
      </trkpt>
      <trkpt lat="46.04717" lon="4.53265">
        <ele>818.6</ele>
        <time>2025-09-17T07:55:23Z</time>
      </trkpt>
      <trkpt lat="46.04716" lon="4.53261">
        <ele>818.6</ele>
        <time>2025-09-17T07:55:24Z</time>
      </trkpt>
      <trkpt lat="46.04716" lon="4.53257">
        <ele>818.8</ele>
        <time>2025-09-17T07:55:25Z</time>
      </trkpt>
      <trkpt lat="46.04716" lon="4.53253">
        <ele>818.8</ele>
        <time>2025-09-17T07:55:26Z</time>
      </trkpt>
      <trkpt lat="46.04715" lon="4.53249">
        <ele>818.8</ele>
        <time>2025-09-17T07:55:27Z</time>
      </trkpt>
      <trkpt lat="46.04714" lon="4.53244">
        <ele>819.2</ele>
        <time>2025-09-17T07:55:28Z</time>
      </trkpt>
      <trkpt lat="46.04714" lon="4.5324">
        <ele>819</ele>
        <time>2025-09-17T07:55:29Z</time>
      </trkpt>
      <trkpt lat="46.04713" lon="4.53236">
        <ele>819.2</ele>
        <time>2025-09-17T07:55:30Z</time>
      </trkpt>
      <trkpt lat="46.04713" lon="4.53232">
        <ele>819.2</ele>
        <time>2025-09-17T07:55:31Z</time>
      </trkpt>
      <trkpt lat="46.04712" lon="4.53227">
        <ele>819.2</ele>
        <time>2025-09-17T07:55:32Z</time>
      </trkpt>
      <trkpt lat="46.04712" lon="4.53223">
        <ele>819.2</ele>
        <time>2025-09-17T07:55:33Z</time>
      </trkpt>
      <trkpt lat="46.04711" lon="4.53219">
        <ele>819.2</ele>
        <time>2025-09-17T07:55:34Z</time>
      </trkpt>
      <trkpt lat="46.04711" lon="4.53214">
        <ele>819.2</ele>
        <time>2025-09-17T07:55:35Z</time>
      </trkpt>
      <trkpt lat="46.04711" lon="4.53209">
        <ele>819.8</ele>
        <time>2025-09-17T07:55:36Z</time>
      </trkpt>
      <trkpt lat="46.04711" lon="4.53203">
        <ele>819.8</ele>
        <time>2025-09-17T07:55:37Z</time>
      </trkpt>
      <trkpt lat="46.04711" lon="4.53198">
        <ele>819.8</ele>
        <time>2025-09-17T07:55:38Z</time>
      </trkpt>
      <trkpt lat="46.04712" lon="4.53193">
        <ele>819.8</ele>
        <time>2025-09-17T07:55:39Z</time>
      </trkpt>
      <trkpt lat="46.04712" lon="4.53188">
        <ele>820</ele>
        <time>2025-09-17T07:55:40Z</time>
      </trkpt>
      <trkpt lat="46.04713" lon="4.53183">
        <ele>819.6</ele>
        <time>2025-09-17T07:55:41Z</time>
      </trkpt>
      <trkpt lat="46.04713" lon="4.53177">
        <ele>820</ele>
        <time>2025-09-17T07:55:42Z</time>
      </trkpt>
      <trkpt lat="46.04714" lon="4.53173">
        <ele>820</ele>
        <time>2025-09-17T07:55:43Z</time>
      </trkpt>
      <trkpt lat="46.04715" lon="4.53168">
        <ele>820</ele>
        <time>2025-09-17T07:55:44Z</time>
      </trkpt>
      <trkpt lat="46.04716" lon="4.53165">
        <ele>820</ele>
        <time>2025-09-17T07:55:45Z</time>
      </trkpt>
      <trkpt lat="46.04717" lon="4.53162">
        <ele>819.6</ele>
        <time>2025-09-17T07:55:46Z</time>
      </trkpt>
      <trkpt lat="46.04717" lon="4.53158">
        <ele>820</ele>
        <time>2025-09-17T07:55:47Z</time>
      </trkpt>
      <trkpt lat="46.04718" lon="4.53155">
        <ele>820.4</ele>
        <time>2025-09-17T07:55:48Z</time>
      </trkpt>
      <trkpt lat="46.04719" lon="4.53151">
        <ele>820.2</ele>
        <time>2025-09-17T07:55:49Z</time>
      </trkpt>
      <trkpt lat="46.04719" lon="4.53147">
        <ele>820.2</ele>
        <time>2025-09-17T07:55:50Z</time>
      </trkpt>
      <trkpt lat="46.04719" lon="4.53144">
        <ele>820.2</ele>
        <time>2025-09-17T07:55:51Z</time>
      </trkpt>
      <trkpt lat="46.04719" lon="4.5314">
        <ele>820.2</ele>
        <time>2025-09-17T07:55:52Z</time>
      </trkpt>
      <trkpt lat="46.04719" lon="4.53137">
        <ele>819.8</ele>
        <time>2025-09-17T07:55:53Z</time>
      </trkpt>
      <trkpt lat="46.04719" lon="4.53134">
        <ele>819.8</ele>
        <time>2025-09-17T07:55:54Z</time>
      </trkpt>
      <trkpt lat="46.04719" lon="4.5313">
        <ele>819.8</ele>
        <time>2025-09-17T07:55:55Z</time>
      </trkpt>
      <trkpt lat="46.0472" lon="4.53126">
        <ele>819.8</ele>
        <time>2025-09-17T07:55:56Z</time>
      </trkpt>
      <trkpt lat="46.0472" lon="4.53122">
        <ele>819.8</ele>
        <time>2025-09-17T07:55:57Z</time>
      </trkpt>
      <trkpt lat="46.0472" lon="4.53119">
        <ele>819.8</ele>
        <time>2025-09-17T07:55:58Z</time>
      </trkpt>
      <trkpt lat="46.0472" lon="4.53114">
        <ele>819.8</ele>
        <time>2025-09-17T07:55:59Z</time>
      </trkpt>
      <trkpt lat="46.04721" lon="4.53109">
        <ele>819.8</ele>
        <time>2025-09-17T07:56:00Z</time>
      </trkpt>
      <trkpt lat="46.04721" lon="4.53104">
        <ele>819.4</ele>
        <time>2025-09-17T07:56:01Z</time>
      </trkpt>
      <trkpt lat="46.04722" lon="4.531">
        <ele>819.4</ele>
        <time>2025-09-17T07:56:02Z</time>
      </trkpt>
      <trkpt lat="46.04722" lon="4.53095">
        <ele>819.4</ele>
        <time>2025-09-17T07:56:03Z</time>
      </trkpt>
      <trkpt lat="46.04722" lon="4.5309">
        <ele>819.2</ele>
        <time>2025-09-17T07:56:04Z</time>
      </trkpt>
      <trkpt lat="46.04723" lon="4.53085">
        <ele>819.2</ele>
        <time>2025-09-17T07:56:05Z</time>
      </trkpt>
      <trkpt lat="46.04724" lon="4.5308">
        <ele>818.8</ele>
        <time>2025-09-17T07:56:06Z</time>
      </trkpt>
      <trkpt lat="46.04725" lon="4.53075">
        <ele>818.8</ele>
        <time>2025-09-17T07:56:07Z</time>
      </trkpt>
      <trkpt lat="46.04726" lon="4.53071">
        <ele>818.8</ele>
        <time>2025-09-17T07:56:08Z</time>
      </trkpt>
      <trkpt lat="46.04726" lon="4.53067">
        <ele>818.8</ele>
        <time>2025-09-17T07:56:09Z</time>
      </trkpt>
      <trkpt lat="46.04726" lon="4.53064">
        <ele>818.8</ele>
        <time>2025-09-17T07:56:10Z</time>
      </trkpt>
      <trkpt lat="46.04727" lon="4.5306">
        <ele>818.8</ele>
        <time>2025-09-17T07:56:11Z</time>
      </trkpt>
      <trkpt lat="46.04727" lon="4.53056">
        <ele>818.4</ele>
        <time>2025-09-17T07:56:12Z</time>
      </trkpt>
      <trkpt lat="46.04727" lon="4.53053">
        <ele>818.6</ele>
        <time>2025-09-17T07:56:13Z</time>
      </trkpt>
      <trkpt lat="46.04727" lon="4.5305">
        <ele>818.6</ele>
        <time>2025-09-17T07:56:14Z</time>
      </trkpt>
      <trkpt lat="46.04727" lon="4.53045">
        <ele>819</ele>
        <time>2025-09-17T07:56:15Z</time>
      </trkpt>
      <trkpt lat="46.04727" lon="4.53041">
        <ele>819.4</ele>
        <time>2025-09-17T07:56:16Z</time>
      </trkpt>
      <trkpt lat="46.04728" lon="4.53037">
        <ele>819.4</ele>
        <time>2025-09-17T07:56:17Z</time>
      </trkpt>
      <trkpt lat="46.04729" lon="4.53033">
        <ele>819.4</ele>
        <time>2025-09-17T07:56:18Z</time>
      </trkpt>
      <trkpt lat="46.04729" lon="4.53029">
        <ele>819.6</ele>
        <time>2025-09-17T07:56:19Z</time>
      </trkpt>
      <trkpt lat="46.0473" lon="4.53025">
        <ele>819.6</ele>
        <time>2025-09-17T07:56:20Z</time>
      </trkpt>
      <trkpt lat="46.04732" lon="4.5302">
        <ele>819.6</ele>
        <time>2025-09-17T07:56:21Z</time>
      </trkpt>
      <trkpt lat="46.04732" lon="4.53017">
        <ele>819.6</ele>
        <time>2025-09-17T07:56:22Z</time>
      </trkpt>
      <trkpt lat="46.04734" lon="4.53014">
        <ele>819.6</ele>
        <time>2025-09-17T07:56:23Z</time>
      </trkpt>
      <trkpt lat="46.04735" lon="4.5301">
        <ele>819.8</ele>
        <time>2025-09-17T07:56:24Z</time>
      </trkpt>
      <trkpt lat="46.04737" lon="4.53007">
        <ele>820</ele>
        <time>2025-09-17T07:56:25Z</time>
      </trkpt>
      <trkpt lat="46.04738" lon="4.53003">
        <ele>820</ele>
        <time>2025-09-17T07:56:26Z</time>
      </trkpt>
      <trkpt lat="46.04738" lon="4.52999">
        <ele>819.8</ele>
        <time>2025-09-17T07:56:27Z</time>
      </trkpt>
      <trkpt lat="46.0474" lon="4.52996">
        <ele>819.8</ele>
        <time>2025-09-17T07:56:28Z</time>
      </trkpt>
      <trkpt lat="46.04742" lon="4.52993">
        <ele>819.6</ele>
        <time>2025-09-17T07:56:29Z</time>
      </trkpt>
      <trkpt lat="46.04745" lon="4.52993">
        <ele>819.6</ele>
        <time>2025-09-17T07:56:30Z</time>
      </trkpt>
      <trkpt lat="46.04747" lon="4.52995">
        <ele>819.6</ele>
        <time>2025-09-17T07:56:31Z</time>
      </trkpt>
      <trkpt lat="46.04749" lon="4.52998">
        <ele>820</ele>
        <time>2025-09-17T07:56:32Z</time>
      </trkpt>
      <trkpt lat="46.04749" lon="4.53001">
        <ele>820.2</ele>
        <time>2025-09-17T07:56:33Z</time>
      </trkpt>
      <trkpt lat="46.0475" lon="4.53004">
        <ele>820.6</ele>
        <time>2025-09-17T07:56:34Z</time>
      </trkpt>
      <trkpt lat="46.0475" lon="4.53007">
        <ele>821</ele>
        <time>2025-09-17T07:56:35Z</time>
      </trkpt>
      <trkpt lat="46.0475" lon="4.5301">
        <ele>821.4</ele>
        <time>2025-09-17T07:56:36Z</time>
      </trkpt>
      <trkpt lat="46.04751" lon="4.53014">
        <ele>821.8</ele>
        <time>2025-09-17T07:56:37Z</time>
      </trkpt>
      <trkpt lat="46.04751" lon="4.53017">
        <ele>822.2</ele>
        <time>2025-09-17T07:56:38Z</time>
      </trkpt>
      <trkpt lat="46.04752" lon="4.5302">
        <ele>822.4</ele>
        <time>2025-09-17T07:56:39Z</time>
      </trkpt>
      <trkpt lat="46.04754" lon="4.53022">
        <ele>822.4</ele>
        <time>2025-09-17T07:56:40Z</time>
      </trkpt>
      <trkpt lat="46.04755" lon="4.53025">
        <ele>822.8</ele>
        <time>2025-09-17T07:56:41Z</time>
      </trkpt>
      <trkpt lat="46.04757" lon="4.53026">
        <ele>823.2</ele>
        <time>2025-09-17T07:56:42Z</time>
      </trkpt>
      <trkpt lat="46.04759" lon="4.53028">
        <ele>823.6</ele>
        <time>2025-09-17T07:56:43Z</time>
      </trkpt>
      <trkpt lat="46.0476" lon="4.53029">
        <ele>824</ele>
        <time>2025-09-17T07:56:44Z</time>
      </trkpt>
      <trkpt lat="46.04762" lon="4.5303">
        <ele>824.4</ele>
        <time>2025-09-17T07:56:45Z</time>
      </trkpt>
      <trkpt lat="46.04764" lon="4.53031">
        <ele>824.6</ele>
        <time>2025-09-17T07:56:46Z</time>
      </trkpt>
      <trkpt lat="46.04765" lon="4.53032">
        <ele>825</ele>
        <time>2025-09-17T07:56:47Z</time>
      </trkpt>
      <trkpt lat="46.04767" lon="4.53032">
        <ele>825.2</ele>
        <time>2025-09-17T07:56:48Z</time>
      </trkpt>
      <trkpt lat="46.04768" lon="4.53033">
        <ele>825.6</ele>
        <time>2025-09-17T07:56:49Z</time>
      </trkpt>
      <trkpt lat="46.0477" lon="4.53034">
        <ele>826</ele>
        <time>2025-09-17T07:56:50Z</time>
      </trkpt>
      <trkpt lat="46.04772" lon="4.53035">
        <ele>826</ele>
        <time>2025-09-17T07:56:51Z</time>
      </trkpt>
      <trkpt lat="46.04773" lon="4.53037">
        <ele>826.4</ele>
        <time>2025-09-17T07:56:52Z</time>
      </trkpt>
      <trkpt lat="46.04774" lon="4.53039">
        <ele>826.4</ele>
        <time>2025-09-17T07:56:53Z</time>
      </trkpt>
      <trkpt lat="46.04775" lon="4.5304">
        <ele>826.8</ele>
        <time>2025-09-17T07:56:54Z</time>
      </trkpt>
      <trkpt lat="46.04776" lon="4.53041">
        <ele>827.2</ele>
        <time>2025-09-17T07:56:55Z</time>
      </trkpt>
      <trkpt lat="46.04777" lon="4.53042">
        <ele>827.4</ele>
        <time>2025-09-17T07:56:56Z</time>
      </trkpt>
      <trkpt lat="46.04778" lon="4.53042">
        <ele>827.4</ele>
        <time>2025-09-17T07:56:57Z</time>
      </trkpt>
      <trkpt lat="46.04777" lon="4.53042">
        <ele>827.8</ele>
        <time>2025-09-17T07:56:58Z</time>
      </trkpt>
      <trkpt lat="46.04778" lon="4.53042">
        <ele>828</ele>
        <time>2025-09-17T07:57:03Z</time>
      </trkpt>
      <trkpt lat="46.04779" lon="4.53043">
        <ele>828</ele>
        <time>2025-09-17T07:57:04Z</time>
      </trkpt>
      <trkpt lat="46.0478" lon="4.53045">
        <ele>828</ele>
        <time>2025-09-17T07:57:05Z</time>
      </trkpt>
      <trkpt lat="46.0478" lon="4.53046">
        <ele>828.4</ele>
        <time>2025-09-17T07:57:06Z</time>
      </trkpt>
      <trkpt lat="46.0478" lon="4.53047">
        <ele>828.4</ele>
        <time>2025-09-17T07:57:07Z</time>
      </trkpt>
      <trkpt lat="46.04781" lon="4.53048">
        <ele>828.8</ele>
        <time>2025-09-17T07:57:08Z</time>
      </trkpt>
      <trkpt lat="46.04782" lon="4.5305">
        <ele>829.2</ele>
        <time>2025-09-17T07:57:09Z</time>
      </trkpt>
      <trkpt lat="46.04783" lon="4.53051">
        <ele>829.2</ele>
        <time>2025-09-17T07:57:10Z</time>
      </trkpt>
      <trkpt lat="46.04784" lon="4.53052">
        <ele>829.4</ele>
        <time>2025-09-17T07:57:11Z</time>
      </trkpt>
      <trkpt lat="46.04784" lon="4.53052">
        <ele>829.4</ele>
        <time>2025-09-17T07:57:12Z</time>
      </trkpt>
      <trkpt lat="46.04785" lon="4.53053">
        <ele>830</ele>
        <time>2025-09-17T07:57:13Z</time>
      </trkpt>
      <trkpt lat="46.04785" lon="4.53054">
        <ele>830.2</ele>
        <time>2025-09-17T07:57:14Z</time>
      </trkpt>
      <trkpt lat="46.04785" lon="4.53055">
        <ele>830.6</ele>
        <time>2025-09-17T07:57:15Z</time>
      </trkpt>
      <trkpt lat="46.04786" lon="4.53055">
        <ele>831</ele>
        <time>2025-09-17T07:57:16Z</time>
      </trkpt>
      <trkpt lat="46.04786" lon="4.53056">
        <ele>831</ele>
        <time>2025-09-17T07:57:17Z</time>
      </trkpt>
      <trkpt lat="46.04787" lon="4.53056">
        <ele>831.4</ele>
        <time>2025-09-17T07:57:18Z</time>
      </trkpt>
      <trkpt lat="46.04787" lon="4.53057">
        <ele>831.4</ele>
        <time>2025-09-17T07:57:19Z</time>
      </trkpt>
      <trkpt lat="46.04788" lon="4.53057">
        <ele>831.8</ele>
        <time>2025-09-17T07:57:20Z</time>
      </trkpt>
      <trkpt lat="46.04789" lon="4.53058">
        <ele>831.8</ele>
        <time>2025-09-17T07:57:21Z</time>
      </trkpt>
      <trkpt lat="46.0479" lon="4.53059">
        <ele>832</ele>
        <time>2025-09-17T07:57:22Z</time>
      </trkpt>
      <trkpt lat="46.04791" lon="4.53059">
        <ele>832</ele>
        <time>2025-09-17T07:57:23Z</time>
      </trkpt>
      <trkpt lat="46.04792" lon="4.53059">
        <ele>832.4</ele>
        <time>2025-09-17T07:57:24Z</time>
      </trkpt>
      <trkpt lat="46.04792" lon="4.5306">
        <ele>832.6</ele>
        <time>2025-09-17T07:57:25Z</time>
      </trkpt>
      <trkpt lat="46.04793" lon="4.5306">
        <ele>832.6</ele>
        <time>2025-09-17T07:57:26Z</time>
      </trkpt>
      <trkpt lat="46.04794" lon="4.5306">
        <ele>832.6</ele>
        <time>2025-09-17T07:57:27Z</time>
      </trkpt>
      <trkpt lat="46.04795" lon="4.5306">
        <ele>832.8</ele>
        <time>2025-09-17T07:57:28Z</time>
      </trkpt>
      <trkpt lat="46.04796" lon="4.5306">
        <ele>833.2</ele>
        <time>2025-09-17T07:57:29Z</time>
      </trkpt>
      <trkpt lat="46.04798" lon="4.53061">
        <ele>833.4</ele>
        <time>2025-09-17T07:57:30Z</time>
      </trkpt>
      <trkpt lat="46.04798" lon="4.53061">
        <ele>833.4</ele>
        <time>2025-09-17T07:57:31Z</time>
      </trkpt>
      <trkpt lat="46.04799" lon="4.53061">
        <ele>833.8</ele>
        <time>2025-09-17T07:57:32Z</time>
      </trkpt>
      <trkpt lat="46.04799" lon="4.53061">
        <ele>833.8</ele>
        <time>2025-09-17T07:57:33Z</time>
      </trkpt>
      <trkpt lat="46.04799" lon="4.53061">
        <ele>833.8</ele>
        <time>2025-09-17T07:57:34Z</time>
      </trkpt>
      <trkpt lat="46.04799" lon="4.53061">
        <ele>833.8</ele>
        <time>2025-09-17T07:57:35Z</time>
      </trkpt>
      <trkpt lat="46.04802" lon="4.53061">
        <ele>834</ele>
        <time>2025-09-17T07:57:45Z</time>
      </trkpt>
      <trkpt lat="46.04803" lon="4.53062">
        <ele>834.2</ele>
        <time>2025-09-17T07:57:46Z</time>
      </trkpt>
      <trkpt lat="46.04805" lon="4.53062">
        <ele>834.2</ele>
        <time>2025-09-17T07:57:47Z</time>
      </trkpt>
      <trkpt lat="46.04806" lon="4.53063">
        <ele>834.6</ele>
        <time>2025-09-17T07:57:48Z</time>
      </trkpt>
      <trkpt lat="46.04808" lon="4.53064">
        <ele>834.6</ele>
        <time>2025-09-17T07:57:49Z</time>
      </trkpt>
      <trkpt lat="46.04809" lon="4.53064">
        <ele>835.2</ele>
        <time>2025-09-17T07:57:50Z</time>
      </trkpt>
      <trkpt lat="46.04811" lon="4.53065">
        <ele>835.2</ele>
        <time>2025-09-17T07:57:51Z</time>
      </trkpt>
      <trkpt lat="46.04813" lon="4.53065">
        <ele>835.6</ele>
        <time>2025-09-17T07:57:52Z</time>
      </trkpt>
      <trkpt lat="46.04814" lon="4.53066">
        <ele>836</ele>
        <time>2025-09-17T07:57:53Z</time>
      </trkpt>
      <trkpt lat="46.04815" lon="4.53067">
        <ele>836.4</ele>
        <time>2025-09-17T07:57:54Z</time>
      </trkpt>
      <trkpt lat="46.04817" lon="4.53068">
        <ele>836.4</ele>
        <time>2025-09-17T07:57:55Z</time>
      </trkpt>
      <trkpt lat="46.04818" lon="4.53069">
        <ele>836.6</ele>
        <time>2025-09-17T07:57:56Z</time>
      </trkpt>
      <trkpt lat="46.04819" lon="4.53069">
        <ele>836.8</ele>
        <time>2025-09-17T07:57:57Z</time>
      </trkpt>
      <trkpt lat="46.04821" lon="4.5307">
        <ele>836.8</ele>
        <time>2025-09-17T07:57:58Z</time>
      </trkpt>
      <trkpt lat="46.04822" lon="4.5307">
        <ele>837.2</ele>
        <time>2025-09-17T07:57:59Z</time>
      </trkpt>
      <trkpt lat="46.04824" lon="4.53071">
        <ele>837.8</ele>
        <time>2025-09-17T07:58:00Z</time>
      </trkpt>
      <trkpt lat="46.04826" lon="4.53072">
        <ele>837.8</ele>
        <time>2025-09-17T07:58:01Z</time>
      </trkpt>
      <trkpt lat="46.04827" lon="4.53074">
        <ele>837.8</ele>
        <time>2025-09-17T07:58:02Z</time>
      </trkpt>
      <trkpt lat="46.04827" lon="4.53075">
        <ele>838.8</ele>
        <time>2025-09-17T07:58:03Z</time>
      </trkpt>
      <trkpt lat="46.04828" lon="4.53076">
        <ele>839.2</ele>
        <time>2025-09-17T07:58:04Z</time>
      </trkpt>
      <trkpt lat="46.04829" lon="4.53077">
        <ele>839.4</ele>
        <time>2025-09-17T07:58:05Z</time>
      </trkpt>
      <trkpt lat="46.0483" lon="4.53078">
        <ele>839.8</ele>
        <time>2025-09-17T07:58:06Z</time>
      </trkpt>
      <trkpt lat="46.04831" lon="4.53079">
        <ele>840</ele>
        <time>2025-09-17T07:58:07Z</time>
      </trkpt>
      <trkpt lat="46.04832" lon="4.5308">
        <ele>840.2</ele>
        <time>2025-09-17T07:58:08Z</time>
      </trkpt>
      <trkpt lat="46.04833" lon="4.53081">
        <ele>840.4</ele>
        <time>2025-09-17T07:58:09Z</time>
      </trkpt>
      <trkpt lat="46.04834" lon="4.53082">
        <ele>840.8</ele>
        <time>2025-09-17T07:58:10Z</time>
      </trkpt>
      <trkpt lat="46.04834" lon="4.53083">
        <ele>841</ele>
        <time>2025-09-17T07:58:11Z</time>
      </trkpt>
      <trkpt lat="46.04834" lon="4.53084">
        <ele>841</ele>
        <time>2025-09-17T07:58:12Z</time>
      </trkpt>
      <trkpt lat="46.04834" lon="4.53084">
        <ele>841.2</ele>
        <time>2025-09-17T07:58:13Z</time>
      </trkpt>
      <trkpt lat="46.04834" lon="4.53084">
        <ele>841.2</ele>
        <time>2025-09-17T07:58:14Z</time>
      </trkpt>
      <trkpt lat="46.04835" lon="4.53087">
        <ele>841.4</ele>
        <time>2025-09-17T07:58:22Z</time>
      </trkpt>
      <trkpt lat="46.04835" lon="4.53088">
        <ele>841.4</ele>
        <time>2025-09-17T07:58:23Z</time>
      </trkpt>
      <trkpt lat="46.04835" lon="4.53089">
        <ele>841.4</ele>
        <time>2025-09-17T07:58:24Z</time>
      </trkpt>
      <trkpt lat="46.04836" lon="4.5309">
        <ele>841.8</ele>
        <time>2025-09-17T07:58:25Z</time>
      </trkpt>
      <trkpt lat="46.04837" lon="4.53091">
        <ele>841.8</ele>
        <time>2025-09-17T07:58:26Z</time>
      </trkpt>
      <trkpt lat="46.04837" lon="4.53092">
        <ele>842.2</ele>
        <time>2025-09-17T07:58:27Z</time>
      </trkpt>
      <trkpt lat="46.04838" lon="4.53093">
        <ele>842.2</ele>
        <time>2025-09-17T07:58:28Z</time>
      </trkpt>
      <trkpt lat="46.04839" lon="4.53094">
        <ele>842.4</ele>
        <time>2025-09-17T07:58:29Z</time>
      </trkpt>
      <trkpt lat="46.04839" lon="4.53095">
        <ele>842.4</ele>
        <time>2025-09-17T07:58:30Z</time>
      </trkpt>
      <trkpt lat="46.0484" lon="4.53096">
        <ele>843</ele>
        <time>2025-09-17T07:58:31Z</time>
      </trkpt>
      <trkpt lat="46.0484" lon="4.53097">
        <ele>843</ele>
        <time>2025-09-17T07:58:32Z</time>
      </trkpt>
      <trkpt lat="46.0484" lon="4.53098">
        <ele>843.4</ele>
        <time>2025-09-17T07:58:33Z</time>
      </trkpt>
      <trkpt lat="46.0484" lon="4.531">
        <ele>843.6</ele>
        <time>2025-09-17T07:58:34Z</time>
      </trkpt>
      <trkpt lat="46.0484" lon="4.53101">
        <ele>843.6</ele>
        <time>2025-09-17T07:58:35Z</time>
      </trkpt>
      <trkpt lat="46.04841" lon="4.53102">
        <ele>843.8</ele>
        <time>2025-09-17T07:58:36Z</time>
      </trkpt>
      <trkpt lat="46.04841" lon="4.53102">
        <ele>844.2</ele>
        <time>2025-09-17T07:58:37Z</time>
      </trkpt>
      <trkpt lat="46.04841" lon="4.53102">
        <ele>844.2</ele>
        <time>2025-09-17T07:58:38Z</time>
      </trkpt>
      <trkpt lat="46.04841" lon="4.53104">
        <ele>844.2</ele>
        <time>2025-09-17T07:58:39Z</time>
      </trkpt>
      <trkpt lat="46.04841" lon="4.53105">
        <ele>844.2</ele>
        <time>2025-09-17T07:58:40Z</time>
      </trkpt>
      <trkpt lat="46.04842" lon="4.53106">
        <ele>844.6</ele>
        <time>2025-09-17T07:58:41Z</time>
      </trkpt>
      <trkpt lat="46.04842" lon="4.53107">
        <ele>844.6</ele>
        <time>2025-09-17T07:58:42Z</time>
      </trkpt>
      <trkpt lat="46.04842" lon="4.53109">
        <ele>844.6</ele>
        <time>2025-09-17T07:58:43Z</time>
      </trkpt>
      <trkpt lat="46.04842" lon="4.5311">
        <ele>845</ele>
        <time>2025-09-17T07:58:44Z</time>
      </trkpt>
      <trkpt lat="46.04842" lon="4.53111">
        <ele>845</ele>
        <time>2025-09-17T07:58:45Z</time>
      </trkpt>
      <trkpt lat="46.04842" lon="4.53112">
        <ele>845.2</ele>
        <time>2025-09-17T07:58:46Z</time>
      </trkpt>
      <trkpt lat="46.04842" lon="4.53114">
        <ele>845.2</ele>
        <time>2025-09-17T07:58:47Z</time>
      </trkpt>
      <trkpt lat="46.04842" lon="4.53116">
        <ele>845.2</ele>
        <time>2025-09-17T07:58:48Z</time>
      </trkpt>
      <trkpt lat="46.04842" lon="4.53117">
        <ele>845.6</ele>
        <time>2025-09-17T07:58:49Z</time>
      </trkpt>
      <trkpt lat="46.04842" lon="4.53119">
        <ele>845.6</ele>
        <time>2025-09-17T07:58:50Z</time>
      </trkpt>
      <trkpt lat="46.04843" lon="4.5312">
        <ele>845.8</ele>
        <time>2025-09-17T07:58:51Z</time>
      </trkpt>
      <trkpt lat="46.04843" lon="4.53122">
        <ele>846.2</ele>
        <time>2025-09-17T07:58:52Z</time>
      </trkpt>
      <trkpt lat="46.04843" lon="4.53123">
        <ele>846.2</ele>
        <time>2025-09-17T07:58:53Z</time>
      </trkpt>
      <trkpt lat="46.04844" lon="4.53125">
        <ele>846.6</ele>
        <time>2025-09-17T07:58:54Z</time>
      </trkpt>
      <trkpt lat="46.04844" lon="4.53126">
        <ele>846.6</ele>
        <time>2025-09-17T07:58:55Z</time>
      </trkpt>
      <trkpt lat="46.04844" lon="4.53127">
        <ele>846.8</ele>
        <time>2025-09-17T07:58:56Z</time>
      </trkpt>
      <trkpt lat="46.04844" lon="4.53128">
        <ele>846.8</ele>
        <time>2025-09-17T07:58:57Z</time>
      </trkpt>
      <trkpt lat="46.04844" lon="4.53128">
        <ele>847.2</ele>
        <time>2025-09-17T07:58:58Z</time>
      </trkpt>
      <trkpt lat="46.04844" lon="4.53128">
        <ele>847.2</ele>
        <time>2025-09-17T07:58:59Z</time>
      </trkpt>
      <trkpt lat="46.04844" lon="4.53127">
        <ele>847.4</ele>
        <time>2025-09-17T07:59:02Z</time>
      </trkpt>
      <trkpt lat="46.04844" lon="4.53127">
        <ele>847.6</ele>
        <time>2025-09-17T07:59:03Z</time>
      </trkpt>
      <trkpt lat="46.04844" lon="4.53127">
        <ele>847.6</ele>
        <time>2025-09-17T07:59:04Z</time>
      </trkpt>
      <trkpt lat="46.04845" lon="4.53129">
        <ele>847.4</ele>
        <time>2025-09-17T07:59:09Z</time>
      </trkpt>
      <trkpt lat="46.04846" lon="4.53132">
        <ele>847.4</ele>
        <time>2025-09-17T07:59:10Z</time>
      </trkpt>
      <trkpt lat="46.04847" lon="4.53136">
        <ele>847.4</ele>
        <time>2025-09-17T07:59:11Z</time>
      </trkpt>
      <trkpt lat="46.04848" lon="4.53139">
        <ele>847.8</ele>
        <time>2025-09-17T07:59:12Z</time>
      </trkpt>
      <trkpt lat="46.04848" lon="4.53141">
        <ele>847.8</ele>
        <time>2025-09-17T07:59:13Z</time>
      </trkpt>
      <trkpt lat="46.04849" lon="4.53144">
        <ele>847.8</ele>
        <time>2025-09-17T07:59:14Z</time>
      </trkpt>
      <trkpt lat="46.04849" lon="4.53145">
        <ele>848.2</ele>
        <time>2025-09-17T07:59:15Z</time>
      </trkpt>
      <trkpt lat="46.0485" lon="4.53147">
        <ele>848.2</ele>
        <time>2025-09-17T07:59:16Z</time>
      </trkpt>
      <trkpt lat="46.04851" lon="4.5315">
        <ele>848.4</ele>
        <time>2025-09-17T07:59:17Z</time>
      </trkpt>
      <trkpt lat="46.04852" lon="4.53152">
        <ele>848.8</ele>
        <time>2025-09-17T07:59:18Z</time>
      </trkpt>
      <trkpt lat="46.04853" lon="4.53155">
        <ele>849.2</ele>
        <time>2025-09-17T07:59:19Z</time>
      </trkpt>
      <trkpt lat="46.04854" lon="4.53156">
        <ele>849.2</ele>
        <time>2025-09-17T07:59:20Z</time>
      </trkpt>
      <trkpt lat="46.04855" lon="4.53158">
        <ele>849.8</ele>
        <time>2025-09-17T07:59:21Z</time>
      </trkpt>
      <trkpt lat="46.04855" lon="4.53159">
        <ele>850</ele>
        <time>2025-09-17T07:59:22Z</time>
      </trkpt>
      <trkpt lat="46.04856" lon="4.53161">
        <ele>850.4</ele>
        <time>2025-09-17T07:59:23Z</time>
      </trkpt>
      <trkpt lat="46.04857" lon="4.53163">
        <ele>850.8</ele>
        <time>2025-09-17T07:59:24Z</time>
      </trkpt>
      <trkpt lat="46.04859" lon="4.53165">
        <ele>851</ele>
        <time>2025-09-17T07:59:25Z</time>
      </trkpt>
      <trkpt lat="46.0486" lon="4.53166">
        <ele>851.2</ele>
        <time>2025-09-17T07:59:26Z</time>
      </trkpt>
      <trkpt lat="46.04861" lon="4.53168">
        <ele>851.4</ele>
        <time>2025-09-17T07:59:27Z</time>
      </trkpt>
      <trkpt lat="46.04863" lon="4.53169">
        <ele>851.4</ele>
        <time>2025-09-17T07:59:28Z</time>
      </trkpt>
      <trkpt lat="46.04864" lon="4.5317">
        <ele>851.4</ele>
        <time>2025-09-17T07:59:29Z</time>
      </trkpt>
      <trkpt lat="46.04865" lon="4.53171">
        <ele>852</ele>
        <time>2025-09-17T07:59:30Z</time>
      </trkpt>
      <trkpt lat="46.04867" lon="4.53172">
        <ele>852.2</ele>
        <time>2025-09-17T07:59:31Z</time>
      </trkpt>
      <trkpt lat="46.04868" lon="4.53173">
        <ele>852.2</ele>
        <time>2025-09-17T07:59:32Z</time>
      </trkpt>
      <trkpt lat="46.04869" lon="4.53174">
        <ele>852.6</ele>
        <time>2025-09-17T07:59:33Z</time>
      </trkpt>
      <trkpt lat="46.0487" lon="4.53175">
        <ele>853</ele>
        <time>2025-09-17T07:59:34Z</time>
      </trkpt>
      <trkpt lat="46.04872" lon="4.53175">
        <ele>853.2</ele>
        <time>2025-09-17T07:59:35Z</time>
      </trkpt>
      <trkpt lat="46.04873" lon="4.53176">
        <ele>853.6</ele>
        <time>2025-09-17T07:59:36Z</time>
      </trkpt>
      <trkpt lat="46.04874" lon="4.53176">
        <ele>853.6</ele>
        <time>2025-09-17T07:59:37Z</time>
      </trkpt>
      <trkpt lat="46.04875" lon="4.53176">
        <ele>853.8</ele>
        <time>2025-09-17T07:59:38Z</time>
      </trkpt>
      <trkpt lat="46.04877" lon="4.53177">
        <ele>853.8</ele>
        <time>2025-09-17T07:59:39Z</time>
      </trkpt>
      <trkpt lat="46.04878" lon="4.53177">
        <ele>853.8</ele>
        <time>2025-09-17T07:59:40Z</time>
      </trkpt>
      <trkpt lat="46.0488" lon="4.53177">
        <ele>854</ele>
        <time>2025-09-17T07:59:41Z</time>
      </trkpt>
      <trkpt lat="46.04882" lon="4.53178">
        <ele>854.2</ele>
        <time>2025-09-17T07:59:42Z</time>
      </trkpt>
      <trkpt lat="46.04883" lon="4.53178">
        <ele>854.6</ele>
        <time>2025-09-17T07:59:43Z</time>
      </trkpt>
      <trkpt lat="46.04885" lon="4.53177">
        <ele>854.8</ele>
        <time>2025-09-17T07:59:44Z</time>
      </trkpt>
      <trkpt lat="46.04886" lon="4.53176">
        <ele>854.8</ele>
        <time>2025-09-17T07:59:45Z</time>
      </trkpt>
      <trkpt lat="46.04887" lon="4.53175">
        <ele>854.8</ele>
        <time>2025-09-17T07:59:46Z</time>
      </trkpt>
      <trkpt lat="46.04888" lon="4.53175">
        <ele>855</ele>
        <time>2025-09-17T07:59:47Z</time>
      </trkpt>
      <trkpt lat="46.04889" lon="4.53174">
        <ele>855</ele>
        <time>2025-09-17T07:59:48Z</time>
      </trkpt>
      <trkpt lat="46.0489" lon="4.53174">
        <ele>855</ele>
        <time>2025-09-17T07:59:49Z</time>
      </trkpt>
      <trkpt lat="46.04891" lon="4.53174">
        <ele>855</ele>
        <time>2025-09-17T07:59:50Z</time>
      </trkpt>
      <trkpt lat="46.04892" lon="4.53173">
        <ele>855</ele>
        <time>2025-09-17T07:59:51Z</time>
      </trkpt>
      <trkpt lat="46.04893" lon="4.53173">
        <ele>855</ele>
        <time>2025-09-17T07:59:52Z</time>
      </trkpt>
      <trkpt lat="46.04893" lon="4.53172">
        <ele>855</ele>
        <time>2025-09-17T07:59:53Z</time>
      </trkpt>
      <trkpt lat="46.04894" lon="4.53172">
        <ele>855.2</ele>
        <time>2025-09-17T07:59:54Z</time>
      </trkpt>
      <trkpt lat="46.04895" lon="4.53173">
        <ele>855.2</ele>
        <time>2025-09-17T07:59:55Z</time>
      </trkpt>
      <trkpt lat="46.04895" lon="4.53172">
        <ele>855.2</ele>
        <time>2025-09-17T07:59:56Z</time>
      </trkpt>
      <trkpt lat="46.04896" lon="4.53171">
        <ele>855.2</ele>
        <time>2025-09-17T08:00:02Z</time>
      </trkpt>
      <trkpt lat="46.04897" lon="4.5317">
        <ele>855.2</ele>
        <time>2025-09-17T08:00:03Z</time>
      </trkpt>
      <trkpt lat="46.04899" lon="4.53169">
        <ele>855.2</ele>
        <time>2025-09-17T08:00:04Z</time>
      </trkpt>
      <trkpt lat="46.04901" lon="4.53167">
        <ele>855.2</ele>
        <time>2025-09-17T08:00:05Z</time>
      </trkpt>
      <trkpt lat="46.04903" lon="4.53166">
        <ele>855.2</ele>
        <time>2025-09-17T08:00:06Z</time>
      </trkpt>
      <trkpt lat="46.04905" lon="4.53165">
        <ele>855</ele>
        <time>2025-09-17T08:00:07Z</time>
      </trkpt>
      <trkpt lat="46.04908" lon="4.53164">
        <ele>855</ele>
        <time>2025-09-17T08:00:08Z</time>
      </trkpt>
      <trkpt lat="46.0491" lon="4.53162">
        <ele>855</ele>
        <time>2025-09-17T08:00:09Z</time>
      </trkpt>
      <trkpt lat="46.04913" lon="4.5316">
        <ele>854.8</ele>
        <time>2025-09-17T08:00:10Z</time>
      </trkpt>
      <trkpt lat="46.04916" lon="4.5316">
        <ele>854.8</ele>
        <time>2025-09-17T08:00:11Z</time>
      </trkpt>
      <trkpt lat="46.04919" lon="4.5316">
        <ele>855.2</ele>
        <time>2025-09-17T08:00:12Z</time>
      </trkpt>
      <trkpt lat="46.04921" lon="4.53161">
        <ele>855.4</ele>
        <time>2025-09-17T08:00:13Z</time>
      </trkpt>
      <trkpt lat="46.04923" lon="4.53162">
        <ele>855.8</ele>
        <time>2025-09-17T08:00:14Z</time>
      </trkpt>
      <trkpt lat="46.04925" lon="4.53164">
        <ele>855.8</ele>
        <time>2025-09-17T08:00:15Z</time>
      </trkpt>
      <trkpt lat="46.04927" lon="4.53166">
        <ele>856.2</ele>
        <time>2025-09-17T08:00:16Z</time>
      </trkpt>
      <trkpt lat="46.04928" lon="4.53168">
        <ele>856.4</ele>
        <time>2025-09-17T08:00:17Z</time>
      </trkpt>
      <trkpt lat="46.0493" lon="4.5317">
        <ele>857</ele>
        <time>2025-09-17T08:00:18Z</time>
      </trkpt>
      <trkpt lat="46.04931" lon="4.53171">
        <ele>857.2</ele>
        <time>2025-09-17T08:00:19Z</time>
      </trkpt>
      <trkpt lat="46.04932" lon="4.53172">
        <ele>857.2</ele>
        <time>2025-09-17T08:00:20Z</time>
      </trkpt>
      <trkpt lat="46.04933" lon="4.53173">
        <ele>857.2</ele>
        <time>2025-09-17T08:00:21Z</time>
      </trkpt>
      <trkpt lat="46.04935" lon="4.53173">
        <ele>857.8</ele>
        <time>2025-09-17T08:00:22Z</time>
      </trkpt>
      <trkpt lat="46.04936" lon="4.53173">
        <ele>857.8</ele>
        <time>2025-09-17T08:00:23Z</time>
      </trkpt>
      <trkpt lat="46.04937" lon="4.53173">
        <ele>858.4</ele>
        <time>2025-09-17T08:00:24Z</time>
      </trkpt>
      <trkpt lat="46.04938" lon="4.53174">
        <ele>858.8</ele>
        <time>2025-09-17T08:00:25Z</time>
      </trkpt>
      <trkpt lat="46.04939" lon="4.53175">
        <ele>859.2</ele>
        <time>2025-09-17T08:00:26Z</time>
      </trkpt>
      <trkpt lat="46.0494" lon="4.53176">
        <ele>859.4</ele>
        <time>2025-09-17T08:00:27Z</time>
      </trkpt>
      <trkpt lat="46.04941" lon="4.53177">
        <ele>859.6</ele>
        <time>2025-09-17T08:00:28Z</time>
      </trkpt>
      <trkpt lat="46.04942" lon="4.53178">
        <ele>860</ele>
        <time>2025-09-17T08:00:29Z</time>
      </trkpt>
      <trkpt lat="46.04943" lon="4.5318">
        <ele>860</ele>
        <time>2025-09-17T08:00:30Z</time>
      </trkpt>
      <trkpt lat="46.04944" lon="4.53181">
        <ele>860.2</ele>
        <time>2025-09-17T08:00:31Z</time>
      </trkpt>
      <trkpt lat="46.04945" lon="4.53183">
        <ele>860.6</ele>
        <time>2025-09-17T08:00:32Z</time>
      </trkpt>
      <trkpt lat="46.04946" lon="4.53184">
        <ele>861</ele>
        <time>2025-09-17T08:00:33Z</time>
      </trkpt>
      <trkpt lat="46.04947" lon="4.53185">
        <ele>861.4</ele>
        <time>2025-09-17T08:00:34Z</time>
      </trkpt>
      <trkpt lat="46.04948" lon="4.53186">
        <ele>861.8</ele>
        <time>2025-09-17T08:00:35Z</time>
      </trkpt>
      <trkpt lat="46.04948" lon="4.53187">
        <ele>862</ele>
        <time>2025-09-17T08:00:36Z</time>
      </trkpt>
      <trkpt lat="46.04949" lon="4.53186">
        <ele>862</ele>
        <time>2025-09-17T08:00:37Z</time>
      </trkpt>
      <trkpt lat="46.0495" lon="4.53187">
        <ele>863</ele>
        <time>2025-09-17T08:00:52Z</time>
      </trkpt>
      <trkpt lat="46.04951" lon="4.53187">
        <ele>863.4</ele>
        <time>2025-09-17T08:00:53Z</time>
      </trkpt>
      <trkpt lat="46.04952" lon="4.53188">
        <ele>863.4</ele>
        <time>2025-09-17T08:00:54Z</time>
      </trkpt>
      <trkpt lat="46.04952" lon="4.53188">
        <ele>863.4</ele>
        <time>2025-09-17T08:00:55Z</time>
      </trkpt>
      <trkpt lat="46.04953" lon="4.53188">
        <ele>863.6</ele>
        <time>2025-09-17T08:00:56Z</time>
      </trkpt>
      <trkpt lat="46.04954" lon="4.53189">
        <ele>863.6</ele>
        <time>2025-09-17T08:00:57Z</time>
      </trkpt>
      <trkpt lat="46.04955" lon="4.5319">
        <ele>864</ele>
        <time>2025-09-17T08:00:58Z</time>
      </trkpt>
      <trkpt lat="46.04955" lon="4.5319">
        <ele>864.2</ele>
        <time>2025-09-17T08:00:59Z</time>
      </trkpt>
      <trkpt lat="46.04956" lon="4.53191">
        <ele>864.4</ele>
        <time>2025-09-17T08:01:00Z</time>
      </trkpt>
      <trkpt lat="46.04957" lon="4.53192">
        <ele>864.4</ele>
        <time>2025-09-17T08:01:01Z</time>
      </trkpt>
      <trkpt lat="46.04957" lon="4.53192">
        <ele>864.4</ele>
        <time>2025-09-17T08:01:02Z</time>
      </trkpt>
      <trkpt lat="46.04958" lon="4.53192">
        <ele>864.4</ele>
        <time>2025-09-17T08:01:03Z</time>
      </trkpt>
      <trkpt lat="46.04959" lon="4.53192">
        <ele>864.8</ele>
        <time>2025-09-17T08:01:04Z</time>
      </trkpt>
      <trkpt lat="46.0496" lon="4.53193">
        <ele>864.8</ele>
        <time>2025-09-17T08:01:05Z</time>
      </trkpt>
      <trkpt lat="46.04961" lon="4.53194">
        <ele>865</ele>
        <time>2025-09-17T08:01:06Z</time>
      </trkpt>
      <trkpt lat="46.04962" lon="4.53194">
        <ele>865.4</ele>
        <time>2025-09-17T08:01:07Z</time>
      </trkpt>
      <trkpt lat="46.04962" lon="4.53195">
        <ele>865.6</ele>
        <time>2025-09-17T08:01:08Z</time>
      </trkpt>
      <trkpt lat="46.04963" lon="4.53195">
        <ele>865.6</ele>
        <time>2025-09-17T08:01:09Z</time>
      </trkpt>
      <trkpt lat="46.04963" lon="4.53195">
        <ele>866</ele>
        <time>2025-09-17T08:01:10Z</time>
      </trkpt>
      <trkpt lat="46.04964" lon="4.53195">
        <ele>866</ele>
        <time>2025-09-17T08:01:11Z</time>
      </trkpt>
      <trkpt lat="46.04964" lon="4.53196">
        <ele>866.2</ele>
        <time>2025-09-17T08:01:12Z</time>
      </trkpt>
      <trkpt lat="46.04965" lon="4.53197">
        <ele>866.2</ele>
        <time>2025-09-17T08:01:13Z</time>
      </trkpt>
      <trkpt lat="46.04966" lon="4.53197">
        <ele>866.4</ele>
        <time>2025-09-17T08:01:14Z</time>
      </trkpt>
      <trkpt lat="46.04966" lon="4.53198">
        <ele>866.8</ele>
        <time>2025-09-17T08:01:15Z</time>
      </trkpt>
      <trkpt lat="46.04967" lon="4.53199">
        <ele>867</ele>
        <time>2025-09-17T08:01:16Z</time>
      </trkpt>
      <trkpt lat="46.04968" lon="4.532">
        <ele>867.2</ele>
        <time>2025-09-17T08:01:17Z</time>
      </trkpt>
      <trkpt lat="46.04968" lon="4.53201">
        <ele>867.2</ele>
        <time>2025-09-17T08:01:18Z</time>
      </trkpt>
      <trkpt lat="46.04968" lon="4.53202">
        <ele>867.6</ele>
        <time>2025-09-17T08:01:19Z</time>
      </trkpt>
      <trkpt lat="46.04968" lon="4.53203">
        <ele>867.8</ele>
        <time>2025-09-17T08:01:20Z</time>
      </trkpt>
      <trkpt lat="46.04969" lon="4.53204">
        <ele>868.2</ele>
        <time>2025-09-17T08:01:21Z</time>
      </trkpt>
      <trkpt lat="46.04969" lon="4.53205">
        <ele>868.2</ele>
        <time>2025-09-17T08:01:22Z</time>
      </trkpt>
      <trkpt lat="46.0497" lon="4.53206">
        <ele>868.4</ele>
        <time>2025-09-17T08:01:23Z</time>
      </trkpt>
      <trkpt lat="46.0497" lon="4.53207">
        <ele>868.4</ele>
        <time>2025-09-17T08:01:24Z</time>
      </trkpt>
      <trkpt lat="46.0497" lon="4.53208">
        <ele>868.8</ele>
        <time>2025-09-17T08:01:25Z</time>
      </trkpt>
      <trkpt lat="46.04971" lon="4.53209">
        <ele>869</ele>
        <time>2025-09-17T08:01:26Z</time>
      </trkpt>
      <trkpt lat="46.04972" lon="4.5321">
        <ele>869</ele>
        <time>2025-09-17T08:01:27Z</time>
      </trkpt>
      <trkpt lat="46.04972" lon="4.53211">
        <ele>869</ele>
        <time>2025-09-17T08:01:28Z</time>
      </trkpt>
      <trkpt lat="46.04972" lon="4.53212">
        <ele>869.4</ele>
        <time>2025-09-17T08:01:29Z</time>
      </trkpt>
      <trkpt lat="46.04973" lon="4.53213">
        <ele>869.4</ele>
        <time>2025-09-17T08:01:30Z</time>
      </trkpt>
      <trkpt lat="46.04973" lon="4.53214">
        <ele>869.8</ele>
        <time>2025-09-17T08:01:31Z</time>
      </trkpt>
      <trkpt lat="46.04973" lon="4.53215">
        <ele>869.8</ele>
        <time>2025-09-17T08:01:32Z</time>
      </trkpt>
      <trkpt lat="46.04974" lon="4.53217">
        <ele>870</ele>
        <time>2025-09-17T08:01:33Z</time>
      </trkpt>
      <trkpt lat="46.04974" lon="4.53218">
        <ele>870.2</ele>
        <time>2025-09-17T08:01:34Z</time>
      </trkpt>
      <trkpt lat="46.04975" lon="4.53219">
        <ele>870.2</ele>
        <time>2025-09-17T08:01:35Z</time>
      </trkpt>
      <trkpt lat="46.04975" lon="4.5322">
        <ele>870.6</ele>
        <time>2025-09-17T08:01:36Z</time>
      </trkpt>
      <trkpt lat="46.04975" lon="4.53221">
        <ele>871</ele>
        <time>2025-09-17T08:01:37Z</time>
      </trkpt>
      <trkpt lat="46.04976" lon="4.53222">
        <ele>871</ele>
        <time>2025-09-17T08:01:38Z</time>
      </trkpt>
      <trkpt lat="46.04976" lon="4.53224">
        <ele>871.2</ele>
        <time>2025-09-17T08:01:39Z</time>
      </trkpt>
      <trkpt lat="46.04977" lon="4.53225">
        <ele>871.2</ele>
        <time>2025-09-17T08:01:40Z</time>
      </trkpt>
      <trkpt lat="46.04977" lon="4.53226">
        <ele>871.6</ele>
        <time>2025-09-17T08:01:41Z</time>
      </trkpt>
      <trkpt lat="46.04977" lon="4.53226">
        <ele>871.6</ele>
        <time>2025-09-17T08:01:42Z</time>
      </trkpt>
      <trkpt lat="46.04977" lon="4.53227">
        <ele>871.8</ele>
        <time>2025-09-17T08:01:43Z</time>
      </trkpt>
      <trkpt lat="46.04978" lon="4.53229">
        <ele>872.2</ele>
        <time>2025-09-17T08:01:44Z</time>
      </trkpt>
      <trkpt lat="46.04979" lon="4.5323">
        <ele>872.4</ele>
        <time>2025-09-17T08:01:45Z</time>
      </trkpt>
      <trkpt lat="46.04979" lon="4.53232">
        <ele>872.4</ele>
        <time>2025-09-17T08:01:46Z</time>
      </trkpt>
      <trkpt lat="46.04979" lon="4.53233">
        <ele>872.6</ele>
        <time>2025-09-17T08:01:47Z</time>
      </trkpt>
      <trkpt lat="46.0498" lon="4.53234">
        <ele>872.8</ele>
        <time>2025-09-17T08:01:48Z</time>
      </trkpt>
      <trkpt lat="46.04981" lon="4.53235">
        <ele>872.8</ele>
        <time>2025-09-17T08:01:49Z</time>
      </trkpt>
      <trkpt lat="46.04981" lon="4.53236">
        <ele>873.4</ele>
        <time>2025-09-17T08:01:50Z</time>
      </trkpt>
      <trkpt lat="46.04982" lon="4.53238">
        <ele>873.6</ele>
        <time>2025-09-17T08:01:51Z</time>
      </trkpt>
      <trkpt lat="46.04983" lon="4.53239">
        <ele>873.6</ele>
        <time>2025-09-17T08:01:52Z</time>
      </trkpt>
      <trkpt lat="46.04983" lon="4.5324">
        <ele>873.8</ele>
        <time>2025-09-17T08:01:53Z</time>
      </trkpt>
      <trkpt lat="46.04983" lon="4.53242">
        <ele>873.8</ele>
        <time>2025-09-17T08:01:54Z</time>
      </trkpt>
      <trkpt lat="46.04984" lon="4.53243">
        <ele>874</ele>
        <time>2025-09-17T08:01:55Z</time>
      </trkpt>
      <trkpt lat="46.04984" lon="4.53245">
        <ele>874</ele>
        <time>2025-09-17T08:01:56Z</time>
      </trkpt>
      <trkpt lat="46.04984" lon="4.53247">
        <ele>874.4</ele>
        <time>2025-09-17T08:01:57Z</time>
      </trkpt>
      <trkpt lat="46.04984" lon="4.53248">
        <ele>874.6</ele>
        <time>2025-09-17T08:01:58Z</time>
      </trkpt>
      <trkpt lat="46.04985" lon="4.53249">
        <ele>874.6</ele>
        <time>2025-09-17T08:01:59Z</time>
      </trkpt>
      <trkpt lat="46.04985" lon="4.53251">
        <ele>874.6</ele>
        <time>2025-09-17T08:02:00Z</time>
      </trkpt>
      <trkpt lat="46.04986" lon="4.53252">
        <ele>874.6</ele>
        <time>2025-09-17T08:02:01Z</time>
      </trkpt>
      <trkpt lat="46.04986" lon="4.53253">
        <ele>874.6</ele>
        <time>2025-09-17T08:02:02Z</time>
      </trkpt>
      <trkpt lat="46.04987" lon="4.53255">
        <ele>874.6</ele>
        <time>2025-09-17T08:02:03Z</time>
      </trkpt>
      <trkpt lat="46.04987" lon="4.53256">
        <ele>875</ele>
        <time>2025-09-17T08:02:04Z</time>
      </trkpt>
      <trkpt lat="46.04987" lon="4.53257">
        <ele>875</ele>
        <time>2025-09-17T08:02:05Z</time>
      </trkpt>
      <trkpt lat="46.04988" lon="4.53257">
        <ele>875</ele>
        <time>2025-09-17T08:02:06Z</time>
      </trkpt>
      <trkpt lat="46.04989" lon="4.53258">
        <ele>875.2</ele>
        <time>2025-09-17T08:02:12Z</time>
      </trkpt>
      <trkpt lat="46.04989" lon="4.5326">
        <ele>875.6</ele>
        <time>2025-09-17T08:02:13Z</time>
      </trkpt>
      <trkpt lat="46.0499" lon="4.53261">
        <ele>875.6</ele>
        <time>2025-09-17T08:02:14Z</time>
      </trkpt>
      <trkpt lat="46.0499" lon="4.53262">
        <ele>875.6</ele>
        <time>2025-09-17T08:02:15Z</time>
      </trkpt>
      <trkpt lat="46.04991" lon="4.53263">
        <ele>876</ele>
        <time>2025-09-17T08:02:16Z</time>
      </trkpt>
      <trkpt lat="46.04991" lon="4.53264">
        <ele>876.2</ele>
        <time>2025-09-17T08:02:17Z</time>
      </trkpt>
      <trkpt lat="46.04992" lon="4.53265">
        <ele>876.2</ele>
        <time>2025-09-17T08:02:18Z</time>
      </trkpt>
      <trkpt lat="46.04993" lon="4.53266">
        <ele>876.6</ele>
        <time>2025-09-17T08:02:19Z</time>
      </trkpt>
      <trkpt lat="46.04993" lon="4.53267">
        <ele>876.6</ele>
        <time>2025-09-17T08:02:20Z</time>
      </trkpt>
      <trkpt lat="46.04994" lon="4.53268">
        <ele>877</ele>
        <time>2025-09-17T08:02:21Z</time>
      </trkpt>
      <trkpt lat="46.04994" lon="4.53269">
        <ele>877</ele>
        <time>2025-09-17T08:02:22Z</time>
      </trkpt>
      <trkpt lat="46.04995" lon="4.53271">
        <ele>877</ele>
        <time>2025-09-17T08:02:23Z</time>
      </trkpt>
      <trkpt lat="46.04995" lon="4.53272">
        <ele>877</ele>
        <time>2025-09-17T08:02:24Z</time>
      </trkpt>
      <trkpt lat="46.04996" lon="4.53273">
        <ele>877.4</ele>
        <time>2025-09-17T08:02:25Z</time>
      </trkpt>
      <trkpt lat="46.04996" lon="4.53274">
        <ele>877.6</ele>
        <time>2025-09-17T08:02:26Z</time>
      </trkpt>
      <trkpt lat="46.04996" lon="4.53276">
        <ele>877.6</ele>
        <time>2025-09-17T08:02:27Z</time>
      </trkpt>
      <trkpt lat="46.04997" lon="4.53277">
        <ele>878</ele>
        <time>2025-09-17T08:02:28Z</time>
      </trkpt>
      <trkpt lat="46.04997" lon="4.53279">
        <ele>878.2</ele>
        <time>2025-09-17T08:02:29Z</time>
      </trkpt>
      <trkpt lat="46.04997" lon="4.5328">
        <ele>878.2</ele>
        <time>2025-09-17T08:02:30Z</time>
      </trkpt>
      <trkpt lat="46.04998" lon="4.53281">
        <ele>878.2</ele>
        <time>2025-09-17T08:02:31Z</time>
      </trkpt>
      <trkpt lat="46.04998" lon="4.53283">
        <ele>878.4</ele>
        <time>2025-09-17T08:02:32Z</time>
      </trkpt>
      <trkpt lat="46.04999" lon="4.53284">
        <ele>878.4</ele>
        <time>2025-09-17T08:02:33Z</time>
      </trkpt>
      <trkpt lat="46.05001" lon="4.53285">
        <ele>878.4</ele>
        <time>2025-09-17T08:02:34Z</time>
      </trkpt>
      <trkpt lat="46.05002" lon="4.53286">
        <ele>878.8</ele>
        <time>2025-09-17T08:02:35Z</time>
      </trkpt>
      <trkpt lat="46.05003" lon="4.53287">
        <ele>878.8</ele>
        <time>2025-09-17T08:02:36Z</time>
      </trkpt>
      <trkpt lat="46.05004" lon="4.53288">
        <ele>878.8</ele>
        <time>2025-09-17T08:02:37Z</time>
      </trkpt>
      <trkpt lat="46.05005" lon="4.53289">
        <ele>878.8</ele>
        <time>2025-09-17T08:02:38Z</time>
      </trkpt>
      <trkpt lat="46.05005" lon="4.53291">
        <ele>879</ele>
        <time>2025-09-17T08:02:39Z</time>
      </trkpt>
      <trkpt lat="46.05005" lon="4.53292">
        <ele>879.4</ele>
        <time>2025-09-17T08:02:40Z</time>
      </trkpt>
      <trkpt lat="46.05006" lon="4.53293">
        <ele>879.4</ele>
        <time>2025-09-17T08:02:41Z</time>
      </trkpt>
      <trkpt lat="46.05006" lon="4.53294">
        <ele>879.4</ele>
        <time>2025-09-17T08:02:42Z</time>
      </trkpt>
      <trkpt lat="46.05006" lon="4.53296">
        <ele>879.8</ele>
        <time>2025-09-17T08:02:43Z</time>
      </trkpt>
      <trkpt lat="46.05006" lon="4.53297">
        <ele>879.8</ele>
        <time>2025-09-17T08:02:44Z</time>
      </trkpt>
      <trkpt lat="46.05007" lon="4.53298">
        <ele>879.8</ele>
        <time>2025-09-17T08:02:45Z</time>
      </trkpt>
      <trkpt lat="46.05007" lon="4.533">
        <ele>879.8</ele>
        <time>2025-09-17T08:02:46Z</time>
      </trkpt>
      <trkpt lat="46.05007" lon="4.53301">
        <ele>879.8</ele>
        <time>2025-09-17T08:02:47Z</time>
      </trkpt>
      <trkpt lat="46.05007" lon="4.53303">
        <ele>880</ele>
        <time>2025-09-17T08:02:48Z</time>
      </trkpt>
      <trkpt lat="46.05006" lon="4.53304">
        <ele>880</ele>
        <time>2025-09-17T08:02:49Z</time>
      </trkpt>
      <trkpt lat="46.05006" lon="4.53305">
        <ele>880</ele>
        <time>2025-09-17T08:02:50Z</time>
      </trkpt>
      <trkpt lat="46.05006" lon="4.53306">
        <ele>880.2</ele>
        <time>2025-09-17T08:02:51Z</time>
      </trkpt>
      <trkpt lat="46.05006" lon="4.53307">
        <ele>880.2</ele>
        <time>2025-09-17T08:02:52Z</time>
      </trkpt>
      <trkpt lat="46.05006" lon="4.53307">
        <ele>880.2</ele>
        <time>2025-09-17T08:02:53Z</time>
      </trkpt>
      <trkpt lat="46.05006" lon="4.53307">
        <ele>880.2</ele>
        <time>2025-09-17T08:02:54Z</time>
      </trkpt>
      <trkpt lat="46.05008" lon="4.53305">
        <ele>881.4</ele>
        <time>2025-09-17T08:09:57Z</time>
      </trkpt>
      <trkpt lat="46.05008" lon="4.53304">
        <ele>881.4</ele>
        <time>2025-09-17T08:09:58Z</time>
      </trkpt>
      <trkpt lat="46.05008" lon="4.53304">
        <ele>881.4</ele>
        <time>2025-09-17T08:09:59Z</time>
      </trkpt>
      <trkpt lat="46.05009" lon="4.53299">
        <ele>881.4</ele>
        <time>2025-09-17T08:10:01Z</time>
      </trkpt>
      <trkpt lat="46.05009" lon="4.53298">
        <ele>881.4</ele>
        <time>2025-09-17T08:10:02Z</time>
      </trkpt>
      <trkpt lat="46.05009" lon="4.53297">
        <ele>881.4</ele>
        <time>2025-09-17T08:10:03Z</time>
      </trkpt>
      <trkpt lat="46.05009" lon="4.53296">
        <ele>881.4</ele>
        <time>2025-09-17T08:10:04Z</time>
      </trkpt>
      <trkpt lat="46.05009" lon="4.53295">
        <ele>881.4</ele>
        <time>2025-09-17T08:10:05Z</time>
      </trkpt>
      <trkpt lat="46.05009" lon="4.53294">
        <ele>881.4</ele>
        <time>2025-09-17T08:10:06Z</time>
      </trkpt>
      <trkpt lat="46.05009" lon="4.53294">
        <ele>881.4</ele>
        <time>2025-09-17T08:10:07Z</time>
      </trkpt>
      <trkpt lat="46.05011" lon="4.53291">
        <ele>881.6</ele>
        <time>2025-09-17T08:10:12Z</time>
      </trkpt>
      <trkpt lat="46.05011" lon="4.53289">
        <ele>881.6</ele>
        <time>2025-09-17T08:10:13Z</time>
      </trkpt>
      <trkpt lat="46.05012" lon="4.53286">
        <ele>881.6</ele>
        <time>2025-09-17T08:10:14Z</time>
      </trkpt>
      <trkpt lat="46.05013" lon="4.53284">
        <ele>881.6</ele>
        <time>2025-09-17T08:10:15Z</time>
      </trkpt>
      <trkpt lat="46.05014" lon="4.53283">
        <ele>881.4</ele>
        <time>2025-09-17T08:10:16Z</time>
      </trkpt>
      <trkpt lat="46.05015" lon="4.53282">
        <ele>881.4</ele>
        <time>2025-09-17T08:10:17Z</time>
      </trkpt>
      <trkpt lat="46.05016" lon="4.53281">
        <ele>881</ele>
        <time>2025-09-17T08:10:18Z</time>
      </trkpt>
      <trkpt lat="46.05017" lon="4.5328">
        <ele>881</ele>
        <time>2025-09-17T08:10:19Z</time>
      </trkpt>
      <trkpt lat="46.05019" lon="4.53278">
        <ele>881</ele>
        <time>2025-09-17T08:10:20Z</time>
      </trkpt>
      <trkpt lat="46.0502" lon="4.53276">
        <ele>880.6</ele>
        <time>2025-09-17T08:10:21Z</time>
      </trkpt>
      <trkpt lat="46.05021" lon="4.53273">
        <ele>880.6</ele>
        <time>2025-09-17T08:10:22Z</time>
      </trkpt>
      <trkpt lat="46.05022" lon="4.5327">
        <ele>880.2</ele>
        <time>2025-09-17T08:10:23Z</time>
      </trkpt>
      <trkpt lat="46.05023" lon="4.53265">
        <ele>880.2</ele>
        <time>2025-09-17T08:10:24Z</time>
      </trkpt>
      <trkpt lat="46.05024" lon="4.53261">
        <ele>880.2</ele>
        <time>2025-09-17T08:10:25Z</time>
      </trkpt>
      <trkpt lat="46.05025" lon="4.53256">
        <ele>879.4</ele>
        <time>2025-09-17T08:10:26Z</time>
      </trkpt>
      <trkpt lat="46.05027" lon="4.53253">
        <ele>879</ele>
        <time>2025-09-17T08:10:27Z</time>
      </trkpt>
      <trkpt lat="46.05028" lon="4.5325">
        <ele>878.6</ele>
        <time>2025-09-17T08:10:28Z</time>
      </trkpt>
      <trkpt lat="46.05029" lon="4.53249">
        <ele>878.4</ele>
        <time>2025-09-17T08:10:29Z</time>
      </trkpt>
      <trkpt lat="46.05029" lon="4.53249">
        <ele>878.2</ele>
        <time>2025-09-17T08:10:30Z</time>
      </trkpt>
      <trkpt lat="46.05028" lon="4.53249">
        <ele>878.2</ele>
        <time>2025-09-17T08:10:31Z</time>
      </trkpt>
      <trkpt lat="46.0503" lon="4.53243">
        <ele>877.6</ele>
        <time>2025-09-17T08:10:38Z</time>
      </trkpt>
      <trkpt lat="46.05031" lon="4.53239">
        <ele>877.2</ele>
        <time>2025-09-17T08:10:39Z</time>
      </trkpt>
      <trkpt lat="46.05032" lon="4.53235">
        <ele>876.8</ele>
        <time>2025-09-17T08:10:40Z</time>
      </trkpt>
      <trkpt lat="46.05033" lon="4.53231">
        <ele>876.6</ele>
        <time>2025-09-17T08:10:41Z</time>
      </trkpt>
      <trkpt lat="46.05034" lon="4.53227">
        <ele>875.8</ele>
        <time>2025-09-17T08:10:42Z</time>
      </trkpt>
      <trkpt lat="46.05034" lon="4.53222">
        <ele>875.6</ele>
        <time>2025-09-17T08:10:43Z</time>
      </trkpt>
      <trkpt lat="46.05035" lon="4.5322">
        <ele>875.4</ele>
        <time>2025-09-17T08:10:44Z</time>
      </trkpt>
      <trkpt lat="46.05036" lon="4.53218">
        <ele>875</ele>
        <time>2025-09-17T08:10:45Z</time>
      </trkpt>
      <trkpt lat="46.05037" lon="4.53216">
        <ele>875</ele>
        <time>2025-09-17T08:10:46Z</time>
      </trkpt>
      <trkpt lat="46.05039" lon="4.53214">
        <ele>874.8</ele>
        <time>2025-09-17T08:10:47Z</time>
      </trkpt>
      <trkpt lat="46.0504" lon="4.53212">
        <ele>874.8</ele>
        <time>2025-09-17T08:10:48Z</time>
      </trkpt>
      <trkpt lat="46.0504" lon="4.53212">
        <ele>874.4</ele>
        <time>2025-09-17T08:10:49Z</time>
      </trkpt>
      <trkpt lat="46.05043" lon="4.53206">
        <ele>874</ele>
        <time>2025-09-17T08:10:50Z</time>
      </trkpt>
      <trkpt lat="46.05043" lon="4.53206">
        <ele>874</ele>
        <time>2025-09-17T08:10:51Z</time>
      </trkpt>
      <trkpt lat="46.05045" lon="4.53204">
        <ele>873.6</ele>
        <time>2025-09-17T08:10:52Z</time>
      </trkpt>
      <trkpt lat="46.05047" lon="4.53202">
        <ele>873</ele>
        <time>2025-09-17T08:10:53Z</time>
      </trkpt>
      <trkpt lat="46.05049" lon="4.53201">
        <ele>872.6</ele>
        <time>2025-09-17T08:10:54Z</time>
      </trkpt>
      <trkpt lat="46.05051" lon="4.53199">
        <ele>872</ele>
        <time>2025-09-17T08:10:55Z</time>
      </trkpt>
      <trkpt lat="46.05054" lon="4.53197">
        <ele>871.8</ele>
        <time>2025-09-17T08:10:56Z</time>
      </trkpt>
      <trkpt lat="46.05057" lon="4.53195">
        <ele>871.8</ele>
        <time>2025-09-17T08:10:57Z</time>
      </trkpt>
      <trkpt lat="46.05059" lon="4.53193">
        <ele>871.4</ele>
        <time>2025-09-17T08:10:58Z</time>
      </trkpt>
      <trkpt lat="46.05061" lon="4.53191">
        <ele>871.2</ele>
        <time>2025-09-17T08:10:59Z</time>
      </trkpt>
      <trkpt lat="46.05061" lon="4.53191">
        <ele>870.8</ele>
        <time>2025-09-17T08:11:00Z</time>
      </trkpt>
      <trkpt lat="46.05064" lon="4.53185">
        <ele>870.4</ele>
        <time>2025-09-17T08:11:01Z</time>
      </trkpt>
      <trkpt lat="46.05065" lon="4.53183">
        <ele>870.2</ele>
        <time>2025-09-17T08:11:02Z</time>
      </trkpt>
      <trkpt lat="46.05065" lon="4.53182">
        <ele>870</ele>
        <time>2025-09-17T08:11:03Z</time>
      </trkpt>
      <trkpt lat="46.05065" lon="4.53181">
        <ele>869.8</ele>
        <time>2025-09-17T08:11:04Z</time>
      </trkpt>
      <trkpt lat="46.05066" lon="4.53179">
        <ele>869.8</ele>
        <time>2025-09-17T08:11:05Z</time>
      </trkpt>
      <trkpt lat="46.05066" lon="4.53177">
        <ele>869.8</ele>
        <time>2025-09-17T08:11:06Z</time>
      </trkpt>
      <trkpt lat="46.05067" lon="4.53174">
        <ele>869.4</ele>
        <time>2025-09-17T08:11:07Z</time>
      </trkpt>
      <trkpt lat="46.05068" lon="4.53171">
        <ele>869</ele>
        <time>2025-09-17T08:11:08Z</time>
      </trkpt>
      <trkpt lat="46.0507" lon="4.53168">
        <ele>869</ele>
        <time>2025-09-17T08:11:09Z</time>
      </trkpt>
      <trkpt lat="46.05072" lon="4.53165">
        <ele>869</ele>
        <time>2025-09-17T08:11:10Z</time>
      </trkpt>
      <trkpt lat="46.05074" lon="4.53162">
        <ele>868.2</ele>
        <time>2025-09-17T08:11:11Z</time>
      </trkpt>
      <trkpt lat="46.05076" lon="4.5316">
        <ele>868</ele>
        <time>2025-09-17T08:11:12Z</time>
      </trkpt>
      <trkpt lat="46.05078" lon="4.53158">
        <ele>867.8</ele>
        <time>2025-09-17T08:11:13Z</time>
      </trkpt>
      <trkpt lat="46.0508" lon="4.53156">
        <ele>867.6</ele>
        <time>2025-09-17T08:11:14Z</time>
      </trkpt>
      <trkpt lat="46.05082" lon="4.53155">
        <ele>866.8</ele>
        <time>2025-09-17T08:11:15Z</time>
      </trkpt>
      <trkpt lat="46.05084" lon="4.53153">
        <ele>866.8</ele>
        <time>2025-09-17T08:11:16Z</time>
      </trkpt>
      <trkpt lat="46.05086" lon="4.53151">
        <ele>866.4</ele>
        <time>2025-09-17T08:11:17Z</time>
      </trkpt>
      <trkpt lat="46.05089" lon="4.53149">
        <ele>866.4</ele>
        <time>2025-09-17T08:11:18Z</time>
      </trkpt>
      <trkpt lat="46.05092" lon="4.53148">
        <ele>866</ele>
        <time>2025-09-17T08:11:19Z</time>
      </trkpt>
      <trkpt lat="46.05095" lon="4.53147">
        <ele>865.6</ele>
        <time>2025-09-17T08:11:20Z</time>
      </trkpt>
      <trkpt lat="46.05099" lon="4.53146">
        <ele>865.2</ele>
        <time>2025-09-17T08:11:21Z</time>
      </trkpt>
      <trkpt lat="46.05103" lon="4.53146">
        <ele>864.8</ele>
        <time>2025-09-17T08:11:22Z</time>
      </trkpt>
      <trkpt lat="46.05107" lon="4.53146">
        <ele>864.4</ele>
        <time>2025-09-17T08:11:23Z</time>
      </trkpt>
      <trkpt lat="46.0511" lon="4.53147">
        <ele>864</ele>
        <time>2025-09-17T08:11:24Z</time>
      </trkpt>
      <trkpt lat="46.05114" lon="4.53148">
        <ele>864</ele>
        <time>2025-09-17T08:11:25Z</time>
      </trkpt>
      <trkpt lat="46.05117" lon="4.53149">
        <ele>863.4</ele>
        <time>2025-09-17T08:11:26Z</time>
      </trkpt>
      <trkpt lat="46.0512" lon="4.5315">
        <ele>862.8</ele>
        <time>2025-09-17T08:11:27Z</time>
      </trkpt>
      <trkpt lat="46.05123" lon="4.53152">
        <ele>862.6</ele>
        <time>2025-09-17T08:11:28Z</time>
      </trkpt>
      <trkpt lat="46.05125" lon="4.53154">
        <ele>862.2</ele>
        <time>2025-09-17T08:11:29Z</time>
      </trkpt>
      <trkpt lat="46.05128" lon="4.53156">
        <ele>862.2</ele>
        <time>2025-09-17T08:11:30Z</time>
      </trkpt>
      <trkpt lat="46.0513" lon="4.53158">
        <ele>862.2</ele>
        <time>2025-09-17T08:11:31Z</time>
      </trkpt>
      <trkpt lat="46.05131" lon="4.5316">
        <ele>861.8</ele>
        <time>2025-09-17T08:11:32Z</time>
      </trkpt>
      <trkpt lat="46.05133" lon="4.53161">
        <ele>861.6</ele>
        <time>2025-09-17T08:11:33Z</time>
      </trkpt>
      <trkpt lat="46.05135" lon="4.53163">
        <ele>861.4</ele>
        <time>2025-09-17T08:11:34Z</time>
      </trkpt>
      <trkpt lat="46.05137" lon="4.53164">
        <ele>861</ele>
        <time>2025-09-17T08:11:35Z</time>
      </trkpt>
      <trkpt lat="46.05138" lon="4.53165">
        <ele>861</ele>
        <time>2025-09-17T08:11:36Z</time>
      </trkpt>
      <trkpt lat="46.05138" lon="4.53165">
        <ele>860.2</ele>
        <time>2025-09-17T08:11:37Z</time>
      </trkpt>
      <trkpt lat="46.0514" lon="4.53163">
        <ele>860.2</ele>
        <time>2025-09-17T08:11:48Z</time>
      </trkpt>
      <trkpt lat="46.05142" lon="4.53162">
        <ele>860.2</ele>
        <time>2025-09-17T08:11:49Z</time>
      </trkpt>
      <trkpt lat="46.05143" lon="4.53161">
        <ele>860</ele>
        <time>2025-09-17T08:11:50Z</time>
      </trkpt>
      <trkpt lat="46.05144" lon="4.53158">
        <ele>860</ele>
        <time>2025-09-17T08:11:51Z</time>
      </trkpt>
      <trkpt lat="46.05145" lon="4.53155">
        <ele>859.6</ele>
        <time>2025-09-17T08:11:52Z</time>
      </trkpt>
      <trkpt lat="46.05147" lon="4.53151">
        <ele>859.6</ele>
        <time>2025-09-17T08:11:53Z</time>
      </trkpt>
      <trkpt lat="46.05148" lon="4.53147">
        <ele>859.6</ele>
        <time>2025-09-17T08:11:54Z</time>
      </trkpt>
      <trkpt lat="46.05149" lon="4.53143">
        <ele>859</ele>
        <time>2025-09-17T08:11:55Z</time>
      </trkpt>
      <trkpt lat="46.05151" lon="4.5314">
        <ele>858.6</ele>
        <time>2025-09-17T08:11:56Z</time>
      </trkpt>
      <trkpt lat="46.05154" lon="4.53136">
        <ele>858.4</ele>
        <time>2025-09-17T08:11:57Z</time>
      </trkpt>
      <trkpt lat="46.05156" lon="4.53132">
        <ele>858.4</ele>
        <time>2025-09-17T08:11:58Z</time>
      </trkpt>
      <trkpt lat="46.05159" lon="4.53128">
        <ele>857.6</ele>
        <time>2025-09-17T08:11:59Z</time>
      </trkpt>
      <trkpt lat="46.05161" lon="4.53125">
        <ele>857.2</ele>
        <time>2025-09-17T08:12:00Z</time>
      </trkpt>
      <trkpt lat="46.05163" lon="4.53122">
        <ele>856.2</ele>
        <time>2025-09-17T08:12:01Z</time>
      </trkpt>
      <trkpt lat="46.05166" lon="4.53119">
        <ele>856</ele>
        <time>2025-09-17T08:12:02Z</time>
      </trkpt>
      <trkpt lat="46.05168" lon="4.53116">
        <ele>855.6</ele>
        <time>2025-09-17T08:12:03Z</time>
      </trkpt>
      <trkpt lat="46.0517" lon="4.53114">
        <ele>855</ele>
        <time>2025-09-17T08:12:04Z</time>
      </trkpt>
      <trkpt lat="46.05173" lon="4.5311">
        <ele>854.4</ele>
        <time>2025-09-17T08:12:05Z</time>
      </trkpt>
      <trkpt lat="46.05176" lon="4.53106">
        <ele>853.8</ele>
        <time>2025-09-17T08:12:06Z</time>
      </trkpt>
      <trkpt lat="46.05178" lon="4.53102">
        <ele>853.2</ele>
        <time>2025-09-17T08:12:07Z</time>
      </trkpt>
      <trkpt lat="46.05181" lon="4.53098">
        <ele>852.6</ele>
        <time>2025-09-17T08:12:08Z</time>
      </trkpt>
      <trkpt lat="46.05182" lon="4.53095">
        <ele>852</ele>
        <time>2025-09-17T08:12:09Z</time>
      </trkpt>
      <trkpt lat="46.05183" lon="4.53093">
        <ele>851.6</ele>
        <time>2025-09-17T08:12:10Z</time>
      </trkpt>
      <trkpt lat="46.05184" lon="4.53092">
        <ele>851</ele>
        <time>2025-09-17T08:12:11Z</time>
      </trkpt>
      <trkpt lat="46.05186" lon="4.5309">
        <ele>851</ele>
        <time>2025-09-17T08:12:12Z</time>
      </trkpt>
      <trkpt lat="46.05189" lon="4.53089">
        <ele>850.6</ele>
        <time>2025-09-17T08:12:13Z</time>
      </trkpt>
      <trkpt lat="46.0519" lon="4.53087">
        <ele>849.8</ele>
        <time>2025-09-17T08:12:14Z</time>
      </trkpt>
      <trkpt lat="46.05191" lon="4.53085">
        <ele>849.4</ele>
        <time>2025-09-17T08:12:15Z</time>
      </trkpt>
      <trkpt lat="46.05193" lon="4.53083">
        <ele>849.4</ele>
        <time>2025-09-17T08:12:16Z</time>
      </trkpt>
      <trkpt lat="46.05194" lon="4.53082">
        <ele>849</ele>
        <time>2025-09-17T08:12:17Z</time>
      </trkpt>
      <trkpt lat="46.05196" lon="4.5308">
        <ele>848.4</ele>
        <time>2025-09-17T08:12:18Z</time>
      </trkpt>
      <trkpt lat="46.05197" lon="4.53078">
        <ele>848.2</ele>
        <time>2025-09-17T08:12:19Z</time>
      </trkpt>
      <trkpt lat="46.05199" lon="4.53076">
        <ele>848</ele>
        <time>2025-09-17T08:12:20Z</time>
      </trkpt>
      <trkpt lat="46.05201" lon="4.53074">
        <ele>847.6</ele>
        <time>2025-09-17T08:12:21Z</time>
      </trkpt>
      <trkpt lat="46.05202" lon="4.53072">
        <ele>847.6</ele>
        <time>2025-09-17T08:12:22Z</time>
      </trkpt>
      <trkpt lat="46.05206" lon="4.53066">
        <ele>846.8</ele>
        <time>2025-09-17T08:12:23Z</time>
      </trkpt>
      <trkpt lat="46.05208" lon="4.53063">
        <ele>846.4</ele>
        <time>2025-09-17T08:12:24Z</time>
      </trkpt>
      <trkpt lat="46.05211" lon="4.53059">
        <ele>846</ele>
        <time>2025-09-17T08:12:25Z</time>
      </trkpt>
      <trkpt lat="46.05214" lon="4.53056">
        <ele>845.6</ele>
        <time>2025-09-17T08:12:26Z</time>
      </trkpt>
      <trkpt lat="46.05216" lon="4.53051">
        <ele>845.2</ele>
        <time>2025-09-17T08:12:27Z</time>
      </trkpt>
      <trkpt lat="46.05217" lon="4.53047">
        <ele>844.6</ele>
        <time>2025-09-17T08:12:28Z</time>
      </trkpt>
      <trkpt lat="46.05219" lon="4.53043">
        <ele>844.8</ele>
        <time>2025-09-17T08:12:29Z</time>
      </trkpt>
      <trkpt lat="46.05221" lon="4.53042">
        <ele>844.8</ele>
        <time>2025-09-17T08:12:30Z</time>
      </trkpt>
      <trkpt lat="46.05222" lon="4.53039">
        <ele>844.4</ele>
        <time>2025-09-17T08:12:31Z</time>
      </trkpt>
      <trkpt lat="46.05222" lon="4.53039">
        <ele>844.2</ele>
        <time>2025-09-17T08:12:32Z</time>
      </trkpt>
      <trkpt lat="46.05221" lon="4.53039">
        <ele>844</ele>
        <time>2025-09-17T08:12:33Z</time>
      </trkpt>
      <trkpt lat="46.05221" lon="4.53038">
        <ele>844</ele>
        <time>2025-09-17T08:12:34Z</time>
      </trkpt>
      <trkpt lat="46.05222" lon="4.53038">
        <ele>843.6</ele>
        <time>2025-09-17T08:12:44Z</time>
      </trkpt>
      <trkpt lat="46.05223" lon="4.53036">
        <ele>843.4</ele>
        <time>2025-09-17T08:12:45Z</time>
      </trkpt>
      <trkpt lat="46.05225" lon="4.53034">
        <ele>843</ele>
        <time>2025-09-17T08:12:46Z</time>
      </trkpt>
      <trkpt lat="46.05227" lon="4.53032">
        <ele>842.6</ele>
        <time>2025-09-17T08:12:47Z</time>
      </trkpt>
      <trkpt lat="46.05229" lon="4.53031">
        <ele>842.2</ele>
        <time>2025-09-17T08:12:48Z</time>
      </trkpt>
      <trkpt lat="46.05232" lon="4.53029">
        <ele>841.8</ele>
        <time>2025-09-17T08:12:49Z</time>
      </trkpt>
      <trkpt lat="46.05234" lon="4.53027">
        <ele>841.6</ele>
        <time>2025-09-17T08:12:50Z</time>
      </trkpt>
      <trkpt lat="46.05236" lon="4.53025">
        <ele>841.4</ele>
        <time>2025-09-17T08:12:51Z</time>
      </trkpt>
      <trkpt lat="46.05238" lon="4.53023">
        <ele>840.4</ele>
        <time>2025-09-17T08:12:52Z</time>
      </trkpt>
      <trkpt lat="46.0524" lon="4.53021">
        <ele>840</ele>
        <time>2025-09-17T08:12:53Z</time>
      </trkpt>
      <trkpt lat="46.05242" lon="4.53019">
        <ele>839.4</ele>
        <time>2025-09-17T08:12:54Z</time>
      </trkpt>
      <trkpt lat="46.05245" lon="4.53016">
        <ele>838.8</ele>
        <time>2025-09-17T08:12:55Z</time>
      </trkpt>
      <trkpt lat="46.05248" lon="4.53012">
        <ele>838.4</ele>
        <time>2025-09-17T08:12:56Z</time>
      </trkpt>
      <trkpt lat="46.05252" lon="4.53009">
        <ele>838</ele>
        <time>2025-09-17T08:12:57Z</time>
      </trkpt>
      <trkpt lat="46.05254" lon="4.53007">
        <ele>837.4</ele>
        <time>2025-09-17T08:12:58Z</time>
      </trkpt>
      <trkpt lat="46.05256" lon="4.53003">
        <ele>837</ele>
        <time>2025-09-17T08:12:59Z</time>
      </trkpt>
      <trkpt lat="46.05258" lon="4.52998">
        <ele>837</ele>
        <time>2025-09-17T08:13:00Z</time>
      </trkpt>
      <trkpt lat="46.05259" lon="4.52993">
        <ele>836.6</ele>
        <time>2025-09-17T08:13:01Z</time>
      </trkpt>
      <trkpt lat="46.05259" lon="4.52988">
        <ele>836.6</ele>
        <time>2025-09-17T08:13:02Z</time>
      </trkpt>
      <trkpt lat="46.05258" lon="4.52983">
        <ele>836.4</ele>
        <time>2025-09-17T08:13:03Z</time>
      </trkpt>
      <trkpt lat="46.05256" lon="4.52979">
        <ele>836.4</ele>
        <time>2025-09-17T08:13:04Z</time>
      </trkpt>
      <trkpt lat="46.05255" lon="4.52979">
        <ele>836.4</ele>
        <time>2025-09-17T08:13:05Z</time>
      </trkpt>
      <trkpt lat="46.05254" lon="4.52979">
        <ele>836</ele>
        <time>2025-09-17T08:13:06Z</time>
      </trkpt>
      <trkpt lat="46.05253" lon="4.52979">
        <ele>836</ele>
        <time>2025-09-17T08:13:07Z</time>
      </trkpt>
      <trkpt lat="46.05254" lon="4.52973">
        <ele>836</ele>
        <time>2025-09-17T08:13:22Z</time>
      </trkpt>
      <trkpt lat="46.05255" lon="4.52973">
        <ele>836</ele>
        <time>2025-09-17T08:13:23Z</time>
      </trkpt>
      <trkpt lat="46.05257" lon="4.52973">
        <ele>836</ele>
        <time>2025-09-17T08:13:24Z</time>
      </trkpt>
      <trkpt lat="46.0526" lon="4.52974">
        <ele>836</ele>
        <time>2025-09-17T08:13:25Z</time>
      </trkpt>
      <trkpt lat="46.05264" lon="4.52975">
        <ele>835.4</ele>
        <time>2025-09-17T08:13:26Z</time>
      </trkpt>
      <trkpt lat="46.05268" lon="4.52974">
        <ele>835</ele>
        <time>2025-09-17T08:13:27Z</time>
      </trkpt>
      <trkpt lat="46.05271" lon="4.52972">
        <ele>835</ele>
        <time>2025-09-17T08:13:28Z</time>
      </trkpt>
      <trkpt lat="46.05275" lon="4.52969">
        <ele>835</ele>
        <time>2025-09-17T08:13:29Z</time>
      </trkpt>
      <trkpt lat="46.05278" lon="4.52965">
        <ele>834.4</ele>
        <time>2025-09-17T08:13:30Z</time>
      </trkpt>
      <trkpt lat="46.0528" lon="4.52961">
        <ele>834</ele>
        <time>2025-09-17T08:13:31Z</time>
      </trkpt>
      <trkpt lat="46.05283" lon="4.52955">
        <ele>833.4</ele>
        <time>2025-09-17T08:13:32Z</time>
      </trkpt>
      <trkpt lat="46.05285" lon="4.52947">
        <ele>833.4</ele>
        <time>2025-09-17T08:13:33Z</time>
      </trkpt>
      <trkpt lat="46.05287" lon="4.52941">
        <ele>833.8</ele>
        <time>2025-09-17T08:13:34Z</time>
      </trkpt>
      <trkpt lat="46.05287" lon="4.52937">
        <ele>833.8</ele>
        <time>2025-09-17T08:13:35Z</time>
      </trkpt>
      <trkpt lat="46.05291" lon="4.52932">
        <ele>833.4</ele>
        <time>2025-09-17T08:13:36Z</time>
      </trkpt>
      <trkpt lat="46.05292" lon="4.52928">
        <ele>833</ele>
        <time>2025-09-17T08:13:37Z</time>
      </trkpt>
      <trkpt lat="46.05293" lon="4.52922">
        <ele>833</ele>
        <time>2025-09-17T08:13:38Z</time>
      </trkpt>
      <trkpt lat="46.05294" lon="4.52918">
        <ele>832.6</ele>
        <time>2025-09-17T08:13:39Z</time>
      </trkpt>
      <trkpt lat="46.05294" lon="4.52914">
        <ele>832.6</ele>
        <time>2025-09-17T08:13:40Z</time>
      </trkpt>
      <trkpt lat="46.05294" lon="4.52914">
        <ele>832.2</ele>
        <time>2025-09-17T08:13:41Z</time>
      </trkpt>
      <trkpt lat="46.05294" lon="4.52913">
        <ele>832.2</ele>
        <time>2025-09-17T08:13:42Z</time>
      </trkpt>
      <trkpt lat="46.05294" lon="4.52913">
        <ele>832</ele>
        <time>2025-09-17T08:13:43Z</time>
      </trkpt>
      <trkpt lat="46.05296" lon="4.52907">
        <ele>831.6</ele>
        <time>2025-09-17T08:13:48Z</time>
      </trkpt>
      <trkpt lat="46.05298" lon="4.52904">
        <ele>831.6</ele>
        <time>2025-09-17T08:13:49Z</time>
      </trkpt>
      <trkpt lat="46.05299" lon="4.52901">
        <ele>831.6</ele>
        <time>2025-09-17T08:13:50Z</time>
      </trkpt>
      <trkpt lat="46.05299" lon="4.52899">
        <ele>831.2</ele>
        <time>2025-09-17T08:13:51Z</time>
      </trkpt>
      <trkpt lat="46.05299" lon="4.52896">
        <ele>831</ele>
        <time>2025-09-17T08:13:52Z</time>
      </trkpt>
      <trkpt lat="46.05299" lon="4.52892">
        <ele>831</ele>
        <time>2025-09-17T08:13:53Z</time>
      </trkpt>
      <trkpt lat="46.05299" lon="4.52888">
        <ele>830.4</ele>
        <time>2025-09-17T08:13:54Z</time>
      </trkpt>
      <trkpt lat="46.05299" lon="4.52882">
        <ele>830</ele>
        <time>2025-09-17T08:13:55Z</time>
      </trkpt>
      <trkpt lat="46.053" lon="4.52874">
        <ele>830</ele>
        <time>2025-09-17T08:13:56Z</time>
      </trkpt>
      <trkpt lat="46.05302" lon="4.5287">
        <ele>828.6</ele>
        <time>2025-09-17T08:13:57Z</time>
      </trkpt>
      <trkpt lat="46.05304" lon="4.52865">
        <ele>828.6</ele>
        <time>2025-09-17T08:13:58Z</time>
      </trkpt>
      <trkpt lat="46.05306" lon="4.52858">
        <ele>829</ele>
        <time>2025-09-17T08:13:59Z</time>
      </trkpt>
      <trkpt lat="46.05309" lon="4.52853">
        <ele>828.2</ele>
        <time>2025-09-17T08:14:00Z</time>
      </trkpt>
      <trkpt lat="46.05311" lon="4.52846">
        <ele>827.8</ele>
        <time>2025-09-17T08:14:01Z</time>
      </trkpt>
      <trkpt lat="46.05312" lon="4.52839">
        <ele>827.8</ele>
        <time>2025-09-17T08:14:02Z</time>
      </trkpt>
      <trkpt lat="46.05315" lon="4.52834">
        <ele>827.2</ele>
        <time>2025-09-17T08:14:03Z</time>
      </trkpt>
      <trkpt lat="46.05316" lon="4.52829">
        <ele>826.6</ele>
        <time>2025-09-17T08:14:04Z</time>
      </trkpt>
      <trkpt lat="46.05317" lon="4.52823">
        <ele>826.4</ele>
        <time>2025-09-17T08:14:05Z</time>
      </trkpt>
      <trkpt lat="46.05318" lon="4.52817">
        <ele>826</ele>
        <time>2025-09-17T08:14:06Z</time>
      </trkpt>
      <trkpt lat="46.05321" lon="4.5281">
        <ele>825.8</ele>
        <time>2025-09-17T08:14:07Z</time>
      </trkpt>
      <trkpt lat="46.05322" lon="4.52804">
        <ele>825.8</ele>
        <time>2025-09-17T08:14:08Z</time>
      </trkpt>
      <trkpt lat="46.05324" lon="4.52797">
        <ele>825.6</ele>
        <time>2025-09-17T08:14:09Z</time>
      </trkpt>
      <trkpt lat="46.05325" lon="4.5279">
        <ele>825.2</ele>
        <time>2025-09-17T08:14:10Z</time>
      </trkpt>
      <trkpt lat="46.05327" lon="4.52783">
        <ele>824.6</ele>
        <time>2025-09-17T08:14:11Z</time>
      </trkpt>
      <trkpt lat="46.05328" lon="4.52777">
        <ele>824.6</ele>
        <time>2025-09-17T08:14:12Z</time>
      </trkpt>
      <trkpt lat="46.0533" lon="4.52772">
        <ele>824.6</ele>
        <time>2025-09-17T08:14:13Z</time>
      </trkpt>
      <trkpt lat="46.05331" lon="4.52769">
        <ele>824.6</ele>
        <time>2025-09-17T08:14:14Z</time>
      </trkpt>
      <trkpt lat="46.05333" lon="4.52764">
        <ele>824.2</ele>
        <time>2025-09-17T08:14:15Z</time>
      </trkpt>
      <trkpt lat="46.05335" lon="4.52761">
        <ele>824.2</ele>
        <time>2025-09-17T08:14:16Z</time>
      </trkpt>
      <trkpt lat="46.05336" lon="4.52755">
        <ele>824.6</ele>
        <time>2025-09-17T08:14:17Z</time>
      </trkpt>
      <trkpt lat="46.05338" lon="4.52752">
        <ele>823.8</ele>
        <time>2025-09-17T08:14:18Z</time>
      </trkpt>
      <trkpt lat="46.05339" lon="4.52747">
        <ele>823.4</ele>
        <time>2025-09-17T08:14:19Z</time>
      </trkpt>
      <trkpt lat="46.05339" lon="4.52743">
        <ele>822.6</ele>
        <time>2025-09-17T08:14:20Z</time>
      </trkpt>
      <trkpt lat="46.0534" lon="4.5274">
        <ele>822.6</ele>
        <time>2025-09-17T08:14:21Z</time>
      </trkpt>
      <trkpt lat="46.0534" lon="4.52736">
        <ele>822.4</ele>
        <time>2025-09-17T08:14:22Z</time>
      </trkpt>
      <trkpt lat="46.05341" lon="4.52732">
        <ele>822.2</ele>
        <time>2025-09-17T08:14:23Z</time>
      </trkpt>
      <trkpt lat="46.05342" lon="4.52729">
        <ele>821.8</ele>
        <time>2025-09-17T08:14:24Z</time>
      </trkpt>
      <trkpt lat="46.05342" lon="4.52726">
        <ele>821.8</ele>
        <time>2025-09-17T08:14:25Z</time>
      </trkpt>
      <trkpt lat="46.05343" lon="4.52724">
        <ele>821.8</ele>
        <time>2025-09-17T08:14:26Z</time>
      </trkpt>
      <trkpt lat="46.05344" lon="4.52721">
        <ele>821.8</ele>
        <time>2025-09-17T08:14:27Z</time>
      </trkpt>
      <trkpt lat="46.05345" lon="4.52718">
        <ele>821.2</ele>
        <time>2025-09-17T08:14:28Z</time>
      </trkpt>
      <trkpt lat="46.05347" lon="4.52715">
        <ele>821.2</ele>
        <time>2025-09-17T08:14:29Z</time>
      </trkpt>
      <trkpt lat="46.05348" lon="4.52712">
        <ele>821</ele>
        <time>2025-09-17T08:14:30Z</time>
      </trkpt>
      <trkpt lat="46.05349" lon="4.5271">
        <ele>820.4</ele>
        <time>2025-09-17T08:14:31Z</time>
      </trkpt>
      <trkpt lat="46.05351" lon="4.52708">
        <ele>819.8</ele>
        <time>2025-09-17T08:14:32Z</time>
      </trkpt>
      <trkpt lat="46.05353" lon="4.52704">
        <ele>819.2</ele>
        <time>2025-09-17T08:14:33Z</time>
      </trkpt>
      <trkpt lat="46.05355" lon="4.52702">
        <ele>819</ele>
        <time>2025-09-17T08:14:34Z</time>
      </trkpt>
      <trkpt lat="46.05356" lon="4.527">
        <ele>818.4</ele>
        <time>2025-09-17T08:14:35Z</time>
      </trkpt>
      <trkpt lat="46.05358" lon="4.52698">
        <ele>818.4</ele>
        <time>2025-09-17T08:14:36Z</time>
      </trkpt>
      <trkpt lat="46.05358" lon="4.52696">
        <ele>818.4</ele>
        <time>2025-09-17T08:14:37Z</time>
      </trkpt>
      <trkpt lat="46.05359" lon="4.52694">
        <ele>817.8</ele>
        <time>2025-09-17T08:14:38Z</time>
      </trkpt>
      <trkpt lat="46.05359" lon="4.52694">
        <ele>817.4</ele>
        <time>2025-09-17T08:14:39Z</time>
      </trkpt>
      <trkpt lat="46.05359" lon="4.52693">
        <ele>817.2</ele>
        <time>2025-09-17T08:14:40Z</time>
      </trkpt>
      <trkpt lat="46.05359" lon="4.52692">
        <ele>816</ele>
        <time>2025-09-17T08:15:04Z</time>
      </trkpt>
      <trkpt lat="46.0536" lon="4.5269">
        <ele>815.8</ele>
        <time>2025-09-17T08:15:05Z</time>
      </trkpt>
      <trkpt lat="46.05361" lon="4.52688">
        <ele>815.8</ele>
        <time>2025-09-17T08:15:06Z</time>
      </trkpt>
      <trkpt lat="46.05363" lon="4.52686">
        <ele>815.8</ele>
        <time>2025-09-17T08:15:07Z</time>
      </trkpt>
      <trkpt lat="46.05364" lon="4.52685">
        <ele>815.2</ele>
        <time>2025-09-17T08:15:08Z</time>
      </trkpt>
      <trkpt lat="46.05365" lon="4.52683">
        <ele>814.8</ele>
        <time>2025-09-17T08:15:09Z</time>
      </trkpt>
      <trkpt lat="46.05366" lon="4.52681">
        <ele>814.2</ele>
        <time>2025-09-17T08:15:10Z</time>
      </trkpt>
      <trkpt lat="46.05368" lon="4.52679">
        <ele>814</ele>
        <time>2025-09-17T08:15:11Z</time>
      </trkpt>
      <trkpt lat="46.05369" lon="4.52677">
        <ele>813.8</ele>
        <time>2025-09-17T08:15:12Z</time>
      </trkpt>
      <trkpt lat="46.0537" lon="4.52676">
        <ele>813.2</ele>
        <time>2025-09-17T08:15:13Z</time>
      </trkpt>
      <trkpt lat="46.05371" lon="4.52674">
        <ele>813</ele>
        <time>2025-09-17T08:15:14Z</time>
      </trkpt>
      <trkpt lat="46.05372" lon="4.52673">
        <ele>812.8</ele>
        <time>2025-09-17T08:15:15Z</time>
      </trkpt>
      <trkpt lat="46.05373" lon="4.52671">
        <ele>812.4</ele>
        <time>2025-09-17T08:15:16Z</time>
      </trkpt>
      <trkpt lat="46.05374" lon="4.52669">
        <ele>812</ele>
        <time>2025-09-17T08:15:17Z</time>
      </trkpt>
      <trkpt lat="46.05375" lon="4.52668">
        <ele>811</ele>
        <time>2025-09-17T08:15:18Z</time>
      </trkpt>
      <trkpt lat="46.05375" lon="4.52667">
        <ele>810.4</ele>
        <time>2025-09-17T08:15:19Z</time>
      </trkpt>
      <trkpt lat="46.05375" lon="4.52666">
        <ele>810.4</ele>
        <time>2025-09-17T08:15:20Z</time>
      </trkpt>
      <trkpt lat="46.05375" lon="4.52664">
        <ele>810</ele>
        <time>2025-09-17T08:15:21Z</time>
      </trkpt>
      <trkpt lat="46.05376" lon="4.52662">
        <ele>809.6</ele>
        <time>2025-09-17T08:15:22Z</time>
      </trkpt>
      <trkpt lat="46.05376" lon="4.5266">
        <ele>809.2</ele>
        <time>2025-09-17T08:15:23Z</time>
      </trkpt>
      <trkpt lat="46.05376" lon="4.52658">
        <ele>808.8</ele>
        <time>2025-09-17T08:15:24Z</time>
      </trkpt>
      <trkpt lat="46.05377" lon="4.52657">
        <ele>808.6</ele>
        <time>2025-09-17T08:15:25Z</time>
      </trkpt>
      <trkpt lat="46.05377" lon="4.52654">
        <ele>808</ele>
        <time>2025-09-17T08:15:26Z</time>
      </trkpt>
      <trkpt lat="46.05378" lon="4.52652">
        <ele>807.4</ele>
        <time>2025-09-17T08:15:27Z</time>
      </trkpt>
      <trkpt lat="46.05379" lon="4.5265">
        <ele>807.2</ele>
        <time>2025-09-17T08:15:28Z</time>
      </trkpt>
      <trkpt lat="46.05381" lon="4.52648">
        <ele>806.4</ele>
        <time>2025-09-17T08:15:29Z</time>
      </trkpt>
      <trkpt lat="46.05382" lon="4.52648">
        <ele>806</ele>
        <time>2025-09-17T08:15:30Z</time>
      </trkpt>
      <trkpt lat="46.05383" lon="4.52647">
        <ele>805.6</ele>
        <time>2025-09-17T08:15:31Z</time>
      </trkpt>
      <trkpt lat="46.05385" lon="4.52645">
        <ele>804.8</ele>
        <time>2025-09-17T08:15:32Z</time>
      </trkpt>
      <trkpt lat="46.05386" lon="4.52644">
        <ele>804.2</ele>
        <time>2025-09-17T08:15:33Z</time>
      </trkpt>
      <trkpt lat="46.05387" lon="4.52643">
        <ele>803.8</ele>
        <time>2025-09-17T08:15:34Z</time>
      </trkpt>
      <trkpt lat="46.05389" lon="4.52642">
        <ele>803</ele>
        <time>2025-09-17T08:15:35Z</time>
      </trkpt>
      <trkpt lat="46.05392" lon="4.5264">
        <ele>802.4</ele>
        <time>2025-09-17T08:15:36Z</time>
      </trkpt>
      <trkpt lat="46.05393" lon="4.52639">
        <ele>802</ele>
        <time>2025-09-17T08:15:37Z</time>
      </trkpt>
      <trkpt lat="46.05395" lon="4.52638">
        <ele>801.6</ele>
        <time>2025-09-17T08:15:38Z</time>
      </trkpt>
      <trkpt lat="46.05397" lon="4.52637">
        <ele>801.4</ele>
        <time>2025-09-17T08:15:39Z</time>
      </trkpt>
      <trkpt lat="46.05399" lon="4.52636">
        <ele>801</ele>
        <time>2025-09-17T08:15:40Z</time>
      </trkpt>
      <trkpt lat="46.05401" lon="4.52636">
        <ele>800.6</ele>
        <time>2025-09-17T08:15:41Z</time>
      </trkpt>
      <trkpt lat="46.05403" lon="4.52634">
        <ele>800.2</ele>
        <time>2025-09-17T08:15:42Z</time>
      </trkpt>
      <trkpt lat="46.05405" lon="4.52632">
        <ele>799.6</ele>
        <time>2025-09-17T08:15:43Z</time>
      </trkpt>
      <trkpt lat="46.05407" lon="4.5263">
        <ele>799.4</ele>
        <time>2025-09-17T08:15:44Z</time>
      </trkpt>
      <trkpt lat="46.05409" lon="4.52628">
        <ele>799.4</ele>
        <time>2025-09-17T08:15:45Z</time>
      </trkpt>
      <trkpt lat="46.05412" lon="4.52627">
        <ele>799</ele>
        <time>2025-09-17T08:15:46Z</time>
      </trkpt>
      <trkpt lat="46.05414" lon="4.52626">
        <ele>798.6</ele>
        <time>2025-09-17T08:15:47Z</time>
      </trkpt>
      <trkpt lat="46.05415" lon="4.52626">
        <ele>798</ele>
        <time>2025-09-17T08:15:48Z</time>
      </trkpt>
      <trkpt lat="46.05417" lon="4.52624">
        <ele>798</ele>
        <time>2025-09-17T08:15:49Z</time>
      </trkpt>
      <trkpt lat="46.05419" lon="4.52623">
        <ele>797.6</ele>
        <time>2025-09-17T08:15:50Z</time>
      </trkpt>
      <trkpt lat="46.05421" lon="4.52622">
        <ele>797.2</ele>
        <time>2025-09-17T08:15:51Z</time>
      </trkpt>
      <trkpt lat="46.05422" lon="4.52622">
        <ele>797</ele>
        <time>2025-09-17T08:15:52Z</time>
      </trkpt>
      <trkpt lat="46.05424" lon="4.52622">
        <ele>796.6</ele>
        <time>2025-09-17T08:15:53Z</time>
      </trkpt>
      <trkpt lat="46.05425" lon="4.52622">
        <ele>796.2</ele>
        <time>2025-09-17T08:15:54Z</time>
      </trkpt>
      <trkpt lat="46.05426" lon="4.52621">
        <ele>795.6</ele>
        <time>2025-09-17T08:15:55Z</time>
      </trkpt>
      <trkpt lat="46.05427" lon="4.5262">
        <ele>795.2</ele>
        <time>2025-09-17T08:15:56Z</time>
      </trkpt>
      <trkpt lat="46.05428" lon="4.52618">
        <ele>794.8</ele>
        <time>2025-09-17T08:15:57Z</time>
      </trkpt>
      <trkpt lat="46.0543" lon="4.52616">
        <ele>794.4</ele>
        <time>2025-09-17T08:15:58Z</time>
      </trkpt>
      <trkpt lat="46.05432" lon="4.52614">
        <ele>794</ele>
        <time>2025-09-17T08:15:59Z</time>
      </trkpt>
      <trkpt lat="46.05434" lon="4.52612">
        <ele>793.6</ele>
        <time>2025-09-17T08:16:00Z</time>
      </trkpt>
      <trkpt lat="46.05436" lon="4.5261">
        <ele>793</ele>
        <time>2025-09-17T08:16:01Z</time>
      </trkpt>
      <trkpt lat="46.05438" lon="4.52607">
        <ele>792.4</ele>
        <time>2025-09-17T08:16:02Z</time>
      </trkpt>
      <trkpt lat="46.0544" lon="4.52605">
        <ele>792</ele>
        <time>2025-09-17T08:16:03Z</time>
      </trkpt>
      <trkpt lat="46.05442" lon="4.52603">
        <ele>791.4</ele>
        <time>2025-09-17T08:16:04Z</time>
      </trkpt>
      <trkpt lat="46.05445" lon="4.526">
        <ele>790.8</ele>
        <time>2025-09-17T08:16:05Z</time>
      </trkpt>
      <trkpt lat="46.05447" lon="4.52597">
        <ele>790.4</ele>
        <time>2025-09-17T08:16:06Z</time>
      </trkpt>
      <trkpt lat="46.0545" lon="4.52595">
        <ele>790</ele>
        <time>2025-09-17T08:16:07Z</time>
      </trkpt>
      <trkpt lat="46.05451" lon="4.52595">
        <ele>789.4</ele>
        <time>2025-09-17T08:16:08Z</time>
      </trkpt>
      <trkpt lat="46.05452" lon="4.52595">
        <ele>789.2</ele>
        <time>2025-09-17T08:16:09Z</time>
      </trkpt>
      <trkpt lat="46.05453" lon="4.52593">
        <ele>788.6</ele>
        <time>2025-09-17T08:16:10Z</time>
      </trkpt>
      <trkpt lat="46.05455" lon="4.52592">
        <ele>788.6</ele>
        <time>2025-09-17T08:16:11Z</time>
      </trkpt>
      <trkpt lat="46.05455" lon="4.5259">
        <ele>787.8</ele>
        <time>2025-09-17T08:16:12Z</time>
      </trkpt>
      <trkpt lat="46.05456" lon="4.52586">
        <ele>787.2</ele>
        <time>2025-09-17T08:16:13Z</time>
      </trkpt>
      <trkpt lat="46.05457" lon="4.52583">
        <ele>786.8</ele>
        <time>2025-09-17T08:16:14Z</time>
      </trkpt>
      <trkpt lat="46.05458" lon="4.52579">
        <ele>786.2</ele>
        <time>2025-09-17T08:16:15Z</time>
      </trkpt>
      <trkpt lat="46.05459" lon="4.52576">
        <ele>785.8</ele>
        <time>2025-09-17T08:16:16Z</time>
      </trkpt>
      <trkpt lat="46.0546" lon="4.52574">
        <ele>785.4</ele>
        <time>2025-09-17T08:16:17Z</time>
      </trkpt>
      <trkpt lat="46.05461" lon="4.52572">
        <ele>784.8</ele>
        <time>2025-09-17T08:16:18Z</time>
      </trkpt>
      <trkpt lat="46.05462" lon="4.52569">
        <ele>784.6</ele>
        <time>2025-09-17T08:16:19Z</time>
      </trkpt>
      <trkpt lat="46.05463" lon="4.52567">
        <ele>784.4</ele>
        <time>2025-09-17T08:16:20Z</time>
      </trkpt>
      <trkpt lat="46.05463" lon="4.52566">
        <ele>783.8</ele>
        <time>2025-09-17T08:16:21Z</time>
      </trkpt>
      <trkpt lat="46.05464" lon="4.52563">
        <ele>783.2</ele>
        <time>2025-09-17T08:16:22Z</time>
      </trkpt>
      <trkpt lat="46.05464" lon="4.5256">
        <ele>782</ele>
        <time>2025-09-17T08:16:23Z</time>
      </trkpt>
      <trkpt lat="46.05465" lon="4.52558">
        <ele>781.8</ele>
        <time>2025-09-17T08:16:24Z</time>
      </trkpt>
      <trkpt lat="46.05466" lon="4.52555">
        <ele>781.4</ele>
        <time>2025-09-17T08:16:25Z</time>
      </trkpt>
      <trkpt lat="46.05467" lon="4.52553">
        <ele>781</ele>
        <time>2025-09-17T08:16:26Z</time>
      </trkpt>
      <trkpt lat="46.05468" lon="4.5255">
        <ele>780.4</ele>
        <time>2025-09-17T08:16:27Z</time>
      </trkpt>
      <trkpt lat="46.05469" lon="4.52546">
        <ele>780</ele>
        <time>2025-09-17T08:16:28Z</time>
      </trkpt>
      <trkpt lat="46.0547" lon="4.52543">
        <ele>779.8</ele>
        <time>2025-09-17T08:16:29Z</time>
      </trkpt>
      <trkpt lat="46.05471" lon="4.52541">
        <ele>779.4</ele>
        <time>2025-09-17T08:16:30Z</time>
      </trkpt>
      <trkpt lat="46.05472" lon="4.52539">
        <ele>779</ele>
        <time>2025-09-17T08:16:31Z</time>
      </trkpt>
      <trkpt lat="46.05472" lon="4.52537">
        <ele>778.6</ele>
        <time>2025-09-17T08:16:32Z</time>
      </trkpt>
      <trkpt lat="46.05472" lon="4.52533">
        <ele>778.2</ele>
        <time>2025-09-17T08:16:33Z</time>
      </trkpt>
      <trkpt lat="46.05472" lon="4.5253">
        <ele>777.8</ele>
        <time>2025-09-17T08:16:34Z</time>
      </trkpt>
      <trkpt lat="46.05472" lon="4.52527">
        <ele>777.2</ele>
        <time>2025-09-17T08:16:35Z</time>
      </trkpt>
      <trkpt lat="46.05473" lon="4.52524">
        <ele>776.8</ele>
        <time>2025-09-17T08:16:36Z</time>
      </trkpt>
      <trkpt lat="46.05474" lon="4.52522">
        <ele>775.8</ele>
        <time>2025-09-17T08:16:37Z</time>
      </trkpt>
      <trkpt lat="46.05475" lon="4.5252">
        <ele>775.6</ele>
        <time>2025-09-17T08:16:38Z</time>
      </trkpt>
      <trkpt lat="46.05476" lon="4.52518">
        <ele>775</ele>
        <time>2025-09-17T08:16:39Z</time>
      </trkpt>
      <trkpt lat="46.05478" lon="4.52515">
        <ele>775</ele>
        <time>2025-09-17T08:16:40Z</time>
      </trkpt>
      <trkpt lat="46.0548" lon="4.52512">
        <ele>774.4</ele>
        <time>2025-09-17T08:16:41Z</time>
      </trkpt>
      <trkpt lat="46.05482" lon="4.5251">
        <ele>773.8</ele>
        <time>2025-09-17T08:16:42Z</time>
      </trkpt>
      <trkpt lat="46.05485" lon="4.52508">
        <ele>773.6</ele>
        <time>2025-09-17T08:16:43Z</time>
      </trkpt>
      <trkpt lat="46.05487" lon="4.52505">
        <ele>773.2</ele>
        <time>2025-09-17T08:16:44Z</time>
      </trkpt>
      <trkpt lat="46.05489" lon="4.52504">
        <ele>772.6</ele>
        <time>2025-09-17T08:16:45Z</time>
      </trkpt>
      <trkpt lat="46.05491" lon="4.52501">
        <ele>772</ele>
        <time>2025-09-17T08:16:46Z</time>
      </trkpt>
      <trkpt lat="46.05494" lon="4.52498">
        <ele>771.8</ele>
        <time>2025-09-17T08:16:47Z</time>
      </trkpt>
      <trkpt lat="46.05496" lon="4.52496">
        <ele>771.2</ele>
        <time>2025-09-17T08:16:48Z</time>
      </trkpt>
      <trkpt lat="46.05497" lon="4.52494">
        <ele>770</ele>
        <time>2025-09-17T08:16:49Z</time>
      </trkpt>
      <trkpt lat="46.05499" lon="4.52492">
        <ele>769.6</ele>
        <time>2025-09-17T08:16:50Z</time>
      </trkpt>
      <trkpt lat="46.05501" lon="4.5249">
        <ele>768.8</ele>
        <time>2025-09-17T08:16:51Z</time>
      </trkpt>
      <trkpt lat="46.05504" lon="4.52486">
        <ele>768.4</ele>
        <time>2025-09-17T08:16:52Z</time>
      </trkpt>
      <trkpt lat="46.05507" lon="4.52483">
        <ele>767.6</ele>
        <time>2025-09-17T08:16:53Z</time>
      </trkpt>
      <trkpt lat="46.0551" lon="4.5248">
        <ele>766.4</ele>
        <time>2025-09-17T08:16:54Z</time>
      </trkpt>
      <trkpt lat="46.05513" lon="4.52477">
        <ele>766.4</ele>
        <time>2025-09-17T08:16:55Z</time>
      </trkpt>
      <trkpt lat="46.05516" lon="4.52475">
        <ele>765.8</ele>
        <time>2025-09-17T08:16:56Z</time>
      </trkpt>
      <trkpt lat="46.05517" lon="4.52473">
        <ele>765.8</ele>
        <time>2025-09-17T08:16:57Z</time>
      </trkpt>
      <trkpt lat="46.05519" lon="4.5247">
        <ele>765.6</ele>
        <time>2025-09-17T08:16:58Z</time>
      </trkpt>
      <trkpt lat="46.05521" lon="4.52468">
        <ele>765</ele>
        <time>2025-09-17T08:16:59Z</time>
      </trkpt>
      <trkpt lat="46.05522" lon="4.52466">
        <ele>764.4</ele>
        <time>2025-09-17T08:17:00Z</time>
      </trkpt>
      <trkpt lat="46.05523" lon="4.52464">
        <ele>764.2</ele>
        <time>2025-09-17T08:17:01Z</time>
      </trkpt>
      <trkpt lat="46.05524" lon="4.52462">
        <ele>764.2</ele>
        <time>2025-09-17T08:17:02Z</time>
      </trkpt>
      <trkpt lat="46.05525" lon="4.52459">
        <ele>763.6</ele>
        <time>2025-09-17T08:17:03Z</time>
      </trkpt>
      <trkpt lat="46.05526" lon="4.52456">
        <ele>763.2</ele>
        <time>2025-09-17T08:17:04Z</time>
      </trkpt>
      <trkpt lat="46.05528" lon="4.52454">
        <ele>762.8</ele>
        <time>2025-09-17T08:17:05Z</time>
      </trkpt>
      <trkpt lat="46.05529" lon="4.52452">
        <ele>762</ele>
        <time>2025-09-17T08:17:06Z</time>
      </trkpt>
      <trkpt lat="46.0553" lon="4.52449">
        <ele>761.8</ele>
        <time>2025-09-17T08:17:07Z</time>
      </trkpt>
      <trkpt lat="46.05532" lon="4.52446">
        <ele>761.4</ele>
        <time>2025-09-17T08:17:08Z</time>
      </trkpt>
      <trkpt lat="46.05533" lon="4.52444">
        <ele>761.4</ele>
        <time>2025-09-17T08:17:09Z</time>
      </trkpt>
      <trkpt lat="46.05534" lon="4.52441">
        <ele>760.8</ele>
        <time>2025-09-17T08:17:10Z</time>
      </trkpt>
      <trkpt lat="46.05535" lon="4.52439">
        <ele>760.8</ele>
        <time>2025-09-17T08:17:11Z</time>
      </trkpt>
      <trkpt lat="46.05535" lon="4.52436">
        <ele>760.4</ele>
        <time>2025-09-17T08:17:12Z</time>
      </trkpt>
      <trkpt lat="46.05536" lon="4.52434">
        <ele>760</ele>
        <time>2025-09-17T08:17:13Z</time>
      </trkpt>
      <trkpt lat="46.05537" lon="4.52432">
        <ele>759.6</ele>
        <time>2025-09-17T08:17:14Z</time>
      </trkpt>
      <trkpt lat="46.05538" lon="4.52429">
        <ele>759.2</ele>
        <time>2025-09-17T08:17:15Z</time>
      </trkpt>
      <trkpt lat="46.05539" lon="4.52426">
        <ele>758.8</ele>
        <time>2025-09-17T08:17:16Z</time>
      </trkpt>
      <trkpt lat="46.0554" lon="4.52423">
        <ele>758.4</ele>
        <time>2025-09-17T08:17:17Z</time>
      </trkpt>
      <trkpt lat="46.05542" lon="4.52421">
        <ele>758.4</ele>
        <time>2025-09-17T08:17:18Z</time>
      </trkpt>
      <trkpt lat="46.05544" lon="4.5242">
        <ele>757.8</ele>
        <time>2025-09-17T08:17:19Z</time>
      </trkpt>
      <trkpt lat="46.05545" lon="4.52418">
        <ele>757.2</ele>
        <time>2025-09-17T08:17:20Z</time>
      </trkpt>
      <trkpt lat="46.05546" lon="4.52417">
        <ele>756.8</ele>
        <time>2025-09-17T08:17:21Z</time>
      </trkpt>
      <trkpt lat="46.05547" lon="4.52415">
        <ele>756.6</ele>
        <time>2025-09-17T08:17:22Z</time>
      </trkpt>
      <trkpt lat="46.05548" lon="4.52413">
        <ele>756.2</ele>
        <time>2025-09-17T08:17:23Z</time>
      </trkpt>
      <trkpt lat="46.05549" lon="4.5241">
        <ele>755.6</ele>
        <time>2025-09-17T08:17:24Z</time>
      </trkpt>
      <trkpt lat="46.05549" lon="4.52408">
        <ele>755.4</ele>
        <time>2025-09-17T08:17:25Z</time>
      </trkpt>
      <trkpt lat="46.05549" lon="4.52407">
        <ele>755</ele>
        <time>2025-09-17T08:17:26Z</time>
      </trkpt>
      <trkpt lat="46.0555" lon="4.52406">
        <ele>754.6</ele>
        <time>2025-09-17T08:17:27Z</time>
      </trkpt>
      <trkpt lat="46.05551" lon="4.52404">
        <ele>754.6</ele>
        <time>2025-09-17T08:17:28Z</time>
      </trkpt>
      <trkpt lat="46.05553" lon="4.52401">
        <ele>753.8</ele>
        <time>2025-09-17T08:17:29Z</time>
      </trkpt>
      <trkpt lat="46.05553" lon="4.524">
        <ele>753.6</ele>
        <time>2025-09-17T08:17:30Z</time>
      </trkpt>
      <trkpt lat="46.05555" lon="4.52399">
        <ele>753.2</ele>
        <time>2025-09-17T08:17:31Z</time>
      </trkpt>
      <trkpt lat="46.05556" lon="4.52398">
        <ele>752.8</ele>
        <time>2025-09-17T08:17:32Z</time>
      </trkpt>
      <trkpt lat="46.05557" lon="4.52396">
        <ele>752.6</ele>
        <time>2025-09-17T08:17:33Z</time>
      </trkpt>
      <trkpt lat="46.05558" lon="4.52392">
        <ele>752.2</ele>
        <time>2025-09-17T08:17:34Z</time>
      </trkpt>
      <trkpt lat="46.05559" lon="4.52389">
        <ele>751.6</ele>
        <time>2025-09-17T08:17:35Z</time>
      </trkpt>
      <trkpt lat="46.0556" lon="4.52388">
        <ele>751.6</ele>
        <time>2025-09-17T08:17:36Z</time>
      </trkpt>
      <trkpt lat="46.05561" lon="4.52386">
        <ele>751</ele>
        <time>2025-09-17T08:17:37Z</time>
      </trkpt>
      <trkpt lat="46.05562" lon="4.52386">
        <ele>750.6</ele>
        <time>2025-09-17T08:17:38Z</time>
      </trkpt>
      <trkpt lat="46.05563" lon="4.52385">
        <ele>750.4</ele>
        <time>2025-09-17T08:17:39Z</time>
      </trkpt>
      <trkpt lat="46.05564" lon="4.52384">
        <ele>750.2</ele>
        <time>2025-09-17T08:17:40Z</time>
      </trkpt>
      <trkpt lat="46.05565" lon="4.52382">
        <ele>750</ele>
        <time>2025-09-17T08:17:41Z</time>
      </trkpt>
      <trkpt lat="46.05564" lon="4.52379">
        <ele>749.6</ele>
        <time>2025-09-17T08:17:42Z</time>
      </trkpt>
      <trkpt lat="46.05564" lon="4.52376">
        <ele>749.4</ele>
        <time>2025-09-17T08:17:43Z</time>
      </trkpt>
      <trkpt lat="46.05563" lon="4.52373">
        <ele>749</ele>
        <time>2025-09-17T08:17:44Z</time>
      </trkpt>
      <trkpt lat="46.05563" lon="4.52371">
        <ele>749</ele>
        <time>2025-09-17T08:17:45Z</time>
      </trkpt>
      <trkpt lat="46.05562" lon="4.52369">
        <ele>748.2</ele>
        <time>2025-09-17T08:17:46Z</time>
      </trkpt>
      <trkpt lat="46.05562" lon="4.52367">
        <ele>748.2</ele>
        <time>2025-09-17T08:17:47Z</time>
      </trkpt>
      <trkpt lat="46.05562" lon="4.52365">
        <ele>748</ele>
        <time>2025-09-17T08:17:48Z</time>
      </trkpt>
      <trkpt lat="46.05562" lon="4.52364">
        <ele>748</ele>
        <time>2025-09-17T08:17:49Z</time>
      </trkpt>
      <trkpt lat="46.05561" lon="4.52362">
        <ele>747.6</ele>
        <time>2025-09-17T08:17:50Z</time>
      </trkpt>
      <trkpt lat="46.05561" lon="4.52362">
        <ele>747.6</ele>
        <time>2025-09-17T08:17:51Z</time>
      </trkpt>
      <trkpt lat="46.05564" lon="4.52357">
        <ele>746.8</ele>
        <time>2025-09-17T08:18:24Z</time>
      </trkpt>
      <trkpt lat="46.05565" lon="4.52355">
        <ele>746.8</ele>
        <time>2025-09-17T08:18:25Z</time>
      </trkpt>
      <trkpt lat="46.05566" lon="4.52352">
        <ele>746.2</ele>
        <time>2025-09-17T08:18:26Z</time>
      </trkpt>
      <trkpt lat="46.05568" lon="4.5235">
        <ele>745.8</ele>
        <time>2025-09-17T08:18:27Z</time>
      </trkpt>
      <trkpt lat="46.05569" lon="4.52349">
        <ele>745.2</ele>
        <time>2025-09-17T08:18:28Z</time>
      </trkpt>
      <trkpt lat="46.0557" lon="4.52347">
        <ele>745</ele>
        <time>2025-09-17T08:18:29Z</time>
      </trkpt>
      <trkpt lat="46.05571" lon="4.52345">
        <ele>744.6</ele>
        <time>2025-09-17T08:18:30Z</time>
      </trkpt>
      <trkpt lat="46.05571" lon="4.52343">
        <ele>744.2</ele>
        <time>2025-09-17T08:18:31Z</time>
      </trkpt>
      <trkpt lat="46.0557" lon="4.5234">
        <ele>743.8</ele>
        <time>2025-09-17T08:18:32Z</time>
      </trkpt>
      <trkpt lat="46.0557" lon="4.52338">
        <ele>743.8</ele>
        <time>2025-09-17T08:18:33Z</time>
      </trkpt>
      <trkpt lat="46.0557" lon="4.52336">
        <ele>743.6</ele>
        <time>2025-09-17T08:18:34Z</time>
      </trkpt>
      <trkpt lat="46.0557" lon="4.52334">
        <ele>743.6</ele>
        <time>2025-09-17T08:18:35Z</time>
      </trkpt>
      <trkpt lat="46.0557" lon="4.52331">
        <ele>743</ele>
        <time>2025-09-17T08:18:36Z</time>
      </trkpt>
      <trkpt lat="46.0557" lon="4.52329">
        <ele>742.8</ele>
        <time>2025-09-17T08:18:37Z</time>
      </trkpt>
      <trkpt lat="46.05571" lon="4.52328">
        <ele>742.6</ele>
        <time>2025-09-17T08:18:38Z</time>
      </trkpt>
      <trkpt lat="46.05572" lon="4.52327">
        <ele>742.2</ele>
        <time>2025-09-17T08:18:39Z</time>
      </trkpt>
      <trkpt lat="46.05572" lon="4.52325">
        <ele>742.2</ele>
        <time>2025-09-17T08:18:40Z</time>
      </trkpt>
      <trkpt lat="46.05573" lon="4.52323">
        <ele>741.8</ele>
        <time>2025-09-17T08:18:41Z</time>
      </trkpt>
      <trkpt lat="46.05573" lon="4.52321">
        <ele>741.8</ele>
        <time>2025-09-17T08:18:42Z</time>
      </trkpt>
      <trkpt lat="46.05574" lon="4.52319">
        <ele>741.8</ele>
        <time>2025-09-17T08:18:43Z</time>
      </trkpt>
      <trkpt lat="46.05575" lon="4.52318">
        <ele>741.4</ele>
        <time>2025-09-17T08:18:44Z</time>
      </trkpt>
      <trkpt lat="46.05575" lon="4.52316">
        <ele>741.4</ele>
        <time>2025-09-17T08:18:45Z</time>
      </trkpt>
      <trkpt lat="46.05576" lon="4.52315">
        <ele>741.2</ele>
        <time>2025-09-17T08:18:46Z</time>
      </trkpt>
      <trkpt lat="46.05576" lon="4.52314">
        <ele>740.8</ele>
        <time>2025-09-17T08:18:47Z</time>
      </trkpt>
      <trkpt lat="46.05577" lon="4.52313">
        <ele>740.8</ele>
        <time>2025-09-17T08:18:48Z</time>
      </trkpt>
      <trkpt lat="46.05577" lon="4.52311">
        <ele>740</ele>
        <time>2025-09-17T08:18:49Z</time>
      </trkpt>
      <trkpt lat="46.05578" lon="4.52309">
        <ele>739.6</ele>
        <time>2025-09-17T08:18:50Z</time>
      </trkpt>
      <trkpt lat="46.05578" lon="4.52307">
        <ele>739.2</ele>
        <time>2025-09-17T08:18:51Z</time>
      </trkpt>
      <trkpt lat="46.05579" lon="4.52306">
        <ele>739</ele>
        <time>2025-09-17T08:18:52Z</time>
      </trkpt>
      <trkpt lat="46.05579" lon="4.52304">
        <ele>738.6</ele>
        <time>2025-09-17T08:18:53Z</time>
      </trkpt>
      <trkpt lat="46.0558" lon="4.52301">
        <ele>738.2</ele>
        <time>2025-09-17T08:18:54Z</time>
      </trkpt>
      <trkpt lat="46.0558" lon="4.523">
        <ele>737.8</ele>
        <time>2025-09-17T08:18:55Z</time>
      </trkpt>
      <trkpt lat="46.0558" lon="4.52298">
        <ele>737.6</ele>
        <time>2025-09-17T08:18:56Z</time>
      </trkpt>
      <trkpt lat="46.0558" lon="4.52297">
        <ele>737.4</ele>
        <time>2025-09-17T08:18:57Z</time>
      </trkpt>
      <trkpt lat="46.0558" lon="4.52296">
        <ele>737.2</ele>
        <time>2025-09-17T08:18:58Z</time>
      </trkpt>
      <trkpt lat="46.05581" lon="4.52294">
        <ele>737</ele>
        <time>2025-09-17T08:18:59Z</time>
      </trkpt>
      <trkpt lat="46.05581" lon="4.52292">
        <ele>736.6</ele>
        <time>2025-09-17T08:19:00Z</time>
      </trkpt>
      <trkpt lat="46.05582" lon="4.52293">
        <ele>736.4</ele>
        <time>2025-09-17T08:19:01Z</time>
      </trkpt>
      <trkpt lat="46.05582" lon="4.52293">
        <ele>736.4</ele>
        <time>2025-09-17T08:19:02Z</time>
      </trkpt>
      <trkpt lat="46.05582" lon="4.52293">
        <ele>736.4</ele>
        <time>2025-09-17T08:19:03Z</time>
      </trkpt>
      <trkpt lat="46.05582" lon="4.52292">
        <ele>736.4</ele>
        <time>2025-09-17T08:19:04Z</time>
      </trkpt>
      <trkpt lat="46.05583" lon="4.52291">
        <ele>736</ele>
        <time>2025-09-17T08:19:05Z</time>
      </trkpt>
      <trkpt lat="46.05583" lon="4.5229">
        <ele>735.8</ele>
        <time>2025-09-17T08:19:06Z</time>
      </trkpt>
      <trkpt lat="46.05584" lon="4.5229">
        <ele>735.8</ele>
        <time>2025-09-17T08:19:07Z</time>
      </trkpt>
      <trkpt lat="46.05584" lon="4.5229">
        <ele>735.4</ele>
        <time>2025-09-17T08:19:08Z</time>
      </trkpt>
      <trkpt lat="46.05585" lon="4.52289">
        <ele>735.4</ele>
        <time>2025-09-17T08:19:09Z</time>
      </trkpt>
      <trkpt lat="46.05585" lon="4.52288">
        <ele>735</ele>
        <time>2025-09-17T08:19:10Z</time>
      </trkpt>
      <trkpt lat="46.05585" lon="4.52286">
        <ele>735</ele>
        <time>2025-09-17T08:19:11Z</time>
      </trkpt>
      <trkpt lat="46.05585" lon="4.52284">
        <ele>735</ele>
        <time>2025-09-17T08:19:12Z</time>
      </trkpt>
      <trkpt lat="46.05585" lon="4.52283">
        <ele>734.6</ele>
        <time>2025-09-17T08:19:13Z</time>
      </trkpt>
      <trkpt lat="46.05585" lon="4.52283">
        <ele>734.2</ele>
        <time>2025-09-17T08:19:14Z</time>
      </trkpt>
      <trkpt lat="46.05585" lon="4.52281">
        <ele>734</ele>
        <time>2025-09-17T08:19:15Z</time>
      </trkpt>
      <trkpt lat="46.05585" lon="4.5228">
        <ele>733.8</ele>
        <time>2025-09-17T08:19:16Z</time>
      </trkpt>
      <trkpt lat="46.05585" lon="4.52279">
        <ele>733.4</ele>
        <time>2025-09-17T08:19:17Z</time>
      </trkpt>
      <trkpt lat="46.05586" lon="4.52277">
        <ele>733.4</ele>
        <time>2025-09-17T08:19:18Z</time>
      </trkpt>
      <trkpt lat="46.05587" lon="4.52275">
        <ele>733.2</ele>
        <time>2025-09-17T08:19:19Z</time>
      </trkpt>
      <trkpt lat="46.05588" lon="4.52274">
        <ele>732.6</ele>
        <time>2025-09-17T08:19:20Z</time>
      </trkpt>
      <trkpt lat="46.05589" lon="4.52274">
        <ele>732.6</ele>
        <time>2025-09-17T08:19:21Z</time>
      </trkpt>
      <trkpt lat="46.05589" lon="4.52273">
        <ele>732.2</ele>
        <time>2025-09-17T08:19:22Z</time>
      </trkpt>
      <trkpt lat="46.05588" lon="4.52273">
        <ele>732</ele>
        <time>2025-09-17T08:19:23Z</time>
      </trkpt>
      <trkpt lat="46.05588" lon="4.52272">
        <ele>732</ele>
        <time>2025-09-17T08:19:24Z</time>
      </trkpt>
      <trkpt lat="46.05589" lon="4.52272">
        <ele>732</ele>
        <time>2025-09-17T08:19:25Z</time>
      </trkpt>
      <trkpt lat="46.05589" lon="4.52272">
        <ele>731.4</ele>
        <time>2025-09-17T08:19:26Z</time>
      </trkpt>
      <trkpt lat="46.05589" lon="4.52273">
        <ele>731.2</ele>
        <time>2025-09-17T08:19:27Z</time>
      </trkpt>
      <trkpt lat="46.0559" lon="4.52272">
        <ele>731</ele>
        <time>2025-09-17T08:19:28Z</time>
      </trkpt>
      <trkpt lat="46.05591" lon="4.52272">
        <ele>730.8</ele>
        <time>2025-09-17T08:19:29Z</time>
      </trkpt>
      <trkpt lat="46.05592" lon="4.52272">
        <ele>730.8</ele>
        <time>2025-09-17T08:19:30Z</time>
      </trkpt>
      <trkpt lat="46.05592" lon="4.52271">
        <ele>730.2</ele>
        <time>2025-09-17T08:19:31Z</time>
      </trkpt>
      <trkpt lat="46.05593" lon="4.5227">
        <ele>730</ele>
        <time>2025-09-17T08:19:32Z</time>
      </trkpt>
      <trkpt lat="46.05593" lon="4.52269">
        <ele>729.8</ele>
        <time>2025-09-17T08:19:33Z</time>
      </trkpt>
      <trkpt lat="46.05594" lon="4.52268">
        <ele>729.8</ele>
        <time>2025-09-17T08:19:34Z</time>
      </trkpt>
      <trkpt lat="46.05595" lon="4.52267">
        <ele>729.8</ele>
        <time>2025-09-17T08:19:35Z</time>
      </trkpt>
      <trkpt lat="46.05596" lon="4.52265">
        <ele>729.4</ele>
        <time>2025-09-17T08:19:36Z</time>
      </trkpt>
      <trkpt lat="46.05596" lon="4.52265">
        <ele>729.4</ele>
        <time>2025-09-17T08:19:37Z</time>
      </trkpt>
      <trkpt lat="46.05596" lon="4.52265">
        <ele>729.2</ele>
        <time>2025-09-17T08:19:38Z</time>
      </trkpt>
      <trkpt lat="46.05596" lon="4.52264">
        <ele>728.8</ele>
        <time>2025-09-17T08:19:39Z</time>
      </trkpt>
      <trkpt lat="46.05596" lon="4.52264">
        <ele>728.8</ele>
        <time>2025-09-17T08:19:40Z</time>
      </trkpt>
      <trkpt lat="46.05596" lon="4.52263">
        <ele>728.6</ele>
        <time>2025-09-17T08:19:41Z</time>
      </trkpt>
      <trkpt lat="46.05596" lon="4.52262">
        <ele>728.6</ele>
        <time>2025-09-17T08:19:42Z</time>
      </trkpt>
      <trkpt lat="46.05597" lon="4.52261">
        <ele>728</ele>
        <time>2025-09-17T08:19:43Z</time>
      </trkpt>
      <trkpt lat="46.05597" lon="4.52261">
        <ele>728</ele>
        <time>2025-09-17T08:19:44Z</time>
      </trkpt>
      <trkpt lat="46.05597" lon="4.5226">
        <ele>727.8</ele>
        <time>2025-09-17T08:19:45Z</time>
      </trkpt>
      <trkpt lat="46.05597" lon="4.52258">
        <ele>727.6</ele>
        <time>2025-09-17T08:19:46Z</time>
      </trkpt>
      <trkpt lat="46.05598" lon="4.52257">
        <ele>727.6</ele>
        <time>2025-09-17T08:19:47Z</time>
      </trkpt>
      <trkpt lat="46.05598" lon="4.52256">
        <ele>727.2</ele>
        <time>2025-09-17T08:19:48Z</time>
      </trkpt>
      <trkpt lat="46.05599" lon="4.52255">
        <ele>726.8</ele>
        <time>2025-09-17T08:19:49Z</time>
      </trkpt>
      <trkpt lat="46.05599" lon="4.52254">
        <ele>726.8</ele>
        <time>2025-09-17T08:19:50Z</time>
      </trkpt>
      <trkpt lat="46.05601" lon="4.5225">
        <ele>725.6</ele>
        <time>2025-09-17T08:20:09Z</time>
      </trkpt>
      <trkpt lat="46.05601" lon="4.52249">
        <ele>725.6</ele>
        <time>2025-09-17T08:20:10Z</time>
      </trkpt>
      <trkpt lat="46.05601" lon="4.52249">
        <ele>725.6</ele>
        <time>2025-09-17T08:20:11Z</time>
      </trkpt>
      <trkpt lat="46.05601" lon="4.52248">
        <ele>725.4</ele>
        <time>2025-09-17T08:20:12Z</time>
      </trkpt>
      <trkpt lat="46.05602" lon="4.52247">
        <ele>725</ele>
        <time>2025-09-17T08:20:13Z</time>
      </trkpt>
      <trkpt lat="46.05604" lon="4.52246">
        <ele>724.6</ele>
        <time>2025-09-17T08:20:14Z</time>
      </trkpt>
      <trkpt lat="46.05604" lon="4.52245">
        <ele>724.6</ele>
        <time>2025-09-17T08:20:15Z</time>
      </trkpt>
      <trkpt lat="46.05605" lon="4.52245">
        <ele>724</ele>
        <time>2025-09-17T08:20:16Z</time>
      </trkpt>
      <trkpt lat="46.05607" lon="4.52243">
        <ele>723.2</ele>
        <time>2025-09-17T08:20:19Z</time>
      </trkpt>
      <trkpt lat="46.05608" lon="4.52242">
        <ele>723.2</ele>
        <time>2025-09-17T08:20:20Z</time>
      </trkpt>
      <trkpt lat="46.05609" lon="4.52242">
        <ele>722.8</ele>
        <time>2025-09-17T08:20:21Z</time>
      </trkpt>
      <trkpt lat="46.05611" lon="4.52242">
        <ele>722.8</ele>
        <time>2025-09-17T08:20:22Z</time>
      </trkpt>
      <trkpt lat="46.05613" lon="4.52242">
        <ele>722.6</ele>
        <time>2025-09-17T08:20:23Z</time>
      </trkpt>
      <trkpt lat="46.05614" lon="4.5224">
        <ele>722.4</ele>
        <time>2025-09-17T08:20:24Z</time>
      </trkpt>
      <trkpt lat="46.05613" lon="4.52238">
        <ele>722.4</ele>
        <time>2025-09-17T08:20:25Z</time>
      </trkpt>
      <trkpt lat="46.05612" lon="4.52237">
        <ele>722.2</ele>
        <time>2025-09-17T08:20:26Z</time>
      </trkpt>
      <trkpt lat="46.05613" lon="4.52235">
        <ele>721.6</ele>
        <time>2025-09-17T08:20:27Z</time>
      </trkpt>
      <trkpt lat="46.05613" lon="4.52234">
        <ele>721.6</ele>
        <time>2025-09-17T08:20:28Z</time>
      </trkpt>
      <trkpt lat="46.05614" lon="4.52233">
        <ele>721.2</ele>
        <time>2025-09-17T08:20:29Z</time>
      </trkpt>
      <trkpt lat="46.05614" lon="4.52232">
        <ele>721</ele>
        <time>2025-09-17T08:20:30Z</time>
      </trkpt>
      <trkpt lat="46.05615" lon="4.52231">
        <ele>721</ele>
        <time>2025-09-17T08:20:31Z</time>
      </trkpt>
      <trkpt lat="46.05615" lon="4.52231">
        <ele>720.6</ele>
        <time>2025-09-17T08:20:32Z</time>
      </trkpt>
      <trkpt lat="46.05616" lon="4.5223">
        <ele>720.2</ele>
        <time>2025-09-17T08:20:33Z</time>
      </trkpt>
      <trkpt lat="46.05616" lon="4.52229">
        <ele>719.8</ele>
        <time>2025-09-17T08:20:34Z</time>
      </trkpt>
      <trkpt lat="46.05616" lon="4.52229">
        <ele>719.8</ele>
        <time>2025-09-17T08:20:35Z</time>
      </trkpt>
      <trkpt lat="46.05616" lon="4.52228">
        <ele>719.8</ele>
        <time>2025-09-17T08:20:36Z</time>
      </trkpt>
      <trkpt lat="46.05616" lon="4.52226">
        <ele>719.6</ele>
        <time>2025-09-17T08:20:37Z</time>
      </trkpt>
      <trkpt lat="46.05616" lon="4.52225">
        <ele>719.6</ele>
        <time>2025-09-17T08:20:38Z</time>
      </trkpt>
      <trkpt lat="46.05616" lon="4.52224">
        <ele>719.4</ele>
        <time>2025-09-17T08:20:39Z</time>
      </trkpt>
      <trkpt lat="46.05616" lon="4.52223">
        <ele>719</ele>
        <time>2025-09-17T08:20:40Z</time>
      </trkpt>
      <trkpt lat="46.05617" lon="4.52222">
        <ele>718.8</ele>
        <time>2025-09-17T08:20:41Z</time>
      </trkpt>
      <trkpt lat="46.05616" lon="4.52221">
        <ele>718.2</ele>
        <time>2025-09-17T08:20:42Z</time>
      </trkpt>
      <trkpt lat="46.05617" lon="4.5222">
        <ele>717.6</ele>
        <time>2025-09-17T08:20:43Z</time>
      </trkpt>
      <trkpt lat="46.05617" lon="4.52218">
        <ele>717.4</ele>
        <time>2025-09-17T08:20:44Z</time>
      </trkpt>
      <trkpt lat="46.05617" lon="4.52217">
        <ele>717</ele>
        <time>2025-09-17T08:20:45Z</time>
      </trkpt>
      <trkpt lat="46.05617" lon="4.52216">
        <ele>716.4</ele>
        <time>2025-09-17T08:20:46Z</time>
      </trkpt>
      <trkpt lat="46.05617" lon="4.52214">
        <ele>716.4</ele>
        <time>2025-09-17T08:20:47Z</time>
      </trkpt>
      <trkpt lat="46.05616" lon="4.52213">
        <ele>716</ele>
        <time>2025-09-17T08:20:48Z</time>
      </trkpt>
      <trkpt lat="46.05617" lon="4.52211">
        <ele>716</ele>
        <time>2025-09-17T08:20:49Z</time>
      </trkpt>
      <trkpt lat="46.05617" lon="4.5221">
        <ele>715.8</ele>
        <time>2025-09-17T08:20:50Z</time>
      </trkpt>
      <trkpt lat="46.05617" lon="4.52209">
        <ele>715.8</ele>
        <time>2025-09-17T08:20:51Z</time>
      </trkpt>
      <trkpt lat="46.05617" lon="4.52208">
        <ele>715.2</ele>
        <time>2025-09-17T08:20:52Z</time>
      </trkpt>
      <trkpt lat="46.05617" lon="4.52207">
        <ele>715</ele>
        <time>2025-09-17T08:20:53Z</time>
      </trkpt>
      <trkpt lat="46.05616" lon="4.52206">
        <ele>714.8</ele>
        <time>2025-09-17T08:20:54Z</time>
      </trkpt>
      <trkpt lat="46.05616" lon="4.52206">
        <ele>714.4</ele>
        <time>2025-09-17T08:20:55Z</time>
      </trkpt>
      <trkpt lat="46.05616" lon="4.52206">
        <ele>714.4</ele>
        <time>2025-09-17T08:20:56Z</time>
      </trkpt>
      <trkpt lat="46.05615" lon="4.52204">
        <ele>713.8</ele>
        <time>2025-09-17T08:20:59Z</time>
      </trkpt>
      <trkpt lat="46.05615" lon="4.52203">
        <ele>713.6</ele>
        <time>2025-09-17T08:21:00Z</time>
      </trkpt>
      <trkpt lat="46.05615" lon="4.52203">
        <ele>713.6</ele>
        <time>2025-09-17T08:21:01Z</time>
      </trkpt>
      <trkpt lat="46.05614" lon="4.52202">
        <ele>713.2</ele>
        <time>2025-09-17T08:21:02Z</time>
      </trkpt>
      <trkpt lat="46.05614" lon="4.52202">
        <ele>713.2</ele>
        <time>2025-09-17T08:21:03Z</time>
      </trkpt>
      <trkpt lat="46.05615" lon="4.52201">
        <ele>713.2</ele>
        <time>2025-09-17T08:21:04Z</time>
      </trkpt>
      <trkpt lat="46.05617" lon="4.52199">
        <ele>712.6</ele>
        <time>2025-09-17T08:21:16Z</time>
      </trkpt>
      <trkpt lat="46.05617" lon="4.52197">
        <ele>712.4</ele>
        <time>2025-09-17T08:21:17Z</time>
      </trkpt>
      <trkpt lat="46.05617" lon="4.52195">
        <ele>712.4</ele>
        <time>2025-09-17T08:21:18Z</time>
      </trkpt>
      <trkpt lat="46.05618" lon="4.52193">
        <ele>711.8</ele>
        <time>2025-09-17T08:21:19Z</time>
      </trkpt>
      <trkpt lat="46.05617" lon="4.52192">
        <ele>712</ele>
        <time>2025-09-17T08:21:20Z</time>
      </trkpt>
      <trkpt lat="46.05617" lon="4.52191">
        <ele>711.4</ele>
        <time>2025-09-17T08:21:21Z</time>
      </trkpt>
      <trkpt lat="46.05616" lon="4.52192">
        <ele>711.2</ele>
        <time>2025-09-17T08:21:22Z</time>
      </trkpt>
      <trkpt lat="46.05616" lon="4.52192">
        <ele>710.8</ele>
        <time>2025-09-17T08:21:23Z</time>
      </trkpt>
      <trkpt lat="46.05616" lon="4.52192">
        <ele>710.8</ele>
        <time>2025-09-17T08:21:24Z</time>
      </trkpt>
      <trkpt lat="46.05616" lon="4.52192">
        <ele>710</ele>
        <time>2025-09-17T08:21:25Z</time>
      </trkpt>
      <trkpt lat="46.05615" lon="4.52191">
        <ele>709.8</ele>
        <time>2025-09-17T08:21:26Z</time>
      </trkpt>
      <trkpt lat="46.05615" lon="4.5219">
        <ele>709.4</ele>
        <time>2025-09-17T08:21:27Z</time>
      </trkpt>
      <trkpt lat="46.05615" lon="4.52189">
        <ele>709.4</ele>
        <time>2025-09-17T08:21:28Z</time>
      </trkpt>
      <trkpt lat="46.05615" lon="4.52188">
        <ele>709</ele>
        <time>2025-09-17T08:21:29Z</time>
      </trkpt>
      <trkpt lat="46.05615" lon="4.52187">
        <ele>708</ele>
        <time>2025-09-17T08:21:30Z</time>
      </trkpt>
      <trkpt lat="46.05614" lon="4.52185">
        <ele>708</ele>
        <time>2025-09-17T08:21:31Z</time>
      </trkpt>
      <trkpt lat="46.05613" lon="4.52184">
        <ele>707.6</ele>
        <time>2025-09-17T08:21:32Z</time>
      </trkpt>
      <trkpt lat="46.05613" lon="4.52182">
        <ele>707.4</ele>
        <time>2025-09-17T08:21:33Z</time>
      </trkpt>
      <trkpt lat="46.05612" lon="4.52181">
        <ele>707.4</ele>
        <time>2025-09-17T08:21:34Z</time>
      </trkpt>
      <trkpt lat="46.05612" lon="4.5218">
        <ele>707.4</ele>
        <time>2025-09-17T08:21:35Z</time>
      </trkpt>
      <trkpt lat="46.05612" lon="4.52179">
        <ele>707.4</ele>
        <time>2025-09-17T08:21:36Z</time>
      </trkpt>
      <trkpt lat="46.05612" lon="4.52178">
        <ele>706.8</ele>
        <time>2025-09-17T08:21:37Z</time>
      </trkpt>
      <trkpt lat="46.05611" lon="4.52176">
        <ele>706.8</ele>
        <time>2025-09-17T08:21:38Z</time>
      </trkpt>
      <trkpt lat="46.05611" lon="4.52175">
        <ele>706.8</ele>
        <time>2025-09-17T08:21:39Z</time>
      </trkpt>
      <trkpt lat="46.05611" lon="4.52173">
        <ele>706.6</ele>
        <time>2025-09-17T08:21:40Z</time>
      </trkpt>
      <trkpt lat="46.05611" lon="4.52172">
        <ele>706.4</ele>
        <time>2025-09-17T08:21:41Z</time>
      </trkpt>
      <trkpt lat="46.05612" lon="4.52171">
        <ele>706</ele>
        <time>2025-09-17T08:21:42Z</time>
      </trkpt>
      <trkpt lat="46.05612" lon="4.52169">
        <ele>705.6</ele>
        <time>2025-09-17T08:21:43Z</time>
      </trkpt>
      <trkpt lat="46.05612" lon="4.52168">
        <ele>705.2</ele>
        <time>2025-09-17T08:21:44Z</time>
      </trkpt>
      <trkpt lat="46.05612" lon="4.52166">
        <ele>705.2</ele>
        <time>2025-09-17T08:21:45Z</time>
      </trkpt>
      <trkpt lat="46.05611" lon="4.52164">
        <ele>705.2</ele>
        <time>2025-09-17T08:21:46Z</time>
      </trkpt>
      <trkpt lat="46.05611" lon="4.52162">
        <ele>705</ele>
        <time>2025-09-17T08:21:47Z</time>
      </trkpt>
      <trkpt lat="46.0561" lon="4.5216">
        <ele>704.8</ele>
        <time>2025-09-17T08:21:48Z</time>
      </trkpt>
      <trkpt lat="46.0561" lon="4.52159">
        <ele>704.4</ele>
        <time>2025-09-17T08:21:49Z</time>
      </trkpt>
      <trkpt lat="46.05609" lon="4.52157">
        <ele>704.4</ele>
        <time>2025-09-17T08:21:50Z</time>
      </trkpt>
      <trkpt lat="46.05609" lon="4.52156">
        <ele>703.8</ele>
        <time>2025-09-17T08:21:51Z</time>
      </trkpt>
      <trkpt lat="46.05609" lon="4.52155">
        <ele>703.6</ele>
        <time>2025-09-17T08:21:52Z</time>
      </trkpt>
      <trkpt lat="46.05608" lon="4.52155">
        <ele>703.2</ele>
        <time>2025-09-17T08:21:53Z</time>
      </trkpt>
      <trkpt lat="46.05608" lon="4.52155">
        <ele>703</ele>
        <time>2025-09-17T08:21:54Z</time>
      </trkpt>
      <trkpt lat="46.05608" lon="4.52154">
        <ele>702.8</ele>
        <time>2025-09-17T08:21:55Z</time>
      </trkpt>
      <trkpt lat="46.05608" lon="4.52154">
        <ele>702.6</ele>
        <time>2025-09-17T08:21:56Z</time>
      </trkpt>
      <trkpt lat="46.05607" lon="4.52153">
        <ele>702.6</ele>
        <time>2025-09-17T08:21:57Z</time>
      </trkpt>
      <trkpt lat="46.05607" lon="4.52151">
        <ele>702.2</ele>
        <time>2025-09-17T08:21:58Z</time>
      </trkpt>
      <trkpt lat="46.05607" lon="4.5215">
        <ele>702.2</ele>
        <time>2025-09-17T08:21:59Z</time>
      </trkpt>
      <trkpt lat="46.05606" lon="4.52149">
        <ele>701.8</ele>
        <time>2025-09-17T08:22:00Z</time>
      </trkpt>
      <trkpt lat="46.05606" lon="4.52148">
        <ele>701.8</ele>
        <time>2025-09-17T08:22:01Z</time>
      </trkpt>
      <trkpt lat="46.05606" lon="4.52147">
        <ele>701.8</ele>
        <time>2025-09-17T08:22:02Z</time>
      </trkpt>
      <trkpt lat="46.05607" lon="4.52147">
        <ele>701.6</ele>
        <time>2025-09-17T08:22:03Z</time>
      </trkpt>
      <trkpt lat="46.05606" lon="4.52148">
        <ele>701.6</ele>
        <time>2025-09-17T08:22:04Z</time>
      </trkpt>
      <trkpt lat="46.05606" lon="4.52147">
        <ele>701.2</ele>
        <time>2025-09-17T08:22:05Z</time>
      </trkpt>
      <trkpt lat="46.05606" lon="4.52147">
        <ele>701.2</ele>
        <time>2025-09-17T08:22:06Z</time>
      </trkpt>
      <trkpt lat="46.05605" lon="4.52147">
        <ele>701.2</ele>
        <time>2025-09-17T08:22:07Z</time>
      </trkpt>
      <trkpt lat="46.05604" lon="4.52146">
        <ele>700.8</ele>
        <time>2025-09-17T08:22:08Z</time>
      </trkpt>
      <trkpt lat="46.05604" lon="4.52144">
        <ele>700.8</ele>
        <time>2025-09-17T08:22:09Z</time>
      </trkpt>
      <trkpt lat="46.05604" lon="4.52143">
        <ele>700.8</ele>
        <time>2025-09-17T08:22:10Z</time>
      </trkpt>
      <trkpt lat="46.05604" lon="4.52142">
        <ele>700.4</ele>
        <time>2025-09-17T08:22:11Z</time>
      </trkpt>
      <trkpt lat="46.05604" lon="4.52141">
        <ele>700.4</ele>
        <time>2025-09-17T08:22:12Z</time>
      </trkpt>
      <trkpt lat="46.05604" lon="4.5214">
        <ele>700</ele>
        <time>2025-09-17T08:22:13Z</time>
      </trkpt>
      <trkpt lat="46.05604" lon="4.5214">
        <ele>700</ele>
        <time>2025-09-17T08:22:14Z</time>
      </trkpt>
      <trkpt lat="46.05603" lon="4.52139">
        <ele>699.6</ele>
        <time>2025-09-17T08:22:15Z</time>
      </trkpt>
      <trkpt lat="46.05603" lon="4.52138">
        <ele>699.6</ele>
        <time>2025-09-17T08:22:16Z</time>
      </trkpt>
      <trkpt lat="46.05603" lon="4.52137">
        <ele>699.4</ele>
        <time>2025-09-17T08:22:17Z</time>
      </trkpt>
      <trkpt lat="46.05602" lon="4.52137">
        <ele>699.2</ele>
        <time>2025-09-17T08:22:18Z</time>
      </trkpt>
      <trkpt lat="46.05601" lon="4.52136">
        <ele>699.2</ele>
        <time>2025-09-17T08:22:19Z</time>
      </trkpt>
      <trkpt lat="46.05601" lon="4.52135">
        <ele>698.8</ele>
        <time>2025-09-17T08:22:20Z</time>
      </trkpt>
      <trkpt lat="46.056" lon="4.52134">
        <ele>698.8</ele>
        <time>2025-09-17T08:22:21Z</time>
      </trkpt>
      <trkpt lat="46.05599" lon="4.52133">
        <ele>698.4</ele>
        <time>2025-09-17T08:22:22Z</time>
      </trkpt>
      <trkpt lat="46.05598" lon="4.52131">
        <ele>698.2</ele>
        <time>2025-09-17T08:22:23Z</time>
      </trkpt>
      <trkpt lat="46.05598" lon="4.5213">
        <ele>698.2</ele>
        <time>2025-09-17T08:22:24Z</time>
      </trkpt>
      <trkpt lat="46.05598" lon="4.52129">
        <ele>697.8</ele>
        <time>2025-09-17T08:22:25Z</time>
      </trkpt>
      <trkpt lat="46.05598" lon="4.52127">
        <ele>697.8</ele>
        <time>2025-09-17T08:22:26Z</time>
      </trkpt>
      <trkpt lat="46.05598" lon="4.52126">
        <ele>697.6</ele>
        <time>2025-09-17T08:22:27Z</time>
      </trkpt>
      <trkpt lat="46.05598" lon="4.52126">
        <ele>697.4</ele>
        <time>2025-09-17T08:22:28Z</time>
      </trkpt>
      <trkpt lat="46.05598" lon="4.52125">
        <ele>697</ele>
        <time>2025-09-17T08:22:29Z</time>
      </trkpt>
      <trkpt lat="46.05599" lon="4.52125">
        <ele>696.6</ele>
        <time>2025-09-17T08:22:30Z</time>
      </trkpt>
      <trkpt lat="46.05599" lon="4.52124">
        <ele>696.4</ele>
        <time>2025-09-17T08:22:31Z</time>
      </trkpt>
      <trkpt lat="46.05599" lon="4.52123">
        <ele>695.8</ele>
        <time>2025-09-17T08:22:32Z</time>
      </trkpt>
      <trkpt lat="46.05599" lon="4.52123">
        <ele>695.8</ele>
        <time>2025-09-17T08:22:33Z</time>
      </trkpt>
      <trkpt lat="46.05599" lon="4.52123">
        <ele>695.6</ele>
        <time>2025-09-17T08:22:34Z</time>
      </trkpt>
      <trkpt lat="46.05599" lon="4.52122">
        <ele>695.2</ele>
        <time>2025-09-17T08:22:35Z</time>
      </trkpt>
      <trkpt lat="46.056" lon="4.52122">
        <ele>694.8</ele>
        <time>2025-09-17T08:22:36Z</time>
      </trkpt>
      <trkpt lat="46.056" lon="4.52121">
        <ele>694.8</ele>
        <time>2025-09-17T08:22:37Z</time>
      </trkpt>
      <trkpt lat="46.05599" lon="4.52119">
        <ele>694.4</ele>
        <time>2025-09-17T08:22:38Z</time>
      </trkpt>
      <trkpt lat="46.05599" lon="4.52118">
        <ele>694.4</ele>
        <time>2025-09-17T08:22:39Z</time>
      </trkpt>
      <trkpt lat="46.05598" lon="4.52117">
        <ele>694</ele>
        <time>2025-09-17T08:22:40Z</time>
      </trkpt>
      <trkpt lat="46.05598" lon="4.52117">
        <ele>693.6</ele>
        <time>2025-09-17T08:22:41Z</time>
      </trkpt>
      <trkpt lat="46.05599" lon="4.52116">
        <ele>693.4</ele>
        <time>2025-09-17T08:22:42Z</time>
      </trkpt>
      <trkpt lat="46.05599" lon="4.52115">
        <ele>693.4</ele>
        <time>2025-09-17T08:22:43Z</time>
      </trkpt>
      <trkpt lat="46.056" lon="4.52113">
        <ele>693.2</ele>
        <time>2025-09-17T08:22:44Z</time>
      </trkpt>
      <trkpt lat="46.05601" lon="4.52111">
        <ele>693.2</ele>
        <time>2025-09-17T08:22:45Z</time>
      </trkpt>
      <trkpt lat="46.05602" lon="4.5211">
        <ele>693</ele>
        <time>2025-09-17T08:22:46Z</time>
      </trkpt>
      <trkpt lat="46.05602" lon="4.52109">
        <ele>692.6</ele>
        <time>2025-09-17T08:22:47Z</time>
      </trkpt>
      <trkpt lat="46.05602" lon="4.52107">
        <ele>692.2</ele>
        <time>2025-09-17T08:22:48Z</time>
      </trkpt>
      <trkpt lat="46.05603" lon="4.52106">
        <ele>692</ele>
        <time>2025-09-17T08:22:49Z</time>
      </trkpt>
      <trkpt lat="46.05603" lon="4.52105">
        <ele>692</ele>
        <time>2025-09-17T08:22:50Z</time>
      </trkpt>
      <trkpt lat="46.05604" lon="4.52104">
        <ele>691.6</ele>
        <time>2025-09-17T08:22:51Z</time>
      </trkpt>
      <trkpt lat="46.05604" lon="4.52104">
        <ele>691.6</ele>
        <time>2025-09-17T08:22:52Z</time>
      </trkpt>
      <trkpt lat="46.05604" lon="4.52102">
        <ele>691.2</ele>
        <time>2025-09-17T08:22:53Z</time>
      </trkpt>
      <trkpt lat="46.05604" lon="4.52099">
        <ele>691.2</ele>
        <time>2025-09-17T08:22:54Z</time>
      </trkpt>
      <trkpt lat="46.05604" lon="4.52098">
        <ele>690.8</ele>
        <time>2025-09-17T08:22:55Z</time>
      </trkpt>
      <trkpt lat="46.05604" lon="4.52097">
        <ele>690.8</ele>
        <time>2025-09-17T08:22:56Z</time>
      </trkpt>
      <trkpt lat="46.05604" lon="4.52096">
        <ele>690.6</ele>
        <time>2025-09-17T08:22:57Z</time>
      </trkpt>
      <trkpt lat="46.05605" lon="4.52093">
        <ele>689.8</ele>
        <time>2025-09-17T08:23:00Z</time>
      </trkpt>
      <trkpt lat="46.05606" lon="4.52092">
        <ele>689.2</ele>
        <time>2025-09-17T08:23:01Z</time>
      </trkpt>
      <trkpt lat="46.05606" lon="4.52091">
        <ele>689.2</ele>
        <time>2025-09-17T08:23:02Z</time>
      </trkpt>
      <trkpt lat="46.05606" lon="4.5209">
        <ele>688.8</ele>
        <time>2025-09-17T08:23:03Z</time>
      </trkpt>
      <trkpt lat="46.05607" lon="4.52088">
        <ele>688.4</ele>
        <time>2025-09-17T08:23:04Z</time>
      </trkpt>
      <trkpt lat="46.05608" lon="4.52087">
        <ele>688.4</ele>
        <time>2025-09-17T08:23:05Z</time>
      </trkpt>
      <trkpt lat="46.05608" lon="4.52086">
        <ele>688</ele>
        <time>2025-09-17T08:23:06Z</time>
      </trkpt>
      <trkpt lat="46.05608" lon="4.52085">
        <ele>688</ele>
        <time>2025-09-17T08:23:07Z</time>
      </trkpt>
      <trkpt lat="46.05608" lon="4.52085">
        <ele>687.6</ele>
        <time>2025-09-17T08:23:08Z</time>
      </trkpt>
      <trkpt lat="46.05608" lon="4.52085">
        <ele>687.6</ele>
        <time>2025-09-17T08:23:09Z</time>
      </trkpt>
      <trkpt lat="46.05608" lon="4.52085">
        <ele>687.2</ele>
        <time>2025-09-17T08:23:10Z</time>
      </trkpt>
      <trkpt lat="46.05607" lon="4.52082">
        <ele>687.2</ele>
        <time>2025-09-17T08:23:29Z</time>
      </trkpt>
      <trkpt lat="46.05607" lon="4.5208">
        <ele>686.8</ele>
        <time>2025-09-17T08:23:30Z</time>
      </trkpt>
      <trkpt lat="46.05607" lon="4.52078">
        <ele>686.4</ele>
        <time>2025-09-17T08:23:31Z</time>
      </trkpt>
      <trkpt lat="46.05607" lon="4.52077">
        <ele>686.4</ele>
        <time>2025-09-17T08:23:32Z</time>
      </trkpt>
      <trkpt lat="46.05607" lon="4.52077">
        <ele>686</ele>
        <time>2025-09-17T08:23:33Z</time>
      </trkpt>
      <trkpt lat="46.05607" lon="4.52078">
        <ele>686</ele>
        <time>2025-09-17T08:23:34Z</time>
      </trkpt>
      <trkpt lat="46.05606" lon="4.52078">
        <ele>686</ele>
        <time>2025-09-17T08:23:35Z</time>
      </trkpt>
      <trkpt lat="46.05607" lon="4.52073">
        <ele>686</ele>
        <time>2025-09-17T08:23:43Z</time>
      </trkpt>
      <trkpt lat="46.05607" lon="4.52071">
        <ele>686</ele>
        <time>2025-09-17T08:23:44Z</time>
      </trkpt>
      <trkpt lat="46.05606" lon="4.52069">
        <ele>685.8</ele>
        <time>2025-09-17T08:23:45Z</time>
      </trkpt>
      <trkpt lat="46.05605" lon="4.52069">
        <ele>685.8</ele>
        <time>2025-09-17T08:23:46Z</time>
      </trkpt>
      <trkpt lat="46.05605" lon="4.52069">
        <ele>685.8</ele>
        <time>2025-09-17T08:23:47Z</time>
      </trkpt>
      <trkpt lat="46.05605" lon="4.52069">
        <ele>685.8</ele>
        <time>2025-09-17T08:23:48Z</time>
      </trkpt>
      <trkpt lat="46.05605" lon="4.52069">
        <ele>685.8</ele>
        <time>2025-09-17T08:23:52Z</time>
      </trkpt>
      <trkpt lat="46.05606" lon="4.52069">
        <ele>685.8</ele>
        <time>2025-09-17T08:23:53Z</time>
      </trkpt>
      <trkpt lat="46.05606" lon="4.5207">
        <ele>685.8</ele>
        <time>2025-09-17T08:23:54Z</time>
      </trkpt>
      <trkpt lat="46.05607" lon="4.52069">
        <ele>685.8</ele>
        <time>2025-09-17T08:23:55Z</time>
      </trkpt>
      <trkpt lat="46.05608" lon="4.52069">
        <ele>685.8</ele>
        <time>2025-09-17T08:23:56Z</time>
      </trkpt>
      <trkpt lat="46.05607" lon="4.52069">
        <ele>685.8</ele>
        <time>2025-09-17T08:23:57Z</time>
      </trkpt>
      <trkpt lat="46.05605" lon="4.52073">
        <ele>685.4</ele>
        <time>2025-09-17T08:25:21Z</time>
      </trkpt>
      <trkpt lat="46.05604" lon="4.52073">
        <ele>685.2</ele>
        <time>2025-09-17T08:25:22Z</time>
      </trkpt>
      <trkpt lat="46.05602" lon="4.52075">
        <ele>685.2</ele>
        <time>2025-09-17T08:25:23Z</time>
      </trkpt>
      <trkpt lat="46.05599" lon="4.52076">
        <ele>685.2</ele>
        <time>2025-09-17T08:25:24Z</time>
      </trkpt>
      <trkpt lat="46.05596" lon="4.52077">
        <ele>685.2</ele>
        <time>2025-09-17T08:25:25Z</time>
      </trkpt>
      <trkpt lat="46.05593" lon="4.52077">
        <ele>685.2</ele>
        <time>2025-09-17T08:25:26Z</time>
      </trkpt>
      <trkpt lat="46.05591" lon="4.52077">
        <ele>685.2</ele>
        <time>2025-09-17T08:25:27Z</time>
      </trkpt>
      <trkpt lat="46.0559" lon="4.52077">
        <ele>685.2</ele>
        <time>2025-09-17T08:25:28Z</time>
      </trkpt>
      <trkpt lat="46.05589" lon="4.52077">
        <ele>685.2</ele>
        <time>2025-09-17T08:25:29Z</time>
      </trkpt>
      <trkpt lat="46.05589" lon="4.52077">
        <ele>685.2</ele>
        <time>2025-09-17T08:25:30Z</time>
      </trkpt>
      <trkpt lat="46.05589" lon="4.52077">
        <ele>685.2</ele>
        <time>2025-09-17T08:25:31Z</time>
      </trkpt>
      <trkpt lat="46.05586" lon="4.52075">
        <ele>685</ele>
        <time>2025-09-17T08:25:44Z</time>
      </trkpt>
      <trkpt lat="46.05584" lon="4.52074">
        <ele>685.2</ele>
        <time>2025-09-17T08:25:45Z</time>
      </trkpt>
      <trkpt lat="46.05582" lon="4.52074">
        <ele>684.8</ele>
        <time>2025-09-17T08:25:46Z</time>
      </trkpt>
      <trkpt lat="46.05579" lon="4.52075">
        <ele>684.8</ele>
        <time>2025-09-17T08:25:47Z</time>
      </trkpt>
      <trkpt lat="46.05577" lon="4.52076">
        <ele>684.2</ele>
        <time>2025-09-17T08:25:48Z</time>
      </trkpt>
      <trkpt lat="46.05575" lon="4.52078">
        <ele>684.2</ele>
        <time>2025-09-17T08:25:49Z</time>
      </trkpt>
      <trkpt lat="46.05571" lon="4.5208">
        <ele>684.2</ele>
        <time>2025-09-17T08:25:50Z</time>
      </trkpt>
      <trkpt lat="46.05568" lon="4.52083">
        <ele>684.2</ele>
        <time>2025-09-17T08:25:51Z</time>
      </trkpt>
      <trkpt lat="46.05563" lon="4.52089">
        <ele>684.2</ele>
        <time>2025-09-17T08:25:52Z</time>
      </trkpt>
      <trkpt lat="46.05555" lon="4.52094">
        <ele>684</ele>
        <time>2025-09-17T08:25:53Z</time>
      </trkpt>
      <trkpt lat="46.05551" lon="4.52097">
        <ele>684</ele>
        <time>2025-09-17T08:25:54Z</time>
      </trkpt>
      <trkpt lat="46.05547" lon="4.52101">
        <ele>684</ele>
        <time>2025-09-17T08:25:55Z</time>
      </trkpt>
      <trkpt lat="46.0554" lon="4.52107">
        <ele>683.6</ele>
        <time>2025-09-17T08:25:56Z</time>
      </trkpt>
      <trkpt lat="46.05536" lon="4.52111">
        <ele>683.4</ele>
        <time>2025-09-17T08:25:57Z</time>
      </trkpt>
      <trkpt lat="46.0553" lon="4.52116">
        <ele>683.4</ele>
        <time>2025-09-17T08:25:58Z</time>
      </trkpt>
      <trkpt lat="46.05523" lon="4.52122">
        <ele>683</ele>
        <time>2025-09-17T08:25:59Z</time>
      </trkpt>
      <trkpt lat="46.05518" lon="4.52125">
        <ele>683</ele>
        <time>2025-09-17T08:26:00Z</time>
      </trkpt>
      <trkpt lat="46.05513" lon="4.52129">
        <ele>683.4</ele>
        <time>2025-09-17T08:26:01Z</time>
      </trkpt>
      <trkpt lat="46.05508" lon="4.52131">
        <ele>683</ele>
        <time>2025-09-17T08:26:02Z</time>
      </trkpt>
      <trkpt lat="46.05504" lon="4.52133">
        <ele>682.8</ele>
        <time>2025-09-17T08:26:03Z</time>
      </trkpt>
      <trkpt lat="46.05499" lon="4.52135">
        <ele>682.8</ele>
        <time>2025-09-17T08:26:04Z</time>
      </trkpt>
      <trkpt lat="46.05494" lon="4.52139">
        <ele>682.8</ele>
        <time>2025-09-17T08:26:05Z</time>
      </trkpt>
      <trkpt lat="46.05487" lon="4.52142">
        <ele>683.2</ele>
        <time>2025-09-17T08:26:06Z</time>
      </trkpt>
      <trkpt lat="46.05481" lon="4.52147">
        <ele>683.2</ele>
        <time>2025-09-17T08:26:07Z</time>
      </trkpt>
      <trkpt lat="46.05476" lon="4.5215">
        <ele>683.2</ele>
        <time>2025-09-17T08:26:08Z</time>
      </trkpt>
      <trkpt lat="46.05469" lon="4.52154">
        <ele>682.8</ele>
        <time>2025-09-17T08:26:09Z</time>
      </trkpt>
      <trkpt lat="46.05464" lon="4.52158">
        <ele>682.6</ele>
        <time>2025-09-17T08:26:10Z</time>
      </trkpt>
      <trkpt lat="46.05459" lon="4.52161">
        <ele>682</ele>
        <time>2025-09-17T08:26:11Z</time>
      </trkpt>
      <trkpt lat="46.05452" lon="4.52166">
        <ele>682.2</ele>
        <time>2025-09-17T08:26:12Z</time>
      </trkpt>
      <trkpt lat="46.05448" lon="4.52169">
        <ele>682.8</ele>
        <time>2025-09-17T08:26:13Z</time>
      </trkpt>
      <trkpt lat="46.05442" lon="4.52172">
        <ele>682.8</ele>
        <time>2025-09-17T08:26:14Z</time>
      </trkpt>
      <trkpt lat="46.05437" lon="4.52175">
        <ele>682.4</ele>
        <time>2025-09-17T08:26:15Z</time>
      </trkpt>
      <trkpt lat="46.05431" lon="4.52176">
        <ele>682.4</ele>
        <time>2025-09-17T08:26:16Z</time>
      </trkpt>
      <trkpt lat="46.05427" lon="4.52179">
        <ele>682.8</ele>
        <time>2025-09-17T08:26:17Z</time>
      </trkpt>
      <trkpt lat="46.05426" lon="4.52181">
        <ele>682.4</ele>
        <time>2025-09-17T08:26:18Z</time>
      </trkpt>
      <trkpt lat="46.0542" lon="4.52185">
        <ele>683.2</ele>
        <time>2025-09-17T08:26:19Z</time>
      </trkpt>
      <trkpt lat="46.05416" lon="4.52188">
        <ele>683.2</ele>
        <time>2025-09-17T08:26:20Z</time>
      </trkpt>
      <trkpt lat="46.05413" lon="4.5219">
        <ele>683.2</ele>
        <time>2025-09-17T08:26:21Z</time>
      </trkpt>
      <trkpt lat="46.05408" lon="4.52192">
        <ele>683.2</ele>
        <time>2025-09-17T08:26:22Z</time>
      </trkpt>
      <trkpt lat="46.05403" lon="4.52195">
        <ele>683.2</ele>
        <time>2025-09-17T08:26:23Z</time>
      </trkpt>
      <trkpt lat="46.05399" lon="4.52198">
        <ele>683.2</ele>
        <time>2025-09-17T08:26:24Z</time>
      </trkpt>
      <trkpt lat="46.05396" lon="4.52203">
        <ele>683.2</ele>
        <time>2025-09-17T08:26:25Z</time>
      </trkpt>
      <trkpt lat="46.05391" lon="4.52204">
        <ele>683.2</ele>
        <time>2025-09-17T08:26:26Z</time>
      </trkpt>
      <trkpt lat="46.05386" lon="4.52205">
        <ele>683.2</ele>
        <time>2025-09-17T08:26:27Z</time>
      </trkpt>
      <trkpt lat="46.05379" lon="4.52208">
        <ele>683.2</ele>
        <time>2025-09-17T08:26:28Z</time>
      </trkpt>
      <trkpt lat="46.05376" lon="4.52207">
        <ele>683.2</ele>
        <time>2025-09-17T08:26:29Z</time>
      </trkpt>
      <trkpt lat="46.05371" lon="4.5221">
        <ele>683.2</ele>
        <time>2025-09-17T08:26:30Z</time>
      </trkpt>
      <trkpt lat="46.05365" lon="4.52207">
        <ele>683.2</ele>
        <time>2025-09-17T08:26:31Z</time>
      </trkpt>
      <trkpt lat="46.0536" lon="4.52207">
        <ele>683.2</ele>
        <time>2025-09-17T08:26:32Z</time>
      </trkpt>
      <trkpt lat="46.05357" lon="4.52206">
        <ele>683.4</ele>
        <time>2025-09-17T08:26:33Z</time>
      </trkpt>
      <trkpt lat="46.05354" lon="4.52206">
        <ele>683.4</ele>
        <time>2025-09-17T08:26:34Z</time>
      </trkpt>
      <trkpt lat="46.05349" lon="4.52205">
        <ele>683.4</ele>
        <time>2025-09-17T08:26:35Z</time>
      </trkpt>
      <trkpt lat="46.05345" lon="4.52202">
        <ele>684.2</ele>
        <time>2025-09-17T08:26:36Z</time>
      </trkpt>
      <trkpt lat="46.05341" lon="4.52201">
        <ele>684.2</ele>
        <time>2025-09-17T08:26:37Z</time>
      </trkpt>
      <trkpt lat="46.05336" lon="4.52199">
        <ele>684.2</ele>
        <time>2025-09-17T08:26:38Z</time>
      </trkpt>
      <trkpt lat="46.05333" lon="4.52197">
        <ele>684.4</ele>
        <time>2025-09-17T08:26:39Z</time>
      </trkpt>
      <trkpt lat="46.05328" lon="4.52194">
        <ele>684.2</ele>
        <time>2025-09-17T08:26:40Z</time>
      </trkpt>
      <trkpt lat="46.05324" lon="4.52191">
        <ele>684.2</ele>
        <time>2025-09-17T08:26:41Z</time>
      </trkpt>
      <trkpt lat="46.05319" lon="4.5219">
        <ele>684</ele>
        <time>2025-09-17T08:26:42Z</time>
      </trkpt>
      <trkpt lat="46.05313" lon="4.52187">
        <ele>684</ele>
        <time>2025-09-17T08:26:43Z</time>
      </trkpt>
      <trkpt lat="46.05309" lon="4.52184">
        <ele>684</ele>
        <time>2025-09-17T08:26:44Z</time>
      </trkpt>
      <trkpt lat="46.05305" lon="4.52182">
        <ele>684</ele>
        <time>2025-09-17T08:26:45Z</time>
      </trkpt>
      <trkpt lat="46.053" lon="4.52181">
        <ele>684</ele>
        <time>2025-09-17T08:26:46Z</time>
      </trkpt>
      <trkpt lat="46.05294" lon="4.52179">
        <ele>684</ele>
        <time>2025-09-17T08:26:47Z</time>
      </trkpt>
      <trkpt lat="46.05289" lon="4.52176">
        <ele>684</ele>
        <time>2025-09-17T08:26:48Z</time>
      </trkpt>
      <trkpt lat="46.05285" lon="4.52173">
        <ele>684</ele>
        <time>2025-09-17T08:26:49Z</time>
      </trkpt>
      <trkpt lat="46.0528" lon="4.52171">
        <ele>684</ele>
        <time>2025-09-17T08:26:50Z</time>
      </trkpt>
      <trkpt lat="46.05274" lon="4.52169">
        <ele>684</ele>
        <time>2025-09-17T08:26:51Z</time>
      </trkpt>
      <trkpt lat="46.05268" lon="4.52169">
        <ele>683.4</ele>
        <time>2025-09-17T08:26:52Z</time>
      </trkpt>
      <trkpt lat="46.05263" lon="4.5217">
        <ele>683.4</ele>
        <time>2025-09-17T08:26:53Z</time>
      </trkpt>
      <trkpt lat="46.05259" lon="4.52172">
        <ele>683.2</ele>
        <time>2025-09-17T08:26:54Z</time>
      </trkpt>
      <trkpt lat="46.05255" lon="4.52176">
        <ele>682.6</ele>
        <time>2025-09-17T08:26:55Z</time>
      </trkpt>
      <trkpt lat="46.05252" lon="4.52181">
        <ele>682.2</ele>
        <time>2025-09-17T08:26:56Z</time>
      </trkpt>
      <trkpt lat="46.05249" lon="4.52183">
        <ele>682.8</ele>
        <time>2025-09-17T08:26:57Z</time>
      </trkpt>
      <trkpt lat="46.05248" lon="4.5219">
        <ele>682.8</ele>
        <time>2025-09-17T08:26:58Z</time>
      </trkpt>
      <trkpt lat="46.05246" lon="4.52198">
        <ele>682.4</ele>
        <time>2025-09-17T08:26:59Z</time>
      </trkpt>
      <trkpt lat="46.05247" lon="4.52204">
        <ele>682.4</ele>
        <time>2025-09-17T08:27:00Z</time>
      </trkpt>
      <trkpt lat="46.05246" lon="4.52211">
        <ele>681.8</ele>
        <time>2025-09-17T08:27:01Z</time>
      </trkpt>
      <trkpt lat="46.05244" lon="4.52218">
        <ele>681.8</ele>
        <time>2025-09-17T08:27:02Z</time>
      </trkpt>
      <trkpt lat="46.05242" lon="4.52227">
        <ele>681.8</ele>
        <time>2025-09-17T08:27:03Z</time>
      </trkpt>
      <trkpt lat="46.05242" lon="4.52234">
        <ele>682</ele>
        <time>2025-09-17T08:27:04Z</time>
      </trkpt>
      <trkpt lat="46.05241" lon="4.52243">
        <ele>682.4</ele>
        <time>2025-09-17T08:27:05Z</time>
      </trkpt>
      <trkpt lat="46.05241" lon="4.5225">
        <ele>682.4</ele>
        <time>2025-09-17T08:27:06Z</time>
      </trkpt>
      <trkpt lat="46.05239" lon="4.52259">
        <ele>681.4</ele>
        <time>2025-09-17T08:27:07Z</time>
      </trkpt>
      <trkpt lat="46.05236" lon="4.52265">
        <ele>681.4</ele>
        <time>2025-09-17T08:27:08Z</time>
      </trkpt>
      <trkpt lat="46.05234" lon="4.52276">
        <ele>681.4</ele>
        <time>2025-09-17T08:27:09Z</time>
      </trkpt>
      <trkpt lat="46.05231" lon="4.52284">
        <ele>681.2</ele>
        <time>2025-09-17T08:27:10Z</time>
      </trkpt>
      <trkpt lat="46.05227" lon="4.52293">
        <ele>680.8</ele>
        <time>2025-09-17T08:27:11Z</time>
      </trkpt>
      <trkpt lat="46.05223" lon="4.52301">
        <ele>680.8</ele>
        <time>2025-09-17T08:27:12Z</time>
      </trkpt>
      <trkpt lat="46.05222" lon="4.52309">
        <ele>680.6</ele>
        <time>2025-09-17T08:27:13Z</time>
      </trkpt>
      <trkpt lat="46.05219" lon="4.52317">
        <ele>680.6</ele>
        <time>2025-09-17T08:27:14Z</time>
      </trkpt>
      <trkpt lat="46.05216" lon="4.52322">
        <ele>680.6</ele>
        <time>2025-09-17T08:27:15Z</time>
      </trkpt>
      <trkpt lat="46.05212" lon="4.5233">
        <ele>680.6</ele>
        <time>2025-09-17T08:27:16Z</time>
      </trkpt>
      <trkpt lat="46.05213" lon="4.52337">
        <ele>680.2</ele>
        <time>2025-09-17T08:27:17Z</time>
      </trkpt>
      <trkpt lat="46.05209" lon="4.52342">
        <ele>679.8</ele>
        <time>2025-09-17T08:27:18Z</time>
      </trkpt>
      <trkpt lat="46.05207" lon="4.52348">
        <ele>680</ele>
        <time>2025-09-17T08:27:19Z</time>
      </trkpt>
      <trkpt lat="46.05205" lon="4.52353">
        <ele>680</ele>
        <time>2025-09-17T08:27:20Z</time>
      </trkpt>
      <trkpt lat="46.05202" lon="4.52357">
        <ele>680</ele>
        <time>2025-09-17T08:27:21Z</time>
      </trkpt>
      <trkpt lat="46.05198" lon="4.52361">
        <ele>680.4</ele>
        <time>2025-09-17T08:27:22Z</time>
      </trkpt>
      <trkpt lat="46.05196" lon="4.52364">
        <ele>680.4</ele>
        <time>2025-09-17T08:27:23Z</time>
      </trkpt>
      <trkpt lat="46.05194" lon="4.52367">
        <ele>680.4</ele>
        <time>2025-09-17T08:27:24Z</time>
      </trkpt>
      <trkpt lat="46.05191" lon="4.52371">
        <ele>680.8</ele>
        <time>2025-09-17T08:27:25Z</time>
      </trkpt>
      <trkpt lat="46.05188" lon="4.52374">
        <ele>681.2</ele>
        <time>2025-09-17T08:27:26Z</time>
      </trkpt>
      <trkpt lat="46.05186" lon="4.52376">
        <ele>680.8</ele>
        <time>2025-09-17T08:27:27Z</time>
      </trkpt>
      <trkpt lat="46.05182" lon="4.52381">
        <ele>680.8</ele>
        <time>2025-09-17T08:27:28Z</time>
      </trkpt>
      <trkpt lat="46.05179" lon="4.52385">
        <ele>680.8</ele>
        <time>2025-09-17T08:27:29Z</time>
      </trkpt>
      <trkpt lat="46.05175" lon="4.52388">
        <ele>680.4</ele>
        <time>2025-09-17T08:27:30Z</time>
      </trkpt>
      <trkpt lat="46.05172" lon="4.52392">
        <ele>680.6</ele>
        <time>2025-09-17T08:27:31Z</time>
      </trkpt>
      <trkpt lat="46.05168" lon="4.52396">
        <ele>680.8</ele>
        <time>2025-09-17T08:27:32Z</time>
      </trkpt>
      <trkpt lat="46.05163" lon="4.52398">
        <ele>681.2</ele>
        <time>2025-09-17T08:27:33Z</time>
      </trkpt>
      <trkpt lat="46.05159" lon="4.52401">
        <ele>681.2</ele>
        <time>2025-09-17T08:27:34Z</time>
      </trkpt>
      <trkpt lat="46.05156" lon="4.52405">
        <ele>681.8</ele>
        <time>2025-09-17T08:27:35Z</time>
      </trkpt>
      <trkpt lat="46.05152" lon="4.52409">
        <ele>681.8</ele>
        <time>2025-09-17T08:27:36Z</time>
      </trkpt>
      <trkpt lat="46.0515" lon="4.52411">
        <ele>681.6</ele>
        <time>2025-09-17T08:27:37Z</time>
      </trkpt>
      <trkpt lat="46.05146" lon="4.52415">
        <ele>681.2</ele>
        <time>2025-09-17T08:27:38Z</time>
      </trkpt>
      <trkpt lat="46.05142" lon="4.52417">
        <ele>681.2</ele>
        <time>2025-09-17T08:27:39Z</time>
      </trkpt>
      <trkpt lat="46.05139" lon="4.52421">
        <ele>681.4</ele>
        <time>2025-09-17T08:27:40Z</time>
      </trkpt>
      <trkpt lat="46.05135" lon="4.52424">
        <ele>681.4</ele>
        <time>2025-09-17T08:27:41Z</time>
      </trkpt>
      <trkpt lat="46.0513" lon="4.52426">
        <ele>681.6</ele>
        <time>2025-09-17T08:27:42Z</time>
      </trkpt>
      <trkpt lat="46.05126" lon="4.52427">
        <ele>681.6</ele>
        <time>2025-09-17T08:27:43Z</time>
      </trkpt>
      <trkpt lat="46.05122" lon="4.52426">
        <ele>681.6</ele>
        <time>2025-09-17T08:27:44Z</time>
      </trkpt>
      <trkpt lat="46.05119" lon="4.52425">
        <ele>681.6</ele>
        <time>2025-09-17T08:27:45Z</time>
      </trkpt>
      <trkpt lat="46.05116" lon="4.52422">
        <ele>682.2</ele>
        <time>2025-09-17T08:27:46Z</time>
      </trkpt>
      <trkpt lat="46.05113" lon="4.52419">
        <ele>682.8</ele>
        <time>2025-09-17T08:27:47Z</time>
      </trkpt>
      <trkpt lat="46.05111" lon="4.52416">
        <ele>683.2</ele>
        <time>2025-09-17T08:27:48Z</time>
      </trkpt>
      <trkpt lat="46.05108" lon="4.52413">
        <ele>683.4</ele>
        <time>2025-09-17T08:27:49Z</time>
      </trkpt>
      <trkpt lat="46.05105" lon="4.5241">
        <ele>683.4</ele>
        <time>2025-09-17T08:27:50Z</time>
      </trkpt>
      <trkpt lat="46.05103" lon="4.52407">
        <ele>684</ele>
        <time>2025-09-17T08:27:51Z</time>
      </trkpt>
      <trkpt lat="46.05102" lon="4.52403">
        <ele>684</ele>
        <time>2025-09-17T08:27:52Z</time>
      </trkpt>
      <trkpt lat="46.05101" lon="4.52399">
        <ele>684</ele>
        <time>2025-09-17T08:27:53Z</time>
      </trkpt>
      <trkpt lat="46.05099" lon="4.52395">
        <ele>684</ele>
        <time>2025-09-17T08:27:54Z</time>
      </trkpt>
      <trkpt lat="46.05097" lon="4.52391">
        <ele>684</ele>
        <time>2025-09-17T08:27:55Z</time>
      </trkpt>
      <trkpt lat="46.05096" lon="4.52387">
        <ele>684</ele>
        <time>2025-09-17T08:27:56Z</time>
      </trkpt>
      <trkpt lat="46.05094" lon="4.52384">
        <ele>684</ele>
        <time>2025-09-17T08:27:57Z</time>
      </trkpt>
      <trkpt lat="46.05092" lon="4.52381">
        <ele>684</ele>
        <time>2025-09-17T08:27:58Z</time>
      </trkpt>
      <trkpt lat="46.0509" lon="4.52379">
        <ele>684.6</ele>
        <time>2025-09-17T08:27:59Z</time>
      </trkpt>
      <trkpt lat="46.05088" lon="4.52376">
        <ele>684.6</ele>
        <time>2025-09-17T08:28:00Z</time>
      </trkpt>
      <trkpt lat="46.05085" lon="4.52373">
        <ele>684.8</ele>
        <time>2025-09-17T08:28:01Z</time>
      </trkpt>
      <trkpt lat="46.05082" lon="4.52369">
        <ele>684.8</ele>
        <time>2025-09-17T08:28:02Z</time>
      </trkpt>
      <trkpt lat="46.0508" lon="4.52366">
        <ele>685.2</ele>
        <time>2025-09-17T08:28:03Z</time>
      </trkpt>
      <trkpt lat="46.05078" lon="4.52363">
        <ele>685.4</ele>
        <time>2025-09-17T08:28:04Z</time>
      </trkpt>
      <trkpt lat="46.05076" lon="4.52359">
        <ele>685.4</ele>
        <time>2025-09-17T08:28:05Z</time>
      </trkpt>
      <trkpt lat="46.05073" lon="4.52357">
        <ele>685.6</ele>
        <time>2025-09-17T08:28:06Z</time>
      </trkpt>
      <trkpt lat="46.0507" lon="4.52354">
        <ele>685.6</ele>
        <time>2025-09-17T08:28:07Z</time>
      </trkpt>
      <trkpt lat="46.05067" lon="4.5235">
        <ele>685.6</ele>
        <time>2025-09-17T08:28:08Z</time>
      </trkpt>
      <trkpt lat="46.05065" lon="4.52347">
        <ele>685.6</ele>
        <time>2025-09-17T08:28:09Z</time>
      </trkpt>
      <trkpt lat="46.05063" lon="4.52344">
        <ele>686</ele>
        <time>2025-09-17T08:28:10Z</time>
      </trkpt>
      <trkpt lat="46.0506" lon="4.52341">
        <ele>686</ele>
        <time>2025-09-17T08:28:11Z</time>
      </trkpt>
      <trkpt lat="46.05058" lon="4.52338">
        <ele>686</ele>
        <time>2025-09-17T08:28:12Z</time>
      </trkpt>
      <trkpt lat="46.05055" lon="4.52336">
        <ele>686</ele>
        <time>2025-09-17T08:28:13Z</time>
      </trkpt>
      <trkpt lat="46.05053" lon="4.52334">
        <ele>686</ele>
        <time>2025-09-17T08:28:14Z</time>
      </trkpt>
      <trkpt lat="46.05051" lon="4.52332">
        <ele>686</ele>
        <time>2025-09-17T08:28:15Z</time>
      </trkpt>
      <trkpt lat="46.05049" lon="4.52331">
        <ele>686</ele>
        <time>2025-09-17T08:28:16Z</time>
      </trkpt>
      <trkpt lat="46.05047" lon="4.52329">
        <ele>685.6</ele>
        <time>2025-09-17T08:28:17Z</time>
      </trkpt>
      <trkpt lat="46.05045" lon="4.52327">
        <ele>685.6</ele>
        <time>2025-09-17T08:28:18Z</time>
      </trkpt>
      <trkpt lat="46.05041" lon="4.52325">
        <ele>685.6</ele>
        <time>2025-09-17T08:28:19Z</time>
      </trkpt>
      <trkpt lat="46.05039" lon="4.52323">
        <ele>685.6</ele>
        <time>2025-09-17T08:28:20Z</time>
      </trkpt>
      <trkpt lat="46.05037" lon="4.52321">
        <ele>685.6</ele>
        <time>2025-09-17T08:28:21Z</time>
      </trkpt>
      <trkpt lat="46.05035" lon="4.52319">
        <ele>685.6</ele>
        <time>2025-09-17T08:28:22Z</time>
      </trkpt>
      <trkpt lat="46.05032" lon="4.52317">
        <ele>685.4</ele>
        <time>2025-09-17T08:28:23Z</time>
      </trkpt>
      <trkpt lat="46.05029" lon="4.52315">
        <ele>685.6</ele>
        <time>2025-09-17T08:28:24Z</time>
      </trkpt>
      <trkpt lat="46.05025" lon="4.52313">
        <ele>685.6</ele>
        <time>2025-09-17T08:28:25Z</time>
      </trkpt>
      <trkpt lat="46.05022" lon="4.52313">
        <ele>685.2</ele>
        <time>2025-09-17T08:28:26Z</time>
      </trkpt>
      <trkpt lat="46.05018" lon="4.52312">
        <ele>685.2</ele>
        <time>2025-09-17T08:28:27Z</time>
      </trkpt>
      <trkpt lat="46.05015" lon="4.52313">
        <ele>685.2</ele>
        <time>2025-09-17T08:28:28Z</time>
      </trkpt>
      <trkpt lat="46.05012" lon="4.52313">
        <ele>685.2</ele>
        <time>2025-09-17T08:28:29Z</time>
      </trkpt>
      <trkpt lat="46.0501" lon="4.52314">
        <ele>685.2</ele>
        <time>2025-09-17T08:28:30Z</time>
      </trkpt>
      <trkpt lat="46.05007" lon="4.52315">
        <ele>685.2</ele>
        <time>2025-09-17T08:28:31Z</time>
      </trkpt>
      <trkpt lat="46.05005" lon="4.52316">
        <ele>685.2</ele>
        <time>2025-09-17T08:28:32Z</time>
      </trkpt>
      <trkpt lat="46.05003" lon="4.52316">
        <ele>685.2</ele>
        <time>2025-09-17T08:28:33Z</time>
      </trkpt>
      <trkpt lat="46.05001" lon="4.52317">
        <ele>685.2</ele>
        <time>2025-09-17T08:28:34Z</time>
      </trkpt>
      <trkpt lat="46.04998" lon="4.52319">
        <ele>685.2</ele>
        <time>2025-09-17T08:28:35Z</time>
      </trkpt>
      <trkpt lat="46.04996" lon="4.52322">
        <ele>685.2</ele>
        <time>2025-09-17T08:28:36Z</time>
      </trkpt>
      <trkpt lat="46.04994" lon="4.52324">
        <ele>685.2</ele>
        <time>2025-09-17T08:28:37Z</time>
      </trkpt>
      <trkpt lat="46.04991" lon="4.52326">
        <ele>685.2</ele>
        <time>2025-09-17T08:28:38Z</time>
      </trkpt>
      <trkpt lat="46.04988" lon="4.52328">
        <ele>685.2</ele>
        <time>2025-09-17T08:28:39Z</time>
      </trkpt>
      <trkpt lat="46.04985" lon="4.5233">
        <ele>685.2</ele>
        <time>2025-09-17T08:28:40Z</time>
      </trkpt>
      <trkpt lat="46.04983" lon="4.52331">
        <ele>685</ele>
        <time>2025-09-17T08:28:41Z</time>
      </trkpt>
      <trkpt lat="46.0498" lon="4.52333">
        <ele>685.4</ele>
        <time>2025-09-17T08:28:42Z</time>
      </trkpt>
      <trkpt lat="46.04978" lon="4.52336">
        <ele>685.4</ele>
        <time>2025-09-17T08:28:43Z</time>
      </trkpt>
      <trkpt lat="46.04976" lon="4.52338">
        <ele>685.4</ele>
        <time>2025-09-17T08:28:44Z</time>
      </trkpt>
      <trkpt lat="46.04974" lon="4.5234">
        <ele>685.6</ele>
        <time>2025-09-17T08:28:45Z</time>
      </trkpt>
      <trkpt lat="46.04972" lon="4.52343">
        <ele>685.8</ele>
        <time>2025-09-17T08:28:46Z</time>
      </trkpt>
      <trkpt lat="46.0497" lon="4.52345">
        <ele>686.4</ele>
        <time>2025-09-17T08:28:47Z</time>
      </trkpt>
      <trkpt lat="46.04968" lon="4.52348">
        <ele>686.2</ele>
        <time>2025-09-17T08:28:48Z</time>
      </trkpt>
      <trkpt lat="46.04966" lon="4.52351">
        <ele>686.2</ele>
        <time>2025-09-17T08:28:49Z</time>
      </trkpt>
      <trkpt lat="46.04964" lon="4.52354">
        <ele>686.2</ele>
        <time>2025-09-17T08:28:50Z</time>
      </trkpt>
      <trkpt lat="46.04962" lon="4.52356">
        <ele>686.6</ele>
        <time>2025-09-17T08:28:51Z</time>
      </trkpt>
      <trkpt lat="46.0496" lon="4.52359">
        <ele>686.6</ele>
        <time>2025-09-17T08:28:52Z</time>
      </trkpt>
      <trkpt lat="46.04958" lon="4.52361">
        <ele>687</ele>
        <time>2025-09-17T08:28:53Z</time>
      </trkpt>
      <trkpt lat="46.04956" lon="4.52364">
        <ele>687</ele>
        <time>2025-09-17T08:28:54Z</time>
      </trkpt>
      <trkpt lat="46.04954" lon="4.52366">
        <ele>687.4</ele>
        <time>2025-09-17T08:28:55Z</time>
      </trkpt>
      <trkpt lat="46.04952" lon="4.52369">
        <ele>687.4</ele>
        <time>2025-09-17T08:28:56Z</time>
      </trkpt>
      <trkpt lat="46.0495" lon="4.52371">
        <ele>687.4</ele>
        <time>2025-09-17T08:28:57Z</time>
      </trkpt>
      <trkpt lat="46.04948" lon="4.52374">
        <ele>687.8</ele>
        <time>2025-09-17T08:28:58Z</time>
      </trkpt>
      <trkpt lat="46.04946" lon="4.52376">
        <ele>687.8</ele>
        <time>2025-09-17T08:28:59Z</time>
      </trkpt>
      <trkpt lat="46.04944" lon="4.52379">
        <ele>687.8</ele>
        <time>2025-09-17T08:29:00Z</time>
      </trkpt>
      <trkpt lat="46.04942" lon="4.52382">
        <ele>688</ele>
        <time>2025-09-17T08:29:01Z</time>
      </trkpt>
      <trkpt lat="46.0494" lon="4.52384">
        <ele>687</ele>
        <time>2025-09-17T08:29:02Z</time>
      </trkpt>
      <trkpt lat="46.04938" lon="4.52388">
        <ele>687.4</ele>
        <time>2025-09-17T08:29:03Z</time>
      </trkpt>
      <trkpt lat="46.04937" lon="4.5239">
        <ele>687.6</ele>
        <time>2025-09-17T08:29:04Z</time>
      </trkpt>
      <trkpt lat="46.04935" lon="4.52393">
        <ele>686.2</ele>
        <time>2025-09-17T08:29:05Z</time>
      </trkpt>
      <trkpt lat="46.04933" lon="4.52396">
        <ele>686.8</ele>
        <time>2025-09-17T08:29:06Z</time>
      </trkpt>
      <trkpt lat="46.04931" lon="4.524">
        <ele>687.4</ele>
        <time>2025-09-17T08:29:07Z</time>
      </trkpt>
      <trkpt lat="46.0493" lon="4.52403">
        <ele>688</ele>
        <time>2025-09-17T08:29:08Z</time>
      </trkpt>
      <trkpt lat="46.04928" lon="4.52406">
        <ele>688</ele>
        <time>2025-09-17T08:29:09Z</time>
      </trkpt>
      <trkpt lat="46.04926" lon="4.52411">
        <ele>688</ele>
        <time>2025-09-17T08:29:10Z</time>
      </trkpt>
      <trkpt lat="46.04925" lon="4.52414">
        <ele>688.2</ele>
        <time>2025-09-17T08:29:11Z</time>
      </trkpt>
      <trkpt lat="46.04923" lon="4.52418">
        <ele>688.2</ele>
        <time>2025-09-17T08:29:12Z</time>
      </trkpt>
      <trkpt lat="46.04921" lon="4.52422">
        <ele>688.4</ele>
        <time>2025-09-17T08:29:13Z</time>
      </trkpt>
      <trkpt lat="46.0492" lon="4.52425">
        <ele>688.4</ele>
        <time>2025-09-17T08:29:14Z</time>
      </trkpt>
      <trkpt lat="46.04918" lon="4.52429">
        <ele>688.8</ele>
        <time>2025-09-17T08:29:15Z</time>
      </trkpt>
      <trkpt lat="46.04917" lon="4.52433">
        <ele>689.2</ele>
        <time>2025-09-17T08:29:16Z</time>
      </trkpt>
      <trkpt lat="46.04915" lon="4.52436">
        <ele>689.2</ele>
        <time>2025-09-17T08:29:17Z</time>
      </trkpt>
      <trkpt lat="46.04914" lon="4.52439">
        <ele>689.4</ele>
        <time>2025-09-17T08:29:18Z</time>
      </trkpt>
      <trkpt lat="46.04912" lon="4.52442">
        <ele>689.4</ele>
        <time>2025-09-17T08:29:19Z</time>
      </trkpt>
      <trkpt lat="46.0491" lon="4.52445">
        <ele>689.8</ele>
        <time>2025-09-17T08:29:20Z</time>
      </trkpt>
      <trkpt lat="46.04908" lon="4.52448">
        <ele>689.8</ele>
        <time>2025-09-17T08:29:21Z</time>
      </trkpt>
      <trkpt lat="46.04907" lon="4.5245">
        <ele>689.6</ele>
        <time>2025-09-17T08:29:22Z</time>
      </trkpt>
      <trkpt lat="46.04905" lon="4.52453">
        <ele>689.6</ele>
        <time>2025-09-17T08:29:23Z</time>
      </trkpt>
      <trkpt lat="46.04903" lon="4.52455">
        <ele>689.8</ele>
        <time>2025-09-17T08:29:24Z</time>
      </trkpt>
      <trkpt lat="46.04902" lon="4.52457">
        <ele>689.8</ele>
        <time>2025-09-17T08:29:25Z</time>
      </trkpt>
      <trkpt lat="46.04901" lon="4.52459">
        <ele>690.2</ele>
        <time>2025-09-17T08:29:26Z</time>
      </trkpt>
      <trkpt lat="46.049" lon="4.52461">
        <ele>690.2</ele>
        <time>2025-09-17T08:29:27Z</time>
      </trkpt>
      <trkpt lat="46.049" lon="4.52462">
        <ele>690.4</ele>
        <time>2025-09-17T08:29:28Z</time>
      </trkpt>
      <trkpt lat="46.04899" lon="4.52463">
        <ele>690.6</ele>
        <time>2025-09-17T08:29:29Z</time>
      </trkpt>
      <trkpt lat="46.04899" lon="4.52463">
        <ele>691</ele>
        <time>2025-09-17T08:29:30Z</time>
      </trkpt>
      <trkpt lat="46.04899" lon="4.52463">
        <ele>691</ele>
        <time>2025-09-17T08:29:31Z</time>
      </trkpt>
      <trkpt lat="46.04899" lon="4.52463">
        <ele>691</ele>
        <time>2025-09-17T08:29:32Z</time>
      </trkpt>
      <trkpt lat="46.04899" lon="4.52464">
        <ele>691.4</ele>
        <time>2025-09-17T08:29:43Z</time>
      </trkpt>
      <trkpt lat="46.04898" lon="4.52467">
        <ele>691.4</ele>
        <time>2025-09-17T08:29:44Z</time>
      </trkpt>
      <trkpt lat="46.04897" lon="4.52469">
        <ele>691.4</ele>
        <time>2025-09-17T08:29:45Z</time>
      </trkpt>
      <trkpt lat="46.04895" lon="4.52472">
        <ele>691.4</ele>
        <time>2025-09-17T08:29:46Z</time>
      </trkpt>
      <trkpt lat="46.04894" lon="4.52474">
        <ele>691.4</ele>
        <time>2025-09-17T08:29:47Z</time>
      </trkpt>
      <trkpt lat="46.04892" lon="4.52477">
        <ele>691.4</ele>
        <time>2025-09-17T08:29:48Z</time>
      </trkpt>
      <trkpt lat="46.0489" lon="4.5248">
        <ele>691.2</ele>
        <time>2025-09-17T08:29:49Z</time>
      </trkpt>
      <trkpt lat="46.04889" lon="4.52484">
        <ele>691.2</ele>
        <time>2025-09-17T08:29:50Z</time>
      </trkpt>
      <trkpt lat="46.04887" lon="4.52487">
        <ele>691.2</ele>
        <time>2025-09-17T08:29:51Z</time>
      </trkpt>
      <trkpt lat="46.04886" lon="4.5249">
        <ele>691.6</ele>
        <time>2025-09-17T08:29:52Z</time>
      </trkpt>
      <trkpt lat="46.04884" lon="4.52494">
        <ele>691.6</ele>
        <time>2025-09-17T08:29:53Z</time>
      </trkpt>
      <trkpt lat="46.04883" lon="4.52497">
        <ele>692</ele>
        <time>2025-09-17T08:29:54Z</time>
      </trkpt>
      <trkpt lat="46.04882" lon="4.52501">
        <ele>692.2</ele>
        <time>2025-09-17T08:29:55Z</time>
      </trkpt>
      <trkpt lat="46.04881" lon="4.52505">
        <ele>692.2</ele>
        <time>2025-09-17T08:29:56Z</time>
      </trkpt>
      <trkpt lat="46.04879" lon="4.52508">
        <ele>692.2</ele>
        <time>2025-09-17T08:29:57Z</time>
      </trkpt>
      <trkpt lat="46.04878" lon="4.52511">
        <ele>692.6</ele>
        <time>2025-09-17T08:29:58Z</time>
      </trkpt>
      <trkpt lat="46.04876" lon="4.52515">
        <ele>692.6</ele>
        <time>2025-09-17T08:29:59Z</time>
      </trkpt>
      <trkpt lat="46.04876" lon="4.52518">
        <ele>692.6</ele>
        <time>2025-09-17T08:30:00Z</time>
      </trkpt>
      <trkpt lat="46.04875" lon="4.52521">
        <ele>692.8</ele>
        <time>2025-09-17T08:30:01Z</time>
      </trkpt>
      <trkpt lat="46.04875" lon="4.52525">
        <ele>692.4</ele>
        <time>2025-09-17T08:30:02Z</time>
      </trkpt>
      <trkpt lat="46.04875" lon="4.52528">
        <ele>693.2</ele>
        <time>2025-09-17T08:30:03Z</time>
      </trkpt>
      <trkpt lat="46.04873" lon="4.52531">
        <ele>693.2</ele>
        <time>2025-09-17T08:30:04Z</time>
      </trkpt>
      <trkpt lat="46.04871" lon="4.52535">
        <ele>693.2</ele>
        <time>2025-09-17T08:30:05Z</time>
      </trkpt>
      <trkpt lat="46.04869" lon="4.52538">
        <ele>693.2</ele>
        <time>2025-09-17T08:30:06Z</time>
      </trkpt>
      <trkpt lat="46.04867" lon="4.52542">
        <ele>693.2</ele>
        <time>2025-09-17T08:30:07Z</time>
      </trkpt>
      <trkpt lat="46.04865" lon="4.52546">
        <ele>693.2</ele>
        <time>2025-09-17T08:30:08Z</time>
      </trkpt>
      <trkpt lat="46.04864" lon="4.52549">
        <ele>693.2</ele>
        <time>2025-09-17T08:30:09Z</time>
      </trkpt>
      <trkpt lat="46.04862" lon="4.52553">
        <ele>693.2</ele>
        <time>2025-09-17T08:30:10Z</time>
      </trkpt>
      <trkpt lat="46.04861" lon="4.52557">
        <ele>694</ele>
        <time>2025-09-17T08:30:11Z</time>
      </trkpt>
      <trkpt lat="46.04859" lon="4.5256">
        <ele>694</ele>
        <time>2025-09-17T08:30:12Z</time>
      </trkpt>
      <trkpt lat="46.04858" lon="4.52563">
        <ele>694</ele>
        <time>2025-09-17T08:30:13Z</time>
      </trkpt>
      <trkpt lat="46.04856" lon="4.52566">
        <ele>694</ele>
        <time>2025-09-17T08:30:14Z</time>
      </trkpt>
      <trkpt lat="46.04854" lon="4.52568">
        <ele>694.6</ele>
        <time>2025-09-17T08:30:15Z</time>
      </trkpt>
      <trkpt lat="46.04852" lon="4.52571">
        <ele>694.6</ele>
        <time>2025-09-17T08:30:16Z</time>
      </trkpt>
      <trkpt lat="46.0485" lon="4.52574">
        <ele>694.6</ele>
        <time>2025-09-17T08:30:17Z</time>
      </trkpt>
      <trkpt lat="46.04848" lon="4.52577">
        <ele>695</ele>
        <time>2025-09-17T08:30:18Z</time>
      </trkpt>
      <trkpt lat="46.04847" lon="4.52581">
        <ele>695.2</ele>
        <time>2025-09-17T08:30:19Z</time>
      </trkpt>
      <trkpt lat="46.04845" lon="4.52585">
        <ele>695.2</ele>
        <time>2025-09-17T08:30:20Z</time>
      </trkpt>
      <trkpt lat="46.04843" lon="4.52589">
        <ele>695.2</ele>
        <time>2025-09-17T08:30:21Z</time>
      </trkpt>
      <trkpt lat="46.04841" lon="4.52592">
        <ele>695.6</ele>
        <time>2025-09-17T08:30:22Z</time>
      </trkpt>
      <trkpt lat="46.04839" lon="4.52595">
        <ele>695.8</ele>
        <time>2025-09-17T08:30:23Z</time>
      </trkpt>
      <trkpt lat="46.04836" lon="4.52598">
        <ele>695.6</ele>
        <time>2025-09-17T08:30:24Z</time>
      </trkpt>
      <trkpt lat="46.04834" lon="4.526">
        <ele>696.2</ele>
        <time>2025-09-17T08:30:25Z</time>
      </trkpt>
      <trkpt lat="46.04831" lon="4.52602">
        <ele>696.2</ele>
        <time>2025-09-17T08:30:26Z</time>
      </trkpt>
      <trkpt lat="46.04828" lon="4.52604">
        <ele>696.2</ele>
        <time>2025-09-17T08:30:27Z</time>
      </trkpt>
      <trkpt lat="46.04825" lon="4.52604">
        <ele>696.2</ele>
        <time>2025-09-17T08:30:28Z</time>
      </trkpt>
      <trkpt lat="46.04821" lon="4.52604">
        <ele>696.2</ele>
        <time>2025-09-17T08:30:29Z</time>
      </trkpt>
      <trkpt lat="46.04818" lon="4.52603">
        <ele>696.6</ele>
        <time>2025-09-17T08:30:30Z</time>
      </trkpt>
      <trkpt lat="46.04816" lon="4.52602">
        <ele>696</ele>
        <time>2025-09-17T08:30:31Z</time>
      </trkpt>
      <trkpt lat="46.04813" lon="4.526">
        <ele>696.6</ele>
        <time>2025-09-17T08:30:32Z</time>
      </trkpt>
      <trkpt lat="46.04812" lon="4.52598">
        <ele>697.2</ele>
        <time>2025-09-17T08:30:33Z</time>
      </trkpt>
      <trkpt lat="46.0481" lon="4.52595">
        <ele>697.4</ele>
        <time>2025-09-17T08:30:34Z</time>
      </trkpt>
      <trkpt lat="46.04808" lon="4.52592">
        <ele>698</ele>
        <time>2025-09-17T08:30:35Z</time>
      </trkpt>
      <trkpt lat="46.04807" lon="4.5259">
        <ele>698.2</ele>
        <time>2025-09-17T08:30:36Z</time>
      </trkpt>
      <trkpt lat="46.04805" lon="4.52588">
        <ele>698.2</ele>
        <time>2025-09-17T08:30:37Z</time>
      </trkpt>
      <trkpt lat="46.04803" lon="4.52587">
        <ele>698.2</ele>
        <time>2025-09-17T08:30:38Z</time>
      </trkpt>
      <trkpt lat="46.04802" lon="4.52585">
        <ele>698.2</ele>
        <time>2025-09-17T08:30:39Z</time>
      </trkpt>
      <trkpt lat="46.048" lon="4.52583">
        <ele>698.2</ele>
        <time>2025-09-17T08:30:40Z</time>
      </trkpt>
      <trkpt lat="46.04799" lon="4.52581">
        <ele>698.8</ele>
        <time>2025-09-17T08:30:41Z</time>
      </trkpt>
      <trkpt lat="46.04798" lon="4.52578">
        <ele>698.8</ele>
        <time>2025-09-17T08:30:42Z</time>
      </trkpt>
      <trkpt lat="46.04796" lon="4.52576">
        <ele>699</ele>
        <time>2025-09-17T08:30:43Z</time>
      </trkpt>
      <trkpt lat="46.04795" lon="4.52575">
        <ele>699</ele>
        <time>2025-09-17T08:30:44Z</time>
      </trkpt>
      <trkpt lat="46.04794" lon="4.52573">
        <ele>698.8</ele>
        <time>2025-09-17T08:30:45Z</time>
      </trkpt>
      <trkpt lat="46.04792" lon="4.52571">
        <ele>699</ele>
        <time>2025-09-17T08:30:46Z</time>
      </trkpt>
      <trkpt lat="46.0479" lon="4.52568">
        <ele>699</ele>
        <time>2025-09-17T08:30:47Z</time>
      </trkpt>
      <trkpt lat="46.04787" lon="4.52567">
        <ele>699.4</ele>
        <time>2025-09-17T08:30:48Z</time>
      </trkpt>
      <trkpt lat="46.04786" lon="4.52565">
        <ele>699.8</ele>
        <time>2025-09-17T08:30:49Z</time>
      </trkpt>
      <trkpt lat="46.04785" lon="4.52563">
        <ele>700</ele>
        <time>2025-09-17T08:30:50Z</time>
      </trkpt>
      <trkpt lat="46.04783" lon="4.5256">
        <ele>700</ele>
        <time>2025-09-17T08:30:51Z</time>
      </trkpt>
      <trkpt lat="46.04781" lon="4.52557">
        <ele>700.6</ele>
        <time>2025-09-17T08:30:52Z</time>
      </trkpt>
      <trkpt lat="46.04779" lon="4.52554">
        <ele>700.8</ele>
        <time>2025-09-17T08:30:53Z</time>
      </trkpt>
      <trkpt lat="46.04779" lon="4.52552">
        <ele>700.8</ele>
        <time>2025-09-17T08:30:54Z</time>
      </trkpt>
      <trkpt lat="46.04779" lon="4.5255">
        <ele>701</ele>
        <time>2025-09-17T08:30:55Z</time>
      </trkpt>
      <trkpt lat="46.04779" lon="4.52547">
        <ele>701</ele>
        <time>2025-09-17T08:30:56Z</time>
      </trkpt>
      <trkpt lat="46.04779" lon="4.52545">
        <ele>701</ele>
        <time>2025-09-17T08:30:57Z</time>
      </trkpt>
      <trkpt lat="46.04779" lon="4.52542">
        <ele>701</ele>
        <time>2025-09-17T08:30:58Z</time>
      </trkpt>
      <trkpt lat="46.04778" lon="4.5254">
        <ele>701.4</ele>
        <time>2025-09-17T08:30:59Z</time>
      </trkpt>
      <trkpt lat="46.04777" lon="4.52537">
        <ele>701.2</ele>
        <time>2025-09-17T08:31:00Z</time>
      </trkpt>
      <trkpt lat="46.04775" lon="4.52534">
        <ele>701.2</ele>
        <time>2025-09-17T08:31:01Z</time>
      </trkpt>
      <trkpt lat="46.04773" lon="4.52532">
        <ele>701.4</ele>
        <time>2025-09-17T08:31:02Z</time>
      </trkpt>
      <trkpt lat="46.04771" lon="4.52529">
        <ele>701.4</ele>
        <time>2025-09-17T08:31:03Z</time>
      </trkpt>
      <trkpt lat="46.0477" lon="4.52527">
        <ele>701.8</ele>
        <time>2025-09-17T08:31:04Z</time>
      </trkpt>
      <trkpt lat="46.0477" lon="4.52523">
        <ele>701.8</ele>
        <time>2025-09-17T08:31:05Z</time>
      </trkpt>
      <trkpt lat="46.04771" lon="4.5252">
        <ele>702.2</ele>
        <time>2025-09-17T08:31:06Z</time>
      </trkpt>
      <trkpt lat="46.04772" lon="4.52517">
        <ele>702.2</ele>
        <time>2025-09-17T08:31:07Z</time>
      </trkpt>
      <trkpt lat="46.04773" lon="4.52514">
        <ele>702.2</ele>
        <time>2025-09-17T08:31:08Z</time>
      </trkpt>
      <trkpt lat="46.04773" lon="4.52511">
        <ele>702.6</ele>
        <time>2025-09-17T08:31:09Z</time>
      </trkpt>
      <trkpt lat="46.04772" lon="4.52508">
        <ele>702.8</ele>
        <time>2025-09-17T08:31:10Z</time>
      </trkpt>
      <trkpt lat="46.0477" lon="4.52506">
        <ele>703</ele>
        <time>2025-09-17T08:31:11Z</time>
      </trkpt>
      <trkpt lat="46.04769" lon="4.52503">
        <ele>703</ele>
        <time>2025-09-17T08:31:12Z</time>
      </trkpt>
      <trkpt lat="46.04769" lon="4.52501">
        <ele>703</ele>
        <time>2025-09-17T08:31:13Z</time>
      </trkpt>
      <trkpt lat="46.04769" lon="4.52499">
        <ele>703.6</ele>
        <time>2025-09-17T08:31:14Z</time>
      </trkpt>
      <trkpt lat="46.04767" lon="4.52496">
        <ele>703.6</ele>
        <time>2025-09-17T08:31:15Z</time>
      </trkpt>
      <trkpt lat="46.04766" lon="4.52492">
        <ele>703.6</ele>
        <time>2025-09-17T08:31:16Z</time>
      </trkpt>
      <trkpt lat="46.04765" lon="4.52488">
        <ele>703.6</ele>
        <time>2025-09-17T08:31:17Z</time>
      </trkpt>
      <trkpt lat="46.04763" lon="4.52484">
        <ele>704</ele>
        <time>2025-09-17T08:31:18Z</time>
      </trkpt>
      <trkpt lat="46.04762" lon="4.5248">
        <ele>704</ele>
        <time>2025-09-17T08:31:19Z</time>
      </trkpt>
      <trkpt lat="46.0476" lon="4.52476">
        <ele>704</ele>
        <time>2025-09-17T08:31:20Z</time>
      </trkpt>
      <trkpt lat="46.04759" lon="4.52473">
        <ele>704.2</ele>
        <time>2025-09-17T08:31:21Z</time>
      </trkpt>
      <trkpt lat="46.04758" lon="4.52469">
        <ele>704.2</ele>
        <time>2025-09-17T08:31:22Z</time>
      </trkpt>
      <trkpt lat="46.04758" lon="4.52465">
        <ele>704.2</ele>
        <time>2025-09-17T08:31:23Z</time>
      </trkpt>
      <trkpt lat="46.04756" lon="4.52462">
        <ele>704.4</ele>
        <time>2025-09-17T08:31:24Z</time>
      </trkpt>
      <trkpt lat="46.04754" lon="4.52458">
        <ele>704.4</ele>
        <time>2025-09-17T08:31:25Z</time>
      </trkpt>
      <trkpt lat="46.04753" lon="4.52454">
        <ele>704.8</ele>
        <time>2025-09-17T08:31:26Z</time>
      </trkpt>
      <trkpt lat="46.04752" lon="4.52451">
        <ele>704.8</ele>
        <time>2025-09-17T08:31:27Z</time>
      </trkpt>
      <trkpt lat="46.0475" lon="4.52448">
        <ele>705.2</ele>
        <time>2025-09-17T08:31:28Z</time>
      </trkpt>
      <trkpt lat="46.04749" lon="4.52444">
        <ele>705.2</ele>
        <time>2025-09-17T08:31:29Z</time>
      </trkpt>
      <trkpt lat="46.04749" lon="4.52441">
        <ele>705.2</ele>
        <time>2025-09-17T08:31:30Z</time>
      </trkpt>
      <trkpt lat="46.04748" lon="4.52438">
        <ele>705.4</ele>
        <time>2025-09-17T08:31:31Z</time>
      </trkpt>
      <trkpt lat="46.04747" lon="4.52434">
        <ele>705.6</ele>
        <time>2025-09-17T08:31:32Z</time>
      </trkpt>
      <trkpt lat="46.04747" lon="4.52432">
        <ele>705.6</ele>
        <time>2025-09-17T08:31:33Z</time>
      </trkpt>
      <trkpt lat="46.04746" lon="4.52428">
        <ele>705.6</ele>
        <time>2025-09-17T08:31:34Z</time>
      </trkpt>
      <trkpt lat="46.04745" lon="4.52424">
        <ele>705.8</ele>
        <time>2025-09-17T08:31:35Z</time>
      </trkpt>
      <trkpt lat="46.04744" lon="4.5242">
        <ele>705.8</ele>
        <time>2025-09-17T08:31:36Z</time>
      </trkpt>
      <trkpt lat="46.04743" lon="4.52416">
        <ele>705.8</ele>
        <time>2025-09-17T08:31:37Z</time>
      </trkpt>
      <trkpt lat="46.04742" lon="4.52412">
        <ele>706.2</ele>
        <time>2025-09-17T08:31:38Z</time>
      </trkpt>
      <trkpt lat="46.04742" lon="4.5241">
        <ele>706.2</ele>
        <time>2025-09-17T08:31:39Z</time>
      </trkpt>
      <trkpt lat="46.04742" lon="4.52406">
        <ele>706.2</ele>
        <time>2025-09-17T08:31:40Z</time>
      </trkpt>
      <trkpt lat="46.04742" lon="4.52402">
        <ele>706.2</ele>
        <time>2025-09-17T08:31:41Z</time>
      </trkpt>
      <trkpt lat="46.04741" lon="4.52397">
        <ele>706.6</ele>
        <time>2025-09-17T08:31:42Z</time>
      </trkpt>
      <trkpt lat="46.0474" lon="4.52393">
        <ele>706.6</ele>
        <time>2025-09-17T08:31:43Z</time>
      </trkpt>
      <trkpt lat="46.04741" lon="4.5239">
        <ele>706.6</ele>
        <time>2025-09-17T08:31:44Z</time>
      </trkpt>
      <trkpt lat="46.04741" lon="4.52386">
        <ele>706.6</ele>
        <time>2025-09-17T08:31:45Z</time>
      </trkpt>
      <trkpt lat="46.04741" lon="4.52382">
        <ele>706.6</ele>
        <time>2025-09-17T08:31:46Z</time>
      </trkpt>
      <trkpt lat="46.04741" lon="4.52379">
        <ele>706.6</ele>
        <time>2025-09-17T08:31:47Z</time>
      </trkpt>
      <trkpt lat="46.04741" lon="4.52375">
        <ele>706.6</ele>
        <time>2025-09-17T08:31:48Z</time>
      </trkpt>
      <trkpt lat="46.04741" lon="4.52373">
        <ele>707</ele>
        <time>2025-09-17T08:31:49Z</time>
      </trkpt>
      <trkpt lat="46.0474" lon="4.52369">
        <ele>707</ele>
        <time>2025-09-17T08:31:50Z</time>
      </trkpt>
      <trkpt lat="46.04738" lon="4.52364">
        <ele>707.4</ele>
        <time>2025-09-17T08:31:51Z</time>
      </trkpt>
      <trkpt lat="46.04736" lon="4.5236">
        <ele>707.4</ele>
        <time>2025-09-17T08:31:52Z</time>
      </trkpt>
      <trkpt lat="46.04735" lon="4.52357">
        <ele>707.8</ele>
        <time>2025-09-17T08:31:53Z</time>
      </trkpt>
      <trkpt lat="46.04733" lon="4.52353">
        <ele>707.8</ele>
        <time>2025-09-17T08:31:54Z</time>
      </trkpt>
      <trkpt lat="46.04732" lon="4.52349">
        <ele>708</ele>
        <time>2025-09-17T08:31:55Z</time>
      </trkpt>
      <trkpt lat="46.04731" lon="4.52347">
        <ele>707.6</ele>
        <time>2025-09-17T08:31:56Z</time>
      </trkpt>
      <trkpt lat="46.04729" lon="4.52344">
        <ele>708</ele>
        <time>2025-09-17T08:31:57Z</time>
      </trkpt>
      <trkpt lat="46.04727" lon="4.52341">
        <ele>708.2</ele>
        <time>2025-09-17T08:31:58Z</time>
      </trkpt>
      <trkpt lat="46.04726" lon="4.52339">
        <ele>708.2</ele>
        <time>2025-09-17T08:31:59Z</time>
      </trkpt>
      <trkpt lat="46.04724" lon="4.52336">
        <ele>708.6</ele>
        <time>2025-09-17T08:32:00Z</time>
      </trkpt>
      <trkpt lat="46.04721" lon="4.52333">
        <ele>708.6</ele>
        <time>2025-09-17T08:32:01Z</time>
      </trkpt>
      <trkpt lat="46.04718" lon="4.52331">
        <ele>709</ele>
        <time>2025-09-17T08:32:02Z</time>
      </trkpt>
      <trkpt lat="46.04716" lon="4.52328">
        <ele>709</ele>
        <time>2025-09-17T08:32:03Z</time>
      </trkpt>
      <trkpt lat="46.04714" lon="4.52325">
        <ele>709.2</ele>
        <time>2025-09-17T08:32:04Z</time>
      </trkpt>
      <trkpt lat="46.04712" lon="4.52323">
        <ele>709.2</ele>
        <time>2025-09-17T08:32:05Z</time>
      </trkpt>
      <trkpt lat="46.04712" lon="4.5232">
        <ele>709.2</ele>
        <time>2025-09-17T08:32:06Z</time>
      </trkpt>
      <trkpt lat="46.04711" lon="4.52318">
        <ele>709.2</ele>
        <time>2025-09-17T08:32:07Z</time>
      </trkpt>
      <trkpt lat="46.0471" lon="4.52315">
        <ele>709.6</ele>
        <time>2025-09-17T08:32:08Z</time>
      </trkpt>
      <trkpt lat="46.04709" lon="4.52313">
        <ele>709.6</ele>
        <time>2025-09-17T08:32:09Z</time>
      </trkpt>
      <trkpt lat="46.04709" lon="4.52311">
        <ele>710</ele>
        <time>2025-09-17T08:32:10Z</time>
      </trkpt>
      <trkpt lat="46.04709" lon="4.5231">
        <ele>710</ele>
        <time>2025-09-17T08:32:11Z</time>
      </trkpt>
      <trkpt lat="46.04709" lon="4.52307">
        <ele>710</ele>
        <time>2025-09-17T08:32:12Z</time>
      </trkpt>
      <trkpt lat="46.04708" lon="4.52304">
        <ele>710</ele>
        <time>2025-09-17T08:32:13Z</time>
      </trkpt>
      <trkpt lat="46.04708" lon="4.52301">
        <ele>710.2</ele>
        <time>2025-09-17T08:32:14Z</time>
      </trkpt>
      <trkpt lat="46.04708" lon="4.52298">
        <ele>710.2</ele>
        <time>2025-09-17T08:32:15Z</time>
      </trkpt>
      <trkpt lat="46.04707" lon="4.52296">
        <ele>710.4</ele>
        <time>2025-09-17T08:32:16Z</time>
      </trkpt>
      <trkpt lat="46.04705" lon="4.52293">
        <ele>710.8</ele>
        <time>2025-09-17T08:32:17Z</time>
      </trkpt>
      <trkpt lat="46.04704" lon="4.5229">
        <ele>711</ele>
        <time>2025-09-17T08:32:18Z</time>
      </trkpt>
      <trkpt lat="46.04703" lon="4.52287">
        <ele>711.4</ele>
        <time>2025-09-17T08:32:19Z</time>
      </trkpt>
      <trkpt lat="46.04702" lon="4.52284">
        <ele>711.4</ele>
        <time>2025-09-17T08:32:20Z</time>
      </trkpt>
      <trkpt lat="46.04701" lon="4.52282">
        <ele>711.6</ele>
        <time>2025-09-17T08:32:21Z</time>
      </trkpt>
      <trkpt lat="46.04699" lon="4.52279">
        <ele>712</ele>
        <time>2025-09-17T08:32:22Z</time>
      </trkpt>
      <trkpt lat="46.04698" lon="4.52276">
        <ele>712</ele>
        <time>2025-09-17T08:32:23Z</time>
      </trkpt>
      <trkpt lat="46.04696" lon="4.52274">
        <ele>712</ele>
        <time>2025-09-17T08:32:24Z</time>
      </trkpt>
      <trkpt lat="46.04694" lon="4.52272">
        <ele>712.2</ele>
        <time>2025-09-17T08:32:25Z</time>
      </trkpt>
      <trkpt lat="46.04693" lon="4.52269">
        <ele>712.2</ele>
        <time>2025-09-17T08:32:26Z</time>
      </trkpt>
      <trkpt lat="46.04692" lon="4.52267">
        <ele>712.4</ele>
        <time>2025-09-17T08:32:27Z</time>
      </trkpt>
      <trkpt lat="46.04689" lon="4.52264">
        <ele>712.4</ele>
        <time>2025-09-17T08:32:28Z</time>
      </trkpt>
      <trkpt lat="46.04688" lon="4.52262">
        <ele>712.4</ele>
        <time>2025-09-17T08:32:29Z</time>
      </trkpt>
      <trkpt lat="46.04686" lon="4.5226">
        <ele>712.8</ele>
        <time>2025-09-17T08:32:30Z</time>
      </trkpt>
      <trkpt lat="46.04685" lon="4.52258">
        <ele>712.8</ele>
        <time>2025-09-17T08:32:31Z</time>
      </trkpt>
      <trkpt lat="46.04683" lon="4.52257">
        <ele>713.2</ele>
        <time>2025-09-17T08:32:32Z</time>
      </trkpt>
      <trkpt lat="46.04682" lon="4.52256">
        <ele>713.2</ele>
        <time>2025-09-17T08:32:33Z</time>
      </trkpt>
      <trkpt lat="46.04681" lon="4.52254">
        <ele>713.4</ele>
        <time>2025-09-17T08:32:34Z</time>
      </trkpt>
      <trkpt lat="46.04678" lon="4.52253">
        <ele>713</ele>
        <time>2025-09-17T08:32:35Z</time>
      </trkpt>
      <trkpt lat="46.04676" lon="4.52251">
        <ele>713.2</ele>
        <time>2025-09-17T08:32:36Z</time>
      </trkpt>
      <trkpt lat="46.04673" lon="4.5225">
        <ele>713.2</ele>
        <time>2025-09-17T08:32:37Z</time>
      </trkpt>
      <trkpt lat="46.04671" lon="4.52248">
        <ele>713.2</ele>
        <time>2025-09-17T08:32:38Z</time>
      </trkpt>
      <trkpt lat="46.04669" lon="4.52247">
        <ele>713.6</ele>
        <time>2025-09-17T08:32:39Z</time>
      </trkpt>
      <trkpt lat="46.04667" lon="4.52246">
        <ele>714</ele>
        <time>2025-09-17T08:32:40Z</time>
      </trkpt>
      <trkpt lat="46.04662" lon="4.52244">
        <ele>714.4</ele>
        <time>2025-09-17T08:32:41Z</time>
      </trkpt>
      <trkpt lat="46.04661" lon="4.52243">
        <ele>714.6</ele>
        <time>2025-09-17T08:32:42Z</time>
      </trkpt>
      <trkpt lat="46.0466" lon="4.5224">
        <ele>714.6</ele>
        <time>2025-09-17T08:32:43Z</time>
      </trkpt>
      <trkpt lat="46.04658" lon="4.52237">
        <ele>714.8</ele>
        <time>2025-09-17T08:32:44Z</time>
      </trkpt>
      <trkpt lat="46.04657" lon="4.52235">
        <ele>714.8</ele>
        <time>2025-09-17T08:32:45Z</time>
      </trkpt>
      <trkpt lat="46.04656" lon="4.52232">
        <ele>714.8</ele>
        <time>2025-09-17T08:32:46Z</time>
      </trkpt>
      <trkpt lat="46.04655" lon="4.5223">
        <ele>715</ele>
        <time>2025-09-17T08:32:47Z</time>
      </trkpt>
      <trkpt lat="46.04653" lon="4.52227">
        <ele>715.2</ele>
        <time>2025-09-17T08:32:48Z</time>
      </trkpt>
      <trkpt lat="46.04652" lon="4.52225">
        <ele>715.2</ele>
        <time>2025-09-17T08:32:49Z</time>
      </trkpt>
      <trkpt lat="46.04651" lon="4.52222">
        <ele>715.2</ele>
        <time>2025-09-17T08:32:50Z</time>
      </trkpt>
      <trkpt lat="46.0465" lon="4.5222">
        <ele>715.2</ele>
        <time>2025-09-17T08:32:51Z</time>
      </trkpt>
      <trkpt lat="46.0465" lon="4.52217">
        <ele>715.6</ele>
        <time>2025-09-17T08:32:52Z</time>
      </trkpt>
      <trkpt lat="46.04649" lon="4.52213">
        <ele>715.6</ele>
        <time>2025-09-17T08:32:53Z</time>
      </trkpt>
      <trkpt lat="46.04647" lon="4.52209">
        <ele>715.8</ele>
        <time>2025-09-17T08:32:54Z</time>
      </trkpt>
      <trkpt lat="46.04646" lon="4.52206">
        <ele>715.8</ele>
        <time>2025-09-17T08:32:55Z</time>
      </trkpt>
      <trkpt lat="46.04644" lon="4.52203">
        <ele>715.8</ele>
        <time>2025-09-17T08:32:56Z</time>
      </trkpt>
      <trkpt lat="46.04643" lon="4.52201">
        <ele>715.8</ele>
        <time>2025-09-17T08:32:57Z</time>
      </trkpt>
      <trkpt lat="46.04642" lon="4.52198">
        <ele>715.8</ele>
        <time>2025-09-17T08:32:58Z</time>
      </trkpt>
      <trkpt lat="46.04641" lon="4.52196">
        <ele>716.2</ele>
        <time>2025-09-17T08:32:59Z</time>
      </trkpt>
      <trkpt lat="46.04641" lon="4.52194">
        <ele>716.2</ele>
        <time>2025-09-17T08:33:00Z</time>
      </trkpt>
      <trkpt lat="46.04641" lon="4.52191">
        <ele>716.4</ele>
        <time>2025-09-17T08:33:01Z</time>
      </trkpt>
      <trkpt lat="46.0464" lon="4.52187">
        <ele>716.4</ele>
        <time>2025-09-17T08:33:02Z</time>
      </trkpt>
      <trkpt lat="46.0464" lon="4.52184">
        <ele>716.8</ele>
        <time>2025-09-17T08:33:03Z</time>
      </trkpt>
      <trkpt lat="46.04639" lon="4.52181">
        <ele>716.8</ele>
        <time>2025-09-17T08:33:04Z</time>
      </trkpt>
      <trkpt lat="46.04639" lon="4.52178">
        <ele>716.8</ele>
        <time>2025-09-17T08:33:05Z</time>
      </trkpt>
      <trkpt lat="46.04638" lon="4.52177">
        <ele>717.2</ele>
        <time>2025-09-17T08:33:06Z</time>
      </trkpt>
      <trkpt lat="46.04637" lon="4.52174">
        <ele>717.4</ele>
        <time>2025-09-17T08:33:07Z</time>
      </trkpt>
      <trkpt lat="46.04637" lon="4.52172">
        <ele>717.8</ele>
        <time>2025-09-17T08:33:08Z</time>
      </trkpt>
      <trkpt lat="46.04636" lon="4.52169">
        <ele>717.8</ele>
        <time>2025-09-17T08:33:09Z</time>
      </trkpt>
      <trkpt lat="46.04636" lon="4.52165">
        <ele>717.8</ele>
        <time>2025-09-17T08:33:10Z</time>
      </trkpt>
      <trkpt lat="46.04635" lon="4.52162">
        <ele>718</ele>
        <time>2025-09-17T08:33:11Z</time>
      </trkpt>
      <trkpt lat="46.04634" lon="4.52159">
        <ele>718</ele>
        <time>2025-09-17T08:33:12Z</time>
      </trkpt>
      <trkpt lat="46.04633" lon="4.52155">
        <ele>718</ele>
        <time>2025-09-17T08:33:13Z</time>
      </trkpt>
      <trkpt lat="46.04633" lon="4.52153">
        <ele>718.2</ele>
        <time>2025-09-17T08:33:14Z</time>
      </trkpt>
      <trkpt lat="46.04633" lon="4.5215">
        <ele>718.2</ele>
        <time>2025-09-17T08:33:15Z</time>
      </trkpt>
      <trkpt lat="46.04633" lon="4.52147">
        <ele>718.6</ele>
        <time>2025-09-17T08:33:16Z</time>
      </trkpt>
      <trkpt lat="46.04633" lon="4.52143">
        <ele>718.6</ele>
        <time>2025-09-17T08:33:17Z</time>
      </trkpt>
      <trkpt lat="46.04633" lon="4.5214">
        <ele>718.6</ele>
        <time>2025-09-17T08:33:18Z</time>
      </trkpt>
      <trkpt lat="46.04633" lon="4.52137">
        <ele>718.8</ele>
        <time>2025-09-17T08:33:19Z</time>
      </trkpt>
      <trkpt lat="46.04633" lon="4.52133">
        <ele>718.8</ele>
        <time>2025-09-17T08:33:20Z</time>
      </trkpt>
      <trkpt lat="46.04634" lon="4.5213">
        <ele>718.8</ele>
        <time>2025-09-17T08:33:21Z</time>
      </trkpt>
      <trkpt lat="46.04634" lon="4.52126">
        <ele>718.8</ele>
        <time>2025-09-17T08:33:22Z</time>
      </trkpt>
      <trkpt lat="46.04634" lon="4.52123">
        <ele>719.2</ele>
        <time>2025-09-17T08:33:23Z</time>
      </trkpt>
      <trkpt lat="46.04635" lon="4.52119">
        <ele>719.2</ele>
        <time>2025-09-17T08:33:24Z</time>
      </trkpt>
      <trkpt lat="46.04635" lon="4.52116">
        <ele>719.6</ele>
        <time>2025-09-17T08:33:25Z</time>
      </trkpt>
      <trkpt lat="46.04636" lon="4.52113">
        <ele>719.8</ele>
        <time>2025-09-17T08:33:26Z</time>
      </trkpt>
      <trkpt lat="46.04636" lon="4.52111">
        <ele>719.8</ele>
        <time>2025-09-17T08:33:27Z</time>
      </trkpt>
      <trkpt lat="46.04637" lon="4.52107">
        <ele>719.8</ele>
        <time>2025-09-17T08:33:28Z</time>
      </trkpt>
      <trkpt lat="46.04637" lon="4.52104">
        <ele>719.8</ele>
        <time>2025-09-17T08:33:29Z</time>
      </trkpt>
      <trkpt lat="46.04637" lon="4.52102">
        <ele>720</ele>
        <time>2025-09-17T08:33:30Z</time>
      </trkpt>
      <trkpt lat="46.04638" lon="4.521">
        <ele>720.4</ele>
        <time>2025-09-17T08:33:31Z</time>
      </trkpt>
      <trkpt lat="46.04638" lon="4.52097">
        <ele>720.4</ele>
        <time>2025-09-17T08:33:32Z</time>
      </trkpt>
      <trkpt lat="46.04639" lon="4.52092">
        <ele>720.2</ele>
        <time>2025-09-17T08:33:33Z</time>
      </trkpt>
      <trkpt lat="46.04639" lon="4.52087">
        <ele>720.4</ele>
        <time>2025-09-17T08:33:34Z</time>
      </trkpt>
      <trkpt lat="46.04638" lon="4.52085">
        <ele>720.6</ele>
        <time>2025-09-17T08:33:35Z</time>
      </trkpt>
      <trkpt lat="46.04637" lon="4.52082">
        <ele>720.6</ele>
        <time>2025-09-17T08:33:36Z</time>
      </trkpt>
      <trkpt lat="46.04637" lon="4.52078">
        <ele>720.6</ele>
        <time>2025-09-17T08:33:37Z</time>
      </trkpt>
      <trkpt lat="46.04636" lon="4.52074">
        <ele>721</ele>
        <time>2025-09-17T08:33:38Z</time>
      </trkpt>
      <trkpt lat="46.04636" lon="4.5207">
        <ele>720.6</ele>
        <time>2025-09-17T08:33:39Z</time>
      </trkpt>
      <trkpt lat="46.04636" lon="4.52067">
        <ele>721</ele>
        <time>2025-09-17T08:33:40Z</time>
      </trkpt>
      <trkpt lat="46.04636" lon="4.52064">
        <ele>721.4</ele>
        <time>2025-09-17T08:33:41Z</time>
      </trkpt>
      <trkpt lat="46.04637" lon="4.5206">
        <ele>721.6</ele>
        <time>2025-09-17T08:33:42Z</time>
      </trkpt>
      <trkpt lat="46.04638" lon="4.52057">
        <ele>721.6</ele>
        <time>2025-09-17T08:33:43Z</time>
      </trkpt>
      <trkpt lat="46.0464" lon="4.52054">
        <ele>721.6</ele>
        <time>2025-09-17T08:33:44Z</time>
      </trkpt>
      <trkpt lat="46.0464" lon="4.52052">
        <ele>721.6</ele>
        <time>2025-09-17T08:33:45Z</time>
      </trkpt>
      <trkpt lat="46.04642" lon="4.52049">
        <ele>721.6</ele>
        <time>2025-09-17T08:33:46Z</time>
      </trkpt>
      <trkpt lat="46.04643" lon="4.52045">
        <ele>721.6</ele>
        <time>2025-09-17T08:33:47Z</time>
      </trkpt>
      <trkpt lat="46.04645" lon="4.52042">
        <ele>722</ele>
        <time>2025-09-17T08:33:48Z</time>
      </trkpt>
      <trkpt lat="46.04646" lon="4.52038">
        <ele>722</ele>
        <time>2025-09-17T08:33:49Z</time>
      </trkpt>
      <trkpt lat="46.04647" lon="4.52035">
        <ele>722.2</ele>
        <time>2025-09-17T08:33:50Z</time>
      </trkpt>
      <trkpt lat="46.04647" lon="4.52033">
        <ele>722.2</ele>
        <time>2025-09-17T08:33:51Z</time>
      </trkpt>
      <trkpt lat="46.04647" lon="4.5203">
        <ele>722.6</ele>
        <time>2025-09-17T08:33:52Z</time>
      </trkpt>
      <trkpt lat="46.04647" lon="4.52027">
        <ele>722.6</ele>
        <time>2025-09-17T08:33:53Z</time>
      </trkpt>
      <trkpt lat="46.04647" lon="4.52024">
        <ele>722.6</ele>
        <time>2025-09-17T08:33:54Z</time>
      </trkpt>
      <trkpt lat="46.04646" lon="4.52021">
        <ele>722.6</ele>
        <time>2025-09-17T08:33:55Z</time>
      </trkpt>
      <trkpt lat="46.04646" lon="4.52017">
        <ele>722.6</ele>
        <time>2025-09-17T08:33:56Z</time>
      </trkpt>
      <trkpt lat="46.04646" lon="4.52014">
        <ele>722.6</ele>
        <time>2025-09-17T08:33:57Z</time>
      </trkpt>
      <trkpt lat="46.04645" lon="4.52011">
        <ele>722.6</ele>
        <time>2025-09-17T08:33:58Z</time>
      </trkpt>
      <trkpt lat="46.04645" lon="4.52008">
        <ele>722.6</ele>
        <time>2025-09-17T08:33:59Z</time>
      </trkpt>
      <trkpt lat="46.04645" lon="4.52006">
        <ele>722.6</ele>
        <time>2025-09-17T08:34:00Z</time>
      </trkpt>
      <trkpt lat="46.04646" lon="4.52002">
        <ele>722.6</ele>
        <time>2025-09-17T08:34:01Z</time>
      </trkpt>
      <trkpt lat="46.04646" lon="4.51998">
        <ele>722.6</ele>
        <time>2025-09-17T08:34:02Z</time>
      </trkpt>
      <trkpt lat="46.04646" lon="4.51995">
        <ele>723</ele>
        <time>2025-09-17T08:34:03Z</time>
      </trkpt>
      <trkpt lat="46.04646" lon="4.51991">
        <ele>723</ele>
        <time>2025-09-17T08:34:04Z</time>
      </trkpt>
      <trkpt lat="46.04646" lon="4.51988">
        <ele>723</ele>
        <time>2025-09-17T08:34:05Z</time>
      </trkpt>
      <trkpt lat="46.04646" lon="4.51988">
        <ele>723.2</ele>
        <time>2025-09-17T08:34:06Z</time>
      </trkpt>
      <trkpt lat="46.04646" lon="4.51988">
        <ele>723.2</ele>
        <time>2025-09-17T08:34:07Z</time>
      </trkpt>
      <trkpt lat="46.04646" lon="4.51988">
        <ele>723.2</ele>
        <time>2025-09-17T08:34:08Z</time>
      </trkpt>
      <trkpt lat="46.04646" lon="4.5197">
        <ele>723.8</ele>
        <time>2025-09-17T08:34:10Z</time>
      </trkpt>
      <trkpt lat="46.04646" lon="4.51965">
        <ele>723.8</ele>
        <time>2025-09-17T08:34:11Z</time>
      </trkpt>
      <trkpt lat="46.04647" lon="4.51961">
        <ele>723.4</ele>
        <time>2025-09-17T08:34:12Z</time>
      </trkpt>
      <trkpt lat="46.04648" lon="4.51956">
        <ele>723.4</ele>
        <time>2025-09-17T08:34:13Z</time>
      </trkpt>
      <trkpt lat="46.04648" lon="4.51951">
        <ele>723.6</ele>
        <time>2025-09-17T08:34:14Z</time>
      </trkpt>
      <trkpt lat="46.04648" lon="4.51946">
        <ele>724</ele>
        <time>2025-09-17T08:34:15Z</time>
      </trkpt>
      <trkpt lat="46.04649" lon="4.51941">
        <ele>723.6</ele>
        <time>2025-09-17T08:34:16Z</time>
      </trkpt>
      <trkpt lat="46.04649" lon="4.51936">
        <ele>723.6</ele>
        <time>2025-09-17T08:34:17Z</time>
      </trkpt>
      <trkpt lat="46.04649" lon="4.51931">
        <ele>724</ele>
        <time>2025-09-17T08:34:18Z</time>
      </trkpt>
      <trkpt lat="46.04649" lon="4.51926">
        <ele>723.8</ele>
        <time>2025-09-17T08:34:19Z</time>
      </trkpt>
      <trkpt lat="46.04649" lon="4.51921">
        <ele>723.8</ele>
        <time>2025-09-17T08:34:20Z</time>
      </trkpt>
      <trkpt lat="46.0465" lon="4.51917">
        <ele>723.8</ele>
        <time>2025-09-17T08:34:21Z</time>
      </trkpt>
      <trkpt lat="46.0465" lon="4.51912">
        <ele>724.2</ele>
        <time>2025-09-17T08:34:22Z</time>
      </trkpt>
      <trkpt lat="46.0465" lon="4.51907">
        <ele>723.6</ele>
        <time>2025-09-17T08:34:23Z</time>
      </trkpt>
      <trkpt lat="46.0465" lon="4.51902">
        <ele>723.6</ele>
        <time>2025-09-17T08:34:24Z</time>
      </trkpt>
      <trkpt lat="46.0465" lon="4.51898">
        <ele>723.6</ele>
        <time>2025-09-17T08:34:25Z</time>
      </trkpt>
      <trkpt lat="46.0465" lon="4.51893">
        <ele>724</ele>
        <time>2025-09-17T08:34:26Z</time>
      </trkpt>
      <trkpt lat="46.04649" lon="4.51889">
        <ele>724</ele>
        <time>2025-09-17T08:34:27Z</time>
      </trkpt>
      <trkpt lat="46.04649" lon="4.51884">
        <ele>724.2</ele>
        <time>2025-09-17T08:34:28Z</time>
      </trkpt>
      <trkpt lat="46.04649" lon="4.51879">
        <ele>724.2</ele>
        <time>2025-09-17T08:34:29Z</time>
      </trkpt>
      <trkpt lat="46.04648" lon="4.51875">
        <ele>724.2</ele>
        <time>2025-09-17T08:34:30Z</time>
      </trkpt>
      <trkpt lat="46.04646" lon="4.51871">
        <ele>724.2</ele>
        <time>2025-09-17T08:34:31Z</time>
      </trkpt>
      <trkpt lat="46.04645" lon="4.51867">
        <ele>724.6</ele>
        <time>2025-09-17T08:34:32Z</time>
      </trkpt>
      <trkpt lat="46.04644" lon="4.51863">
        <ele>724.6</ele>
        <time>2025-09-17T08:34:33Z</time>
      </trkpt>
      <trkpt lat="46.04643" lon="4.5186">
        <ele>724.6</ele>
        <time>2025-09-17T08:34:34Z</time>
      </trkpt>
      <trkpt lat="46.04636" lon="4.51857">
        <ele>724.8</ele>
        <time>2025-09-17T08:34:35Z</time>
      </trkpt>
      <trkpt lat="46.04632" lon="4.51854">
        <ele>724.4</ele>
        <time>2025-09-17T08:34:36Z</time>
      </trkpt>
      <trkpt lat="46.04628" lon="4.51851">
        <ele>724.4</ele>
        <time>2025-09-17T08:34:37Z</time>
      </trkpt>
      <trkpt lat="46.04624" lon="4.51851">
        <ele>724.4</ele>
        <time>2025-09-17T08:34:38Z</time>
      </trkpt>
      <trkpt lat="46.04621" lon="4.51851">
        <ele>724.4</ele>
        <time>2025-09-17T08:34:39Z</time>
      </trkpt>
      <trkpt lat="46.04618" lon="4.51851">
        <ele>724.2</ele>
        <time>2025-09-17T08:34:40Z</time>
      </trkpt>
      <trkpt lat="46.04613" lon="4.5185">
        <ele>724.2</ele>
        <time>2025-09-17T08:34:41Z</time>
      </trkpt>
      <trkpt lat="46.04609" lon="4.5185">
        <ele>724.6</ele>
        <time>2025-09-17T08:34:42Z</time>
      </trkpt>
      <trkpt lat="46.04606" lon="4.51849">
        <ele>724.6</ele>
        <time>2025-09-17T08:34:43Z</time>
      </trkpt>
      <trkpt lat="46.04601" lon="4.51848">
        <ele>724.6</ele>
        <time>2025-09-17T08:34:44Z</time>
      </trkpt>
      <trkpt lat="46.04597" lon="4.51847">
        <ele>724.6</ele>
        <time>2025-09-17T08:34:45Z</time>
      </trkpt>
      <trkpt lat="46.04593" lon="4.51845">
        <ele>724.8</ele>
        <time>2025-09-17T08:34:46Z</time>
      </trkpt>
      <trkpt lat="46.04588" lon="4.51844">
        <ele>725</ele>
        <time>2025-09-17T08:34:47Z</time>
      </trkpt>
      <trkpt lat="46.04584" lon="4.51843">
        <ele>725</ele>
        <time>2025-09-17T08:34:48Z</time>
      </trkpt>
      <trkpt lat="46.04578" lon="4.51843">
        <ele>724.6</ele>
        <time>2025-09-17T08:34:49Z</time>
      </trkpt>
      <trkpt lat="46.04574" lon="4.51841">
        <ele>724.6</ele>
        <time>2025-09-17T08:34:50Z</time>
      </trkpt>
      <trkpt lat="46.04569" lon="4.5184">
        <ele>725</ele>
        <time>2025-09-17T08:34:51Z</time>
      </trkpt>
      <trkpt lat="46.04564" lon="4.51838">
        <ele>725.4</ele>
        <time>2025-09-17T08:34:52Z</time>
      </trkpt>
      <trkpt lat="46.04559" lon="4.51837">
        <ele>725.2</ele>
        <time>2025-09-17T08:34:53Z</time>
      </trkpt>
      <trkpt lat="46.04555" lon="4.51837">
        <ele>725</ele>
        <time>2025-09-17T08:34:54Z</time>
      </trkpt>
      <trkpt lat="46.0455" lon="4.51835">
        <ele>724.6</ele>
        <time>2025-09-17T08:34:55Z</time>
      </trkpt>
      <trkpt lat="46.04544" lon="4.51834">
        <ele>724.6</ele>
        <time>2025-09-17T08:34:56Z</time>
      </trkpt>
      <trkpt lat="46.04538" lon="4.51833">
        <ele>724.6</ele>
        <time>2025-09-17T08:34:57Z</time>
      </trkpt>
      <trkpt lat="46.04533" lon="4.51834">
        <ele>724.2</ele>
        <time>2025-09-17T08:34:58Z</time>
      </trkpt>
      <trkpt lat="46.04526" lon="4.51831">
        <ele>724</ele>
        <time>2025-09-17T08:34:59Z</time>
      </trkpt>
      <trkpt lat="46.04521" lon="4.5183">
        <ele>724</ele>
        <time>2025-09-17T08:35:00Z</time>
      </trkpt>
      <trkpt lat="46.04516" lon="4.5183">
        <ele>724</ele>
        <time>2025-09-17T08:35:01Z</time>
      </trkpt>
      <trkpt lat="46.04512" lon="4.51831">
        <ele>723.8</ele>
        <time>2025-09-17T08:35:02Z</time>
      </trkpt>
      <trkpt lat="46.04506" lon="4.51833">
        <ele>723.6</ele>
        <time>2025-09-17T08:35:03Z</time>
      </trkpt>
      <trkpt lat="46.04499" lon="4.51834">
        <ele>723.2</ele>
        <time>2025-09-17T08:35:04Z</time>
      </trkpt>
      <trkpt lat="46.04494" lon="4.51835">
        <ele>723.2</ele>
        <time>2025-09-17T08:35:05Z</time>
      </trkpt>
      <trkpt lat="46.04486" lon="4.51835">
        <ele>722.4</ele>
        <time>2025-09-17T08:35:06Z</time>
      </trkpt>
      <trkpt lat="46.0448" lon="4.51837">
        <ele>721.8</ele>
        <time>2025-09-17T08:35:07Z</time>
      </trkpt>
      <trkpt lat="46.04473" lon="4.51839">
        <ele>721.6</ele>
        <time>2025-09-17T08:35:08Z</time>
      </trkpt>
      <trkpt lat="46.04468" lon="4.51843">
        <ele>721.4</ele>
        <time>2025-09-17T08:35:09Z</time>
      </trkpt>
      <trkpt lat="46.04462" lon="4.51848">
        <ele>721.2</ele>
        <time>2025-09-17T08:35:10Z</time>
      </trkpt>
      <trkpt lat="46.04457" lon="4.51854">
        <ele>721.2</ele>
        <time>2025-09-17T08:35:11Z</time>
      </trkpt>
      <trkpt lat="46.04452" lon="4.51859">
        <ele>721.6</ele>
        <time>2025-09-17T08:35:12Z</time>
      </trkpt>
      <trkpt lat="46.04447" lon="4.51867">
        <ele>721.2</ele>
        <time>2025-09-17T08:35:13Z</time>
      </trkpt>
      <trkpt lat="46.04441" lon="4.51873">
        <ele>720.8</ele>
        <time>2025-09-17T08:35:14Z</time>
      </trkpt>
      <trkpt lat="46.04435" lon="4.51881">
        <ele>720.4</ele>
        <time>2025-09-17T08:35:15Z</time>
      </trkpt>
      <trkpt lat="46.04432" lon="4.51887">
        <ele>719.6</ele>
        <time>2025-09-17T08:35:16Z</time>
      </trkpt>
      <trkpt lat="46.0443" lon="4.5189">
        <ele>719.2</ele>
        <time>2025-09-17T08:35:17Z</time>
      </trkpt>
      <trkpt lat="46.04426" lon="4.51896">
        <ele>719.2</ele>
        <time>2025-09-17T08:35:18Z</time>
      </trkpt>
      <trkpt lat="46.04423" lon="4.51899">
        <ele>719.2</ele>
        <time>2025-09-17T08:35:19Z</time>
      </trkpt>
      <trkpt lat="46.0442" lon="4.51903">
        <ele>719.2</ele>
        <time>2025-09-17T08:35:20Z</time>
      </trkpt>
      <trkpt lat="46.04418" lon="4.51906">
        <ele>719.2</ele>
        <time>2025-09-17T08:35:21Z</time>
      </trkpt>
      <trkpt lat="46.04416" lon="4.51908">
        <ele>719.2</ele>
        <time>2025-09-17T08:35:22Z</time>
      </trkpt>
      <trkpt lat="46.04414" lon="4.51911">
        <ele>719</ele>
        <time>2025-09-17T08:35:23Z</time>
      </trkpt>
      <trkpt lat="46.04413" lon="4.51912">
        <ele>719</ele>
        <time>2025-09-17T08:35:24Z</time>
      </trkpt>
      <trkpt lat="46.04411" lon="4.51913">
        <ele>718.6</ele>
        <time>2025-09-17T08:35:25Z</time>
      </trkpt>
      <trkpt lat="46.0441" lon="4.51913">
        <ele>717.2</ele>
        <time>2025-09-17T08:39:17Z</time>
      </trkpt>
      <trkpt lat="46.04408" lon="4.51915">
        <ele>717.2</ele>
        <time>2025-09-17T08:39:18Z</time>
      </trkpt>
      <trkpt lat="46.04406" lon="4.51916">
        <ele>717.8</ele>
        <time>2025-09-17T08:39:19Z</time>
      </trkpt>
      <trkpt lat="46.04405" lon="4.51918">
        <ele>717.4</ele>
        <time>2025-09-17T08:39:20Z</time>
      </trkpt>
      <trkpt lat="46.04403" lon="4.51922">
        <ele>716.2</ele>
        <time>2025-09-17T08:39:21Z</time>
      </trkpt>
      <trkpt lat="46.04401" lon="4.51927">
        <ele>716.2</ele>
        <time>2025-09-17T08:39:22Z</time>
      </trkpt>
      <trkpt lat="46.04398" lon="4.51932">
        <ele>715.8</ele>
        <time>2025-09-17T08:39:23Z</time>
      </trkpt>
      <trkpt lat="46.04394" lon="4.51941">
        <ele>715.2</ele>
        <time>2025-09-17T08:39:24Z</time>
      </trkpt>
      <trkpt lat="46.04389" lon="4.51946">
        <ele>715.2</ele>
        <time>2025-09-17T08:39:25Z</time>
      </trkpt>
      <trkpt lat="46.04389" lon="4.51946">
        <ele>714.2</ele>
        <time>2025-09-17T08:39:26Z</time>
      </trkpt>
      <trkpt lat="46.04386" lon="4.51952">
        <ele>713.8</ele>
        <time>2025-09-17T08:39:27Z</time>
      </trkpt>
      <trkpt lat="46.04381" lon="4.51958">
        <ele>712.4</ele>
        <time>2025-09-17T08:39:28Z</time>
      </trkpt>
      <trkpt lat="46.04377" lon="4.51965">
        <ele>711.8</ele>
        <time>2025-09-17T08:39:29Z</time>
      </trkpt>
      <trkpt lat="46.04372" lon="4.51972">
        <ele>713</ele>
        <time>2025-09-17T08:39:30Z</time>
      </trkpt>
      <trkpt lat="46.04369" lon="4.51978">
        <ele>712.2</ele>
        <time>2025-09-17T08:39:31Z</time>
      </trkpt>
      <trkpt lat="46.04363" lon="4.51986">
        <ele>711.6</ele>
        <time>2025-09-17T08:39:32Z</time>
      </trkpt>
      <trkpt lat="46.0436" lon="4.51993">
        <ele>710.4</ele>
        <time>2025-09-17T08:39:33Z</time>
      </trkpt>
      <trkpt lat="46.04354" lon="4.52">
        <ele>710</ele>
        <time>2025-09-17T08:39:34Z</time>
      </trkpt>
      <trkpt lat="46.04347" lon="4.52008">
        <ele>709.2</ele>
        <time>2025-09-17T08:39:35Z</time>
      </trkpt>
      <trkpt lat="46.04342" lon="4.52013">
        <ele>709.2</ele>
        <time>2025-09-17T08:39:36Z</time>
      </trkpt>
      <trkpt lat="46.04338" lon="4.5202">
        <ele>709</ele>
        <time>2025-09-17T08:39:37Z</time>
      </trkpt>
      <trkpt lat="46.04333" lon="4.52025">
        <ele>708.6</ele>
        <time>2025-09-17T08:39:38Z</time>
      </trkpt>
      <trkpt lat="46.0433" lon="4.5203">
        <ele>709.6</ele>
        <time>2025-09-17T08:39:39Z</time>
      </trkpt>
      <trkpt lat="46.04324" lon="4.52036">
        <ele>709</ele>
        <time>2025-09-17T08:39:40Z</time>
      </trkpt>
      <trkpt lat="46.04315" lon="4.52047">
        <ele>708.2</ele>
        <time>2025-09-17T08:39:41Z</time>
      </trkpt>
      <trkpt lat="46.0431" lon="4.52053">
        <ele>708.2</ele>
        <time>2025-09-17T08:39:42Z</time>
      </trkpt>
      <trkpt lat="46.04307" lon="4.52063">
        <ele>707.4</ele>
        <time>2025-09-17T08:39:43Z</time>
      </trkpt>
      <trkpt lat="46.04302" lon="4.52068">
        <ele>707.4</ele>
        <time>2025-09-17T08:39:44Z</time>
      </trkpt>
      <trkpt lat="46.04298" lon="4.52077">
        <ele>707</ele>
        <time>2025-09-17T08:39:45Z</time>
      </trkpt>
      <trkpt lat="46.04293" lon="4.52084">
        <ele>705.8</ele>
        <time>2025-09-17T08:39:46Z</time>
      </trkpt>
      <trkpt lat="46.04286" lon="4.52093">
        <ele>705.8</ele>
        <time>2025-09-17T08:39:47Z</time>
      </trkpt>
      <trkpt lat="46.04282" lon="4.52103">
        <ele>705.4</ele>
        <time>2025-09-17T08:39:48Z</time>
      </trkpt>
      <trkpt lat="46.0428" lon="4.52114">
        <ele>705.4</ele>
        <time>2025-09-17T08:39:49Z</time>
      </trkpt>
      <trkpt lat="46.04279" lon="4.52122">
        <ele>705.2</ele>
        <time>2025-09-17T08:39:50Z</time>
      </trkpt>
      <trkpt lat="46.04278" lon="4.52132">
        <ele>703.6</ele>
        <time>2025-09-17T08:39:51Z</time>
      </trkpt>
      <trkpt lat="46.04279" lon="4.52142">
        <ele>703.6</ele>
        <time>2025-09-17T08:39:52Z</time>
      </trkpt>
      <trkpt lat="46.04281" lon="4.52151">
        <ele>703.6</ele>
        <time>2025-09-17T08:39:53Z</time>
      </trkpt>
      <trkpt lat="46.04284" lon="4.52159">
        <ele>703.8</ele>
        <time>2025-09-17T08:39:54Z</time>
      </trkpt>
      <trkpt lat="46.04288" lon="4.52167">
        <ele>703.4</ele>
        <time>2025-09-17T08:39:55Z</time>
      </trkpt>
      <trkpt lat="46.04291" lon="4.52174">
        <ele>703.4</ele>
        <time>2025-09-17T08:39:56Z</time>
      </trkpt>
      <trkpt lat="46.04295" lon="4.5218">
        <ele>703.8</ele>
        <time>2025-09-17T08:39:57Z</time>
      </trkpt>
      <trkpt lat="46.043" lon="4.52186">
        <ele>703.8</ele>
        <time>2025-09-17T08:39:58Z</time>
      </trkpt>
      <trkpt lat="46.04304" lon="4.52191">
        <ele>704.2</ele>
        <time>2025-09-17T08:39:59Z</time>
      </trkpt>
      <trkpt lat="46.04309" lon="4.52196">
        <ele>704.2</ele>
        <time>2025-09-17T08:40:00Z</time>
      </trkpt>
      <trkpt lat="46.04313" lon="4.52201">
        <ele>704.2</ele>
        <time>2025-09-17T08:40:01Z</time>
      </trkpt>
      <trkpt lat="46.04316" lon="4.52206">
        <ele>704.2</ele>
        <time>2025-09-17T08:40:02Z</time>
      </trkpt>
      <trkpt lat="46.0432" lon="4.5221">
        <ele>704.6</ele>
        <time>2025-09-17T08:40:03Z</time>
      </trkpt>
      <trkpt lat="46.04323" lon="4.52216">
        <ele>704.6</ele>
        <time>2025-09-17T08:40:04Z</time>
      </trkpt>
      <trkpt lat="46.04327" lon="4.52222">
        <ele>704.6</ele>
        <time>2025-09-17T08:40:05Z</time>
      </trkpt>
      <trkpt lat="46.04331" lon="4.52225">
        <ele>704.6</ele>
        <time>2025-09-17T08:40:06Z</time>
      </trkpt>
      <trkpt lat="46.04335" lon="4.5223">
        <ele>705</ele>
        <time>2025-09-17T08:40:07Z</time>
      </trkpt>
      <trkpt lat="46.04338" lon="4.52234">
        <ele>705</ele>
        <time>2025-09-17T08:40:08Z</time>
      </trkpt>
      <trkpt lat="46.04342" lon="4.52238">
        <ele>705</ele>
        <time>2025-09-17T08:40:09Z</time>
      </trkpt>
      <trkpt lat="46.04345" lon="4.52242">
        <ele>705.6</ele>
        <time>2025-09-17T08:40:10Z</time>
      </trkpt>
      <trkpt lat="46.04348" lon="4.52245">
        <ele>706</ele>
        <time>2025-09-17T08:40:11Z</time>
      </trkpt>
      <trkpt lat="46.0435" lon="4.52248">
        <ele>706.4</ele>
        <time>2025-09-17T08:40:12Z</time>
      </trkpt>
      <trkpt lat="46.04353" lon="4.52251">
        <ele>706.2</ele>
        <time>2025-09-17T08:40:13Z</time>
      </trkpt>
      <trkpt lat="46.04354" lon="4.52255">
        <ele>706.6</ele>
        <time>2025-09-17T08:40:14Z</time>
      </trkpt>
      <trkpt lat="46.04357" lon="4.52257">
        <ele>706.2</ele>
        <time>2025-09-17T08:40:15Z</time>
      </trkpt>
      <trkpt lat="46.0436" lon="4.5226">
        <ele>706</ele>
        <time>2025-09-17T08:40:16Z</time>
      </trkpt>
      <trkpt lat="46.04362" lon="4.52262">
        <ele>706.8</ele>
        <time>2025-09-17T08:40:17Z</time>
      </trkpt>
      <trkpt lat="46.04364" lon="4.52265">
        <ele>707.2</ele>
        <time>2025-09-17T08:40:18Z</time>
      </trkpt>
      <trkpt lat="46.04367" lon="4.52267">
        <ele>707.2</ele>
        <time>2025-09-17T08:40:19Z</time>
      </trkpt>
      <trkpt lat="46.04369" lon="4.52269">
        <ele>707.4</ele>
        <time>2025-09-17T08:40:20Z</time>
      </trkpt>
      <trkpt lat="46.04371" lon="4.52271">
        <ele>707.4</ele>
        <time>2025-09-17T08:40:21Z</time>
      </trkpt>
      <trkpt lat="46.04374" lon="4.52274">
        <ele>707.8</ele>
        <time>2025-09-17T08:40:22Z</time>
      </trkpt>
      <trkpt lat="46.04376" lon="4.52276">
        <ele>708</ele>
        <time>2025-09-17T08:40:23Z</time>
      </trkpt>
      <trkpt lat="46.04378" lon="4.52278">
        <ele>708.4</ele>
        <time>2025-09-17T08:40:24Z</time>
      </trkpt>
      <trkpt lat="46.0438" lon="4.5228">
        <ele>708.4</ele>
        <time>2025-09-17T08:40:25Z</time>
      </trkpt>
      <trkpt lat="46.04382" lon="4.52281">
        <ele>708.8</ele>
        <time>2025-09-17T08:40:26Z</time>
      </trkpt>
      <trkpt lat="46.04385" lon="4.52283">
        <ele>708.8</ele>
        <time>2025-09-17T08:40:27Z</time>
      </trkpt>
      <trkpt lat="46.04387" lon="4.52285">
        <ele>709</ele>
        <time>2025-09-17T08:40:28Z</time>
      </trkpt>
      <trkpt lat="46.04388" lon="4.52287">
        <ele>709</ele>
        <time>2025-09-17T08:40:29Z</time>
      </trkpt>
      <trkpt lat="46.0439" lon="4.52289">
        <ele>709.2</ele>
        <time>2025-09-17T08:40:30Z</time>
      </trkpt>
      <trkpt lat="46.04392" lon="4.52292">
        <ele>709.2</ele>
        <time>2025-09-17T08:40:31Z</time>
      </trkpt>
      <trkpt lat="46.04394" lon="4.52294">
        <ele>709.2</ele>
        <time>2025-09-17T08:40:32Z</time>
      </trkpt>
      <trkpt lat="46.04396" lon="4.52296">
        <ele>709.8</ele>
        <time>2025-09-17T08:40:33Z</time>
      </trkpt>
      <trkpt lat="46.04397" lon="4.52299">
        <ele>710</ele>
        <time>2025-09-17T08:40:34Z</time>
      </trkpt>
      <trkpt lat="46.04399" lon="4.52301">
        <ele>710</ele>
        <time>2025-09-17T08:40:35Z</time>
      </trkpt>
      <trkpt lat="46.044" lon="4.52304">
        <ele>710.4</ele>
        <time>2025-09-17T08:40:36Z</time>
      </trkpt>
      <trkpt lat="46.04402" lon="4.52306">
        <ele>710.4</ele>
        <time>2025-09-17T08:40:37Z</time>
      </trkpt>
      <trkpt lat="46.04403" lon="4.52309">
        <ele>710.4</ele>
        <time>2025-09-17T08:40:38Z</time>
      </trkpt>
      <trkpt lat="46.04405" lon="4.52312">
        <ele>710.4</ele>
        <time>2025-09-17T08:40:39Z</time>
      </trkpt>
      <trkpt lat="46.04406" lon="4.52315">
        <ele>710.4</ele>
        <time>2025-09-17T08:40:40Z</time>
      </trkpt>
      <trkpt lat="46.04407" lon="4.52318">
        <ele>710.4</ele>
        <time>2025-09-17T08:40:41Z</time>
      </trkpt>
      <trkpt lat="46.04408" lon="4.52321">
        <ele>710.4</ele>
        <time>2025-09-17T08:40:42Z</time>
      </trkpt>
      <trkpt lat="46.04409" lon="4.52324">
        <ele>710.4</ele>
        <time>2025-09-17T08:40:43Z</time>
      </trkpt>
      <trkpt lat="46.0441" lon="4.52327">
        <ele>710.6</ele>
        <time>2025-09-17T08:40:44Z</time>
      </trkpt>
      <trkpt lat="46.04411" lon="4.5233">
        <ele>710.6</ele>
        <time>2025-09-17T08:40:45Z</time>
      </trkpt>
      <trkpt lat="46.04412" lon="4.52334">
        <ele>711</ele>
        <time>2025-09-17T08:40:46Z</time>
      </trkpt>
      <trkpt lat="46.04413" lon="4.52337">
        <ele>711</ele>
        <time>2025-09-17T08:40:47Z</time>
      </trkpt>
      <trkpt lat="46.04414" lon="4.5234">
        <ele>711.6</ele>
        <time>2025-09-17T08:40:48Z</time>
      </trkpt>
      <trkpt lat="46.04414" lon="4.52344">
        <ele>711.8</ele>
        <time>2025-09-17T08:40:49Z</time>
      </trkpt>
      <trkpt lat="46.04415" lon="4.52347">
        <ele>712.2</ele>
        <time>2025-09-17T08:40:50Z</time>
      </trkpt>
      <trkpt lat="46.04415" lon="4.5235">
        <ele>712.4</ele>
        <time>2025-09-17T08:40:51Z</time>
      </trkpt>
      <trkpt lat="46.04416" lon="4.52353">
        <ele>712.4</ele>
        <time>2025-09-17T08:40:52Z</time>
      </trkpt>
      <trkpt lat="46.04416" lon="4.52356">
        <ele>712.4</ele>
        <time>2025-09-17T08:40:53Z</time>
      </trkpt>
      <trkpt lat="46.04416" lon="4.5236">
        <ele>712.4</ele>
        <time>2025-09-17T08:40:54Z</time>
      </trkpt>
      <trkpt lat="46.04415" lon="4.52362">
        <ele>712.4</ele>
        <time>2025-09-17T08:40:55Z</time>
      </trkpt>
      <trkpt lat="46.04415" lon="4.52366">
        <ele>712.6</ele>
        <time>2025-09-17T08:40:56Z</time>
      </trkpt>
      <trkpt lat="46.04415" lon="4.52368">
        <ele>712.6</ele>
        <time>2025-09-17T08:40:57Z</time>
      </trkpt>
      <trkpt lat="46.04415" lon="4.52371">
        <ele>712.6</ele>
        <time>2025-09-17T08:40:58Z</time>
      </trkpt>
      <trkpt lat="46.04416" lon="4.52374">
        <ele>713</ele>
        <time>2025-09-17T08:40:59Z</time>
      </trkpt>
      <trkpt lat="46.04417" lon="4.52377">
        <ele>713</ele>
        <time>2025-09-17T08:41:00Z</time>
      </trkpt>
      <trkpt lat="46.04417" lon="4.52379">
        <ele>713</ele>
        <time>2025-09-17T08:41:01Z</time>
      </trkpt>
      <trkpt lat="46.04418" lon="4.52382">
        <ele>713.2</ele>
        <time>2025-09-17T08:41:02Z</time>
      </trkpt>
      <trkpt lat="46.04418" lon="4.52385">
        <ele>713.2</ele>
        <time>2025-09-17T08:41:03Z</time>
      </trkpt>
      <trkpt lat="46.04418" lon="4.52388">
        <ele>713.2</ele>
        <time>2025-09-17T08:41:04Z</time>
      </trkpt>
      <trkpt lat="46.04419" lon="4.5239">
        <ele>713.2</ele>
        <time>2025-09-17T08:41:05Z</time>
      </trkpt>
      <trkpt lat="46.04419" lon="4.52393">
        <ele>713.6</ele>
        <time>2025-09-17T08:41:06Z</time>
      </trkpt>
      <trkpt lat="46.04418" lon="4.52396">
        <ele>714</ele>
        <time>2025-09-17T08:41:07Z</time>
      </trkpt>
      <trkpt lat="46.04418" lon="4.52399">
        <ele>714.2</ele>
        <time>2025-09-17T08:41:08Z</time>
      </trkpt>
      <trkpt lat="46.04419" lon="4.52402">
        <ele>714.2</ele>
        <time>2025-09-17T08:41:09Z</time>
      </trkpt>
      <trkpt lat="46.0442" lon="4.52404">
        <ele>714.2</ele>
        <time>2025-09-17T08:41:10Z</time>
      </trkpt>
      <trkpt lat="46.04421" lon="4.52407">
        <ele>714.6</ele>
        <time>2025-09-17T08:41:11Z</time>
      </trkpt>
      <trkpt lat="46.04421" lon="4.52409">
        <ele>714.6</ele>
        <time>2025-09-17T08:41:12Z</time>
      </trkpt>
      <trkpt lat="46.04421" lon="4.52411">
        <ele>715</ele>
        <time>2025-09-17T08:41:13Z</time>
      </trkpt>
      <trkpt lat="46.04421" lon="4.52414">
        <ele>715</ele>
        <time>2025-09-17T08:41:14Z</time>
      </trkpt>
      <trkpt lat="46.04422" lon="4.52416">
        <ele>715.4</ele>
        <time>2025-09-17T08:41:15Z</time>
      </trkpt>
      <trkpt lat="46.04422" lon="4.52419">
        <ele>715.4</ele>
        <time>2025-09-17T08:41:16Z</time>
      </trkpt>
      <trkpt lat="46.04423" lon="4.52422">
        <ele>715.4</ele>
        <time>2025-09-17T08:41:17Z</time>
      </trkpt>
      <trkpt lat="46.04423" lon="4.52424">
        <ele>715.4</ele>
        <time>2025-09-17T08:41:18Z</time>
      </trkpt>
      <trkpt lat="46.04424" lon="4.52427">
        <ele>715.6</ele>
        <time>2025-09-17T08:41:19Z</time>
      </trkpt>
      <trkpt lat="46.04424" lon="4.5243">
        <ele>715.6</ele>
        <time>2025-09-17T08:41:20Z</time>
      </trkpt>
      <trkpt lat="46.04425" lon="4.52433">
        <ele>715.8</ele>
        <time>2025-09-17T08:41:21Z</time>
      </trkpt>
      <trkpt lat="46.04425" lon="4.52435">
        <ele>715.8</ele>
        <time>2025-09-17T08:41:22Z</time>
      </trkpt>
      <trkpt lat="46.04425" lon="4.52438">
        <ele>716.2</ele>
        <time>2025-09-17T08:41:23Z</time>
      </trkpt>
      <trkpt lat="46.04426" lon="4.52441">
        <ele>716.4</ele>
        <time>2025-09-17T08:41:24Z</time>
      </trkpt>
      <trkpt lat="46.04426" lon="4.52444">
        <ele>716.4</ele>
        <time>2025-09-17T08:41:25Z</time>
      </trkpt>
      <trkpt lat="46.04426" lon="4.52447">
        <ele>716.4</ele>
        <time>2025-09-17T08:41:26Z</time>
      </trkpt>
      <trkpt lat="46.04427" lon="4.5245">
        <ele>716.6</ele>
        <time>2025-09-17T08:41:27Z</time>
      </trkpt>
      <trkpt lat="46.04428" lon="4.52453">
        <ele>716.6</ele>
        <time>2025-09-17T08:41:28Z</time>
      </trkpt>
      <trkpt lat="46.04428" lon="4.52456">
        <ele>716.6</ele>
        <time>2025-09-17T08:41:29Z</time>
      </trkpt>
      <trkpt lat="46.04429" lon="4.52458">
        <ele>716.6</ele>
        <time>2025-09-17T08:41:30Z</time>
      </trkpt>
      <trkpt lat="46.04429" lon="4.52461">
        <ele>716.8</ele>
        <time>2025-09-17T08:41:31Z</time>
      </trkpt>
      <trkpt lat="46.0443" lon="4.52464">
        <ele>716.8</ele>
        <time>2025-09-17T08:41:32Z</time>
      </trkpt>
      <trkpt lat="46.0443" lon="4.52467">
        <ele>717.2</ele>
        <time>2025-09-17T08:41:33Z</time>
      </trkpt>
      <trkpt lat="46.0443" lon="4.5247">
        <ele>717.4</ele>
        <time>2025-09-17T08:41:34Z</time>
      </trkpt>
      <trkpt lat="46.0443" lon="4.52473">
        <ele>717.6</ele>
        <time>2025-09-17T08:41:35Z</time>
      </trkpt>
      <trkpt lat="46.0443" lon="4.52475">
        <ele>717.6</ele>
        <time>2025-09-17T08:41:36Z</time>
      </trkpt>
      <trkpt lat="46.04431" lon="4.52478">
        <ele>718</ele>
        <time>2025-09-17T08:41:37Z</time>
      </trkpt>
      <trkpt lat="46.04431" lon="4.52481">
        <ele>718</ele>
        <time>2025-09-17T08:41:38Z</time>
      </trkpt>
      <trkpt lat="46.04432" lon="4.52484">
        <ele>718</ele>
        <time>2025-09-17T08:41:39Z</time>
      </trkpt>
      <trkpt lat="46.04432" lon="4.52487">
        <ele>718</ele>
        <time>2025-09-17T08:41:40Z</time>
      </trkpt>
      <trkpt lat="46.04432" lon="4.5249">
        <ele>718.2</ele>
        <time>2025-09-17T08:41:41Z</time>
      </trkpt>
      <trkpt lat="46.04432" lon="4.52493">
        <ele>718.2</ele>
        <time>2025-09-17T08:41:42Z</time>
      </trkpt>
      <trkpt lat="46.04433" lon="4.52496">
        <ele>718.2</ele>
        <time>2025-09-17T08:41:43Z</time>
      </trkpt>
      <trkpt lat="46.04433" lon="4.52499">
        <ele>718.2</ele>
        <time>2025-09-17T08:41:44Z</time>
      </trkpt>
      <trkpt lat="46.04433" lon="4.52502">
        <ele>718.2</ele>
        <time>2025-09-17T08:41:45Z</time>
      </trkpt>
      <trkpt lat="46.04433" lon="4.52506">
        <ele>718.6</ele>
        <time>2025-09-17T08:41:46Z</time>
      </trkpt>
      <trkpt lat="46.04434" lon="4.52509">
        <ele>718.6</ele>
        <time>2025-09-17T08:41:47Z</time>
      </trkpt>
      <trkpt lat="46.04434" lon="4.52512">
        <ele>719</ele>
        <time>2025-09-17T08:41:48Z</time>
      </trkpt>
      <trkpt lat="46.04434" lon="4.52516">
        <ele>719</ele>
        <time>2025-09-17T08:41:49Z</time>
      </trkpt>
      <trkpt lat="46.04434" lon="4.52519">
        <ele>719.2</ele>
        <time>2025-09-17T08:41:50Z</time>
      </trkpt>
      <trkpt lat="46.04434" lon="4.52522">
        <ele>719.2</ele>
        <time>2025-09-17T08:41:51Z</time>
      </trkpt>
      <trkpt lat="46.04434" lon="4.52525">
        <ele>719.2</ele>
        <time>2025-09-17T08:41:52Z</time>
      </trkpt>
      <trkpt lat="46.04434" lon="4.52529">
        <ele>719.4</ele>
        <time>2025-09-17T08:41:53Z</time>
      </trkpt>
      <trkpt lat="46.04434" lon="4.52533">
        <ele>719.6</ele>
        <time>2025-09-17T08:41:54Z</time>
      </trkpt>
      <trkpt lat="46.04434" lon="4.52537">
        <ele>720</ele>
        <time>2025-09-17T08:41:55Z</time>
      </trkpt>
      <trkpt lat="46.04434" lon="4.5254">
        <ele>720</ele>
        <time>2025-09-17T08:41:56Z</time>
      </trkpt>
      <trkpt lat="46.04434" lon="4.52544">
        <ele>720</ele>
        <time>2025-09-17T08:41:57Z</time>
      </trkpt>
      <trkpt lat="46.04434" lon="4.52548">
        <ele>720</ele>
        <time>2025-09-17T08:41:58Z</time>
      </trkpt>
      <trkpt lat="46.04434" lon="4.52552">
        <ele>720</ele>
        <time>2025-09-17T08:41:59Z</time>
      </trkpt>
      <trkpt lat="46.04433" lon="4.52556">
        <ele>720</ele>
        <time>2025-09-17T08:42:00Z</time>
      </trkpt>
      <trkpt lat="46.04432" lon="4.52561">
        <ele>720</ele>
        <time>2025-09-17T08:42:01Z</time>
      </trkpt>
      <trkpt lat="46.04431" lon="4.52565">
        <ele>720</ele>
        <time>2025-09-17T08:42:02Z</time>
      </trkpt>
      <trkpt lat="46.0443" lon="4.5257">
        <ele>720</ele>
        <time>2025-09-17T08:42:03Z</time>
      </trkpt>
      <trkpt lat="46.04429" lon="4.52574">
        <ele>720</ele>
        <time>2025-09-17T08:42:04Z</time>
      </trkpt>
      <trkpt lat="46.04428" lon="4.5258">
        <ele>720</ele>
        <time>2025-09-17T08:42:05Z</time>
      </trkpt>
      <trkpt lat="46.04427" lon="4.52585">
        <ele>719</ele>
        <time>2025-09-17T08:42:06Z</time>
      </trkpt>
      <trkpt lat="46.04426" lon="4.5259">
        <ele>719</ele>
        <time>2025-09-17T08:42:07Z</time>
      </trkpt>
      <trkpt lat="46.04425" lon="4.52595">
        <ele>719.6</ele>
        <time>2025-09-17T08:42:08Z</time>
      </trkpt>
      <trkpt lat="46.04424" lon="4.526">
        <ele>719.6</ele>
        <time>2025-09-17T08:42:09Z</time>
      </trkpt>
      <trkpt lat="46.04423" lon="4.52605">
        <ele>719.6</ele>
        <time>2025-09-17T08:42:10Z</time>
      </trkpt>
      <trkpt lat="46.04421" lon="4.52611">
        <ele>719.6</ele>
        <time>2025-09-17T08:42:11Z</time>
      </trkpt>
      <trkpt lat="46.0442" lon="4.52616">
        <ele>719.6</ele>
        <time>2025-09-17T08:42:12Z</time>
      </trkpt>
      <trkpt lat="46.04418" lon="4.52621">
        <ele>719.6</ele>
        <time>2025-09-17T08:42:13Z</time>
      </trkpt>
      <trkpt lat="46.04417" lon="4.52626">
        <ele>719.8</ele>
        <time>2025-09-17T08:42:14Z</time>
      </trkpt>
      <trkpt lat="46.04416" lon="4.52631">
        <ele>719.8</ele>
        <time>2025-09-17T08:42:15Z</time>
      </trkpt>
      <trkpt lat="46.04415" lon="4.52637">
        <ele>720.2</ele>
        <time>2025-09-17T08:42:16Z</time>
      </trkpt>
      <trkpt lat="46.04415" lon="4.52641">
        <ele>720.4</ele>
        <time>2025-09-17T08:42:17Z</time>
      </trkpt>
      <trkpt lat="46.04415" lon="4.52646">
        <ele>720.8</ele>
        <time>2025-09-17T08:42:18Z</time>
      </trkpt>
      <trkpt lat="46.04414" lon="4.52651">
        <ele>720.4</ele>
        <time>2025-09-17T08:42:19Z</time>
      </trkpt>
      <trkpt lat="46.04415" lon="4.52656">
        <ele>720.2</ele>
        <time>2025-09-17T08:42:20Z</time>
      </trkpt>
      <trkpt lat="46.04415" lon="4.52661">
        <ele>720</ele>
        <time>2025-09-17T08:42:21Z</time>
      </trkpt>
      <trkpt lat="46.04416" lon="4.52666">
        <ele>720</ele>
        <time>2025-09-17T08:42:22Z</time>
      </trkpt>
      <trkpt lat="46.04416" lon="4.52671">
        <ele>720</ele>
        <time>2025-09-17T08:42:23Z</time>
      </trkpt>
      <trkpt lat="46.04417" lon="4.52677">
        <ele>720</ele>
        <time>2025-09-17T08:42:24Z</time>
      </trkpt>
      <trkpt lat="46.04418" lon="4.52682">
        <ele>720</ele>
        <time>2025-09-17T08:42:25Z</time>
      </trkpt>
      <trkpt lat="46.04419" lon="4.52687">
        <ele>720</ele>
        <time>2025-09-17T08:42:26Z</time>
      </trkpt>
      <trkpt lat="46.0442" lon="4.52692">
        <ele>720</ele>
        <time>2025-09-17T08:42:27Z</time>
      </trkpt>
      <trkpt lat="46.0442" lon="4.52696">
        <ele>720</ele>
        <time>2025-09-17T08:42:28Z</time>
      </trkpt>
      <trkpt lat="46.0442" lon="4.52701">
        <ele>720.2</ele>
        <time>2025-09-17T08:42:29Z</time>
      </trkpt>
      <trkpt lat="46.0442" lon="4.52706">
        <ele>720</ele>
        <time>2025-09-17T08:42:30Z</time>
      </trkpt>
      <trkpt lat="46.0442" lon="4.52711">
        <ele>720.2</ele>
        <time>2025-09-17T08:42:31Z</time>
      </trkpt>
      <trkpt lat="46.04421" lon="4.52716">
        <ele>720.4</ele>
        <time>2025-09-17T08:42:32Z</time>
      </trkpt>
      <trkpt lat="46.04423" lon="4.5272">
        <ele>720.4</ele>
        <time>2025-09-17T08:42:33Z</time>
      </trkpt>
      <trkpt lat="46.04424" lon="4.52725">
        <ele>720</ele>
        <time>2025-09-17T08:42:34Z</time>
      </trkpt>
      <trkpt lat="46.04426" lon="4.52729">
        <ele>720.2</ele>
        <time>2025-09-17T08:42:35Z</time>
      </trkpt>
      <trkpt lat="46.04428" lon="4.52734">
        <ele>720.2</ele>
        <time>2025-09-17T08:42:36Z</time>
      </trkpt>
      <trkpt lat="46.0443" lon="4.52739">
        <ele>720.2</ele>
        <time>2025-09-17T08:42:37Z</time>
      </trkpt>
      <trkpt lat="46.04432" lon="4.52744">
        <ele>720.6</ele>
        <time>2025-09-17T08:42:38Z</time>
      </trkpt>
      <trkpt lat="46.04434" lon="4.52749">
        <ele>720.6</ele>
        <time>2025-09-17T08:42:39Z</time>
      </trkpt>
      <trkpt lat="46.04436" lon="4.52754">
        <ele>720.2</ele>
        <time>2025-09-17T08:42:40Z</time>
      </trkpt>
      <trkpt lat="46.0444" lon="4.52759">
        <ele>719.8</ele>
        <time>2025-09-17T08:42:41Z</time>
      </trkpt>
      <trkpt lat="46.04441" lon="4.52764">
        <ele>719.8</ele>
        <time>2025-09-17T08:42:42Z</time>
      </trkpt>
      <trkpt lat="46.04444" lon="4.52769">
        <ele>720.2</ele>
        <time>2025-09-17T08:42:43Z</time>
      </trkpt>
      <trkpt lat="46.04446" lon="4.52774">
        <ele>719.4</ele>
        <time>2025-09-17T08:42:44Z</time>
      </trkpt>
      <trkpt lat="46.0445" lon="4.52778">
        <ele>719.4</ele>
        <time>2025-09-17T08:42:45Z</time>
      </trkpt>
      <trkpt lat="46.04452" lon="4.52782">
        <ele>719.4</ele>
        <time>2025-09-17T08:42:46Z</time>
      </trkpt>
      <trkpt lat="46.04456" lon="4.52786">
        <ele>719.6</ele>
        <time>2025-09-17T08:42:47Z</time>
      </trkpt>
      <trkpt lat="46.04459" lon="4.52791">
        <ele>719.6</ele>
        <time>2025-09-17T08:42:48Z</time>
      </trkpt>
      <trkpt lat="46.04464" lon="4.52801">
        <ele>719.6</ele>
        <time>2025-09-17T08:42:49Z</time>
      </trkpt>
      <trkpt lat="46.04467" lon="4.52807">
        <ele>719.2</ele>
        <time>2025-09-17T08:42:50Z</time>
      </trkpt>
      <trkpt lat="46.04468" lon="4.52812">
        <ele>719.2</ele>
        <time>2025-09-17T08:42:51Z</time>
      </trkpt>
      <trkpt lat="46.0447" lon="4.52818">
        <ele>719.2</ele>
        <time>2025-09-17T08:42:52Z</time>
      </trkpt>
      <trkpt lat="46.04471" lon="4.52823">
        <ele>719.2</ele>
        <time>2025-09-17T08:42:53Z</time>
      </trkpt>
      <trkpt lat="46.04473" lon="4.52828">
        <ele>719</ele>
        <time>2025-09-17T08:42:54Z</time>
      </trkpt>
      <trkpt lat="46.04475" lon="4.52831">
        <ele>719</ele>
        <time>2025-09-17T08:42:55Z</time>
      </trkpt>
      <trkpt lat="46.04477" lon="4.52836">
        <ele>719.4</ele>
        <time>2025-09-17T08:42:56Z</time>
      </trkpt>
      <trkpt lat="46.04477" lon="4.52841">
        <ele>719.4</ele>
        <time>2025-09-17T08:42:57Z</time>
      </trkpt>
      <trkpt lat="46.04476" lon="4.52845">
        <ele>719.4</ele>
        <time>2025-09-17T08:42:58Z</time>
      </trkpt>
      <trkpt lat="46.04475" lon="4.52847">
        <ele>719.4</ele>
        <time>2025-09-17T08:42:59Z</time>
      </trkpt>
      <trkpt lat="46.04474" lon="4.52847">
        <ele>719.4</ele>
        <time>2025-09-17T08:43:00Z</time>
      </trkpt>
      <trkpt lat="46.04474" lon="4.52848">
        <ele>719.6</ele>
        <time>2025-09-17T08:43:01Z</time>
      </trkpt>
      <trkpt lat="46.04474" lon="4.52849">
        <ele>719.6</ele>
        <time>2025-09-17T08:43:02Z</time>
      </trkpt>
      <trkpt lat="46.04474" lon="4.52849">
        <ele>719.6</ele>
        <time>2025-09-17T08:43:03Z</time>
      </trkpt>
      <trkpt lat="46.04474" lon="4.52849">
        <ele>719.6</ele>
        <time>2025-09-17T08:43:04Z</time>
      </trkpt>
      <trkpt lat="46.04472" lon="4.52847">
        <ele>719.8</ele>
        <time>2025-09-17T08:44:06Z</time>
      </trkpt>
      <trkpt lat="46.04472" lon="4.52846">
        <ele>719.8</ele>
        <time>2025-09-17T08:44:07Z</time>
      </trkpt>
      <trkpt lat="46.04472" lon="4.52845">
        <ele>719.8</ele>
        <time>2025-09-17T08:44:08Z</time>
      </trkpt>
      <trkpt lat="46.04472" lon="4.52845">
        <ele>719.8</ele>
        <time>2025-09-17T08:44:09Z</time>
      </trkpt>
      <trkpt lat="46.04471" lon="4.52841">
        <ele>719</ele>
        <time>2025-09-17T08:44:15Z</time>
      </trkpt>
      <trkpt lat="46.04471" lon="4.52838">
        <ele>719</ele>
        <time>2025-09-17T08:44:16Z</time>
      </trkpt>
      <trkpt lat="46.04472" lon="4.52835">
        <ele>719.4</ele>
        <time>2025-09-17T08:44:17Z</time>
      </trkpt>
      <trkpt lat="46.04471" lon="4.52834">
        <ele>719.8</ele>
        <time>2025-09-17T08:44:18Z</time>
      </trkpt>
      <trkpt lat="46.0447" lon="4.52834">
        <ele>719.8</ele>
        <time>2025-09-17T08:44:19Z</time>
      </trkpt>
      <trkpt lat="46.04469" lon="4.52833">
        <ele>719.8</ele>
        <time>2025-09-17T08:44:20Z</time>
      </trkpt>
      <trkpt lat="46.04466" lon="4.52832">
        <ele>719.8</ele>
        <time>2025-09-17T08:44:21Z</time>
      </trkpt>
      <trkpt lat="46.04464" lon="4.52831">
        <ele>719.8</ele>
        <time>2025-09-17T08:44:22Z</time>
      </trkpt>
      <trkpt lat="46.04462" lon="4.52829">
        <ele>719.6</ele>
        <time>2025-09-17T08:44:23Z</time>
      </trkpt>
      <trkpt lat="46.04462" lon="4.52829">
        <ele>719.6</ele>
        <time>2025-09-17T08:44:24Z</time>
      </trkpt>
      <trkpt lat="46.0446" lon="4.52826">
        <ele>719.2</ele>
        <time>2025-09-17T08:44:25Z</time>
      </trkpt>
      <trkpt lat="46.04458" lon="4.52823">
        <ele>718.4</ele>
        <time>2025-09-17T08:44:26Z</time>
      </trkpt>
      <trkpt lat="46.04454" lon="4.52817">
        <ele>718.2</ele>
        <time>2025-09-17T08:44:27Z</time>
      </trkpt>
      <trkpt lat="46.04451" lon="4.52812">
        <ele>717.6</ele>
        <time>2025-09-17T08:44:28Z</time>
      </trkpt>
      <trkpt lat="46.04446" lon="4.52806">
        <ele>717</ele>
        <time>2025-09-17T08:44:29Z</time>
      </trkpt>
      <trkpt lat="46.04441" lon="4.528">
        <ele>716.2</ele>
        <time>2025-09-17T08:44:30Z</time>
      </trkpt>
      <trkpt lat="46.04436" lon="4.52794">
        <ele>715.6</ele>
        <time>2025-09-17T08:44:31Z</time>
      </trkpt>
      <trkpt lat="46.04431" lon="4.52788">
        <ele>714.6</ele>
        <time>2025-09-17T08:44:32Z</time>
      </trkpt>
      <trkpt lat="46.04426" lon="4.52782">
        <ele>713.6</ele>
        <time>2025-09-17T08:44:33Z</time>
      </trkpt>
      <trkpt lat="46.0442" lon="4.52776">
        <ele>713.4</ele>
        <time>2025-09-17T08:44:34Z</time>
      </trkpt>
      <trkpt lat="46.0442" lon="4.52768">
        <ele>712.8</ele>
        <time>2025-09-17T08:44:35Z</time>
      </trkpt>
      <trkpt lat="46.04416" lon="4.52763">
        <ele>712.4</ele>
        <time>2025-09-17T08:44:36Z</time>
      </trkpt>
      <trkpt lat="46.04413" lon="4.52756">
        <ele>711.8</ele>
        <time>2025-09-17T08:44:37Z</time>
      </trkpt>
      <trkpt lat="46.04412" lon="4.52753">
        <ele>711.4</ele>
        <time>2025-09-17T08:44:38Z</time>
      </trkpt>
      <trkpt lat="46.04409" lon="4.52748">
        <ele>711</ele>
        <time>2025-09-17T08:44:39Z</time>
      </trkpt>
      <trkpt lat="46.04408" lon="4.52745">
        <ele>710.6</ele>
        <time>2025-09-17T08:44:40Z</time>
      </trkpt>
      <trkpt lat="46.04407" lon="4.52745">
        <ele>710.4</ele>
        <time>2025-09-17T08:44:41Z</time>
      </trkpt>
      <trkpt lat="46.04408" lon="4.52744">
        <ele>710.4</ele>
        <time>2025-09-17T08:44:42Z</time>
      </trkpt>
      <trkpt lat="46.04407" lon="4.52744">
        <ele>709.8</ele>
        <time>2025-09-17T08:44:43Z</time>
      </trkpt>
      <trkpt lat="46.04407" lon="4.52743">
        <ele>709.4</ele>
        <time>2025-09-17T08:44:44Z</time>
      </trkpt>
      <trkpt lat="46.04407" lon="4.52742">
        <ele>709.2</ele>
        <time>2025-09-17T08:44:45Z</time>
      </trkpt>
      <trkpt lat="46.04406" lon="4.52741">
        <ele>709</ele>
        <time>2025-09-17T08:44:46Z</time>
      </trkpt>
      <trkpt lat="46.04405" lon="4.52739">
        <ele>708.8</ele>
        <time>2025-09-17T08:44:47Z</time>
      </trkpt>
      <trkpt lat="46.04404" lon="4.52738">
        <ele>708.4</ele>
        <time>2025-09-17T08:44:48Z</time>
      </trkpt>
      <trkpt lat="46.04403" lon="4.52736">
        <ele>708.4</ele>
        <time>2025-09-17T08:44:49Z</time>
      </trkpt>
      <trkpt lat="46.04402" lon="4.52734">
        <ele>708.2</ele>
        <time>2025-09-17T08:44:50Z</time>
      </trkpt>
      <trkpt lat="46.044" lon="4.52731">
        <ele>707.8</ele>
        <time>2025-09-17T08:44:51Z</time>
      </trkpt>
      <trkpt lat="46.04398" lon="4.52729">
        <ele>707.6</ele>
        <time>2025-09-17T08:44:52Z</time>
      </trkpt>
      <trkpt lat="46.04397" lon="4.52727">
        <ele>707.4</ele>
        <time>2025-09-17T08:44:53Z</time>
      </trkpt>
      <trkpt lat="46.04397" lon="4.52726">
        <ele>707.2</ele>
        <time>2025-09-17T08:44:54Z</time>
      </trkpt>
      <trkpt lat="46.04397" lon="4.52726">
        <ele>706.6</ele>
        <time>2025-09-17T08:44:55Z</time>
      </trkpt>
      <trkpt lat="46.04397" lon="4.52726">
        <ele>706.6</ele>
        <time>2025-09-17T08:44:56Z</time>
      </trkpt>
      <trkpt lat="46.0439" lon="4.52712">
        <ele>705.2</ele>
        <time>2025-09-17T08:44:58Z</time>
      </trkpt>
      <trkpt lat="46.04386" lon="4.52702">
        <ele>704.8</ele>
        <time>2025-09-17T08:44:59Z</time>
      </trkpt>
      <trkpt lat="46.04382" lon="4.52695">
        <ele>703.8</ele>
        <time>2025-09-17T08:45:00Z</time>
      </trkpt>
      <trkpt lat="46.04379" lon="4.52687">
        <ele>702.8</ele>
        <time>2025-09-17T08:45:01Z</time>
      </trkpt>
      <trkpt lat="46.04376" lon="4.5268">
        <ele>702</ele>
        <time>2025-09-17T08:45:02Z</time>
      </trkpt>
      <trkpt lat="46.04374" lon="4.52673">
        <ele>701.2</ele>
        <time>2025-09-17T08:45:03Z</time>
      </trkpt>
      <trkpt lat="46.04372" lon="4.5266">
        <ele>700.2</ele>
        <time>2025-09-17T08:45:04Z</time>
      </trkpt>
      <trkpt lat="46.0437" lon="4.52651">
        <ele>699.6</ele>
        <time>2025-09-17T08:45:05Z</time>
      </trkpt>
      <trkpt lat="46.0437" lon="4.52643">
        <ele>698.8</ele>
        <time>2025-09-17T08:45:06Z</time>
      </trkpt>
      <trkpt lat="46.04369" lon="4.52633">
        <ele>698.8</ele>
        <time>2025-09-17T08:45:07Z</time>
      </trkpt>
      <trkpt lat="46.04369" lon="4.52623">
        <ele>698.2</ele>
        <time>2025-09-17T08:45:08Z</time>
      </trkpt>
      <trkpt lat="46.04369" lon="4.52614">
        <ele>697.4</ele>
        <time>2025-09-17T08:45:09Z</time>
      </trkpt>
      <trkpt lat="46.04368" lon="4.52602">
        <ele>696.2</ele>
        <time>2025-09-17T08:45:10Z</time>
      </trkpt>
      <trkpt lat="46.04368" lon="4.52591">
        <ele>695.4</ele>
        <time>2025-09-17T08:45:11Z</time>
      </trkpt>
      <trkpt lat="46.0437" lon="4.52579">
        <ele>694.4</ele>
        <time>2025-09-17T08:45:12Z</time>
      </trkpt>
      <trkpt lat="46.0437" lon="4.52568">
        <ele>693.6</ele>
        <time>2025-09-17T08:45:13Z</time>
      </trkpt>
      <trkpt lat="46.0437" lon="4.52557">
        <ele>692.8</ele>
        <time>2025-09-17T08:45:14Z</time>
      </trkpt>
      <trkpt lat="46.04368" lon="4.52545">
        <ele>692</ele>
        <time>2025-09-17T08:45:15Z</time>
      </trkpt>
      <trkpt lat="46.04368" lon="4.52545">
        <ele>691</ele>
        <time>2025-09-17T08:45:16Z</time>
      </trkpt>
      <trkpt lat="46.0437" lon="4.52522">
        <ele>690</ele>
        <time>2025-09-17T08:45:17Z</time>
      </trkpt>
      <trkpt lat="46.0437" lon="4.52511">
        <ele>689</ele>
        <time>2025-09-17T08:45:18Z</time>
      </trkpt>
      <trkpt lat="46.04368" lon="4.52501">
        <ele>688.6</ele>
        <time>2025-09-17T08:45:19Z</time>
      </trkpt>
      <trkpt lat="46.04367" lon="4.52493">
        <ele>688.2</ele>
        <time>2025-09-17T08:45:20Z</time>
      </trkpt>
      <trkpt lat="46.04366" lon="4.52485">
        <ele>687.4</ele>
        <time>2025-09-17T08:45:21Z</time>
      </trkpt>
      <trkpt lat="46.04365" lon="4.52476">
        <ele>687</ele>
        <time>2025-09-17T08:45:22Z</time>
      </trkpt>
      <trkpt lat="46.04364" lon="4.52467">
        <ele>687</ele>
        <time>2025-09-17T08:45:23Z</time>
      </trkpt>
      <trkpt lat="46.04364" lon="4.52461">
        <ele>686.4</ele>
        <time>2025-09-17T08:45:24Z</time>
      </trkpt>
      <trkpt lat="46.04362" lon="4.52455">
        <ele>686</ele>
        <time>2025-09-17T08:45:25Z</time>
      </trkpt>
      <trkpt lat="46.0436" lon="4.52449">
        <ele>685.6</ele>
        <time>2025-09-17T08:45:26Z</time>
      </trkpt>
      <trkpt lat="46.04361" lon="4.52445">
        <ele>685.6</ele>
        <time>2025-09-17T08:45:27Z</time>
      </trkpt>
      <trkpt lat="46.04359" lon="4.52443">
        <ele>685</ele>
        <time>2025-09-17T08:45:28Z</time>
      </trkpt>
      <trkpt lat="46.04358" lon="4.5244">
        <ele>684.6</ele>
        <time>2025-09-17T08:45:29Z</time>
      </trkpt>
      <trkpt lat="46.04357" lon="4.52438">
        <ele>684.2</ele>
        <time>2025-09-17T08:45:30Z</time>
      </trkpt>
      <trkpt lat="46.04356" lon="4.52438">
        <ele>684</ele>
        <time>2025-09-17T08:45:31Z</time>
      </trkpt>
      <trkpt lat="46.04356" lon="4.52438">
        <ele>684</ele>
        <time>2025-09-17T08:45:32Z</time>
      </trkpt>
      <trkpt lat="46.04356" lon="4.52438">
        <ele>683.4</ele>
        <time>2025-09-17T08:45:33Z</time>
      </trkpt>
      <trkpt lat="46.04358" lon="4.52439">
        <ele>682.6</ele>
        <time>2025-09-17T08:46:43Z</time>
      </trkpt>
      <trkpt lat="46.04357" lon="4.52436">
        <ele>682.6</ele>
        <time>2025-09-17T08:46:44Z</time>
      </trkpt>
      <trkpt lat="46.04357" lon="4.52432">
        <ele>682.6</ele>
        <time>2025-09-17T08:46:45Z</time>
      </trkpt>
      <trkpt lat="46.04356" lon="4.52426">
        <ele>682.4</ele>
        <time>2025-09-17T08:46:46Z</time>
      </trkpt>
      <trkpt lat="46.04355" lon="4.52421">
        <ele>681.8</ele>
        <time>2025-09-17T08:46:47Z</time>
      </trkpt>
      <trkpt lat="46.04354" lon="4.52414">
        <ele>681.2</ele>
        <time>2025-09-17T08:46:48Z</time>
      </trkpt>
      <trkpt lat="46.04353" lon="4.52408">
        <ele>681.2</ele>
        <time>2025-09-17T08:46:49Z</time>
      </trkpt>
      <trkpt lat="46.04351" lon="4.524">
        <ele>680.8</ele>
        <time>2025-09-17T08:46:50Z</time>
      </trkpt>
      <trkpt lat="46.04349" lon="4.52393">
        <ele>680</ele>
        <time>2025-09-17T08:46:51Z</time>
      </trkpt>
      <trkpt lat="46.04348" lon="4.52386">
        <ele>679.2</ele>
        <time>2025-09-17T08:46:52Z</time>
      </trkpt>
      <trkpt lat="46.04346" lon="4.52379">
        <ele>678.8</ele>
        <time>2025-09-17T08:46:53Z</time>
      </trkpt>
      <trkpt lat="46.04344" lon="4.5237">
        <ele>678</ele>
        <time>2025-09-17T08:46:54Z</time>
      </trkpt>
      <trkpt lat="46.04342" lon="4.52362">
        <ele>677.2</ele>
        <time>2025-09-17T08:46:55Z</time>
      </trkpt>
      <trkpt lat="46.04338" lon="4.52354">
        <ele>676.2</ele>
        <time>2025-09-17T08:46:56Z</time>
      </trkpt>
      <trkpt lat="46.04335" lon="4.52347">
        <ele>675.4</ele>
        <time>2025-09-17T08:46:57Z</time>
      </trkpt>
      <trkpt lat="46.04331" lon="4.52342">
        <ele>674.8</ele>
        <time>2025-09-17T08:46:58Z</time>
      </trkpt>
      <trkpt lat="46.04327" lon="4.52337">
        <ele>674.4</ele>
        <time>2025-09-17T08:46:59Z</time>
      </trkpt>
      <trkpt lat="46.04323" lon="4.52332">
        <ele>673.2</ele>
        <time>2025-09-17T08:47:00Z</time>
      </trkpt>
      <trkpt lat="46.04319" lon="4.52328">
        <ele>673.2</ele>
        <time>2025-09-17T08:47:01Z</time>
      </trkpt>
      <trkpt lat="46.04314" lon="4.52324">
        <ele>673.2</ele>
        <time>2025-09-17T08:47:02Z</time>
      </trkpt>
      <trkpt lat="46.0431" lon="4.52321">
        <ele>673.4</ele>
        <time>2025-09-17T08:47:03Z</time>
      </trkpt>
      <trkpt lat="46.04304" lon="4.52316">
        <ele>672.8</ele>
        <time>2025-09-17T08:47:04Z</time>
      </trkpt>
      <trkpt lat="46.04299" lon="4.52311">
        <ele>672.2</ele>
        <time>2025-09-17T08:47:05Z</time>
      </trkpt>
      <trkpt lat="46.04293" lon="4.52307">
        <ele>671.6</ele>
        <time>2025-09-17T08:47:06Z</time>
      </trkpt>
      <trkpt lat="46.04288" lon="4.52302">
        <ele>670.8</ele>
        <time>2025-09-17T08:47:07Z</time>
      </trkpt>
      <trkpt lat="46.04282" lon="4.52296">
        <ele>669.8</ele>
        <time>2025-09-17T08:47:08Z</time>
      </trkpt>
      <trkpt lat="46.04275" lon="4.52292">
        <ele>669</ele>
        <time>2025-09-17T08:47:09Z</time>
      </trkpt>
      <trkpt lat="46.0427" lon="4.52285">
        <ele>668</ele>
        <time>2025-09-17T08:47:10Z</time>
      </trkpt>
      <trkpt lat="46.04264" lon="4.5228">
        <ele>666.8</ele>
        <time>2025-09-17T08:47:11Z</time>
      </trkpt>
      <trkpt lat="46.04258" lon="4.52275">
        <ele>666.4</ele>
        <time>2025-09-17T08:47:12Z</time>
      </trkpt>
      <trkpt lat="46.04252" lon="4.52269">
        <ele>665.8</ele>
        <time>2025-09-17T08:47:13Z</time>
      </trkpt>
      <trkpt lat="46.04247" lon="4.52264">
        <ele>665.4</ele>
        <time>2025-09-17T08:47:14Z</time>
      </trkpt>
      <trkpt lat="46.04242" lon="4.52259">
        <ele>665</ele>
        <time>2025-09-17T08:47:15Z</time>
      </trkpt>
      <trkpt lat="46.04236" lon="4.52255">
        <ele>664.4</ele>
        <time>2025-09-17T08:47:16Z</time>
      </trkpt>
      <trkpt lat="46.04231" lon="4.5225">
        <ele>663.6</ele>
        <time>2025-09-17T08:47:17Z</time>
      </trkpt>
      <trkpt lat="46.04227" lon="4.52245">
        <ele>663</ele>
        <time>2025-09-17T08:47:18Z</time>
      </trkpt>
      <trkpt lat="46.04226" lon="4.5224">
        <ele>662.6</ele>
        <time>2025-09-17T08:47:19Z</time>
      </trkpt>
      <trkpt lat="46.04221" lon="4.52236">
        <ele>662</ele>
        <time>2025-09-17T08:47:20Z</time>
      </trkpt>
      <trkpt lat="46.04218" lon="4.52232">
        <ele>660.6</ele>
        <time>2025-09-17T08:47:21Z</time>
      </trkpt>
      <trkpt lat="46.04213" lon="4.52226">
        <ele>660.6</ele>
        <time>2025-09-17T08:47:22Z</time>
      </trkpt>
      <trkpt lat="46.04209" lon="4.52221">
        <ele>660</ele>
        <time>2025-09-17T08:47:23Z</time>
      </trkpt>
      <trkpt lat="46.04204" lon="4.52215">
        <ele>659</ele>
        <time>2025-09-17T08:47:24Z</time>
      </trkpt>
      <trkpt lat="46.04201" lon="4.52208">
        <ele>658.2</ele>
        <time>2025-09-17T08:47:25Z</time>
      </trkpt>
      <trkpt lat="46.04197" lon="4.52203">
        <ele>657.4</ele>
        <time>2025-09-17T08:47:26Z</time>
      </trkpt>
      <trkpt lat="46.04193" lon="4.52198">
        <ele>656.6</ele>
        <time>2025-09-17T08:47:27Z</time>
      </trkpt>
      <trkpt lat="46.0419" lon="4.52197">
        <ele>656.2</ele>
        <time>2025-09-17T08:47:28Z</time>
      </trkpt>
      <trkpt lat="46.04188" lon="4.52194">
        <ele>655.4</ele>
        <time>2025-09-17T08:47:29Z</time>
      </trkpt>
      <trkpt lat="46.04186" lon="4.52187">
        <ele>655</ele>
        <time>2025-09-17T08:47:30Z</time>
      </trkpt>
      <trkpt lat="46.04184" lon="4.52182">
        <ele>654.4</ele>
        <time>2025-09-17T08:47:31Z</time>
      </trkpt>
      <trkpt lat="46.04181" lon="4.52177">
        <ele>654</ele>
        <time>2025-09-17T08:47:32Z</time>
      </trkpt>
      <trkpt lat="46.04177" lon="4.52172">
        <ele>653.4</ele>
        <time>2025-09-17T08:47:33Z</time>
      </trkpt>
      <trkpt lat="46.04175" lon="4.52171">
        <ele>653</ele>
        <time>2025-09-17T08:47:34Z</time>
      </trkpt>
      <trkpt lat="46.04173" lon="4.52169">
        <ele>652.8</ele>
        <time>2025-09-17T08:47:35Z</time>
      </trkpt>
      <trkpt lat="46.04172" lon="4.52169">
        <ele>652.6</ele>
        <time>2025-09-17T08:47:36Z</time>
      </trkpt>
      <trkpt lat="46.0417" lon="4.52167">
        <ele>651.8</ele>
        <time>2025-09-17T08:47:37Z</time>
      </trkpt>
      <trkpt lat="46.04171" lon="4.52165">
        <ele>651.8</ele>
        <time>2025-09-17T08:47:38Z</time>
      </trkpt>
      <trkpt lat="46.04169" lon="4.52164">
        <ele>651.6</ele>
        <time>2025-09-17T08:47:39Z</time>
      </trkpt>
      <trkpt lat="46.04169" lon="4.52161">
        <ele>651.6</ele>
        <time>2025-09-17T08:47:40Z</time>
      </trkpt>
      <trkpt lat="46.04168" lon="4.52159">
        <ele>651</ele>
        <time>2025-09-17T08:47:41Z</time>
      </trkpt>
      <trkpt lat="46.04165" lon="4.52157">
        <ele>650.6</ele>
        <time>2025-09-17T08:47:42Z</time>
      </trkpt>
      <trkpt lat="46.04163" lon="4.52156">
        <ele>650.6</ele>
        <time>2025-09-17T08:47:43Z</time>
      </trkpt>
      <trkpt lat="46.04161" lon="4.52155">
        <ele>650.4</ele>
        <time>2025-09-17T08:47:44Z</time>
      </trkpt>
      <trkpt lat="46.04161" lon="4.52154">
        <ele>650.4</ele>
        <time>2025-09-17T08:47:45Z</time>
      </trkpt>
      <trkpt lat="46.0416" lon="4.52153">
        <ele>650.2</ele>
        <time>2025-09-17T08:47:46Z</time>
      </trkpt>
      <trkpt lat="46.04159" lon="4.52152">
        <ele>650.2</ele>
        <time>2025-09-17T08:47:47Z</time>
      </trkpt>
      <trkpt lat="46.04158" lon="4.5215">
        <ele>649.6</ele>
        <time>2025-09-17T08:47:48Z</time>
      </trkpt>
      <trkpt lat="46.04157" lon="4.52149">
        <ele>649.6</ele>
        <time>2025-09-17T08:47:49Z</time>
      </trkpt>
      <trkpt lat="46.04155" lon="4.52146">
        <ele>649.4</ele>
        <time>2025-09-17T08:47:50Z</time>
      </trkpt>
      <trkpt lat="46.04153" lon="4.52144">
        <ele>649.4</ele>
        <time>2025-09-17T08:47:51Z</time>
      </trkpt>
      <trkpt lat="46.04151" lon="4.52142">
        <ele>649</ele>
        <time>2025-09-17T08:47:52Z</time>
      </trkpt>
      <trkpt lat="46.0415" lon="4.5214">
        <ele>648.6</ele>
        <time>2025-09-17T08:47:53Z</time>
      </trkpt>
      <trkpt lat="46.04147" lon="4.52137">
        <ele>647.6</ele>
        <time>2025-09-17T08:47:54Z</time>
      </trkpt>
      <trkpt lat="46.04136" lon="4.52131">
        <ele>646</ele>
        <time>2025-09-17T08:47:55Z</time>
      </trkpt>
      <trkpt lat="46.0413" lon="4.52129">
        <ele>645.6</ele>
        <time>2025-09-17T08:47:56Z</time>
      </trkpt>
      <trkpt lat="46.04124" lon="4.52121">
        <ele>645.2</ele>
        <time>2025-09-17T08:47:57Z</time>
      </trkpt>
      <trkpt lat="46.04119" lon="4.52117">
        <ele>644.8</ele>
        <time>2025-09-17T08:47:58Z</time>
      </trkpt>
      <trkpt lat="46.04118" lon="4.52109">
        <ele>644.2</ele>
        <time>2025-09-17T08:47:59Z</time>
      </trkpt>
      <trkpt lat="46.04117" lon="4.52101">
        <ele>644.2</ele>
        <time>2025-09-17T08:48:00Z</time>
      </trkpt>
      <trkpt lat="46.04116" lon="4.52094">
        <ele>644</ele>
        <time>2025-09-17T08:48:01Z</time>
      </trkpt>
      <trkpt lat="46.04117" lon="4.52085">
        <ele>643.6</ele>
        <time>2025-09-17T08:48:02Z</time>
      </trkpt>
      <trkpt lat="46.04117" lon="4.52077">
        <ele>644.8</ele>
        <time>2025-09-17T08:48:03Z</time>
      </trkpt>
      <trkpt lat="46.04119" lon="4.52071">
        <ele>643.6</ele>
        <time>2025-09-17T08:48:04Z</time>
      </trkpt>
      <trkpt lat="46.04121" lon="4.52065">
        <ele>643.4</ele>
        <time>2025-09-17T08:48:05Z</time>
      </trkpt>
      <trkpt lat="46.04124" lon="4.52059">
        <ele>643.2</ele>
        <time>2025-09-17T08:48:06Z</time>
      </trkpt>
      <trkpt lat="46.04122" lon="4.5206">
        <ele>643.2</ele>
        <time>2025-09-17T08:48:07Z</time>
      </trkpt>
      <trkpt lat="46.04124" lon="4.52058">
        <ele>643.2</ele>
        <time>2025-09-17T08:48:08Z</time>
      </trkpt>
      <trkpt lat="46.04126" lon="4.52057">
        <ele>643.2</ele>
        <time>2025-09-17T08:48:09Z</time>
      </trkpt>
      <trkpt lat="46.04123" lon="4.52064">
        <ele>642.6</ele>
        <time>2025-09-17T08:48:10Z</time>
      </trkpt>
      <trkpt lat="46.04122" lon="4.52069">
        <ele>642.2</ele>
        <time>2025-09-17T08:48:11Z</time>
      </trkpt>
      <trkpt lat="46.04122" lon="4.52073">
        <ele>642.4</ele>
        <time>2025-09-17T08:48:12Z</time>
      </trkpt>
      <trkpt lat="46.04122" lon="4.52078">
        <ele>642.4</ele>
        <time>2025-09-17T08:48:13Z</time>
      </trkpt>
      <trkpt lat="46.04121" lon="4.52082">
        <ele>642.4</ele>
        <time>2025-09-17T08:48:14Z</time>
      </trkpt>
      <trkpt lat="46.04121" lon="4.52087">
        <ele>642.4</ele>
        <time>2025-09-17T08:48:15Z</time>
      </trkpt>
      <trkpt lat="46.0412" lon="4.52092">
        <ele>642.4</ele>
        <time>2025-09-17T08:48:16Z</time>
      </trkpt>
      <trkpt lat="46.04121" lon="4.52096">
        <ele>642.4</ele>
        <time>2025-09-17T08:48:17Z</time>
      </trkpt>
      <trkpt lat="46.0412" lon="4.52101">
        <ele>641.8</ele>
        <time>2025-09-17T08:48:18Z</time>
      </trkpt>
      <trkpt lat="46.0412" lon="4.52105">
        <ele>641.4</ele>
        <time>2025-09-17T08:48:19Z</time>
      </trkpt>
      <trkpt lat="46.04122" lon="4.52111">
        <ele>640.6</ele>
        <time>2025-09-17T08:48:20Z</time>
      </trkpt>
      <trkpt lat="46.04121" lon="4.52116">
        <ele>641.4</ele>
        <time>2025-09-17T08:48:21Z</time>
      </trkpt>
      <trkpt lat="46.04122" lon="4.52122">
        <ele>641.6</ele>
        <time>2025-09-17T08:48:22Z</time>
      </trkpt>
      <trkpt lat="46.04125" lon="4.52127">
        <ele>641</ele>
        <time>2025-09-17T08:48:23Z</time>
      </trkpt>
      <trkpt lat="46.04128" lon="4.52138">
        <ele>640</ele>
        <time>2025-09-17T08:48:24Z</time>
      </trkpt>
      <trkpt lat="46.04132" lon="4.52143">
        <ele>638.4</ele>
        <time>2025-09-17T08:48:25Z</time>
      </trkpt>
      <trkpt lat="46.04136" lon="4.52153">
        <ele>637.6</ele>
        <time>2025-09-17T08:48:26Z</time>
      </trkpt>
      <trkpt lat="46.04139" lon="4.52162">
        <ele>637.6</ele>
        <time>2025-09-17T08:48:27Z</time>
      </trkpt>
      <trkpt lat="46.0414" lon="4.52171">
        <ele>636.8</ele>
        <time>2025-09-17T08:48:28Z</time>
      </trkpt>
      <trkpt lat="46.04144" lon="4.52182">
        <ele>635.4</ele>
        <time>2025-09-17T08:48:29Z</time>
      </trkpt>
      <trkpt lat="46.04148" lon="4.52191">
        <ele>634.6</ele>
        <time>2025-09-17T08:48:30Z</time>
      </trkpt>
      <trkpt lat="46.04153" lon="4.522">
        <ele>634</ele>
        <time>2025-09-17T08:48:31Z</time>
      </trkpt>
      <trkpt lat="46.04156" lon="4.52208">
        <ele>634</ele>
        <time>2025-09-17T08:48:32Z</time>
      </trkpt>
      <trkpt lat="46.04157" lon="4.52212">
        <ele>633.6</ele>
        <time>2025-09-17T08:48:33Z</time>
      </trkpt>
      <trkpt lat="46.04158" lon="4.52215">
        <ele>633</ele>
        <time>2025-09-17T08:48:34Z</time>
      </trkpt>
      <trkpt lat="46.0416" lon="4.5222">
        <ele>632.8</ele>
        <time>2025-09-17T08:48:35Z</time>
      </trkpt>
      <trkpt lat="46.0416" lon="4.52221">
        <ele>632.8</ele>
        <time>2025-09-17T08:48:36Z</time>
      </trkpt>
      <trkpt lat="46.04161" lon="4.52223">
        <ele>632.8</ele>
        <time>2025-09-17T08:48:37Z</time>
      </trkpt>
      <trkpt lat="46.04163" lon="4.52225">
        <ele>632.6</ele>
        <time>2025-09-17T08:48:38Z</time>
      </trkpt>
      <trkpt lat="46.04165" lon="4.52228">
        <ele>632.6</ele>
        <time>2025-09-17T08:48:39Z</time>
      </trkpt>
      <trkpt lat="46.04165" lon="4.5223">
        <ele>632.2</ele>
        <time>2025-09-17T08:48:40Z</time>
      </trkpt>
      <trkpt lat="46.04168" lon="4.52236">
        <ele>631.8</ele>
        <time>2025-09-17T08:48:41Z</time>
      </trkpt>
      <trkpt lat="46.04168" lon="4.52241">
        <ele>631.8</ele>
        <time>2025-09-17T08:48:42Z</time>
      </trkpt>
      <trkpt lat="46.0417" lon="4.52247">
        <ele>631.4</ele>
        <time>2025-09-17T08:48:43Z</time>
      </trkpt>
      <trkpt lat="46.04173" lon="4.52253">
        <ele>631.4</ele>
        <time>2025-09-17T08:48:44Z</time>
      </trkpt>
      <trkpt lat="46.04174" lon="4.52256">
        <ele>631.4</ele>
        <time>2025-09-17T08:48:45Z</time>
      </trkpt>
      <trkpt lat="46.04176" lon="4.52264">
        <ele>631</ele>
        <time>2025-09-17T08:48:46Z</time>
      </trkpt>
      <trkpt lat="46.04178" lon="4.52273">
        <ele>630.6</ele>
        <time>2025-09-17T08:48:47Z</time>
      </trkpt>
      <trkpt lat="46.04181" lon="4.5228">
        <ele>630.4</ele>
        <time>2025-09-17T08:48:48Z</time>
      </trkpt>
      <trkpt lat="46.04185" lon="4.52289">
        <ele>630</ele>
        <time>2025-09-17T08:48:49Z</time>
      </trkpt>
      <trkpt lat="46.04186" lon="4.52298">
        <ele>630</ele>
        <time>2025-09-17T08:48:50Z</time>
      </trkpt>
      <trkpt lat="46.04188" lon="4.52304">
        <ele>629.4</ele>
        <time>2025-09-17T08:48:51Z</time>
      </trkpt>
      <trkpt lat="46.04187" lon="4.5231">
        <ele>628.8</ele>
        <time>2025-09-17T08:48:52Z</time>
      </trkpt>
      <trkpt lat="46.04192" lon="4.52318">
        <ele>628.4</ele>
        <time>2025-09-17T08:48:53Z</time>
      </trkpt>
      <trkpt lat="46.04195" lon="4.52325">
        <ele>627.4</ele>
        <time>2025-09-17T08:48:54Z</time>
      </trkpt>
      <trkpt lat="46.04201" lon="4.52334">
        <ele>626.8</ele>
        <time>2025-09-17T08:48:55Z</time>
      </trkpt>
      <trkpt lat="46.04203" lon="4.52342">
        <ele>626.6</ele>
        <time>2025-09-17T08:48:56Z</time>
      </trkpt>
      <trkpt lat="46.04207" lon="4.5235">
        <ele>626.2</ele>
        <time>2025-09-17T08:48:57Z</time>
      </trkpt>
      <trkpt lat="46.0421" lon="4.52356">
        <ele>626.2</ele>
        <time>2025-09-17T08:48:58Z</time>
      </trkpt>
      <trkpt lat="46.04213" lon="4.52361">
        <ele>625.8</ele>
        <time>2025-09-17T08:48:59Z</time>
      </trkpt>
      <trkpt lat="46.04217" lon="4.52368">
        <ele>625.2</ele>
        <time>2025-09-17T08:49:00Z</time>
      </trkpt>
      <trkpt lat="46.0422" lon="4.52375">
        <ele>624.6</ele>
        <time>2025-09-17T08:49:01Z</time>
      </trkpt>
      <trkpt lat="46.04225" lon="4.52381">
        <ele>623.2</ele>
        <time>2025-09-17T08:49:02Z</time>
      </trkpt>
      <trkpt lat="46.04227" lon="4.52389">
        <ele>623.2</ele>
        <time>2025-09-17T08:49:03Z</time>
      </trkpt>
      <trkpt lat="46.04229" lon="4.52396">
        <ele>623.2</ele>
        <time>2025-09-17T08:49:04Z</time>
      </trkpt>
      <trkpt lat="46.04232" lon="4.52401">
        <ele>623.2</ele>
        <time>2025-09-17T08:49:05Z</time>
      </trkpt>
      <trkpt lat="46.04234" lon="4.52408">
        <ele>622.8</ele>
        <time>2025-09-17T08:49:06Z</time>
      </trkpt>
      <trkpt lat="46.04237" lon="4.52417">
        <ele>622.4</ele>
        <time>2025-09-17T08:49:07Z</time>
      </trkpt>
      <trkpt lat="46.04239" lon="4.52426">
        <ele>622</ele>
        <time>2025-09-17T08:49:08Z</time>
      </trkpt>
      <trkpt lat="46.04238" lon="4.52436">
        <ele>621.4</ele>
        <time>2025-09-17T08:49:09Z</time>
      </trkpt>
      <trkpt lat="46.0424" lon="4.52445">
        <ele>621.2</ele>
        <time>2025-09-17T08:49:10Z</time>
      </trkpt>
      <trkpt lat="46.04241" lon="4.52453">
        <ele>621.2</ele>
        <time>2025-09-17T08:49:11Z</time>
      </trkpt>
      <trkpt lat="46.04241" lon="4.52462">
        <ele>619.2</ele>
        <time>2025-09-17T08:49:12Z</time>
      </trkpt>
      <trkpt lat="46.0424" lon="4.5247">
        <ele>619.4</ele>
        <time>2025-09-17T08:49:13Z</time>
      </trkpt>
      <trkpt lat="46.04237" lon="4.52479">
        <ele>619.4</ele>
        <time>2025-09-17T08:49:14Z</time>
      </trkpt>
      <trkpt lat="46.04234" lon="4.52487">
        <ele>618.4</ele>
        <time>2025-09-17T08:49:15Z</time>
      </trkpt>
      <trkpt lat="46.04231" lon="4.52494">
        <ele>617</ele>
        <time>2025-09-17T08:49:16Z</time>
      </trkpt>
      <trkpt lat="46.04227" lon="4.52501">
        <ele>617</ele>
        <time>2025-09-17T08:49:17Z</time>
      </trkpt>
      <trkpt lat="46.04224" lon="4.52508">
        <ele>617</ele>
        <time>2025-09-17T08:49:18Z</time>
      </trkpt>
      <trkpt lat="46.04221" lon="4.52515">
        <ele>617</ele>
        <time>2025-09-17T08:49:19Z</time>
      </trkpt>
      <trkpt lat="46.04219" lon="4.52524">
        <ele>617</ele>
        <time>2025-09-17T08:49:20Z</time>
      </trkpt>
      <trkpt lat="46.04217" lon="4.52533">
        <ele>617.2</ele>
        <time>2025-09-17T08:49:21Z</time>
      </trkpt>
      <trkpt lat="46.04215" lon="4.52542">
        <ele>616.8</ele>
        <time>2025-09-17T08:49:22Z</time>
      </trkpt>
      <trkpt lat="46.04214" lon="4.52551">
        <ele>616.6</ele>
        <time>2025-09-17T08:49:23Z</time>
      </trkpt>
      <trkpt lat="46.04214" lon="4.5256">
        <ele>616.6</ele>
        <time>2025-09-17T08:49:24Z</time>
      </trkpt>
      <trkpt lat="46.04214" lon="4.52568">
        <ele>616.6</ele>
        <time>2025-09-17T08:49:25Z</time>
      </trkpt>
      <trkpt lat="46.04214" lon="4.52577">
        <ele>616.6</ele>
        <time>2025-09-17T08:49:26Z</time>
      </trkpt>
      <trkpt lat="46.04213" lon="4.52586">
        <ele>615.2</ele>
        <time>2025-09-17T08:49:27Z</time>
      </trkpt>
      <trkpt lat="46.04214" lon="4.52595">
        <ele>615.2</ele>
        <time>2025-09-17T08:49:28Z</time>
      </trkpt>
      <trkpt lat="46.04213" lon="4.52605">
        <ele>615.2</ele>
        <time>2025-09-17T08:49:29Z</time>
      </trkpt>
      <trkpt lat="46.04214" lon="4.52614">
        <ele>615</ele>
        <time>2025-09-17T08:49:30Z</time>
      </trkpt>
      <trkpt lat="46.04215" lon="4.52623">
        <ele>615.4</ele>
        <time>2025-09-17T08:49:31Z</time>
      </trkpt>
      <trkpt lat="46.04216" lon="4.52633">
        <ele>615.2</ele>
        <time>2025-09-17T08:49:32Z</time>
      </trkpt>
      <trkpt lat="46.04217" lon="4.52642">
        <ele>614.4</ele>
        <time>2025-09-17T08:49:33Z</time>
      </trkpt>
      <trkpt lat="46.04217" lon="4.52653">
        <ele>613.8</ele>
        <time>2025-09-17T08:49:34Z</time>
      </trkpt>
      <trkpt lat="46.04218" lon="4.52664">
        <ele>614.6</ele>
        <time>2025-09-17T08:49:35Z</time>
      </trkpt>
      <trkpt lat="46.04216" lon="4.52676">
        <ele>614</ele>
        <time>2025-09-17T08:49:36Z</time>
      </trkpt>
      <trkpt lat="46.04218" lon="4.52686">
        <ele>613</ele>
        <time>2025-09-17T08:49:37Z</time>
      </trkpt>
      <trkpt lat="46.04219" lon="4.52697">
        <ele>612.4</ele>
        <time>2025-09-17T08:49:38Z</time>
      </trkpt>
      <trkpt lat="46.0422" lon="4.52708">
        <ele>612</ele>
        <time>2025-09-17T08:49:39Z</time>
      </trkpt>
      <trkpt lat="46.04222" lon="4.52718">
        <ele>612</ele>
        <time>2025-09-17T08:49:40Z</time>
      </trkpt>
      <trkpt lat="46.04224" lon="4.5273">
        <ele>611.2</ele>
        <time>2025-09-17T08:49:41Z</time>
      </trkpt>
      <trkpt lat="46.04225" lon="4.52741">
        <ele>610.6</ele>
        <time>2025-09-17T08:49:42Z</time>
      </trkpt>
      <trkpt lat="46.04227" lon="4.52749">
        <ele>610.6</ele>
        <time>2025-09-17T08:49:43Z</time>
      </trkpt>
      <trkpt lat="46.04229" lon="4.52755">
        <ele>610</ele>
        <time>2025-09-17T08:49:44Z</time>
      </trkpt>
      <trkpt lat="46.04231" lon="4.52761">
        <ele>610</ele>
        <time>2025-09-17T08:49:45Z</time>
      </trkpt>
      <trkpt lat="46.04232" lon="4.5277">
        <ele>608.8</ele>
        <time>2025-09-17T08:49:46Z</time>
      </trkpt>
      <trkpt lat="46.04233" lon="4.52778">
        <ele>607.8</ele>
        <time>2025-09-17T08:49:47Z</time>
      </trkpt>
      <trkpt lat="46.04236" lon="4.52785">
        <ele>607.2</ele>
        <time>2025-09-17T08:49:48Z</time>
      </trkpt>
      <trkpt lat="46.04239" lon="4.52794">
        <ele>606</ele>
        <time>2025-09-17T08:49:49Z</time>
      </trkpt>
      <trkpt lat="46.04239" lon="4.52801">
        <ele>605.2</ele>
        <time>2025-09-17T08:49:50Z</time>
      </trkpt>
      <trkpt lat="46.04238" lon="4.52807">
        <ele>604.4</ele>
        <time>2025-09-17T08:49:51Z</time>
      </trkpt>
      <trkpt lat="46.04237" lon="4.52812">
        <ele>604.4</ele>
        <time>2025-09-17T08:49:52Z</time>
      </trkpt>
      <trkpt lat="46.04237" lon="4.52816">
        <ele>604.4</ele>
        <time>2025-09-17T08:49:53Z</time>
      </trkpt>
      <trkpt lat="46.04239" lon="4.52822">
        <ele>604.4</ele>
        <time>2025-09-17T08:49:54Z</time>
      </trkpt>
      <trkpt lat="46.04235" lon="4.52828">
        <ele>604.2</ele>
        <time>2025-09-17T08:49:55Z</time>
      </trkpt>
      <trkpt lat="46.04234" lon="4.52835">
        <ele>601.6</ele>
        <time>2025-09-17T08:49:56Z</time>
      </trkpt>
      <trkpt lat="46.04233" lon="4.5284">
        <ele>601.6</ele>
        <time>2025-09-17T08:49:57Z</time>
      </trkpt>
      <trkpt lat="46.04232" lon="4.52846">
        <ele>601.6</ele>
        <time>2025-09-17T08:49:58Z</time>
      </trkpt>
      <trkpt lat="46.04232" lon="4.52851">
        <ele>601.6</ele>
        <time>2025-09-17T08:49:59Z</time>
      </trkpt>
      <trkpt lat="46.04234" lon="4.52855">
        <ele>601</ele>
        <time>2025-09-17T08:50:00Z</time>
      </trkpt>
      <trkpt lat="46.04233" lon="4.52859">
        <ele>600.8</ele>
        <time>2025-09-17T08:50:01Z</time>
      </trkpt>
      <trkpt lat="46.0423" lon="4.52864">
        <ele>600.8</ele>
        <time>2025-09-17T08:50:02Z</time>
      </trkpt>
      <trkpt lat="46.04226" lon="4.52868">
        <ele>600.8</ele>
        <time>2025-09-17T08:50:03Z</time>
      </trkpt>
      <trkpt lat="46.04222" lon="4.52869">
        <ele>600.8</ele>
        <time>2025-09-17T08:50:04Z</time>
      </trkpt>
      <trkpt lat="46.04218" lon="4.52872">
        <ele>600.8</ele>
        <time>2025-09-17T08:50:05Z</time>
      </trkpt>
      <trkpt lat="46.04216" lon="4.52869">
        <ele>601.2</ele>
        <time>2025-09-17T08:50:06Z</time>
      </trkpt>
      <trkpt lat="46.04215" lon="4.52867">
        <ele>601.4</ele>
        <time>2025-09-17T08:50:07Z</time>
      </trkpt>
      <trkpt lat="46.04214" lon="4.52866">
        <ele>601.4</ele>
        <time>2025-09-17T08:50:08Z</time>
      </trkpt>
      <trkpt lat="46.04213" lon="4.52864">
        <ele>601.8</ele>
        <time>2025-09-17T08:50:09Z</time>
      </trkpt>
      <trkpt lat="46.04211" lon="4.52862">
        <ele>601.8</ele>
        <time>2025-09-17T08:50:10Z</time>
      </trkpt>
      <trkpt lat="46.04209" lon="4.5286">
        <ele>602</ele>
        <time>2025-09-17T08:50:11Z</time>
      </trkpt>
      <trkpt lat="46.04207" lon="4.52859">
        <ele>602.6</ele>
        <time>2025-09-17T08:50:12Z</time>
      </trkpt>
      <trkpt lat="46.04204" lon="4.52857">
        <ele>602.8</ele>
        <time>2025-09-17T08:50:13Z</time>
      </trkpt>
      <trkpt lat="46.04202" lon="4.52856">
        <ele>602.8</ele>
        <time>2025-09-17T08:50:14Z</time>
      </trkpt>
      <trkpt lat="46.04199" lon="4.52855">
        <ele>602.8</ele>
        <time>2025-09-17T08:50:15Z</time>
      </trkpt>
      <trkpt lat="46.04197" lon="4.52853">
        <ele>603.2</ele>
        <time>2025-09-17T08:50:16Z</time>
      </trkpt>
      <trkpt lat="46.04195" lon="4.52851">
        <ele>603.2</ele>
        <time>2025-09-17T08:50:17Z</time>
      </trkpt>
      <trkpt lat="46.04193" lon="4.5285">
        <ele>603.2</ele>
        <time>2025-09-17T08:50:18Z</time>
      </trkpt>
      <trkpt lat="46.04191" lon="4.52849">
        <ele>603.8</ele>
        <time>2025-09-17T08:50:19Z</time>
      </trkpt>
      <trkpt lat="46.04189" lon="4.52847">
        <ele>603.4</ele>
        <time>2025-09-17T08:50:20Z</time>
      </trkpt>
      <trkpt lat="46.04188" lon="4.52845">
        <ele>603.6</ele>
        <time>2025-09-17T08:50:21Z</time>
      </trkpt>
      <trkpt lat="46.04186" lon="4.52843">
        <ele>604.2</ele>
        <time>2025-09-17T08:50:22Z</time>
      </trkpt>
      <trkpt lat="46.04184" lon="4.5284">
        <ele>604.6</ele>
        <time>2025-09-17T08:50:23Z</time>
      </trkpt>
      <trkpt lat="46.04183" lon="4.52839">
        <ele>604.6</ele>
        <time>2025-09-17T08:50:24Z</time>
      </trkpt>
      <trkpt lat="46.04181" lon="4.52838">
        <ele>604.8</ele>
        <time>2025-09-17T08:50:25Z</time>
      </trkpt>
      <trkpt lat="46.04179" lon="4.52837">
        <ele>605.2</ele>
        <time>2025-09-17T08:50:26Z</time>
      </trkpt>
      <trkpt lat="46.04177" lon="4.52836">
        <ele>605.4</ele>
        <time>2025-09-17T08:50:27Z</time>
      </trkpt>
      <trkpt lat="46.04175" lon="4.52835">
        <ele>605.8</ele>
        <time>2025-09-17T08:50:28Z</time>
      </trkpt>
      <trkpt lat="46.04172" lon="4.52833">
        <ele>605.8</ele>
        <time>2025-09-17T08:50:29Z</time>
      </trkpt>
      <trkpt lat="46.0417" lon="4.52831">
        <ele>605.8</ele>
        <time>2025-09-17T08:50:30Z</time>
      </trkpt>
      <trkpt lat="46.04168" lon="4.52829">
        <ele>605.8</ele>
        <time>2025-09-17T08:50:31Z</time>
      </trkpt>
      <trkpt lat="46.04165" lon="4.52826">
        <ele>606</ele>
        <time>2025-09-17T08:50:32Z</time>
      </trkpt>
      <trkpt lat="46.04163" lon="4.52825">
        <ele>606.6</ele>
        <time>2025-09-17T08:50:33Z</time>
      </trkpt>
      <trkpt lat="46.04161" lon="4.52824">
        <ele>606.6</ele>
        <time>2025-09-17T08:50:34Z</time>
      </trkpt>
      <trkpt lat="46.04159" lon="4.52822">
        <ele>606.6</ele>
        <time>2025-09-17T08:50:35Z</time>
      </trkpt>
      <trkpt lat="46.04157" lon="4.5282">
        <ele>607</ele>
        <time>2025-09-17T08:50:36Z</time>
      </trkpt>
      <trkpt lat="46.04155" lon="4.52818">
        <ele>607</ele>
        <time>2025-09-17T08:50:37Z</time>
      </trkpt>
      <trkpt lat="46.04152" lon="4.52816">
        <ele>607.6</ele>
        <time>2025-09-17T08:50:38Z</time>
      </trkpt>
      <trkpt lat="46.0415" lon="4.52814">
        <ele>607.8</ele>
        <time>2025-09-17T08:50:39Z</time>
      </trkpt>
      <trkpt lat="46.04148" lon="4.52812">
        <ele>607.8</ele>
        <time>2025-09-17T08:50:40Z</time>
      </trkpt>
      <trkpt lat="46.04146" lon="4.52809">
        <ele>608.2</ele>
        <time>2025-09-17T08:50:41Z</time>
      </trkpt>
      <trkpt lat="46.04144" lon="4.52807">
        <ele>608.2</ele>
        <time>2025-09-17T08:50:42Z</time>
      </trkpt>
      <trkpt lat="46.04142" lon="4.52805">
        <ele>608.2</ele>
        <time>2025-09-17T08:50:43Z</time>
      </trkpt>
      <trkpt lat="46.0414" lon="4.52803">
        <ele>608.8</ele>
        <time>2025-09-17T08:50:44Z</time>
      </trkpt>
      <trkpt lat="46.04138" lon="4.52802">
        <ele>608.8</ele>
        <time>2025-09-17T08:50:45Z</time>
      </trkpt>
      <trkpt lat="46.04136" lon="4.528">
        <ele>608.6</ele>
        <time>2025-09-17T08:50:46Z</time>
      </trkpt>
      <trkpt lat="46.04134" lon="4.52798">
        <ele>608.8</ele>
        <time>2025-09-17T08:50:47Z</time>
      </trkpt>
      <trkpt lat="46.04132" lon="4.52796">
        <ele>608.8</ele>
        <time>2025-09-17T08:50:48Z</time>
      </trkpt>
      <trkpt lat="46.0413" lon="4.52793">
        <ele>609.2</ele>
        <time>2025-09-17T08:50:49Z</time>
      </trkpt>
      <trkpt lat="46.04128" lon="4.52791">
        <ele>609.8</ele>
        <time>2025-09-17T08:50:50Z</time>
      </trkpt>
      <trkpt lat="46.04126" lon="4.52789">
        <ele>609.8</ele>
        <time>2025-09-17T08:50:51Z</time>
      </trkpt>
      <trkpt lat="46.04124" lon="4.52788">
        <ele>610.2</ele>
        <time>2025-09-17T08:50:52Z</time>
      </trkpt>
      <trkpt lat="46.04122" lon="4.52786">
        <ele>610.2</ele>
        <time>2025-09-17T08:50:53Z</time>
      </trkpt>
      <trkpt lat="46.04119" lon="4.52784">
        <ele>611</ele>
        <time>2025-09-17T08:50:54Z</time>
      </trkpt>
      <trkpt lat="46.04118" lon="4.52783">
        <ele>611</ele>
        <time>2025-09-17T08:50:55Z</time>
      </trkpt>
      <trkpt lat="46.04116" lon="4.52781">
        <ele>611</ele>
        <time>2025-09-17T08:50:56Z</time>
      </trkpt>
      <trkpt lat="46.04115" lon="4.52778">
        <ele>611</ele>
        <time>2025-09-17T08:50:57Z</time>
      </trkpt>
      <trkpt lat="46.04114" lon="4.52775">
        <ele>611.2</ele>
        <time>2025-09-17T08:50:58Z</time>
      </trkpt>
      <trkpt lat="46.04112" lon="4.52772">
        <ele>610.8</ele>
        <time>2025-09-17T08:50:59Z</time>
      </trkpt>
      <trkpt lat="46.0411" lon="4.5277">
        <ele>611</ele>
        <time>2025-09-17T08:51:00Z</time>
      </trkpt>
      <trkpt lat="46.04109" lon="4.52767">
        <ele>611.4</ele>
        <time>2025-09-17T08:51:01Z</time>
      </trkpt>
      <trkpt lat="46.04107" lon="4.52765">
        <ele>611.4</ele>
        <time>2025-09-17T08:51:02Z</time>
      </trkpt>
      <trkpt lat="46.04106" lon="4.52762">
        <ele>611.4</ele>
        <time>2025-09-17T08:51:03Z</time>
      </trkpt>
      <trkpt lat="46.04104" lon="4.5276">
        <ele>611.6</ele>
        <time>2025-09-17T08:51:04Z</time>
      </trkpt>
      <trkpt lat="46.04101" lon="4.52758">
        <ele>611.6</ele>
        <time>2025-09-17T08:51:05Z</time>
      </trkpt>
      <trkpt lat="46.04099" lon="4.52755">
        <ele>611.6</ele>
        <time>2025-09-17T08:51:06Z</time>
      </trkpt>
      <trkpt lat="46.04097" lon="4.52752">
        <ele>612</ele>
        <time>2025-09-17T08:51:07Z</time>
      </trkpt>
      <trkpt lat="46.04095" lon="4.52749">
        <ele>612</ele>
        <time>2025-09-17T08:51:08Z</time>
      </trkpt>
      <trkpt lat="46.04093" lon="4.52747">
        <ele>612.2</ele>
        <time>2025-09-17T08:51:09Z</time>
      </trkpt>
      <trkpt lat="46.04091" lon="4.52745">
        <ele>612.6</ele>
        <time>2025-09-17T08:51:10Z</time>
      </trkpt>
      <trkpt lat="46.04089" lon="4.52742">
        <ele>612.6</ele>
        <time>2025-09-17T08:51:11Z</time>
      </trkpt>
      <trkpt lat="46.04087" lon="4.52739">
        <ele>612.8</ele>
        <time>2025-09-17T08:51:12Z</time>
      </trkpt>
      <trkpt lat="46.04086" lon="4.52737">
        <ele>613.2</ele>
        <time>2025-09-17T08:51:13Z</time>
      </trkpt>
      <trkpt lat="46.04084" lon="4.52735">
        <ele>613.2</ele>
        <time>2025-09-17T08:51:14Z</time>
      </trkpt>
      <trkpt lat="46.04082" lon="4.52732">
        <ele>613.6</ele>
        <time>2025-09-17T08:51:15Z</time>
      </trkpt>
      <trkpt lat="46.0408" lon="4.5273">
        <ele>613.4</ele>
        <time>2025-09-17T08:51:16Z</time>
      </trkpt>
      <trkpt lat="46.04078" lon="4.52729">
        <ele>613.4</ele>
        <time>2025-09-17T08:51:17Z</time>
      </trkpt>
      <trkpt lat="46.04076" lon="4.52727">
        <ele>613.4</ele>
        <time>2025-09-17T08:51:18Z</time>
      </trkpt>
      <trkpt lat="46.04075" lon="4.52725">
        <ele>613.4</ele>
        <time>2025-09-17T08:51:19Z</time>
      </trkpt>
      <trkpt lat="46.04073" lon="4.52723">
        <ele>613.4</ele>
        <time>2025-09-17T08:51:20Z</time>
      </trkpt>
      <trkpt lat="46.04071" lon="4.52722">
        <ele>613.4</ele>
        <time>2025-09-17T08:51:21Z</time>
      </trkpt>
      <trkpt lat="46.04072" lon="4.52722">
        <ele>613.4</ele>
        <time>2025-09-17T08:51:22Z</time>
      </trkpt>
      <trkpt lat="46.04072" lon="4.52722">
        <ele>613.4</ele>
        <time>2025-09-17T08:51:23Z</time>
      </trkpt>
      <trkpt lat="46.04069" lon="4.5272">
        <ele>613</ele>
        <time>2025-09-17T08:52:24Z</time>
      </trkpt>
      <trkpt lat="46.04066" lon="4.52718">
        <ele>613</ele>
        <time>2025-09-17T08:52:25Z</time>
      </trkpt>
      <trkpt lat="46.04063" lon="4.52716">
        <ele>613</ele>
        <time>2025-09-17T08:52:26Z</time>
      </trkpt>
      <trkpt lat="46.04061" lon="4.52715">
        <ele>612.6</ele>
        <time>2025-09-17T08:52:27Z</time>
      </trkpt>
      <trkpt lat="46.04058" lon="4.52713">
        <ele>612.6</ele>
        <time>2025-09-17T08:52:28Z</time>
      </trkpt>
      <trkpt lat="46.04056" lon="4.52711">
        <ele>613.2</ele>
        <time>2025-09-17T08:52:29Z</time>
      </trkpt>
      <trkpt lat="46.04053" lon="4.52708">
        <ele>613</ele>
        <time>2025-09-17T08:52:30Z</time>
      </trkpt>
      <trkpt lat="46.04051" lon="4.52704">
        <ele>613.2</ele>
        <time>2025-09-17T08:52:31Z</time>
      </trkpt>
      <trkpt lat="46.04049" lon="4.527">
        <ele>613.2</ele>
        <time>2025-09-17T08:52:32Z</time>
      </trkpt>
      <trkpt lat="46.04047" lon="4.52697">
        <ele>613.2</ele>
        <time>2025-09-17T08:52:33Z</time>
      </trkpt>
      <trkpt lat="46.04045" lon="4.52695">
        <ele>613.4</ele>
        <time>2025-09-17T08:52:34Z</time>
      </trkpt>
      <trkpt lat="46.04042" lon="4.5269">
        <ele>613.2</ele>
        <time>2025-09-17T08:52:35Z</time>
      </trkpt>
      <trkpt lat="46.0404" lon="4.52686">
        <ele>613</ele>
        <time>2025-09-17T08:52:36Z</time>
      </trkpt>
      <trkpt lat="46.04037" lon="4.52681">
        <ele>613</ele>
        <time>2025-09-17T08:52:37Z</time>
      </trkpt>
      <trkpt lat="46.04034" lon="4.52677">
        <ele>613</ele>
        <time>2025-09-17T08:52:38Z</time>
      </trkpt>
      <trkpt lat="46.04032" lon="4.52674">
        <ele>613</ele>
        <time>2025-09-17T08:52:39Z</time>
      </trkpt>
      <trkpt lat="46.04029" lon="4.52671">
        <ele>612.6</ele>
        <time>2025-09-17T08:52:40Z</time>
      </trkpt>
      <trkpt lat="46.04027" lon="4.52667">
        <ele>613</ele>
        <time>2025-09-17T08:52:41Z</time>
      </trkpt>
      <trkpt lat="46.04025" lon="4.52663">
        <ele>613</ele>
        <time>2025-09-17T08:52:42Z</time>
      </trkpt>
      <trkpt lat="46.04022" lon="4.5266">
        <ele>612.6</ele>
        <time>2025-09-17T08:52:43Z</time>
      </trkpt>
      <trkpt lat="46.04019" lon="4.52656">
        <ele>612.6</ele>
        <time>2025-09-17T08:52:44Z</time>
      </trkpt>
      <trkpt lat="46.04014" lon="4.52651">
        <ele>612.4</ele>
        <time>2025-09-17T08:52:45Z</time>
      </trkpt>
      <trkpt lat="46.04012" lon="4.52646">
        <ele>612.4</ele>
        <time>2025-09-17T08:52:46Z</time>
      </trkpt>
      <trkpt lat="46.04009" lon="4.52643">
        <ele>612.4</ele>
        <time>2025-09-17T08:52:47Z</time>
      </trkpt>
      <trkpt lat="46.04006" lon="4.5264">
        <ele>612.6</ele>
        <time>2025-09-17T08:52:48Z</time>
      </trkpt>
      <trkpt lat="46.04002" lon="4.52637">
        <ele>612.6</ele>
        <time>2025-09-17T08:52:49Z</time>
      </trkpt>
      <trkpt lat="46.03997" lon="4.52634">
        <ele>612.8</ele>
        <time>2025-09-17T08:52:50Z</time>
      </trkpt>
      <trkpt lat="46.03992" lon="4.52631">
        <ele>612.8</ele>
        <time>2025-09-17T08:52:51Z</time>
      </trkpt>
      <trkpt lat="46.03988" lon="4.52628">
        <ele>612.8</ele>
        <time>2025-09-17T08:52:52Z</time>
      </trkpt>
      <trkpt lat="46.03984" lon="4.52626">
        <ele>612.8</ele>
        <time>2025-09-17T08:52:53Z</time>
      </trkpt>
      <trkpt lat="46.0398" lon="4.52625">
        <ele>613.2</ele>
        <time>2025-09-17T08:52:54Z</time>
      </trkpt>
      <trkpt lat="46.03977" lon="4.52622">
        <ele>613.2</ele>
        <time>2025-09-17T08:52:55Z</time>
      </trkpt>
      <trkpt lat="46.03974" lon="4.52621">
        <ele>613.4</ele>
        <time>2025-09-17T08:52:56Z</time>
      </trkpt>
      <trkpt lat="46.03971" lon="4.5262">
        <ele>613.4</ele>
        <time>2025-09-17T08:52:57Z</time>
      </trkpt>
      <trkpt lat="46.03968" lon="4.52619">
        <ele>614</ele>
        <time>2025-09-17T08:52:58Z</time>
      </trkpt>
      <trkpt lat="46.03965" lon="4.52617">
        <ele>614.6</ele>
        <time>2025-09-17T08:52:59Z</time>
      </trkpt>
      <trkpt lat="46.03962" lon="4.52615">
        <ele>614.6</ele>
        <time>2025-09-17T08:53:00Z</time>
      </trkpt>
      <trkpt lat="46.03959" lon="4.52612">
        <ele>615</ele>
        <time>2025-09-17T08:53:01Z</time>
      </trkpt>
      <trkpt lat="46.03956" lon="4.5261">
        <ele>615</ele>
        <time>2025-09-17T08:53:02Z</time>
      </trkpt>
      <trkpt lat="46.03954" lon="4.52609">
        <ele>615</ele>
        <time>2025-09-17T08:53:03Z</time>
      </trkpt>
      <trkpt lat="46.03952" lon="4.52606">
        <ele>615.4</ele>
        <time>2025-09-17T08:53:04Z</time>
      </trkpt>
      <trkpt lat="46.03948" lon="4.52605">
        <ele>615.4</ele>
        <time>2025-09-17T08:53:05Z</time>
      </trkpt>
      <trkpt lat="46.03945" lon="4.52604">
        <ele>615.8</ele>
        <time>2025-09-17T08:53:06Z</time>
      </trkpt>
      <trkpt lat="46.03942" lon="4.52604">
        <ele>615.8</ele>
        <time>2025-09-17T08:53:07Z</time>
      </trkpt>
      <trkpt lat="46.0394" lon="4.52604">
        <ele>615.8</ele>
        <time>2025-09-17T08:53:08Z</time>
      </trkpt>
      <trkpt lat="46.03939" lon="4.52604">
        <ele>616.2</ele>
        <time>2025-09-17T08:53:09Z</time>
      </trkpt>
      <trkpt lat="46.03936" lon="4.52603">
        <ele>616.6</ele>
        <time>2025-09-17T08:53:10Z</time>
      </trkpt>
      <trkpt lat="46.03933" lon="4.52602">
        <ele>616.8</ele>
        <time>2025-09-17T08:53:11Z</time>
      </trkpt>
      <trkpt lat="46.03931" lon="4.52601">
        <ele>617</ele>
        <time>2025-09-17T08:53:12Z</time>
      </trkpt>
      <trkpt lat="46.03928" lon="4.526">
        <ele>617</ele>
        <time>2025-09-17T08:53:13Z</time>
      </trkpt>
      <trkpt lat="46.03925" lon="4.52598">
        <ele>617.4</ele>
        <time>2025-09-17T08:53:14Z</time>
      </trkpt>
      <trkpt lat="46.03921" lon="4.52596">
        <ele>617.8</ele>
        <time>2025-09-17T08:53:15Z</time>
      </trkpt>
      <trkpt lat="46.03917" lon="4.52594">
        <ele>618</ele>
        <time>2025-09-17T08:53:16Z</time>
      </trkpt>
      <trkpt lat="46.03914" lon="4.52592">
        <ele>617.6</ele>
        <time>2025-09-17T08:53:17Z</time>
      </trkpt>
      <trkpt lat="46.03911" lon="4.52591">
        <ele>617.2</ele>
        <time>2025-09-17T08:53:18Z</time>
      </trkpt>
      <trkpt lat="46.03907" lon="4.52589">
        <ele>616.8</ele>
        <time>2025-09-17T08:53:19Z</time>
      </trkpt>
      <trkpt lat="46.03904" lon="4.52588">
        <ele>616.8</ele>
        <time>2025-09-17T08:53:20Z</time>
      </trkpt>
      <trkpt lat="46.03901" lon="4.52586">
        <ele>616.8</ele>
        <time>2025-09-17T08:53:21Z</time>
      </trkpt>
      <trkpt lat="46.03898" lon="4.52584">
        <ele>616.6</ele>
        <time>2025-09-17T08:53:22Z</time>
      </trkpt>
      <trkpt lat="46.03895" lon="4.52583">
        <ele>616.6</ele>
        <time>2025-09-17T08:53:23Z</time>
      </trkpt>
      <trkpt lat="46.03892" lon="4.52581">
        <ele>616.6</ele>
        <time>2025-09-17T08:53:24Z</time>
      </trkpt>
      <trkpt lat="46.03887" lon="4.52579">
        <ele>616.2</ele>
        <time>2025-09-17T08:53:25Z</time>
      </trkpt>
      <trkpt lat="46.03879" lon="4.52577">
        <ele>616.4</ele>
        <time>2025-09-17T08:53:26Z</time>
      </trkpt>
      <trkpt lat="46.03875" lon="4.52576">
        <ele>616.6</ele>
        <time>2025-09-17T08:53:27Z</time>
      </trkpt>
      <trkpt lat="46.03871" lon="4.52574">
        <ele>616.6</ele>
        <time>2025-09-17T08:53:28Z</time>
      </trkpt>
      <trkpt lat="46.03867" lon="4.52572">
        <ele>617</ele>
        <time>2025-09-17T08:53:29Z</time>
      </trkpt>
      <trkpt lat="46.03864" lon="4.52571">
        <ele>617</ele>
        <time>2025-09-17T08:53:30Z</time>
      </trkpt>
      <trkpt lat="46.0386" lon="4.52571">
        <ele>617.2</ele>
        <time>2025-09-17T08:53:31Z</time>
      </trkpt>
      <trkpt lat="46.03856" lon="4.52571">
        <ele>617.8</ele>
        <time>2025-09-17T08:53:32Z</time>
      </trkpt>
      <trkpt lat="46.03853" lon="4.52571">
        <ele>618.2</ele>
        <time>2025-09-17T08:53:33Z</time>
      </trkpt>
      <trkpt lat="46.03849" lon="4.52571">
        <ele>617.6</ele>
        <time>2025-09-17T08:53:34Z</time>
      </trkpt>
      <trkpt lat="46.03846" lon="4.52572">
        <ele>617.8</ele>
        <time>2025-09-17T08:53:35Z</time>
      </trkpt>
      <trkpt lat="46.03843" lon="4.5257">
        <ele>617.2</ele>
        <time>2025-09-17T08:53:36Z</time>
      </trkpt>
      <trkpt lat="46.03839" lon="4.52571">
        <ele>617.4</ele>
        <time>2025-09-17T08:53:37Z</time>
      </trkpt>
      <trkpt lat="46.03836" lon="4.52572">
        <ele>618</ele>
        <time>2025-09-17T08:53:38Z</time>
      </trkpt>
      <trkpt lat="46.03832" lon="4.52572">
        <ele>618</ele>
        <time>2025-09-17T08:53:39Z</time>
      </trkpt>
      <trkpt lat="46.03829" lon="4.52573">
        <ele>618.2</ele>
        <time>2025-09-17T08:53:40Z</time>
      </trkpt>
      <trkpt lat="46.03826" lon="4.52574">
        <ele>617.8</ele>
        <time>2025-09-17T08:53:41Z</time>
      </trkpt>
      <trkpt lat="46.03823" lon="4.52575">
        <ele>617.6</ele>
        <time>2025-09-17T08:53:42Z</time>
      </trkpt>
      <trkpt lat="46.03819" lon="4.52576">
        <ele>617.6</ele>
        <time>2025-09-17T08:53:43Z</time>
      </trkpt>
      <trkpt lat="46.03816" lon="4.52578">
        <ele>618</ele>
        <time>2025-09-17T08:53:44Z</time>
      </trkpt>
      <trkpt lat="46.03813" lon="4.5258">
        <ele>618</ele>
        <time>2025-09-17T08:53:45Z</time>
      </trkpt>
      <trkpt lat="46.03811" lon="4.52582">
        <ele>618</ele>
        <time>2025-09-17T08:53:46Z</time>
      </trkpt>
      <trkpt lat="46.03808" lon="4.52584">
        <ele>618</ele>
        <time>2025-09-17T08:53:47Z</time>
      </trkpt>
      <trkpt lat="46.03805" lon="4.52587">
        <ele>618.4</ele>
        <time>2025-09-17T08:53:48Z</time>
      </trkpt>
      <trkpt lat="46.03802" lon="4.5259">
        <ele>617.6</ele>
        <time>2025-09-17T08:53:49Z</time>
      </trkpt>
      <trkpt lat="46.03799" lon="4.52594">
        <ele>617.6</ele>
        <time>2025-09-17T08:53:50Z</time>
      </trkpt>
      <trkpt lat="46.03796" lon="4.52598">
        <ele>617.6</ele>
        <time>2025-09-17T08:53:51Z</time>
      </trkpt>
      <trkpt lat="46.03794" lon="4.52603">
        <ele>617.2</ele>
        <time>2025-09-17T08:53:52Z</time>
      </trkpt>
      <trkpt lat="46.03792" lon="4.52609">
        <ele>617.2</ele>
        <time>2025-09-17T08:53:53Z</time>
      </trkpt>
      <trkpt lat="46.03789" lon="4.52614">
        <ele>616.8</ele>
        <time>2025-09-17T08:53:54Z</time>
      </trkpt>
      <trkpt lat="46.03788" lon="4.52619">
        <ele>616.8</ele>
        <time>2025-09-17T08:53:55Z</time>
      </trkpt>
      <trkpt lat="46.03786" lon="4.52626">
        <ele>616.4</ele>
        <time>2025-09-17T08:53:56Z</time>
      </trkpt>
      <trkpt lat="46.03784" lon="4.52632">
        <ele>616.4</ele>
        <time>2025-09-17T08:53:57Z</time>
      </trkpt>
      <trkpt lat="46.03783" lon="4.52638">
        <ele>615.6</ele>
        <time>2025-09-17T08:53:58Z</time>
      </trkpt>
      <trkpt lat="46.03781" lon="4.52644">
        <ele>615.8</ele>
        <time>2025-09-17T08:53:59Z</time>
      </trkpt>
      <trkpt lat="46.0378" lon="4.5265">
        <ele>615.4</ele>
        <time>2025-09-17T08:54:00Z</time>
      </trkpt>
      <trkpt lat="46.03778" lon="4.52655">
        <ele>614.8</ele>
        <time>2025-09-17T08:54:01Z</time>
      </trkpt>
      <trkpt lat="46.03779" lon="4.52662">
        <ele>615</ele>
        <time>2025-09-17T08:54:02Z</time>
      </trkpt>
      <trkpt lat="46.03781" lon="4.52669">
        <ele>615.2</ele>
        <time>2025-09-17T08:54:03Z</time>
      </trkpt>
      <trkpt lat="46.03782" lon="4.52676">
        <ele>614.6</ele>
        <time>2025-09-17T08:54:04Z</time>
      </trkpt>
      <trkpt lat="46.03782" lon="4.52683">
        <ele>614.6</ele>
        <time>2025-09-17T08:54:05Z</time>
      </trkpt>
      <trkpt lat="46.03783" lon="4.52689">
        <ele>614.4</ele>
        <time>2025-09-17T08:54:06Z</time>
      </trkpt>
      <trkpt lat="46.03783" lon="4.52694">
        <ele>614.4</ele>
        <time>2025-09-17T08:54:07Z</time>
      </trkpt>
      <trkpt lat="46.03784" lon="4.52698">
        <ele>614</ele>
        <time>2025-09-17T08:54:08Z</time>
      </trkpt>
      <trkpt lat="46.03785" lon="4.527">
        <ele>613.4</ele>
        <time>2025-09-17T08:54:09Z</time>
      </trkpt>
      <trkpt lat="46.03786" lon="4.52701">
        <ele>613.4</ele>
        <time>2025-09-17T08:54:10Z</time>
      </trkpt>
      <trkpt lat="46.03786" lon="4.52702">
        <ele>613.4</ele>
        <time>2025-09-17T08:54:11Z</time>
      </trkpt>
      <trkpt lat="46.03787" lon="4.52703">
        <ele>613.4</ele>
        <time>2025-09-17T08:54:12Z</time>
      </trkpt>
      <trkpt lat="46.03787" lon="4.52702">
        <ele>613.4</ele>
        <time>2025-09-17T08:54:13Z</time>
      </trkpt>
      <trkpt lat="46.03787" lon="4.52702">
        <ele>613.2</ele>
        <time>2025-09-17T08:54:14Z</time>
      </trkpt>
      <trkpt lat="46.03787" lon="4.52704">
        <ele>613.2</ele>
        <time>2025-09-17T08:54:28Z</time>
      </trkpt>
      <trkpt lat="46.03787" lon="4.52706">
        <ele>613.2</ele>
        <time>2025-09-17T08:54:29Z</time>
      </trkpt>
      <trkpt lat="46.03789" lon="4.52707">
        <ele>612.8</ele>
        <time>2025-09-17T08:54:30Z</time>
      </trkpt>
      <trkpt lat="46.0379" lon="4.52708">
        <ele>612.8</ele>
        <time>2025-09-17T08:54:31Z</time>
      </trkpt>
      <trkpt lat="46.0379" lon="4.52708">
        <ele>612.6</ele>
        <time>2025-09-17T08:54:32Z</time>
      </trkpt>
      <trkpt lat="46.0379" lon="4.52708">
        <ele>612.6</ele>
        <time>2025-09-17T08:54:33Z</time>
      </trkpt>
      <trkpt lat="46.03789" lon="4.52709">
        <ele>612.2</ele>
        <time>2025-09-17T08:55:14Z</time>
      </trkpt>
      <trkpt lat="46.0379" lon="4.5271">
        <ele>612.2</ele>
        <time>2025-09-17T08:55:15Z</time>
      </trkpt>
      <trkpt lat="46.03791" lon="4.52713">
        <ele>612.2</ele>
        <time>2025-09-17T08:55:16Z</time>
      </trkpt>
      <trkpt lat="46.03792" lon="4.52715">
        <ele>612.2</ele>
        <time>2025-09-17T08:55:17Z</time>
      </trkpt>
      <trkpt lat="46.03793" lon="4.52717">
        <ele>612</ele>
        <time>2025-09-17T08:55:18Z</time>
      </trkpt>
      <trkpt lat="46.03794" lon="4.5272">
        <ele>612</ele>
        <time>2025-09-17T08:55:19Z</time>
      </trkpt>
      <trkpt lat="46.03795" lon="4.52722">
        <ele>612</ele>
        <time>2025-09-17T08:55:20Z</time>
      </trkpt>
      <trkpt lat="46.03796" lon="4.52726">
        <ele>612</ele>
        <time>2025-09-17T08:55:21Z</time>
      </trkpt>
      <trkpt lat="46.03797" lon="4.52731">
        <ele>611.6</ele>
        <time>2025-09-17T08:55:22Z</time>
      </trkpt>
      <trkpt lat="46.03798" lon="4.52735">
        <ele>611.2</ele>
        <time>2025-09-17T08:55:23Z</time>
      </trkpt>
      <trkpt lat="46.038" lon="4.5274">
        <ele>611.2</ele>
        <time>2025-09-17T08:55:24Z</time>
      </trkpt>
      <trkpt lat="46.03802" lon="4.52745">
        <ele>610.6</ele>
        <time>2025-09-17T08:55:25Z</time>
      </trkpt>
      <trkpt lat="46.03804" lon="4.52751">
        <ele>610.6</ele>
        <time>2025-09-17T08:55:26Z</time>
      </trkpt>
      <trkpt lat="46.03806" lon="4.52758">
        <ele>610.6</ele>
        <time>2025-09-17T08:55:27Z</time>
      </trkpt>
      <trkpt lat="46.03808" lon="4.52764">
        <ele>610.2</ele>
        <time>2025-09-17T08:55:28Z</time>
      </trkpt>
      <trkpt lat="46.0381" lon="4.5277">
        <ele>609.8</ele>
        <time>2025-09-17T08:55:29Z</time>
      </trkpt>
      <trkpt lat="46.03813" lon="4.52775">
        <ele>609.2</ele>
        <time>2025-09-17T08:55:30Z</time>
      </trkpt>
      <trkpt lat="46.03815" lon="4.52782">
        <ele>608.4</ele>
        <time>2025-09-17T08:55:31Z</time>
      </trkpt>
      <trkpt lat="46.03819" lon="4.52789">
        <ele>608.4</ele>
        <time>2025-09-17T08:55:32Z</time>
      </trkpt>
      <trkpt lat="46.03824" lon="4.52801">
        <ele>608.4</ele>
        <time>2025-09-17T08:55:33Z</time>
      </trkpt>
      <trkpt lat="46.03827" lon="4.52808">
        <ele>608.4</ele>
        <time>2025-09-17T08:55:34Z</time>
      </trkpt>
      <trkpt lat="46.03829" lon="4.52816">
        <ele>608</ele>
        <time>2025-09-17T08:55:35Z</time>
      </trkpt>
      <trkpt lat="46.03833" lon="4.52822">
        <ele>608</ele>
        <time>2025-09-17T08:55:36Z</time>
      </trkpt>
      <trkpt lat="46.03834" lon="4.52829">
        <ele>607.4</ele>
        <time>2025-09-17T08:55:37Z</time>
      </trkpt>
      <trkpt lat="46.03837" lon="4.52836">
        <ele>607.2</ele>
        <time>2025-09-17T08:55:38Z</time>
      </trkpt>
      <trkpt lat="46.03839" lon="4.52844">
        <ele>606.6</ele>
        <time>2025-09-17T08:55:39Z</time>
      </trkpt>
      <trkpt lat="46.03841" lon="4.52853">
        <ele>606.2</ele>
        <time>2025-09-17T08:55:40Z</time>
      </trkpt>
      <trkpt lat="46.03843" lon="4.52862">
        <ele>605.6</ele>
        <time>2025-09-17T08:55:41Z</time>
      </trkpt>
      <trkpt lat="46.03845" lon="4.52872">
        <ele>605.6</ele>
        <time>2025-09-17T08:55:42Z</time>
      </trkpt>
      <trkpt lat="46.03845" lon="4.52872">
        <ele>605.2</ele>
        <time>2025-09-17T08:55:43Z</time>
      </trkpt>
      <trkpt lat="46.03847" lon="4.52882">
        <ele>604.6</ele>
        <time>2025-09-17T08:55:44Z</time>
      </trkpt>
      <trkpt lat="46.03851" lon="4.5289">
        <ele>604</ele>
        <time>2025-09-17T08:55:45Z</time>
      </trkpt>
      <trkpt lat="46.03853" lon="4.52897">
        <ele>603</ele>
        <time>2025-09-17T08:55:46Z</time>
      </trkpt>
      <trkpt lat="46.03855" lon="4.52902">
        <ele>600.8</ele>
        <time>2025-09-17T08:55:47Z</time>
      </trkpt>
      <trkpt lat="46.03859" lon="4.52909">
        <ele>600.8</ele>
        <time>2025-09-17T08:55:48Z</time>
      </trkpt>
      <trkpt lat="46.0386" lon="4.52916">
        <ele>600.8</ele>
        <time>2025-09-17T08:55:49Z</time>
      </trkpt>
      <trkpt lat="46.03862" lon="4.52924">
        <ele>600.8</ele>
        <time>2025-09-17T08:55:50Z</time>
      </trkpt>
      <trkpt lat="46.03865" lon="4.52932">
        <ele>600.8</ele>
        <time>2025-09-17T08:55:51Z</time>
      </trkpt>
      <trkpt lat="46.03865" lon="4.52941">
        <ele>600.8</ele>
        <time>2025-09-17T08:55:52Z</time>
      </trkpt>
      <trkpt lat="46.03865" lon="4.52949">
        <ele>600.2</ele>
        <time>2025-09-17T08:55:53Z</time>
      </trkpt>
      <trkpt lat="46.03865" lon="4.52956">
        <ele>600.2</ele>
        <time>2025-09-17T08:55:54Z</time>
      </trkpt>
      <trkpt lat="46.03862" lon="4.52965">
        <ele>600</ele>
        <time>2025-09-17T08:55:55Z</time>
      </trkpt>
      <trkpt lat="46.03861" lon="4.52972">
        <ele>599.6</ele>
        <time>2025-09-17T08:55:56Z</time>
      </trkpt>
      <trkpt lat="46.03858" lon="4.5298">
        <ele>599</ele>
        <time>2025-09-17T08:55:57Z</time>
      </trkpt>
      <trkpt lat="46.03856" lon="4.52987">
        <ele>599</ele>
        <time>2025-09-17T08:55:58Z</time>
      </trkpt>
      <trkpt lat="46.03855" lon="4.52995">
        <ele>598</ele>
        <time>2025-09-17T08:55:59Z</time>
      </trkpt>
      <trkpt lat="46.03852" lon="4.53003">
        <ele>598.2</ele>
        <time>2025-09-17T08:56:00Z</time>
      </trkpt>
      <trkpt lat="46.03851" lon="4.5301">
        <ele>598.2</ele>
        <time>2025-09-17T08:56:01Z</time>
      </trkpt>
      <trkpt lat="46.03847" lon="4.53015">
        <ele>598.2</ele>
        <time>2025-09-17T08:56:02Z</time>
      </trkpt>
      <trkpt lat="46.03844" lon="4.53023">
        <ele>597.6</ele>
        <time>2025-09-17T08:56:03Z</time>
      </trkpt>
      <trkpt lat="46.03842" lon="4.5303">
        <ele>597.4</ele>
        <time>2025-09-17T08:56:04Z</time>
      </trkpt>
      <trkpt lat="46.03841" lon="4.53038">
        <ele>597.4</ele>
        <time>2025-09-17T08:56:05Z</time>
      </trkpt>
      <trkpt lat="46.03838" lon="4.53044">
        <ele>597</ele>
        <time>2025-09-17T08:56:06Z</time>
      </trkpt>
      <trkpt lat="46.03839" lon="4.53051">
        <ele>597</ele>
        <time>2025-09-17T08:56:07Z</time>
      </trkpt>
      <trkpt lat="46.03838" lon="4.53054">
        <ele>596.8</ele>
        <time>2025-09-17T08:56:08Z</time>
      </trkpt>
      <trkpt lat="46.03839" lon="4.53056">
        <ele>596.8</ele>
        <time>2025-09-17T08:56:09Z</time>
      </trkpt>
      <trkpt lat="46.03839" lon="4.53058">
        <ele>596.8</ele>
        <time>2025-09-17T08:56:10Z</time>
      </trkpt>
      <trkpt lat="46.03838" lon="4.5306">
        <ele>596.4</ele>
        <time>2025-09-17T08:56:11Z</time>
      </trkpt>
      <trkpt lat="46.03838" lon="4.53063">
        <ele>596.4</ele>
        <time>2025-09-17T08:56:12Z</time>
      </trkpt>
      <trkpt lat="46.03837" lon="4.53065">
        <ele>595.8</ele>
        <time>2025-09-17T08:56:13Z</time>
      </trkpt>
      <trkpt lat="46.03837" lon="4.53068">
        <ele>595.8</ele>
        <time>2025-09-17T08:56:14Z</time>
      </trkpt>
      <trkpt lat="46.03838" lon="4.53072">
        <ele>595.2</ele>
        <time>2025-09-17T08:56:15Z</time>
      </trkpt>
      <trkpt lat="46.03836" lon="4.53077">
        <ele>595.2</ele>
        <time>2025-09-17T08:56:16Z</time>
      </trkpt>
      <trkpt lat="46.03835" lon="4.53082">
        <ele>594.8</ele>
        <time>2025-09-17T08:56:17Z</time>
      </trkpt>
      <trkpt lat="46.03834" lon="4.5309">
        <ele>594.4</ele>
        <time>2025-09-17T08:56:18Z</time>
      </trkpt>
      <trkpt lat="46.03834" lon="4.53096">
        <ele>594.4</ele>
        <time>2025-09-17T08:56:19Z</time>
      </trkpt>
      <trkpt lat="46.03834" lon="4.53103">
        <ele>594</ele>
        <time>2025-09-17T08:56:20Z</time>
      </trkpt>
      <trkpt lat="46.03835" lon="4.53111">
        <ele>593.6</ele>
        <time>2025-09-17T08:56:21Z</time>
      </trkpt>
      <trkpt lat="46.03835" lon="4.53118">
        <ele>592.2</ele>
        <time>2025-09-17T08:56:22Z</time>
      </trkpt>
      <trkpt lat="46.03835" lon="4.53125">
        <ele>592.2</ele>
        <time>2025-09-17T08:56:23Z</time>
      </trkpt>
      <trkpt lat="46.03836" lon="4.53133">
        <ele>593</ele>
        <time>2025-09-17T08:56:24Z</time>
      </trkpt>
      <trkpt lat="46.03836" lon="4.5314">
        <ele>593</ele>
        <time>2025-09-17T08:56:25Z</time>
      </trkpt>
      <trkpt lat="46.03837" lon="4.53148">
        <ele>592.8</ele>
        <time>2025-09-17T08:56:26Z</time>
      </trkpt>
      <trkpt lat="46.03839" lon="4.53155">
        <ele>592.8</ele>
        <time>2025-09-17T08:56:27Z</time>
      </trkpt>
      <trkpt lat="46.0384" lon="4.53163">
        <ele>592.2</ele>
        <time>2025-09-17T08:56:28Z</time>
      </trkpt>
      <trkpt lat="46.03842" lon="4.5317">
        <ele>591.8</ele>
        <time>2025-09-17T08:56:29Z</time>
      </trkpt>
      <trkpt lat="46.03844" lon="4.53178">
        <ele>591.8</ele>
        <time>2025-09-17T08:56:30Z</time>
      </trkpt>
      <trkpt lat="46.03846" lon="4.53186">
        <ele>591.8</ele>
        <time>2025-09-17T08:56:31Z</time>
      </trkpt>
      <trkpt lat="46.03848" lon="4.53194">
        <ele>590.8</ele>
        <time>2025-09-17T08:56:32Z</time>
      </trkpt>
      <trkpt lat="46.03848" lon="4.53204">
        <ele>589.8</ele>
        <time>2025-09-17T08:56:33Z</time>
      </trkpt>
      <trkpt lat="46.03849" lon="4.53212">
        <ele>589.4</ele>
        <time>2025-09-17T08:56:34Z</time>
      </trkpt>
      <trkpt lat="46.03848" lon="4.5322">
        <ele>589</ele>
        <time>2025-09-17T08:56:35Z</time>
      </trkpt>
      <trkpt lat="46.03847" lon="4.53228">
        <ele>589.2</ele>
        <time>2025-09-17T08:56:36Z</time>
      </trkpt>
      <trkpt lat="46.03847" lon="4.53235">
        <ele>587.4</ele>
        <time>2025-09-17T08:56:37Z</time>
      </trkpt>
      <trkpt lat="46.03847" lon="4.53242">
        <ele>588.4</ele>
        <time>2025-09-17T08:56:38Z</time>
      </trkpt>
      <trkpt lat="46.03846" lon="4.53249">
        <ele>588.8</ele>
        <time>2025-09-17T08:56:39Z</time>
      </trkpt>
      <trkpt lat="46.03845" lon="4.53256">
        <ele>588.4</ele>
        <time>2025-09-17T08:56:40Z</time>
      </trkpt>
      <trkpt lat="46.03845" lon="4.53262">
        <ele>588.4</ele>
        <time>2025-09-17T08:56:41Z</time>
      </trkpt>
      <trkpt lat="46.03845" lon="4.53266">
        <ele>588.4</ele>
        <time>2025-09-17T08:56:42Z</time>
      </trkpt>
      <trkpt lat="46.03844" lon="4.5327">
        <ele>588</ele>
        <time>2025-09-17T08:56:43Z</time>
      </trkpt>
      <trkpt lat="46.03842" lon="4.53272">
        <ele>588</ele>
        <time>2025-09-17T08:56:44Z</time>
      </trkpt>
      <trkpt lat="46.03841" lon="4.53275">
        <ele>587.8</ele>
        <time>2025-09-17T08:56:45Z</time>
      </trkpt>
      <trkpt lat="46.03839" lon="4.53278">
        <ele>587.6</ele>
        <time>2025-09-17T08:56:46Z</time>
      </trkpt>
      <trkpt lat="46.03837" lon="4.5328">
        <ele>587.4</ele>
        <time>2025-09-17T08:56:47Z</time>
      </trkpt>
      <trkpt lat="46.03835" lon="4.53282">
        <ele>587.4</ele>
        <time>2025-09-17T08:56:48Z</time>
      </trkpt>
      <trkpt lat="46.03834" lon="4.53284">
        <ele>587.4</ele>
        <time>2025-09-17T08:56:49Z</time>
      </trkpt>
      <trkpt lat="46.03833" lon="4.53286">
        <ele>587.4</ele>
        <time>2025-09-17T08:56:50Z</time>
      </trkpt>
      <trkpt lat="46.03831" lon="4.53288">
        <ele>587.4</ele>
        <time>2025-09-17T08:56:51Z</time>
      </trkpt>
      <trkpt lat="46.03829" lon="4.53289">
        <ele>587.4</ele>
        <time>2025-09-17T08:56:52Z</time>
      </trkpt>
      <trkpt lat="46.03827" lon="4.5329">
        <ele>587.4</ele>
        <time>2025-09-17T08:56:53Z</time>
      </trkpt>
      <trkpt lat="46.03826" lon="4.53291">
        <ele>587.4</ele>
        <time>2025-09-17T08:56:54Z</time>
      </trkpt>
      <trkpt lat="46.03824" lon="4.53292">
        <ele>587.4</ele>
        <time>2025-09-17T08:56:55Z</time>
      </trkpt>
      <trkpt lat="46.03822" lon="4.53293">
        <ele>587.4</ele>
        <time>2025-09-17T08:56:56Z</time>
      </trkpt>
      <trkpt lat="46.0382" lon="4.53294">
        <ele>587.4</ele>
        <time>2025-09-17T08:56:57Z</time>
      </trkpt>
      <trkpt lat="46.03818" lon="4.53295">
        <ele>587.6</ele>
        <time>2025-09-17T08:56:58Z</time>
      </trkpt>
      <trkpt lat="46.03816" lon="4.53295">
        <ele>587.6</ele>
        <time>2025-09-17T08:56:59Z</time>
      </trkpt>
      <trkpt lat="46.03815" lon="4.53293">
        <ele>587.6</ele>
        <time>2025-09-17T08:57:00Z</time>
      </trkpt>
      <trkpt lat="46.03814" lon="4.53292">
        <ele>587.6</ele>
        <time>2025-09-17T08:57:01Z</time>
      </trkpt>
      <trkpt lat="46.03815" lon="4.53292">
        <ele>587.6</ele>
        <time>2025-09-17T08:57:02Z</time>
      </trkpt>
      <trkpt lat="46.03816" lon="4.5329">
        <ele>587.6</ele>
        <time>2025-09-17T08:57:05Z</time>
      </trkpt>
      <trkpt lat="46.03818" lon="4.5329">
        <ele>587.6</ele>
        <time>2025-09-17T08:57:06Z</time>
      </trkpt>
      <trkpt lat="46.03819" lon="4.5329">
        <ele>587.4</ele>
        <time>2025-09-17T08:57:07Z</time>
      </trkpt>
      <trkpt lat="46.03821" lon="4.53291">
        <ele>586.8</ele>
        <time>2025-09-17T08:57:08Z</time>
      </trkpt>
      <trkpt lat="46.03822" lon="4.53291">
        <ele>586.8</ele>
        <time>2025-09-17T08:57:09Z</time>
      </trkpt>
      <trkpt lat="46.03822" lon="4.53289">
        <ele>586.8</ele>
        <time>2025-09-17T08:57:10Z</time>
      </trkpt>
      <trkpt lat="46.0382" lon="4.53288">
        <ele>586.8</ele>
        <time>2025-09-17T08:57:11Z</time>
      </trkpt>
      <trkpt lat="46.03819" lon="4.53286">
        <ele>586.6</ele>
        <time>2025-09-17T08:57:12Z</time>
      </trkpt>
      <trkpt lat="46.03817" lon="4.53284">
        <ele>586.6</ele>
        <time>2025-09-17T08:57:13Z</time>
      </trkpt>
      <trkpt lat="46.03816" lon="4.53284">
        <ele>586.6</ele>
        <time>2025-09-17T08:57:14Z</time>
      </trkpt>
      <trkpt lat="46.03815" lon="4.53283">
        <ele>586.6</ele>
        <time>2025-09-17T08:57:15Z</time>
      </trkpt>
      <trkpt lat="46.03815" lon="4.53283">
        <ele>586.6</ele>
        <time>2025-09-17T08:57:16Z</time>
      </trkpt>
      <trkpt lat="46.03813" lon="4.53282">
        <ele>586.4</ele>
        <time>2025-09-17T08:57:21Z</time>
      </trkpt>
      <trkpt lat="46.03811" lon="4.53279">
        <ele>586.4</ele>
        <time>2025-09-17T08:57:22Z</time>
      </trkpt>
      <trkpt lat="46.03808" lon="4.53276">
        <ele>586.4</ele>
        <time>2025-09-17T08:57:23Z</time>
      </trkpt>
      <trkpt lat="46.03806" lon="4.53272">
        <ele>586</ele>
        <time>2025-09-17T08:57:24Z</time>
      </trkpt>
      <trkpt lat="46.03804" lon="4.53268">
        <ele>586</ele>
        <time>2025-09-17T08:57:25Z</time>
      </trkpt>
      <trkpt lat="46.03801" lon="4.53264">
        <ele>585.6</ele>
        <time>2025-09-17T08:57:26Z</time>
      </trkpt>
      <trkpt lat="46.03799" lon="4.5326">
        <ele>585.6</ele>
        <time>2025-09-17T08:57:27Z</time>
      </trkpt>
      <trkpt lat="46.03796" lon="4.53255">
        <ele>585.6</ele>
        <time>2025-09-17T08:57:28Z</time>
      </trkpt>
      <trkpt lat="46.03794" lon="4.53251">
        <ele>585.2</ele>
        <time>2025-09-17T08:57:29Z</time>
      </trkpt>
      <trkpt lat="46.0379" lon="4.53246">
        <ele>584.8</ele>
        <time>2025-09-17T08:57:30Z</time>
      </trkpt>
      <trkpt lat="46.03787" lon="4.53241">
        <ele>584.8</ele>
        <time>2025-09-17T08:57:31Z</time>
      </trkpt>
      <trkpt lat="46.03783" lon="4.53237">
        <ele>584.8</ele>
        <time>2025-09-17T08:57:32Z</time>
      </trkpt>
      <trkpt lat="46.03779" lon="4.53232">
        <ele>583.6</ele>
        <time>2025-09-17T08:57:33Z</time>
      </trkpt>
      <trkpt lat="46.03775" lon="4.5323">
        <ele>583.6</ele>
        <time>2025-09-17T08:57:34Z</time>
      </trkpt>
      <trkpt lat="46.03771" lon="4.53226">
        <ele>582.8</ele>
        <time>2025-09-17T08:57:35Z</time>
      </trkpt>
      <trkpt lat="46.03768" lon="4.53223">
        <ele>582</ele>
        <time>2025-09-17T08:57:36Z</time>
      </trkpt>
      <trkpt lat="46.03764" lon="4.5322">
        <ele>582</ele>
        <time>2025-09-17T08:57:37Z</time>
      </trkpt>
      <trkpt lat="46.0376" lon="4.53216">
        <ele>582</ele>
        <time>2025-09-17T08:57:38Z</time>
      </trkpt>
      <trkpt lat="46.03756" lon="4.53212">
        <ele>581.8</ele>
        <time>2025-09-17T08:57:39Z</time>
      </trkpt>
      <trkpt lat="46.03751" lon="4.53209">
        <ele>581.8</ele>
        <time>2025-09-17T08:57:40Z</time>
      </trkpt>
      <trkpt lat="46.03746" lon="4.53206">
        <ele>581.8</ele>
        <time>2025-09-17T08:57:41Z</time>
      </trkpt>
      <trkpt lat="46.03743" lon="4.53201">
        <ele>581.4</ele>
        <time>2025-09-17T08:57:42Z</time>
      </trkpt>
      <trkpt lat="46.03737" lon="4.53199">
        <ele>581.4</ele>
        <time>2025-09-17T08:57:43Z</time>
      </trkpt>
      <trkpt lat="46.03732" lon="4.53195">
        <ele>581.8</ele>
        <time>2025-09-17T08:57:44Z</time>
      </trkpt>
      <trkpt lat="46.03721" lon="4.5319">
        <ele>580.8</ele>
        <time>2025-09-17T08:57:45Z</time>
      </trkpt>
      <trkpt lat="46.03716" lon="4.53187">
        <ele>580.8</ele>
        <time>2025-09-17T08:57:46Z</time>
      </trkpt>
      <trkpt lat="46.03711" lon="4.53186">
        <ele>579.6</ele>
        <time>2025-09-17T08:57:47Z</time>
      </trkpt>
      <trkpt lat="46.03707" lon="4.53183">
        <ele>580</ele>
        <time>2025-09-17T08:57:48Z</time>
      </trkpt>
      <trkpt lat="46.03702" lon="4.5318">
        <ele>579.8</ele>
        <time>2025-09-17T08:57:49Z</time>
      </trkpt>
      <trkpt lat="46.03697" lon="4.53175">
        <ele>579.8</ele>
        <time>2025-09-17T08:57:50Z</time>
      </trkpt>
      <trkpt lat="46.03695" lon="4.53169">
        <ele>579.2</ele>
        <time>2025-09-17T08:57:51Z</time>
      </trkpt>
      <trkpt lat="46.03693" lon="4.53163">
        <ele>579.2</ele>
        <time>2025-09-17T08:57:52Z</time>
      </trkpt>
      <trkpt lat="46.03691" lon="4.53156">
        <ele>578.8</ele>
        <time>2025-09-17T08:57:53Z</time>
      </trkpt>
      <trkpt lat="46.0369" lon="4.5315">
        <ele>579.2</ele>
        <time>2025-09-17T08:57:54Z</time>
      </trkpt>
      <trkpt lat="46.03687" lon="4.53143">
        <ele>579.2</ele>
        <time>2025-09-17T08:57:55Z</time>
      </trkpt>
      <trkpt lat="46.03688" lon="4.53136">
        <ele>579.2</ele>
        <time>2025-09-17T08:57:56Z</time>
      </trkpt>
      <trkpt lat="46.03688" lon="4.53127">
        <ele>578.8</ele>
        <time>2025-09-17T08:57:57Z</time>
      </trkpt>
      <trkpt lat="46.03687" lon="4.5312">
        <ele>578.6</ele>
        <time>2025-09-17T08:57:58Z</time>
      </trkpt>
      <trkpt lat="46.03686" lon="4.53112">
        <ele>578.2</ele>
        <time>2025-09-17T08:57:59Z</time>
      </trkpt>
      <trkpt lat="46.03685" lon="4.53103">
        <ele>577.8</ele>
        <time>2025-09-17T08:58:00Z</time>
      </trkpt>
      <trkpt lat="46.03679" lon="4.53093">
        <ele>577.6</ele>
        <time>2025-09-17T08:58:01Z</time>
      </trkpt>
      <trkpt lat="46.03675" lon="4.53085">
        <ele>577.2</ele>
        <time>2025-09-17T08:58:02Z</time>
      </trkpt>
      <trkpt lat="46.0367" lon="4.53078">
        <ele>576.8</ele>
        <time>2025-09-17T08:58:03Z</time>
      </trkpt>
      <trkpt lat="46.03665" lon="4.5307">
        <ele>576</ele>
        <time>2025-09-17T08:58:04Z</time>
      </trkpt>
      <trkpt lat="46.03661" lon="4.53062">
        <ele>576</ele>
        <time>2025-09-17T08:58:05Z</time>
      </trkpt>
      <trkpt lat="46.03656" lon="4.53055">
        <ele>575.8</ele>
        <time>2025-09-17T08:58:06Z</time>
      </trkpt>
      <trkpt lat="46.03651" lon="4.53049">
        <ele>575.4</ele>
        <time>2025-09-17T08:58:07Z</time>
      </trkpt>
      <trkpt lat="46.03645" lon="4.53042">
        <ele>575.2</ele>
        <time>2025-09-17T08:58:08Z</time>
      </trkpt>
      <trkpt lat="46.03638" lon="4.53035">
        <ele>575.4</ele>
        <time>2025-09-17T08:58:09Z</time>
      </trkpt>
      <trkpt lat="46.03632" lon="4.53029">
        <ele>575.2</ele>
        <time>2025-09-17T08:58:10Z</time>
      </trkpt>
      <trkpt lat="46.03626" lon="4.53024">
        <ele>575.2</ele>
        <time>2025-09-17T08:58:11Z</time>
      </trkpt>
      <trkpt lat="46.03619" lon="4.53019">
        <ele>574.8</ele>
        <time>2025-09-17T08:58:12Z</time>
      </trkpt>
      <trkpt lat="46.03613" lon="4.53014">
        <ele>574.4</ele>
        <time>2025-09-17T08:58:13Z</time>
      </trkpt>
      <trkpt lat="46.03607" lon="4.5301">
        <ele>573.8</ele>
        <time>2025-09-17T08:58:14Z</time>
      </trkpt>
      <trkpt lat="46.036" lon="4.53006">
        <ele>573.4</ele>
        <time>2025-09-17T08:58:15Z</time>
      </trkpt>
      <trkpt lat="46.03593" lon="4.53003">
        <ele>573.4</ele>
        <time>2025-09-17T08:58:16Z</time>
      </trkpt>
      <trkpt lat="46.03588" lon="4.53001">
        <ele>573.4</ele>
        <time>2025-09-17T08:58:17Z</time>
      </trkpt>
      <trkpt lat="46.0358" lon="4.53001">
        <ele>573</ele>
        <time>2025-09-17T08:58:18Z</time>
      </trkpt>
      <trkpt lat="46.03574" lon="4.53001">
        <ele>572.4</ele>
        <time>2025-09-17T08:58:19Z</time>
      </trkpt>
      <trkpt lat="46.0357" lon="4.53001">
        <ele>572.4</ele>
        <time>2025-09-17T08:58:20Z</time>
      </trkpt>
      <trkpt lat="46.03561" lon="4.53001">
        <ele>572.2</ele>
        <time>2025-09-17T08:58:21Z</time>
      </trkpt>
      <trkpt lat="46.03554" lon="4.53002">
        <ele>572.2</ele>
        <time>2025-09-17T08:58:22Z</time>
      </trkpt>
      <trkpt lat="46.03548" lon="4.53001">
        <ele>571.8</ele>
        <time>2025-09-17T08:58:23Z</time>
      </trkpt>
      <trkpt lat="46.0354" lon="4.53001">
        <ele>571.4</ele>
        <time>2025-09-17T08:58:24Z</time>
      </trkpt>
      <trkpt lat="46.03533" lon="4.53002">
        <ele>571.4</ele>
        <time>2025-09-17T08:58:25Z</time>
      </trkpt>
      <trkpt lat="46.03526" lon="4.52999">
        <ele>570</ele>
        <time>2025-09-17T08:58:26Z</time>
      </trkpt>
      <trkpt lat="46.03519" lon="4.52996">
        <ele>570</ele>
        <time>2025-09-17T08:58:27Z</time>
      </trkpt>
      <trkpt lat="46.03513" lon="4.5299">
        <ele>569.4</ele>
        <time>2025-09-17T08:58:28Z</time>
      </trkpt>
      <trkpt lat="46.03506" lon="4.52985">
        <ele>569.2</ele>
        <time>2025-09-17T08:58:29Z</time>
      </trkpt>
      <trkpt lat="46.03501" lon="4.52975">
        <ele>568.6</ele>
        <time>2025-09-17T08:58:30Z</time>
      </trkpt>
      <trkpt lat="46.03498" lon="4.52967">
        <ele>568.2</ele>
        <time>2025-09-17T08:58:31Z</time>
      </trkpt>
      <trkpt lat="46.03505" lon="4.52956">
        <ele>568.2</ele>
        <time>2025-09-17T08:58:32Z</time>
      </trkpt>
      <trkpt lat="46.03506" lon="4.52948">
        <ele>567.6</ele>
        <time>2025-09-17T08:58:33Z</time>
      </trkpt>
      <trkpt lat="46.03504" lon="4.52944">
        <ele>567.2</ele>
        <time>2025-09-17T08:58:34Z</time>
      </trkpt>
      <trkpt lat="46.03501" lon="4.52937">
        <ele>567.2</ele>
        <time>2025-09-17T08:58:35Z</time>
      </trkpt>
      <trkpt lat="46.03501" lon="4.52927">
        <ele>567</ele>
        <time>2025-09-17T08:58:36Z</time>
      </trkpt>
      <trkpt lat="46.03502" lon="4.52921">
        <ele>567.6</ele>
        <time>2025-09-17T08:58:37Z</time>
      </trkpt>
      <trkpt lat="46.035" lon="4.52912">
        <ele>567.2</ele>
        <time>2025-09-17T08:58:38Z</time>
      </trkpt>
      <trkpt lat="46.03497" lon="4.52905">
        <ele>567.2</ele>
        <time>2025-09-17T08:58:39Z</time>
      </trkpt>
      <trkpt lat="46.03494" lon="4.52898">
        <ele>566.6</ele>
        <time>2025-09-17T08:58:40Z</time>
      </trkpt>
      <trkpt lat="46.03489" lon="4.52891">
        <ele>566.6</ele>
        <time>2025-09-17T08:58:41Z</time>
      </trkpt>
      <trkpt lat="46.03488" lon="4.52882">
        <ele>566.4</ele>
        <time>2025-09-17T08:58:42Z</time>
      </trkpt>
      <trkpt lat="46.03487" lon="4.52872">
        <ele>565.8</ele>
        <time>2025-09-17T08:58:43Z</time>
      </trkpt>
      <trkpt lat="46.03485" lon="4.52864">
        <ele>565.4</ele>
        <time>2025-09-17T08:58:44Z</time>
      </trkpt>
      <trkpt lat="46.03481" lon="4.52859">
        <ele>565.4</ele>
        <time>2025-09-17T08:58:45Z</time>
      </trkpt>
      <trkpt lat="46.0348" lon="4.52854">
        <ele>565</ele>
        <time>2025-09-17T08:58:46Z</time>
      </trkpt>
      <trkpt lat="46.03481" lon="4.52851">
        <ele>565</ele>
        <time>2025-09-17T08:58:47Z</time>
      </trkpt>
      <trkpt lat="46.03481" lon="4.5285">
        <ele>565</ele>
        <time>2025-09-17T08:58:48Z</time>
      </trkpt>
      <trkpt lat="46.03481" lon="4.5285">
        <ele>564.6</ele>
        <time>2025-09-17T08:58:49Z</time>
      </trkpt>
      <trkpt lat="46.03481" lon="4.52851">
        <ele>564.6</ele>
        <time>2025-09-17T08:58:50Z</time>
      </trkpt>
      <trkpt lat="46.03481" lon="4.5285">
        <ele>564.6</ele>
        <time>2025-09-17T08:58:51Z</time>
      </trkpt>
      <trkpt lat="46.03479" lon="4.52848">
        <ele>564.8</ele>
        <time>2025-09-17T08:59:40Z</time>
      </trkpt>
      <trkpt lat="46.03478" lon="4.52846">
        <ele>564.8</ele>
        <time>2025-09-17T08:59:41Z</time>
      </trkpt>
      <trkpt lat="46.03477" lon="4.52845">
        <ele>564.8</ele>
        <time>2025-09-17T08:59:42Z</time>
      </trkpt>
      <trkpt lat="46.03477" lon="4.52843">
        <ele>564.4</ele>
        <time>2025-09-17T08:59:43Z</time>
      </trkpt>
      <trkpt lat="46.03476" lon="4.52838">
        <ele>564.4</ele>
        <time>2025-09-17T08:59:44Z</time>
      </trkpt>
      <trkpt lat="46.03475" lon="4.52834">
        <ele>564.4</ele>
        <time>2025-09-17T08:59:45Z</time>
      </trkpt>
      <trkpt lat="46.03474" lon="4.52831">
        <ele>564</ele>
        <time>2025-09-17T08:59:46Z</time>
      </trkpt>
      <trkpt lat="46.03473" lon="4.5283">
        <ele>564</ele>
        <time>2025-09-17T08:59:47Z</time>
      </trkpt>
      <trkpt lat="46.03472" lon="4.52828">
        <ele>564</ele>
        <time>2025-09-17T08:59:48Z</time>
      </trkpt>
      <trkpt lat="46.03472" lon="4.52826">
        <ele>563.6</ele>
        <time>2025-09-17T08:59:49Z</time>
      </trkpt>
      <trkpt lat="46.03471" lon="4.52824">
        <ele>563.6</ele>
        <time>2025-09-17T08:59:50Z</time>
      </trkpt>
      <trkpt lat="46.0347" lon="4.52822">
        <ele>563.6</ele>
        <time>2025-09-17T08:59:51Z</time>
      </trkpt>
      <trkpt lat="46.03469" lon="4.5282">
        <ele>563.4</ele>
        <time>2025-09-17T08:59:52Z</time>
      </trkpt>
      <trkpt lat="46.03469" lon="4.52816">
        <ele>563</ele>
        <time>2025-09-17T08:59:53Z</time>
      </trkpt>
      <trkpt lat="46.03469" lon="4.52814">
        <ele>563</ele>
        <time>2025-09-17T08:59:54Z</time>
      </trkpt>
      <trkpt lat="46.03469" lon="4.52812">
        <ele>563.4</ele>
        <time>2025-09-17T08:59:55Z</time>
      </trkpt>
      <trkpt lat="46.03469" lon="4.5281">
        <ele>562</ele>
        <time>2025-09-17T08:59:56Z</time>
      </trkpt>
      <trkpt lat="46.03468" lon="4.52808">
        <ele>562</ele>
        <time>2025-09-17T08:59:57Z</time>
      </trkpt>
      <trkpt lat="46.03468" lon="4.52806">
        <ele>561.6</ele>
        <time>2025-09-17T08:59:58Z</time>
      </trkpt>
      <trkpt lat="46.03466" lon="4.52802">
        <ele>562.2</ele>
        <time>2025-09-17T08:59:59Z</time>
      </trkpt>
      <trkpt lat="46.03465" lon="4.52798">
        <ele>562.4</ele>
        <time>2025-09-17T09:00:00Z</time>
      </trkpt>
      <trkpt lat="46.03464" lon="4.52794">
        <ele>561.4</ele>
        <time>2025-09-17T09:00:01Z</time>
      </trkpt>
      <trkpt lat="46.03462" lon="4.5279">
        <ele>561.4</ele>
        <time>2025-09-17T09:00:02Z</time>
      </trkpt>
      <trkpt lat="46.03457" lon="4.5278">
        <ele>560.4</ele>
        <time>2025-09-17T09:00:03Z</time>
      </trkpt>
      <trkpt lat="46.03456" lon="4.52773">
        <ele>560.6</ele>
        <time>2025-09-17T09:00:04Z</time>
      </trkpt>
      <trkpt lat="46.03457" lon="4.52765">
        <ele>560.4</ele>
        <time>2025-09-17T09:00:05Z</time>
      </trkpt>
      <trkpt lat="46.03456" lon="4.52757">
        <ele>560</ele>
        <time>2025-09-17T09:00:06Z</time>
      </trkpt>
      <trkpt lat="46.03453" lon="4.52752">
        <ele>559.8</ele>
        <time>2025-09-17T09:00:07Z</time>
      </trkpt>
      <trkpt lat="46.03451" lon="4.52747">
        <ele>560.2</ele>
        <time>2025-09-17T09:00:08Z</time>
      </trkpt>
      <trkpt lat="46.03446" lon="4.52732">
        <ele>559.4</ele>
        <time>2025-09-17T09:00:09Z</time>
      </trkpt>
      <trkpt lat="46.03444" lon="4.52723">
        <ele>559.4</ele>
        <time>2025-09-17T09:00:10Z</time>
      </trkpt>
      <trkpt lat="46.03441" lon="4.52715">
        <ele>559.4</ele>
        <time>2025-09-17T09:00:11Z</time>
      </trkpt>
      <trkpt lat="46.0344" lon="4.52708">
        <ele>558.4</ele>
        <time>2025-09-17T09:00:12Z</time>
      </trkpt>
      <trkpt lat="46.0344" lon="4.527">
        <ele>558.4</ele>
        <time>2025-09-17T09:00:13Z</time>
      </trkpt>
      <trkpt lat="46.03438" lon="4.52692">
        <ele>558</ele>
        <time>2025-09-17T09:00:14Z</time>
      </trkpt>
      <trkpt lat="46.03435" lon="4.52685">
        <ele>558</ele>
        <time>2025-09-17T09:00:15Z</time>
      </trkpt>
      <trkpt lat="46.03434" lon="4.52679">
        <ele>558</ele>
        <time>2025-09-17T09:00:16Z</time>
      </trkpt>
      <trkpt lat="46.03432" lon="4.52674">
        <ele>558</ele>
        <time>2025-09-17T09:00:17Z</time>
      </trkpt>
      <trkpt lat="46.03429" lon="4.52668">
        <ele>557.4</ele>
        <time>2025-09-17T09:00:18Z</time>
      </trkpt>
      <trkpt lat="46.03428" lon="4.52662">
        <ele>557</ele>
        <time>2025-09-17T09:00:19Z</time>
      </trkpt>
      <trkpt lat="46.03425" lon="4.52657">
        <ele>556.8</ele>
        <time>2025-09-17T09:00:20Z</time>
      </trkpt>
      <trkpt lat="46.03422" lon="4.52653">
        <ele>556.6</ele>
        <time>2025-09-17T09:00:21Z</time>
      </trkpt>
      <trkpt lat="46.03419" lon="4.5265">
        <ele>556.8</ele>
        <time>2025-09-17T09:00:22Z</time>
      </trkpt>
      <trkpt lat="46.03417" lon="4.52647">
        <ele>556.8</ele>
        <time>2025-09-17T09:00:23Z</time>
      </trkpt>
      <trkpt lat="46.03416" lon="4.52643">
        <ele>556.8</ele>
        <time>2025-09-17T09:00:24Z</time>
      </trkpt>
      <trkpt lat="46.03414" lon="4.5264">
        <ele>556.8</ele>
        <time>2025-09-17T09:00:25Z</time>
      </trkpt>
      <trkpt lat="46.03412" lon="4.52637">
        <ele>556.8</ele>
        <time>2025-09-17T09:00:26Z</time>
      </trkpt>
      <trkpt lat="46.0341" lon="4.52636">
        <ele>557</ele>
        <time>2025-09-17T09:00:27Z</time>
      </trkpt>
      <trkpt lat="46.03409" lon="4.52634">
        <ele>557.6</ele>
        <time>2025-09-17T09:00:28Z</time>
      </trkpt>
      <trkpt lat="46.03408" lon="4.52631">
        <ele>557.8</ele>
        <time>2025-09-17T09:00:29Z</time>
      </trkpt>
      <trkpt lat="46.03407" lon="4.52629">
        <ele>558</ele>
        <time>2025-09-17T09:00:30Z</time>
      </trkpt>
      <trkpt lat="46.03406" lon="4.52626">
        <ele>558.4</ele>
        <time>2025-09-17T09:00:31Z</time>
      </trkpt>
      <trkpt lat="46.03405" lon="4.52624">
        <ele>558.6</ele>
        <time>2025-09-17T09:00:32Z</time>
      </trkpt>
      <trkpt lat="46.03404" lon="4.52621">
        <ele>558.6</ele>
        <time>2025-09-17T09:00:33Z</time>
      </trkpt>
      <trkpt lat="46.03403" lon="4.52619">
        <ele>559.2</ele>
        <time>2025-09-17T09:00:34Z</time>
      </trkpt>
      <trkpt lat="46.03401" lon="4.52617">
        <ele>559.4</ele>
        <time>2025-09-17T09:00:35Z</time>
      </trkpt>
      <trkpt lat="46.03399" lon="4.52615">
        <ele>560</ele>
        <time>2025-09-17T09:00:36Z</time>
      </trkpt>
      <trkpt lat="46.03398" lon="4.52613">
        <ele>560.2</ele>
        <time>2025-09-17T09:00:37Z</time>
      </trkpt>
      <trkpt lat="46.03396" lon="4.52611">
        <ele>560.2</ele>
        <time>2025-09-17T09:00:38Z</time>
      </trkpt>
      <trkpt lat="46.03396" lon="4.52609">
        <ele>560.6</ele>
        <time>2025-09-17T09:00:39Z</time>
      </trkpt>
      <trkpt lat="46.03395" lon="4.52606">
        <ele>560.8</ele>
        <time>2025-09-17T09:00:40Z</time>
      </trkpt>
      <trkpt lat="46.03394" lon="4.52605">
        <ele>561</ele>
        <time>2025-09-17T09:00:41Z</time>
      </trkpt>
      <trkpt lat="46.03393" lon="4.52603">
        <ele>561</ele>
        <time>2025-09-17T09:00:42Z</time>
      </trkpt>
      <trkpt lat="46.03393" lon="4.52601">
        <ele>561.6</ele>
        <time>2025-09-17T09:00:43Z</time>
      </trkpt>
      <trkpt lat="46.03392" lon="4.52599">
        <ele>561.6</ele>
        <time>2025-09-17T09:00:44Z</time>
      </trkpt>
      <trkpt lat="46.03392" lon="4.52598">
        <ele>562</ele>
        <time>2025-09-17T09:00:45Z</time>
      </trkpt>
      <trkpt lat="46.03391" lon="4.52596">
        <ele>562.2</ele>
        <time>2025-09-17T09:00:46Z</time>
      </trkpt>
      <trkpt lat="46.0339" lon="4.52594">
        <ele>562.2</ele>
        <time>2025-09-17T09:00:47Z</time>
      </trkpt>
      <trkpt lat="46.03388" lon="4.52593">
        <ele>562.6</ele>
        <time>2025-09-17T09:00:48Z</time>
      </trkpt>
      <trkpt lat="46.03387" lon="4.52592">
        <ele>563</ele>
        <time>2025-09-17T09:00:49Z</time>
      </trkpt>
      <trkpt lat="46.03386" lon="4.5259">
        <ele>563.2</ele>
        <time>2025-09-17T09:00:50Z</time>
      </trkpt>
      <trkpt lat="46.03385" lon="4.52589">
        <ele>563.2</ele>
        <time>2025-09-17T09:00:51Z</time>
      </trkpt>
      <trkpt lat="46.03384" lon="4.52588">
        <ele>563.8</ele>
        <time>2025-09-17T09:00:52Z</time>
      </trkpt>
      <trkpt lat="46.03383" lon="4.52587">
        <ele>563.8</ele>
        <time>2025-09-17T09:00:53Z</time>
      </trkpt>
      <trkpt lat="46.03381" lon="4.52587">
        <ele>563.8</ele>
        <time>2025-09-17T09:00:54Z</time>
      </trkpt>
      <trkpt lat="46.0338" lon="4.52586">
        <ele>564.4</ele>
        <time>2025-09-17T09:00:55Z</time>
      </trkpt>
      <trkpt lat="46.03379" lon="4.52585">
        <ele>564.6</ele>
        <time>2025-09-17T09:00:56Z</time>
      </trkpt>
      <trkpt lat="46.03377" lon="4.52585">
        <ele>564.6</ele>
        <time>2025-09-17T09:00:57Z</time>
      </trkpt>
      <trkpt lat="46.03376" lon="4.52585">
        <ele>565</ele>
        <time>2025-09-17T09:00:58Z</time>
      </trkpt>
      <trkpt lat="46.03374" lon="4.52585">
        <ele>565</ele>
        <time>2025-09-17T09:00:59Z</time>
      </trkpt>
      <trkpt lat="46.03373" lon="4.52586">
        <ele>565.4</ele>
        <time>2025-09-17T09:01:00Z</time>
      </trkpt>
      <trkpt lat="46.03372" lon="4.52587">
        <ele>565.8</ele>
        <time>2025-09-17T09:01:01Z</time>
      </trkpt>
      <trkpt lat="46.03371" lon="4.52587">
        <ele>565.8</ele>
        <time>2025-09-17T09:01:02Z</time>
      </trkpt>
      <trkpt lat="46.0337" lon="4.52586">
        <ele>566.4</ele>
        <time>2025-09-17T09:01:03Z</time>
      </trkpt>
      <trkpt lat="46.03368" lon="4.52586">
        <ele>566.4</ele>
        <time>2025-09-17T09:01:04Z</time>
      </trkpt>
      <trkpt lat="46.03367" lon="4.52586">
        <ele>566.6</ele>
        <time>2025-09-17T09:01:05Z</time>
      </trkpt>
      <trkpt lat="46.03367" lon="4.52586">
        <ele>566.8</ele>
        <time>2025-09-17T09:01:06Z</time>
      </trkpt>
      <trkpt lat="46.03366" lon="4.52587">
        <ele>566.8</ele>
        <time>2025-09-17T09:01:07Z</time>
      </trkpt>
      <trkpt lat="46.03365" lon="4.52587">
        <ele>566.6</ele>
        <time>2025-09-17T09:01:08Z</time>
      </trkpt>
      <trkpt lat="46.03363" lon="4.52587">
        <ele>566.6</ele>
        <time>2025-09-17T09:01:09Z</time>
      </trkpt>
      <trkpt lat="46.03361" lon="4.52588">
        <ele>566.6</ele>
        <time>2025-09-17T09:01:10Z</time>
      </trkpt>
      <trkpt lat="46.0336" lon="4.52588">
        <ele>566.6</ele>
        <time>2025-09-17T09:01:11Z</time>
      </trkpt>
      <trkpt lat="46.03359" lon="4.52588">
        <ele>566.6</ele>
        <time>2025-09-17T09:01:12Z</time>
      </trkpt>
      <trkpt lat="46.03357" lon="4.52589">
        <ele>566.6</ele>
        <time>2025-09-17T09:01:13Z</time>
      </trkpt>
      <trkpt lat="46.03356" lon="4.52589">
        <ele>566.2</ele>
        <time>2025-09-17T09:01:14Z</time>
      </trkpt>
      <trkpt lat="46.03355" lon="4.52589">
        <ele>566.2</ele>
        <time>2025-09-17T09:01:15Z</time>
      </trkpt>
      <trkpt lat="46.03354" lon="4.52589">
        <ele>566</ele>
        <time>2025-09-17T09:01:16Z</time>
      </trkpt>
      <trkpt lat="46.03353" lon="4.52591">
        <ele>566</ele>
        <time>2025-09-17T09:01:17Z</time>
      </trkpt>
      <trkpt lat="46.03352" lon="4.52591">
        <ele>566</ele>
        <time>2025-09-17T09:01:18Z</time>
      </trkpt>
      <trkpt lat="46.0335" lon="4.52592">
        <ele>565.6</ele>
        <time>2025-09-17T09:01:19Z</time>
      </trkpt>
      <trkpt lat="46.03349" lon="4.52592">
        <ele>565.6</ele>
        <time>2025-09-17T09:01:20Z</time>
      </trkpt>
      <trkpt lat="46.03349" lon="4.52591">
        <ele>565.4</ele>
        <time>2025-09-17T09:01:21Z</time>
      </trkpt>
      <trkpt lat="46.03349" lon="4.52591">
        <ele>565.4</ele>
        <time>2025-09-17T09:01:22Z</time>
      </trkpt>
      <trkpt lat="46.03349" lon="4.5259">
        <ele>564.8</ele>
        <time>2025-09-17T09:01:39Z</time>
      </trkpt>
      <trkpt lat="46.03348" lon="4.5259">
        <ele>564.8</ele>
        <time>2025-09-17T09:01:40Z</time>
      </trkpt>
      <trkpt lat="46.03348" lon="4.52589">
        <ele>564.8</ele>
        <time>2025-09-17T09:01:41Z</time>
      </trkpt>
      <trkpt lat="46.03348" lon="4.52589">
        <ele>564.8</ele>
        <time>2025-09-17T09:01:42Z</time>
      </trkpt>
      <trkpt lat="46.03345" lon="4.52594">
        <ele>565.2</ele>
        <time>2025-09-17T09:04:07Z</time>
      </trkpt>
      <trkpt lat="46.03343" lon="4.52595">
        <ele>565.2</ele>
        <time>2025-09-17T09:04:08Z</time>
      </trkpt>
      <trkpt lat="46.03339" lon="4.52597">
        <ele>564.8</ele>
        <time>2025-09-17T09:04:09Z</time>
      </trkpt>
      <trkpt lat="46.03336" lon="4.52598">
        <ele>564.4</ele>
        <time>2025-09-17T09:04:10Z</time>
      </trkpt>
      <trkpt lat="46.03333" lon="4.52599">
        <ele>564.2</ele>
        <time>2025-09-17T09:04:11Z</time>
      </trkpt>
      <trkpt lat="46.0333" lon="4.526">
        <ele>563.8</ele>
        <time>2025-09-17T09:04:12Z</time>
      </trkpt>
      <trkpt lat="46.03327" lon="4.52602">
        <ele>563.2</ele>
        <time>2025-09-17T09:04:13Z</time>
      </trkpt>
      <trkpt lat="46.03323" lon="4.52603">
        <ele>562.8</ele>
        <time>2025-09-17T09:04:14Z</time>
      </trkpt>
      <trkpt lat="46.0332" lon="4.52605">
        <ele>562.2</ele>
        <time>2025-09-17T09:04:15Z</time>
      </trkpt>
      <trkpt lat="46.03316" lon="4.52607">
        <ele>561.4</ele>
        <time>2025-09-17T09:04:16Z</time>
      </trkpt>
      <trkpt lat="46.03312" lon="4.5261">
        <ele>560.8</ele>
        <time>2025-09-17T09:04:17Z</time>
      </trkpt>
      <trkpt lat="46.03307" lon="4.52613">
        <ele>560.2</ele>
        <time>2025-09-17T09:04:18Z</time>
      </trkpt>
      <trkpt lat="46.03302" lon="4.52616">
        <ele>559.2</ele>
        <time>2025-09-17T09:04:19Z</time>
      </trkpt>
      <trkpt lat="46.03298" lon="4.52618">
        <ele>558.6</ele>
        <time>2025-09-17T09:04:20Z</time>
      </trkpt>
      <trkpt lat="46.03293" lon="4.5262">
        <ele>557.6</ele>
        <time>2025-09-17T09:04:21Z</time>
      </trkpt>
      <trkpt lat="46.03289" lon="4.52622">
        <ele>557</ele>
        <time>2025-09-17T09:04:22Z</time>
      </trkpt>
      <trkpt lat="46.03285" lon="4.52626">
        <ele>556.4</ele>
        <time>2025-09-17T09:04:23Z</time>
      </trkpt>
      <trkpt lat="46.03281" lon="4.52628">
        <ele>555.6</ele>
        <time>2025-09-17T09:04:24Z</time>
      </trkpt>
      <trkpt lat="46.03279" lon="4.52632">
        <ele>555</ele>
        <time>2025-09-17T09:04:25Z</time>
      </trkpt>
      <trkpt lat="46.03276" lon="4.52635">
        <ele>554.4</ele>
        <time>2025-09-17T09:04:26Z</time>
      </trkpt>
      <trkpt lat="46.03273" lon="4.52637">
        <ele>553.8</ele>
        <time>2025-09-17T09:04:27Z</time>
      </trkpt>
      <trkpt lat="46.0327" lon="4.5264">
        <ele>553.2</ele>
        <time>2025-09-17T09:04:28Z</time>
      </trkpt>
      <trkpt lat="46.03268" lon="4.52642">
        <ele>552.6</ele>
        <time>2025-09-17T09:04:29Z</time>
      </trkpt>
      <trkpt lat="46.03266" lon="4.52646">
        <ele>552.4</ele>
        <time>2025-09-17T09:04:30Z</time>
      </trkpt>
      <trkpt lat="46.03264" lon="4.52647">
        <ele>551.8</ele>
        <time>2025-09-17T09:04:31Z</time>
      </trkpt>
      <trkpt lat="46.03262" lon="4.5265">
        <ele>551.2</ele>
        <time>2025-09-17T09:04:32Z</time>
      </trkpt>
      <trkpt lat="46.03259" lon="4.52653">
        <ele>550.8</ele>
        <time>2025-09-17T09:04:33Z</time>
      </trkpt>
      <trkpt lat="46.03256" lon="4.52657">
        <ele>550.4</ele>
        <time>2025-09-17T09:04:34Z</time>
      </trkpt>
      <trkpt lat="46.03253" lon="4.5266">
        <ele>549.8</ele>
        <time>2025-09-17T09:04:35Z</time>
      </trkpt>
      <trkpt lat="46.0325" lon="4.52664">
        <ele>549.4</ele>
        <time>2025-09-17T09:04:36Z</time>
      </trkpt>
      <trkpt lat="46.03246" lon="4.52667">
        <ele>548.8</ele>
        <time>2025-09-17T09:04:37Z</time>
      </trkpt>
      <trkpt lat="46.03243" lon="4.52669">
        <ele>548.4</ele>
        <time>2025-09-17T09:04:38Z</time>
      </trkpt>
      <trkpt lat="46.0324" lon="4.52672">
        <ele>547.8</ele>
        <time>2025-09-17T09:04:39Z</time>
      </trkpt>
      <trkpt lat="46.03237" lon="4.52674">
        <ele>547.2</ele>
        <time>2025-09-17T09:04:40Z</time>
      </trkpt>
      <trkpt lat="46.03233" lon="4.52677">
        <ele>546.4</ele>
        <time>2025-09-17T09:04:41Z</time>
      </trkpt>
      <trkpt lat="46.0323" lon="4.52679">
        <ele>546</ele>
        <time>2025-09-17T09:04:42Z</time>
      </trkpt>
      <trkpt lat="46.03227" lon="4.5268">
        <ele>545.4</ele>
        <time>2025-09-17T09:04:43Z</time>
      </trkpt>
      <trkpt lat="46.03225" lon="4.52682">
        <ele>544.8</ele>
        <time>2025-09-17T09:04:44Z</time>
      </trkpt>
      <trkpt lat="46.03223" lon="4.52683">
        <ele>544.2</ele>
        <time>2025-09-17T09:04:45Z</time>
      </trkpt>
      <trkpt lat="46.03221" lon="4.52683">
        <ele>543.8</ele>
        <time>2025-09-17T09:04:46Z</time>
      </trkpt>
      <trkpt lat="46.0322" lon="4.52684">
        <ele>543.6</ele>
        <time>2025-09-17T09:04:47Z</time>
      </trkpt>
      <trkpt lat="46.03218" lon="4.52685">
        <ele>543.2</ele>
        <time>2025-09-17T09:04:48Z</time>
      </trkpt>
      <trkpt lat="46.03216" lon="4.52685">
        <ele>543.2</ele>
        <time>2025-09-17T09:04:49Z</time>
      </trkpt>
      <trkpt lat="46.03214" lon="4.52684">
        <ele>542.8</ele>
        <time>2025-09-17T09:04:50Z</time>
      </trkpt>
      <trkpt lat="46.03214" lon="4.52684">
        <ele>542.6</ele>
        <time>2025-09-17T09:04:51Z</time>
      </trkpt>
      <trkpt lat="46.03212" lon="4.52684">
        <ele>542.4</ele>
        <time>2025-09-17T09:04:52Z</time>
      </trkpt>
      <trkpt lat="46.03211" lon="4.52683">
        <ele>542</ele>
        <time>2025-09-17T09:04:53Z</time>
      </trkpt>
      <trkpt lat="46.0321" lon="4.52683">
        <ele>541.8</ele>
        <time>2025-09-17T09:04:54Z</time>
      </trkpt>
      <trkpt lat="46.03208" lon="4.52683">
        <ele>541.6</ele>
        <time>2025-09-17T09:04:55Z</time>
      </trkpt>
      <trkpt lat="46.03207" lon="4.52683">
        <ele>541.2</ele>
        <time>2025-09-17T09:04:56Z</time>
      </trkpt>
      <trkpt lat="46.03205" lon="4.52682">
        <ele>541</ele>
        <time>2025-09-17T09:04:57Z</time>
      </trkpt>
      <trkpt lat="46.03204" lon="4.52681">
        <ele>541</ele>
        <time>2025-09-17T09:04:58Z</time>
      </trkpt>
      <trkpt lat="46.03202" lon="4.5268">
        <ele>540.8</ele>
        <time>2025-09-17T09:04:59Z</time>
      </trkpt>
      <trkpt lat="46.032" lon="4.52679">
        <ele>540.2</ele>
        <time>2025-09-17T09:05:00Z</time>
      </trkpt>
      <trkpt lat="46.03197" lon="4.52677">
        <ele>539.8</ele>
        <time>2025-09-17T09:05:01Z</time>
      </trkpt>
      <trkpt lat="46.03195" lon="4.52675">
        <ele>539.2</ele>
        <time>2025-09-17T09:05:02Z</time>
      </trkpt>
      <trkpt lat="46.03193" lon="4.52674">
        <ele>538.8</ele>
        <time>2025-09-17T09:05:03Z</time>
      </trkpt>
      <trkpt lat="46.03192" lon="4.52673">
        <ele>538.2</ele>
        <time>2025-09-17T09:05:04Z</time>
      </trkpt>
      <trkpt lat="46.0319" lon="4.52672">
        <ele>537.8</ele>
        <time>2025-09-17T09:05:05Z</time>
      </trkpt>
      <trkpt lat="46.03189" lon="4.52672">
        <ele>537.4</ele>
        <time>2025-09-17T09:05:06Z</time>
      </trkpt>
      <trkpt lat="46.03187" lon="4.52671">
        <ele>537</ele>
        <time>2025-09-17T09:05:07Z</time>
      </trkpt>
      <trkpt lat="46.03185" lon="4.5267">
        <ele>536.6</ele>
        <time>2025-09-17T09:05:08Z</time>
      </trkpt>
      <trkpt lat="46.03182" lon="4.52668">
        <ele>536.6</ele>
        <time>2025-09-17T09:05:09Z</time>
      </trkpt>
      <trkpt lat="46.03179" lon="4.52665">
        <ele>535.8</ele>
        <time>2025-09-17T09:05:10Z</time>
      </trkpt>
      <trkpt lat="46.03176" lon="4.52661">
        <ele>535.4</ele>
        <time>2025-09-17T09:05:11Z</time>
      </trkpt>
      <trkpt lat="46.03173" lon="4.52658">
        <ele>535.2</ele>
        <time>2025-09-17T09:05:12Z</time>
      </trkpt>
      <trkpt lat="46.03169" lon="4.52656">
        <ele>534.6</ele>
        <time>2025-09-17T09:05:13Z</time>
      </trkpt>
      <trkpt lat="46.03167" lon="4.52656">
        <ele>534.6</ele>
        <time>2025-09-17T09:05:14Z</time>
      </trkpt>
      <trkpt lat="46.03169" lon="4.52656">
        <ele>534.4</ele>
        <time>2025-09-17T09:05:15Z</time>
      </trkpt>
      <trkpt lat="46.03169" lon="4.52655">
        <ele>534.4</ele>
        <time>2025-09-17T09:05:16Z</time>
      </trkpt>
      <trkpt lat="46.03168" lon="4.52652">
        <ele>534</ele>
        <time>2025-09-17T09:05:23Z</time>
      </trkpt>
      <trkpt lat="46.03167" lon="4.52651">
        <ele>533.8</ele>
        <time>2025-09-17T09:05:24Z</time>
      </trkpt>
      <trkpt lat="46.03166" lon="4.52649">
        <ele>533.8</ele>
        <time>2025-09-17T09:05:25Z</time>
      </trkpt>
      <trkpt lat="46.03164" lon="4.52647">
        <ele>533.4</ele>
        <time>2025-09-17T09:05:26Z</time>
      </trkpt>
      <trkpt lat="46.03163" lon="4.52646">
        <ele>533.4</ele>
        <time>2025-09-17T09:05:27Z</time>
      </trkpt>
      <trkpt lat="46.03163" lon="4.52646">
        <ele>533.4</ele>
        <time>2025-09-17T09:05:28Z</time>
      </trkpt>
      <trkpt lat="46.03163" lon="4.52646">
        <ele>533.2</ele>
        <time>2025-09-17T09:05:29Z</time>
      </trkpt>
      <trkpt lat="46.03163" lon="4.52645">
        <ele>533</ele>
        <time>2025-09-17T09:05:32Z</time>
      </trkpt>
      <trkpt lat="46.03162" lon="4.52644">
        <ele>533</ele>
        <time>2025-09-17T09:05:33Z</time>
      </trkpt>
      <trkpt lat="46.03161" lon="4.52643">
        <ele>533</ele>
        <time>2025-09-17T09:05:34Z</time>
      </trkpt>
      <trkpt lat="46.0316" lon="4.52641">
        <ele>533</ele>
        <time>2025-09-17T09:05:35Z</time>
      </trkpt>
      <trkpt lat="46.03161" lon="4.5264">
        <ele>533</ele>
        <time>2025-09-17T09:05:36Z</time>
      </trkpt>
      <trkpt lat="46.03161" lon="4.5264">
        <ele>533</ele>
        <time>2025-09-17T09:05:37Z</time>
      </trkpt>
      <trkpt lat="46.0316" lon="4.52638">
        <ele>533</ele>
        <time>2025-09-17T09:05:44Z</time>
      </trkpt>
      <trkpt lat="46.03159" lon="4.52637">
        <ele>533</ele>
        <time>2025-09-17T09:05:45Z</time>
      </trkpt>
      <trkpt lat="46.03157" lon="4.52638">
        <ele>533</ele>
        <time>2025-09-17T09:05:46Z</time>
      </trkpt>
      <trkpt lat="46.03156" lon="4.52639">
        <ele>532.8</ele>
        <time>2025-09-17T09:05:47Z</time>
      </trkpt>
      <trkpt lat="46.03154" lon="4.52639">
        <ele>532.8</ele>
        <time>2025-09-17T09:05:48Z</time>
      </trkpt>
      <trkpt lat="46.03151" lon="4.52639">
        <ele>532.8</ele>
        <time>2025-09-17T09:05:49Z</time>
      </trkpt>
      <trkpt lat="46.03149" lon="4.52638">
        <ele>532.8</ele>
        <time>2025-09-17T09:05:50Z</time>
      </trkpt>
      <trkpt lat="46.03147" lon="4.52638">
        <ele>532.8</ele>
        <time>2025-09-17T09:05:51Z</time>
      </trkpt>
      <trkpt lat="46.03144" lon="4.52638">
        <ele>532.8</ele>
        <time>2025-09-17T09:05:52Z</time>
      </trkpt>
      <trkpt lat="46.03141" lon="4.52639">
        <ele>532.8</ele>
        <time>2025-09-17T09:05:53Z</time>
      </trkpt>
      <trkpt lat="46.03139" lon="4.5264">
        <ele>532.8</ele>
        <time>2025-09-17T09:05:54Z</time>
      </trkpt>
      <trkpt lat="46.03136" lon="4.52641">
        <ele>532.8</ele>
        <time>2025-09-17T09:05:55Z</time>
      </trkpt>
      <trkpt lat="46.03133" lon="4.52642">
        <ele>532.6</ele>
        <time>2025-09-17T09:05:56Z</time>
      </trkpt>
      <trkpt lat="46.0313" lon="4.52644">
        <ele>532.6</ele>
        <time>2025-09-17T09:05:57Z</time>
      </trkpt>
      <trkpt lat="46.03128" lon="4.52645">
        <ele>532.2</ele>
        <time>2025-09-17T09:05:58Z</time>
      </trkpt>
      <trkpt lat="46.03126" lon="4.52646">
        <ele>532.2</ele>
        <time>2025-09-17T09:05:59Z</time>
      </trkpt>
      <trkpt lat="46.03124" lon="4.52648">
        <ele>532.4</ele>
        <time>2025-09-17T09:06:00Z</time>
      </trkpt>
      <trkpt lat="46.03122" lon="4.52651">
        <ele>532.4</ele>
        <time>2025-09-17T09:06:01Z</time>
      </trkpt>
      <trkpt lat="46.03121" lon="4.52653">
        <ele>532.4</ele>
        <time>2025-09-17T09:06:02Z</time>
      </trkpt>
      <trkpt lat="46.03121" lon="4.52655">
        <ele>532.4</ele>
        <time>2025-09-17T09:06:03Z</time>
      </trkpt>
      <trkpt lat="46.03121" lon="4.52658">
        <ele>532.8</ele>
        <time>2025-09-17T09:06:04Z</time>
      </trkpt>
      <trkpt lat="46.03121" lon="4.5266">
        <ele>532.8</ele>
        <time>2025-09-17T09:06:05Z</time>
      </trkpt>
      <trkpt lat="46.03122" lon="4.52662">
        <ele>533</ele>
        <time>2025-09-17T09:06:06Z</time>
      </trkpt>
      <trkpt lat="46.03122" lon="4.52664">
        <ele>533</ele>
        <time>2025-09-17T09:06:07Z</time>
      </trkpt>
      <trkpt lat="46.03123" lon="4.52667">
        <ele>533.6</ele>
        <time>2025-09-17T09:06:08Z</time>
      </trkpt>
      <trkpt lat="46.03123" lon="4.52669">
        <ele>533.6</ele>
        <time>2025-09-17T09:06:09Z</time>
      </trkpt>
      <trkpt lat="46.03124" lon="4.52671">
        <ele>534</ele>
        <time>2025-09-17T09:06:10Z</time>
      </trkpt>
      <trkpt lat="46.03124" lon="4.52674">
        <ele>534.2</ele>
        <time>2025-09-17T09:06:11Z</time>
      </trkpt>
      <trkpt lat="46.03124" lon="4.52676">
        <ele>534.2</ele>
        <time>2025-09-17T09:06:12Z</time>
      </trkpt>
      <trkpt lat="46.03124" lon="4.52678">
        <ele>534.6</ele>
        <time>2025-09-17T09:06:13Z</time>
      </trkpt>
      <trkpt lat="46.03123" lon="4.5268">
        <ele>534.6</ele>
        <time>2025-09-17T09:06:14Z</time>
      </trkpt>
      <trkpt lat="46.03122" lon="4.52682">
        <ele>535</ele>
        <time>2025-09-17T09:06:15Z</time>
      </trkpt>
      <trkpt lat="46.03122" lon="4.52684">
        <ele>535.2</ele>
        <time>2025-09-17T09:06:16Z</time>
      </trkpt>
      <trkpt lat="46.03121" lon="4.52687">
        <ele>535.2</ele>
        <time>2025-09-17T09:06:17Z</time>
      </trkpt>
      <trkpt lat="46.03121" lon="4.52689">
        <ele>535.6</ele>
        <time>2025-09-17T09:06:18Z</time>
      </trkpt>
      <trkpt lat="46.03121" lon="4.52691">
        <ele>535.6</ele>
        <time>2025-09-17T09:06:19Z</time>
      </trkpt>
      <trkpt lat="46.0312" lon="4.52692">
        <ele>536.2</ele>
        <time>2025-09-17T09:06:20Z</time>
      </trkpt>
      <trkpt lat="46.0312" lon="4.52694">
        <ele>536.4</ele>
        <time>2025-09-17T09:06:21Z</time>
      </trkpt>
      <trkpt lat="46.0312" lon="4.52696">
        <ele>536.8</ele>
        <time>2025-09-17T09:06:22Z</time>
      </trkpt>
      <trkpt lat="46.0312" lon="4.52698">
        <ele>536.8</ele>
        <time>2025-09-17T09:06:23Z</time>
      </trkpt>
      <trkpt lat="46.0312" lon="4.527">
        <ele>537.2</ele>
        <time>2025-09-17T09:06:24Z</time>
      </trkpt>
      <trkpt lat="46.0312" lon="4.52702">
        <ele>537.4</ele>
        <time>2025-09-17T09:06:25Z</time>
      </trkpt>
      <trkpt lat="46.0312" lon="4.52704">
        <ele>537.8</ele>
        <time>2025-09-17T09:06:26Z</time>
      </trkpt>
      <trkpt lat="46.0312" lon="4.52706">
        <ele>538</ele>
        <time>2025-09-17T09:06:27Z</time>
      </trkpt>
      <trkpt lat="46.0312" lon="4.52709">
        <ele>538</ele>
        <time>2025-09-17T09:06:28Z</time>
      </trkpt>
      <trkpt lat="46.0312" lon="4.52711">
        <ele>538.6</ele>
        <time>2025-09-17T09:06:29Z</time>
      </trkpt>
      <trkpt lat="46.0312" lon="4.52713">
        <ele>538.6</ele>
        <time>2025-09-17T09:06:30Z</time>
      </trkpt>
      <trkpt lat="46.0312" lon="4.52714">
        <ele>539</ele>
        <time>2025-09-17T09:06:31Z</time>
      </trkpt>
      <trkpt lat="46.03119" lon="4.52716">
        <ele>539.2</ele>
        <time>2025-09-17T09:06:32Z</time>
      </trkpt>
      <trkpt lat="46.03119" lon="4.52718">
        <ele>539.4</ele>
        <time>2025-09-17T09:06:33Z</time>
      </trkpt>
      <trkpt lat="46.0312" lon="4.52719">
        <ele>539.8</ele>
        <time>2025-09-17T09:06:34Z</time>
      </trkpt>
      <trkpt lat="46.0312" lon="4.52721">
        <ele>540.2</ele>
        <time>2025-09-17T09:06:35Z</time>
      </trkpt>
      <trkpt lat="46.0312" lon="4.52723">
        <ele>540.2</ele>
        <time>2025-09-17T09:06:36Z</time>
      </trkpt>
      <trkpt lat="46.0312" lon="4.52724">
        <ele>540.4</ele>
        <time>2025-09-17T09:06:37Z</time>
      </trkpt>
      <trkpt lat="46.0312" lon="4.52726">
        <ele>540.4</ele>
        <time>2025-09-17T09:06:38Z</time>
      </trkpt>
      <trkpt lat="46.03119" lon="4.52728">
        <ele>540.8</ele>
        <time>2025-09-17T09:06:39Z</time>
      </trkpt>
      <trkpt lat="46.03119" lon="4.5273">
        <ele>540.8</ele>
        <time>2025-09-17T09:06:40Z</time>
      </trkpt>
      <trkpt lat="46.03119" lon="4.52731">
        <ele>541.2</ele>
        <time>2025-09-17T09:06:41Z</time>
      </trkpt>
      <trkpt lat="46.03119" lon="4.52733">
        <ele>541.4</ele>
        <time>2025-09-17T09:06:42Z</time>
      </trkpt>
      <trkpt lat="46.0312" lon="4.52735">
        <ele>541.6</ele>
        <time>2025-09-17T09:06:43Z</time>
      </trkpt>
      <trkpt lat="46.0312" lon="4.52736">
        <ele>541.8</ele>
        <time>2025-09-17T09:06:44Z</time>
      </trkpt>
      <trkpt lat="46.03121" lon="4.52738">
        <ele>542</ele>
        <time>2025-09-17T09:06:45Z</time>
      </trkpt>
      <trkpt lat="46.03121" lon="4.52739">
        <ele>542.2</ele>
        <time>2025-09-17T09:06:46Z</time>
      </trkpt>
      <trkpt lat="46.03121" lon="4.5274">
        <ele>542.2</ele>
        <time>2025-09-17T09:06:47Z</time>
      </trkpt>
      <trkpt lat="46.03122" lon="4.52742">
        <ele>542.2</ele>
        <time>2025-09-17T09:06:48Z</time>
      </trkpt>
      <trkpt lat="46.03122" lon="4.52744">
        <ele>542.6</ele>
        <time>2025-09-17T09:06:49Z</time>
      </trkpt>
      <trkpt lat="46.03122" lon="4.52746">
        <ele>542.8</ele>
        <time>2025-09-17T09:06:50Z</time>
      </trkpt>
      <trkpt lat="46.03122" lon="4.52747">
        <ele>543.2</ele>
        <time>2025-09-17T09:06:51Z</time>
      </trkpt>
      <trkpt lat="46.03122" lon="4.52748">
        <ele>543.4</ele>
        <time>2025-09-17T09:06:52Z</time>
      </trkpt>
      <trkpt lat="46.03122" lon="4.52749">
        <ele>543.4</ele>
        <time>2025-09-17T09:06:53Z</time>
      </trkpt>
      <trkpt lat="46.03122" lon="4.5275">
        <ele>543.6</ele>
        <time>2025-09-17T09:06:54Z</time>
      </trkpt>
      <trkpt lat="46.03122" lon="4.52749">
        <ele>543.6</ele>
        <time>2025-09-17T09:06:55Z</time>
      </trkpt>
      <trkpt lat="46.03122" lon="4.5275">
        <ele>544</ele>
        <time>2025-09-17T09:06:56Z</time>
      </trkpt>
      <trkpt lat="46.03123" lon="4.52752">
        <ele>544</ele>
        <time>2025-09-17T09:06:57Z</time>
      </trkpt>
      <trkpt lat="46.03123" lon="4.52754">
        <ele>544.2</ele>
        <time>2025-09-17T09:06:58Z</time>
      </trkpt>
      <trkpt lat="46.03123" lon="4.52756">
        <ele>544.6</ele>
        <time>2025-09-17T09:06:59Z</time>
      </trkpt>
      <trkpt lat="46.03124" lon="4.52757">
        <ele>544.8</ele>
        <time>2025-09-17T09:07:00Z</time>
      </trkpt>
      <trkpt lat="46.03124" lon="4.52759">
        <ele>545</ele>
        <time>2025-09-17T09:07:01Z</time>
      </trkpt>
      <trkpt lat="46.03124" lon="4.52761">
        <ele>545.4</ele>
        <time>2025-09-17T09:07:02Z</time>
      </trkpt>
      <trkpt lat="46.03125" lon="4.52762">
        <ele>545.8</ele>
        <time>2025-09-17T09:07:03Z</time>
      </trkpt>
      <trkpt lat="46.03126" lon="4.52764">
        <ele>546</ele>
        <time>2025-09-17T09:07:04Z</time>
      </trkpt>
      <trkpt lat="46.03127" lon="4.52765">
        <ele>546.2</ele>
        <time>2025-09-17T09:07:05Z</time>
      </trkpt>
      <trkpt lat="46.03127" lon="4.52765">
        <ele>546.2</ele>
        <time>2025-09-17T09:07:06Z</time>
      </trkpt>
      <trkpt lat="46.03127" lon="4.52765">
        <ele>546.6</ele>
        <time>2025-09-17T09:07:07Z</time>
      </trkpt>
      <trkpt lat="46.03132" lon="4.52767">
        <ele>547</ele>
        <time>2025-09-17T09:07:09Z</time>
      </trkpt>
      <trkpt lat="46.03133" lon="4.52767">
        <ele>547</ele>
        <time>2025-09-17T09:07:10Z</time>
      </trkpt>
      <trkpt lat="46.03135" lon="4.52766">
        <ele>547.2</ele>
        <time>2025-09-17T09:07:11Z</time>
      </trkpt>
      <trkpt lat="46.03136" lon="4.52767">
        <ele>547.6</ele>
        <time>2025-09-17T09:07:12Z</time>
      </trkpt>
      <trkpt lat="46.03137" lon="4.52767">
        <ele>547.8</ele>
        <time>2025-09-17T09:07:13Z</time>
      </trkpt>
      <trkpt lat="46.03137" lon="4.52768">
        <ele>548.2</ele>
        <time>2025-09-17T09:07:14Z</time>
      </trkpt>
      <trkpt lat="46.03138" lon="4.52769">
        <ele>548.2</ele>
        <time>2025-09-17T09:07:15Z</time>
      </trkpt>
      <trkpt lat="46.03139" lon="4.5277">
        <ele>548.4</ele>
        <time>2025-09-17T09:07:16Z</time>
      </trkpt>
      <trkpt lat="46.0314" lon="4.52771">
        <ele>548.8</ele>
        <time>2025-09-17T09:07:17Z</time>
      </trkpt>
      <trkpt lat="46.03141" lon="4.52772">
        <ele>548.8</ele>
        <time>2025-09-17T09:07:18Z</time>
      </trkpt>
      <trkpt lat="46.03141" lon="4.52774">
        <ele>549</ele>
        <time>2025-09-17T09:07:19Z</time>
      </trkpt>
      <trkpt lat="46.03141" lon="4.52776">
        <ele>549</ele>
        <time>2025-09-17T09:07:20Z</time>
      </trkpt>
      <trkpt lat="46.03141" lon="4.52778">
        <ele>549.6</ele>
        <time>2025-09-17T09:07:21Z</time>
      </trkpt>
      <trkpt lat="46.03141" lon="4.5278">
        <ele>549.6</ele>
        <time>2025-09-17T09:07:22Z</time>
      </trkpt>
      <trkpt lat="46.03141" lon="4.52781">
        <ele>549.8</ele>
        <time>2025-09-17T09:07:23Z</time>
      </trkpt>
      <trkpt lat="46.0314" lon="4.52783">
        <ele>549.8</ele>
        <time>2025-09-17T09:07:24Z</time>
      </trkpt>
      <trkpt lat="46.0314" lon="4.52785">
        <ele>550.2</ele>
        <time>2025-09-17T09:07:25Z</time>
      </trkpt>
      <trkpt lat="46.03139" lon="4.52787">
        <ele>550.4</ele>
        <time>2025-09-17T09:07:26Z</time>
      </trkpt>
      <trkpt lat="46.03138" lon="4.5279">
        <ele>550.6</ele>
        <time>2025-09-17T09:07:27Z</time>
      </trkpt>
      <trkpt lat="46.03138" lon="4.52792">
        <ele>551</ele>
        <time>2025-09-17T09:07:28Z</time>
      </trkpt>
      <trkpt lat="46.03137" lon="4.52794">
        <ele>551</ele>
        <time>2025-09-17T09:07:29Z</time>
      </trkpt>
      <trkpt lat="46.03137" lon="4.52795">
        <ele>551.4</ele>
        <time>2025-09-17T09:07:30Z</time>
      </trkpt>
      <trkpt lat="46.03136" lon="4.52797">
        <ele>551.4</ele>
        <time>2025-09-17T09:07:31Z</time>
      </trkpt>
      <trkpt lat="46.03136" lon="4.52799">
        <ele>551.6</ele>
        <time>2025-09-17T09:07:32Z</time>
      </trkpt>
      <trkpt lat="46.03136" lon="4.52801">
        <ele>552</ele>
        <time>2025-09-17T09:07:33Z</time>
      </trkpt>
      <trkpt lat="46.03135" lon="4.52802">
        <ele>552</ele>
        <time>2025-09-17T09:07:34Z</time>
      </trkpt>
      <trkpt lat="46.03135" lon="4.52805">
        <ele>552.4</ele>
        <time>2025-09-17T09:07:35Z</time>
      </trkpt>
      <trkpt lat="46.03136" lon="4.52806">
        <ele>552.4</ele>
        <time>2025-09-17T09:07:36Z</time>
      </trkpt>
      <trkpt lat="46.03136" lon="4.52808">
        <ele>552.6</ele>
        <time>2025-09-17T09:07:37Z</time>
      </trkpt>
      <trkpt lat="46.03136" lon="4.5281">
        <ele>552.8</ele>
        <time>2025-09-17T09:07:38Z</time>
      </trkpt>
      <trkpt lat="46.03136" lon="4.52812">
        <ele>552.8</ele>
        <time>2025-09-17T09:07:39Z</time>
      </trkpt>
      <trkpt lat="46.03135" lon="4.52814">
        <ele>553.2</ele>
        <time>2025-09-17T09:07:40Z</time>
      </trkpt>
      <trkpt lat="46.03135" lon="4.52816">
        <ele>553.2</ele>
        <time>2025-09-17T09:07:41Z</time>
      </trkpt>
      <trkpt lat="46.03135" lon="4.52818">
        <ele>553.4</ele>
        <time>2025-09-17T09:07:42Z</time>
      </trkpt>
      <trkpt lat="46.03135" lon="4.5282">
        <ele>553.4</ele>
        <time>2025-09-17T09:07:43Z</time>
      </trkpt>
      <trkpt lat="46.03135" lon="4.52822">
        <ele>554</ele>
        <time>2025-09-17T09:07:44Z</time>
      </trkpt>
      <trkpt lat="46.03135" lon="4.52824">
        <ele>554</ele>
        <time>2025-09-17T09:07:45Z</time>
      </trkpt>
      <trkpt lat="46.03135" lon="4.52826">
        <ele>554.2</ele>
        <time>2025-09-17T09:07:46Z</time>
      </trkpt>
      <trkpt lat="46.03135" lon="4.52828">
        <ele>554.2</ele>
        <time>2025-09-17T09:07:47Z</time>
      </trkpt>
      <trkpt lat="46.03135" lon="4.5283">
        <ele>554.4</ele>
        <time>2025-09-17T09:07:48Z</time>
      </trkpt>
      <trkpt lat="46.03134" lon="4.52832">
        <ele>554.4</ele>
        <time>2025-09-17T09:07:49Z</time>
      </trkpt>
      <trkpt lat="46.03134" lon="4.52834">
        <ele>554.4</ele>
        <time>2025-09-17T09:07:50Z</time>
      </trkpt>
      <trkpt lat="46.03134" lon="4.52837">
        <ele>554.6</ele>
        <time>2025-09-17T09:07:51Z</time>
      </trkpt>
      <trkpt lat="46.03133" lon="4.52839">
        <ele>554.6</ele>
        <time>2025-09-17T09:07:52Z</time>
      </trkpt>
      <trkpt lat="46.03133" lon="4.52841">
        <ele>554.8</ele>
        <time>2025-09-17T09:07:53Z</time>
      </trkpt>
      <trkpt lat="46.03133" lon="4.52843">
        <ele>555.2</ele>
        <time>2025-09-17T09:07:54Z</time>
      </trkpt>
      <trkpt lat="46.03132" lon="4.52846">
        <ele>555.2</ele>
        <time>2025-09-17T09:07:55Z</time>
      </trkpt>
      <trkpt lat="46.03131" lon="4.52848">
        <ele>555.4</ele>
        <time>2025-09-17T09:07:56Z</time>
      </trkpt>
      <trkpt lat="46.03131" lon="4.52851">
        <ele>555.4</ele>
        <time>2025-09-17T09:07:57Z</time>
      </trkpt>
      <trkpt lat="46.0313" lon="4.52853">
        <ele>555.4</ele>
        <time>2025-09-17T09:07:58Z</time>
      </trkpt>
      <trkpt lat="46.0313" lon="4.52855">
        <ele>555.4</ele>
        <time>2025-09-17T09:07:59Z</time>
      </trkpt>
      <trkpt lat="46.03129" lon="4.52858">
        <ele>555.6</ele>
        <time>2025-09-17T09:08:00Z</time>
      </trkpt>
      <trkpt lat="46.03129" lon="4.52861">
        <ele>555.6</ele>
        <time>2025-09-17T09:08:01Z</time>
      </trkpt>
      <trkpt lat="46.03129" lon="4.52863">
        <ele>555.6</ele>
        <time>2025-09-17T09:08:02Z</time>
      </trkpt>
      <trkpt lat="46.03129" lon="4.52865">
        <ele>555.6</ele>
        <time>2025-09-17T09:08:03Z</time>
      </trkpt>
      <trkpt lat="46.03128" lon="4.52868">
        <ele>556</ele>
        <time>2025-09-17T09:08:04Z</time>
      </trkpt>
      <trkpt lat="46.03128" lon="4.52871">
        <ele>556</ele>
        <time>2025-09-17T09:08:05Z</time>
      </trkpt>
      <trkpt lat="46.03127" lon="4.52873">
        <ele>556</ele>
        <time>2025-09-17T09:08:06Z</time>
      </trkpt>
      <trkpt lat="46.03127" lon="4.52876">
        <ele>556.2</ele>
        <time>2025-09-17T09:08:07Z</time>
      </trkpt>
      <trkpt lat="46.03126" lon="4.52879">
        <ele>556.2</ele>
        <time>2025-09-17T09:08:08Z</time>
      </trkpt>
      <trkpt lat="46.03126" lon="4.52882">
        <ele>556.4</ele>
        <time>2025-09-17T09:08:09Z</time>
      </trkpt>
      <trkpt lat="46.03125" lon="4.52885">
        <ele>556.4</ele>
        <time>2025-09-17T09:08:10Z</time>
      </trkpt>
      <trkpt lat="46.03124" lon="4.52888">
        <ele>556.4</ele>
        <time>2025-09-17T09:08:11Z</time>
      </trkpt>
      <trkpt lat="46.03124" lon="4.5289">
        <ele>556.4</ele>
        <time>2025-09-17T09:08:12Z</time>
      </trkpt>
      <trkpt lat="46.03124" lon="4.52894">
        <ele>556.4</ele>
        <time>2025-09-17T09:08:13Z</time>
      </trkpt>
      <trkpt lat="46.03123" lon="4.52897">
        <ele>557</ele>
        <time>2025-09-17T09:08:14Z</time>
      </trkpt>
      <trkpt lat="46.03123" lon="4.529">
        <ele>557</ele>
        <time>2025-09-17T09:08:15Z</time>
      </trkpt>
      <trkpt lat="46.03122" lon="4.52903">
        <ele>557</ele>
        <time>2025-09-17T09:08:16Z</time>
      </trkpt>
      <trkpt lat="46.03121" lon="4.52906">
        <ele>557.2</ele>
        <time>2025-09-17T09:08:17Z</time>
      </trkpt>
      <trkpt lat="46.03121" lon="4.52909">
        <ele>557.2</ele>
        <time>2025-09-17T09:08:18Z</time>
      </trkpt>
      <trkpt lat="46.03121" lon="4.52911">
        <ele>557.4</ele>
        <time>2025-09-17T09:08:19Z</time>
      </trkpt>
      <trkpt lat="46.03121" lon="4.52914">
        <ele>557.4</ele>
        <time>2025-09-17T09:08:20Z</time>
      </trkpt>
      <trkpt lat="46.0312" lon="4.52917">
        <ele>557.4</ele>
        <time>2025-09-17T09:08:21Z</time>
      </trkpt>
      <trkpt lat="46.0312" lon="4.5292">
        <ele>557.4</ele>
        <time>2025-09-17T09:08:22Z</time>
      </trkpt>
      <trkpt lat="46.0312" lon="4.52923">
        <ele>557.8</ele>
        <time>2025-09-17T09:08:23Z</time>
      </trkpt>
      <trkpt lat="46.0312" lon="4.52926">
        <ele>557.8</ele>
        <time>2025-09-17T09:08:24Z</time>
      </trkpt>
      <trkpt lat="46.0312" lon="4.52929">
        <ele>558</ele>
        <time>2025-09-17T09:08:25Z</time>
      </trkpt>
      <trkpt lat="46.0312" lon="4.52932">
        <ele>558</ele>
        <time>2025-09-17T09:08:26Z</time>
      </trkpt>
      <trkpt lat="46.0312" lon="4.52935">
        <ele>558</ele>
        <time>2025-09-17T09:08:27Z</time>
      </trkpt>
      <trkpt lat="46.0312" lon="4.52937">
        <ele>558.4</ele>
        <time>2025-09-17T09:08:28Z</time>
      </trkpt>
      <trkpt lat="46.0312" lon="4.5294">
        <ele>558.6</ele>
        <time>2025-09-17T09:08:29Z</time>
      </trkpt>
      <trkpt lat="46.0312" lon="4.52943">
        <ele>558.8</ele>
        <time>2025-09-17T09:08:30Z</time>
      </trkpt>
      <trkpt lat="46.0312" lon="4.52946">
        <ele>558.8</ele>
        <time>2025-09-17T09:08:31Z</time>
      </trkpt>
      <trkpt lat="46.0312" lon="4.52949">
        <ele>558.8</ele>
        <time>2025-09-17T09:08:32Z</time>
      </trkpt>
      <trkpt lat="46.0312" lon="4.52951">
        <ele>559.2</ele>
        <time>2025-09-17T09:08:33Z</time>
      </trkpt>
      <trkpt lat="46.0312" lon="4.52954">
        <ele>559.4</ele>
        <time>2025-09-17T09:08:34Z</time>
      </trkpt>
      <trkpt lat="46.0312" lon="4.52956">
        <ele>559.4</ele>
        <time>2025-09-17T09:08:35Z</time>
      </trkpt>
      <trkpt lat="46.03121" lon="4.52959">
        <ele>559.4</ele>
        <time>2025-09-17T09:08:36Z</time>
      </trkpt>
      <trkpt lat="46.03121" lon="4.52961">
        <ele>559.8</ele>
        <time>2025-09-17T09:08:37Z</time>
      </trkpt>
      <trkpt lat="46.03121" lon="4.52964">
        <ele>559.8</ele>
        <time>2025-09-17T09:08:38Z</time>
      </trkpt>
      <trkpt lat="46.03121" lon="4.52967">
        <ele>560</ele>
        <time>2025-09-17T09:08:39Z</time>
      </trkpt>
      <trkpt lat="46.03122" lon="4.5297">
        <ele>560</ele>
        <time>2025-09-17T09:08:40Z</time>
      </trkpt>
      <trkpt lat="46.03122" lon="4.52973">
        <ele>560</ele>
        <time>2025-09-17T09:08:41Z</time>
      </trkpt>
      <trkpt lat="46.03122" lon="4.52976">
        <ele>560</ele>
        <time>2025-09-17T09:08:42Z</time>
      </trkpt>
      <trkpt lat="46.03123" lon="4.52978">
        <ele>560.2</ele>
        <time>2025-09-17T09:08:43Z</time>
      </trkpt>
      <trkpt lat="46.03124" lon="4.52981">
        <ele>560.2</ele>
        <time>2025-09-17T09:08:44Z</time>
      </trkpt>
      <trkpt lat="46.03125" lon="4.52984">
        <ele>560.2</ele>
        <time>2025-09-17T09:08:45Z</time>
      </trkpt>
      <trkpt lat="46.03126" lon="4.52986">
        <ele>560.2</ele>
        <time>2025-09-17T09:08:46Z</time>
      </trkpt>
      <trkpt lat="46.03127" lon="4.52987">
        <ele>560.2</ele>
        <time>2025-09-17T09:08:47Z</time>
      </trkpt>
      <trkpt lat="46.03128" lon="4.52988">
        <ele>560.4</ele>
        <time>2025-09-17T09:08:48Z</time>
      </trkpt>
      <trkpt lat="46.03128" lon="4.52988">
        <ele>560.4</ele>
        <time>2025-09-17T09:08:49Z</time>
      </trkpt>
      <trkpt lat="46.03128" lon="4.52988">
        <ele>560.4</ele>
        <time>2025-09-17T09:08:50Z</time>
      </trkpt>
      <trkpt lat="46.03128" lon="4.52993">
        <ele>560.4</ele>
        <time>2025-09-17T09:08:56Z</time>
      </trkpt>
      <trkpt lat="46.03129" lon="4.52997">
        <ele>560.2</ele>
        <time>2025-09-17T09:08:57Z</time>
      </trkpt>
      <trkpt lat="46.0313" lon="4.53">
        <ele>560.2</ele>
        <time>2025-09-17T09:08:58Z</time>
      </trkpt>
      <trkpt lat="46.03131" lon="4.53004">
        <ele>560.2</ele>
        <time>2025-09-17T09:08:59Z</time>
      </trkpt>
      <trkpt lat="46.03134" lon="4.53011">
        <ele>559.8</ele>
        <time>2025-09-17T09:09:00Z</time>
      </trkpt>
      <trkpt lat="46.03137" lon="4.53017">
        <ele>559.8</ele>
        <time>2025-09-17T09:09:01Z</time>
      </trkpt>
      <trkpt lat="46.03139" lon="4.53023">
        <ele>559.4</ele>
        <time>2025-09-17T09:09:02Z</time>
      </trkpt>
      <trkpt lat="46.03141" lon="4.53029">
        <ele>559.4</ele>
        <time>2025-09-17T09:09:03Z</time>
      </trkpt>
      <trkpt lat="46.03143" lon="4.53037">
        <ele>559</ele>
        <time>2025-09-17T09:09:04Z</time>
      </trkpt>
      <trkpt lat="46.03143" lon="4.53045">
        <ele>559</ele>
        <time>2025-09-17T09:09:05Z</time>
      </trkpt>
      <trkpt lat="46.03143" lon="4.53053">
        <ele>558.6</ele>
        <time>2025-09-17T09:09:06Z</time>
      </trkpt>
      <trkpt lat="46.03143" lon="4.5306">
        <ele>558.2</ele>
        <time>2025-09-17T09:09:07Z</time>
      </trkpt>
      <trkpt lat="46.03142" lon="4.53068">
        <ele>558.2</ele>
        <time>2025-09-17T09:09:08Z</time>
      </trkpt>
      <trkpt lat="46.03142" lon="4.53075">
        <ele>558.6</ele>
        <time>2025-09-17T09:09:09Z</time>
      </trkpt>
      <trkpt lat="46.03141" lon="4.53084">
        <ele>558.6</ele>
        <time>2025-09-17T09:09:10Z</time>
      </trkpt>
      <trkpt lat="46.0314" lon="4.5309">
        <ele>558.6</ele>
        <time>2025-09-17T09:09:11Z</time>
      </trkpt>
      <trkpt lat="46.03138" lon="4.53097">
        <ele>558.8</ele>
        <time>2025-09-17T09:09:12Z</time>
      </trkpt>
      <trkpt lat="46.03137" lon="4.53104">
        <ele>558.8</ele>
        <time>2025-09-17T09:09:13Z</time>
      </trkpt>
      <trkpt lat="46.03136" lon="4.5311">
        <ele>558.8</ele>
        <time>2025-09-17T09:09:14Z</time>
      </trkpt>
      <trkpt lat="46.03134" lon="4.53116">
        <ele>559.2</ele>
        <time>2025-09-17T09:09:15Z</time>
      </trkpt>
      <trkpt lat="46.03132" lon="4.53121">
        <ele>559.2</ele>
        <time>2025-09-17T09:09:16Z</time>
      </trkpt>
      <trkpt lat="46.0313" lon="4.53125">
        <ele>559.2</ele>
        <time>2025-09-17T09:09:17Z</time>
      </trkpt>
      <trkpt lat="46.03129" lon="4.53132">
        <ele>559.4</ele>
        <time>2025-09-17T09:09:18Z</time>
      </trkpt>
      <trkpt lat="46.03127" lon="4.53138">
        <ele>559.4</ele>
        <time>2025-09-17T09:09:19Z</time>
      </trkpt>
      <trkpt lat="46.03126" lon="4.53144">
        <ele>559.4</ele>
        <time>2025-09-17T09:09:20Z</time>
      </trkpt>
      <trkpt lat="46.03123" lon="4.53149">
        <ele>559.4</ele>
        <time>2025-09-17T09:09:21Z</time>
      </trkpt>
      <trkpt lat="46.03121" lon="4.53155">
        <ele>559.8</ele>
        <time>2025-09-17T09:09:22Z</time>
      </trkpt>
      <trkpt lat="46.03119" lon="4.5316">
        <ele>559.8</ele>
        <time>2025-09-17T09:09:23Z</time>
      </trkpt>
      <trkpt lat="46.03118" lon="4.53164">
        <ele>560.2</ele>
        <time>2025-09-17T09:09:24Z</time>
      </trkpt>
      <trkpt lat="46.03117" lon="4.53169">
        <ele>560.4</ele>
        <time>2025-09-17T09:09:25Z</time>
      </trkpt>
      <trkpt lat="46.03115" lon="4.53174">
        <ele>560.4</ele>
        <time>2025-09-17T09:09:26Z</time>
      </trkpt>
      <trkpt lat="46.03112" lon="4.53178">
        <ele>560.4</ele>
        <time>2025-09-17T09:09:27Z</time>
      </trkpt>
      <trkpt lat="46.03108" lon="4.53182">
        <ele>560.4</ele>
        <time>2025-09-17T09:09:28Z</time>
      </trkpt>
      <trkpt lat="46.03105" lon="4.53187">
        <ele>560.6</ele>
        <time>2025-09-17T09:09:29Z</time>
      </trkpt>
      <trkpt lat="46.03103" lon="4.53192">
        <ele>560.6</ele>
        <time>2025-09-17T09:09:30Z</time>
      </trkpt>
      <trkpt lat="46.031" lon="4.53196">
        <ele>560.6</ele>
        <time>2025-09-17T09:09:31Z</time>
      </trkpt>
      <trkpt lat="46.03097" lon="4.532">
        <ele>560.8</ele>
        <time>2025-09-17T09:09:32Z</time>
      </trkpt>
      <trkpt lat="46.03094" lon="4.53203">
        <ele>560.8</ele>
        <time>2025-09-17T09:09:33Z</time>
      </trkpt>
      <trkpt lat="46.03091" lon="4.53207">
        <ele>560.8</ele>
        <time>2025-09-17T09:09:34Z</time>
      </trkpt>
      <trkpt lat="46.03088" lon="4.5321">
        <ele>560.6</ele>
        <time>2025-09-17T09:09:35Z</time>
      </trkpt>
      <trkpt lat="46.03085" lon="4.53214">
        <ele>560.6</ele>
        <time>2025-09-17T09:09:36Z</time>
      </trkpt>
      <trkpt lat="46.03082" lon="4.53219">
        <ele>560.6</ele>
        <time>2025-09-17T09:09:37Z</time>
      </trkpt>
      <trkpt lat="46.03079" lon="4.53223">
        <ele>560.6</ele>
        <time>2025-09-17T09:09:38Z</time>
      </trkpt>
      <trkpt lat="46.03076" lon="4.53228">
        <ele>560.6</ele>
        <time>2025-09-17T09:09:39Z</time>
      </trkpt>
      <trkpt lat="46.03073" lon="4.53233">
        <ele>560.6</ele>
        <time>2025-09-17T09:09:40Z</time>
      </trkpt>
      <trkpt lat="46.03071" lon="4.53236">
        <ele>560.6</ele>
        <time>2025-09-17T09:09:41Z</time>
      </trkpt>
      <trkpt lat="46.03068" lon="4.53241">
        <ele>560.6</ele>
        <time>2025-09-17T09:09:42Z</time>
      </trkpt>
      <trkpt lat="46.03065" lon="4.53244">
        <ele>560.8</ele>
        <time>2025-09-17T09:09:43Z</time>
      </trkpt>
      <trkpt lat="46.03062" lon="4.53249">
        <ele>560.8</ele>
        <time>2025-09-17T09:09:44Z</time>
      </trkpt>
      <trkpt lat="46.03058" lon="4.53255">
        <ele>560.8</ele>
        <time>2025-09-17T09:09:45Z</time>
      </trkpt>
      <trkpt lat="46.03055" lon="4.53259">
        <ele>560.8</ele>
        <time>2025-09-17T09:09:46Z</time>
      </trkpt>
      <trkpt lat="46.03052" lon="4.53265">
        <ele>560.8</ele>
        <time>2025-09-17T09:09:47Z</time>
      </trkpt>
      <trkpt lat="46.03048" lon="4.53271">
        <ele>560.6</ele>
        <time>2025-09-17T09:09:48Z</time>
      </trkpt>
      <trkpt lat="46.03046" lon="4.53277">
        <ele>560.6</ele>
        <time>2025-09-17T09:09:49Z</time>
      </trkpt>
      <trkpt lat="46.03042" lon="4.53284">
        <ele>560.4</ele>
        <time>2025-09-17T09:09:50Z</time>
      </trkpt>
      <trkpt lat="46.0304" lon="4.53291">
        <ele>559.6</ele>
        <time>2025-09-17T09:09:51Z</time>
      </trkpt>
      <trkpt lat="46.03037" lon="4.53298">
        <ele>559.4</ele>
        <time>2025-09-17T09:09:52Z</time>
      </trkpt>
      <trkpt lat="46.03035" lon="4.53307">
        <ele>559.4</ele>
        <time>2025-09-17T09:09:53Z</time>
      </trkpt>
      <trkpt lat="46.03032" lon="4.53315">
        <ele>559.4</ele>
        <time>2025-09-17T09:09:54Z</time>
      </trkpt>
      <trkpt lat="46.0303" lon="4.53323">
        <ele>559.2</ele>
        <time>2025-09-17T09:09:55Z</time>
      </trkpt>
      <trkpt lat="46.03028" lon="4.53332">
        <ele>558.8</ele>
        <time>2025-09-17T09:09:56Z</time>
      </trkpt>
      <trkpt lat="46.03026" lon="4.53342">
        <ele>558.4</ele>
        <time>2025-09-17T09:09:57Z</time>
      </trkpt>
      <trkpt lat="46.03024" lon="4.53351">
        <ele>558.2</ele>
        <time>2025-09-17T09:09:58Z</time>
      </trkpt>
      <trkpt lat="46.03022" lon="4.53361">
        <ele>557.8</ele>
        <time>2025-09-17T09:09:59Z</time>
      </trkpt>
      <trkpt lat="46.0302" lon="4.53371">
        <ele>557.8</ele>
        <time>2025-09-17T09:10:00Z</time>
      </trkpt>
      <trkpt lat="46.03019" lon="4.53381">
        <ele>557.8</ele>
        <time>2025-09-17T09:10:01Z</time>
      </trkpt>
      <trkpt lat="46.03018" lon="4.53391">
        <ele>557.2</ele>
        <time>2025-09-17T09:10:02Z</time>
      </trkpt>
      <trkpt lat="46.03016" lon="4.53401">
        <ele>556.8</ele>
        <time>2025-09-17T09:10:03Z</time>
      </trkpt>
      <trkpt lat="46.03016" lon="4.53401">
        <ele>556.4</ele>
        <time>2025-09-17T09:10:04Z</time>
      </trkpt>
      <trkpt lat="46.03016" lon="4.53411">
        <ele>556.2</ele>
        <time>2025-09-17T09:10:05Z</time>
      </trkpt>
      <trkpt lat="46.03015" lon="4.53422">
        <ele>556</ele>
        <time>2025-09-17T09:10:06Z</time>
      </trkpt>
      <trkpt lat="46.03014" lon="4.53433">
        <ele>555.2</ele>
        <time>2025-09-17T09:10:07Z</time>
      </trkpt>
      <trkpt lat="46.03013" lon="4.53444">
        <ele>555</ele>
        <time>2025-09-17T09:10:08Z</time>
      </trkpt>
      <trkpt lat="46.03013" lon="4.53455">
        <ele>554.6</ele>
        <time>2025-09-17T09:10:09Z</time>
      </trkpt>
      <trkpt lat="46.03012" lon="4.53467">
        <ele>554.4</ele>
        <time>2025-09-17T09:10:10Z</time>
      </trkpt>
      <trkpt lat="46.03012" lon="4.53478">
        <ele>554</ele>
        <time>2025-09-17T09:10:11Z</time>
      </trkpt>
      <trkpt lat="46.03013" lon="4.53489">
        <ele>553.2</ele>
        <time>2025-09-17T09:10:12Z</time>
      </trkpt>
      <trkpt lat="46.03014" lon="4.535">
        <ele>553</ele>
        <time>2025-09-17T09:10:13Z</time>
      </trkpt>
      <trkpt lat="46.03016" lon="4.53506">
        <ele>552.8</ele>
        <time>2025-09-17T09:10:14Z</time>
      </trkpt>
      <trkpt lat="46.03018" lon="4.53513">
        <ele>552.2</ele>
        <time>2025-09-17T09:10:15Z</time>
      </trkpt>
      <trkpt lat="46.03022" lon="4.53518">
        <ele>552.2</ele>
        <time>2025-09-17T09:10:16Z</time>
      </trkpt>
      <trkpt lat="46.03025" lon="4.53523">
        <ele>552</ele>
        <time>2025-09-17T09:10:17Z</time>
      </trkpt>
      <trkpt lat="46.03029" lon="4.53529">
        <ele>551.6</ele>
        <time>2025-09-17T09:10:18Z</time>
      </trkpt>
      <trkpt lat="46.03034" lon="4.53535">
        <ele>551</ele>
        <time>2025-09-17T09:10:19Z</time>
      </trkpt>
      <trkpt lat="46.03038" lon="4.53541">
        <ele>550.8</ele>
        <time>2025-09-17T09:10:20Z</time>
      </trkpt>
      <trkpt lat="46.03043" lon="4.53548">
        <ele>550.4</ele>
        <time>2025-09-17T09:10:21Z</time>
      </trkpt>
      <trkpt lat="46.03047" lon="4.53553">
        <ele>550</ele>
        <time>2025-09-17T09:10:22Z</time>
      </trkpt>
      <trkpt lat="46.03049" lon="4.53559">
        <ele>549.6</ele>
        <time>2025-09-17T09:10:23Z</time>
      </trkpt>
      <trkpt lat="46.03051" lon="4.53561">
        <ele>549.6</ele>
        <time>2025-09-17T09:10:24Z</time>
      </trkpt>
      <trkpt lat="46.0305" lon="4.53563">
        <ele>549.2</ele>
        <time>2025-09-17T09:10:25Z</time>
      </trkpt>
      <trkpt lat="46.03049" lon="4.53566">
        <ele>549.2</ele>
        <time>2025-09-17T09:10:26Z</time>
      </trkpt>
      <trkpt lat="46.03048" lon="4.53568">
        <ele>549.2</ele>
        <time>2025-09-17T09:10:27Z</time>
      </trkpt>
      <trkpt lat="46.03047" lon="4.53571">
        <ele>549.2</ele>
        <time>2025-09-17T09:10:28Z</time>
      </trkpt>
      <trkpt lat="46.03045" lon="4.53575">
        <ele>549</ele>
        <time>2025-09-17T09:10:29Z</time>
      </trkpt>
      <trkpt lat="46.03043" lon="4.53581">
        <ele>549</ele>
        <time>2025-09-17T09:10:30Z</time>
      </trkpt>
      <trkpt lat="46.03043" lon="4.53586">
        <ele>549</ele>
        <time>2025-09-17T09:10:31Z</time>
      </trkpt>
      <trkpt lat="46.03044" lon="4.53593">
        <ele>548.6</ele>
        <time>2025-09-17T09:10:32Z</time>
      </trkpt>
      <trkpt lat="46.03044" lon="4.53601">
        <ele>548.4</ele>
        <time>2025-09-17T09:10:33Z</time>
      </trkpt>
      <trkpt lat="46.03044" lon="4.53609">
        <ele>548.4</ele>
        <time>2025-09-17T09:10:34Z</time>
      </trkpt>
      <trkpt lat="46.03045" lon="4.53619">
        <ele>547.8</ele>
        <time>2025-09-17T09:10:35Z</time>
      </trkpt>
      <trkpt lat="46.03046" lon="4.53628">
        <ele>547.4</ele>
        <time>2025-09-17T09:10:36Z</time>
      </trkpt>
      <trkpt lat="46.03044" lon="4.53637">
        <ele>546.8</ele>
        <time>2025-09-17T09:10:37Z</time>
      </trkpt>
      <trkpt lat="46.03043" lon="4.53646">
        <ele>546.4</ele>
        <time>2025-09-17T09:10:38Z</time>
      </trkpt>
      <trkpt lat="46.03037" lon="4.53654">
        <ele>546</ele>
        <time>2025-09-17T09:10:39Z</time>
      </trkpt>
      <trkpt lat="46.03031" lon="4.53662">
        <ele>545.8</ele>
        <time>2025-09-17T09:10:40Z</time>
      </trkpt>
      <trkpt lat="46.03027" lon="4.53668">
        <ele>545.4</ele>
        <time>2025-09-17T09:10:41Z</time>
      </trkpt>
      <trkpt lat="46.03021" lon="4.53674">
        <ele>545</ele>
        <time>2025-09-17T09:10:42Z</time>
      </trkpt>
      <trkpt lat="46.03016" lon="4.5368">
        <ele>544.4</ele>
        <time>2025-09-17T09:10:43Z</time>
      </trkpt>
      <trkpt lat="46.0301" lon="4.53687">
        <ele>543.8</ele>
        <time>2025-09-17T09:10:44Z</time>
      </trkpt>
      <trkpt lat="46.03005" lon="4.53693">
        <ele>543.6</ele>
        <time>2025-09-17T09:10:45Z</time>
      </trkpt>
      <trkpt lat="46.03" lon="4.53698">
        <ele>543.2</ele>
        <time>2025-09-17T09:10:46Z</time>
      </trkpt>
      <trkpt lat="46.02996" lon="4.53706">
        <ele>543</ele>
        <time>2025-09-17T09:10:47Z</time>
      </trkpt>
      <trkpt lat="46.02992" lon="4.53715">
        <ele>543</ele>
        <time>2025-09-17T09:10:48Z</time>
      </trkpt>
      <trkpt lat="46.02989" lon="4.53723">
        <ele>542.6</ele>
        <time>2025-09-17T09:10:49Z</time>
      </trkpt>
      <trkpt lat="46.02985" lon="4.53732">
        <ele>542.6</ele>
        <time>2025-09-17T09:10:50Z</time>
      </trkpt>
      <trkpt lat="46.02981" lon="4.53741">
        <ele>542.2</ele>
        <time>2025-09-17T09:10:51Z</time>
      </trkpt>
      <trkpt lat="46.0298" lon="4.5375">
        <ele>541.8</ele>
        <time>2025-09-17T09:10:52Z</time>
      </trkpt>
      <trkpt lat="46.02977" lon="4.5376">
        <ele>541.6</ele>
        <time>2025-09-17T09:10:53Z</time>
      </trkpt>
      <trkpt lat="46.02974" lon="4.5377">
        <ele>541.2</ele>
        <time>2025-09-17T09:10:54Z</time>
      </trkpt>
      <trkpt lat="46.02973" lon="4.5378">
        <ele>540.8</ele>
        <time>2025-09-17T09:10:55Z</time>
      </trkpt>
      <trkpt lat="46.02971" lon="4.53791">
        <ele>540.6</ele>
        <time>2025-09-17T09:10:56Z</time>
      </trkpt>
      <trkpt lat="46.02969" lon="4.53802">
        <ele>540.8</ele>
        <time>2025-09-17T09:10:57Z</time>
      </trkpt>
      <trkpt lat="46.02966" lon="4.53812">
        <ele>540.2</ele>
        <time>2025-09-17T09:10:58Z</time>
      </trkpt>
      <trkpt lat="46.02964" lon="4.53823">
        <ele>540</ele>
        <time>2025-09-17T09:10:59Z</time>
      </trkpt>
      <trkpt lat="46.02964" lon="4.53834">
        <ele>539.6</ele>
        <time>2025-09-17T09:11:00Z</time>
      </trkpt>
      <trkpt lat="46.02964" lon="4.53847">
        <ele>539.6</ele>
        <time>2025-09-17T09:11:01Z</time>
      </trkpt>
      <trkpt lat="46.02966" lon="4.53856">
        <ele>539.4</ele>
        <time>2025-09-17T09:11:02Z</time>
      </trkpt>
      <trkpt lat="46.02968" lon="4.53866">
        <ele>539</ele>
        <time>2025-09-17T09:11:03Z</time>
      </trkpt>
      <trkpt lat="46.02971" lon="4.53876">
        <ele>538.6</ele>
        <time>2025-09-17T09:11:04Z</time>
      </trkpt>
      <trkpt lat="46.02975" lon="4.53886">
        <ele>537.8</ele>
        <time>2025-09-17T09:11:05Z</time>
      </trkpt>
      <trkpt lat="46.0298" lon="4.53896">
        <ele>537</ele>
        <time>2025-09-17T09:11:06Z</time>
      </trkpt>
      <trkpt lat="46.02985" lon="4.53905">
        <ele>536.2</ele>
        <time>2025-09-17T09:11:07Z</time>
      </trkpt>
      <trkpt lat="46.0299" lon="4.53914">
        <ele>535.4</ele>
        <time>2025-09-17T09:11:08Z</time>
      </trkpt>
      <trkpt lat="46.02993" lon="4.53923">
        <ele>534.4</ele>
        <time>2025-09-17T09:11:09Z</time>
      </trkpt>
      <trkpt lat="46.02996" lon="4.53935">
        <ele>533.6</ele>
        <time>2025-09-17T09:11:10Z</time>
      </trkpt>
      <trkpt lat="46.02997" lon="4.53947">
        <ele>533.2</ele>
        <time>2025-09-17T09:11:11Z</time>
      </trkpt>
      <trkpt lat="46.02998" lon="4.53958">
        <ele>532.6</ele>
        <time>2025-09-17T09:11:12Z</time>
      </trkpt>
      <trkpt lat="46.02997" lon="4.5397">
        <ele>532</ele>
        <time>2025-09-17T09:11:13Z</time>
      </trkpt>
      <trkpt lat="46.02994" lon="4.53979">
        <ele>531.6</ele>
        <time>2025-09-17T09:11:14Z</time>
      </trkpt>
      <trkpt lat="46.02991" lon="4.53989">
        <ele>531</ele>
        <time>2025-09-17T09:11:15Z</time>
      </trkpt>
      <trkpt lat="46.0299" lon="4.53998">
        <ele>530.4</ele>
        <time>2025-09-17T09:11:16Z</time>
      </trkpt>
      <trkpt lat="46.02988" lon="4.54008">
        <ele>529.6</ele>
        <time>2025-09-17T09:11:17Z</time>
      </trkpt>
      <trkpt lat="46.02987" lon="4.54016">
        <ele>528.8</ele>
        <time>2025-09-17T09:11:18Z</time>
      </trkpt>
      <trkpt lat="46.02987" lon="4.54022">
        <ele>528.2</ele>
        <time>2025-09-17T09:11:19Z</time>
      </trkpt>
      <trkpt lat="46.02987" lon="4.54029">
        <ele>527.6</ele>
        <time>2025-09-17T09:11:20Z</time>
      </trkpt>
      <trkpt lat="46.02987" lon="4.54032">
        <ele>527.2</ele>
        <time>2025-09-17T09:11:21Z</time>
      </trkpt>
      <trkpt lat="46.02988" lon="4.54034">
        <ele>526.8</ele>
        <time>2025-09-17T09:11:22Z</time>
      </trkpt>
      <trkpt lat="46.02988" lon="4.54035">
        <ele>526.4</ele>
        <time>2025-09-17T09:11:23Z</time>
      </trkpt>
      <trkpt lat="46.02989" lon="4.54038">
        <ele>526</ele>
        <time>2025-09-17T09:11:24Z</time>
      </trkpt>
      <trkpt lat="46.02988" lon="4.54041">
        <ele>525.6</ele>
        <time>2025-09-17T09:11:25Z</time>
      </trkpt>
      <trkpt lat="46.02987" lon="4.54043">
        <ele>525.2</ele>
        <time>2025-09-17T09:11:26Z</time>
      </trkpt>
      <trkpt lat="46.02989" lon="4.54048">
        <ele>524.6</ele>
        <time>2025-09-17T09:11:27Z</time>
      </trkpt>
      <trkpt lat="46.0299" lon="4.54054">
        <ele>524.4</ele>
        <time>2025-09-17T09:11:28Z</time>
      </trkpt>
      <trkpt lat="46.02993" lon="4.54061">
        <ele>523.8</ele>
        <time>2025-09-17T09:11:29Z</time>
      </trkpt>
      <trkpt lat="46.02996" lon="4.54069">
        <ele>523.4</ele>
        <time>2025-09-17T09:11:30Z</time>
      </trkpt>
      <trkpt lat="46.02999" lon="4.54077">
        <ele>522.6</ele>
        <time>2025-09-17T09:11:31Z</time>
      </trkpt>
      <trkpt lat="46.03001" lon="4.54086">
        <ele>521.8</ele>
        <time>2025-09-17T09:11:32Z</time>
      </trkpt>
      <trkpt lat="46.03003" lon="4.54096">
        <ele>521.2</ele>
        <time>2025-09-17T09:11:33Z</time>
      </trkpt>
      <trkpt lat="46.03004" lon="4.54105">
        <ele>520.6</ele>
        <time>2025-09-17T09:11:34Z</time>
      </trkpt>
      <trkpt lat="46.03004" lon="4.54112">
        <ele>520.2</ele>
        <time>2025-09-17T09:11:35Z</time>
      </trkpt>
      <trkpt lat="46.03003" lon="4.54118">
        <ele>520.2</ele>
        <time>2025-09-17T09:11:36Z</time>
      </trkpt>
      <trkpt lat="46.03001" lon="4.54122">
        <ele>520.2</ele>
        <time>2025-09-17T09:11:37Z</time>
      </trkpt>
      <trkpt lat="46.03" lon="4.54126">
        <ele>520.2</ele>
        <time>2025-09-17T09:11:38Z</time>
      </trkpt>
      <trkpt lat="46.02998" lon="4.54131">
        <ele>520.2</ele>
        <time>2025-09-17T09:11:39Z</time>
      </trkpt>
      <trkpt lat="46.02999" lon="4.54135">
        <ele>520.2</ele>
        <time>2025-09-17T09:11:40Z</time>
      </trkpt>
      <trkpt lat="46.03001" lon="4.54139">
        <ele>520.2</ele>
        <time>2025-09-17T09:11:41Z</time>
      </trkpt>
      <trkpt lat="46.03002" lon="4.54142">
        <ele>520.2</ele>
        <time>2025-09-17T09:11:42Z</time>
      </trkpt>
      <trkpt lat="46.03004" lon="4.54147">
        <ele>520.2</ele>
        <time>2025-09-17T09:11:43Z</time>
      </trkpt>
      <trkpt lat="46.03006" lon="4.5415">
        <ele>520.4</ele>
        <time>2025-09-17T09:11:44Z</time>
      </trkpt>
      <trkpt lat="46.03007" lon="4.54154">
        <ele>520.4</ele>
        <time>2025-09-17T09:11:45Z</time>
      </trkpt>
      <trkpt lat="46.03009" lon="4.54156">
        <ele>520.8</ele>
        <time>2025-09-17T09:11:46Z</time>
      </trkpt>
      <trkpt lat="46.0301" lon="4.54159">
        <ele>520.8</ele>
        <time>2025-09-17T09:11:47Z</time>
      </trkpt>
      <trkpt lat="46.03011" lon="4.54161">
        <ele>521.2</ele>
        <time>2025-09-17T09:11:48Z</time>
      </trkpt>
      <trkpt lat="46.03012" lon="4.54164">
        <ele>521.4</ele>
        <time>2025-09-17T09:11:49Z</time>
      </trkpt>
      <trkpt lat="46.03013" lon="4.54167">
        <ele>521.8</ele>
        <time>2025-09-17T09:11:50Z</time>
      </trkpt>
      <trkpt lat="46.03014" lon="4.54169">
        <ele>522</ele>
        <time>2025-09-17T09:11:51Z</time>
      </trkpt>
      <trkpt lat="46.03014" lon="4.54171">
        <ele>522.2</ele>
        <time>2025-09-17T09:11:52Z</time>
      </trkpt>
      <trkpt lat="46.03015" lon="4.54174">
        <ele>522.2</ele>
        <time>2025-09-17T09:11:53Z</time>
      </trkpt>
      <trkpt lat="46.03015" lon="4.54176">
        <ele>522.6</ele>
        <time>2025-09-17T09:11:54Z</time>
      </trkpt>
      <trkpt lat="46.03016" lon="4.54178">
        <ele>522.6</ele>
        <time>2025-09-17T09:11:55Z</time>
      </trkpt>
      <trkpt lat="46.03017" lon="4.5418">
        <ele>523</ele>
        <time>2025-09-17T09:11:56Z</time>
      </trkpt>
      <trkpt lat="46.03018" lon="4.54183">
        <ele>523</ele>
        <time>2025-09-17T09:11:57Z</time>
      </trkpt>
      <trkpt lat="46.03018" lon="4.54185">
        <ele>523.6</ele>
        <time>2025-09-17T09:11:58Z</time>
      </trkpt>
      <trkpt lat="46.03019" lon="4.54187">
        <ele>524</ele>
        <time>2025-09-17T09:11:59Z</time>
      </trkpt>
      <trkpt lat="46.03019" lon="4.54189">
        <ele>524.4</ele>
        <time>2025-09-17T09:12:00Z</time>
      </trkpt>
      <trkpt lat="46.0302" lon="4.54192">
        <ele>524.4</ele>
        <time>2025-09-17T09:12:01Z</time>
      </trkpt>
      <trkpt lat="46.0302" lon="4.54194">
        <ele>525</ele>
        <time>2025-09-17T09:12:02Z</time>
      </trkpt>
      <trkpt lat="46.0302" lon="4.54194">
        <ele>525.2</ele>
        <time>2025-09-17T09:12:03Z</time>
      </trkpt>
      <trkpt lat="46.0302" lon="4.54194">
        <ele>525.2</ele>
        <time>2025-09-17T09:12:04Z</time>
      </trkpt>
      <trkpt lat="46.03022" lon="4.54196">
        <ele>525.6</ele>
        <time>2025-09-17T09:14:04Z</time>
      </trkpt>
      <trkpt lat="46.03023" lon="4.54199">
        <ele>526</ele>
        <time>2025-09-17T09:14:05Z</time>
      </trkpt>
      <trkpt lat="46.03024" lon="4.54202">
        <ele>526</ele>
        <time>2025-09-17T09:14:06Z</time>
      </trkpt>
      <trkpt lat="46.03025" lon="4.54204">
        <ele>526.2</ele>
        <time>2025-09-17T09:14:07Z</time>
      </trkpt>
      <trkpt lat="46.03025" lon="4.54207">
        <ele>526.4</ele>
        <time>2025-09-17T09:14:08Z</time>
      </trkpt>
      <trkpt lat="46.03026" lon="4.5421">
        <ele>526.8</ele>
        <time>2025-09-17T09:14:09Z</time>
      </trkpt>
      <trkpt lat="46.03027" lon="4.54212">
        <ele>527.2</ele>
        <time>2025-09-17T09:14:10Z</time>
      </trkpt>
      <trkpt lat="46.03028" lon="4.54214">
        <ele>527.4</ele>
        <time>2025-09-17T09:14:11Z</time>
      </trkpt>
      <trkpt lat="46.03028" lon="4.54215">
        <ele>527.6</ele>
        <time>2025-09-17T09:14:12Z</time>
      </trkpt>
      <trkpt lat="46.03029" lon="4.54217">
        <ele>528.2</ele>
        <time>2025-09-17T09:14:13Z</time>
      </trkpt>
      <trkpt lat="46.03029" lon="4.54219">
        <ele>528.4</ele>
        <time>2025-09-17T09:14:14Z</time>
      </trkpt>
      <trkpt lat="46.0303" lon="4.54221">
        <ele>528.8</ele>
        <time>2025-09-17T09:14:15Z</time>
      </trkpt>
      <trkpt lat="46.0303" lon="4.54223">
        <ele>529</ele>
        <time>2025-09-17T09:14:16Z</time>
      </trkpt>
      <trkpt lat="46.0303" lon="4.54225">
        <ele>529</ele>
        <time>2025-09-17T09:14:17Z</time>
      </trkpt>
      <trkpt lat="46.03031" lon="4.54227">
        <ele>529.2</ele>
        <time>2025-09-17T09:14:18Z</time>
      </trkpt>
      <trkpt lat="46.03031" lon="4.54228">
        <ele>529.2</ele>
        <time>2025-09-17T09:14:19Z</time>
      </trkpt>
      <trkpt lat="46.03031" lon="4.5423">
        <ele>529.6</ele>
        <time>2025-09-17T09:14:20Z</time>
      </trkpt>
      <trkpt lat="46.03031" lon="4.54232">
        <ele>529.8</ele>
        <time>2025-09-17T09:14:21Z</time>
      </trkpt>
      <trkpt lat="46.03031" lon="4.54235">
        <ele>530.2</ele>
        <time>2025-09-17T09:14:22Z</time>
      </trkpt>
      <trkpt lat="46.03032" lon="4.54236">
        <ele>530.4</ele>
        <time>2025-09-17T09:14:23Z</time>
      </trkpt>
      <trkpt lat="46.03032" lon="4.54238">
        <ele>530.6</ele>
        <time>2025-09-17T09:14:24Z</time>
      </trkpt>
      <trkpt lat="46.03032" lon="4.5424">
        <ele>530.8</ele>
        <time>2025-09-17T09:14:25Z</time>
      </trkpt>
      <trkpt lat="46.03033" lon="4.54241">
        <ele>531.2</ele>
        <time>2025-09-17T09:14:26Z</time>
      </trkpt>
      <trkpt lat="46.03034" lon="4.54243">
        <ele>531.4</ele>
        <time>2025-09-17T09:14:27Z</time>
      </trkpt>
      <trkpt lat="46.03034" lon="4.54245">
        <ele>531.8</ele>
        <time>2025-09-17T09:14:28Z</time>
      </trkpt>
      <trkpt lat="46.03034" lon="4.54247">
        <ele>532</ele>
        <time>2025-09-17T09:14:29Z</time>
      </trkpt>
      <trkpt lat="46.03035" lon="4.54249">
        <ele>532.2</ele>
        <time>2025-09-17T09:14:30Z</time>
      </trkpt>
      <trkpt lat="46.03035" lon="4.54251">
        <ele>532.4</ele>
        <time>2025-09-17T09:14:31Z</time>
      </trkpt>
      <trkpt lat="46.03036" lon="4.54252">
        <ele>532.8</ele>
        <time>2025-09-17T09:14:32Z</time>
      </trkpt>
      <trkpt lat="46.03036" lon="4.54254">
        <ele>532.8</ele>
        <time>2025-09-17T09:14:33Z</time>
      </trkpt>
      <trkpt lat="46.03036" lon="4.54256">
        <ele>533.2</ele>
        <time>2025-09-17T09:14:34Z</time>
      </trkpt>
      <trkpt lat="46.03036" lon="4.54258">
        <ele>533.6</ele>
        <time>2025-09-17T09:14:35Z</time>
      </trkpt>
      <trkpt lat="46.03037" lon="4.54259">
        <ele>533.8</ele>
        <time>2025-09-17T09:14:36Z</time>
      </trkpt>
      <trkpt lat="46.03038" lon="4.54261">
        <ele>533.8</ele>
        <time>2025-09-17T09:14:37Z</time>
      </trkpt>
      <trkpt lat="46.03039" lon="4.54262">
        <ele>534</ele>
        <time>2025-09-17T09:14:38Z</time>
      </trkpt>
      <trkpt lat="46.03039" lon="4.54264">
        <ele>534.4</ele>
        <time>2025-09-17T09:14:39Z</time>
      </trkpt>
      <trkpt lat="46.03039" lon="4.54266">
        <ele>534.4</ele>
        <time>2025-09-17T09:14:40Z</time>
      </trkpt>
      <trkpt lat="46.0304" lon="4.54268">
        <ele>535</ele>
        <time>2025-09-17T09:14:41Z</time>
      </trkpt>
      <trkpt lat="46.0304" lon="4.54269">
        <ele>535.4</ele>
        <time>2025-09-17T09:14:42Z</time>
      </trkpt>
      <trkpt lat="46.0304" lon="4.5427">
        <ele>535.8</ele>
        <time>2025-09-17T09:14:43Z</time>
      </trkpt>
      <trkpt lat="46.0304" lon="4.54271">
        <ele>536</ele>
        <time>2025-09-17T09:14:44Z</time>
      </trkpt>
      <trkpt lat="46.0304" lon="4.54273">
        <ele>536.2</ele>
        <time>2025-09-17T09:14:45Z</time>
      </trkpt>
      <trkpt lat="46.03041" lon="4.54274">
        <ele>536.6</ele>
        <time>2025-09-17T09:14:46Z</time>
      </trkpt>
      <trkpt lat="46.03041" lon="4.54275">
        <ele>536.8</ele>
        <time>2025-09-17T09:14:47Z</time>
      </trkpt>
      <trkpt lat="46.03042" lon="4.54277">
        <ele>536.8</ele>
        <time>2025-09-17T09:14:48Z</time>
      </trkpt>
      <trkpt lat="46.03042" lon="4.54278">
        <ele>537.2</ele>
        <time>2025-09-17T09:14:49Z</time>
      </trkpt>
      <trkpt lat="46.03041" lon="4.5428">
        <ele>537.2</ele>
        <time>2025-09-17T09:14:50Z</time>
      </trkpt>
      <trkpt lat="46.03041" lon="4.54282">
        <ele>537.6</ele>
        <time>2025-09-17T09:14:51Z</time>
      </trkpt>
      <trkpt lat="46.03041" lon="4.54283">
        <ele>537.6</ele>
        <time>2025-09-17T09:14:52Z</time>
      </trkpt>
      <trkpt lat="46.03042" lon="4.54285">
        <ele>537.8</ele>
        <time>2025-09-17T09:14:53Z</time>
      </trkpt>
      <trkpt lat="46.03042" lon="4.54287">
        <ele>537.8</ele>
        <time>2025-09-17T09:14:54Z</time>
      </trkpt>
      <trkpt lat="46.03042" lon="4.54288">
        <ele>538.2</ele>
        <time>2025-09-17T09:14:55Z</time>
      </trkpt>
      <trkpt lat="46.03043" lon="4.5429">
        <ele>538.2</ele>
        <time>2025-09-17T09:14:56Z</time>
      </trkpt>
      <trkpt lat="46.03044" lon="4.54292">
        <ele>538.6</ele>
        <time>2025-09-17T09:14:57Z</time>
      </trkpt>
      <trkpt lat="46.03044" lon="4.54293">
        <ele>538.6</ele>
        <time>2025-09-17T09:14:58Z</time>
      </trkpt>
      <trkpt lat="46.03044" lon="4.54296">
        <ele>538.8</ele>
        <time>2025-09-17T09:14:59Z</time>
      </trkpt>
      <trkpt lat="46.03044" lon="4.54298">
        <ele>538.8</ele>
        <time>2025-09-17T09:15:00Z</time>
      </trkpt>
      <trkpt lat="46.03045" lon="4.543">
        <ele>538.8</ele>
        <time>2025-09-17T09:15:01Z</time>
      </trkpt>
      <trkpt lat="46.03045" lon="4.54302">
        <ele>538</ele>
        <time>2025-09-17T09:15:02Z</time>
      </trkpt>
      <trkpt lat="46.03045" lon="4.54303">
        <ele>538.4</ele>
        <time>2025-09-17T09:15:03Z</time>
      </trkpt>
      <trkpt lat="46.03045" lon="4.54303">
        <ele>538.8</ele>
        <time>2025-09-17T09:15:04Z</time>
      </trkpt>
      <trkpt lat="46.03045" lon="4.54304">
        <ele>539</ele>
        <time>2025-09-17T09:15:05Z</time>
      </trkpt>
      <trkpt lat="46.03045" lon="4.54306">
        <ele>539.2</ele>
        <time>2025-09-17T09:15:06Z</time>
      </trkpt>
      <trkpt lat="46.03046" lon="4.54307">
        <ele>539.6</ele>
        <time>2025-09-17T09:15:07Z</time>
      </trkpt>
      <trkpt lat="46.03046" lon="4.54309">
        <ele>539.6</ele>
        <time>2025-09-17T09:15:08Z</time>
      </trkpt>
      <trkpt lat="46.03046" lon="4.54311">
        <ele>539.8</ele>
        <time>2025-09-17T09:15:09Z</time>
      </trkpt>
      <trkpt lat="46.03045" lon="4.54313">
        <ele>539.8</ele>
        <time>2025-09-17T09:15:10Z</time>
      </trkpt>
      <trkpt lat="46.03044" lon="4.54315">
        <ele>539.8</ele>
        <time>2025-09-17T09:15:11Z</time>
      </trkpt>
      <trkpt lat="46.03043" lon="4.54317">
        <ele>540.4</ele>
        <time>2025-09-17T09:15:12Z</time>
      </trkpt>
      <trkpt lat="46.03044" lon="4.54318">
        <ele>540.6</ele>
        <time>2025-09-17T09:15:13Z</time>
      </trkpt>
      <trkpt lat="46.03044" lon="4.5432">
        <ele>540.8</ele>
        <time>2025-09-17T09:15:14Z</time>
      </trkpt>
      <trkpt lat="46.03045" lon="4.54321">
        <ele>541</ele>
        <time>2025-09-17T09:15:15Z</time>
      </trkpt>
      <trkpt lat="46.03044" lon="4.54323">
        <ele>541</ele>
        <time>2025-09-17T09:15:16Z</time>
      </trkpt>
      <trkpt lat="46.03045" lon="4.54325">
        <ele>541.4</ele>
        <time>2025-09-17T09:15:17Z</time>
      </trkpt>
      <trkpt lat="46.03045" lon="4.54326">
        <ele>541.4</ele>
        <time>2025-09-17T09:15:18Z</time>
      </trkpt>
      <trkpt lat="46.03046" lon="4.54328">
        <ele>541.8</ele>
        <time>2025-09-17T09:15:19Z</time>
      </trkpt>
      <trkpt lat="46.03046" lon="4.5433">
        <ele>541.8</ele>
        <time>2025-09-17T09:15:20Z</time>
      </trkpt>
      <trkpt lat="46.03045" lon="4.54331">
        <ele>542</ele>
        <time>2025-09-17T09:15:21Z</time>
      </trkpt>
      <trkpt lat="46.03045" lon="4.54333">
        <ele>542</ele>
        <time>2025-09-17T09:15:22Z</time>
      </trkpt>
      <trkpt lat="46.03045" lon="4.54335">
        <ele>542.4</ele>
        <time>2025-09-17T09:15:23Z</time>
      </trkpt>
      <trkpt lat="46.03046" lon="4.54336">
        <ele>542.4</ele>
        <time>2025-09-17T09:15:24Z</time>
      </trkpt>
      <trkpt lat="46.03047" lon="4.54339">
        <ele>542.6</ele>
        <time>2025-09-17T09:15:25Z</time>
      </trkpt>
      <trkpt lat="46.03047" lon="4.54341">
        <ele>542.8</ele>
        <time>2025-09-17T09:15:26Z</time>
      </trkpt>
      <trkpt lat="46.03047" lon="4.54343">
        <ele>542.8</ele>
        <time>2025-09-17T09:15:27Z</time>
      </trkpt>
      <trkpt lat="46.03047" lon="4.54344">
        <ele>542.8</ele>
        <time>2025-09-17T09:15:28Z</time>
      </trkpt>
      <trkpt lat="46.03047" lon="4.54346">
        <ele>543.2</ele>
        <time>2025-09-17T09:15:29Z</time>
      </trkpt>
      <trkpt lat="46.03048" lon="4.54348">
        <ele>543.2</ele>
        <time>2025-09-17T09:15:30Z</time>
      </trkpt>
      <trkpt lat="46.03048" lon="4.5435">
        <ele>543.4</ele>
        <time>2025-09-17T09:15:31Z</time>
      </trkpt>
      <trkpt lat="46.03048" lon="4.54352">
        <ele>543.4</ele>
        <time>2025-09-17T09:15:32Z</time>
      </trkpt>
      <trkpt lat="46.03048" lon="4.54354">
        <ele>543.8</ele>
        <time>2025-09-17T09:15:33Z</time>
      </trkpt>
      <trkpt lat="46.03049" lon="4.54356">
        <ele>543.8</ele>
        <time>2025-09-17T09:15:34Z</time>
      </trkpt>
      <trkpt lat="46.03049" lon="4.54358">
        <ele>544</ele>
        <time>2025-09-17T09:15:35Z</time>
      </trkpt>
      <trkpt lat="46.03049" lon="4.54359">
        <ele>544</ele>
        <time>2025-09-17T09:15:36Z</time>
      </trkpt>
      <trkpt lat="46.03049" lon="4.54361">
        <ele>544.2</ele>
        <time>2025-09-17T09:15:37Z</time>
      </trkpt>
      <trkpt lat="46.0305" lon="4.54363">
        <ele>544.4</ele>
        <time>2025-09-17T09:15:38Z</time>
      </trkpt>
      <trkpt lat="46.0305" lon="4.54365">
        <ele>544.4</ele>
        <time>2025-09-17T09:15:39Z</time>
      </trkpt>
      <trkpt lat="46.0305" lon="4.54367">
        <ele>544.6</ele>
        <time>2025-09-17T09:15:40Z</time>
      </trkpt>
      <trkpt lat="46.03049" lon="4.5437">
        <ele>544.6</ele>
        <time>2025-09-17T09:15:41Z</time>
      </trkpt>
      <trkpt lat="46.03049" lon="4.54372">
        <ele>545</ele>
        <time>2025-09-17T09:15:42Z</time>
      </trkpt>
      <trkpt lat="46.03049" lon="4.54375">
        <ele>545</ele>
        <time>2025-09-17T09:15:43Z</time>
      </trkpt>
      <trkpt lat="46.03049" lon="4.54377">
        <ele>545.4</ele>
        <time>2025-09-17T09:15:44Z</time>
      </trkpt>
      <trkpt lat="46.03049" lon="4.5438">
        <ele>545.4</ele>
        <time>2025-09-17T09:15:45Z</time>
      </trkpt>
      <trkpt lat="46.03048" lon="4.54382">
        <ele>545.4</ele>
        <time>2025-09-17T09:15:46Z</time>
      </trkpt>
      <trkpt lat="46.03048" lon="4.54385">
        <ele>545.6</ele>
        <time>2025-09-17T09:15:47Z</time>
      </trkpt>
      <trkpt lat="46.03048" lon="4.54387">
        <ele>545.6</ele>
        <time>2025-09-17T09:15:48Z</time>
      </trkpt>
      <trkpt lat="46.03048" lon="4.5439">
        <ele>545.8</ele>
        <time>2025-09-17T09:15:49Z</time>
      </trkpt>
      <trkpt lat="46.03047" lon="4.54392">
        <ele>545.8</ele>
        <time>2025-09-17T09:15:50Z</time>
      </trkpt>
      <trkpt lat="46.03047" lon="4.54394">
        <ele>545.8</ele>
        <time>2025-09-17T09:15:51Z</time>
      </trkpt>
      <trkpt lat="46.03047" lon="4.54397">
        <ele>546.2</ele>
        <time>2025-09-17T09:15:52Z</time>
      </trkpt>
      <trkpt lat="46.03046" lon="4.54399">
        <ele>546.2</ele>
        <time>2025-09-17T09:15:53Z</time>
      </trkpt>
      <trkpt lat="46.03046" lon="4.54402">
        <ele>546.4</ele>
        <time>2025-09-17T09:15:54Z</time>
      </trkpt>
      <trkpt lat="46.03046" lon="4.54404">
        <ele>546.6</ele>
        <time>2025-09-17T09:15:55Z</time>
      </trkpt>
      <trkpt lat="46.03045" lon="4.54406">
        <ele>546.6</ele>
        <time>2025-09-17T09:15:56Z</time>
      </trkpt>
      <trkpt lat="46.03045" lon="4.54408">
        <ele>546.8</ele>
        <time>2025-09-17T09:15:57Z</time>
      </trkpt>
      <trkpt lat="46.03045" lon="4.5441">
        <ele>547</ele>
        <time>2025-09-17T09:15:58Z</time>
      </trkpt>
      <trkpt lat="46.03044" lon="4.54413">
        <ele>547.4</ele>
        <time>2025-09-17T09:15:59Z</time>
      </trkpt>
      <trkpt lat="46.03044" lon="4.54415">
        <ele>547.4</ele>
        <time>2025-09-17T09:16:00Z</time>
      </trkpt>
      <trkpt lat="46.03044" lon="4.54418">
        <ele>547.6</ele>
        <time>2025-09-17T09:16:01Z</time>
      </trkpt>
      <trkpt lat="46.03044" lon="4.5442">
        <ele>547.6</ele>
        <time>2025-09-17T09:16:02Z</time>
      </trkpt>
      <trkpt lat="46.03044" lon="4.54421">
        <ele>547.6</ele>
        <time>2025-09-17T09:16:03Z</time>
      </trkpt>
      <trkpt lat="46.03043" lon="4.54424">
        <ele>548</ele>
        <time>2025-09-17T09:16:04Z</time>
      </trkpt>
      <trkpt lat="46.03042" lon="4.54426">
        <ele>548</ele>
        <time>2025-09-17T09:16:05Z</time>
      </trkpt>
      <trkpt lat="46.03042" lon="4.54428">
        <ele>548</ele>
        <time>2025-09-17T09:16:06Z</time>
      </trkpt>
      <trkpt lat="46.03041" lon="4.54431">
        <ele>548.2</ele>
        <time>2025-09-17T09:16:07Z</time>
      </trkpt>
      <trkpt lat="46.03042" lon="4.54433">
        <ele>548.2</ele>
        <time>2025-09-17T09:16:08Z</time>
      </trkpt>
      <trkpt lat="46.03042" lon="4.54435">
        <ele>548.6</ele>
        <time>2025-09-17T09:16:09Z</time>
      </trkpt>
      <trkpt lat="46.03042" lon="4.54438">
        <ele>548.6</ele>
        <time>2025-09-17T09:16:10Z</time>
      </trkpt>
      <trkpt lat="46.03042" lon="4.5444">
        <ele>548.8</ele>
        <time>2025-09-17T09:16:11Z</time>
      </trkpt>
      <trkpt lat="46.03041" lon="4.54442">
        <ele>548.8</ele>
        <time>2025-09-17T09:16:12Z</time>
      </trkpt>
      <trkpt lat="46.03041" lon="4.54444">
        <ele>549</ele>
        <time>2025-09-17T09:16:13Z</time>
      </trkpt>
      <trkpt lat="46.0304" lon="4.54447">
        <ele>549</ele>
        <time>2025-09-17T09:16:14Z</time>
      </trkpt>
      <trkpt lat="46.0304" lon="4.54449">
        <ele>549.4</ele>
        <time>2025-09-17T09:16:15Z</time>
      </trkpt>
      <trkpt lat="46.0304" lon="4.54452">
        <ele>549.4</ele>
        <time>2025-09-17T09:16:16Z</time>
      </trkpt>
      <trkpt lat="46.03039" lon="4.54454">
        <ele>549.4</ele>
        <time>2025-09-17T09:16:17Z</time>
      </trkpt>
      <trkpt lat="46.03038" lon="4.54456">
        <ele>549.8</ele>
        <time>2025-09-17T09:16:18Z</time>
      </trkpt>
      <trkpt lat="46.03038" lon="4.54458">
        <ele>549.8</ele>
        <time>2025-09-17T09:16:19Z</time>
      </trkpt>
      <trkpt lat="46.03038" lon="4.54461">
        <ele>550</ele>
        <time>2025-09-17T09:16:20Z</time>
      </trkpt>
      <trkpt lat="46.03038" lon="4.54463">
        <ele>550</ele>
        <time>2025-09-17T09:16:21Z</time>
      </trkpt>
      <trkpt lat="46.03038" lon="4.54466">
        <ele>550</ele>
        <time>2025-09-17T09:16:22Z</time>
      </trkpt>
      <trkpt lat="46.03038" lon="4.54468">
        <ele>550</ele>
        <time>2025-09-17T09:16:23Z</time>
      </trkpt>
      <trkpt lat="46.03037" lon="4.54471">
        <ele>550.4</ele>
        <time>2025-09-17T09:16:24Z</time>
      </trkpt>
      <trkpt lat="46.03037" lon="4.54473">
        <ele>550.4</ele>
        <time>2025-09-17T09:16:25Z</time>
      </trkpt>
      <trkpt lat="46.03036" lon="4.54475">
        <ele>550.4</ele>
        <time>2025-09-17T09:16:26Z</time>
      </trkpt>
      <trkpt lat="46.03036" lon="4.54478">
        <ele>550.6</ele>
        <time>2025-09-17T09:16:27Z</time>
      </trkpt>
      <trkpt lat="46.03037" lon="4.54481">
        <ele>550.6</ele>
        <time>2025-09-17T09:16:28Z</time>
      </trkpt>
      <trkpt lat="46.03037" lon="4.54483">
        <ele>550.6</ele>
        <time>2025-09-17T09:16:29Z</time>
      </trkpt>
      <trkpt lat="46.03038" lon="4.54485">
        <ele>551</ele>
        <time>2025-09-17T09:16:30Z</time>
      </trkpt>
      <trkpt lat="46.0304" lon="4.54487">
        <ele>551</ele>
        <time>2025-09-17T09:16:31Z</time>
      </trkpt>
      <trkpt lat="46.03041" lon="4.54489">
        <ele>551.4</ele>
        <time>2025-09-17T09:16:32Z</time>
      </trkpt>
      <trkpt lat="46.03042" lon="4.54491">
        <ele>551.4</ele>
        <time>2025-09-17T09:16:33Z</time>
      </trkpt>
      <trkpt lat="46.03043" lon="4.54493">
        <ele>551.6</ele>
        <time>2025-09-17T09:16:34Z</time>
      </trkpt>
      <trkpt lat="46.03044" lon="4.54495">
        <ele>551.6</ele>
        <time>2025-09-17T09:16:35Z</time>
      </trkpt>
      <trkpt lat="46.03045" lon="4.54496">
        <ele>552</ele>
        <time>2025-09-17T09:16:36Z</time>
      </trkpt>
      <trkpt lat="46.03047" lon="4.54497">
        <ele>552.2</ele>
        <time>2025-09-17T09:16:37Z</time>
      </trkpt>
      <trkpt lat="46.03048" lon="4.54498">
        <ele>552.2</ele>
        <time>2025-09-17T09:16:38Z</time>
      </trkpt>
      <trkpt lat="46.0305" lon="4.54499">
        <ele>552.6</ele>
        <time>2025-09-17T09:16:39Z</time>
      </trkpt>
      <trkpt lat="46.03051" lon="4.545">
        <ele>552.6</ele>
        <time>2025-09-17T09:16:40Z</time>
      </trkpt>
      <trkpt lat="46.03053" lon="4.54501">
        <ele>552.8</ele>
        <time>2025-09-17T09:16:41Z</time>
      </trkpt>
      <trkpt lat="46.03054" lon="4.54501">
        <ele>553</ele>
        <time>2025-09-17T09:16:42Z</time>
      </trkpt>
      <trkpt lat="46.03056" lon="4.545">
        <ele>553.4</ele>
        <time>2025-09-17T09:16:43Z</time>
      </trkpt>
      <trkpt lat="46.03058" lon="4.545">
        <ele>553.6</ele>
        <time>2025-09-17T09:16:44Z</time>
      </trkpt>
      <trkpt lat="46.03059" lon="4.54501">
        <ele>553.8</ele>
        <time>2025-09-17T09:16:45Z</time>
      </trkpt>
      <trkpt lat="46.0306" lon="4.54502">
        <ele>554</ele>
        <time>2025-09-17T09:16:46Z</time>
      </trkpt>
      <trkpt lat="46.03061" lon="4.54502">
        <ele>554.4</ele>
        <time>2025-09-17T09:16:47Z</time>
      </trkpt>
      <trkpt lat="46.03062" lon="4.54503">
        <ele>554.6</ele>
        <time>2025-09-17T09:16:48Z</time>
      </trkpt>
      <trkpt lat="46.03063" lon="4.54503">
        <ele>554.6</ele>
        <time>2025-09-17T09:16:49Z</time>
      </trkpt>
      <trkpt lat="46.03064" lon="4.54504">
        <ele>555</ele>
        <time>2025-09-17T09:16:50Z</time>
      </trkpt>
      <trkpt lat="46.03065" lon="4.54504">
        <ele>555.2</ele>
        <time>2025-09-17T09:16:51Z</time>
      </trkpt>
      <trkpt lat="46.03066" lon="4.54505">
        <ele>555.4</ele>
        <time>2025-09-17T09:16:52Z</time>
      </trkpt>
      <trkpt lat="46.03067" lon="4.54506">
        <ele>555.4</ele>
        <time>2025-09-17T09:16:53Z</time>
      </trkpt>
      <trkpt lat="46.03068" lon="4.54506">
        <ele>555.8</ele>
        <time>2025-09-17T09:16:54Z</time>
      </trkpt>
      <trkpt lat="46.0307" lon="4.54508">
        <ele>556</ele>
        <time>2025-09-17T09:16:55Z</time>
      </trkpt>
      <trkpt lat="46.03071" lon="4.54509">
        <ele>556.2</ele>
        <time>2025-09-17T09:16:56Z</time>
      </trkpt>
      <trkpt lat="46.03072" lon="4.5451">
        <ele>556.2</ele>
        <time>2025-09-17T09:16:57Z</time>
      </trkpt>
      <trkpt lat="46.03073" lon="4.54511">
        <ele>556.6</ele>
        <time>2025-09-17T09:16:58Z</time>
      </trkpt>
      <trkpt lat="46.03074" lon="4.54513">
        <ele>556.8</ele>
        <time>2025-09-17T09:16:59Z</time>
      </trkpt>
      <trkpt lat="46.03074" lon="4.54514">
        <ele>556.8</ele>
        <time>2025-09-17T09:17:00Z</time>
      </trkpt>
      <trkpt lat="46.03075" lon="4.54515">
        <ele>557</ele>
        <time>2025-09-17T09:17:01Z</time>
      </trkpt>
      <trkpt lat="46.03076" lon="4.54517">
        <ele>557</ele>
        <time>2025-09-17T09:17:02Z</time>
      </trkpt>
      <trkpt lat="46.03077" lon="4.54518">
        <ele>557.6</ele>
        <time>2025-09-17T09:17:03Z</time>
      </trkpt>
      <trkpt lat="46.03078" lon="4.54519">
        <ele>557.6</ele>
        <time>2025-09-17T09:17:04Z</time>
      </trkpt>
      <trkpt lat="46.03079" lon="4.54521">
        <ele>558</ele>
        <time>2025-09-17T09:17:05Z</time>
      </trkpt>
      <trkpt lat="46.03079" lon="4.54522">
        <ele>558</ele>
        <time>2025-09-17T09:17:06Z</time>
      </trkpt>
      <trkpt lat="46.0308" lon="4.54524">
        <ele>558.2</ele>
        <time>2025-09-17T09:17:07Z</time>
      </trkpt>
      <trkpt lat="46.0308" lon="4.54526">
        <ele>558.2</ele>
        <time>2025-09-17T09:17:08Z</time>
      </trkpt>
      <trkpt lat="46.03081" lon="4.54528">
        <ele>558.6</ele>
        <time>2025-09-17T09:17:09Z</time>
      </trkpt>
      <trkpt lat="46.03082" lon="4.5453">
        <ele>558.6</ele>
        <time>2025-09-17T09:17:10Z</time>
      </trkpt>
      <trkpt lat="46.03083" lon="4.54531">
        <ele>558.8</ele>
        <time>2025-09-17T09:17:11Z</time>
      </trkpt>
      <trkpt lat="46.03084" lon="4.54532">
        <ele>558.8</ele>
        <time>2025-09-17T09:17:12Z</time>
      </trkpt>
      <trkpt lat="46.03085" lon="4.54533">
        <ele>559.2</ele>
        <time>2025-09-17T09:17:13Z</time>
      </trkpt>
      <trkpt lat="46.03085" lon="4.54534">
        <ele>559.2</ele>
        <time>2025-09-17T09:17:14Z</time>
      </trkpt>
      <trkpt lat="46.03086" lon="4.54535">
        <ele>559.6</ele>
        <time>2025-09-17T09:17:15Z</time>
      </trkpt>
      <trkpt lat="46.03087" lon="4.54537">
        <ele>559.6</ele>
        <time>2025-09-17T09:17:16Z</time>
      </trkpt>
      <trkpt lat="46.03087" lon="4.54538">
        <ele>560</ele>
        <time>2025-09-17T09:17:17Z</time>
      </trkpt>
      <trkpt lat="46.03088" lon="4.5454">
        <ele>560</ele>
        <time>2025-09-17T09:17:18Z</time>
      </trkpt>
      <trkpt lat="46.03088" lon="4.54541">
        <ele>560.4</ele>
        <time>2025-09-17T09:17:19Z</time>
      </trkpt>
      <trkpt lat="46.03089" lon="4.54543">
        <ele>560.4</ele>
        <time>2025-09-17T09:17:20Z</time>
      </trkpt>
      <trkpt lat="46.0309" lon="4.54544">
        <ele>560.8</ele>
        <time>2025-09-17T09:17:21Z</time>
      </trkpt>
      <trkpt lat="46.03091" lon="4.54546">
        <ele>560.8</ele>
        <time>2025-09-17T09:17:22Z</time>
      </trkpt>
      <trkpt lat="46.03091" lon="4.54547">
        <ele>561</ele>
        <time>2025-09-17T09:17:23Z</time>
      </trkpt>
      <trkpt lat="46.03092" lon="4.54548">
        <ele>561.2</ele>
        <time>2025-09-17T09:17:24Z</time>
      </trkpt>
      <trkpt lat="46.03093" lon="4.54549">
        <ele>561.6</ele>
        <time>2025-09-17T09:17:25Z</time>
      </trkpt>
      <trkpt lat="46.03094" lon="4.5455">
        <ele>561.8</ele>
        <time>2025-09-17T09:17:26Z</time>
      </trkpt>
      <trkpt lat="46.03095" lon="4.54551">
        <ele>562</ele>
        <time>2025-09-17T09:17:27Z</time>
      </trkpt>
      <trkpt lat="46.03096" lon="4.54552">
        <ele>562</ele>
        <time>2025-09-17T09:17:28Z</time>
      </trkpt>
      <trkpt lat="46.03097" lon="4.54553">
        <ele>562.4</ele>
        <time>2025-09-17T09:17:29Z</time>
      </trkpt>
      <trkpt lat="46.03098" lon="4.54554">
        <ele>562.6</ele>
        <time>2025-09-17T09:17:30Z</time>
      </trkpt>
      <trkpt lat="46.03098" lon="4.54556">
        <ele>563</ele>
        <time>2025-09-17T09:17:31Z</time>
      </trkpt>
      <trkpt lat="46.03099" lon="4.54557">
        <ele>563</ele>
        <time>2025-09-17T09:17:32Z</time>
      </trkpt>
      <trkpt lat="46.031" lon="4.54558">
        <ele>563</ele>
        <time>2025-09-17T09:17:33Z</time>
      </trkpt>
      <trkpt lat="46.03101" lon="4.54559">
        <ele>563.2</ele>
        <time>2025-09-17T09:17:34Z</time>
      </trkpt>
      <trkpt lat="46.03103" lon="4.5456">
        <ele>563.4</ele>
        <time>2025-09-17T09:17:35Z</time>
      </trkpt>
      <trkpt lat="46.03104" lon="4.5456">
        <ele>563.8</ele>
        <time>2025-09-17T09:17:36Z</time>
      </trkpt>
      <trkpt lat="46.03105" lon="4.54561">
        <ele>564</ele>
        <time>2025-09-17T09:17:37Z</time>
      </trkpt>
      <trkpt lat="46.03105" lon="4.54562">
        <ele>564.2</ele>
        <time>2025-09-17T09:17:38Z</time>
      </trkpt>
      <trkpt lat="46.03106" lon="4.54563">
        <ele>564.4</ele>
        <time>2025-09-17T09:17:39Z</time>
      </trkpt>
      <trkpt lat="46.03107" lon="4.54564">
        <ele>564.4</ele>
        <time>2025-09-17T09:17:40Z</time>
      </trkpt>
      <trkpt lat="46.03108" lon="4.54565">
        <ele>564.4</ele>
        <time>2025-09-17T09:17:41Z</time>
      </trkpt>
      <trkpt lat="46.03109" lon="4.54566">
        <ele>564.8</ele>
        <time>2025-09-17T09:17:42Z</time>
      </trkpt>
      <trkpt lat="46.03109" lon="4.54568">
        <ele>565</ele>
        <time>2025-09-17T09:17:43Z</time>
      </trkpt>
      <trkpt lat="46.0311" lon="4.54569">
        <ele>565.2</ele>
        <time>2025-09-17T09:17:44Z</time>
      </trkpt>
      <trkpt lat="46.03111" lon="4.5457">
        <ele>565.4</ele>
        <time>2025-09-17T09:17:45Z</time>
      </trkpt>
      <trkpt lat="46.03112" lon="4.5457">
        <ele>565.8</ele>
        <time>2025-09-17T09:17:46Z</time>
      </trkpt>
      <trkpt lat="46.03113" lon="4.54571">
        <ele>566</ele>
        <time>2025-09-17T09:17:47Z</time>
      </trkpt>
      <trkpt lat="46.03114" lon="4.54572">
        <ele>566.2</ele>
        <time>2025-09-17T09:17:48Z</time>
      </trkpt>
      <trkpt lat="46.03114" lon="4.54573">
        <ele>566.4</ele>
        <time>2025-09-17T09:17:49Z</time>
      </trkpt>
      <trkpt lat="46.03116" lon="4.54574">
        <ele>566.4</ele>
        <time>2025-09-17T09:17:50Z</time>
      </trkpt>
      <trkpt lat="46.03117" lon="4.54575">
        <ele>566.6</ele>
        <time>2025-09-17T09:17:51Z</time>
      </trkpt>
      <trkpt lat="46.03117" lon="4.54575">
        <ele>566.6</ele>
        <time>2025-09-17T09:17:52Z</time>
      </trkpt>
      <trkpt lat="46.03118" lon="4.54575">
        <ele>567</ele>
        <time>2025-09-17T09:17:53Z</time>
      </trkpt>
      <trkpt lat="46.03119" lon="4.54576">
        <ele>567</ele>
        <time>2025-09-17T09:17:54Z</time>
      </trkpt>
      <trkpt lat="46.0312" lon="4.54577">
        <ele>567.2</ele>
        <time>2025-09-17T09:17:55Z</time>
      </trkpt>
      <trkpt lat="46.03121" lon="4.54578">
        <ele>567.6</ele>
        <time>2025-09-17T09:17:56Z</time>
      </trkpt>
      <trkpt lat="46.03121" lon="4.54579">
        <ele>568</ele>
        <time>2025-09-17T09:17:57Z</time>
      </trkpt>
      <trkpt lat="46.03122" lon="4.5458">
        <ele>568</ele>
        <time>2025-09-17T09:17:58Z</time>
      </trkpt>
      <trkpt lat="46.03123" lon="4.5458">
        <ele>568.4</ele>
        <time>2025-09-17T09:17:59Z</time>
      </trkpt>
      <trkpt lat="46.03123" lon="4.54582">
        <ele>568.6</ele>
        <time>2025-09-17T09:18:00Z</time>
      </trkpt>
      <trkpt lat="46.03124" lon="4.54583">
        <ele>568.6</ele>
        <time>2025-09-17T09:18:01Z</time>
      </trkpt>
      <trkpt lat="46.03124" lon="4.54585">
        <ele>569</ele>
        <time>2025-09-17T09:18:02Z</time>
      </trkpt>
      <trkpt lat="46.03124" lon="4.54586">
        <ele>569</ele>
        <time>2025-09-17T09:18:03Z</time>
      </trkpt>
      <trkpt lat="46.03125" lon="4.54587">
        <ele>569.4</ele>
        <time>2025-09-17T09:18:04Z</time>
      </trkpt>
      <trkpt lat="46.03127" lon="4.54589">
        <ele>569.4</ele>
        <time>2025-09-17T09:18:05Z</time>
      </trkpt>
      <trkpt lat="46.03127" lon="4.54591">
        <ele>569.6</ele>
        <time>2025-09-17T09:18:06Z</time>
      </trkpt>
      <trkpt lat="46.03127" lon="4.54594">
        <ele>569.6</ele>
        <time>2025-09-17T09:18:07Z</time>
      </trkpt>
      <trkpt lat="46.03126" lon="4.54596">
        <ele>570</ele>
        <time>2025-09-17T09:18:08Z</time>
      </trkpt>
      <trkpt lat="46.03125" lon="4.54598">
        <ele>570.2</ele>
        <time>2025-09-17T09:18:09Z</time>
      </trkpt>
      <trkpt lat="46.03124" lon="4.546">
        <ele>570.6</ele>
        <time>2025-09-17T09:18:10Z</time>
      </trkpt>
      <trkpt lat="46.03124" lon="4.54602">
        <ele>570.8</ele>
        <time>2025-09-17T09:18:11Z</time>
      </trkpt>
      <trkpt lat="46.03123" lon="4.54604">
        <ele>571</ele>
        <time>2025-09-17T09:18:12Z</time>
      </trkpt>
      <trkpt lat="46.03122" lon="4.54605">
        <ele>571.2</ele>
        <time>2025-09-17T09:18:13Z</time>
      </trkpt>
      <trkpt lat="46.03121" lon="4.54606">
        <ele>571.2</ele>
        <time>2025-09-17T09:18:14Z</time>
      </trkpt>
      <trkpt lat="46.0312" lon="4.54607">
        <ele>571.6</ele>
        <time>2025-09-17T09:18:15Z</time>
      </trkpt>
      <trkpt lat="46.03119" lon="4.54608">
        <ele>571.6</ele>
        <time>2025-09-17T09:18:16Z</time>
      </trkpt>
      <trkpt lat="46.03119" lon="4.54609">
        <ele>572</ele>
        <time>2025-09-17T09:18:17Z</time>
      </trkpt>
      <trkpt lat="46.03118" lon="4.54611">
        <ele>572.2</ele>
        <time>2025-09-17T09:18:18Z</time>
      </trkpt>
      <trkpt lat="46.03117" lon="4.54612">
        <ele>572.6</ele>
        <time>2025-09-17T09:18:19Z</time>
      </trkpt>
      <trkpt lat="46.03117" lon="4.54613">
        <ele>572.8</ele>
        <time>2025-09-17T09:18:20Z</time>
      </trkpt>
      <trkpt lat="46.03116" lon="4.54614">
        <ele>573</ele>
        <time>2025-09-17T09:18:21Z</time>
      </trkpt>
      <trkpt lat="46.03115" lon="4.54615">
        <ele>573.2</ele>
        <time>2025-09-17T09:18:22Z</time>
      </trkpt>
      <trkpt lat="46.03114" lon="4.54616">
        <ele>573.6</ele>
        <time>2025-09-17T09:18:23Z</time>
      </trkpt>
      <trkpt lat="46.03113" lon="4.54617">
        <ele>573.6</ele>
        <time>2025-09-17T09:18:24Z</time>
      </trkpt>
      <trkpt lat="46.03113" lon="4.54619">
        <ele>573.8</ele>
        <time>2025-09-17T09:18:25Z</time>
      </trkpt>
      <trkpt lat="46.03112" lon="4.5462">
        <ele>574</ele>
        <time>2025-09-17T09:18:26Z</time>
      </trkpt>
      <trkpt lat="46.03111" lon="4.54621">
        <ele>574</ele>
        <time>2025-09-17T09:18:27Z</time>
      </trkpt>
      <trkpt lat="46.0311" lon="4.54622">
        <ele>574.4</ele>
        <time>2025-09-17T09:18:28Z</time>
      </trkpt>
      <trkpt lat="46.03109" lon="4.54622">
        <ele>574.4</ele>
        <time>2025-09-17T09:18:29Z</time>
      </trkpt>
      <trkpt lat="46.03108" lon="4.54623">
        <ele>574.6</ele>
        <time>2025-09-17T09:18:30Z</time>
      </trkpt>
      <trkpt lat="46.03107" lon="4.54624">
        <ele>574.8</ele>
        <time>2025-09-17T09:18:31Z</time>
      </trkpt>
      <trkpt lat="46.03107" lon="4.54626">
        <ele>574.8</ele>
        <time>2025-09-17T09:18:32Z</time>
      </trkpt>
      <trkpt lat="46.03106" lon="4.54627">
        <ele>575.2</ele>
        <time>2025-09-17T09:18:33Z</time>
      </trkpt>
      <trkpt lat="46.03105" lon="4.54628">
        <ele>575.2</ele>
        <time>2025-09-17T09:18:34Z</time>
      </trkpt>
      <trkpt lat="46.03104" lon="4.54629">
        <ele>575.2</ele>
        <time>2025-09-17T09:18:35Z</time>
      </trkpt>
      <trkpt lat="46.03103" lon="4.5463">
        <ele>575.8</ele>
        <time>2025-09-17T09:18:36Z</time>
      </trkpt>
      <trkpt lat="46.03103" lon="4.54631">
        <ele>575.8</ele>
        <time>2025-09-17T09:18:37Z</time>
      </trkpt>
      <trkpt lat="46.03102" lon="4.54632">
        <ele>575.8</ele>
        <time>2025-09-17T09:18:38Z</time>
      </trkpt>
      <trkpt lat="46.03101" lon="4.54634">
        <ele>576</ele>
        <time>2025-09-17T09:18:39Z</time>
      </trkpt>
      <trkpt lat="46.03101" lon="4.54636">
        <ele>576</ele>
        <time>2025-09-17T09:18:40Z</time>
      </trkpt>
      <trkpt lat="46.03101" lon="4.54637">
        <ele>576.2</ele>
        <time>2025-09-17T09:18:41Z</time>
      </trkpt>
      <trkpt lat="46.031" lon="4.54638">
        <ele>576.6</ele>
        <time>2025-09-17T09:18:42Z</time>
      </trkpt>
      <trkpt lat="46.03099" lon="4.54639">
        <ele>576.6</ele>
        <time>2025-09-17T09:18:43Z</time>
      </trkpt>
      <trkpt lat="46.03097" lon="4.5464">
        <ele>576.8</ele>
        <time>2025-09-17T09:18:44Z</time>
      </trkpt>
      <trkpt lat="46.03097" lon="4.54641">
        <ele>576.8</ele>
        <time>2025-09-17T09:18:45Z</time>
      </trkpt>
      <trkpt lat="46.03096" lon="4.54642">
        <ele>577.2</ele>
        <time>2025-09-17T09:18:46Z</time>
      </trkpt>
      <trkpt lat="46.03096" lon="4.54643">
        <ele>577.2</ele>
        <time>2025-09-17T09:18:47Z</time>
      </trkpt>
      <trkpt lat="46.03095" lon="4.54644">
        <ele>577.4</ele>
        <time>2025-09-17T09:18:48Z</time>
      </trkpt>
      <trkpt lat="46.03094" lon="4.54646">
        <ele>577.4</ele>
        <time>2025-09-17T09:18:49Z</time>
      </trkpt>
      <trkpt lat="46.03094" lon="4.54647">
        <ele>577.8</ele>
        <time>2025-09-17T09:18:50Z</time>
      </trkpt>
      <trkpt lat="46.03093" lon="4.54648">
        <ele>578</ele>
        <time>2025-09-17T09:18:51Z</time>
      </trkpt>
      <trkpt lat="46.03092" lon="4.5465">
        <ele>578.4</ele>
        <time>2025-09-17T09:18:52Z</time>
      </trkpt>
      <trkpt lat="46.03092" lon="4.54651">
        <ele>578.6</ele>
        <time>2025-09-17T09:18:53Z</time>
      </trkpt>
      <trkpt lat="46.03092" lon="4.54652">
        <ele>578.8</ele>
        <time>2025-09-17T09:18:54Z</time>
      </trkpt>
      <trkpt lat="46.03091" lon="4.54654">
        <ele>578.8</ele>
        <time>2025-09-17T09:18:55Z</time>
      </trkpt>
      <trkpt lat="46.0309" lon="4.54655">
        <ele>578.8</ele>
        <time>2025-09-17T09:18:56Z</time>
      </trkpt>
      <trkpt lat="46.0309" lon="4.54656">
        <ele>579.2</ele>
        <time>2025-09-17T09:18:57Z</time>
      </trkpt>
      <trkpt lat="46.03089" lon="4.54657">
        <ele>579.6</ele>
        <time>2025-09-17T09:18:58Z</time>
      </trkpt>
      <trkpt lat="46.03089" lon="4.54658">
        <ele>579.8</ele>
        <time>2025-09-17T09:18:59Z</time>
      </trkpt>
      <trkpt lat="46.03088" lon="4.54659">
        <ele>580</ele>
        <time>2025-09-17T09:19:00Z</time>
      </trkpt>
      <trkpt lat="46.03088" lon="4.54661">
        <ele>580.2</ele>
        <time>2025-09-17T09:19:01Z</time>
      </trkpt>
      <trkpt lat="46.03088" lon="4.54663">
        <ele>580.2</ele>
        <time>2025-09-17T09:19:02Z</time>
      </trkpt>
      <trkpt lat="46.03087" lon="4.54665">
        <ele>580.6</ele>
        <time>2025-09-17T09:19:03Z</time>
      </trkpt>
      <trkpt lat="46.03086" lon="4.54666">
        <ele>580.8</ele>
        <time>2025-09-17T09:19:04Z</time>
      </trkpt>
      <trkpt lat="46.03086" lon="4.54668">
        <ele>581</ele>
        <time>2025-09-17T09:19:05Z</time>
      </trkpt>
      <trkpt lat="46.03085" lon="4.54669">
        <ele>581.2</ele>
        <time>2025-09-17T09:19:06Z</time>
      </trkpt>
      <trkpt lat="46.03085" lon="4.54671">
        <ele>581.2</ele>
        <time>2025-09-17T09:19:07Z</time>
      </trkpt>
      <trkpt lat="46.03084" lon="4.54672">
        <ele>581.2</ele>
        <time>2025-09-17T09:19:08Z</time>
      </trkpt>
      <trkpt lat="46.03084" lon="4.54674">
        <ele>581.6</ele>
        <time>2025-09-17T09:19:09Z</time>
      </trkpt>
      <trkpt lat="46.03083" lon="4.54675">
        <ele>581.8</ele>
        <time>2025-09-17T09:19:10Z</time>
      </trkpt>
      <trkpt lat="46.03083" lon="4.54677">
        <ele>581.8</ele>
        <time>2025-09-17T09:19:11Z</time>
      </trkpt>
      <trkpt lat="46.03082" lon="4.54679">
        <ele>582</ele>
        <time>2025-09-17T09:19:12Z</time>
      </trkpt>
      <trkpt lat="46.03081" lon="4.54681">
        <ele>582.2</ele>
        <time>2025-09-17T09:19:13Z</time>
      </trkpt>
      <trkpt lat="46.0308" lon="4.54682">
        <ele>582.4</ele>
        <time>2025-09-17T09:19:14Z</time>
      </trkpt>
      <trkpt lat="46.0308" lon="4.54684">
        <ele>582.4</ele>
        <time>2025-09-17T09:19:15Z</time>
      </trkpt>
      <trkpt lat="46.03079" lon="4.54686">
        <ele>582.8</ele>
        <time>2025-09-17T09:19:16Z</time>
      </trkpt>
      <trkpt lat="46.0308" lon="4.54688">
        <ele>583.2</ele>
        <time>2025-09-17T09:19:17Z</time>
      </trkpt>
      <trkpt lat="46.03079" lon="4.5469">
        <ele>583.2</ele>
        <time>2025-09-17T09:19:18Z</time>
      </trkpt>
      <trkpt lat="46.03079" lon="4.54692">
        <ele>583.4</ele>
        <time>2025-09-17T09:19:19Z</time>
      </trkpt>
      <trkpt lat="46.03079" lon="4.54694">
        <ele>583.4</ele>
        <time>2025-09-17T09:19:20Z</time>
      </trkpt>
      <trkpt lat="46.03078" lon="4.54695">
        <ele>583.8</ele>
        <time>2025-09-17T09:19:21Z</time>
      </trkpt>
      <trkpt lat="46.03078" lon="4.54696">
        <ele>584</ele>
        <time>2025-09-17T09:19:22Z</time>
      </trkpt>
      <trkpt lat="46.03077" lon="4.54698">
        <ele>584</ele>
        <time>2025-09-17T09:19:23Z</time>
      </trkpt>
      <trkpt lat="46.03076" lon="4.547">
        <ele>584.4</ele>
        <time>2025-09-17T09:19:24Z</time>
      </trkpt>
      <trkpt lat="46.03076" lon="4.54702">
        <ele>584.4</ele>
        <time>2025-09-17T09:19:25Z</time>
      </trkpt>
      <trkpt lat="46.03076" lon="4.54703">
        <ele>584.8</ele>
        <time>2025-09-17T09:19:26Z</time>
      </trkpt>
      <trkpt lat="46.03075" lon="4.54705">
        <ele>584.8</ele>
        <time>2025-09-17T09:19:27Z</time>
      </trkpt>
      <trkpt lat="46.03075" lon="4.54707">
        <ele>585</ele>
        <time>2025-09-17T09:19:28Z</time>
      </trkpt>
      <trkpt lat="46.03075" lon="4.54708">
        <ele>585</ele>
        <time>2025-09-17T09:19:29Z</time>
      </trkpt>
      <trkpt lat="46.03075" lon="4.5471">
        <ele>585.4</ele>
        <time>2025-09-17T09:19:30Z</time>
      </trkpt>
      <trkpt lat="46.03075" lon="4.54712">
        <ele>585.4</ele>
        <time>2025-09-17T09:19:31Z</time>
      </trkpt>
      <trkpt lat="46.03074" lon="4.54714">
        <ele>585.8</ele>
        <time>2025-09-17T09:19:32Z</time>
      </trkpt>
      <trkpt lat="46.03074" lon="4.54715">
        <ele>585.8</ele>
        <time>2025-09-17T09:19:33Z</time>
      </trkpt>
      <trkpt lat="46.03074" lon="4.54716">
        <ele>586</ele>
        <time>2025-09-17T09:19:34Z</time>
      </trkpt>
      <trkpt lat="46.03073" lon="4.54718">
        <ele>586.2</ele>
        <time>2025-09-17T09:19:35Z</time>
      </trkpt>
      <trkpt lat="46.03072" lon="4.5472">
        <ele>586.2</ele>
        <time>2025-09-17T09:19:36Z</time>
      </trkpt>
      <trkpt lat="46.03072" lon="4.54721">
        <ele>586.2</ele>
        <time>2025-09-17T09:19:37Z</time>
      </trkpt>
      <trkpt lat="46.03072" lon="4.54722">
        <ele>586.4</ele>
        <time>2025-09-17T09:19:38Z</time>
      </trkpt>
      <trkpt lat="46.03071" lon="4.54724">
        <ele>586.4</ele>
        <time>2025-09-17T09:19:39Z</time>
      </trkpt>
      <trkpt lat="46.03071" lon="4.54726">
        <ele>586.4</ele>
        <time>2025-09-17T09:19:40Z</time>
      </trkpt>
      <trkpt lat="46.0307" lon="4.54728">
        <ele>586.8</ele>
        <time>2025-09-17T09:19:41Z</time>
      </trkpt>
      <trkpt lat="46.0307" lon="4.5473">
        <ele>587</ele>
        <time>2025-09-17T09:19:42Z</time>
      </trkpt>
      <trkpt lat="46.0307" lon="4.54732">
        <ele>587.2</ele>
        <time>2025-09-17T09:19:43Z</time>
      </trkpt>
      <trkpt lat="46.0307" lon="4.54733">
        <ele>587.2</ele>
        <time>2025-09-17T09:19:44Z</time>
      </trkpt>
      <trkpt lat="46.03069" lon="4.54735">
        <ele>587.6</ele>
        <time>2025-09-17T09:19:45Z</time>
      </trkpt>
      <trkpt lat="46.03069" lon="4.54736">
        <ele>587.8</ele>
        <time>2025-09-17T09:19:46Z</time>
      </trkpt>
      <trkpt lat="46.03069" lon="4.54738">
        <ele>587.8</ele>
        <time>2025-09-17T09:19:47Z</time>
      </trkpt>
      <trkpt lat="46.03068" lon="4.54739">
        <ele>588.2</ele>
        <time>2025-09-17T09:19:48Z</time>
      </trkpt>
      <trkpt lat="46.03068" lon="4.54741">
        <ele>588.6</ele>
        <time>2025-09-17T09:19:49Z</time>
      </trkpt>
      <trkpt lat="46.03067" lon="4.54742">
        <ele>588.6</ele>
        <time>2025-09-17T09:19:50Z</time>
      </trkpt>
      <trkpt lat="46.03067" lon="4.54743">
        <ele>588.8</ele>
        <time>2025-09-17T09:19:51Z</time>
      </trkpt>
      <trkpt lat="46.03067" lon="4.54745">
        <ele>588.8</ele>
        <time>2025-09-17T09:19:52Z</time>
      </trkpt>
      <trkpt lat="46.03067" lon="4.54747">
        <ele>589.2</ele>
        <time>2025-09-17T09:19:53Z</time>
      </trkpt>
      <trkpt lat="46.03066" lon="4.54749">
        <ele>589.4</ele>
        <time>2025-09-17T09:19:54Z</time>
      </trkpt>
      <trkpt lat="46.03066" lon="4.5475">
        <ele>589.4</ele>
        <time>2025-09-17T09:19:55Z</time>
      </trkpt>
      <trkpt lat="46.03065" lon="4.54751">
        <ele>589.8</ele>
        <time>2025-09-17T09:19:56Z</time>
      </trkpt>
      <trkpt lat="46.03064" lon="4.54753">
        <ele>589.8</ele>
        <time>2025-09-17T09:19:57Z</time>
      </trkpt>
      <trkpt lat="46.03064" lon="4.54754">
        <ele>590.2</ele>
        <time>2025-09-17T09:19:58Z</time>
      </trkpt>
      <trkpt lat="46.03063" lon="4.54756">
        <ele>590.2</ele>
        <time>2025-09-17T09:19:59Z</time>
      </trkpt>
      <trkpt lat="46.03063" lon="4.54757">
        <ele>590.4</ele>
        <time>2025-09-17T09:20:00Z</time>
      </trkpt>
      <trkpt lat="46.03063" lon="4.54759">
        <ele>590.4</ele>
        <time>2025-09-17T09:20:01Z</time>
      </trkpt>
      <trkpt lat="46.03062" lon="4.54761">
        <ele>590.8</ele>
        <time>2025-09-17T09:20:02Z</time>
      </trkpt>
      <trkpt lat="46.03062" lon="4.54763">
        <ele>590.8</ele>
        <time>2025-09-17T09:20:03Z</time>
      </trkpt>
      <trkpt lat="46.03061" lon="4.54765">
        <ele>591</ele>
        <time>2025-09-17T09:20:04Z</time>
      </trkpt>
      <trkpt lat="46.03061" lon="4.54766">
        <ele>591</ele>
        <time>2025-09-17T09:20:05Z</time>
      </trkpt>
      <trkpt lat="46.0306" lon="4.54768">
        <ele>591.2</ele>
        <time>2025-09-17T09:20:06Z</time>
      </trkpt>
      <trkpt lat="46.03059" lon="4.5477">
        <ele>591.2</ele>
        <time>2025-09-17T09:20:07Z</time>
      </trkpt>
      <trkpt lat="46.03059" lon="4.54771">
        <ele>591.6</ele>
        <time>2025-09-17T09:20:08Z</time>
      </trkpt>
      <trkpt lat="46.03059" lon="4.54773">
        <ele>591.8</ele>
        <time>2025-09-17T09:20:09Z</time>
      </trkpt>
      <trkpt lat="46.03059" lon="4.54775">
        <ele>592</ele>
        <time>2025-09-17T09:20:10Z</time>
      </trkpt>
      <trkpt lat="46.03059" lon="4.54776">
        <ele>592</ele>
        <time>2025-09-17T09:20:11Z</time>
      </trkpt>
      <trkpt lat="46.03059" lon="4.54778">
        <ele>592.2</ele>
        <time>2025-09-17T09:20:12Z</time>
      </trkpt>
      <trkpt lat="46.03059" lon="4.54779">
        <ele>592.2</ele>
        <time>2025-09-17T09:20:13Z</time>
      </trkpt>
      <trkpt lat="46.03059" lon="4.54781">
        <ele>592.6</ele>
        <time>2025-09-17T09:20:14Z</time>
      </trkpt>
      <trkpt lat="46.03058" lon="4.54783">
        <ele>592.6</ele>
        <time>2025-09-17T09:20:15Z</time>
      </trkpt>
      <trkpt lat="46.03058" lon="4.54784">
        <ele>592.6</ele>
        <time>2025-09-17T09:20:16Z</time>
      </trkpt>
      <trkpt lat="46.03057" lon="4.54786">
        <ele>592.8</ele>
        <time>2025-09-17T09:20:17Z</time>
      </trkpt>
      <trkpt lat="46.03056" lon="4.54788">
        <ele>593</ele>
        <time>2025-09-17T09:20:18Z</time>
      </trkpt>
      <trkpt lat="46.03055" lon="4.5479">
        <ele>593.2</ele>
        <time>2025-09-17T09:20:19Z</time>
      </trkpt>
      <trkpt lat="46.03055" lon="4.54792">
        <ele>593.2</ele>
        <time>2025-09-17T09:20:20Z</time>
      </trkpt>
      <trkpt lat="46.03054" lon="4.54794">
        <ele>593.4</ele>
        <time>2025-09-17T09:20:21Z</time>
      </trkpt>
      <trkpt lat="46.03054" lon="4.54796">
        <ele>593.4</ele>
        <time>2025-09-17T09:20:22Z</time>
      </trkpt>
      <trkpt lat="46.03054" lon="4.54797">
        <ele>593.4</ele>
        <time>2025-09-17T09:20:23Z</time>
      </trkpt>
      <trkpt lat="46.03053" lon="4.54799">
        <ele>593.8</ele>
        <time>2025-09-17T09:20:24Z</time>
      </trkpt>
      <trkpt lat="46.03053" lon="4.548">
        <ele>593.8</ele>
        <time>2025-09-17T09:20:25Z</time>
      </trkpt>
      <trkpt lat="46.03053" lon="4.54802">
        <ele>594.2</ele>
        <time>2025-09-17T09:20:26Z</time>
      </trkpt>
      <trkpt lat="46.03052" lon="4.54804">
        <ele>594.2</ele>
        <time>2025-09-17T09:20:27Z</time>
      </trkpt>
      <trkpt lat="46.03052" lon="4.54806">
        <ele>594.2</ele>
        <time>2025-09-17T09:20:28Z</time>
      </trkpt>
      <trkpt lat="46.03051" lon="4.54807">
        <ele>594.4</ele>
        <time>2025-09-17T09:20:29Z</time>
      </trkpt>
      <trkpt lat="46.03051" lon="4.54808">
        <ele>594.4</ele>
        <time>2025-09-17T09:20:30Z</time>
      </trkpt>
      <trkpt lat="46.03051" lon="4.5481">
        <ele>594.6</ele>
        <time>2025-09-17T09:20:31Z</time>
      </trkpt>
      <trkpt lat="46.03051" lon="4.54811">
        <ele>594.6</ele>
        <time>2025-09-17T09:20:32Z</time>
      </trkpt>
      <trkpt lat="46.0305" lon="4.54813">
        <ele>594.8</ele>
        <time>2025-09-17T09:20:33Z</time>
      </trkpt>
      <trkpt lat="46.0305" lon="4.54815">
        <ele>594.8</ele>
        <time>2025-09-17T09:20:34Z</time>
      </trkpt>
      <trkpt lat="46.03049" lon="4.54817">
        <ele>595.2</ele>
        <time>2025-09-17T09:20:35Z</time>
      </trkpt>
      <trkpt lat="46.03049" lon="4.54819">
        <ele>595.4</ele>
        <time>2025-09-17T09:20:36Z</time>
      </trkpt>
      <trkpt lat="46.03048" lon="4.54821">
        <ele>595.4</ele>
        <time>2025-09-17T09:20:37Z</time>
      </trkpt>
      <trkpt lat="46.03047" lon="4.54822">
        <ele>595.8</ele>
        <time>2025-09-17T09:20:38Z</time>
      </trkpt>
      <trkpt lat="46.03047" lon="4.54824">
        <ele>596</ele>
        <time>2025-09-17T09:20:39Z</time>
      </trkpt>
      <trkpt lat="46.03046" lon="4.54825">
        <ele>596.2</ele>
        <time>2025-09-17T09:20:40Z</time>
      </trkpt>
      <trkpt lat="46.03046" lon="4.54827">
        <ele>596.2</ele>
        <time>2025-09-17T09:20:41Z</time>
      </trkpt>
      <trkpt lat="46.03045" lon="4.54829">
        <ele>596.4</ele>
        <time>2025-09-17T09:20:42Z</time>
      </trkpt>
      <trkpt lat="46.03044" lon="4.54831">
        <ele>596.6</ele>
        <time>2025-09-17T09:20:43Z</time>
      </trkpt>
      <trkpt lat="46.03044" lon="4.54833">
        <ele>597</ele>
        <time>2025-09-17T09:20:44Z</time>
      </trkpt>
      <trkpt lat="46.03043" lon="4.54835">
        <ele>597</ele>
        <time>2025-09-17T09:20:45Z</time>
      </trkpt>
      <trkpt lat="46.03042" lon="4.54837">
        <ele>597</ele>
        <time>2025-09-17T09:20:46Z</time>
      </trkpt>
      <trkpt lat="46.03041" lon="4.54839">
        <ele>597</ele>
        <time>2025-09-17T09:20:47Z</time>
      </trkpt>
      <trkpt lat="46.03041" lon="4.54841">
        <ele>597</ele>
        <time>2025-09-17T09:20:48Z</time>
      </trkpt>
      <trkpt lat="46.0304" lon="4.54843">
        <ele>597.2</ele>
        <time>2025-09-17T09:20:49Z</time>
      </trkpt>
      <trkpt lat="46.03039" lon="4.54845">
        <ele>597.2</ele>
        <time>2025-09-17T09:20:50Z</time>
      </trkpt>
      <trkpt lat="46.03038" lon="4.54847">
        <ele>597.2</ele>
        <time>2025-09-17T09:20:51Z</time>
      </trkpt>
      <trkpt lat="46.03037" lon="4.5485">
        <ele>597.4</ele>
        <time>2025-09-17T09:20:52Z</time>
      </trkpt>
      <trkpt lat="46.03036" lon="4.54852">
        <ele>597.4</ele>
        <time>2025-09-17T09:20:53Z</time>
      </trkpt>
      <trkpt lat="46.03035" lon="4.54854">
        <ele>597.8</ele>
        <time>2025-09-17T09:20:54Z</time>
      </trkpt>
      <trkpt lat="46.03034" lon="4.54856">
        <ele>598</ele>
        <time>2025-09-17T09:20:55Z</time>
      </trkpt>
      <trkpt lat="46.03034" lon="4.54858">
        <ele>598</ele>
        <time>2025-09-17T09:20:56Z</time>
      </trkpt>
      <trkpt lat="46.03033" lon="4.5486">
        <ele>598</ele>
        <time>2025-09-17T09:20:57Z</time>
      </trkpt>
      <trkpt lat="46.03033" lon="4.54862">
        <ele>598.2</ele>
        <time>2025-09-17T09:20:58Z</time>
      </trkpt>
      <trkpt lat="46.03033" lon="4.54865">
        <ele>598.2</ele>
        <time>2025-09-17T09:20:59Z</time>
      </trkpt>
      <trkpt lat="46.03033" lon="4.54868">
        <ele>598.2</ele>
        <time>2025-09-17T09:21:00Z</time>
      </trkpt>
      <trkpt lat="46.03032" lon="4.5487">
        <ele>598.6</ele>
        <time>2025-09-17T09:21:01Z</time>
      </trkpt>
      <trkpt lat="46.03031" lon="4.54872">
        <ele>598.6</ele>
        <time>2025-09-17T09:21:02Z</time>
      </trkpt>
      <trkpt lat="46.0303" lon="4.54874">
        <ele>599</ele>
        <time>2025-09-17T09:21:03Z</time>
      </trkpt>
      <trkpt lat="46.03029" lon="4.54876">
        <ele>599.2</ele>
        <time>2025-09-17T09:21:04Z</time>
      </trkpt>
      <trkpt lat="46.03028" lon="4.54878">
        <ele>599.2</ele>
        <time>2025-09-17T09:21:05Z</time>
      </trkpt>
      <trkpt lat="46.03027" lon="4.5488">
        <ele>599.2</ele>
        <time>2025-09-17T09:21:06Z</time>
      </trkpt>
      <trkpt lat="46.03026" lon="4.54883">
        <ele>599.6</ele>
        <time>2025-09-17T09:21:07Z</time>
      </trkpt>
      <trkpt lat="46.03025" lon="4.54886">
        <ele>599.6</ele>
        <time>2025-09-17T09:21:08Z</time>
      </trkpt>
      <trkpt lat="46.03023" lon="4.54888">
        <ele>599.6</ele>
        <time>2025-09-17T09:21:09Z</time>
      </trkpt>
      <trkpt lat="46.03023" lon="4.5489">
        <ele>599.8</ele>
        <time>2025-09-17T09:21:10Z</time>
      </trkpt>
      <trkpt lat="46.03022" lon="4.54893">
        <ele>599.8</ele>
        <time>2025-09-17T09:21:11Z</time>
      </trkpt>
      <trkpt lat="46.03022" lon="4.54895">
        <ele>599.8</ele>
        <time>2025-09-17T09:21:12Z</time>
      </trkpt>
      <trkpt lat="46.03022" lon="4.54897">
        <ele>599.8</ele>
        <time>2025-09-17T09:21:13Z</time>
      </trkpt>
      <trkpt lat="46.03021" lon="4.549">
        <ele>599.8</ele>
        <time>2025-09-17T09:21:14Z</time>
      </trkpt>
      <trkpt lat="46.03021" lon="4.54903">
        <ele>600</ele>
        <time>2025-09-17T09:21:15Z</time>
      </trkpt>
      <trkpt lat="46.0302" lon="4.54906">
        <ele>600</ele>
        <time>2025-09-17T09:21:16Z</time>
      </trkpt>
      <trkpt lat="46.03019" lon="4.54909">
        <ele>600</ele>
        <time>2025-09-17T09:21:17Z</time>
      </trkpt>
      <trkpt lat="46.03019" lon="4.54913">
        <ele>600</ele>
        <time>2025-09-17T09:21:18Z</time>
      </trkpt>
      <trkpt lat="46.03018" lon="4.54916">
        <ele>600</ele>
        <time>2025-09-17T09:21:19Z</time>
      </trkpt>
      <trkpt lat="46.03017" lon="4.5492">
        <ele>600</ele>
        <time>2025-09-17T09:21:20Z</time>
      </trkpt>
      <trkpt lat="46.03016" lon="4.54924">
        <ele>600</ele>
        <time>2025-09-17T09:21:21Z</time>
      </trkpt>
      <trkpt lat="46.03015" lon="4.54928">
        <ele>600</ele>
        <time>2025-09-17T09:21:22Z</time>
      </trkpt>
      <trkpt lat="46.03015" lon="4.54933">
        <ele>600</ele>
        <time>2025-09-17T09:21:23Z</time>
      </trkpt>
      <trkpt lat="46.03014" lon="4.54937">
        <ele>600</ele>
        <time>2025-09-17T09:21:24Z</time>
      </trkpt>
      <trkpt lat="46.03014" lon="4.54941">
        <ele>600.4</ele>
        <time>2025-09-17T09:21:25Z</time>
      </trkpt>
      <trkpt lat="46.03013" lon="4.54944">
        <ele>600.4</ele>
        <time>2025-09-17T09:21:26Z</time>
      </trkpt>
      <trkpt lat="46.03012" lon="4.54948">
        <ele>600.4</ele>
        <time>2025-09-17T09:21:27Z</time>
      </trkpt>
      <trkpt lat="46.03012" lon="4.54948">
        <ele>600.4</ele>
        <time>2025-09-17T09:21:28Z</time>
      </trkpt>
      <trkpt lat="46.03012" lon="4.54948">
        <ele>600.8</ele>
        <time>2025-09-17T09:21:29Z</time>
      </trkpt>
      <trkpt lat="46.03012" lon="4.54948">
        <ele>600.8</ele>
        <time>2025-09-17T09:21:30Z</time>
      </trkpt>
      <trkpt lat="46.0301" lon="4.54963">
        <ele>600.8</ele>
        <time>2025-09-17T09:21:32Z</time>
      </trkpt>
      <trkpt lat="46.0301" lon="4.54967">
        <ele>600.8</ele>
        <time>2025-09-17T09:21:33Z</time>
      </trkpt>
      <trkpt lat="46.03009" lon="4.54971">
        <ele>600.8</ele>
        <time>2025-09-17T09:21:34Z</time>
      </trkpt>
      <trkpt lat="46.03009" lon="4.54975">
        <ele>600.8</ele>
        <time>2025-09-17T09:21:35Z</time>
      </trkpt>
      <trkpt lat="46.03008" lon="4.54979">
        <ele>600.8</ele>
        <time>2025-09-17T09:21:36Z</time>
      </trkpt>
      <trkpt lat="46.03008" lon="4.54982">
        <ele>601.2</ele>
        <time>2025-09-17T09:21:37Z</time>
      </trkpt>
      <trkpt lat="46.03007" lon="4.54986">
        <ele>601.2</ele>
        <time>2025-09-17T09:21:38Z</time>
      </trkpt>
      <trkpt lat="46.03007" lon="4.5499">
        <ele>601.4</ele>
        <time>2025-09-17T09:21:39Z</time>
      </trkpt>
      <trkpt lat="46.03007" lon="4.54992">
        <ele>601.4</ele>
        <time>2025-09-17T09:21:40Z</time>
      </trkpt>
      <trkpt lat="46.03007" lon="4.54995">
        <ele>601.8</ele>
        <time>2025-09-17T09:21:41Z</time>
      </trkpt>
      <trkpt lat="46.03007" lon="4.54998">
        <ele>601.8</ele>
        <time>2025-09-17T09:21:42Z</time>
      </trkpt>
      <trkpt lat="46.03007" lon="4.55001">
        <ele>602</ele>
        <time>2025-09-17T09:21:43Z</time>
      </trkpt>
      <trkpt lat="46.03007" lon="4.55004">
        <ele>602.2</ele>
        <time>2025-09-17T09:21:44Z</time>
      </trkpt>
      <trkpt lat="46.03006" lon="4.55006">
        <ele>602.2</ele>
        <time>2025-09-17T09:21:45Z</time>
      </trkpt>
      <trkpt lat="46.03006" lon="4.55009">
        <ele>602.2</ele>
        <time>2025-09-17T09:21:46Z</time>
      </trkpt>
      <trkpt lat="46.03005" lon="4.55012">
        <ele>602.8</ele>
        <time>2025-09-17T09:21:47Z</time>
      </trkpt>
      <trkpt lat="46.03005" lon="4.55014">
        <ele>603</ele>
        <time>2025-09-17T09:21:48Z</time>
      </trkpt>
      <trkpt lat="46.03004" lon="4.55017">
        <ele>603</ele>
        <time>2025-09-17T09:21:49Z</time>
      </trkpt>
      <trkpt lat="46.03004" lon="4.55019">
        <ele>603.4</ele>
        <time>2025-09-17T09:21:50Z</time>
      </trkpt>
      <trkpt lat="46.03003" lon="4.55022">
        <ele>603.4</ele>
        <time>2025-09-17T09:21:51Z</time>
      </trkpt>
      <trkpt lat="46.03003" lon="4.55025">
        <ele>603.6</ele>
        <time>2025-09-17T09:21:52Z</time>
      </trkpt>
      <trkpt lat="46.03003" lon="4.55028">
        <ele>604</ele>
        <time>2025-09-17T09:21:53Z</time>
      </trkpt>
      <trkpt lat="46.03003" lon="4.5503">
        <ele>604.4</ele>
        <time>2025-09-17T09:21:54Z</time>
      </trkpt>
      <trkpt lat="46.03002" lon="4.55032">
        <ele>604.4</ele>
        <time>2025-09-17T09:21:55Z</time>
      </trkpt>
      <trkpt lat="46.03001" lon="4.55034">
        <ele>604.6</ele>
        <time>2025-09-17T09:21:56Z</time>
      </trkpt>
      <trkpt lat="46.03001" lon="4.55035">
        <ele>604.6</ele>
        <time>2025-09-17T09:21:57Z</time>
      </trkpt>
      <trkpt lat="46.03" lon="4.55037">
        <ele>605</ele>
        <time>2025-09-17T09:21:58Z</time>
      </trkpt>
      <trkpt lat="46.02999" lon="4.55039">
        <ele>605</ele>
        <time>2025-09-17T09:21:59Z</time>
      </trkpt>
      <trkpt lat="46.02999" lon="4.55039">
        <ele>605.4</ele>
        <time>2025-09-17T09:22:00Z</time>
      </trkpt>
      <trkpt lat="46.02999" lon="4.55039">
        <ele>605.6</ele>
        <time>2025-09-17T09:22:01Z</time>
      </trkpt>
      <trkpt lat="46.02998" lon="4.55044">
        <ele>605.6</ele>
        <time>2025-09-17T09:22:02Z</time>
      </trkpt>
      <trkpt lat="46.02997" lon="4.55045">
        <ele>605.8</ele>
        <time>2025-09-17T09:22:03Z</time>
      </trkpt>
      <trkpt lat="46.02997" lon="4.55047">
        <ele>605.8</ele>
        <time>2025-09-17T09:22:04Z</time>
      </trkpt>
      <trkpt lat="46.02996" lon="4.55048">
        <ele>606.2</ele>
        <time>2025-09-17T09:22:05Z</time>
      </trkpt>
      <trkpt lat="46.02996" lon="4.5505">
        <ele>606.2</ele>
        <time>2025-09-17T09:22:06Z</time>
      </trkpt>
      <trkpt lat="46.02995" lon="4.55052">
        <ele>606.6</ele>
        <time>2025-09-17T09:22:07Z</time>
      </trkpt>
      <trkpt lat="46.02994" lon="4.55054">
        <ele>606.6</ele>
        <time>2025-09-17T09:22:08Z</time>
      </trkpt>
      <trkpt lat="46.02994" lon="4.55056">
        <ele>607</ele>
        <time>2025-09-17T09:22:09Z</time>
      </trkpt>
      <trkpt lat="46.02993" lon="4.55057">
        <ele>607.2</ele>
        <time>2025-09-17T09:22:10Z</time>
      </trkpt>
      <trkpt lat="46.02992" lon="4.55059">
        <ele>607.2</ele>
        <time>2025-09-17T09:22:11Z</time>
      </trkpt>
      <trkpt lat="46.02992" lon="4.55061">
        <ele>607.6</ele>
        <time>2025-09-17T09:22:12Z</time>
      </trkpt>
      <trkpt lat="46.02991" lon="4.55063">
        <ele>607.8</ele>
        <time>2025-09-17T09:22:13Z</time>
      </trkpt>
      <trkpt lat="46.0299" lon="4.55064">
        <ele>608.2</ele>
        <time>2025-09-17T09:22:14Z</time>
      </trkpt>
      <trkpt lat="46.0299" lon="4.55066">
        <ele>608.6</ele>
        <time>2025-09-17T09:22:15Z</time>
      </trkpt>
      <trkpt lat="46.02989" lon="4.55067">
        <ele>609</ele>
        <time>2025-09-17T09:22:16Z</time>
      </trkpt>
      <trkpt lat="46.02989" lon="4.55069">
        <ele>609.4</ele>
        <time>2025-09-17T09:22:17Z</time>
      </trkpt>
      <trkpt lat="46.02989" lon="4.55071">
        <ele>609.4</ele>
        <time>2025-09-17T09:22:18Z</time>
      </trkpt>
      <trkpt lat="46.02989" lon="4.55073">
        <ele>609.6</ele>
        <time>2025-09-17T09:22:19Z</time>
      </trkpt>
      <trkpt lat="46.02988" lon="4.55074">
        <ele>609.8</ele>
        <time>2025-09-17T09:22:20Z</time>
      </trkpt>
      <trkpt lat="46.02987" lon="4.55076">
        <ele>610.2</ele>
        <time>2025-09-17T09:22:21Z</time>
      </trkpt>
      <trkpt lat="46.02987" lon="4.55078">
        <ele>610.4</ele>
        <time>2025-09-17T09:22:22Z</time>
      </trkpt>
      <trkpt lat="46.02986" lon="4.55079">
        <ele>610.4</ele>
        <time>2025-09-17T09:22:23Z</time>
      </trkpt>
      <trkpt lat="46.02986" lon="4.55081">
        <ele>610.8</ele>
        <time>2025-09-17T09:22:24Z</time>
      </trkpt>
      <trkpt lat="46.02985" lon="4.55083">
        <ele>611</ele>
        <time>2025-09-17T09:22:25Z</time>
      </trkpt>
      <trkpt lat="46.02985" lon="4.55085">
        <ele>611</ele>
        <time>2025-09-17T09:22:26Z</time>
      </trkpt>
      <trkpt lat="46.02984" lon="4.55086">
        <ele>611.4</ele>
        <time>2025-09-17T09:22:27Z</time>
      </trkpt>
      <trkpt lat="46.02984" lon="4.55088">
        <ele>611.6</ele>
        <time>2025-09-17T09:22:28Z</time>
      </trkpt>
      <trkpt lat="46.02984" lon="4.5509">
        <ele>611.8</ele>
        <time>2025-09-17T09:22:29Z</time>
      </trkpt>
      <trkpt lat="46.02983" lon="4.55092">
        <ele>612.2</ele>
        <time>2025-09-17T09:22:30Z</time>
      </trkpt>
      <trkpt lat="46.02983" lon="4.55094">
        <ele>612.2</ele>
        <time>2025-09-17T09:22:31Z</time>
      </trkpt>
      <trkpt lat="46.02982" lon="4.55096">
        <ele>612.4</ele>
        <time>2025-09-17T09:22:32Z</time>
      </trkpt>
      <trkpt lat="46.02981" lon="4.55098">
        <ele>612.4</ele>
        <time>2025-09-17T09:22:33Z</time>
      </trkpt>
      <trkpt lat="46.02981" lon="4.55099">
        <ele>612.4</ele>
        <time>2025-09-17T09:22:34Z</time>
      </trkpt>
      <trkpt lat="46.0298" lon="4.55101">
        <ele>612.8</ele>
        <time>2025-09-17T09:22:35Z</time>
      </trkpt>
      <trkpt lat="46.0298" lon="4.55103">
        <ele>612.8</ele>
        <time>2025-09-17T09:22:36Z</time>
      </trkpt>
      <trkpt lat="46.02979" lon="4.55104">
        <ele>613</ele>
        <time>2025-09-17T09:22:37Z</time>
      </trkpt>
      <trkpt lat="46.02979" lon="4.55106">
        <ele>613</ele>
        <time>2025-09-17T09:22:38Z</time>
      </trkpt>
      <trkpt lat="46.02979" lon="4.55108">
        <ele>613.4</ele>
        <time>2025-09-17T09:22:39Z</time>
      </trkpt>
      <trkpt lat="46.02979" lon="4.5511">
        <ele>613.4</ele>
        <time>2025-09-17T09:22:40Z</time>
      </trkpt>
      <trkpt lat="46.02979" lon="4.55111">
        <ele>613.6</ele>
        <time>2025-09-17T09:22:41Z</time>
      </trkpt>
      <trkpt lat="46.02978" lon="4.55112">
        <ele>613.6</ele>
        <time>2025-09-17T09:22:42Z</time>
      </trkpt>
      <trkpt lat="46.02978" lon="4.55112">
        <ele>613.8</ele>
        <time>2025-09-17T09:22:43Z</time>
      </trkpt>
      <trkpt lat="46.02977" lon="4.55114">
        <ele>614.2</ele>
        <time>2025-09-17T09:22:44Z</time>
      </trkpt>
      <trkpt lat="46.02976" lon="4.55115">
        <ele>614.2</ele>
        <time>2025-09-17T09:22:45Z</time>
      </trkpt>
      <trkpt lat="46.02976" lon="4.55117">
        <ele>614.2</ele>
        <time>2025-09-17T09:22:46Z</time>
      </trkpt>
      <trkpt lat="46.02976" lon="4.55119">
        <ele>614.6</ele>
        <time>2025-09-17T09:22:47Z</time>
      </trkpt>
      <trkpt lat="46.02975" lon="4.55121">
        <ele>614.6</ele>
        <time>2025-09-17T09:22:48Z</time>
      </trkpt>
      <trkpt lat="46.02974" lon="4.55122">
        <ele>614.8</ele>
        <time>2025-09-17T09:22:49Z</time>
      </trkpt>
      <trkpt lat="46.02974" lon="4.55123">
        <ele>614.8</ele>
        <time>2025-09-17T09:22:50Z</time>
      </trkpt>
      <trkpt lat="46.02973" lon="4.55125">
        <ele>615</ele>
        <time>2025-09-17T09:22:51Z</time>
      </trkpt>
      <trkpt lat="46.02973" lon="4.55126">
        <ele>615</ele>
        <time>2025-09-17T09:22:52Z</time>
      </trkpt>
      <trkpt lat="46.02972" lon="4.55128">
        <ele>615.4</ele>
        <time>2025-09-17T09:22:53Z</time>
      </trkpt>
      <trkpt lat="46.02972" lon="4.5513">
        <ele>615.4</ele>
        <time>2025-09-17T09:22:54Z</time>
      </trkpt>
      <trkpt lat="46.02971" lon="4.55132">
        <ele>615.8</ele>
        <time>2025-09-17T09:22:55Z</time>
      </trkpt>
      <trkpt lat="46.02971" lon="4.55134">
        <ele>615.8</ele>
        <time>2025-09-17T09:22:56Z</time>
      </trkpt>
      <trkpt lat="46.0297" lon="4.55136">
        <ele>615.8</ele>
        <time>2025-09-17T09:22:57Z</time>
      </trkpt>
      <trkpt lat="46.0297" lon="4.55138">
        <ele>616</ele>
        <time>2025-09-17T09:22:58Z</time>
      </trkpt>
      <trkpt lat="46.02969" lon="4.5514">
        <ele>616.2</ele>
        <time>2025-09-17T09:22:59Z</time>
      </trkpt>
      <trkpt lat="46.02968" lon="4.55142">
        <ele>616.2</ele>
        <time>2025-09-17T09:23:00Z</time>
      </trkpt>
      <trkpt lat="46.02967" lon="4.55145">
        <ele>616.6</ele>
        <time>2025-09-17T09:23:01Z</time>
      </trkpt>
      <trkpt lat="46.02967" lon="4.55146">
        <ele>616.6</ele>
        <time>2025-09-17T09:23:02Z</time>
      </trkpt>
      <trkpt lat="46.02966" lon="4.55148">
        <ele>616.8</ele>
        <time>2025-09-17T09:23:03Z</time>
      </trkpt>
      <trkpt lat="46.02966" lon="4.5515">
        <ele>616.8</ele>
        <time>2025-09-17T09:23:04Z</time>
      </trkpt>
      <trkpt lat="46.02965" lon="4.55151">
        <ele>616.8</ele>
        <time>2025-09-17T09:23:05Z</time>
      </trkpt>
      <trkpt lat="46.02965" lon="4.55153">
        <ele>617.4</ele>
        <time>2025-09-17T09:23:06Z</time>
      </trkpt>
      <trkpt lat="46.02964" lon="4.55155">
        <ele>617.6</ele>
        <time>2025-09-17T09:23:07Z</time>
      </trkpt>
      <trkpt lat="46.02964" lon="4.55157">
        <ele>618</ele>
        <time>2025-09-17T09:23:08Z</time>
      </trkpt>
      <trkpt lat="46.02964" lon="4.55159">
        <ele>618.2</ele>
        <time>2025-09-17T09:23:09Z</time>
      </trkpt>
      <trkpt lat="46.02964" lon="4.55161">
        <ele>618.2</ele>
        <time>2025-09-17T09:23:10Z</time>
      </trkpt>
      <trkpt lat="46.02963" lon="4.55163">
        <ele>618.2</ele>
        <time>2025-09-17T09:23:11Z</time>
      </trkpt>
      <trkpt lat="46.02963" lon="4.55164">
        <ele>618.2</ele>
        <time>2025-09-17T09:23:12Z</time>
      </trkpt>
      <trkpt lat="46.02962" lon="4.55166">
        <ele>618.4</ele>
        <time>2025-09-17T09:23:13Z</time>
      </trkpt>
      <trkpt lat="46.02961" lon="4.55167">
        <ele>618.6</ele>
        <time>2025-09-17T09:23:14Z</time>
      </trkpt>
      <trkpt lat="46.02961" lon="4.55169">
        <ele>618.6</ele>
        <time>2025-09-17T09:23:15Z</time>
      </trkpt>
      <trkpt lat="46.0296" lon="4.55171">
        <ele>619</ele>
        <time>2025-09-17T09:23:16Z</time>
      </trkpt>
      <trkpt lat="46.0296" lon="4.55173">
        <ele>619</ele>
        <time>2025-09-17T09:23:17Z</time>
      </trkpt>
      <trkpt lat="46.0296" lon="4.55174">
        <ele>619</ele>
        <time>2025-09-17T09:23:18Z</time>
      </trkpt>
      <trkpt lat="46.0296" lon="4.55176">
        <ele>619</ele>
        <time>2025-09-17T09:23:19Z</time>
      </trkpt>
      <trkpt lat="46.0296" lon="4.55178">
        <ele>619.4</ele>
        <time>2025-09-17T09:23:20Z</time>
      </trkpt>
      <trkpt lat="46.0296" lon="4.5518">
        <ele>619.4</ele>
        <time>2025-09-17T09:23:21Z</time>
      </trkpt>
      <trkpt lat="46.0296" lon="4.55182">
        <ele>619.4</ele>
        <time>2025-09-17T09:23:22Z</time>
      </trkpt>
      <trkpt lat="46.02959" lon="4.55184">
        <ele>619.4</ele>
        <time>2025-09-17T09:23:23Z</time>
      </trkpt>
      <trkpt lat="46.02959" lon="4.55185">
        <ele>619.4</ele>
        <time>2025-09-17T09:23:24Z</time>
      </trkpt>
      <trkpt lat="46.02959" lon="4.55187">
        <ele>619.6</ele>
        <time>2025-09-17T09:23:25Z</time>
      </trkpt>
      <trkpt lat="46.02959" lon="4.55188">
        <ele>620</ele>
        <time>2025-09-17T09:23:26Z</time>
      </trkpt>
      <trkpt lat="46.02958" lon="4.55191">
        <ele>620</ele>
        <time>2025-09-17T09:23:27Z</time>
      </trkpt>
      <trkpt lat="46.02958" lon="4.55193">
        <ele>620</ele>
        <time>2025-09-17T09:23:28Z</time>
      </trkpt>
      <trkpt lat="46.02957" lon="4.55195">
        <ele>620.2</ele>
        <time>2025-09-17T09:23:29Z</time>
      </trkpt>
      <trkpt lat="46.02957" lon="4.55199">
        <ele>620.2</ele>
        <time>2025-09-17T09:23:30Z</time>
      </trkpt>
      <trkpt lat="46.02957" lon="4.55201">
        <ele>620.6</ele>
        <time>2025-09-17T09:23:31Z</time>
      </trkpt>
      <trkpt lat="46.02957" lon="4.55202">
        <ele>620.6</ele>
        <time>2025-09-17T09:23:32Z</time>
      </trkpt>
      <trkpt lat="46.02956" lon="4.55204">
        <ele>620.8</ele>
        <time>2025-09-17T09:23:33Z</time>
      </trkpt>
      <trkpt lat="46.02956" lon="4.55205">
        <ele>620.8</ele>
        <time>2025-09-17T09:23:34Z</time>
      </trkpt>
      <trkpt lat="46.02955" lon="4.55207">
        <ele>620.8</ele>
        <time>2025-09-17T09:23:35Z</time>
      </trkpt>
      <trkpt lat="46.02954" lon="4.55209">
        <ele>620.8</ele>
        <time>2025-09-17T09:23:36Z</time>
      </trkpt>
      <trkpt lat="46.02954" lon="4.55211">
        <ele>621.2</ele>
        <time>2025-09-17T09:23:37Z</time>
      </trkpt>
      <trkpt lat="46.02954" lon="4.55212">
        <ele>621.2</ele>
        <time>2025-09-17T09:23:38Z</time>
      </trkpt>
      <trkpt lat="46.02953" lon="4.55213">
        <ele>621.4</ele>
        <time>2025-09-17T09:23:39Z</time>
      </trkpt>
      <trkpt lat="46.02953" lon="4.55215">
        <ele>621.8</ele>
        <time>2025-09-17T09:23:40Z</time>
      </trkpt>
      <trkpt lat="46.02952" lon="4.55217">
        <ele>622</ele>
        <time>2025-09-17T09:23:41Z</time>
      </trkpt>
      <trkpt lat="46.02951" lon="4.55219">
        <ele>622</ele>
        <time>2025-09-17T09:23:42Z</time>
      </trkpt>
      <trkpt lat="46.02951" lon="4.55221">
        <ele>622.4</ele>
        <time>2025-09-17T09:23:43Z</time>
      </trkpt>
      <trkpt lat="46.0295" lon="4.55222">
        <ele>622.4</ele>
        <time>2025-09-17T09:23:44Z</time>
      </trkpt>
      <trkpt lat="46.02949" lon="4.55224">
        <ele>622.6</ele>
        <time>2025-09-17T09:23:45Z</time>
      </trkpt>
      <trkpt lat="46.02948" lon="4.55225">
        <ele>622.6</ele>
        <time>2025-09-17T09:23:46Z</time>
      </trkpt>
      <trkpt lat="46.02947" lon="4.55227">
        <ele>622.6</ele>
        <time>2025-09-17T09:23:47Z</time>
      </trkpt>
      <trkpt lat="46.02947" lon="4.55229">
        <ele>622.6</ele>
        <time>2025-09-17T09:23:48Z</time>
      </trkpt>
      <trkpt lat="46.02947" lon="4.5523">
        <ele>623</ele>
        <time>2025-09-17T09:23:49Z</time>
      </trkpt>
      <trkpt lat="46.02946" lon="4.55232">
        <ele>623.4</ele>
        <time>2025-09-17T09:23:50Z</time>
      </trkpt>
      <trkpt lat="46.02946" lon="4.55234">
        <ele>623.4</ele>
        <time>2025-09-17T09:23:51Z</time>
      </trkpt>
      <trkpt lat="46.02945" lon="4.55236">
        <ele>623.6</ele>
        <time>2025-09-17T09:23:52Z</time>
      </trkpt>
      <trkpt lat="46.02944" lon="4.55237">
        <ele>623.6</ele>
        <time>2025-09-17T09:23:53Z</time>
      </trkpt>
      <trkpt lat="46.02944" lon="4.55239">
        <ele>623.8</ele>
        <time>2025-09-17T09:23:54Z</time>
      </trkpt>
      <trkpt lat="46.02943" lon="4.55241">
        <ele>623.8</ele>
        <time>2025-09-17T09:23:55Z</time>
      </trkpt>
      <trkpt lat="46.02942" lon="4.55243">
        <ele>624.2</ele>
        <time>2025-09-17T09:23:56Z</time>
      </trkpt>
      <trkpt lat="46.02941" lon="4.55245">
        <ele>624.6</ele>
        <time>2025-09-17T09:23:57Z</time>
      </trkpt>
      <trkpt lat="46.0294" lon="4.55246">
        <ele>624.6</ele>
        <time>2025-09-17T09:23:58Z</time>
      </trkpt>
      <trkpt lat="46.0294" lon="4.55248">
        <ele>624.8</ele>
        <time>2025-09-17T09:23:59Z</time>
      </trkpt>
      <trkpt lat="46.02939" lon="4.55249">
        <ele>624.8</ele>
        <time>2025-09-17T09:24:00Z</time>
      </trkpt>
      <trkpt lat="46.02938" lon="4.55251">
        <ele>625</ele>
        <time>2025-09-17T09:24:01Z</time>
      </trkpt>
      <trkpt lat="46.02938" lon="4.55252">
        <ele>625.4</ele>
        <time>2025-09-17T09:24:02Z</time>
      </trkpt>
      <trkpt lat="46.02937" lon="4.55254">
        <ele>625.6</ele>
        <time>2025-09-17T09:24:03Z</time>
      </trkpt>
      <trkpt lat="46.02936" lon="4.55255">
        <ele>625.6</ele>
        <time>2025-09-17T09:24:04Z</time>
      </trkpt>
      <trkpt lat="46.02935" lon="4.55256">
        <ele>625.8</ele>
        <time>2025-09-17T09:24:05Z</time>
      </trkpt>
      <trkpt lat="46.02933" lon="4.55257">
        <ele>626</ele>
        <time>2025-09-17T09:24:06Z</time>
      </trkpt>
      <trkpt lat="46.02932" lon="4.55258">
        <ele>626</ele>
        <time>2025-09-17T09:24:07Z</time>
      </trkpt>
      <trkpt lat="46.02931" lon="4.5526">
        <ele>626.2</ele>
        <time>2025-09-17T09:24:08Z</time>
      </trkpt>
      <trkpt lat="46.0293" lon="4.55261">
        <ele>626.2</ele>
        <time>2025-09-17T09:24:09Z</time>
      </trkpt>
      <trkpt lat="46.0293" lon="4.55262">
        <ele>626.2</ele>
        <time>2025-09-17T09:24:10Z</time>
      </trkpt>
      <trkpt lat="46.02929" lon="4.55262">
        <ele>626.8</ele>
        <time>2025-09-17T09:24:11Z</time>
      </trkpt>
      <trkpt lat="46.02927" lon="4.55264">
        <ele>627</ele>
        <time>2025-09-17T09:24:12Z</time>
      </trkpt>
      <trkpt lat="46.02926" lon="4.55265">
        <ele>627</ele>
        <time>2025-09-17T09:24:13Z</time>
      </trkpt>
      <trkpt lat="46.02925" lon="4.55266">
        <ele>627.6</ele>
        <time>2025-09-17T09:24:14Z</time>
      </trkpt>
      <trkpt lat="46.02924" lon="4.55268">
        <ele>627.6</ele>
        <time>2025-09-17T09:24:15Z</time>
      </trkpt>
      <trkpt lat="46.02924" lon="4.55269">
        <ele>627.6</ele>
        <time>2025-09-17T09:24:16Z</time>
      </trkpt>
      <trkpt lat="46.02923" lon="4.55271">
        <ele>628</ele>
        <time>2025-09-17T09:24:17Z</time>
      </trkpt>
      <trkpt lat="46.02922" lon="4.55272">
        <ele>628.2</ele>
        <time>2025-09-17T09:24:18Z</time>
      </trkpt>
      <trkpt lat="46.02921" lon="4.55273">
        <ele>628.6</ele>
        <time>2025-09-17T09:24:19Z</time>
      </trkpt>
      <trkpt lat="46.0292" lon="4.55274">
        <ele>628.6</ele>
        <time>2025-09-17T09:24:20Z</time>
      </trkpt>
      <trkpt lat="46.02919" lon="4.55275">
        <ele>628.8</ele>
        <time>2025-09-17T09:24:21Z</time>
      </trkpt>
      <trkpt lat="46.02918" lon="4.55276">
        <ele>628.8</ele>
        <time>2025-09-17T09:24:22Z</time>
      </trkpt>
      <trkpt lat="46.02917" lon="4.55278">
        <ele>628.8</ele>
        <time>2025-09-17T09:24:23Z</time>
      </trkpt>
      <trkpt lat="46.02916" lon="4.55278">
        <ele>629.2</ele>
        <time>2025-09-17T09:24:24Z</time>
      </trkpt>
      <trkpt lat="46.02915" lon="4.55279">
        <ele>629.2</ele>
        <time>2025-09-17T09:24:25Z</time>
      </trkpt>
      <trkpt lat="46.02914" lon="4.5528">
        <ele>629.4</ele>
        <time>2025-09-17T09:24:26Z</time>
      </trkpt>
      <trkpt lat="46.02913" lon="4.55282">
        <ele>629.4</ele>
        <time>2025-09-17T09:24:27Z</time>
      </trkpt>
      <trkpt lat="46.02912" lon="4.55283">
        <ele>629.8</ele>
        <time>2025-09-17T09:24:28Z</time>
      </trkpt>
      <trkpt lat="46.02911" lon="4.55285">
        <ele>629.8</ele>
        <time>2025-09-17T09:24:29Z</time>
      </trkpt>
      <trkpt lat="46.0291" lon="4.55286">
        <ele>630</ele>
        <time>2025-09-17T09:24:30Z</time>
      </trkpt>
      <trkpt lat="46.02909" lon="4.55287">
        <ele>630.2</ele>
        <time>2025-09-17T09:24:31Z</time>
      </trkpt>
      <trkpt lat="46.02908" lon="4.55288">
        <ele>630.2</ele>
        <time>2025-09-17T09:24:32Z</time>
      </trkpt>
      <trkpt lat="46.02907" lon="4.55289">
        <ele>630.6</ele>
        <time>2025-09-17T09:24:33Z</time>
      </trkpt>
      <trkpt lat="46.02907" lon="4.55291">
        <ele>630.6</ele>
        <time>2025-09-17T09:24:34Z</time>
      </trkpt>
      <trkpt lat="46.02906" lon="4.55292">
        <ele>630.6</ele>
        <time>2025-09-17T09:24:35Z</time>
      </trkpt>
      <trkpt lat="46.02905" lon="4.55293">
        <ele>631</ele>
        <time>2025-09-17T09:24:36Z</time>
      </trkpt>
      <trkpt lat="46.02904" lon="4.55295">
        <ele>631</ele>
        <time>2025-09-17T09:24:37Z</time>
      </trkpt>
      <trkpt lat="46.02903" lon="4.55297">
        <ele>631</ele>
        <time>2025-09-17T09:24:38Z</time>
      </trkpt>
      <trkpt lat="46.02902" lon="4.55298">
        <ele>631</ele>
        <time>2025-09-17T09:24:39Z</time>
      </trkpt>
      <trkpt lat="46.02901" lon="4.553">
        <ele>631</ele>
        <time>2025-09-17T09:24:40Z</time>
      </trkpt>
      <trkpt lat="46.029" lon="4.55301">
        <ele>631.4</ele>
        <time>2025-09-17T09:24:41Z</time>
      </trkpt>
      <trkpt lat="46.02899" lon="4.55303">
        <ele>631.4</ele>
        <time>2025-09-17T09:24:42Z</time>
      </trkpt>
      <trkpt lat="46.02898" lon="4.55304">
        <ele>631.6</ele>
        <time>2025-09-17T09:24:43Z</time>
      </trkpt>
      <trkpt lat="46.02897" lon="4.55306">
        <ele>631.6</ele>
        <time>2025-09-17T09:24:44Z</time>
      </trkpt>
      <trkpt lat="46.02896" lon="4.55308">
        <ele>631.8</ele>
        <time>2025-09-17T09:24:45Z</time>
      </trkpt>
      <trkpt lat="46.02895" lon="4.55309">
        <ele>631.8</ele>
        <time>2025-09-17T09:24:46Z</time>
      </trkpt>
      <trkpt lat="46.02894" lon="4.55311">
        <ele>632</ele>
        <time>2025-09-17T09:24:47Z</time>
      </trkpt>
      <trkpt lat="46.02893" lon="4.55312">
        <ele>632</ele>
        <time>2025-09-17T09:24:48Z</time>
      </trkpt>
      <trkpt lat="46.02892" lon="4.55314">
        <ele>632.4</ele>
        <time>2025-09-17T09:24:49Z</time>
      </trkpt>
      <trkpt lat="46.02892" lon="4.55315">
        <ele>632.4</ele>
        <time>2025-09-17T09:24:50Z</time>
      </trkpt>
      <trkpt lat="46.02891" lon="4.55317">
        <ele>632.8</ele>
        <time>2025-09-17T09:24:51Z</time>
      </trkpt>
      <trkpt lat="46.0289" lon="4.55319">
        <ele>633</ele>
        <time>2025-09-17T09:24:52Z</time>
      </trkpt>
      <trkpt lat="46.02889" lon="4.5532">
        <ele>633</ele>
        <time>2025-09-17T09:24:53Z</time>
      </trkpt>
      <trkpt lat="46.02887" lon="4.55322">
        <ele>633.2</ele>
        <time>2025-09-17T09:24:54Z</time>
      </trkpt>
      <trkpt lat="46.02886" lon="4.55324">
        <ele>633.2</ele>
        <time>2025-09-17T09:24:55Z</time>
      </trkpt>
      <trkpt lat="46.02885" lon="4.55325">
        <ele>633.2</ele>
        <time>2025-09-17T09:24:56Z</time>
      </trkpt>
      <trkpt lat="46.02884" lon="4.55327">
        <ele>633.2</ele>
        <time>2025-09-17T09:24:57Z</time>
      </trkpt>
      <trkpt lat="46.02883" lon="4.55329">
        <ele>633.6</ele>
        <time>2025-09-17T09:24:58Z</time>
      </trkpt>
      <trkpt lat="46.02882" lon="4.55331">
        <ele>633.6</ele>
        <time>2025-09-17T09:24:59Z</time>
      </trkpt>
      <trkpt lat="46.02881" lon="4.55332">
        <ele>633.8</ele>
        <time>2025-09-17T09:25:00Z</time>
      </trkpt>
      <trkpt lat="46.0288" lon="4.55334">
        <ele>634</ele>
        <time>2025-09-17T09:25:01Z</time>
      </trkpt>
      <trkpt lat="46.02879" lon="4.55336">
        <ele>634</ele>
        <time>2025-09-17T09:25:02Z</time>
      </trkpt>
      <trkpt lat="46.02879" lon="4.55338">
        <ele>634</ele>
        <time>2025-09-17T09:25:03Z</time>
      </trkpt>
      <trkpt lat="46.02878" lon="4.55339">
        <ele>634</ele>
        <time>2025-09-17T09:25:04Z</time>
      </trkpt>
      <trkpt lat="46.02877" lon="4.55341">
        <ele>634.2</ele>
        <time>2025-09-17T09:25:05Z</time>
      </trkpt>
      <trkpt lat="46.02877" lon="4.55343">
        <ele>634.4</ele>
        <time>2025-09-17T09:25:06Z</time>
      </trkpt>
      <trkpt lat="46.02876" lon="4.55345">
        <ele>634.4</ele>
        <time>2025-09-17T09:25:07Z</time>
      </trkpt>
      <trkpt lat="46.02876" lon="4.55347">
        <ele>634.4</ele>
        <time>2025-09-17T09:25:08Z</time>
      </trkpt>
      <trkpt lat="46.02875" lon="4.55349">
        <ele>634.4</ele>
        <time>2025-09-17T09:25:09Z</time>
      </trkpt>
      <trkpt lat="46.02874" lon="4.5535">
        <ele>634.8</ele>
        <time>2025-09-17T09:25:10Z</time>
      </trkpt>
      <trkpt lat="46.02873" lon="4.55352">
        <ele>634.8</ele>
        <time>2025-09-17T09:25:11Z</time>
      </trkpt>
      <trkpt lat="46.02872" lon="4.55354">
        <ele>635</ele>
        <time>2025-09-17T09:25:12Z</time>
      </trkpt>
      <trkpt lat="46.02872" lon="4.55356">
        <ele>635.2</ele>
        <time>2025-09-17T09:25:13Z</time>
      </trkpt>
      <trkpt lat="46.02871" lon="4.55358">
        <ele>635.2</ele>
        <time>2025-09-17T09:25:14Z</time>
      </trkpt>
      <trkpt lat="46.0287" lon="4.55359">
        <ele>635.4</ele>
        <time>2025-09-17T09:25:15Z</time>
      </trkpt>
      <trkpt lat="46.02869" lon="4.55361">
        <ele>635.4</ele>
        <time>2025-09-17T09:25:16Z</time>
      </trkpt>
      <trkpt lat="46.02868" lon="4.55362">
        <ele>635.4</ele>
        <time>2025-09-17T09:25:17Z</time>
      </trkpt>
      <trkpt lat="46.02867" lon="4.55364">
        <ele>635.4</ele>
        <time>2025-09-17T09:25:18Z</time>
      </trkpt>
      <trkpt lat="46.02866" lon="4.55365">
        <ele>636</ele>
        <time>2025-09-17T09:25:19Z</time>
      </trkpt>
      <trkpt lat="46.02865" lon="4.55367">
        <ele>636</ele>
        <time>2025-09-17T09:25:20Z</time>
      </trkpt>
      <trkpt lat="46.02864" lon="4.55368">
        <ele>636.2</ele>
        <time>2025-09-17T09:25:21Z</time>
      </trkpt>
      <trkpt lat="46.02864" lon="4.5537">
        <ele>636.2</ele>
        <time>2025-09-17T09:25:22Z</time>
      </trkpt>
      <trkpt lat="46.02863" lon="4.55371">
        <ele>636.6</ele>
        <time>2025-09-17T09:25:23Z</time>
      </trkpt>
      <trkpt lat="46.02862" lon="4.55373">
        <ele>636.6</ele>
        <time>2025-09-17T09:25:24Z</time>
      </trkpt>
      <trkpt lat="46.02861" lon="4.55375">
        <ele>636.6</ele>
        <time>2025-09-17T09:25:25Z</time>
      </trkpt>
      <trkpt lat="46.0286" lon="4.55377">
        <ele>637</ele>
        <time>2025-09-17T09:25:26Z</time>
      </trkpt>
      <trkpt lat="46.0286" lon="4.55378">
        <ele>637.4</ele>
        <time>2025-09-17T09:25:27Z</time>
      </trkpt>
      <trkpt lat="46.02859" lon="4.5538">
        <ele>637.4</ele>
        <time>2025-09-17T09:25:28Z</time>
      </trkpt>
      <trkpt lat="46.02858" lon="4.55381">
        <ele>637.6</ele>
        <time>2025-09-17T09:25:29Z</time>
      </trkpt>
      <trkpt lat="46.02858" lon="4.55383">
        <ele>637.6</ele>
        <time>2025-09-17T09:25:30Z</time>
      </trkpt>
      <trkpt lat="46.02857" lon="4.55385">
        <ele>638</ele>
        <time>2025-09-17T09:25:31Z</time>
      </trkpt>
      <trkpt lat="46.02857" lon="4.55386">
        <ele>638</ele>
        <time>2025-09-17T09:25:32Z</time>
      </trkpt>
      <trkpt lat="46.02856" lon="4.55388">
        <ele>638.2</ele>
        <time>2025-09-17T09:25:33Z</time>
      </trkpt>
      <trkpt lat="46.02855" lon="4.5539">
        <ele>638.2</ele>
        <time>2025-09-17T09:25:34Z</time>
      </trkpt>
      <trkpt lat="46.02854" lon="4.55391">
        <ele>638.6</ele>
        <time>2025-09-17T09:25:35Z</time>
      </trkpt>
      <trkpt lat="46.02853" lon="4.55393">
        <ele>638.6</ele>
        <time>2025-09-17T09:25:36Z</time>
      </trkpt>
      <trkpt lat="46.02852" lon="4.55394">
        <ele>638.8</ele>
        <time>2025-09-17T09:25:37Z</time>
      </trkpt>
      <trkpt lat="46.02851" lon="4.55396">
        <ele>638.8</ele>
        <time>2025-09-17T09:25:38Z</time>
      </trkpt>
      <trkpt lat="46.0285" lon="4.55397">
        <ele>639.2</ele>
        <time>2025-09-17T09:25:39Z</time>
      </trkpt>
      <trkpt lat="46.02849" lon="4.55398">
        <ele>639.2</ele>
        <time>2025-09-17T09:25:40Z</time>
      </trkpt>
      <trkpt lat="46.02849" lon="4.554">
        <ele>639.4</ele>
        <time>2025-09-17T09:25:41Z</time>
      </trkpt>
      <trkpt lat="46.02848" lon="4.55401">
        <ele>639.4</ele>
        <time>2025-09-17T09:25:42Z</time>
      </trkpt>
      <trkpt lat="46.02848" lon="4.55402">
        <ele>639.8</ele>
        <time>2025-09-17T09:25:43Z</time>
      </trkpt>
      <trkpt lat="46.02847" lon="4.55404">
        <ele>639.8</ele>
        <time>2025-09-17T09:25:44Z</time>
      </trkpt>
      <trkpt lat="46.02846" lon="4.55405">
        <ele>640</ele>
        <time>2025-09-17T09:25:45Z</time>
      </trkpt>
      <trkpt lat="46.02846" lon="4.55406">
        <ele>640</ele>
        <time>2025-09-17T09:25:46Z</time>
      </trkpt>
      <trkpt lat="46.02845" lon="4.55407">
        <ele>640.2</ele>
        <time>2025-09-17T09:25:47Z</time>
      </trkpt>
      <trkpt lat="46.02845" lon="4.55408">
        <ele>640.2</ele>
        <time>2025-09-17T09:25:48Z</time>
      </trkpt>
      <trkpt lat="46.02845" lon="4.5541">
        <ele>640.6</ele>
        <time>2025-09-17T09:25:49Z</time>
      </trkpt>
      <trkpt lat="46.02844" lon="4.55411">
        <ele>640.6</ele>
        <time>2025-09-17T09:25:50Z</time>
      </trkpt>
      <trkpt lat="46.02843" lon="4.55412">
        <ele>640.8</ele>
        <time>2025-09-17T09:25:51Z</time>
      </trkpt>
      <trkpt lat="46.02843" lon="4.55413">
        <ele>641</ele>
        <time>2025-09-17T09:25:52Z</time>
      </trkpt>
      <trkpt lat="46.02842" lon="4.55414">
        <ele>641</ele>
        <time>2025-09-17T09:25:53Z</time>
      </trkpt>
      <trkpt lat="46.02842" lon="4.55416">
        <ele>641.4</ele>
        <time>2025-09-17T09:25:54Z</time>
      </trkpt>
      <trkpt lat="46.02841" lon="4.55418">
        <ele>641.4</ele>
        <time>2025-09-17T09:25:55Z</time>
      </trkpt>
      <trkpt lat="46.02841" lon="4.55419">
        <ele>641.4</ele>
        <time>2025-09-17T09:25:56Z</time>
      </trkpt>
      <trkpt lat="46.0284" lon="4.55421">
        <ele>641.4</ele>
        <time>2025-09-17T09:25:57Z</time>
      </trkpt>
      <trkpt lat="46.02839" lon="4.55423">
        <ele>641.4</ele>
        <time>2025-09-17T09:25:58Z</time>
      </trkpt>
      <trkpt lat="46.02838" lon="4.55424">
        <ele>641.8</ele>
        <time>2025-09-17T09:25:59Z</time>
      </trkpt>
      <trkpt lat="46.02837" lon="4.55425">
        <ele>642</ele>
        <time>2025-09-17T09:26:00Z</time>
      </trkpt>
      <trkpt lat="46.02836" lon="4.55426">
        <ele>642</ele>
        <time>2025-09-17T09:26:01Z</time>
      </trkpt>
      <trkpt lat="46.02835" lon="4.55427">
        <ele>642</ele>
        <time>2025-09-17T09:26:02Z</time>
      </trkpt>
      <trkpt lat="46.02834" lon="4.55428">
        <ele>642.4</ele>
        <time>2025-09-17T09:26:03Z</time>
      </trkpt>
      <trkpt lat="46.02833" lon="4.5543">
        <ele>642.6</ele>
        <time>2025-09-17T09:26:04Z</time>
      </trkpt>
      <trkpt lat="46.02833" lon="4.55431">
        <ele>642.8</ele>
        <time>2025-09-17T09:26:05Z</time>
      </trkpt>
      <trkpt lat="46.02832" lon="4.55432">
        <ele>643</ele>
        <time>2025-09-17T09:26:06Z</time>
      </trkpt>
      <trkpt lat="46.02831" lon="4.55432">
        <ele>643.2</ele>
        <time>2025-09-17T09:26:07Z</time>
      </trkpt>
      <trkpt lat="46.0283" lon="4.55433">
        <ele>643.4</ele>
        <time>2025-09-17T09:26:08Z</time>
      </trkpt>
      <trkpt lat="46.0283" lon="4.55434">
        <ele>643.4</ele>
        <time>2025-09-17T09:26:09Z</time>
      </trkpt>
      <trkpt lat="46.0283" lon="4.55436">
        <ele>643.8</ele>
        <time>2025-09-17T09:26:10Z</time>
      </trkpt>
      <trkpt lat="46.02829" lon="4.55438">
        <ele>643.8</ele>
        <time>2025-09-17T09:26:11Z</time>
      </trkpt>
      <trkpt lat="46.02829" lon="4.55439">
        <ele>644.2</ele>
        <time>2025-09-17T09:26:12Z</time>
      </trkpt>
      <trkpt lat="46.02829" lon="4.5544">
        <ele>644.2</ele>
        <time>2025-09-17T09:26:13Z</time>
      </trkpt>
      <trkpt lat="46.02828" lon="4.55441">
        <ele>644.4</ele>
        <time>2025-09-17T09:26:14Z</time>
      </trkpt>
      <trkpt lat="46.02828" lon="4.55442">
        <ele>644.4</ele>
        <time>2025-09-17T09:26:15Z</time>
      </trkpt>
      <trkpt lat="46.02827" lon="4.55443">
        <ele>644.6</ele>
        <time>2025-09-17T09:26:16Z</time>
      </trkpt>
      <trkpt lat="46.02827" lon="4.55444">
        <ele>644.6</ele>
        <time>2025-09-17T09:26:17Z</time>
      </trkpt>
      <trkpt lat="46.02826" lon="4.55445">
        <ele>644.8</ele>
        <time>2025-09-17T09:26:18Z</time>
      </trkpt>
      <trkpt lat="46.02826" lon="4.55446">
        <ele>645.2</ele>
        <time>2025-09-17T09:26:19Z</time>
      </trkpt>
      <trkpt lat="46.02825" lon="4.55447">
        <ele>645.2</ele>
        <time>2025-09-17T09:26:20Z</time>
      </trkpt>
      <trkpt lat="46.02825" lon="4.55448">
        <ele>645.2</ele>
        <time>2025-09-17T09:26:21Z</time>
      </trkpt>
      <trkpt lat="46.02824" lon="4.5545">
        <ele>645.6</ele>
        <time>2025-09-17T09:26:22Z</time>
      </trkpt>
      <trkpt lat="46.02824" lon="4.55451">
        <ele>645.6</ele>
        <time>2025-09-17T09:26:23Z</time>
      </trkpt>
      <trkpt lat="46.02823" lon="4.55452">
        <ele>645.8</ele>
        <time>2025-09-17T09:26:24Z</time>
      </trkpt>
      <trkpt lat="46.02822" lon="4.55453">
        <ele>645.8</ele>
        <time>2025-09-17T09:26:25Z</time>
      </trkpt>
      <trkpt lat="46.02821" lon="4.55454">
        <ele>646.2</ele>
        <time>2025-09-17T09:26:26Z</time>
      </trkpt>
      <trkpt lat="46.02821" lon="4.55455">
        <ele>646.2</ele>
        <time>2025-09-17T09:26:27Z</time>
      </trkpt>
      <trkpt lat="46.0282" lon="4.55457">
        <ele>646.4</ele>
        <time>2025-09-17T09:26:28Z</time>
      </trkpt>
      <trkpt lat="46.0282" lon="4.55458">
        <ele>646.4</ele>
        <time>2025-09-17T09:26:29Z</time>
      </trkpt>
      <trkpt lat="46.02819" lon="4.55459">
        <ele>646.6</ele>
        <time>2025-09-17T09:26:30Z</time>
      </trkpt>
      <trkpt lat="46.02819" lon="4.5546">
        <ele>647</ele>
        <time>2025-09-17T09:26:31Z</time>
      </trkpt>
      <trkpt lat="46.02818" lon="4.55462">
        <ele>647</ele>
        <time>2025-09-17T09:26:32Z</time>
      </trkpt>
      <trkpt lat="46.02818" lon="4.55463">
        <ele>647.4</ele>
        <time>2025-09-17T09:26:33Z</time>
      </trkpt>
      <trkpt lat="46.02817" lon="4.55464">
        <ele>647.4</ele>
        <time>2025-09-17T09:26:34Z</time>
      </trkpt>
      <trkpt lat="46.02817" lon="4.55465">
        <ele>647.4</ele>
        <time>2025-09-17T09:26:35Z</time>
      </trkpt>
      <trkpt lat="46.02816" lon="4.55466">
        <ele>647.6</ele>
        <time>2025-09-17T09:26:36Z</time>
      </trkpt>
      <trkpt lat="46.02815" lon="4.55466">
        <ele>647.6</ele>
        <time>2025-09-17T09:26:37Z</time>
      </trkpt>
      <trkpt lat="46.02814" lon="4.55468">
        <ele>647.6</ele>
        <time>2025-09-17T09:26:38Z</time>
      </trkpt>
      <trkpt lat="46.02813" lon="4.55469">
        <ele>648</ele>
        <time>2025-09-17T09:26:39Z</time>
      </trkpt>
      <trkpt lat="46.02812" lon="4.55471">
        <ele>648</ele>
        <time>2025-09-17T09:26:40Z</time>
      </trkpt>
      <trkpt lat="46.02811" lon="4.55471">
        <ele>648.4</ele>
        <time>2025-09-17T09:26:41Z</time>
      </trkpt>
      <trkpt lat="46.0281" lon="4.55472">
        <ele>648.6</ele>
        <time>2025-09-17T09:26:42Z</time>
      </trkpt>
      <trkpt lat="46.02809" lon="4.55473">
        <ele>648.6</ele>
        <time>2025-09-17T09:26:43Z</time>
      </trkpt>
      <trkpt lat="46.02808" lon="4.55475">
        <ele>648.8</ele>
        <time>2025-09-17T09:26:44Z</time>
      </trkpt>
      <trkpt lat="46.02808" lon="4.55477">
        <ele>649</ele>
        <time>2025-09-17T09:26:45Z</time>
      </trkpt>
      <trkpt lat="46.02807" lon="4.55478">
        <ele>649</ele>
        <time>2025-09-17T09:26:46Z</time>
      </trkpt>
      <trkpt lat="46.02806" lon="4.5548">
        <ele>649.4</ele>
        <time>2025-09-17T09:26:47Z</time>
      </trkpt>
      <trkpt lat="46.02805" lon="4.55481">
        <ele>649.4</ele>
        <time>2025-09-17T09:26:48Z</time>
      </trkpt>
      <trkpt lat="46.02804" lon="4.55482">
        <ele>649.4</ele>
        <time>2025-09-17T09:26:49Z</time>
      </trkpt>
      <trkpt lat="46.02803" lon="4.55483">
        <ele>649.8</ele>
        <time>2025-09-17T09:26:50Z</time>
      </trkpt>
      <trkpt lat="46.02802" lon="4.55484">
        <ele>649.8</ele>
        <time>2025-09-17T09:26:51Z</time>
      </trkpt>
      <trkpt lat="46.02801" lon="4.55485">
        <ele>649.8</ele>
        <time>2025-09-17T09:26:52Z</time>
      </trkpt>
      <trkpt lat="46.02801" lon="4.55485">
        <ele>650.2</ele>
        <time>2025-09-17T09:26:53Z</time>
      </trkpt>
      <trkpt lat="46.028" lon="4.55486">
        <ele>650.2</ele>
        <time>2025-09-17T09:26:54Z</time>
      </trkpt>
      <trkpt lat="46.028" lon="4.55488">
        <ele>650.4</ele>
        <time>2025-09-17T09:26:55Z</time>
      </trkpt>
      <trkpt lat="46.02799" lon="4.55489">
        <ele>650.4</ele>
        <time>2025-09-17T09:26:56Z</time>
      </trkpt>
      <trkpt lat="46.02799" lon="4.55491">
        <ele>651</ele>
        <time>2025-09-17T09:26:57Z</time>
      </trkpt>
      <trkpt lat="46.02798" lon="4.55492">
        <ele>651.2</ele>
        <time>2025-09-17T09:26:58Z</time>
      </trkpt>
      <trkpt lat="46.02798" lon="4.55493">
        <ele>651.2</ele>
        <time>2025-09-17T09:26:59Z</time>
      </trkpt>
      <trkpt lat="46.02797" lon="4.55494">
        <ele>651.4</ele>
        <time>2025-09-17T09:27:00Z</time>
      </trkpt>
      <trkpt lat="46.02796" lon="4.55496">
        <ele>651.4</ele>
        <time>2025-09-17T09:27:01Z</time>
      </trkpt>
      <trkpt lat="46.02796" lon="4.55497">
        <ele>651.4</ele>
        <time>2025-09-17T09:27:02Z</time>
      </trkpt>
      <trkpt lat="46.02796" lon="4.55498">
        <ele>651.6</ele>
        <time>2025-09-17T09:27:03Z</time>
      </trkpt>
      <trkpt lat="46.02795" lon="4.55499">
        <ele>652</ele>
        <time>2025-09-17T09:27:04Z</time>
      </trkpt>
      <trkpt lat="46.02795" lon="4.55501">
        <ele>652</ele>
        <time>2025-09-17T09:27:05Z</time>
      </trkpt>
      <trkpt lat="46.02794" lon="4.55502">
        <ele>652.2</ele>
        <time>2025-09-17T09:27:06Z</time>
      </trkpt>
      <trkpt lat="46.02793" lon="4.55503">
        <ele>652.4</ele>
        <time>2025-09-17T09:27:07Z</time>
      </trkpt>
      <trkpt lat="46.02793" lon="4.55504">
        <ele>652.8</ele>
        <time>2025-09-17T09:27:08Z</time>
      </trkpt>
      <trkpt lat="46.02793" lon="4.55505">
        <ele>652.8</ele>
        <time>2025-09-17T09:27:09Z</time>
      </trkpt>
      <trkpt lat="46.02792" lon="4.55507">
        <ele>653</ele>
        <time>2025-09-17T09:27:10Z</time>
      </trkpt>
      <trkpt lat="46.02791" lon="4.55508">
        <ele>653</ele>
        <time>2025-09-17T09:27:11Z</time>
      </trkpt>
      <trkpt lat="46.02791" lon="4.55509">
        <ele>653.4</ele>
        <time>2025-09-17T09:27:12Z</time>
      </trkpt>
      <trkpt lat="46.0279" lon="4.5551">
        <ele>653.8</ele>
        <time>2025-09-17T09:27:13Z</time>
      </trkpt>
      <trkpt lat="46.0279" lon="4.55512">
        <ele>654</ele>
        <time>2025-09-17T09:27:14Z</time>
      </trkpt>
      <trkpt lat="46.02789" lon="4.55514">
        <ele>654.2</ele>
        <time>2025-09-17T09:27:15Z</time>
      </trkpt>
      <trkpt lat="46.02788" lon="4.55515">
        <ele>654.4</ele>
        <time>2025-09-17T09:27:16Z</time>
      </trkpt>
      <trkpt lat="46.02788" lon="4.55516">
        <ele>654.8</ele>
        <time>2025-09-17T09:27:17Z</time>
      </trkpt>
      <trkpt lat="46.02787" lon="4.55518">
        <ele>654.8</ele>
        <time>2025-09-17T09:27:18Z</time>
      </trkpt>
      <trkpt lat="46.02787" lon="4.5552">
        <ele>655</ele>
        <time>2025-09-17T09:27:19Z</time>
      </trkpt>
      <trkpt lat="46.02786" lon="4.55521">
        <ele>655</ele>
        <time>2025-09-17T09:27:20Z</time>
      </trkpt>
      <trkpt lat="46.02785" lon="4.55522">
        <ele>655.4</ele>
        <time>2025-09-17T09:27:21Z</time>
      </trkpt>
      <trkpt lat="46.02784" lon="4.55523">
        <ele>655.4</ele>
        <time>2025-09-17T09:27:22Z</time>
      </trkpt>
      <trkpt lat="46.02783" lon="4.55524">
        <ele>655.8</ele>
        <time>2025-09-17T09:27:23Z</time>
      </trkpt>
      <trkpt lat="46.02782" lon="4.55525">
        <ele>656</ele>
        <time>2025-09-17T09:27:24Z</time>
      </trkpt>
      <trkpt lat="46.02781" lon="4.55525">
        <ele>656.2</ele>
        <time>2025-09-17T09:27:25Z</time>
      </trkpt>
      <trkpt lat="46.0278" lon="4.55527">
        <ele>656.2</ele>
        <time>2025-09-17T09:27:26Z</time>
      </trkpt>
      <trkpt lat="46.0278" lon="4.55528">
        <ele>656.6</ele>
        <time>2025-09-17T09:27:27Z</time>
      </trkpt>
      <trkpt lat="46.02779" lon="4.5553">
        <ele>656.8</ele>
        <time>2025-09-17T09:27:28Z</time>
      </trkpt>
      <trkpt lat="46.02779" lon="4.55531">
        <ele>657</ele>
        <time>2025-09-17T09:27:29Z</time>
      </trkpt>
      <trkpt lat="46.02779" lon="4.55533">
        <ele>657.2</ele>
        <time>2025-09-17T09:27:30Z</time>
      </trkpt>
      <trkpt lat="46.02778" lon="4.55535">
        <ele>657.6</ele>
        <time>2025-09-17T09:27:31Z</time>
      </trkpt>
      <trkpt lat="46.02776" lon="4.55536">
        <ele>657.8</ele>
        <time>2025-09-17T09:27:32Z</time>
      </trkpt>
      <trkpt lat="46.02776" lon="4.55537">
        <ele>657.8</ele>
        <time>2025-09-17T09:27:33Z</time>
      </trkpt>
      <trkpt lat="46.02775" lon="4.55538">
        <ele>658.2</ele>
        <time>2025-09-17T09:27:34Z</time>
      </trkpt>
      <trkpt lat="46.02774" lon="4.5554">
        <ele>658.4</ele>
        <time>2025-09-17T09:27:35Z</time>
      </trkpt>
      <trkpt lat="46.02773" lon="4.5554">
        <ele>658.6</ele>
        <time>2025-09-17T09:27:36Z</time>
      </trkpt>
      <trkpt lat="46.02772" lon="4.55541">
        <ele>659</ele>
        <time>2025-09-17T09:27:37Z</time>
      </trkpt>
      <trkpt lat="46.02772" lon="4.55543">
        <ele>659.2</ele>
        <time>2025-09-17T09:27:38Z</time>
      </trkpt>
      <trkpt lat="46.02771" lon="4.55544">
        <ele>659.2</ele>
        <time>2025-09-17T09:27:39Z</time>
      </trkpt>
      <trkpt lat="46.02771" lon="4.55544">
        <ele>659.6</ele>
        <time>2025-09-17T09:27:40Z</time>
      </trkpt>
      <trkpt lat="46.0277" lon="4.55545">
        <ele>659.6</ele>
        <time>2025-09-17T09:27:41Z</time>
      </trkpt>
      <trkpt lat="46.02769" lon="4.55547">
        <ele>659.8</ele>
        <time>2025-09-17T09:27:42Z</time>
      </trkpt>
      <trkpt lat="46.02768" lon="4.55548">
        <ele>660</ele>
        <time>2025-09-17T09:27:43Z</time>
      </trkpt>
      <trkpt lat="46.02768" lon="4.55549">
        <ele>660</ele>
        <time>2025-09-17T09:27:44Z</time>
      </trkpt>
      <trkpt lat="46.02767" lon="4.55551">
        <ele>660</ele>
        <time>2025-09-17T09:27:45Z</time>
      </trkpt>
      <trkpt lat="46.02767" lon="4.55552">
        <ele>660.4</ele>
        <time>2025-09-17T09:27:46Z</time>
      </trkpt>
      <trkpt lat="46.02766" lon="4.55553">
        <ele>660.4</ele>
        <time>2025-09-17T09:27:47Z</time>
      </trkpt>
      <trkpt lat="46.02765" lon="4.55554">
        <ele>660.8</ele>
        <time>2025-09-17T09:27:48Z</time>
      </trkpt>
      <trkpt lat="46.02764" lon="4.55555">
        <ele>661</ele>
        <time>2025-09-17T09:27:49Z</time>
      </trkpt>
      <trkpt lat="46.02763" lon="4.55556">
        <ele>661.2</ele>
        <time>2025-09-17T09:27:50Z</time>
      </trkpt>
      <trkpt lat="46.02761" lon="4.55559">
        <ele>661.6</ele>
        <time>2025-09-17T09:27:51Z</time>
      </trkpt>
      <trkpt lat="46.0276" lon="4.55561">
        <ele>661.8</ele>
        <time>2025-09-17T09:27:52Z</time>
      </trkpt>
      <trkpt lat="46.02759" lon="4.55563">
        <ele>662</ele>
        <time>2025-09-17T09:27:53Z</time>
      </trkpt>
      <trkpt lat="46.02758" lon="4.55564">
        <ele>662.2</ele>
        <time>2025-09-17T09:27:54Z</time>
      </trkpt>
      <trkpt lat="46.02757" lon="4.55564">
        <ele>662.6</ele>
        <time>2025-09-17T09:27:55Z</time>
      </trkpt>
      <trkpt lat="46.02756" lon="4.55565">
        <ele>662.8</ele>
        <time>2025-09-17T09:27:56Z</time>
      </trkpt>
      <trkpt lat="46.02755" lon="4.55566">
        <ele>662.8</ele>
        <time>2025-09-17T09:27:57Z</time>
      </trkpt>
      <trkpt lat="46.02754" lon="4.55567">
        <ele>662.8</ele>
        <time>2025-09-17T09:27:58Z</time>
      </trkpt>
      <trkpt lat="46.02753" lon="4.55568">
        <ele>662.8</ele>
        <time>2025-09-17T09:27:59Z</time>
      </trkpt>
      <trkpt lat="46.02753" lon="4.55569">
        <ele>663.2</ele>
        <time>2025-09-17T09:28:00Z</time>
      </trkpt>
      <trkpt lat="46.02752" lon="4.5557">
        <ele>663.2</ele>
        <time>2025-09-17T09:28:01Z</time>
      </trkpt>
      <trkpt lat="46.02751" lon="4.5557">
        <ele>663.6</ele>
        <time>2025-09-17T09:28:02Z</time>
      </trkpt>
      <trkpt lat="46.0275" lon="4.55571">
        <ele>663.8</ele>
        <time>2025-09-17T09:28:03Z</time>
      </trkpt>
      <trkpt lat="46.02749" lon="4.55572">
        <ele>664.2</ele>
        <time>2025-09-17T09:28:04Z</time>
      </trkpt>
      <trkpt lat="46.02749" lon="4.55573">
        <ele>664.2</ele>
        <time>2025-09-17T09:28:05Z</time>
      </trkpt>
      <trkpt lat="46.02748" lon="4.55575">
        <ele>664.6</ele>
        <time>2025-09-17T09:28:06Z</time>
      </trkpt>
      <trkpt lat="46.02747" lon="4.55577">
        <ele>664.6</ele>
        <time>2025-09-17T09:28:07Z</time>
      </trkpt>
      <trkpt lat="46.02746" lon="4.55578">
        <ele>664.6</ele>
        <time>2025-09-17T09:28:08Z</time>
      </trkpt>
      <trkpt lat="46.02746" lon="4.55578">
        <ele>665</ele>
        <time>2025-09-17T09:28:09Z</time>
      </trkpt>
      <trkpt lat="46.02745" lon="4.55579">
        <ele>665.4</ele>
        <time>2025-09-17T09:28:10Z</time>
      </trkpt>
      <trkpt lat="46.02744" lon="4.55579">
        <ele>665.8</ele>
        <time>2025-09-17T09:28:11Z</time>
      </trkpt>
      <trkpt lat="46.02742" lon="4.55579">
        <ele>666</ele>
        <time>2025-09-17T09:28:12Z</time>
      </trkpt>
      <trkpt lat="46.02741" lon="4.5558">
        <ele>666.2</ele>
        <time>2025-09-17T09:28:13Z</time>
      </trkpt>
      <trkpt lat="46.0274" lon="4.55581">
        <ele>666.6</ele>
        <time>2025-09-17T09:28:14Z</time>
      </trkpt>
      <trkpt lat="46.02739" lon="4.55581">
        <ele>666.6</ele>
        <time>2025-09-17T09:28:15Z</time>
      </trkpt>
      <trkpt lat="46.02738" lon="4.55582">
        <ele>666.6</ele>
        <time>2025-09-17T09:28:16Z</time>
      </trkpt>
      <trkpt lat="46.02737" lon="4.55582">
        <ele>667</ele>
        <time>2025-09-17T09:28:17Z</time>
      </trkpt>
      <trkpt lat="46.02737" lon="4.55583">
        <ele>667</ele>
        <time>2025-09-17T09:28:18Z</time>
      </trkpt>
      <trkpt lat="46.02736" lon="4.55584">
        <ele>667.4</ele>
        <time>2025-09-17T09:28:19Z</time>
      </trkpt>
      <trkpt lat="46.02736" lon="4.55585">
        <ele>667.4</ele>
        <time>2025-09-17T09:28:20Z</time>
      </trkpt>
      <trkpt lat="46.02735" lon="4.55587">
        <ele>667.4</ele>
        <time>2025-09-17T09:28:21Z</time>
      </trkpt>
      <trkpt lat="46.02734" lon="4.55589">
        <ele>667.8</ele>
        <time>2025-09-17T09:28:22Z</time>
      </trkpt>
      <trkpt lat="46.02733" lon="4.5559">
        <ele>668.2</ele>
        <time>2025-09-17T09:28:23Z</time>
      </trkpt>
      <trkpt lat="46.02731" lon="4.55591">
        <ele>668.2</ele>
        <time>2025-09-17T09:28:24Z</time>
      </trkpt>
      <trkpt lat="46.0273" lon="4.55592">
        <ele>668.6</ele>
        <time>2025-09-17T09:28:25Z</time>
      </trkpt>
      <trkpt lat="46.02729" lon="4.55592">
        <ele>668.8</ele>
        <time>2025-09-17T09:28:26Z</time>
      </trkpt>
      <trkpt lat="46.02728" lon="4.55593">
        <ele>668.8</ele>
        <time>2025-09-17T09:28:27Z</time>
      </trkpt>
      <trkpt lat="46.02727" lon="4.55593">
        <ele>669.2</ele>
        <time>2025-09-17T09:28:28Z</time>
      </trkpt>
      <trkpt lat="46.02726" lon="4.55594">
        <ele>669.4</ele>
        <time>2025-09-17T09:28:29Z</time>
      </trkpt>
      <trkpt lat="46.02725" lon="4.55595">
        <ele>669.4</ele>
        <time>2025-09-17T09:28:30Z</time>
      </trkpt>
      <trkpt lat="46.02724" lon="4.55595">
        <ele>669.6</ele>
        <time>2025-09-17T09:28:31Z</time>
      </trkpt>
      <trkpt lat="46.02723" lon="4.55596">
        <ele>669.8</ele>
        <time>2025-09-17T09:28:32Z</time>
      </trkpt>
      <trkpt lat="46.02721" lon="4.55596">
        <ele>670.2</ele>
        <time>2025-09-17T09:28:33Z</time>
      </trkpt>
      <trkpt lat="46.0272" lon="4.55597">
        <ele>670.4</ele>
        <time>2025-09-17T09:28:34Z</time>
      </trkpt>
      <trkpt lat="46.0272" lon="4.55598">
        <ele>670.8</ele>
        <time>2025-09-17T09:28:35Z</time>
      </trkpt>
      <trkpt lat="46.02719" lon="4.55599">
        <ele>671</ele>
        <time>2025-09-17T09:28:36Z</time>
      </trkpt>
      <trkpt lat="46.02718" lon="4.556">
        <ele>671</ele>
        <time>2025-09-17T09:28:37Z</time>
      </trkpt>
      <trkpt lat="46.02717" lon="4.55601">
        <ele>671.4</ele>
        <time>2025-09-17T09:28:38Z</time>
      </trkpt>
      <trkpt lat="46.02716" lon="4.55601">
        <ele>671.6</ele>
        <time>2025-09-17T09:28:39Z</time>
      </trkpt>
      <trkpt lat="46.02715" lon="4.55602">
        <ele>671.8</ele>
        <time>2025-09-17T09:28:40Z</time>
      </trkpt>
      <trkpt lat="46.02714" lon="4.55603">
        <ele>671.8</ele>
        <time>2025-09-17T09:28:41Z</time>
      </trkpt>
      <trkpt lat="46.02713" lon="4.55603">
        <ele>672.2</ele>
        <time>2025-09-17T09:28:42Z</time>
      </trkpt>
      <trkpt lat="46.02712" lon="4.55605">
        <ele>672.2</ele>
        <time>2025-09-17T09:28:43Z</time>
      </trkpt>
      <trkpt lat="46.02711" lon="4.55605">
        <ele>672.6</ele>
        <time>2025-09-17T09:28:44Z</time>
      </trkpt>
      <trkpt lat="46.0271" lon="4.55606">
        <ele>672.6</ele>
        <time>2025-09-17T09:28:45Z</time>
      </trkpt>
      <trkpt lat="46.02709" lon="4.55607">
        <ele>673</ele>
        <time>2025-09-17T09:28:46Z</time>
      </trkpt>
      <trkpt lat="46.02708" lon="4.55607">
        <ele>673.4</ele>
        <time>2025-09-17T09:28:47Z</time>
      </trkpt>
      <trkpt lat="46.02707" lon="4.55608">
        <ele>673.6</ele>
        <time>2025-09-17T09:28:48Z</time>
      </trkpt>
      <trkpt lat="46.02706" lon="4.55608">
        <ele>674</ele>
        <time>2025-09-17T09:28:49Z</time>
      </trkpt>
      <trkpt lat="46.02705" lon="4.55609">
        <ele>674.2</ele>
        <time>2025-09-17T09:28:50Z</time>
      </trkpt>
      <trkpt lat="46.02704" lon="4.5561">
        <ele>674.4</ele>
        <time>2025-09-17T09:28:51Z</time>
      </trkpt>
      <trkpt lat="46.02703" lon="4.55611">
        <ele>674.8</ele>
        <time>2025-09-17T09:28:52Z</time>
      </trkpt>
      <trkpt lat="46.02702" lon="4.55612">
        <ele>675</ele>
        <time>2025-09-17T09:28:53Z</time>
      </trkpt>
      <trkpt lat="46.02701" lon="4.55613">
        <ele>675.4</ele>
        <time>2025-09-17T09:28:54Z</time>
      </trkpt>
      <trkpt lat="46.027" lon="4.55614">
        <ele>675.8</ele>
        <time>2025-09-17T09:28:55Z</time>
      </trkpt>
      <trkpt lat="46.027" lon="4.55616">
        <ele>676</ele>
        <time>2025-09-17T09:28:56Z</time>
      </trkpt>
      <trkpt lat="46.02699" lon="4.55618">
        <ele>676.2</ele>
        <time>2025-09-17T09:28:57Z</time>
      </trkpt>
      <trkpt lat="46.02698" lon="4.55619">
        <ele>676.2</ele>
        <time>2025-09-17T09:28:58Z</time>
      </trkpt>
      <trkpt lat="46.02697" lon="4.5562">
        <ele>676.6</ele>
        <time>2025-09-17T09:28:59Z</time>
      </trkpt>
      <trkpt lat="46.02696" lon="4.55621">
        <ele>677</ele>
        <time>2025-09-17T09:29:00Z</time>
      </trkpt>
      <trkpt lat="46.02696" lon="4.55622">
        <ele>677</ele>
        <time>2025-09-17T09:29:01Z</time>
      </trkpt>
      <trkpt lat="46.02695" lon="4.55623">
        <ele>677.2</ele>
        <time>2025-09-17T09:29:02Z</time>
      </trkpt>
      <trkpt lat="46.02694" lon="4.55623">
        <ele>677.4</ele>
        <time>2025-09-17T09:29:03Z</time>
      </trkpt>
      <trkpt lat="46.02693" lon="4.55624">
        <ele>677.6</ele>
        <time>2025-09-17T09:29:04Z</time>
      </trkpt>
      <trkpt lat="46.02693" lon="4.55625">
        <ele>677.6</ele>
        <time>2025-09-17T09:29:05Z</time>
      </trkpt>
      <trkpt lat="46.02692" lon="4.55626">
        <ele>678</ele>
        <time>2025-09-17T09:29:06Z</time>
      </trkpt>
      <trkpt lat="46.02692" lon="4.55628">
        <ele>678</ele>
        <time>2025-09-17T09:29:07Z</time>
      </trkpt>
      <trkpt lat="46.02691" lon="4.55629">
        <ele>678.4</ele>
        <time>2025-09-17T09:29:08Z</time>
      </trkpt>
      <trkpt lat="46.02691" lon="4.55631">
        <ele>678.6</ele>
        <time>2025-09-17T09:29:09Z</time>
      </trkpt>
      <trkpt lat="46.0269" lon="4.55632">
        <ele>678.8</ele>
        <time>2025-09-17T09:29:10Z</time>
      </trkpt>
      <trkpt lat="46.02689" lon="4.55633">
        <ele>678.8</ele>
        <time>2025-09-17T09:29:11Z</time>
      </trkpt>
      <trkpt lat="46.02688" lon="4.55634">
        <ele>679.2</ele>
        <time>2025-09-17T09:29:12Z</time>
      </trkpt>
      <trkpt lat="46.02686" lon="4.55635">
        <ele>679.2</ele>
        <time>2025-09-17T09:29:13Z</time>
      </trkpt>
      <trkpt lat="46.02685" lon="4.55636">
        <ele>679.4</ele>
        <time>2025-09-17T09:29:14Z</time>
      </trkpt>
      <trkpt lat="46.02684" lon="4.55638">
        <ele>679.4</ele>
        <time>2025-09-17T09:29:15Z</time>
      </trkpt>
      <trkpt lat="46.02683" lon="4.55639">
        <ele>679.4</ele>
        <time>2025-09-17T09:29:16Z</time>
      </trkpt>
      <trkpt lat="46.02682" lon="4.5564">
        <ele>679.4</ele>
        <time>2025-09-17T09:29:17Z</time>
      </trkpt>
      <trkpt lat="46.02681" lon="4.55641">
        <ele>679.4</ele>
        <time>2025-09-17T09:29:18Z</time>
      </trkpt>
      <trkpt lat="46.0268" lon="4.55642">
        <ele>679.4</ele>
        <time>2025-09-17T09:29:19Z</time>
      </trkpt>
      <trkpt lat="46.02679" lon="4.55643">
        <ele>679.4</ele>
        <time>2025-09-17T09:29:20Z</time>
      </trkpt>
      <trkpt lat="46.02678" lon="4.55645">
        <ele>679.4</ele>
        <time>2025-09-17T09:29:21Z</time>
      </trkpt>
      <trkpt lat="46.02677" lon="4.55646">
        <ele>679.8</ele>
        <time>2025-09-17T09:29:22Z</time>
      </trkpt>
      <trkpt lat="46.02677" lon="4.55647">
        <ele>679.8</ele>
        <time>2025-09-17T09:29:23Z</time>
      </trkpt>
      <trkpt lat="46.02677" lon="4.55647">
        <ele>680.2</ele>
        <time>2025-09-17T09:29:24Z</time>
      </trkpt>
      <trkpt lat="46.02676" lon="4.55649">
        <ele>680.2</ele>
        <time>2025-09-17T09:29:25Z</time>
      </trkpt>
      <trkpt lat="46.02676" lon="4.55651">
        <ele>680.2</ele>
        <time>2025-09-17T09:29:26Z</time>
      </trkpt>
      <trkpt lat="46.02675" lon="4.55652">
        <ele>680.2</ele>
        <time>2025-09-17T09:29:27Z</time>
      </trkpt>
      <trkpt lat="46.02674" lon="4.55654">
        <ele>680.6</ele>
        <time>2025-09-17T09:29:28Z</time>
      </trkpt>
      <trkpt lat="46.02673" lon="4.55655">
        <ele>680.6</ele>
        <time>2025-09-17T09:29:29Z</time>
      </trkpt>
      <trkpt lat="46.02672" lon="4.55657">
        <ele>680.8</ele>
        <time>2025-09-17T09:29:30Z</time>
      </trkpt>
      <trkpt lat="46.0267" lon="4.55659">
        <ele>680.8</ele>
        <time>2025-09-17T09:29:31Z</time>
      </trkpt>
      <trkpt lat="46.0267" lon="4.55661">
        <ele>681.2</ele>
        <time>2025-09-17T09:29:32Z</time>
      </trkpt>
      <trkpt lat="46.02669" lon="4.55663">
        <ele>680.8</ele>
        <time>2025-09-17T09:29:33Z</time>
      </trkpt>
      <trkpt lat="46.02669" lon="4.55665">
        <ele>681</ele>
        <time>2025-09-17T09:29:34Z</time>
      </trkpt>
      <trkpt lat="46.02669" lon="4.55668">
        <ele>681.4</ele>
        <time>2025-09-17T09:29:35Z</time>
      </trkpt>
      <trkpt lat="46.02669" lon="4.5567">
        <ele>681.8</ele>
        <time>2025-09-17T09:29:36Z</time>
      </trkpt>
      <trkpt lat="46.0267" lon="4.55673">
        <ele>681.8</ele>
        <time>2025-09-17T09:29:37Z</time>
      </trkpt>
      <trkpt lat="46.02671" lon="4.55675">
        <ele>681.8</ele>
        <time>2025-09-17T09:29:38Z</time>
      </trkpt>
      <trkpt lat="46.02673" lon="4.55676">
        <ele>681.8</ele>
        <time>2025-09-17T09:29:39Z</time>
      </trkpt>
      <trkpt lat="46.02674" lon="4.55676">
        <ele>681.8</ele>
        <time>2025-09-17T09:29:40Z</time>
      </trkpt>
      <trkpt lat="46.02675" lon="4.55677">
        <ele>682</ele>
        <time>2025-09-17T09:29:41Z</time>
      </trkpt>
      <trkpt lat="46.02676" lon="4.55678">
        <ele>682</ele>
        <time>2025-09-17T09:29:42Z</time>
      </trkpt>
      <trkpt lat="46.02675" lon="4.55677">
        <ele>682.2</ele>
        <time>2025-09-17T09:29:43Z</time>
      </trkpt>
      <trkpt lat="46.02676" lon="4.55679">
        <ele>682.8</ele>
        <time>2025-09-17T09:31:17Z</time>
      </trkpt>
      <trkpt lat="46.02676" lon="4.55677">
        <ele>683</ele>
        <time>2025-09-17T09:31:18Z</time>
      </trkpt>
      <trkpt lat="46.02676" lon="4.55675">
        <ele>683</ele>
        <time>2025-09-17T09:31:19Z</time>
      </trkpt>
      <trkpt lat="46.02675" lon="4.55675">
        <ele>683</ele>
        <time>2025-09-17T09:31:20Z</time>
      </trkpt>
      <trkpt lat="46.02675" lon="4.55675">
        <ele>682.8</ele>
        <time>2025-09-17T09:31:21Z</time>
      </trkpt>
      <trkpt lat="46.02675" lon="4.55676">
        <ele>682.8</ele>
        <time>2025-09-17T09:31:22Z</time>
      </trkpt>
      <trkpt lat="46.02675" lon="4.55677">
        <ele>682.4</ele>
        <time>2025-09-17T09:31:23Z</time>
      </trkpt>
      <trkpt lat="46.02675" lon="4.55677">
        <ele>682.4</ele>
        <time>2025-09-17T09:31:24Z</time>
      </trkpt>
      <trkpt lat="46.02674" lon="4.55676">
        <ele>682.4</ele>
        <time>2025-09-17T09:31:25Z</time>
      </trkpt>
      <trkpt lat="46.02672" lon="4.55674">
        <ele>682</ele>
        <time>2025-09-17T09:31:26Z</time>
      </trkpt>
      <trkpt lat="46.0267" lon="4.55673">
        <ele>682</ele>
        <time>2025-09-17T09:31:27Z</time>
      </trkpt>
      <trkpt lat="46.02669" lon="4.55673">
        <ele>681.8</ele>
        <time>2025-09-17T09:31:28Z</time>
      </trkpt>
      <trkpt lat="46.02667" lon="4.55672">
        <ele>681.8</ele>
        <time>2025-09-17T09:31:29Z</time>
      </trkpt>
      <trkpt lat="46.02665" lon="4.55671">
        <ele>681.8</ele>
        <time>2025-09-17T09:31:30Z</time>
      </trkpt>
      <trkpt lat="46.02664" lon="4.5567">
        <ele>681.8</ele>
        <time>2025-09-17T09:31:31Z</time>
      </trkpt>
      <trkpt lat="46.02662" lon="4.55669">
        <ele>681.8</ele>
        <time>2025-09-17T09:31:32Z</time>
      </trkpt>
      <trkpt lat="46.0266" lon="4.55668">
        <ele>681.8</ele>
        <time>2025-09-17T09:31:33Z</time>
      </trkpt>
      <trkpt lat="46.02658" lon="4.55667">
        <ele>681.8</ele>
        <time>2025-09-17T09:31:34Z</time>
      </trkpt>
      <trkpt lat="46.02656" lon="4.55666">
        <ele>681.8</ele>
        <time>2025-09-17T09:31:35Z</time>
      </trkpt>
      <trkpt lat="46.02654" lon="4.55666">
        <ele>681.8</ele>
        <time>2025-09-17T09:31:36Z</time>
      </trkpt>
      <trkpt lat="46.02652" lon="4.55666">
        <ele>681.8</ele>
        <time>2025-09-17T09:31:37Z</time>
      </trkpt>
      <trkpt lat="46.02649" lon="4.55666">
        <ele>681.8</ele>
        <time>2025-09-17T09:31:38Z</time>
      </trkpt>
      <trkpt lat="46.02647" lon="4.55666">
        <ele>681.8</ele>
        <time>2025-09-17T09:31:39Z</time>
      </trkpt>
      <trkpt lat="46.02645" lon="4.55666">
        <ele>681.8</ele>
        <time>2025-09-17T09:31:40Z</time>
      </trkpt>
      <trkpt lat="46.02642" lon="4.55665">
        <ele>681.8</ele>
        <time>2025-09-17T09:31:41Z</time>
      </trkpt>
      <trkpt lat="46.0264" lon="4.55665">
        <ele>682</ele>
        <time>2025-09-17T09:31:42Z</time>
      </trkpt>
      <trkpt lat="46.02638" lon="4.55665">
        <ele>682</ele>
        <time>2025-09-17T09:31:43Z</time>
      </trkpt>
      <trkpt lat="46.02635" lon="4.55665">
        <ele>682.4</ele>
        <time>2025-09-17T09:31:44Z</time>
      </trkpt>
      <trkpt lat="46.02633" lon="4.55665">
        <ele>682.4</ele>
        <time>2025-09-17T09:31:45Z</time>
      </trkpt>
      <trkpt lat="46.02631" lon="4.55665">
        <ele>682.4</ele>
        <time>2025-09-17T09:31:46Z</time>
      </trkpt>
      <trkpt lat="46.02629" lon="4.55665">
        <ele>683</ele>
        <time>2025-09-17T09:31:47Z</time>
      </trkpt>
      <trkpt lat="46.02627" lon="4.55666">
        <ele>683</ele>
        <time>2025-09-17T09:31:48Z</time>
      </trkpt>
      <trkpt lat="46.02625" lon="4.55667">
        <ele>683.4</ele>
        <time>2025-09-17T09:31:49Z</time>
      </trkpt>
      <trkpt lat="46.02624" lon="4.55667">
        <ele>683.4</ele>
        <time>2025-09-17T09:31:50Z</time>
      </trkpt>
      <trkpt lat="46.02622" lon="4.55667">
        <ele>683.6</ele>
        <time>2025-09-17T09:31:51Z</time>
      </trkpt>
      <trkpt lat="46.02619" lon="4.55667">
        <ele>683.6</ele>
        <time>2025-09-17T09:31:52Z</time>
      </trkpt>
      <trkpt lat="46.02617" lon="4.55667">
        <ele>684</ele>
        <time>2025-09-17T09:31:53Z</time>
      </trkpt>
      <trkpt lat="46.02615" lon="4.55666">
        <ele>684</ele>
        <time>2025-09-17T09:31:54Z</time>
      </trkpt>
      <trkpt lat="46.02613" lon="4.55666">
        <ele>684</ele>
        <time>2025-09-17T09:31:55Z</time>
      </trkpt>
      <trkpt lat="46.0261" lon="4.55666">
        <ele>684.4</ele>
        <time>2025-09-17T09:31:56Z</time>
      </trkpt>
      <trkpt lat="46.02608" lon="4.55666">
        <ele>684.6</ele>
        <time>2025-09-17T09:31:57Z</time>
      </trkpt>
      <trkpt lat="46.02605" lon="4.55666">
        <ele>684.6</ele>
        <time>2025-09-17T09:31:58Z</time>
      </trkpt>
      <trkpt lat="46.02603" lon="4.55667">
        <ele>685</ele>
        <time>2025-09-17T09:31:59Z</time>
      </trkpt>
      <trkpt lat="46.026" lon="4.55667">
        <ele>685</ele>
        <time>2025-09-17T09:32:00Z</time>
      </trkpt>
      <trkpt lat="46.02598" lon="4.55667">
        <ele>685</ele>
        <time>2025-09-17T09:32:01Z</time>
      </trkpt>
      <trkpt lat="46.02596" lon="4.55667">
        <ele>685</ele>
        <time>2025-09-17T09:32:02Z</time>
      </trkpt>
      <trkpt lat="46.02593" lon="4.55668">
        <ele>685.2</ele>
        <time>2025-09-17T09:32:03Z</time>
      </trkpt>
      <trkpt lat="46.02591" lon="4.55668">
        <ele>685.4</ele>
        <time>2025-09-17T09:32:04Z</time>
      </trkpt>
      <trkpt lat="46.02589" lon="4.55669">
        <ele>685.4</ele>
        <time>2025-09-17T09:32:05Z</time>
      </trkpt>
      <trkpt lat="46.02587" lon="4.5567">
        <ele>685.8</ele>
        <time>2025-09-17T09:32:06Z</time>
      </trkpt>
      <trkpt lat="46.02585" lon="4.5567">
        <ele>686</ele>
        <time>2025-09-17T09:32:07Z</time>
      </trkpt>
      <trkpt lat="46.02583" lon="4.55671">
        <ele>686.4</ele>
        <time>2025-09-17T09:32:08Z</time>
      </trkpt>
      <trkpt lat="46.02581" lon="4.55671">
        <ele>686.6</ele>
        <time>2025-09-17T09:32:09Z</time>
      </trkpt>
      <trkpt lat="46.02579" lon="4.55671">
        <ele>687</ele>
        <time>2025-09-17T09:32:10Z</time>
      </trkpt>
      <trkpt lat="46.02578" lon="4.55671">
        <ele>687</ele>
        <time>2025-09-17T09:32:11Z</time>
      </trkpt>
      <trkpt lat="46.02576" lon="4.55671">
        <ele>687.2</ele>
        <time>2025-09-17T09:32:12Z</time>
      </trkpt>
      <trkpt lat="46.02574" lon="4.5567">
        <ele>687.4</ele>
        <time>2025-09-17T09:32:13Z</time>
      </trkpt>
      <trkpt lat="46.02573" lon="4.5567">
        <ele>687.4</ele>
        <time>2025-09-17T09:32:14Z</time>
      </trkpt>
      <trkpt lat="46.02572" lon="4.5567">
        <ele>687.4</ele>
        <time>2025-09-17T09:32:15Z</time>
      </trkpt>
      <trkpt lat="46.02571" lon="4.5567">
        <ele>687.8</ele>
        <time>2025-09-17T09:32:16Z</time>
      </trkpt>
      <trkpt lat="46.02569" lon="4.55671">
        <ele>688</ele>
        <time>2025-09-17T09:32:17Z</time>
      </trkpt>
      <trkpt lat="46.02568" lon="4.55672">
        <ele>688</ele>
        <time>2025-09-17T09:32:18Z</time>
      </trkpt>
      <trkpt lat="46.02566" lon="4.55672">
        <ele>688.4</ele>
        <time>2025-09-17T09:32:19Z</time>
      </trkpt>
      <trkpt lat="46.02565" lon="4.55673">
        <ele>688.4</ele>
        <time>2025-09-17T09:32:20Z</time>
      </trkpt>
      <trkpt lat="46.02563" lon="4.55673">
        <ele>688.8</ele>
        <time>2025-09-17T09:32:21Z</time>
      </trkpt>
      <trkpt lat="46.02562" lon="4.55673">
        <ele>688.8</ele>
        <time>2025-09-17T09:32:22Z</time>
      </trkpt>
      <trkpt lat="46.02561" lon="4.55673">
        <ele>689</ele>
        <time>2025-09-17T09:32:23Z</time>
      </trkpt>
      <trkpt lat="46.02559" lon="4.55673">
        <ele>689.4</ele>
        <time>2025-09-17T09:32:24Z</time>
      </trkpt>
      <trkpt lat="46.02558" lon="4.55673">
        <ele>689.4</ele>
        <time>2025-09-17T09:32:25Z</time>
      </trkpt>
      <trkpt lat="46.02556" lon="4.55673">
        <ele>689.8</ele>
        <time>2025-09-17T09:32:26Z</time>
      </trkpt>
      <trkpt lat="46.02555" lon="4.55674">
        <ele>690</ele>
        <time>2025-09-17T09:32:27Z</time>
      </trkpt>
      <trkpt lat="46.02555" lon="4.55674">
        <ele>690.2</ele>
        <time>2025-09-17T09:32:28Z</time>
      </trkpt>
      <trkpt lat="46.0255" lon="4.55674">
        <ele>690.4</ele>
        <time>2025-09-17T09:32:30Z</time>
      </trkpt>
      <trkpt lat="46.02549" lon="4.55675">
        <ele>690.4</ele>
        <time>2025-09-17T09:32:31Z</time>
      </trkpt>
      <trkpt lat="46.02547" lon="4.55675">
        <ele>690.6</ele>
        <time>2025-09-17T09:32:32Z</time>
      </trkpt>
      <trkpt lat="46.02546" lon="4.55674">
        <ele>691.2</ele>
        <time>2025-09-17T09:32:33Z</time>
      </trkpt>
      <trkpt lat="46.02544" lon="4.55674">
        <ele>691.4</ele>
        <time>2025-09-17T09:32:34Z</time>
      </trkpt>
      <trkpt lat="46.02543" lon="4.55675">
        <ele>691.6</ele>
        <time>2025-09-17T09:32:35Z</time>
      </trkpt>
      <trkpt lat="46.02541" lon="4.55675">
        <ele>691.6</ele>
        <time>2025-09-17T09:32:36Z</time>
      </trkpt>
      <trkpt lat="46.0254" lon="4.55675">
        <ele>691.8</ele>
        <time>2025-09-17T09:32:37Z</time>
      </trkpt>
      <trkpt lat="46.02538" lon="4.55675">
        <ele>691.8</ele>
        <time>2025-09-17T09:32:38Z</time>
      </trkpt>
      <trkpt lat="46.02537" lon="4.55674">
        <ele>692</ele>
        <time>2025-09-17T09:32:39Z</time>
      </trkpt>
      <trkpt lat="46.02535" lon="4.55674">
        <ele>692</ele>
        <time>2025-09-17T09:32:40Z</time>
      </trkpt>
      <trkpt lat="46.02533" lon="4.55674">
        <ele>692.4</ele>
        <time>2025-09-17T09:32:41Z</time>
      </trkpt>
      <trkpt lat="46.02532" lon="4.55674">
        <ele>692.4</ele>
        <time>2025-09-17T09:32:42Z</time>
      </trkpt>
      <trkpt lat="46.02529" lon="4.55675">
        <ele>692.4</ele>
        <time>2025-09-17T09:32:43Z</time>
      </trkpt>
      <trkpt lat="46.02528" lon="4.55676">
        <ele>692.4</ele>
        <time>2025-09-17T09:32:44Z</time>
      </trkpt>
    </trkseg>
  </trk>
</gpx>